<?xml version="1.0" encoding="UTF-8" standalone="no" ?>
<gpx xmlns="http://www.topografix.com/GPX/1/1" xmlns:xsi="http://www.w3.org/2001/XMLSchema-instance" xsi:schemaLocation="http://www.topografix.com/GPX/1/1 http://www.topografix.com/GPX/1/1/gpx.xsd" version="1.1" creator="VisuGPX - https://www.visugpx.com">
  <metadata>
    <name>auzas 22-12-2013</name>
    <desc><![CDATA[Très  beau temps]]></desc>
  </metadata>
  <trk>
    <name><![CDATA[Auzas 22/12/2013]]></name>
    <desc><![CDATA[Soleil]]></desc>
    <trkseg>
      <trkpt lat="43.17058" lon="0.88631">
        <ele>391.2</ele>
        <time>2013-12-22T14:49:28</time>
      </trkpt>
      <trkpt lat="43.17057" lon="0.88631">
        <ele>393.1</ele>
        <time>2013-12-22T14:49:32</time>
      </trkpt>
      <trkpt lat="43.17056" lon="0.88631">
        <ele>393.2</ele>
        <time>2013-12-22T14:49:33</time>
      </trkpt>
      <trkpt lat="43.17056" lon="0.88631">
        <ele>391.6</ele>
        <time>2013-12-22T14:49:40</time>
      </trkpt>
      <trkpt lat="43.17056" lon="0.8863">
        <ele>391.7</ele>
        <time>2013-12-22T14:49:41</time>
      </trkpt>
      <trkpt lat="43.17055" lon="0.88628">
        <ele>394.8</ele>
        <time>2013-12-22T14:49:55</time>
      </trkpt>
      <trkpt lat="43.17055" lon="0.88625">
        <ele>395.1</ele>
        <time>2013-12-22T14:50:13</time>
      </trkpt>
      <trkpt lat="43.17055" lon="0.88625">
        <ele>395.1</ele>
        <time>2013-12-22T14:50:14</time>
      </trkpt>
      <trkpt lat="43.17055" lon="0.88624">
        <ele>395.2</ele>
        <time>2013-12-22T14:50:15</time>
      </trkpt>
      <trkpt lat="43.17056" lon="0.88623">
        <ele>395.5</ele>
        <time>2013-12-22T14:50:16</time>
      </trkpt>
      <trkpt lat="43.17056" lon="0.88622">
        <ele>395.8</ele>
        <time>2013-12-22T14:50:17</time>
      </trkpt>
      <trkpt lat="43.17056" lon="0.88621">
        <ele>395.7</ele>
        <time>2013-12-22T14:50:18</time>
      </trkpt>
      <trkpt lat="43.17057" lon="0.8862">
        <ele>395.2</ele>
        <time>2013-12-22T14:50:19</time>
      </trkpt>
      <trkpt lat="43.17057" lon="0.8862">
        <ele>394.7</ele>
        <time>2013-12-22T14:50:20</time>
      </trkpt>
      <trkpt lat="43.17058" lon="0.88619">
        <ele>394.5</ele>
        <time>2013-12-22T14:50:21</time>
      </trkpt>
      <trkpt lat="43.17059" lon="0.88618">
        <ele>394.3</ele>
        <time>2013-12-22T14:50:22</time>
      </trkpt>
      <trkpt lat="43.17059" lon="0.88617">
        <ele>393.9</ele>
        <time>2013-12-22T14:50:23</time>
      </trkpt>
      <trkpt lat="43.1706" lon="0.88617">
        <ele>393.6</ele>
        <time>2013-12-22T14:50:24</time>
      </trkpt>
      <trkpt lat="43.1706" lon="0.88616">
        <ele>393.6</ele>
        <time>2013-12-22T14:50:25</time>
      </trkpt>
      <trkpt lat="43.17061" lon="0.88615">
        <ele>393.5</ele>
        <time>2013-12-22T14:50:26</time>
      </trkpt>
      <trkpt lat="43.17061" lon="0.88614">
        <ele>393.5</ele>
        <time>2013-12-22T14:50:27</time>
      </trkpt>
      <trkpt lat="43.17061" lon="0.88613">
        <ele>393.5</ele>
        <time>2013-12-22T14:50:28</time>
      </trkpt>
      <trkpt lat="43.17061" lon="0.88612">
        <ele>393.9</ele>
        <time>2013-12-22T14:50:29</time>
      </trkpt>
      <trkpt lat="43.17061" lon="0.88611">
        <ele>393.7</ele>
        <time>2013-12-22T14:50:30</time>
      </trkpt>
      <trkpt lat="43.17061" lon="0.88609">
        <ele>393.6</ele>
        <time>2013-12-22T14:50:31</time>
      </trkpt>
      <trkpt lat="43.17061" lon="0.88609">
        <ele>393.6</ele>
        <time>2013-12-22T14:50:32</time>
      </trkpt>
      <trkpt lat="43.17062" lon="0.88608">
        <ele>393.3</ele>
        <time>2013-12-22T14:50:33</time>
      </trkpt>
      <trkpt lat="43.17062" lon="0.88608">
        <ele>393.2</ele>
        <time>2013-12-22T14:50:34</time>
      </trkpt>
      <trkpt lat="43.17063" lon="0.88608">
        <ele>393.1</ele>
        <time>2013-12-22T14:50:35</time>
      </trkpt>
      <trkpt lat="43.17064" lon="0.88608">
        <ele>392.7</ele>
        <time>2013-12-22T14:50:36</time>
      </trkpt>
      <trkpt lat="43.17065" lon="0.88608">
        <ele>393.4</ele>
        <time>2013-12-22T14:50:37</time>
      </trkpt>
      <trkpt lat="43.17065" lon="0.88608">
        <ele>393.2</ele>
        <time>2013-12-22T14:50:38</time>
      </trkpt>
      <trkpt lat="43.17067" lon="0.88608">
        <ele>393.1</ele>
        <time>2013-12-22T14:50:39</time>
      </trkpt>
      <trkpt lat="43.17067" lon="0.88608">
        <ele>392.9</ele>
        <time>2013-12-22T14:50:40</time>
      </trkpt>
      <trkpt lat="43.17068" lon="0.88608">
        <ele>392.9</ele>
        <time>2013-12-22T14:50:41</time>
      </trkpt>
      <trkpt lat="43.17069" lon="0.88608">
        <ele>392.7</ele>
        <time>2013-12-22T14:50:42</time>
      </trkpt>
      <trkpt lat="43.1707" lon="0.88608">
        <ele>391.7</ele>
        <time>2013-12-22T14:50:43</time>
      </trkpt>
      <trkpt lat="43.17071" lon="0.88608">
        <ele>391.5</ele>
        <time>2013-12-22T14:50:44</time>
      </trkpt>
      <trkpt lat="43.17071" lon="0.88608">
        <ele>391.8</ele>
        <time>2013-12-22T14:50:45</time>
      </trkpt>
      <trkpt lat="43.17072" lon="0.88607">
        <ele>391.4</ele>
        <time>2013-12-22T14:50:46</time>
      </trkpt>
      <trkpt lat="43.17072" lon="0.88606">
        <ele>390.8</ele>
        <time>2013-12-22T14:50:47</time>
      </trkpt>
      <trkpt lat="43.17072" lon="0.88605">
        <ele>390.5</ele>
        <time>2013-12-22T14:50:48</time>
      </trkpt>
      <trkpt lat="43.17072" lon="0.88604">
        <ele>390.5</ele>
        <time>2013-12-22T14:50:49</time>
      </trkpt>
      <trkpt lat="43.17072" lon="0.88603">
        <ele>390.4</ele>
        <time>2013-12-22T14:50:50</time>
      </trkpt>
      <trkpt lat="43.17072" lon="0.88602">
        <ele>389.6</ele>
        <time>2013-12-22T14:50:51</time>
      </trkpt>
      <trkpt lat="43.17073" lon="0.88603">
        <ele>387.4</ele>
        <time>2013-12-22T14:51:12</time>
      </trkpt>
      <trkpt lat="43.17074" lon="0.88603">
        <ele>387.1</ele>
        <time>2013-12-22T14:51:13</time>
      </trkpt>
      <trkpt lat="43.17075" lon="0.88604">
        <ele>387.1</ele>
        <time>2013-12-22T14:51:14</time>
      </trkpt>
      <trkpt lat="43.17076" lon="0.88606">
        <ele>387</ele>
        <time>2013-12-22T14:51:15</time>
      </trkpt>
      <trkpt lat="43.17077" lon="0.88607">
        <ele>387</ele>
        <time>2013-12-22T14:51:16</time>
      </trkpt>
      <trkpt lat="43.17077" lon="0.88608">
        <ele>386.8</ele>
        <time>2013-12-22T14:51:17</time>
      </trkpt>
      <trkpt lat="43.17078" lon="0.88608">
        <ele>386.4</ele>
        <time>2013-12-22T14:51:18</time>
      </trkpt>
      <trkpt lat="43.17078" lon="0.88609">
        <ele>386.2</ele>
        <time>2013-12-22T14:51:19</time>
      </trkpt>
      <trkpt lat="43.17079" lon="0.8861">
        <ele>386.3</ele>
        <time>2013-12-22T14:51:20</time>
      </trkpt>
      <trkpt lat="43.1708" lon="0.8861">
        <ele>386.2</ele>
        <time>2013-12-22T14:51:21</time>
      </trkpt>
      <trkpt lat="43.17081" lon="0.88611">
        <ele>386.1</ele>
        <time>2013-12-22T14:51:22</time>
      </trkpt>
      <trkpt lat="43.17082" lon="0.88611">
        <ele>386.2</ele>
        <time>2013-12-22T14:51:23</time>
      </trkpt>
      <trkpt lat="43.17083" lon="0.88612">
        <ele>386.3</ele>
        <time>2013-12-22T14:51:24</time>
      </trkpt>
      <trkpt lat="43.17084" lon="0.88613">
        <ele>386.2</ele>
        <time>2013-12-22T14:51:25</time>
      </trkpt>
      <trkpt lat="43.17085" lon="0.88613">
        <ele>386.1</ele>
        <time>2013-12-22T14:51:26</time>
      </trkpt>
      <trkpt lat="43.17085" lon="0.88614">
        <ele>385.9</ele>
        <time>2013-12-22T14:51:27</time>
      </trkpt>
      <trkpt lat="43.17086" lon="0.88614">
        <ele>385.7</ele>
        <time>2013-12-22T14:51:28</time>
      </trkpt>
      <trkpt lat="43.17087" lon="0.88615">
        <ele>385.6</ele>
        <time>2013-12-22T14:51:29</time>
      </trkpt>
      <trkpt lat="43.17088" lon="0.88616">
        <ele>385.6</ele>
        <time>2013-12-22T14:51:30</time>
      </trkpt>
      <trkpt lat="43.17088" lon="0.88617">
        <ele>385.1</ele>
        <time>2013-12-22T14:51:31</time>
      </trkpt>
      <trkpt lat="43.17089" lon="0.88618">
        <ele>385</ele>
        <time>2013-12-22T14:51:32</time>
      </trkpt>
      <trkpt lat="43.1709" lon="0.88619">
        <ele>384.8</ele>
        <time>2013-12-22T14:51:33</time>
      </trkpt>
      <trkpt lat="43.1709" lon="0.8862">
        <ele>384.8</ele>
        <time>2013-12-22T14:51:34</time>
      </trkpt>
      <trkpt lat="43.17091" lon="0.8862">
        <ele>384.4</ele>
        <time>2013-12-22T14:51:35</time>
      </trkpt>
      <trkpt lat="43.17091" lon="0.88621">
        <ele>384.3</ele>
        <time>2013-12-22T14:51:36</time>
      </trkpt>
      <trkpt lat="43.17093" lon="0.88622">
        <ele>384.4</ele>
        <time>2013-12-22T14:51:37</time>
      </trkpt>
      <trkpt lat="43.17093" lon="0.88623">
        <ele>384.5</ele>
        <time>2013-12-22T14:51:38</time>
      </trkpt>
      <trkpt lat="43.17094" lon="0.88624">
        <ele>384.4</ele>
        <time>2013-12-22T14:51:39</time>
      </trkpt>
      <trkpt lat="43.17094" lon="0.88625">
        <ele>384.2</ele>
        <time>2013-12-22T14:51:40</time>
      </trkpt>
      <trkpt lat="43.17095" lon="0.88626">
        <ele>384.2</ele>
        <time>2013-12-22T14:51:41</time>
      </trkpt>
      <trkpt lat="43.17096" lon="0.88627">
        <ele>384.2</ele>
        <time>2013-12-22T14:51:42</time>
      </trkpt>
      <trkpt lat="43.17096" lon="0.88628">
        <ele>384.1</ele>
        <time>2013-12-22T14:51:43</time>
      </trkpt>
      <trkpt lat="43.17097" lon="0.88629">
        <ele>384.3</ele>
        <time>2013-12-22T14:51:44</time>
      </trkpt>
      <trkpt lat="43.17098" lon="0.88631">
        <ele>384.2</ele>
        <time>2013-12-22T14:51:45</time>
      </trkpt>
      <trkpt lat="43.17098" lon="0.88632">
        <ele>383.7</ele>
        <time>2013-12-22T14:51:46</time>
      </trkpt>
      <trkpt lat="43.17099" lon="0.88633">
        <ele>383.9</ele>
        <time>2013-12-22T14:51:47</time>
      </trkpt>
      <trkpt lat="43.171" lon="0.88634">
        <ele>383.7</ele>
        <time>2013-12-22T14:51:48</time>
      </trkpt>
      <trkpt lat="43.17101" lon="0.88635">
        <ele>383.6</ele>
        <time>2013-12-22T14:51:49</time>
      </trkpt>
      <trkpt lat="43.17101" lon="0.88636">
        <ele>383.7</ele>
        <time>2013-12-22T14:51:50</time>
      </trkpt>
      <trkpt lat="43.17102" lon="0.88637">
        <ele>383.8</ele>
        <time>2013-12-22T14:51:51</time>
      </trkpt>
      <trkpt lat="43.17102" lon="0.88639">
        <ele>383.8</ele>
        <time>2013-12-22T14:51:52</time>
      </trkpt>
      <trkpt lat="43.17103" lon="0.8864">
        <ele>383.4</ele>
        <time>2013-12-22T14:51:53</time>
      </trkpt>
      <trkpt lat="43.17104" lon="0.88641">
        <ele>383.3</ele>
        <time>2013-12-22T14:51:54</time>
      </trkpt>
      <trkpt lat="43.17104" lon="0.88642">
        <ele>382.9</ele>
        <time>2013-12-22T14:51:55</time>
      </trkpt>
      <trkpt lat="43.17105" lon="0.88643">
        <ele>382.6</ele>
        <time>2013-12-22T14:51:56</time>
      </trkpt>
      <trkpt lat="43.17106" lon="0.88644">
        <ele>382.6</ele>
        <time>2013-12-22T14:51:57</time>
      </trkpt>
      <trkpt lat="43.17107" lon="0.88645">
        <ele>382.8</ele>
        <time>2013-12-22T14:51:58</time>
      </trkpt>
      <trkpt lat="43.17107" lon="0.88647">
        <ele>382.5</ele>
        <time>2013-12-22T14:51:59</time>
      </trkpt>
      <trkpt lat="43.17108" lon="0.88648">
        <ele>382.1</ele>
        <time>2013-12-22T14:52:00</time>
      </trkpt>
      <trkpt lat="43.17109" lon="0.88649">
        <ele>382</ele>
        <time>2013-12-22T14:52:01</time>
      </trkpt>
      <trkpt lat="43.1711" lon="0.8865">
        <ele>382</ele>
        <time>2013-12-22T14:52:02</time>
      </trkpt>
      <trkpt lat="43.17111" lon="0.88651">
        <ele>382</ele>
        <time>2013-12-22T14:52:03</time>
      </trkpt>
      <trkpt lat="43.17112" lon="0.88652">
        <ele>381.9</ele>
        <time>2013-12-22T14:52:04</time>
      </trkpt>
      <trkpt lat="43.17112" lon="0.88654">
        <ele>381.8</ele>
        <time>2013-12-22T14:52:05</time>
      </trkpt>
      <trkpt lat="43.17113" lon="0.88655">
        <ele>381.7</ele>
        <time>2013-12-22T14:52:06</time>
      </trkpt>
      <trkpt lat="43.17114" lon="0.88656">
        <ele>381.6</ele>
        <time>2013-12-22T14:52:07</time>
      </trkpt>
      <trkpt lat="43.17115" lon="0.88657">
        <ele>381.5</ele>
        <time>2013-12-22T14:52:08</time>
      </trkpt>
      <trkpt lat="43.17116" lon="0.88658">
        <ele>381.5</ele>
        <time>2013-12-22T14:52:09</time>
      </trkpt>
      <trkpt lat="43.17117" lon="0.88659">
        <ele>381.1</ele>
        <time>2013-12-22T14:52:10</time>
      </trkpt>
      <trkpt lat="43.17117" lon="0.8866">
        <ele>381.1</ele>
        <time>2013-12-22T14:52:11</time>
      </trkpt>
      <trkpt lat="43.17119" lon="0.88661">
        <ele>381.2</ele>
        <time>2013-12-22T14:52:12</time>
      </trkpt>
      <trkpt lat="43.17119" lon="0.88662">
        <ele>380.9</ele>
        <time>2013-12-22T14:52:13</time>
      </trkpt>
      <trkpt lat="43.1712" lon="0.88664">
        <ele>381</ele>
        <time>2013-12-22T14:52:14</time>
      </trkpt>
      <trkpt lat="43.17121" lon="0.88665">
        <ele>380.9</ele>
        <time>2013-12-22T14:52:15</time>
      </trkpt>
      <trkpt lat="43.17122" lon="0.88666">
        <ele>380.8</ele>
        <time>2013-12-22T14:52:16</time>
      </trkpt>
      <trkpt lat="43.17122" lon="0.88667">
        <ele>380.5</ele>
        <time>2013-12-22T14:52:17</time>
      </trkpt>
      <trkpt lat="43.17123" lon="0.88668">
        <ele>380.3</ele>
        <time>2013-12-22T14:52:18</time>
      </trkpt>
      <trkpt lat="43.17124" lon="0.88669">
        <ele>380.2</ele>
        <time>2013-12-22T14:52:19</time>
      </trkpt>
      <trkpt lat="43.17125" lon="0.8867">
        <ele>380</ele>
        <time>2013-12-22T14:52:20</time>
      </trkpt>
      <trkpt lat="43.17126" lon="0.88671">
        <ele>379.7</ele>
        <time>2013-12-22T14:52:21</time>
      </trkpt>
      <trkpt lat="43.17127" lon="0.88672">
        <ele>379.7</ele>
        <time>2013-12-22T14:52:22</time>
      </trkpt>
      <trkpt lat="43.17128" lon="0.88673">
        <ele>379.2</ele>
        <time>2013-12-22T14:52:23</time>
      </trkpt>
      <trkpt lat="43.17129" lon="0.88674">
        <ele>379.3</ele>
        <time>2013-12-22T14:52:24</time>
      </trkpt>
      <trkpt lat="43.1713" lon="0.88675">
        <ele>379.4</ele>
        <time>2013-12-22T14:52:25</time>
      </trkpt>
      <trkpt lat="43.1713" lon="0.88676">
        <ele>379.5</ele>
        <time>2013-12-22T14:52:26</time>
      </trkpt>
      <trkpt lat="43.17131" lon="0.88677">
        <ele>379.6</ele>
        <time>2013-12-22T14:52:27</time>
      </trkpt>
      <trkpt lat="43.17132" lon="0.88679">
        <ele>379.7</ele>
        <time>2013-12-22T14:52:28</time>
      </trkpt>
      <trkpt lat="43.17133" lon="0.8868">
        <ele>379.6</ele>
        <time>2013-12-22T14:52:29</time>
      </trkpt>
      <trkpt lat="43.17134" lon="0.88681">
        <ele>379.6</ele>
        <time>2013-12-22T14:52:30</time>
      </trkpt>
      <trkpt lat="43.17135" lon="0.88682">
        <ele>379.6</ele>
        <time>2013-12-22T14:52:31</time>
      </trkpt>
      <trkpt lat="43.17136" lon="0.88683">
        <ele>379.5</ele>
        <time>2013-12-22T14:52:32</time>
      </trkpt>
      <trkpt lat="43.17137" lon="0.88684">
        <ele>379.7</ele>
        <time>2013-12-22T14:52:33</time>
      </trkpt>
      <trkpt lat="43.17138" lon="0.88685">
        <ele>379.6</ele>
        <time>2013-12-22T14:52:34</time>
      </trkpt>
      <trkpt lat="43.17139" lon="0.88686">
        <ele>379.3</ele>
        <time>2013-12-22T14:52:35</time>
      </trkpt>
      <trkpt lat="43.1714" lon="0.88686">
        <ele>379.1</ele>
        <time>2013-12-22T14:52:36</time>
      </trkpt>
      <trkpt lat="43.17141" lon="0.88687">
        <ele>378.8</ele>
        <time>2013-12-22T14:52:37</time>
      </trkpt>
      <trkpt lat="43.17142" lon="0.88688">
        <ele>378.6</ele>
        <time>2013-12-22T14:52:38</time>
      </trkpt>
      <trkpt lat="43.17143" lon="0.88689">
        <ele>378</ele>
        <time>2013-12-22T14:52:39</time>
      </trkpt>
      <trkpt lat="43.17144" lon="0.8869">
        <ele>378.2</ele>
        <time>2013-12-22T14:52:40</time>
      </trkpt>
      <trkpt lat="43.17145" lon="0.88691">
        <ele>378.4</ele>
        <time>2013-12-22T14:52:41</time>
      </trkpt>
      <trkpt lat="43.17146" lon="0.88692">
        <ele>379.3</ele>
        <time>2013-12-22T14:52:42</time>
      </trkpt>
      <trkpt lat="43.17147" lon="0.88693">
        <ele>379.1</ele>
        <time>2013-12-22T14:52:43</time>
      </trkpt>
      <trkpt lat="43.17148" lon="0.88694">
        <ele>378.6</ele>
        <time>2013-12-22T14:52:44</time>
      </trkpt>
      <trkpt lat="43.17149" lon="0.88695">
        <ele>378.6</ele>
        <time>2013-12-22T14:52:45</time>
      </trkpt>
      <trkpt lat="43.1715" lon="0.88695">
        <ele>378.7</ele>
        <time>2013-12-22T14:52:46</time>
      </trkpt>
      <trkpt lat="43.17151" lon="0.88696">
        <ele>378.8</ele>
        <time>2013-12-22T14:52:47</time>
      </trkpt>
      <trkpt lat="43.17152" lon="0.88697">
        <ele>378.8</ele>
        <time>2013-12-22T14:52:48</time>
      </trkpt>
      <trkpt lat="43.17153" lon="0.88698">
        <ele>378.7</ele>
        <time>2013-12-22T14:52:49</time>
      </trkpt>
      <trkpt lat="43.17154" lon="0.88699">
        <ele>378.6</ele>
        <time>2013-12-22T14:52:50</time>
      </trkpt>
      <trkpt lat="43.17155" lon="0.887">
        <ele>378.5</ele>
        <time>2013-12-22T14:52:51</time>
      </trkpt>
      <trkpt lat="43.17156" lon="0.88701">
        <ele>378.7</ele>
        <time>2013-12-22T14:52:52</time>
      </trkpt>
      <trkpt lat="43.17157" lon="0.88702">
        <ele>378.6</ele>
        <time>2013-12-22T14:52:53</time>
      </trkpt>
      <trkpt lat="43.17158" lon="0.88703">
        <ele>378.6</ele>
        <time>2013-12-22T14:52:54</time>
      </trkpt>
      <trkpt lat="43.17159" lon="0.88704">
        <ele>378.2</ele>
        <time>2013-12-22T14:52:55</time>
      </trkpt>
      <trkpt lat="43.1716" lon="0.88705">
        <ele>378.1</ele>
        <time>2013-12-22T14:52:56</time>
      </trkpt>
      <trkpt lat="43.17161" lon="0.88706">
        <ele>378.1</ele>
        <time>2013-12-22T14:52:57</time>
      </trkpt>
      <trkpt lat="43.17162" lon="0.88707">
        <ele>378.1</ele>
        <time>2013-12-22T14:52:58</time>
      </trkpt>
      <trkpt lat="43.17163" lon="0.88708">
        <ele>378</ele>
        <time>2013-12-22T14:52:59</time>
      </trkpt>
      <trkpt lat="43.17164" lon="0.88708">
        <ele>377.8</ele>
        <time>2013-12-22T14:53:00</time>
      </trkpt>
      <trkpt lat="43.17165" lon="0.88709">
        <ele>377.9</ele>
        <time>2013-12-22T14:53:01</time>
      </trkpt>
      <trkpt lat="43.17165" lon="0.8871">
        <ele>378</ele>
        <time>2013-12-22T14:53:02</time>
      </trkpt>
      <trkpt lat="43.17167" lon="0.88711">
        <ele>377.6</ele>
        <time>2013-12-22T14:53:03</time>
      </trkpt>
      <trkpt lat="43.17167" lon="0.88712">
        <ele>377.6</ele>
        <time>2013-12-22T14:53:04</time>
      </trkpt>
      <trkpt lat="43.17168" lon="0.88713">
        <ele>377.4</ele>
        <time>2013-12-22T14:53:05</time>
      </trkpt>
      <trkpt lat="43.17169" lon="0.88714">
        <ele>377.5</ele>
        <time>2013-12-22T14:53:06</time>
      </trkpt>
      <trkpt lat="43.1717" lon="0.88715">
        <ele>377.1</ele>
        <time>2013-12-22T14:53:07</time>
      </trkpt>
      <trkpt lat="43.17171" lon="0.88716">
        <ele>377.2</ele>
        <time>2013-12-22T14:53:08</time>
      </trkpt>
      <trkpt lat="43.17172" lon="0.88717">
        <ele>377.2</ele>
        <time>2013-12-22T14:53:09</time>
      </trkpt>
      <trkpt lat="43.17173" lon="0.88718">
        <ele>377.3</ele>
        <time>2013-12-22T14:53:10</time>
      </trkpt>
      <trkpt lat="43.17174" lon="0.88719">
        <ele>377</ele>
        <time>2013-12-22T14:53:11</time>
      </trkpt>
      <trkpt lat="43.17175" lon="0.8872">
        <ele>377.1</ele>
        <time>2013-12-22T14:53:12</time>
      </trkpt>
      <trkpt lat="43.17175" lon="0.88721">
        <ele>377.2</ele>
        <time>2013-12-22T14:53:13</time>
      </trkpt>
      <trkpt lat="43.17176" lon="0.88722">
        <ele>377.3</ele>
        <time>2013-12-22T14:53:14</time>
      </trkpt>
      <trkpt lat="43.17177" lon="0.88722">
        <ele>377.6</ele>
        <time>2013-12-22T14:53:15</time>
      </trkpt>
      <trkpt lat="43.17178" lon="0.88723">
        <ele>377.4</ele>
        <time>2013-12-22T14:53:16</time>
      </trkpt>
      <trkpt lat="43.17179" lon="0.88724">
        <ele>377.3</ele>
        <time>2013-12-22T14:53:17</time>
      </trkpt>
      <trkpt lat="43.1718" lon="0.88725">
        <ele>377.3</ele>
        <time>2013-12-22T14:53:18</time>
      </trkpt>
      <trkpt lat="43.17181" lon="0.88726">
        <ele>377.4</ele>
        <time>2013-12-22T14:53:19</time>
      </trkpt>
      <trkpt lat="43.17181" lon="0.88727">
        <ele>377.4</ele>
        <time>2013-12-22T14:53:20</time>
      </trkpt>
      <trkpt lat="43.17182" lon="0.88727">
        <ele>377.7</ele>
        <time>2013-12-22T14:53:21</time>
      </trkpt>
      <trkpt lat="43.17183" lon="0.88728">
        <ele>377.7</ele>
        <time>2013-12-22T14:53:22</time>
      </trkpt>
      <trkpt lat="43.17184" lon="0.88729">
        <ele>377.7</ele>
        <time>2013-12-22T14:53:23</time>
      </trkpt>
      <trkpt lat="43.17185" lon="0.8873">
        <ele>377.8</ele>
        <time>2013-12-22T14:53:24</time>
      </trkpt>
      <trkpt lat="43.17186" lon="0.88731">
        <ele>377.8</ele>
        <time>2013-12-22T14:53:25</time>
      </trkpt>
      <trkpt lat="43.17186" lon="0.88732">
        <ele>377.9</ele>
        <time>2013-12-22T14:53:26</time>
      </trkpt>
      <trkpt lat="43.17187" lon="0.88733">
        <ele>377.9</ele>
        <time>2013-12-22T14:53:27</time>
      </trkpt>
      <trkpt lat="43.17188" lon="0.88734">
        <ele>378</ele>
        <time>2013-12-22T14:53:28</time>
      </trkpt>
      <trkpt lat="43.17189" lon="0.88734">
        <ele>378.1</ele>
        <time>2013-12-22T14:53:29</time>
      </trkpt>
      <trkpt lat="43.1719" lon="0.88735">
        <ele>378</ele>
        <time>2013-12-22T14:53:30</time>
      </trkpt>
      <trkpt lat="43.17191" lon="0.88736">
        <ele>377.9</ele>
        <time>2013-12-22T14:53:31</time>
      </trkpt>
      <trkpt lat="43.17191" lon="0.88737">
        <ele>377.9</ele>
        <time>2013-12-22T14:53:32</time>
      </trkpt>
      <trkpt lat="43.17192" lon="0.88738">
        <ele>377.9</ele>
        <time>2013-12-22T14:53:33</time>
      </trkpt>
      <trkpt lat="43.17193" lon="0.88739">
        <ele>378.2</ele>
        <time>2013-12-22T14:53:34</time>
      </trkpt>
      <trkpt lat="43.17194" lon="0.8874">
        <ele>378.4</ele>
        <time>2013-12-22T14:53:35</time>
      </trkpt>
      <trkpt lat="43.17194" lon="0.88741">
        <ele>378.3</ele>
        <time>2013-12-22T14:53:36</time>
      </trkpt>
      <trkpt lat="43.17196" lon="0.88742">
        <ele>378.6</ele>
        <time>2013-12-22T14:53:37</time>
      </trkpt>
      <trkpt lat="43.17196" lon="0.88743">
        <ele>378.7</ele>
        <time>2013-12-22T14:53:38</time>
      </trkpt>
      <trkpt lat="43.17197" lon="0.88744">
        <ele>378.7</ele>
        <time>2013-12-22T14:53:39</time>
      </trkpt>
      <trkpt lat="43.17198" lon="0.88745">
        <ele>378.7</ele>
        <time>2013-12-22T14:53:40</time>
      </trkpt>
      <trkpt lat="43.17199" lon="0.88746">
        <ele>378.6</ele>
        <time>2013-12-22T14:53:41</time>
      </trkpt>
      <trkpt lat="43.17199" lon="0.88747">
        <ele>378.3</ele>
        <time>2013-12-22T14:53:42</time>
      </trkpt>
      <trkpt lat="43.172" lon="0.88747">
        <ele>378.3</ele>
        <time>2013-12-22T14:53:43</time>
      </trkpt>
      <trkpt lat="43.17201" lon="0.88748">
        <ele>378.2</ele>
        <time>2013-12-22T14:53:44</time>
      </trkpt>
      <trkpt lat="43.17202" lon="0.88749">
        <ele>378.2</ele>
        <time>2013-12-22T14:53:45</time>
      </trkpt>
      <trkpt lat="43.17202" lon="0.8875">
        <ele>378</ele>
        <time>2013-12-22T14:53:46</time>
      </trkpt>
      <trkpt lat="43.17203" lon="0.88751">
        <ele>378</ele>
        <time>2013-12-22T14:53:47</time>
      </trkpt>
      <trkpt lat="43.17204" lon="0.88752">
        <ele>378</ele>
        <time>2013-12-22T14:53:48</time>
      </trkpt>
      <trkpt lat="43.17204" lon="0.88753">
        <ele>378</ele>
        <time>2013-12-22T14:53:49</time>
      </trkpt>
      <trkpt lat="43.17205" lon="0.88754">
        <ele>378</ele>
        <time>2013-12-22T14:53:50</time>
      </trkpt>
      <trkpt lat="43.17205" lon="0.88755">
        <ele>378.1</ele>
        <time>2013-12-22T14:53:51</time>
      </trkpt>
      <trkpt lat="43.17206" lon="0.88757">
        <ele>378.3</ele>
        <time>2013-12-22T14:53:52</time>
      </trkpt>
      <trkpt lat="43.17207" lon="0.88758">
        <ele>378.2</ele>
        <time>2013-12-22T14:53:53</time>
      </trkpt>
      <trkpt lat="43.17207" lon="0.88759">
        <ele>378.2</ele>
        <time>2013-12-22T14:53:54</time>
      </trkpt>
      <trkpt lat="43.17208" lon="0.88759">
        <ele>378.2</ele>
        <time>2013-12-22T14:53:55</time>
      </trkpt>
      <trkpt lat="43.17209" lon="0.8876">
        <ele>378.1</ele>
        <time>2013-12-22T14:53:56</time>
      </trkpt>
      <trkpt lat="43.1721" lon="0.88761">
        <ele>378.1</ele>
        <time>2013-12-22T14:53:57</time>
      </trkpt>
      <trkpt lat="43.1721" lon="0.88763">
        <ele>378.1</ele>
        <time>2013-12-22T14:53:58</time>
      </trkpt>
      <trkpt lat="43.17211" lon="0.88764">
        <ele>377.9</ele>
        <time>2013-12-22T14:53:59</time>
      </trkpt>
      <trkpt lat="43.17212" lon="0.88765">
        <ele>377.9</ele>
        <time>2013-12-22T14:54:00</time>
      </trkpt>
      <trkpt lat="43.17212" lon="0.88766">
        <ele>377.8</ele>
        <time>2013-12-22T14:54:01</time>
      </trkpt>
      <trkpt lat="43.17213" lon="0.88767">
        <ele>377.8</ele>
        <time>2013-12-22T14:54:02</time>
      </trkpt>
      <trkpt lat="43.17213" lon="0.88768">
        <ele>377.8</ele>
        <time>2013-12-22T14:54:03</time>
      </trkpt>
      <trkpt lat="43.17214" lon="0.88769">
        <ele>377.7</ele>
        <time>2013-12-22T14:54:04</time>
      </trkpt>
      <trkpt lat="43.17214" lon="0.8877">
        <ele>379.5</ele>
        <time>2013-12-22T14:54:05</time>
      </trkpt>
      <trkpt lat="43.17215" lon="0.88771">
        <ele>379</ele>
        <time>2013-12-22T14:54:06</time>
      </trkpt>
      <trkpt lat="43.17215" lon="0.88772">
        <ele>378.6</ele>
        <time>2013-12-22T14:54:07</time>
      </trkpt>
      <trkpt lat="43.17216" lon="0.88773">
        <ele>378.6</ele>
        <time>2013-12-22T14:54:08</time>
      </trkpt>
      <trkpt lat="43.17217" lon="0.88774">
        <ele>378.5</ele>
        <time>2013-12-22T14:54:09</time>
      </trkpt>
      <trkpt lat="43.17217" lon="0.88775">
        <ele>378.6</ele>
        <time>2013-12-22T14:54:10</time>
      </trkpt>
      <trkpt lat="43.17218" lon="0.88776">
        <ele>378.6</ele>
        <time>2013-12-22T14:54:11</time>
      </trkpt>
      <trkpt lat="43.17218" lon="0.88777">
        <ele>378.6</ele>
        <time>2013-12-22T14:54:12</time>
      </trkpt>
      <trkpt lat="43.17219" lon="0.88778">
        <ele>378.7</ele>
        <time>2013-12-22T14:54:13</time>
      </trkpt>
      <trkpt lat="43.1722" lon="0.88779">
        <ele>378.7</ele>
        <time>2013-12-22T14:54:14</time>
      </trkpt>
      <trkpt lat="43.1722" lon="0.8878">
        <ele>378.8</ele>
        <time>2013-12-22T14:54:15</time>
      </trkpt>
      <trkpt lat="43.17221" lon="0.88781">
        <ele>378.9</ele>
        <time>2013-12-22T14:54:16</time>
      </trkpt>
      <trkpt lat="43.17222" lon="0.88782">
        <ele>378.9</ele>
        <time>2013-12-22T14:54:17</time>
      </trkpt>
      <trkpt lat="43.17222" lon="0.88783">
        <ele>378.9</ele>
        <time>2013-12-22T14:54:18</time>
      </trkpt>
      <trkpt lat="43.17223" lon="0.88784">
        <ele>378.9</ele>
        <time>2013-12-22T14:54:19</time>
      </trkpt>
      <trkpt lat="43.17223" lon="0.88785">
        <ele>379.3</ele>
        <time>2013-12-22T14:54:20</time>
      </trkpt>
      <trkpt lat="43.17224" lon="0.88785">
        <ele>379.3</ele>
        <time>2013-12-22T14:54:27</time>
      </trkpt>
      <trkpt lat="43.17225" lon="0.88786">
        <ele>379.5</ele>
        <time>2013-12-22T14:54:28</time>
      </trkpt>
      <trkpt lat="43.17226" lon="0.88788">
        <ele>379.7</ele>
        <time>2013-12-22T14:54:29</time>
      </trkpt>
      <trkpt lat="43.17227" lon="0.88789">
        <ele>379.9</ele>
        <time>2013-12-22T14:54:30</time>
      </trkpt>
      <trkpt lat="43.17228" lon="0.8879">
        <ele>380.2</ele>
        <time>2013-12-22T14:54:31</time>
      </trkpt>
      <trkpt lat="43.17228" lon="0.88792">
        <ele>380.4</ele>
        <time>2013-12-22T14:54:32</time>
      </trkpt>
      <trkpt lat="43.17229" lon="0.88793">
        <ele>380.6</ele>
        <time>2013-12-22T14:54:33</time>
      </trkpt>
      <trkpt lat="43.1723" lon="0.88794">
        <ele>380.8</ele>
        <time>2013-12-22T14:54:34</time>
      </trkpt>
      <trkpt lat="43.1723" lon="0.88796">
        <ele>380.8</ele>
        <time>2013-12-22T14:54:35</time>
      </trkpt>
      <trkpt lat="43.17231" lon="0.88797">
        <ele>380.9</ele>
        <time>2013-12-22T14:54:36</time>
      </trkpt>
      <trkpt lat="43.17232" lon="0.88798">
        <ele>380.8</ele>
        <time>2013-12-22T14:54:37</time>
      </trkpt>
      <trkpt lat="43.17233" lon="0.88799">
        <ele>381.1</ele>
        <time>2013-12-22T14:54:38</time>
      </trkpt>
      <trkpt lat="43.17233" lon="0.888">
        <ele>381.2</ele>
        <time>2013-12-22T14:54:39</time>
      </trkpt>
      <trkpt lat="43.17234" lon="0.88801">
        <ele>381</ele>
        <time>2013-12-22T14:54:40</time>
      </trkpt>
      <trkpt lat="43.17234" lon="0.88803">
        <ele>381.1</ele>
        <time>2013-12-22T14:54:41</time>
      </trkpt>
      <trkpt lat="43.17235" lon="0.88804">
        <ele>381.5</ele>
        <time>2013-12-22T14:54:42</time>
      </trkpt>
      <trkpt lat="43.17236" lon="0.88805">
        <ele>381.8</ele>
        <time>2013-12-22T14:54:43</time>
      </trkpt>
      <trkpt lat="43.17236" lon="0.88807">
        <ele>381.9</ele>
        <time>2013-12-22T14:54:44</time>
      </trkpt>
      <trkpt lat="43.17237" lon="0.88808">
        <ele>381.9</ele>
        <time>2013-12-22T14:54:45</time>
      </trkpt>
      <trkpt lat="43.17238" lon="0.88809">
        <ele>382</ele>
        <time>2013-12-22T14:54:46</time>
      </trkpt>
      <trkpt lat="43.17238" lon="0.8881">
        <ele>382</ele>
        <time>2013-12-22T14:54:47</time>
      </trkpt>
      <trkpt lat="43.17239" lon="0.88811">
        <ele>382</ele>
        <time>2013-12-22T14:54:48</time>
      </trkpt>
      <trkpt lat="43.1724" lon="0.88812">
        <ele>382</ele>
        <time>2013-12-22T14:54:49</time>
      </trkpt>
      <trkpt lat="43.1724" lon="0.88813">
        <ele>381.7</ele>
        <time>2013-12-22T14:54:50</time>
      </trkpt>
      <trkpt lat="43.17241" lon="0.88814">
        <ele>382</ele>
        <time>2013-12-22T14:54:51</time>
      </trkpt>
      <trkpt lat="43.17242" lon="0.88815">
        <ele>382.2</ele>
        <time>2013-12-22T14:54:52</time>
      </trkpt>
      <trkpt lat="43.17242" lon="0.88816">
        <ele>382.1</ele>
        <time>2013-12-22T14:54:53</time>
      </trkpt>
      <trkpt lat="43.17243" lon="0.88816">
        <ele>381.5</ele>
        <time>2013-12-22T14:54:54</time>
      </trkpt>
      <trkpt lat="43.17244" lon="0.88817">
        <ele>381.5</ele>
        <time>2013-12-22T14:54:55</time>
      </trkpt>
      <trkpt lat="43.17245" lon="0.88818">
        <ele>381.9</ele>
        <time>2013-12-22T14:54:56</time>
      </trkpt>
      <trkpt lat="43.17246" lon="0.88819">
        <ele>385.8</ele>
        <time>2013-12-22T14:54:57</time>
      </trkpt>
      <trkpt lat="43.17246" lon="0.88819">
        <ele>384.6</ele>
        <time>2013-12-22T14:54:58</time>
      </trkpt>
      <trkpt lat="43.17247" lon="0.8882">
        <ele>384</ele>
        <time>2013-12-22T14:54:59</time>
      </trkpt>
      <trkpt lat="43.17248" lon="0.8882">
        <ele>383.9</ele>
        <time>2013-12-22T14:55:00</time>
      </trkpt>
      <trkpt lat="43.17249" lon="0.88821">
        <ele>383.9</ele>
        <time>2013-12-22T14:55:01</time>
      </trkpt>
      <trkpt lat="43.1725" lon="0.88821">
        <ele>383.7</ele>
        <time>2013-12-22T14:55:02</time>
      </trkpt>
      <trkpt lat="43.1725" lon="0.88821">
        <ele>383.7</ele>
        <time>2013-12-22T14:55:03</time>
      </trkpt>
      <trkpt lat="43.17251" lon="0.88821">
        <ele>383.8</ele>
        <time>2013-12-22T14:55:04</time>
      </trkpt>
      <trkpt lat="43.17252" lon="0.88821">
        <ele>383.8</ele>
        <time>2013-12-22T14:55:05</time>
      </trkpt>
      <trkpt lat="43.17253" lon="0.8882">
        <ele>384</ele>
        <time>2013-12-22T14:55:06</time>
      </trkpt>
      <trkpt lat="43.17254" lon="0.8882">
        <ele>384.1</ele>
        <time>2013-12-22T14:55:07</time>
      </trkpt>
      <trkpt lat="43.17254" lon="0.8882">
        <ele>384.4</ele>
        <time>2013-12-22T14:55:08</time>
      </trkpt>
      <trkpt lat="43.17255" lon="0.8882">
        <ele>384.3</ele>
        <time>2013-12-22T14:55:09</time>
      </trkpt>
      <trkpt lat="43.17255" lon="0.88819">
        <ele>384.5</ele>
        <time>2013-12-22T14:55:10</time>
      </trkpt>
      <trkpt lat="43.17256" lon="0.88819">
        <ele>384.6</ele>
        <time>2013-12-22T14:55:11</time>
      </trkpt>
      <trkpt lat="43.17256" lon="0.88819">
        <ele>384.7</ele>
        <time>2013-12-22T14:55:20</time>
      </trkpt>
      <trkpt lat="43.17257" lon="0.88819">
        <ele>384.8</ele>
        <time>2013-12-22T14:55:21</time>
      </trkpt>
      <trkpt lat="43.17257" lon="0.88819">
        <ele>384</ele>
        <time>2013-12-22T14:55:22</time>
      </trkpt>
      <trkpt lat="43.17259" lon="0.88819">
        <ele>383.6</ele>
        <time>2013-12-22T14:55:28</time>
      </trkpt>
      <trkpt lat="43.17259" lon="0.88819">
        <ele>383.6</ele>
        <time>2013-12-22T14:55:29</time>
      </trkpt>
      <trkpt lat="43.1726" lon="0.88818">
        <ele>384.4</ele>
        <time>2013-12-22T14:55:30</time>
      </trkpt>
      <trkpt lat="43.1726" lon="0.88817">
        <ele>386.4</ele>
        <time>2013-12-22T14:55:43</time>
      </trkpt>
      <trkpt lat="43.1726" lon="0.88816">
        <ele>386.1</ele>
        <time>2013-12-22T14:55:44</time>
      </trkpt>
      <trkpt lat="43.17261" lon="0.88816">
        <ele>385.7</ele>
        <time>2013-12-22T14:55:45</time>
      </trkpt>
      <trkpt lat="43.17261" lon="0.88815">
        <ele>385.7</ele>
        <time>2013-12-22T14:55:46</time>
      </trkpt>
      <trkpt lat="43.17262" lon="0.88814">
        <ele>385.8</ele>
        <time>2013-12-22T14:55:47</time>
      </trkpt>
      <trkpt lat="43.17262" lon="0.88813">
        <ele>385.8</ele>
        <time>2013-12-22T14:55:48</time>
      </trkpt>
      <trkpt lat="43.17263" lon="0.88812">
        <ele>385.6</ele>
        <time>2013-12-22T14:55:49</time>
      </trkpt>
      <trkpt lat="43.17263" lon="0.88811">
        <ele>385.7</ele>
        <time>2013-12-22T14:55:50</time>
      </trkpt>
      <trkpt lat="43.17264" lon="0.8881">
        <ele>385.3</ele>
        <time>2013-12-22T14:55:51</time>
      </trkpt>
      <trkpt lat="43.17265" lon="0.88809">
        <ele>385.8</ele>
        <time>2013-12-22T14:55:52</time>
      </trkpt>
      <trkpt lat="43.17265" lon="0.88808">
        <ele>385.8</ele>
        <time>2013-12-22T14:55:53</time>
      </trkpt>
      <trkpt lat="43.17265" lon="0.88807">
        <ele>385.5</ele>
        <time>2013-12-22T14:55:54</time>
      </trkpt>
      <trkpt lat="43.17266" lon="0.88806">
        <ele>385.6</ele>
        <time>2013-12-22T14:55:55</time>
      </trkpt>
      <trkpt lat="43.17266" lon="0.88804">
        <ele>386.1</ele>
        <time>2013-12-22T14:55:56</time>
      </trkpt>
      <trkpt lat="43.17267" lon="0.88803">
        <ele>386.1</ele>
        <time>2013-12-22T14:55:57</time>
      </trkpt>
      <trkpt lat="43.17267" lon="0.88802">
        <ele>385.9</ele>
        <time>2013-12-22T14:55:58</time>
      </trkpt>
      <trkpt lat="43.17267" lon="0.888">
        <ele>386.2</ele>
        <time>2013-12-22T14:55:59</time>
      </trkpt>
      <trkpt lat="43.17267" lon="0.88799">
        <ele>386.9</ele>
        <time>2013-12-22T14:56:00</time>
      </trkpt>
      <trkpt lat="43.17267" lon="0.88798">
        <ele>387</ele>
        <time>2013-12-22T14:56:01</time>
      </trkpt>
      <trkpt lat="43.17267" lon="0.88797">
        <ele>387.3</ele>
        <time>2013-12-22T14:56:02</time>
      </trkpt>
      <trkpt lat="43.17267" lon="0.88795">
        <ele>387.9</ele>
        <time>2013-12-22T14:56:03</time>
      </trkpt>
      <trkpt lat="43.17267" lon="0.88794">
        <ele>388.1</ele>
        <time>2013-12-22T14:56:04</time>
      </trkpt>
      <trkpt lat="43.17268" lon="0.88793">
        <ele>388.6</ele>
        <time>2013-12-22T14:56:05</time>
      </trkpt>
      <trkpt lat="43.17268" lon="0.8879">
        <ele>389.8</ele>
        <time>2013-12-22T14:56:10</time>
      </trkpt>
      <trkpt lat="43.17268" lon="0.88789">
        <ele>389.4</ele>
        <time>2013-12-22T14:56:11</time>
      </trkpt>
      <trkpt lat="43.17269" lon="0.88788">
        <ele>389.3</ele>
        <time>2013-12-22T14:56:12</time>
      </trkpt>
      <trkpt lat="43.17269" lon="0.88786">
        <ele>389.1</ele>
        <time>2013-12-22T14:56:13</time>
      </trkpt>
      <trkpt lat="43.1727" lon="0.88785">
        <ele>389.1</ele>
        <time>2013-12-22T14:56:14</time>
      </trkpt>
      <trkpt lat="43.1727" lon="0.88784">
        <ele>389.1</ele>
        <time>2013-12-22T14:56:15</time>
      </trkpt>
      <trkpt lat="43.17271" lon="0.88782">
        <ele>389.4</ele>
        <time>2013-12-22T14:56:16</time>
      </trkpt>
      <trkpt lat="43.17271" lon="0.88781">
        <ele>389.2</ele>
        <time>2013-12-22T14:56:17</time>
      </trkpt>
      <trkpt lat="43.17272" lon="0.88779">
        <ele>389.4</ele>
        <time>2013-12-22T14:56:18</time>
      </trkpt>
      <trkpt lat="43.17273" lon="0.88778">
        <ele>389.4</ele>
        <time>2013-12-22T14:56:19</time>
      </trkpt>
      <trkpt lat="43.17273" lon="0.88777">
        <ele>389.3</ele>
        <time>2013-12-22T14:56:20</time>
      </trkpt>
      <trkpt lat="43.17274" lon="0.88775">
        <ele>389.3</ele>
        <time>2013-12-22T14:56:21</time>
      </trkpt>
      <trkpt lat="43.17275" lon="0.88774">
        <ele>389.3</ele>
        <time>2013-12-22T14:56:22</time>
      </trkpt>
      <trkpt lat="43.17275" lon="0.88773">
        <ele>389.1</ele>
        <time>2013-12-22T14:56:23</time>
      </trkpt>
      <trkpt lat="43.17276" lon="0.88771">
        <ele>389.1</ele>
        <time>2013-12-22T14:56:24</time>
      </trkpt>
      <trkpt lat="43.17276" lon="0.8877">
        <ele>389.1</ele>
        <time>2013-12-22T14:56:25</time>
      </trkpt>
      <trkpt lat="43.17277" lon="0.88769">
        <ele>389.4</ele>
        <time>2013-12-22T14:56:26</time>
      </trkpt>
      <trkpt lat="43.17278" lon="0.88768">
        <ele>389.2</ele>
        <time>2013-12-22T14:56:27</time>
      </trkpt>
      <trkpt lat="43.17279" lon="0.88767">
        <ele>389.1</ele>
        <time>2013-12-22T14:56:28</time>
      </trkpt>
      <trkpt lat="43.1728" lon="0.88766">
        <ele>388.7</ele>
        <time>2013-12-22T14:56:29</time>
      </trkpt>
      <trkpt lat="43.17281" lon="0.88766">
        <ele>388.5</ele>
        <time>2013-12-22T14:56:30</time>
      </trkpt>
      <trkpt lat="43.17281" lon="0.88766">
        <ele>388.3</ele>
        <time>2013-12-22T14:56:31</time>
      </trkpt>
      <trkpt lat="43.17282" lon="0.88765">
        <ele>388.2</ele>
        <time>2013-12-22T14:56:32</time>
      </trkpt>
      <trkpt lat="43.17283" lon="0.88764">
        <ele>388.1</ele>
        <time>2013-12-22T14:56:33</time>
      </trkpt>
      <trkpt lat="43.17283" lon="0.88763">
        <ele>387.2</ele>
        <time>2013-12-22T14:56:34</time>
      </trkpt>
      <trkpt lat="43.17284" lon="0.88763">
        <ele>387.3</ele>
        <time>2013-12-22T14:56:35</time>
      </trkpt>
      <trkpt lat="43.17284" lon="0.88762">
        <ele>387</ele>
        <time>2013-12-22T14:56:36</time>
      </trkpt>
      <trkpt lat="43.17285" lon="0.88761">
        <ele>386.8</ele>
        <time>2013-12-22T14:56:37</time>
      </trkpt>
      <trkpt lat="43.17286" lon="0.8876">
        <ele>386.8</ele>
        <time>2013-12-22T14:56:38</time>
      </trkpt>
      <trkpt lat="43.17286" lon="0.88758">
        <ele>386.8</ele>
        <time>2013-12-22T14:56:39</time>
      </trkpt>
      <trkpt lat="43.17287" lon="0.88757">
        <ele>386.7</ele>
        <time>2013-12-22T14:56:40</time>
      </trkpt>
      <trkpt lat="43.17287" lon="0.88756">
        <ele>386.7</ele>
        <time>2013-12-22T14:56:41</time>
      </trkpt>
      <trkpt lat="43.17288" lon="0.88755">
        <ele>386.5</ele>
        <time>2013-12-22T14:56:42</time>
      </trkpt>
      <trkpt lat="43.17289" lon="0.88754">
        <ele>386.1</ele>
        <time>2013-12-22T14:56:43</time>
      </trkpt>
      <trkpt lat="43.17289" lon="0.88753">
        <ele>386.3</ele>
        <time>2013-12-22T14:56:44</time>
      </trkpt>
      <trkpt lat="43.1729" lon="0.88751">
        <ele>386.5</ele>
        <time>2013-12-22T14:56:45</time>
      </trkpt>
      <trkpt lat="43.17291" lon="0.8875">
        <ele>386.4</ele>
        <time>2013-12-22T14:56:46</time>
      </trkpt>
      <trkpt lat="43.17291" lon="0.88749">
        <ele>386</ele>
        <time>2013-12-22T14:56:47</time>
      </trkpt>
      <trkpt lat="43.17292" lon="0.88748">
        <ele>385.4</ele>
        <time>2013-12-22T14:56:48</time>
      </trkpt>
      <trkpt lat="43.17292" lon="0.88747">
        <ele>385.3</ele>
        <time>2013-12-22T14:56:49</time>
      </trkpt>
      <trkpt lat="43.17293" lon="0.88745">
        <ele>385.7</ele>
        <time>2013-12-22T14:56:50</time>
      </trkpt>
      <trkpt lat="43.17293" lon="0.88744">
        <ele>386</ele>
        <time>2013-12-22T14:56:52</time>
      </trkpt>
      <trkpt lat="43.17294" lon="0.88744">
        <ele>386</ele>
        <time>2013-12-22T14:56:53</time>
      </trkpt>
      <trkpt lat="43.17294" lon="0.88743">
        <ele>385.6</ele>
        <time>2013-12-22T14:56:54</time>
      </trkpt>
      <trkpt lat="43.17295" lon="0.88741">
        <ele>385.6</ele>
        <time>2013-12-22T14:56:55</time>
      </trkpt>
      <trkpt lat="43.17296" lon="0.8874">
        <ele>385.6</ele>
        <time>2013-12-22T14:56:56</time>
      </trkpt>
      <trkpt lat="43.17297" lon="0.88739">
        <ele>385.5</ele>
        <time>2013-12-22T14:56:57</time>
      </trkpt>
      <trkpt lat="43.17297" lon="0.88737">
        <ele>385.4</ele>
        <time>2013-12-22T14:56:58</time>
      </trkpt>
      <trkpt lat="43.17298" lon="0.88736">
        <ele>385.5</ele>
        <time>2013-12-22T14:56:59</time>
      </trkpt>
      <trkpt lat="43.17299" lon="0.88735">
        <ele>385.6</ele>
        <time>2013-12-22T14:57:00</time>
      </trkpt>
      <trkpt lat="43.17299" lon="0.88734">
        <ele>385.5</ele>
        <time>2013-12-22T14:57:01</time>
      </trkpt>
      <trkpt lat="43.173" lon="0.88733">
        <ele>385.3</ele>
        <time>2013-12-22T14:57:02</time>
      </trkpt>
      <trkpt lat="43.17301" lon="0.88732">
        <ele>385.5</ele>
        <time>2013-12-22T14:57:03</time>
      </trkpt>
      <trkpt lat="43.17302" lon="0.88731">
        <ele>385.6</ele>
        <time>2013-12-22T14:57:04</time>
      </trkpt>
      <trkpt lat="43.17302" lon="0.8873">
        <ele>385.8</ele>
        <time>2013-12-22T14:57:05</time>
      </trkpt>
      <trkpt lat="43.17303" lon="0.88728">
        <ele>386.1</ele>
        <time>2013-12-22T14:57:06</time>
      </trkpt>
      <trkpt lat="43.17303" lon="0.88727">
        <ele>386</ele>
        <time>2013-12-22T14:57:07</time>
      </trkpt>
      <trkpt lat="43.17304" lon="0.88726">
        <ele>386.4</ele>
        <time>2013-12-22T14:57:08</time>
      </trkpt>
      <trkpt lat="43.17304" lon="0.88725">
        <ele>386.2</ele>
        <time>2013-12-22T14:57:09</time>
      </trkpt>
      <trkpt lat="43.17305" lon="0.88724">
        <ele>386.3</ele>
        <time>2013-12-22T14:57:10</time>
      </trkpt>
      <trkpt lat="43.17305" lon="0.88723">
        <ele>386.2</ele>
        <time>2013-12-22T14:57:11</time>
      </trkpt>
      <trkpt lat="43.17306" lon="0.88722">
        <ele>386.6</ele>
        <time>2013-12-22T14:57:12</time>
      </trkpt>
      <trkpt lat="43.17307" lon="0.88721">
        <ele>386.6</ele>
        <time>2013-12-22T14:57:13</time>
      </trkpt>
      <trkpt lat="43.17307" lon="0.8872">
        <ele>386.5</ele>
        <time>2013-12-22T14:57:14</time>
      </trkpt>
      <trkpt lat="43.17308" lon="0.88719">
        <ele>386.5</ele>
        <time>2013-12-22T14:57:15</time>
      </trkpt>
      <trkpt lat="43.17308" lon="0.88718">
        <ele>387</ele>
        <time>2013-12-22T14:57:16</time>
      </trkpt>
      <trkpt lat="43.17309" lon="0.88717">
        <ele>387</ele>
        <time>2013-12-22T14:57:17</time>
      </trkpt>
      <trkpt lat="43.1731" lon="0.88716">
        <ele>386.9</ele>
        <time>2013-12-22T14:57:18</time>
      </trkpt>
      <trkpt lat="43.17311" lon="0.88715">
        <ele>386.7</ele>
        <time>2013-12-22T14:57:19</time>
      </trkpt>
      <trkpt lat="43.17312" lon="0.88714">
        <ele>385.6</ele>
        <time>2013-12-22T14:57:20</time>
      </trkpt>
      <trkpt lat="43.17312" lon="0.88713">
        <ele>385.6</ele>
        <time>2013-12-22T14:57:21</time>
      </trkpt>
      <trkpt lat="43.17313" lon="0.88712">
        <ele>386.1</ele>
        <time>2013-12-22T14:57:22</time>
      </trkpt>
      <trkpt lat="43.17313" lon="0.8871">
        <ele>386.2</ele>
        <time>2013-12-22T14:57:23</time>
      </trkpt>
      <trkpt lat="43.17314" lon="0.88709">
        <ele>386.6</ele>
        <time>2013-12-22T14:57:24</time>
      </trkpt>
      <trkpt lat="43.17314" lon="0.88708">
        <ele>387</ele>
        <time>2013-12-22T14:57:25</time>
      </trkpt>
      <trkpt lat="43.17315" lon="0.88707">
        <ele>387.9</ele>
        <time>2013-12-22T14:57:26</time>
      </trkpt>
      <trkpt lat="43.17315" lon="0.88706">
        <ele>387.4</ele>
        <time>2013-12-22T14:57:27</time>
      </trkpt>
      <trkpt lat="43.17316" lon="0.88705">
        <ele>387</ele>
        <time>2013-12-22T14:57:28</time>
      </trkpt>
      <trkpt lat="43.17317" lon="0.88703">
        <ele>387</ele>
        <time>2013-12-22T14:57:29</time>
      </trkpt>
      <trkpt lat="43.17318" lon="0.88702">
        <ele>386.4</ele>
        <time>2013-12-22T14:57:30</time>
      </trkpt>
      <trkpt lat="43.17318" lon="0.88701">
        <ele>386</ele>
        <time>2013-12-22T14:57:31</time>
      </trkpt>
      <trkpt lat="43.17319" lon="0.887">
        <ele>386.2</ele>
        <time>2013-12-22T14:57:32</time>
      </trkpt>
      <trkpt lat="43.1732" lon="0.88698">
        <ele>386.2</ele>
        <time>2013-12-22T14:57:33</time>
      </trkpt>
      <trkpt lat="43.1732" lon="0.88697">
        <ele>386.2</ele>
        <time>2013-12-22T14:57:34</time>
      </trkpt>
      <trkpt lat="43.17321" lon="0.88696">
        <ele>387</ele>
        <time>2013-12-22T14:57:35</time>
      </trkpt>
      <trkpt lat="43.17322" lon="0.88695">
        <ele>386.6</ele>
        <time>2013-12-22T14:57:36</time>
      </trkpt>
      <trkpt lat="43.17323" lon="0.88694">
        <ele>386.9</ele>
        <time>2013-12-22T14:57:37</time>
      </trkpt>
      <trkpt lat="43.17323" lon="0.88693">
        <ele>387.4</ele>
        <time>2013-12-22T14:57:38</time>
      </trkpt>
      <trkpt lat="43.17324" lon="0.88692">
        <ele>387.1</ele>
        <time>2013-12-22T14:57:39</time>
      </trkpt>
      <trkpt lat="43.17325" lon="0.88691">
        <ele>387.1</ele>
        <time>2013-12-22T14:57:40</time>
      </trkpt>
      <trkpt lat="43.17326" lon="0.8869">
        <ele>386.6</ele>
        <time>2013-12-22T14:57:41</time>
      </trkpt>
      <trkpt lat="43.17327" lon="0.8869">
        <ele>386.7</ele>
        <time>2013-12-22T14:57:42</time>
      </trkpt>
      <trkpt lat="43.17328" lon="0.88689">
        <ele>385.9</ele>
        <time>2013-12-22T14:57:43</time>
      </trkpt>
      <trkpt lat="43.17329" lon="0.88688">
        <ele>386.1</ele>
        <time>2013-12-22T14:57:44</time>
      </trkpt>
      <trkpt lat="43.17331" lon="0.88688">
        <ele>385.9</ele>
        <time>2013-12-22T14:57:45</time>
      </trkpt>
      <trkpt lat="43.17332" lon="0.88687">
        <ele>385.7</ele>
        <time>2013-12-22T14:57:46</time>
      </trkpt>
      <trkpt lat="43.17333" lon="0.88687">
        <ele>385.1</ele>
        <time>2013-12-22T14:57:47</time>
      </trkpt>
      <trkpt lat="43.17334" lon="0.88687">
        <ele>385</ele>
        <time>2013-12-22T14:57:48</time>
      </trkpt>
      <trkpt lat="43.17336" lon="0.88687">
        <ele>383.9</ele>
        <time>2013-12-22T14:57:49</time>
      </trkpt>
      <trkpt lat="43.17337" lon="0.88687">
        <ele>383.5</ele>
        <time>2013-12-22T14:57:50</time>
      </trkpt>
      <trkpt lat="43.17338" lon="0.88687">
        <ele>382.8</ele>
        <time>2013-12-22T14:57:51</time>
      </trkpt>
      <trkpt lat="43.17339" lon="0.88687">
        <ele>382.2</ele>
        <time>2013-12-22T14:57:52</time>
      </trkpt>
      <trkpt lat="43.17341" lon="0.88687">
        <ele>382</ele>
        <time>2013-12-22T14:57:53</time>
      </trkpt>
      <trkpt lat="43.17342" lon="0.88688">
        <ele>382</ele>
        <time>2013-12-22T14:57:54</time>
      </trkpt>
      <trkpt lat="43.17343" lon="0.88688">
        <ele>381.9</ele>
        <time>2013-12-22T14:57:55</time>
      </trkpt>
      <trkpt lat="43.17344" lon="0.88688">
        <ele>381.3</ele>
        <time>2013-12-22T14:57:56</time>
      </trkpt>
      <trkpt lat="43.17345" lon="0.88688">
        <ele>380.8</ele>
        <time>2013-12-22T14:57:57</time>
      </trkpt>
      <trkpt lat="43.17346" lon="0.88689">
        <ele>380.6</ele>
        <time>2013-12-22T14:57:58</time>
      </trkpt>
      <trkpt lat="43.17347" lon="0.88689">
        <ele>380.2</ele>
        <time>2013-12-22T14:57:59</time>
      </trkpt>
      <trkpt lat="43.17349" lon="0.8869">
        <ele>380.1</ele>
        <time>2013-12-22T14:58:00</time>
      </trkpt>
      <trkpt lat="43.1735" lon="0.8869">
        <ele>380.1</ele>
        <time>2013-12-22T14:58:01</time>
      </trkpt>
      <trkpt lat="43.17351" lon="0.88691">
        <ele>380</ele>
        <time>2013-12-22T14:58:02</time>
      </trkpt>
      <trkpt lat="43.17352" lon="0.88691">
        <ele>379.9</ele>
        <time>2013-12-22T14:58:03</time>
      </trkpt>
      <trkpt lat="43.17353" lon="0.88692">
        <ele>379.8</ele>
        <time>2013-12-22T14:58:04</time>
      </trkpt>
      <trkpt lat="43.17354" lon="0.88692">
        <ele>379.2</ele>
        <time>2013-12-22T14:58:05</time>
      </trkpt>
      <trkpt lat="43.17355" lon="0.88692">
        <ele>379.1</ele>
        <time>2013-12-22T14:58:06</time>
      </trkpt>
      <trkpt lat="43.17357" lon="0.88693">
        <ele>378.8</ele>
        <time>2013-12-22T14:58:07</time>
      </trkpt>
      <trkpt lat="43.17358" lon="0.88693">
        <ele>378.5</ele>
        <time>2013-12-22T14:58:08</time>
      </trkpt>
      <trkpt lat="43.17359" lon="0.88693">
        <ele>378.4</ele>
        <time>2013-12-22T14:58:09</time>
      </trkpt>
      <trkpt lat="43.1736" lon="0.88694">
        <ele>378.4</ele>
        <time>2013-12-22T14:58:10</time>
      </trkpt>
      <trkpt lat="43.17361" lon="0.88694">
        <ele>378.1</ele>
        <time>2013-12-22T14:58:11</time>
      </trkpt>
      <trkpt lat="43.17362" lon="0.88693">
        <ele>377.7</ele>
        <time>2013-12-22T14:58:12</time>
      </trkpt>
      <trkpt lat="43.17363" lon="0.88693">
        <ele>377.5</ele>
        <time>2013-12-22T14:58:13</time>
      </trkpt>
      <trkpt lat="43.17365" lon="0.88693">
        <ele>377.6</ele>
        <time>2013-12-22T14:58:14</time>
      </trkpt>
      <trkpt lat="43.17366" lon="0.88693">
        <ele>377</ele>
        <time>2013-12-22T14:58:15</time>
      </trkpt>
      <trkpt lat="43.17367" lon="0.88693">
        <ele>377.2</ele>
        <time>2013-12-22T14:58:16</time>
      </trkpt>
      <trkpt lat="43.17368" lon="0.88692">
        <ele>376.9</ele>
        <time>2013-12-22T14:58:17</time>
      </trkpt>
      <trkpt lat="43.17369" lon="0.88691">
        <ele>377.3</ele>
        <time>2013-12-22T14:58:18</time>
      </trkpt>
      <trkpt lat="43.1737" lon="0.88691">
        <ele>377.8</ele>
        <time>2013-12-22T14:58:19</time>
      </trkpt>
      <trkpt lat="43.17371" lon="0.8869">
        <ele>377.6</ele>
        <time>2013-12-22T14:58:20</time>
      </trkpt>
      <trkpt lat="43.17372" lon="0.88689">
        <ele>377.3</ele>
        <time>2013-12-22T14:58:21</time>
      </trkpt>
      <trkpt lat="43.17373" lon="0.88688">
        <ele>377.2</ele>
        <time>2013-12-22T14:58:22</time>
      </trkpt>
      <trkpt lat="43.17374" lon="0.88686">
        <ele>377.3</ele>
        <time>2013-12-22T14:58:23</time>
      </trkpt>
      <trkpt lat="43.17375" lon="0.88685">
        <ele>377.1</ele>
        <time>2013-12-22T14:58:24</time>
      </trkpt>
      <trkpt lat="43.17376" lon="0.88684">
        <ele>377.2</ele>
        <time>2013-12-22T14:58:25</time>
      </trkpt>
      <trkpt lat="43.17376" lon="0.88683">
        <ele>377.2</ele>
        <time>2013-12-22T14:58:26</time>
      </trkpt>
      <trkpt lat="43.17377" lon="0.88681">
        <ele>377.2</ele>
        <time>2013-12-22T14:58:27</time>
      </trkpt>
      <trkpt lat="43.17378" lon="0.8868">
        <ele>377.1</ele>
        <time>2013-12-22T14:58:28</time>
      </trkpt>
      <trkpt lat="43.17379" lon="0.88679">
        <ele>377.2</ele>
        <time>2013-12-22T14:58:29</time>
      </trkpt>
      <trkpt lat="43.17379" lon="0.88678">
        <ele>377.1</ele>
        <time>2013-12-22T14:58:30</time>
      </trkpt>
      <trkpt lat="43.1738" lon="0.88677">
        <ele>377.1</ele>
        <time>2013-12-22T14:58:31</time>
      </trkpt>
      <trkpt lat="43.17381" lon="0.88676">
        <ele>377.2</ele>
        <time>2013-12-22T14:58:32</time>
      </trkpt>
      <trkpt lat="43.17382" lon="0.88675">
        <ele>377</ele>
        <time>2013-12-22T14:58:33</time>
      </trkpt>
      <trkpt lat="43.17382" lon="0.88674">
        <ele>377</ele>
        <time>2013-12-22T14:58:34</time>
      </trkpt>
      <trkpt lat="43.17383" lon="0.88673">
        <ele>376.8</ele>
        <time>2013-12-22T14:58:35</time>
      </trkpt>
      <trkpt lat="43.17384" lon="0.88672">
        <ele>376.5</ele>
        <time>2013-12-22T14:58:36</time>
      </trkpt>
      <trkpt lat="43.17384" lon="0.88671">
        <ele>376.8</ele>
        <time>2013-12-22T14:58:37</time>
      </trkpt>
      <trkpt lat="43.17385" lon="0.8867">
        <ele>376.7</ele>
        <time>2013-12-22T14:58:38</time>
      </trkpt>
      <trkpt lat="43.17386" lon="0.88669">
        <ele>376.6</ele>
        <time>2013-12-22T14:58:39</time>
      </trkpt>
      <trkpt lat="43.17386" lon="0.88668">
        <ele>376.7</ele>
        <time>2013-12-22T14:58:40</time>
      </trkpt>
      <trkpt lat="43.17387" lon="0.88666">
        <ele>376.7</ele>
        <time>2013-12-22T14:58:41</time>
      </trkpt>
      <trkpt lat="43.17388" lon="0.88665">
        <ele>376.5</ele>
        <time>2013-12-22T14:58:42</time>
      </trkpt>
      <trkpt lat="43.17389" lon="0.88664">
        <ele>377.2</ele>
        <time>2013-12-22T14:58:43</time>
      </trkpt>
      <trkpt lat="43.17389" lon="0.88663">
        <ele>377.2</ele>
        <time>2013-12-22T14:58:44</time>
      </trkpt>
      <trkpt lat="43.1739" lon="0.88662">
        <ele>378.2</ele>
        <time>2013-12-22T14:58:45</time>
      </trkpt>
      <trkpt lat="43.17391" lon="0.88661">
        <ele>378.3</ele>
        <time>2013-12-22T14:58:46</time>
      </trkpt>
      <trkpt lat="43.17392" lon="0.8866">
        <ele>378</ele>
        <time>2013-12-22T14:58:47</time>
      </trkpt>
      <trkpt lat="43.17393" lon="0.88659">
        <ele>378.1</ele>
        <time>2013-12-22T14:58:48</time>
      </trkpt>
      <trkpt lat="43.17394" lon="0.88658">
        <ele>377.8</ele>
        <time>2013-12-22T14:58:49</time>
      </trkpt>
      <trkpt lat="43.17394" lon="0.88657">
        <ele>377.8</ele>
        <time>2013-12-22T14:58:50</time>
      </trkpt>
      <trkpt lat="43.17395" lon="0.88656">
        <ele>377.9</ele>
        <time>2013-12-22T14:58:51</time>
      </trkpt>
      <trkpt lat="43.17396" lon="0.88654">
        <ele>378</ele>
        <time>2013-12-22T14:58:52</time>
      </trkpt>
      <trkpt lat="43.17397" lon="0.88653">
        <ele>377.7</ele>
        <time>2013-12-22T14:58:53</time>
      </trkpt>
      <trkpt lat="43.17397" lon="0.88652">
        <ele>377.3</ele>
        <time>2013-12-22T14:58:54</time>
      </trkpt>
      <trkpt lat="43.17399" lon="0.88651">
        <ele>377.3</ele>
        <time>2013-12-22T14:58:55</time>
      </trkpt>
      <trkpt lat="43.17399" lon="0.8865">
        <ele>377.5</ele>
        <time>2013-12-22T14:58:56</time>
      </trkpt>
      <trkpt lat="43.174" lon="0.88649">
        <ele>377.2</ele>
        <time>2013-12-22T14:58:57</time>
      </trkpt>
      <trkpt lat="43.17401" lon="0.88647">
        <ele>377.2</ele>
        <time>2013-12-22T14:58:58</time>
      </trkpt>
      <trkpt lat="43.17402" lon="0.88646">
        <ele>377.1</ele>
        <time>2013-12-22T14:58:59</time>
      </trkpt>
      <trkpt lat="43.17402" lon="0.88645">
        <ele>376.7</ele>
        <time>2013-12-22T14:59:00</time>
      </trkpt>
      <trkpt lat="43.17403" lon="0.88644">
        <ele>377.1</ele>
        <time>2013-12-22T14:59:01</time>
      </trkpt>
      <trkpt lat="43.17404" lon="0.88643">
        <ele>376.9</ele>
        <time>2013-12-22T14:59:02</time>
      </trkpt>
      <trkpt lat="43.17405" lon="0.88642">
        <ele>377.6</ele>
        <time>2013-12-22T14:59:03</time>
      </trkpt>
      <trkpt lat="43.17406" lon="0.88641">
        <ele>377.2</ele>
        <time>2013-12-22T14:59:04</time>
      </trkpt>
      <trkpt lat="43.17407" lon="0.88639">
        <ele>377</ele>
        <time>2013-12-22T14:59:05</time>
      </trkpt>
      <trkpt lat="43.17407" lon="0.88638">
        <ele>377.2</ele>
        <time>2013-12-22T14:59:06</time>
      </trkpt>
      <trkpt lat="43.17408" lon="0.88637">
        <ele>376.8</ele>
        <time>2013-12-22T14:59:07</time>
      </trkpt>
      <trkpt lat="43.17409" lon="0.88636">
        <ele>376.4</ele>
        <time>2013-12-22T14:59:08</time>
      </trkpt>
      <trkpt lat="43.1741" lon="0.88634">
        <ele>376.8</ele>
        <time>2013-12-22T14:59:09</time>
      </trkpt>
      <trkpt lat="43.1741" lon="0.88633">
        <ele>376.4</ele>
        <time>2013-12-22T14:59:10</time>
      </trkpt>
      <trkpt lat="43.17411" lon="0.88632">
        <ele>376.3</ele>
        <time>2013-12-22T14:59:11</time>
      </trkpt>
      <trkpt lat="43.17412" lon="0.88631">
        <ele>376</ele>
        <time>2013-12-22T14:59:12</time>
      </trkpt>
      <trkpt lat="43.17413" lon="0.8863">
        <ele>375.4</ele>
        <time>2013-12-22T14:59:13</time>
      </trkpt>
      <trkpt lat="43.17413" lon="0.88629">
        <ele>375.6</ele>
        <time>2013-12-22T14:59:14</time>
      </trkpt>
      <trkpt lat="43.17414" lon="0.88628">
        <ele>375.5</ele>
        <time>2013-12-22T14:59:15</time>
      </trkpt>
      <trkpt lat="43.17415" lon="0.88627">
        <ele>375.1</ele>
        <time>2013-12-22T14:59:16</time>
      </trkpt>
      <trkpt lat="43.17415" lon="0.88625">
        <ele>375.1</ele>
        <time>2013-12-22T14:59:17</time>
      </trkpt>
      <trkpt lat="43.17416" lon="0.88624">
        <ele>375.5</ele>
        <time>2013-12-22T14:59:18</time>
      </trkpt>
      <trkpt lat="43.17417" lon="0.88623">
        <ele>375.1</ele>
        <time>2013-12-22T14:59:19</time>
      </trkpt>
      <trkpt lat="43.17418" lon="0.88622">
        <ele>375</ele>
        <time>2013-12-22T14:59:20</time>
      </trkpt>
      <trkpt lat="43.17418" lon="0.88621">
        <ele>374.9</ele>
        <time>2013-12-22T14:59:21</time>
      </trkpt>
      <trkpt lat="43.17419" lon="0.8862">
        <ele>374.7</ele>
        <time>2013-12-22T14:59:22</time>
      </trkpt>
      <trkpt lat="43.17419" lon="0.88619">
        <ele>374.5</ele>
        <time>2013-12-22T14:59:23</time>
      </trkpt>
      <trkpt lat="43.1742" lon="0.88618">
        <ele>374.5</ele>
        <time>2013-12-22T14:59:24</time>
      </trkpt>
      <trkpt lat="43.17421" lon="0.88617">
        <ele>374.8</ele>
        <time>2013-12-22T14:59:25</time>
      </trkpt>
      <trkpt lat="43.17422" lon="0.88616">
        <ele>374.8</ele>
        <time>2013-12-22T14:59:26</time>
      </trkpt>
      <trkpt lat="43.17423" lon="0.88615">
        <ele>375</ele>
        <time>2013-12-22T14:59:27</time>
      </trkpt>
      <trkpt lat="43.17424" lon="0.88614">
        <ele>374.7</ele>
        <time>2013-12-22T14:59:28</time>
      </trkpt>
      <trkpt lat="43.17424" lon="0.88613">
        <ele>374.9</ele>
        <time>2013-12-22T14:59:29</time>
      </trkpt>
      <trkpt lat="43.17425" lon="0.88612">
        <ele>374.5</ele>
        <time>2013-12-22T14:59:30</time>
      </trkpt>
      <trkpt lat="43.17426" lon="0.88611">
        <ele>374.5</ele>
        <time>2013-12-22T14:59:31</time>
      </trkpt>
      <trkpt lat="43.17427" lon="0.88609">
        <ele>374.3</ele>
        <time>2013-12-22T14:59:32</time>
      </trkpt>
      <trkpt lat="43.17427" lon="0.88608">
        <ele>373.9</ele>
        <time>2013-12-22T14:59:33</time>
      </trkpt>
      <trkpt lat="43.17428" lon="0.88607">
        <ele>373.6</ele>
        <time>2013-12-22T14:59:34</time>
      </trkpt>
      <trkpt lat="43.17429" lon="0.88606">
        <ele>373.2</ele>
        <time>2013-12-22T14:59:35</time>
      </trkpt>
      <trkpt lat="43.1743" lon="0.88605">
        <ele>372.7</ele>
        <time>2013-12-22T14:59:36</time>
      </trkpt>
      <trkpt lat="43.17431" lon="0.88604">
        <ele>373.2</ele>
        <time>2013-12-22T14:59:37</time>
      </trkpt>
      <trkpt lat="43.17431" lon="0.88603">
        <ele>373.6</ele>
        <time>2013-12-22T14:59:38</time>
      </trkpt>
      <trkpt lat="43.17432" lon="0.88602">
        <ele>373.3</ele>
        <time>2013-12-22T14:59:39</time>
      </trkpt>
      <trkpt lat="43.17433" lon="0.88601">
        <ele>373</ele>
        <time>2013-12-22T14:59:40</time>
      </trkpt>
      <trkpt lat="43.17433" lon="0.886">
        <ele>372.7</ele>
        <time>2013-12-22T14:59:41</time>
      </trkpt>
      <trkpt lat="43.17434" lon="0.88599">
        <ele>372.4</ele>
        <time>2013-12-22T14:59:42</time>
      </trkpt>
      <trkpt lat="43.17435" lon="0.88598">
        <ele>372.6</ele>
        <time>2013-12-22T14:59:43</time>
      </trkpt>
      <trkpt lat="43.17436" lon="0.88597">
        <ele>372.2</ele>
        <time>2013-12-22T14:59:44</time>
      </trkpt>
      <trkpt lat="43.17436" lon="0.88596">
        <ele>372.4</ele>
        <time>2013-12-22T14:59:45</time>
      </trkpt>
      <trkpt lat="43.17437" lon="0.88595">
        <ele>371.9</ele>
        <time>2013-12-22T14:59:46</time>
      </trkpt>
      <trkpt lat="43.17437" lon="0.88594">
        <ele>371.9</ele>
        <time>2013-12-22T14:59:47</time>
      </trkpt>
      <trkpt lat="43.17438" lon="0.88593">
        <ele>371.5</ele>
        <time>2013-12-22T14:59:48</time>
      </trkpt>
      <trkpt lat="43.17439" lon="0.88592">
        <ele>371.3</ele>
        <time>2013-12-22T14:59:49</time>
      </trkpt>
      <trkpt lat="43.1744" lon="0.88591">
        <ele>371.9</ele>
        <time>2013-12-22T14:59:50</time>
      </trkpt>
      <trkpt lat="43.1744" lon="0.88589">
        <ele>372.2</ele>
        <time>2013-12-22T14:59:51</time>
      </trkpt>
      <trkpt lat="43.17441" lon="0.88588">
        <ele>372.2</ele>
        <time>2013-12-22T14:59:52</time>
      </trkpt>
      <trkpt lat="43.17442" lon="0.88587">
        <ele>372.3</ele>
        <time>2013-12-22T14:59:53</time>
      </trkpt>
      <trkpt lat="43.17442" lon="0.88586">
        <ele>372.4</ele>
        <time>2013-12-22T14:59:54</time>
      </trkpt>
      <trkpt lat="43.17443" lon="0.88585">
        <ele>372.1</ele>
        <time>2013-12-22T14:59:55</time>
      </trkpt>
      <trkpt lat="43.17444" lon="0.88584">
        <ele>372.5</ele>
        <time>2013-12-22T14:59:56</time>
      </trkpt>
      <trkpt lat="43.17445" lon="0.88583">
        <ele>372.3</ele>
        <time>2013-12-22T14:59:57</time>
      </trkpt>
      <trkpt lat="43.17445" lon="0.88582">
        <ele>372.6</ele>
        <time>2013-12-22T14:59:58</time>
      </trkpt>
      <trkpt lat="43.17446" lon="0.88581">
        <ele>372.1</ele>
        <time>2013-12-22T14:59:59</time>
      </trkpt>
      <trkpt lat="43.17447" lon="0.8858">
        <ele>372.3</ele>
        <time>2013-12-22T15:00:00</time>
      </trkpt>
      <trkpt lat="43.17448" lon="0.88579">
        <ele>372.7</ele>
        <time>2013-12-22T15:00:01</time>
      </trkpt>
      <trkpt lat="43.17448" lon="0.88578">
        <ele>372.3</ele>
        <time>2013-12-22T15:00:02</time>
      </trkpt>
      <trkpt lat="43.17449" lon="0.88577">
        <ele>372.2</ele>
        <time>2013-12-22T15:00:03</time>
      </trkpt>
      <trkpt lat="43.1745" lon="0.88575">
        <ele>372.5</ele>
        <time>2013-12-22T15:00:04</time>
      </trkpt>
      <trkpt lat="43.1745" lon="0.88574">
        <ele>372.9</ele>
        <time>2013-12-22T15:00:05</time>
      </trkpt>
      <trkpt lat="43.17451" lon="0.88573">
        <ele>372.9</ele>
        <time>2013-12-22T15:00:06</time>
      </trkpt>
      <trkpt lat="43.17452" lon="0.88572">
        <ele>372.4</ele>
        <time>2013-12-22T15:00:07</time>
      </trkpt>
      <trkpt lat="43.17452" lon="0.88571">
        <ele>372.1</ele>
        <time>2013-12-22T15:00:08</time>
      </trkpt>
      <trkpt lat="43.17453" lon="0.8857">
        <ele>372.1</ele>
        <time>2013-12-22T15:00:09</time>
      </trkpt>
      <trkpt lat="43.17454" lon="0.88569">
        <ele>371.6</ele>
        <time>2013-12-22T15:00:10</time>
      </trkpt>
      <trkpt lat="43.17455" lon="0.88568">
        <ele>371.4</ele>
        <time>2013-12-22T15:00:11</time>
      </trkpt>
      <trkpt lat="43.17455" lon="0.88567">
        <ele>371.2</ele>
        <time>2013-12-22T15:00:12</time>
      </trkpt>
      <trkpt lat="43.17456" lon="0.88566">
        <ele>371.7</ele>
        <time>2013-12-22T15:00:13</time>
      </trkpt>
      <trkpt lat="43.17457" lon="0.88564">
        <ele>371.7</ele>
        <time>2013-12-22T15:00:14</time>
      </trkpt>
      <trkpt lat="43.17458" lon="0.88563">
        <ele>371.7</ele>
        <time>2013-12-22T15:00:15</time>
      </trkpt>
      <trkpt lat="43.17458" lon="0.88562">
        <ele>371.9</ele>
        <time>2013-12-22T15:00:16</time>
      </trkpt>
      <trkpt lat="43.17459" lon="0.88561">
        <ele>371.6</ele>
        <time>2013-12-22T15:00:17</time>
      </trkpt>
      <trkpt lat="43.1746" lon="0.8856">
        <ele>371.8</ele>
        <time>2013-12-22T15:00:18</time>
      </trkpt>
      <trkpt lat="43.17461" lon="0.88559">
        <ele>371.3</ele>
        <time>2013-12-22T15:00:19</time>
      </trkpt>
      <trkpt lat="43.17461" lon="0.88558">
        <ele>371.3</ele>
        <time>2013-12-22T15:00:20</time>
      </trkpt>
      <trkpt lat="43.17462" lon="0.88557">
        <ele>371.4</ele>
        <time>2013-12-22T15:00:21</time>
      </trkpt>
      <trkpt lat="43.17463" lon="0.88556">
        <ele>371.9</ele>
        <time>2013-12-22T15:00:22</time>
      </trkpt>
      <trkpt lat="43.17463" lon="0.88555">
        <ele>371.8</ele>
        <time>2013-12-22T15:00:23</time>
      </trkpt>
      <trkpt lat="43.17464" lon="0.88554">
        <ele>371.7</ele>
        <time>2013-12-22T15:00:24</time>
      </trkpt>
      <trkpt lat="43.17465" lon="0.88552">
        <ele>371.6</ele>
        <time>2013-12-22T15:00:25</time>
      </trkpt>
      <trkpt lat="43.17465" lon="0.88551">
        <ele>371.8</ele>
        <time>2013-12-22T15:00:26</time>
      </trkpt>
      <trkpt lat="43.17466" lon="0.8855">
        <ele>371.4</ele>
        <time>2013-12-22T15:00:27</time>
      </trkpt>
      <trkpt lat="43.17467" lon="0.88549">
        <ele>371.2</ele>
        <time>2013-12-22T15:00:28</time>
      </trkpt>
      <trkpt lat="43.17468" lon="0.88548">
        <ele>371.1</ele>
        <time>2013-12-22T15:00:29</time>
      </trkpt>
      <trkpt lat="43.17468" lon="0.88547">
        <ele>371.3</ele>
        <time>2013-12-22T15:00:30</time>
      </trkpt>
      <trkpt lat="43.17469" lon="0.88546">
        <ele>371.8</ele>
        <time>2013-12-22T15:00:31</time>
      </trkpt>
      <trkpt lat="43.1747" lon="0.88545">
        <ele>371.6</ele>
        <time>2013-12-22T15:00:32</time>
      </trkpt>
      <trkpt lat="43.17471" lon="0.88544">
        <ele>372.2</ele>
        <time>2013-12-22T15:00:33</time>
      </trkpt>
      <trkpt lat="43.17472" lon="0.88543">
        <ele>371.7</ele>
        <time>2013-12-22T15:00:34</time>
      </trkpt>
      <trkpt lat="43.17473" lon="0.88542">
        <ele>371.7</ele>
        <time>2013-12-22T15:00:35</time>
      </trkpt>
      <trkpt lat="43.17474" lon="0.88541">
        <ele>371.6</ele>
        <time>2013-12-22T15:00:36</time>
      </trkpt>
      <trkpt lat="43.17474" lon="0.8854">
        <ele>371.4</ele>
        <time>2013-12-22T15:00:37</time>
      </trkpt>
      <trkpt lat="43.17475" lon="0.88539">
        <ele>371.4</ele>
        <time>2013-12-22T15:00:38</time>
      </trkpt>
      <trkpt lat="43.17476" lon="0.88538">
        <ele>371.4</ele>
        <time>2013-12-22T15:00:39</time>
      </trkpt>
      <trkpt lat="43.17477" lon="0.88537">
        <ele>370.9</ele>
        <time>2013-12-22T15:00:40</time>
      </trkpt>
      <trkpt lat="43.17477" lon="0.88536">
        <ele>371</ele>
        <time>2013-12-22T15:00:41</time>
      </trkpt>
      <trkpt lat="43.17478" lon="0.88535">
        <ele>370.9</ele>
        <time>2013-12-22T15:00:42</time>
      </trkpt>
      <trkpt lat="43.17479" lon="0.88533">
        <ele>370.9</ele>
        <time>2013-12-22T15:00:43</time>
      </trkpt>
      <trkpt lat="43.1748" lon="0.88532">
        <ele>371</ele>
        <time>2013-12-22T15:00:44</time>
      </trkpt>
      <trkpt lat="43.17481" lon="0.88531">
        <ele>370.9</ele>
        <time>2013-12-22T15:00:45</time>
      </trkpt>
      <trkpt lat="43.17481" lon="0.8853">
        <ele>370.9</ele>
        <time>2013-12-22T15:00:46</time>
      </trkpt>
      <trkpt lat="43.17482" lon="0.88529">
        <ele>370.6</ele>
        <time>2013-12-22T15:00:47</time>
      </trkpt>
      <trkpt lat="43.17482" lon="0.88528">
        <ele>370.5</ele>
        <time>2013-12-22T15:00:48</time>
      </trkpt>
      <trkpt lat="43.17483" lon="0.88527">
        <ele>370.7</ele>
        <time>2013-12-22T15:00:49</time>
      </trkpt>
      <trkpt lat="43.17484" lon="0.88526">
        <ele>370.6</ele>
        <time>2013-12-22T15:00:50</time>
      </trkpt>
      <trkpt lat="43.17485" lon="0.88525">
        <ele>371</ele>
        <time>2013-12-22T15:00:51</time>
      </trkpt>
      <trkpt lat="43.17485" lon="0.88524">
        <ele>370.5</ele>
        <time>2013-12-22T15:00:52</time>
      </trkpt>
      <trkpt lat="43.17486" lon="0.88523">
        <ele>370.5</ele>
        <time>2013-12-22T15:00:53</time>
      </trkpt>
      <trkpt lat="43.17487" lon="0.88522">
        <ele>370.2</ele>
        <time>2013-12-22T15:00:54</time>
      </trkpt>
      <trkpt lat="43.17487" lon="0.88521">
        <ele>369.7</ele>
        <time>2013-12-22T15:00:55</time>
      </trkpt>
      <trkpt lat="43.17488" lon="0.8852">
        <ele>370</ele>
        <time>2013-12-22T15:00:56</time>
      </trkpt>
      <trkpt lat="43.17489" lon="0.88519">
        <ele>370.3</ele>
        <time>2013-12-22T15:00:57</time>
      </trkpt>
      <trkpt lat="43.1749" lon="0.88518">
        <ele>370.5</ele>
        <time>2013-12-22T15:00:58</time>
      </trkpt>
      <trkpt lat="43.17491" lon="0.88517">
        <ele>370.3</ele>
        <time>2013-12-22T15:00:59</time>
      </trkpt>
      <trkpt lat="43.17492" lon="0.88516">
        <ele>370.2</ele>
        <time>2013-12-22T15:01:00</time>
      </trkpt>
      <trkpt lat="43.17493" lon="0.88515">
        <ele>370.3</ele>
        <time>2013-12-22T15:01:01</time>
      </trkpt>
      <trkpt lat="43.17494" lon="0.88514">
        <ele>370.5</ele>
        <time>2013-12-22T15:01:02</time>
      </trkpt>
      <trkpt lat="43.17495" lon="0.88513">
        <ele>369.9</ele>
        <time>2013-12-22T15:01:03</time>
      </trkpt>
      <trkpt lat="43.17496" lon="0.88512">
        <ele>369.6</ele>
        <time>2013-12-22T15:01:04</time>
      </trkpt>
      <trkpt lat="43.17497" lon="0.88511">
        <ele>369.5</ele>
        <time>2013-12-22T15:01:05</time>
      </trkpt>
      <trkpt lat="43.17498" lon="0.88511">
        <ele>369.6</ele>
        <time>2013-12-22T15:01:06</time>
      </trkpt>
      <trkpt lat="43.17499" lon="0.8851">
        <ele>369.3</ele>
        <time>2013-12-22T15:01:07</time>
      </trkpt>
      <trkpt lat="43.175" lon="0.88509">
        <ele>369.2</ele>
        <time>2013-12-22T15:01:08</time>
      </trkpt>
      <trkpt lat="43.17501" lon="0.88508">
        <ele>369.4</ele>
        <time>2013-12-22T15:01:09</time>
      </trkpt>
      <trkpt lat="43.17502" lon="0.88507">
        <ele>368.7</ele>
        <time>2013-12-22T15:01:10</time>
      </trkpt>
      <trkpt lat="43.17503" lon="0.88507">
        <ele>368.5</ele>
        <time>2013-12-22T15:01:11</time>
      </trkpt>
      <trkpt lat="43.17504" lon="0.88506">
        <ele>368.6</ele>
        <time>2013-12-22T15:01:12</time>
      </trkpt>
      <trkpt lat="43.17505" lon="0.88506">
        <ele>368.5</ele>
        <time>2013-12-22T15:01:13</time>
      </trkpt>
      <trkpt lat="43.17506" lon="0.88505">
        <ele>368.7</ele>
        <time>2013-12-22T15:01:14</time>
      </trkpt>
      <trkpt lat="43.17507" lon="0.88505">
        <ele>368.6</ele>
        <time>2013-12-22T15:01:15</time>
      </trkpt>
      <trkpt lat="43.17508" lon="0.88504">
        <ele>368.4</ele>
        <time>2013-12-22T15:01:16</time>
      </trkpt>
      <trkpt lat="43.17509" lon="0.88504">
        <ele>368.3</ele>
        <time>2013-12-22T15:01:17</time>
      </trkpt>
      <trkpt lat="43.1751" lon="0.88504">
        <ele>368.3</ele>
        <time>2013-12-22T15:01:18</time>
      </trkpt>
      <trkpt lat="43.17511" lon="0.88503">
        <ele>368.5</ele>
        <time>2013-12-22T15:01:19</time>
      </trkpt>
      <trkpt lat="43.17512" lon="0.88503">
        <ele>368.6</ele>
        <time>2013-12-22T15:01:20</time>
      </trkpt>
      <trkpt lat="43.17513" lon="0.88502">
        <ele>368.7</ele>
        <time>2013-12-22T15:01:22</time>
      </trkpt>
      <trkpt lat="43.17514" lon="0.88502">
        <ele>368.4</ele>
        <time>2013-12-22T15:01:23</time>
      </trkpt>
      <trkpt lat="43.17515" lon="0.88502">
        <ele>368.4</ele>
        <time>2013-12-22T15:01:24</time>
      </trkpt>
      <trkpt lat="43.17516" lon="0.88502">
        <ele>368.3</ele>
        <time>2013-12-22T15:01:25</time>
      </trkpt>
      <trkpt lat="43.17517" lon="0.88501">
        <ele>368.2</ele>
        <time>2013-12-22T15:01:26</time>
      </trkpt>
      <trkpt lat="43.17518" lon="0.88501">
        <ele>367.9</ele>
        <time>2013-12-22T15:01:27</time>
      </trkpt>
      <trkpt lat="43.17519" lon="0.88501">
        <ele>367.8</ele>
        <time>2013-12-22T15:01:28</time>
      </trkpt>
      <trkpt lat="43.1752" lon="0.88501">
        <ele>367.8</ele>
        <time>2013-12-22T15:01:29</time>
      </trkpt>
      <trkpt lat="43.17521" lon="0.88501">
        <ele>367.4</ele>
        <time>2013-12-22T15:01:30</time>
      </trkpt>
      <trkpt lat="43.17522" lon="0.88501">
        <ele>366.6</ele>
        <time>2013-12-22T15:01:31</time>
      </trkpt>
      <trkpt lat="43.17523" lon="0.88501">
        <ele>366.1</ele>
        <time>2013-12-22T15:01:32</time>
      </trkpt>
      <trkpt lat="43.17524" lon="0.88501">
        <ele>365.8</ele>
        <time>2013-12-22T15:01:33</time>
      </trkpt>
      <trkpt lat="43.17526" lon="0.88501">
        <ele>365.5</ele>
        <time>2013-12-22T15:01:34</time>
      </trkpt>
      <trkpt lat="43.17527" lon="0.88501">
        <ele>365.5</ele>
        <time>2013-12-22T15:01:35</time>
      </trkpt>
      <trkpt lat="43.17527" lon="0.88501">
        <ele>365.3</ele>
        <time>2013-12-22T15:01:36</time>
      </trkpt>
      <trkpt lat="43.17529" lon="0.88501">
        <ele>365.6</ele>
        <time>2013-12-22T15:01:37</time>
      </trkpt>
      <trkpt lat="43.1753" lon="0.88501">
        <ele>365.3</ele>
        <time>2013-12-22T15:01:38</time>
      </trkpt>
      <trkpt lat="43.17531" lon="0.88502">
        <ele>364.8</ele>
        <time>2013-12-22T15:01:39</time>
      </trkpt>
      <trkpt lat="43.17532" lon="0.88502">
        <ele>364.1</ele>
        <time>2013-12-22T15:01:40</time>
      </trkpt>
      <trkpt lat="43.17533" lon="0.88502">
        <ele>364.1</ele>
        <time>2013-12-22T15:01:41</time>
      </trkpt>
      <trkpt lat="43.17534" lon="0.88502">
        <ele>364.6</ele>
        <time>2013-12-22T15:01:42</time>
      </trkpt>
      <trkpt lat="43.17535" lon="0.88503">
        <ele>364.3</ele>
        <time>2013-12-22T15:01:43</time>
      </trkpt>
      <trkpt lat="43.17536" lon="0.88503">
        <ele>364.4</ele>
        <time>2013-12-22T15:01:44</time>
      </trkpt>
      <trkpt lat="43.17537" lon="0.88503">
        <ele>363.9</ele>
        <time>2013-12-22T15:01:45</time>
      </trkpt>
      <trkpt lat="43.17538" lon="0.88502">
        <ele>364.2</ele>
        <time>2013-12-22T15:01:46</time>
      </trkpt>
      <trkpt lat="43.17539" lon="0.88502">
        <ele>364.1</ele>
        <time>2013-12-22T15:01:47</time>
      </trkpt>
      <trkpt lat="43.1754" lon="0.88502">
        <ele>363.9</ele>
        <time>2013-12-22T15:01:48</time>
      </trkpt>
      <trkpt lat="43.17541" lon="0.88502">
        <ele>363.6</ele>
        <time>2013-12-22T15:01:49</time>
      </trkpt>
      <trkpt lat="43.17542" lon="0.88502">
        <ele>363.9</ele>
        <time>2013-12-22T15:01:50</time>
      </trkpt>
      <trkpt lat="43.17543" lon="0.88502">
        <ele>363.8</ele>
        <time>2013-12-22T15:01:51</time>
      </trkpt>
      <trkpt lat="43.17545" lon="0.88502">
        <ele>363.4</ele>
        <time>2013-12-22T15:01:52</time>
      </trkpt>
      <trkpt lat="43.17546" lon="0.88502">
        <ele>364.1</ele>
        <time>2013-12-22T15:01:53</time>
      </trkpt>
      <trkpt lat="43.17547" lon="0.88502">
        <ele>364.6</ele>
        <time>2013-12-22T15:01:54</time>
      </trkpt>
      <trkpt lat="43.17548" lon="0.88502">
        <ele>364.6</ele>
        <time>2013-12-22T15:01:55</time>
      </trkpt>
      <trkpt lat="43.17549" lon="0.88502">
        <ele>364.7</ele>
        <time>2013-12-22T15:01:56</time>
      </trkpt>
      <trkpt lat="43.1755" lon="0.88503">
        <ele>365</ele>
        <time>2013-12-22T15:01:57</time>
      </trkpt>
      <trkpt lat="43.17551" lon="0.88503">
        <ele>364.7</ele>
        <time>2013-12-22T15:01:58</time>
      </trkpt>
      <trkpt lat="43.17553" lon="0.88503">
        <ele>364.6</ele>
        <time>2013-12-22T15:01:59</time>
      </trkpt>
      <trkpt lat="43.17554" lon="0.88503">
        <ele>364.9</ele>
        <time>2013-12-22T15:02:00</time>
      </trkpt>
      <trkpt lat="43.17555" lon="0.88503">
        <ele>364.9</ele>
        <time>2013-12-22T15:02:01</time>
      </trkpt>
      <trkpt lat="43.17556" lon="0.88503">
        <ele>364.7</ele>
        <time>2013-12-22T15:02:02</time>
      </trkpt>
      <trkpt lat="43.17557" lon="0.88503">
        <ele>365</ele>
        <time>2013-12-22T15:02:03</time>
      </trkpt>
      <trkpt lat="43.17558" lon="0.88503">
        <ele>364.8</ele>
        <time>2013-12-22T15:02:04</time>
      </trkpt>
      <trkpt lat="43.17559" lon="0.88503">
        <ele>365</ele>
        <time>2013-12-22T15:02:05</time>
      </trkpt>
      <trkpt lat="43.17561" lon="0.88503">
        <ele>364.9</ele>
        <time>2013-12-22T15:02:06</time>
      </trkpt>
      <trkpt lat="43.17561" lon="0.88503">
        <ele>364.6</ele>
        <time>2013-12-22T15:02:07</time>
      </trkpt>
      <trkpt lat="43.17563" lon="0.88502">
        <ele>364.5</ele>
        <time>2013-12-22T15:02:08</time>
      </trkpt>
      <trkpt lat="43.17564" lon="0.88502">
        <ele>364.6</ele>
        <time>2013-12-22T15:02:09</time>
      </trkpt>
      <trkpt lat="43.17564" lon="0.88502">
        <ele>364.7</ele>
        <time>2013-12-22T15:02:10</time>
      </trkpt>
      <trkpt lat="43.17566" lon="0.88503">
        <ele>364.7</ele>
        <time>2013-12-22T15:02:11</time>
      </trkpt>
      <trkpt lat="43.17567" lon="0.88503">
        <ele>364.7</ele>
        <time>2013-12-22T15:02:12</time>
      </trkpt>
      <trkpt lat="43.17568" lon="0.88503">
        <ele>364.7</ele>
        <time>2013-12-22T15:02:13</time>
      </trkpt>
      <trkpt lat="43.17569" lon="0.88503">
        <ele>364.8</ele>
        <time>2013-12-22T15:02:14</time>
      </trkpt>
      <trkpt lat="43.1757" lon="0.88503">
        <ele>365.1</ele>
        <time>2013-12-22T15:02:15</time>
      </trkpt>
      <trkpt lat="43.17571" lon="0.88503">
        <ele>365</ele>
        <time>2013-12-22T15:02:16</time>
      </trkpt>
      <trkpt lat="43.17572" lon="0.88503">
        <ele>365.3</ele>
        <time>2013-12-22T15:02:17</time>
      </trkpt>
      <trkpt lat="43.17573" lon="0.88503">
        <ele>365.1</ele>
        <time>2013-12-22T15:02:18</time>
      </trkpt>
      <trkpt lat="43.17574" lon="0.88503">
        <ele>365.5</ele>
        <time>2013-12-22T15:02:19</time>
      </trkpt>
      <trkpt lat="43.17575" lon="0.88503">
        <ele>365.8</ele>
        <time>2013-12-22T15:02:20</time>
      </trkpt>
      <trkpt lat="43.17576" lon="0.88503">
        <ele>365.8</ele>
        <time>2013-12-22T15:02:21</time>
      </trkpt>
      <trkpt lat="43.17577" lon="0.88503">
        <ele>365.4</ele>
        <time>2013-12-22T15:02:22</time>
      </trkpt>
      <trkpt lat="43.17578" lon="0.88503">
        <ele>365.6</ele>
        <time>2013-12-22T15:02:23</time>
      </trkpt>
      <trkpt lat="43.17579" lon="0.88503">
        <ele>365.9</ele>
        <time>2013-12-22T15:02:24</time>
      </trkpt>
      <trkpt lat="43.1758" lon="0.88503">
        <ele>366.1</ele>
        <time>2013-12-22T15:02:25</time>
      </trkpt>
      <trkpt lat="43.17581" lon="0.88503">
        <ele>366.3</ele>
        <time>2013-12-22T15:02:26</time>
      </trkpt>
      <trkpt lat="43.17582" lon="0.88503">
        <ele>366.2</ele>
        <time>2013-12-22T15:02:27</time>
      </trkpt>
      <trkpt lat="43.17583" lon="0.88503">
        <ele>366</ele>
        <time>2013-12-22T15:02:28</time>
      </trkpt>
      <trkpt lat="43.17584" lon="0.88503">
        <ele>366.5</ele>
        <time>2013-12-22T15:02:29</time>
      </trkpt>
      <trkpt lat="43.17585" lon="0.88503">
        <ele>365.5</ele>
        <time>2013-12-22T15:02:30</time>
      </trkpt>
      <trkpt lat="43.17585" lon="0.88502">
        <ele>364.5</ele>
        <time>2013-12-22T15:02:31</time>
      </trkpt>
      <trkpt lat="43.17587" lon="0.88503">
        <ele>363.7</ele>
        <time>2013-12-22T15:02:43</time>
      </trkpt>
      <trkpt lat="43.17588" lon="0.88502">
        <ele>363.3</ele>
        <time>2013-12-22T15:02:44</time>
      </trkpt>
      <trkpt lat="43.17588" lon="0.88501">
        <ele>363.6</ele>
        <time>2013-12-22T15:02:45</time>
      </trkpt>
      <trkpt lat="43.17589" lon="0.88501">
        <ele>362.5</ele>
        <time>2013-12-22T15:02:46</time>
      </trkpt>
      <trkpt lat="43.1759" lon="0.88501">
        <ele>362.9</ele>
        <time>2013-12-22T15:02:47</time>
      </trkpt>
      <trkpt lat="43.17591" lon="0.885">
        <ele>362.6</ele>
        <time>2013-12-22T15:02:48</time>
      </trkpt>
      <trkpt lat="43.17592" lon="0.885">
        <ele>363.1</ele>
        <time>2013-12-22T15:02:49</time>
      </trkpt>
      <trkpt lat="43.17593" lon="0.88499">
        <ele>363.3</ele>
        <time>2013-12-22T15:02:50</time>
      </trkpt>
      <trkpt lat="43.17593" lon="0.88498">
        <ele>363.4</ele>
        <time>2013-12-22T15:02:51</time>
      </trkpt>
      <trkpt lat="43.17594" lon="0.88497">
        <ele>363.4</ele>
        <time>2013-12-22T15:02:52</time>
      </trkpt>
      <trkpt lat="43.17595" lon="0.88496">
        <ele>363.8</ele>
        <time>2013-12-22T15:02:53</time>
      </trkpt>
      <trkpt lat="43.17596" lon="0.88495">
        <ele>363.5</ele>
        <time>2013-12-22T15:02:54</time>
      </trkpt>
      <trkpt lat="43.17597" lon="0.88495">
        <ele>363.8</ele>
        <time>2013-12-22T15:02:55</time>
      </trkpt>
      <trkpt lat="43.17598" lon="0.88494">
        <ele>363.8</ele>
        <time>2013-12-22T15:02:56</time>
      </trkpt>
      <trkpt lat="43.17599" lon="0.88493">
        <ele>363.8</ele>
        <time>2013-12-22T15:02:57</time>
      </trkpt>
      <trkpt lat="43.176" lon="0.88491">
        <ele>364</ele>
        <time>2013-12-22T15:02:58</time>
      </trkpt>
      <trkpt lat="43.176" lon="0.8849">
        <ele>364.4</ele>
        <time>2013-12-22T15:02:59</time>
      </trkpt>
      <trkpt lat="43.17601" lon="0.88489">
        <ele>364.6</ele>
        <time>2013-12-22T15:03:00</time>
      </trkpt>
      <trkpt lat="43.17602" lon="0.88488">
        <ele>364.2</ele>
        <time>2013-12-22T15:03:01</time>
      </trkpt>
      <trkpt lat="43.17603" lon="0.88487">
        <ele>364.4</ele>
        <time>2013-12-22T15:03:02</time>
      </trkpt>
      <trkpt lat="43.17603" lon="0.88486">
        <ele>364.7</ele>
        <time>2013-12-22T15:03:03</time>
      </trkpt>
      <trkpt lat="43.17604" lon="0.88485">
        <ele>365</ele>
        <time>2013-12-22T15:03:04</time>
      </trkpt>
      <trkpt lat="43.17605" lon="0.88484">
        <ele>364.8</ele>
        <time>2013-12-22T15:03:05</time>
      </trkpt>
      <trkpt lat="43.17606" lon="0.88483">
        <ele>364.3</ele>
        <time>2013-12-22T15:03:06</time>
      </trkpt>
      <trkpt lat="43.17606" lon="0.88481">
        <ele>363.9</ele>
        <time>2013-12-22T15:03:07</time>
      </trkpt>
      <trkpt lat="43.17607" lon="0.8848">
        <ele>363.7</ele>
        <time>2013-12-22T15:03:08</time>
      </trkpt>
      <trkpt lat="43.17608" lon="0.88479">
        <ele>363.5</ele>
        <time>2013-12-22T15:03:09</time>
      </trkpt>
      <trkpt lat="43.17608" lon="0.88478">
        <ele>363.2</ele>
        <time>2013-12-22T15:03:10</time>
      </trkpt>
      <trkpt lat="43.17609" lon="0.88477">
        <ele>363.3</ele>
        <time>2013-12-22T15:03:11</time>
      </trkpt>
      <trkpt lat="43.17609" lon="0.88476">
        <ele>363.1</ele>
        <time>2013-12-22T15:03:12</time>
      </trkpt>
      <trkpt lat="43.1761" lon="0.88474">
        <ele>363.2</ele>
        <time>2013-12-22T15:03:13</time>
      </trkpt>
      <trkpt lat="43.17611" lon="0.88473">
        <ele>363.4</ele>
        <time>2013-12-22T15:03:14</time>
      </trkpt>
      <trkpt lat="43.17611" lon="0.88472">
        <ele>363.2</ele>
        <time>2013-12-22T15:03:15</time>
      </trkpt>
      <trkpt lat="43.17612" lon="0.8847">
        <ele>363.2</ele>
        <time>2013-12-22T15:03:16</time>
      </trkpt>
      <trkpt lat="43.17613" lon="0.88469">
        <ele>363.3</ele>
        <time>2013-12-22T15:03:17</time>
      </trkpt>
      <trkpt lat="43.17613" lon="0.88468">
        <ele>363</ele>
        <time>2013-12-22T15:03:18</time>
      </trkpt>
      <trkpt lat="43.17614" lon="0.88467">
        <ele>362.3</ele>
        <time>2013-12-22T15:03:19</time>
      </trkpt>
      <trkpt lat="43.17614" lon="0.88466">
        <ele>362.1</ele>
        <time>2013-12-22T15:03:20</time>
      </trkpt>
      <trkpt lat="43.17614" lon="0.88465">
        <ele>362.4</ele>
        <time>2013-12-22T15:03:21</time>
      </trkpt>
      <trkpt lat="43.17615" lon="0.88464">
        <ele>362.5</ele>
        <time>2013-12-22T15:03:22</time>
      </trkpt>
      <trkpt lat="43.17616" lon="0.88463">
        <ele>363</ele>
        <time>2013-12-22T15:03:23</time>
      </trkpt>
      <trkpt lat="43.17616" lon="0.88462">
        <ele>362.7</ele>
        <time>2013-12-22T15:03:24</time>
      </trkpt>
      <trkpt lat="43.17617" lon="0.88461">
        <ele>363.2</ele>
        <time>2013-12-22T15:03:25</time>
      </trkpt>
      <trkpt lat="43.17617" lon="0.88459">
        <ele>362.9</ele>
        <time>2013-12-22T15:03:26</time>
      </trkpt>
      <trkpt lat="43.17618" lon="0.88458">
        <ele>363.2</ele>
        <time>2013-12-22T15:03:27</time>
      </trkpt>
      <trkpt lat="43.17619" lon="0.88457">
        <ele>363.8</ele>
        <time>2013-12-22T15:03:28</time>
      </trkpt>
      <trkpt lat="43.17619" lon="0.88456">
        <ele>363.1</ele>
        <time>2013-12-22T15:03:29</time>
      </trkpt>
      <trkpt lat="43.1762" lon="0.88455">
        <ele>363.2</ele>
        <time>2013-12-22T15:03:30</time>
      </trkpt>
      <trkpt lat="43.17621" lon="0.88454">
        <ele>363.5</ele>
        <time>2013-12-22T15:03:31</time>
      </trkpt>
      <trkpt lat="43.17621" lon="0.88452">
        <ele>363.6</ele>
        <time>2013-12-22T15:03:32</time>
      </trkpt>
      <trkpt lat="43.17622" lon="0.88451">
        <ele>363.5</ele>
        <time>2013-12-22T15:03:33</time>
      </trkpt>
      <trkpt lat="43.17622" lon="0.8845">
        <ele>364.5</ele>
        <time>2013-12-22T15:03:34</time>
      </trkpt>
      <trkpt lat="43.17623" lon="0.88449">
        <ele>364.1</ele>
        <time>2013-12-22T15:03:35</time>
      </trkpt>
      <trkpt lat="43.17624" lon="0.88448">
        <ele>364.2</ele>
        <time>2013-12-22T15:03:36</time>
      </trkpt>
      <trkpt lat="43.17624" lon="0.88446">
        <ele>363.9</ele>
        <time>2013-12-22T15:03:37</time>
      </trkpt>
      <trkpt lat="43.17625" lon="0.88445">
        <ele>364.3</ele>
        <time>2013-12-22T15:03:38</time>
      </trkpt>
      <trkpt lat="43.17625" lon="0.88444">
        <ele>364.5</ele>
        <time>2013-12-22T15:03:39</time>
      </trkpt>
      <trkpt lat="43.17626" lon="0.88443">
        <ele>364.6</ele>
        <time>2013-12-22T15:03:40</time>
      </trkpt>
      <trkpt lat="43.17627" lon="0.88442">
        <ele>364.7</ele>
        <time>2013-12-22T15:03:41</time>
      </trkpt>
      <trkpt lat="43.17627" lon="0.88441">
        <ele>364.7</ele>
        <time>2013-12-22T15:03:42</time>
      </trkpt>
      <trkpt lat="43.17628" lon="0.8844">
        <ele>364.9</ele>
        <time>2013-12-22T15:03:43</time>
      </trkpt>
      <trkpt lat="43.17628" lon="0.8844">
        <ele>365.3</ele>
        <time>2013-12-22T15:03:44</time>
      </trkpt>
      <trkpt lat="43.17628" lon="0.88439">
        <ele>365.3</ele>
        <time>2013-12-22T15:03:45</time>
      </trkpt>
      <trkpt lat="43.17629" lon="0.88439">
        <ele>365.4</ele>
        <time>2013-12-22T15:03:49</time>
      </trkpt>
      <trkpt lat="43.17629" lon="0.88438">
        <ele>365.4</ele>
        <time>2013-12-22T15:03:50</time>
      </trkpt>
      <trkpt lat="43.1763" lon="0.88437">
        <ele>365.8</ele>
        <time>2013-12-22T15:03:51</time>
      </trkpt>
      <trkpt lat="43.1763" lon="0.88435">
        <ele>365.3</ele>
        <time>2013-12-22T15:03:52</time>
      </trkpt>
      <trkpt lat="43.17631" lon="0.88434">
        <ele>365.6</ele>
        <time>2013-12-22T15:03:53</time>
      </trkpt>
      <trkpt lat="43.17632" lon="0.88433">
        <ele>365.1</ele>
        <time>2013-12-22T15:03:54</time>
      </trkpt>
      <trkpt lat="43.17632" lon="0.88432">
        <ele>364.3</ele>
        <time>2013-12-22T15:03:55</time>
      </trkpt>
      <trkpt lat="43.17633" lon="0.88431">
        <ele>363.9</ele>
        <time>2013-12-22T15:03:56</time>
      </trkpt>
      <trkpt lat="43.17633" lon="0.8843">
        <ele>364.1</ele>
        <time>2013-12-22T15:03:57</time>
      </trkpt>
      <trkpt lat="43.17634" lon="0.88429">
        <ele>364.4</ele>
        <time>2013-12-22T15:03:58</time>
      </trkpt>
      <trkpt lat="43.17635" lon="0.88428">
        <ele>364</ele>
        <time>2013-12-22T15:03:59</time>
      </trkpt>
      <trkpt lat="43.17635" lon="0.88427">
        <ele>364.1</ele>
        <time>2013-12-22T15:04:00</time>
      </trkpt>
      <trkpt lat="43.17636" lon="0.88426">
        <ele>363.8</ele>
        <time>2013-12-22T15:04:01</time>
      </trkpt>
      <trkpt lat="43.17636" lon="0.88425">
        <ele>364</ele>
        <time>2013-12-22T15:04:02</time>
      </trkpt>
      <trkpt lat="43.17637" lon="0.88424">
        <ele>364.6</ele>
        <time>2013-12-22T15:04:03</time>
      </trkpt>
      <trkpt lat="43.17638" lon="0.88423">
        <ele>364.6</ele>
        <time>2013-12-22T15:04:04</time>
      </trkpt>
      <trkpt lat="43.17638" lon="0.88422">
        <ele>364.4</ele>
        <time>2013-12-22T15:04:05</time>
      </trkpt>
      <trkpt lat="43.17639" lon="0.88421">
        <ele>364.5</ele>
        <time>2013-12-22T15:04:06</time>
      </trkpt>
      <trkpt lat="43.1764" lon="0.8842">
        <ele>365.2</ele>
        <time>2013-12-22T15:04:07</time>
      </trkpt>
      <trkpt lat="43.1764" lon="0.88419">
        <ele>365.2</ele>
        <time>2013-12-22T15:04:08</time>
      </trkpt>
      <trkpt lat="43.17641" lon="0.88418">
        <ele>365.9</ele>
        <time>2013-12-22T15:04:09</time>
      </trkpt>
      <trkpt lat="43.17641" lon="0.88417">
        <ele>365.6</ele>
        <time>2013-12-22T15:04:10</time>
      </trkpt>
      <trkpt lat="43.17641" lon="0.88416">
        <ele>365.8</ele>
        <time>2013-12-22T15:04:11</time>
      </trkpt>
      <trkpt lat="43.17642" lon="0.88415">
        <ele>365.5</ele>
        <time>2013-12-22T15:04:12</time>
      </trkpt>
      <trkpt lat="43.17643" lon="0.88414">
        <ele>366.2</ele>
        <time>2013-12-22T15:04:13</time>
      </trkpt>
      <trkpt lat="43.17643" lon="0.88413">
        <ele>365.8</ele>
        <time>2013-12-22T15:04:14</time>
      </trkpt>
      <trkpt lat="43.17644" lon="0.88412">
        <ele>366.1</ele>
        <time>2013-12-22T15:04:15</time>
      </trkpt>
      <trkpt lat="43.17645" lon="0.88411">
        <ele>366.7</ele>
        <time>2013-12-22T15:04:16</time>
      </trkpt>
      <trkpt lat="43.17646" lon="0.8841">
        <ele>366.8</ele>
        <time>2013-12-22T15:04:17</time>
      </trkpt>
      <trkpt lat="43.17646" lon="0.88409">
        <ele>366.2</ele>
        <time>2013-12-22T15:04:18</time>
      </trkpt>
      <trkpt lat="43.17647" lon="0.88408">
        <ele>366.6</ele>
        <time>2013-12-22T15:04:19</time>
      </trkpt>
      <trkpt lat="43.17648" lon="0.88407">
        <ele>366.3</ele>
        <time>2013-12-22T15:04:20</time>
      </trkpt>
      <trkpt lat="43.17649" lon="0.88406">
        <ele>367</ele>
        <time>2013-12-22T15:04:21</time>
      </trkpt>
      <trkpt lat="43.1765" lon="0.88405">
        <ele>366.4</ele>
        <time>2013-12-22T15:04:22</time>
      </trkpt>
      <trkpt lat="43.1765" lon="0.88404">
        <ele>366.9</ele>
        <time>2013-12-22T15:04:23</time>
      </trkpt>
      <trkpt lat="43.17651" lon="0.88403">
        <ele>366.5</ele>
        <time>2013-12-22T15:04:24</time>
      </trkpt>
      <trkpt lat="43.17652" lon="0.88402">
        <ele>366.4</ele>
        <time>2013-12-22T15:04:25</time>
      </trkpt>
      <trkpt lat="43.17653" lon="0.88402">
        <ele>365.8</ele>
        <time>2013-12-22T15:04:26</time>
      </trkpt>
      <trkpt lat="43.17653" lon="0.88401">
        <ele>366.1</ele>
        <time>2013-12-22T15:04:27</time>
      </trkpt>
      <trkpt lat="43.17654" lon="0.884">
        <ele>366.1</ele>
        <time>2013-12-22T15:04:28</time>
      </trkpt>
      <trkpt lat="43.17655" lon="0.884">
        <ele>366.5</ele>
        <time>2013-12-22T15:04:29</time>
      </trkpt>
      <trkpt lat="43.17655" lon="0.88399">
        <ele>366.9</ele>
        <time>2013-12-22T15:04:30</time>
      </trkpt>
      <trkpt lat="43.17656" lon="0.88398">
        <ele>367.1</ele>
        <time>2013-12-22T15:04:31</time>
      </trkpt>
      <trkpt lat="43.17657" lon="0.88397">
        <ele>368.6</ele>
        <time>2013-12-22T15:04:32</time>
      </trkpt>
      <trkpt lat="43.17658" lon="0.88395">
        <ele>368.9</ele>
        <time>2013-12-22T15:04:33</time>
      </trkpt>
      <trkpt lat="43.17658" lon="0.88394">
        <ele>369.1</ele>
        <time>2013-12-22T15:04:34</time>
      </trkpt>
      <trkpt lat="43.17659" lon="0.88393">
        <ele>369.2</ele>
        <time>2013-12-22T15:04:35</time>
      </trkpt>
      <trkpt lat="43.1766" lon="0.88392">
        <ele>368.8</ele>
        <time>2013-12-22T15:04:36</time>
      </trkpt>
      <trkpt lat="43.17661" lon="0.88392">
        <ele>369.2</ele>
        <time>2013-12-22T15:04:37</time>
      </trkpt>
      <trkpt lat="43.17661" lon="0.88391">
        <ele>369.6</ele>
        <time>2013-12-22T15:04:38</time>
      </trkpt>
      <trkpt lat="43.17662" lon="0.8839">
        <ele>369.5</ele>
        <time>2013-12-22T15:04:39</time>
      </trkpt>
      <trkpt lat="43.17663" lon="0.88389">
        <ele>369.2</ele>
        <time>2013-12-22T15:04:40</time>
      </trkpt>
      <trkpt lat="43.17664" lon="0.88388">
        <ele>369.2</ele>
        <time>2013-12-22T15:04:41</time>
      </trkpt>
      <trkpt lat="43.17664" lon="0.88387">
        <ele>369</ele>
        <time>2013-12-22T15:04:42</time>
      </trkpt>
      <trkpt lat="43.17665" lon="0.88387">
        <ele>369.2</ele>
        <time>2013-12-22T15:04:43</time>
      </trkpt>
      <trkpt lat="43.17666" lon="0.88386">
        <ele>369.5</ele>
        <time>2013-12-22T15:04:44</time>
      </trkpt>
      <trkpt lat="43.17666" lon="0.88385">
        <ele>369.7</ele>
        <time>2013-12-22T15:04:45</time>
      </trkpt>
      <trkpt lat="43.17667" lon="0.88384">
        <ele>369.6</ele>
        <time>2013-12-22T15:04:46</time>
      </trkpt>
      <trkpt lat="43.17667" lon="0.88383">
        <ele>370</ele>
        <time>2013-12-22T15:04:47</time>
      </trkpt>
      <trkpt lat="43.17668" lon="0.88382">
        <ele>370.7</ele>
        <time>2013-12-22T15:04:48</time>
      </trkpt>
      <trkpt lat="43.17669" lon="0.88381">
        <ele>370.5</ele>
        <time>2013-12-22T15:04:49</time>
      </trkpt>
      <trkpt lat="43.17669" lon="0.88379">
        <ele>371.1</ele>
        <time>2013-12-22T15:04:50</time>
      </trkpt>
      <trkpt lat="43.1767" lon="0.88378">
        <ele>371.5</ele>
        <time>2013-12-22T15:04:51</time>
      </trkpt>
      <trkpt lat="43.17671" lon="0.88377">
        <ele>371.8</ele>
        <time>2013-12-22T15:04:52</time>
      </trkpt>
      <trkpt lat="43.17672" lon="0.88376">
        <ele>372.9</ele>
        <time>2013-12-22T15:04:53</time>
      </trkpt>
      <trkpt lat="43.17672" lon="0.88375">
        <ele>372.5</ele>
        <time>2013-12-22T15:04:54</time>
      </trkpt>
      <trkpt lat="43.17673" lon="0.88374">
        <ele>372.3</ele>
        <time>2013-12-22T15:04:55</time>
      </trkpt>
      <trkpt lat="43.17674" lon="0.88373">
        <ele>373.5</ele>
        <time>2013-12-22T15:04:56</time>
      </trkpt>
      <trkpt lat="43.17674" lon="0.88372">
        <ele>373.1</ele>
        <time>2013-12-22T15:04:57</time>
      </trkpt>
      <trkpt lat="43.17675" lon="0.88371">
        <ele>373.7</ele>
        <time>2013-12-22T15:04:58</time>
      </trkpt>
      <trkpt lat="43.17675" lon="0.8837">
        <ele>372</ele>
        <time>2013-12-22T15:04:59</time>
      </trkpt>
      <trkpt lat="43.17676" lon="0.88369">
        <ele>372.7</ele>
        <time>2013-12-22T15:05:00</time>
      </trkpt>
      <trkpt lat="43.17677" lon="0.88369">
        <ele>372.4</ele>
        <time>2013-12-22T15:05:01</time>
      </trkpt>
      <trkpt lat="43.17678" lon="0.88368">
        <ele>371.8</ele>
        <time>2013-12-22T15:05:02</time>
      </trkpt>
      <trkpt lat="43.17679" lon="0.88368">
        <ele>371.5</ele>
        <time>2013-12-22T15:05:03</time>
      </trkpt>
      <trkpt lat="43.17679" lon="0.88367">
        <ele>371.2</ele>
        <time>2013-12-22T15:05:04</time>
      </trkpt>
      <trkpt lat="43.1768" lon="0.88366">
        <ele>372.7</ele>
        <time>2013-12-22T15:05:05</time>
      </trkpt>
      <trkpt lat="43.1768" lon="0.88365">
        <ele>374.7</ele>
        <time>2013-12-22T15:05:06</time>
      </trkpt>
      <trkpt lat="43.17681" lon="0.88364">
        <ele>375</ele>
        <time>2013-12-22T15:05:07</time>
      </trkpt>
      <trkpt lat="43.17681" lon="0.88363">
        <ele>374.4</ele>
        <time>2013-12-22T15:05:08</time>
      </trkpt>
      <trkpt lat="43.17682" lon="0.88362">
        <ele>373.9</ele>
        <time>2013-12-22T15:05:09</time>
      </trkpt>
      <trkpt lat="43.17683" lon="0.88361">
        <ele>375.3</ele>
        <time>2013-12-22T15:05:10</time>
      </trkpt>
      <trkpt lat="43.17683" lon="0.88361">
        <ele>375.6</ele>
        <time>2013-12-22T15:05:11</time>
      </trkpt>
      <trkpt lat="43.17684" lon="0.8836">
        <ele>375.6</ele>
        <time>2013-12-22T15:05:12</time>
      </trkpt>
      <trkpt lat="43.17685" lon="0.88359">
        <ele>375.8</ele>
        <time>2013-12-22T15:05:13</time>
      </trkpt>
      <trkpt lat="43.17685" lon="0.88358">
        <ele>376.3</ele>
        <time>2013-12-22T15:05:14</time>
      </trkpt>
      <trkpt lat="43.17687" lon="0.88357">
        <ele>376.7</ele>
        <time>2013-12-22T15:05:15</time>
      </trkpt>
      <trkpt lat="43.17687" lon="0.88356">
        <ele>376.5</ele>
        <time>2013-12-22T15:05:16</time>
      </trkpt>
      <trkpt lat="43.17688" lon="0.88355">
        <ele>376.3</ele>
        <time>2013-12-22T15:05:17</time>
      </trkpt>
      <trkpt lat="43.17688" lon="0.88354">
        <ele>376.1</ele>
        <time>2013-12-22T15:05:18</time>
      </trkpt>
      <trkpt lat="43.17689" lon="0.88353">
        <ele>376.8</ele>
        <time>2013-12-22T15:05:19</time>
      </trkpt>
      <trkpt lat="43.1769" lon="0.88352">
        <ele>377.1</ele>
        <time>2013-12-22T15:05:20</time>
      </trkpt>
      <trkpt lat="43.17691" lon="0.88351">
        <ele>377.4</ele>
        <time>2013-12-22T15:05:21</time>
      </trkpt>
      <trkpt lat="43.17691" lon="0.8835">
        <ele>377.4</ele>
        <time>2013-12-22T15:05:22</time>
      </trkpt>
      <trkpt lat="43.17692" lon="0.88349">
        <ele>377.7</ele>
        <time>2013-12-22T15:05:23</time>
      </trkpt>
      <trkpt lat="43.17693" lon="0.88349">
        <ele>377.8</ele>
        <time>2013-12-22T15:05:24</time>
      </trkpt>
      <trkpt lat="43.17694" lon="0.88348">
        <ele>378.1</ele>
        <time>2013-12-22T15:05:25</time>
      </trkpt>
      <trkpt lat="43.17695" lon="0.88347">
        <ele>378.4</ele>
        <time>2013-12-22T15:05:26</time>
      </trkpt>
      <trkpt lat="43.17695" lon="0.88346">
        <ele>379.1</ele>
        <time>2013-12-22T15:05:27</time>
      </trkpt>
      <trkpt lat="43.17696" lon="0.88345">
        <ele>379.2</ele>
        <time>2013-12-22T15:05:28</time>
      </trkpt>
      <trkpt lat="43.17696" lon="0.88344">
        <ele>379.1</ele>
        <time>2013-12-22T15:05:29</time>
      </trkpt>
      <trkpt lat="43.17697" lon="0.88344">
        <ele>378.8</ele>
        <time>2013-12-22T15:05:30</time>
      </trkpt>
      <trkpt lat="43.17698" lon="0.88343">
        <ele>378.9</ele>
        <time>2013-12-22T15:05:31</time>
      </trkpt>
      <trkpt lat="43.17698" lon="0.88342">
        <ele>379</ele>
        <time>2013-12-22T15:05:32</time>
      </trkpt>
      <trkpt lat="43.17699" lon="0.88341">
        <ele>379.3</ele>
        <time>2013-12-22T15:05:33</time>
      </trkpt>
      <trkpt lat="43.17699" lon="0.8834">
        <ele>379.4</ele>
        <time>2013-12-22T15:05:34</time>
      </trkpt>
      <trkpt lat="43.177" lon="0.88339">
        <ele>379.7</ele>
        <time>2013-12-22T15:05:35</time>
      </trkpt>
      <trkpt lat="43.17701" lon="0.88339">
        <ele>379.9</ele>
        <time>2013-12-22T15:05:36</time>
      </trkpt>
      <trkpt lat="43.17701" lon="0.88338">
        <ele>379.8</ele>
        <time>2013-12-22T15:05:37</time>
      </trkpt>
      <trkpt lat="43.17702" lon="0.88338">
        <ele>379.9</ele>
        <time>2013-12-22T15:05:38</time>
      </trkpt>
      <trkpt lat="43.17703" lon="0.88337">
        <ele>379.9</ele>
        <time>2013-12-22T15:05:39</time>
      </trkpt>
      <trkpt lat="43.17703" lon="0.88336">
        <ele>380.1</ele>
        <time>2013-12-22T15:05:40</time>
      </trkpt>
      <trkpt lat="43.17703" lon="0.88336">
        <ele>380.2</ele>
        <time>2013-12-22T15:05:41</time>
      </trkpt>
      <trkpt lat="43.17704" lon="0.88335">
        <ele>380.5</ele>
        <time>2013-12-22T15:05:42</time>
      </trkpt>
      <trkpt lat="43.17705" lon="0.88334">
        <ele>380.8</ele>
        <time>2013-12-22T15:05:43</time>
      </trkpt>
      <trkpt lat="43.17705" lon="0.88333">
        <ele>380.7</ele>
        <time>2013-12-22T15:05:44</time>
      </trkpt>
      <trkpt lat="43.17706" lon="0.88333">
        <ele>381.1</ele>
        <time>2013-12-22T15:05:45</time>
      </trkpt>
      <trkpt lat="43.17707" lon="0.88332">
        <ele>381.3</ele>
        <time>2013-12-22T15:05:46</time>
      </trkpt>
      <trkpt lat="43.17707" lon="0.88331">
        <ele>381.2</ele>
        <time>2013-12-22T15:05:47</time>
      </trkpt>
      <trkpt lat="43.17708" lon="0.88331">
        <ele>381.3</ele>
        <time>2013-12-22T15:05:48</time>
      </trkpt>
      <trkpt lat="43.17709" lon="0.8833">
        <ele>381.5</ele>
        <time>2013-12-22T15:05:49</time>
      </trkpt>
      <trkpt lat="43.17709" lon="0.88329">
        <ele>381.6</ele>
        <time>2013-12-22T15:05:50</time>
      </trkpt>
      <trkpt lat="43.1771" lon="0.88329">
        <ele>381.7</ele>
        <time>2013-12-22T15:05:51</time>
      </trkpt>
      <trkpt lat="43.17711" lon="0.88328">
        <ele>382.1</ele>
        <time>2013-12-22T15:05:52</time>
      </trkpt>
      <trkpt lat="43.17711" lon="0.88327">
        <ele>382.2</ele>
        <time>2013-12-22T15:05:53</time>
      </trkpt>
      <trkpt lat="43.17712" lon="0.88327">
        <ele>382.3</ele>
        <time>2013-12-22T15:05:54</time>
      </trkpt>
      <trkpt lat="43.17713" lon="0.88326">
        <ele>382.7</ele>
        <time>2013-12-22T15:05:55</time>
      </trkpt>
      <trkpt lat="43.17714" lon="0.88325">
        <ele>382.9</ele>
        <time>2013-12-22T15:05:56</time>
      </trkpt>
      <trkpt lat="43.17714" lon="0.88324">
        <ele>383</ele>
        <time>2013-12-22T15:05:57</time>
      </trkpt>
      <trkpt lat="43.17715" lon="0.88324">
        <ele>383.3</ele>
        <time>2013-12-22T15:05:58</time>
      </trkpt>
      <trkpt lat="43.17716" lon="0.88323">
        <ele>383.3</ele>
        <time>2013-12-22T15:05:59</time>
      </trkpt>
      <trkpt lat="43.17716" lon="0.88322">
        <ele>383.5</ele>
        <time>2013-12-22T15:06:00</time>
      </trkpt>
      <trkpt lat="43.17717" lon="0.88322">
        <ele>383.4</ele>
        <time>2013-12-22T15:06:01</time>
      </trkpt>
      <trkpt lat="43.17717" lon="0.88321">
        <ele>383.5</ele>
        <time>2013-12-22T15:06:02</time>
      </trkpt>
      <trkpt lat="43.17718" lon="0.8832">
        <ele>383.8</ele>
        <time>2013-12-22T15:06:03</time>
      </trkpt>
      <trkpt lat="43.17719" lon="0.88319">
        <ele>384.2</ele>
        <time>2013-12-22T15:06:04</time>
      </trkpt>
      <trkpt lat="43.17719" lon="0.88318">
        <ele>384.5</ele>
        <time>2013-12-22T15:06:05</time>
      </trkpt>
      <trkpt lat="43.1772" lon="0.88317">
        <ele>384.8</ele>
        <time>2013-12-22T15:06:06</time>
      </trkpt>
      <trkpt lat="43.17721" lon="0.88316">
        <ele>385.1</ele>
        <time>2013-12-22T15:06:07</time>
      </trkpt>
      <trkpt lat="43.17721" lon="0.88316">
        <ele>385.2</ele>
        <time>2013-12-22T15:06:08</time>
      </trkpt>
      <trkpt lat="43.17722" lon="0.88315">
        <ele>385.4</ele>
        <time>2013-12-22T15:06:09</time>
      </trkpt>
      <trkpt lat="43.17723" lon="0.88314">
        <ele>385.9</ele>
        <time>2013-12-22T15:06:10</time>
      </trkpt>
      <trkpt lat="43.17723" lon="0.88313">
        <ele>386.3</ele>
        <time>2013-12-22T15:06:11</time>
      </trkpt>
      <trkpt lat="43.17724" lon="0.88312">
        <ele>386.7</ele>
        <time>2013-12-22T15:06:12</time>
      </trkpt>
      <trkpt lat="43.17724" lon="0.88311">
        <ele>387.1</ele>
        <time>2013-12-22T15:06:13</time>
      </trkpt>
      <trkpt lat="43.17725" lon="0.8831">
        <ele>387.3</ele>
        <time>2013-12-22T15:06:14</time>
      </trkpt>
      <trkpt lat="43.17725" lon="0.88309">
        <ele>387.4</ele>
        <time>2013-12-22T15:06:15</time>
      </trkpt>
      <trkpt lat="43.17726" lon="0.88308">
        <ele>387.6</ele>
        <time>2013-12-22T15:06:16</time>
      </trkpt>
      <trkpt lat="43.17727" lon="0.88308">
        <ele>387.8</ele>
        <time>2013-12-22T15:06:17</time>
      </trkpt>
      <trkpt lat="43.17727" lon="0.88307">
        <ele>388.1</ele>
        <time>2013-12-22T15:06:18</time>
      </trkpt>
      <trkpt lat="43.17728" lon="0.88306">
        <ele>388.5</ele>
        <time>2013-12-22T15:06:19</time>
      </trkpt>
      <trkpt lat="43.17728" lon="0.88305">
        <ele>388.7</ele>
        <time>2013-12-22T15:06:20</time>
      </trkpt>
      <trkpt lat="43.17728" lon="0.88304">
        <ele>389</ele>
        <time>2013-12-22T15:06:21</time>
      </trkpt>
      <trkpt lat="43.17729" lon="0.88303">
        <ele>389.1</ele>
        <time>2013-12-22T15:06:22</time>
      </trkpt>
      <trkpt lat="43.1773" lon="0.88303">
        <ele>389.3</ele>
        <time>2013-12-22T15:06:23</time>
      </trkpt>
      <trkpt lat="43.1773" lon="0.88302">
        <ele>389.2</ele>
        <time>2013-12-22T15:06:24</time>
      </trkpt>
      <trkpt lat="43.17731" lon="0.88301">
        <ele>389.6</ele>
        <time>2013-12-22T15:06:25</time>
      </trkpt>
      <trkpt lat="43.17731" lon="0.883">
        <ele>389.7</ele>
        <time>2013-12-22T15:06:26</time>
      </trkpt>
      <trkpt lat="43.17732" lon="0.88299">
        <ele>389.8</ele>
        <time>2013-12-22T15:06:27</time>
      </trkpt>
      <trkpt lat="43.17732" lon="0.88299">
        <ele>390.1</ele>
        <time>2013-12-22T15:06:28</time>
      </trkpt>
      <trkpt lat="43.17733" lon="0.88298">
        <ele>390.3</ele>
        <time>2013-12-22T15:06:29</time>
      </trkpt>
      <trkpt lat="43.17733" lon="0.88297">
        <ele>390.5</ele>
        <time>2013-12-22T15:06:30</time>
      </trkpt>
      <trkpt lat="43.17734" lon="0.88296">
        <ele>390.7</ele>
        <time>2013-12-22T15:06:31</time>
      </trkpt>
      <trkpt lat="43.17735" lon="0.88296">
        <ele>390.7</ele>
        <time>2013-12-22T15:06:32</time>
      </trkpt>
      <trkpt lat="43.17735" lon="0.88295">
        <ele>390.9</ele>
        <time>2013-12-22T15:06:33</time>
      </trkpt>
      <trkpt lat="43.17736" lon="0.88294">
        <ele>391.1</ele>
        <time>2013-12-22T15:06:34</time>
      </trkpt>
      <trkpt lat="43.17736" lon="0.88293">
        <ele>391.2</ele>
        <time>2013-12-22T15:06:35</time>
      </trkpt>
      <trkpt lat="43.17737" lon="0.88292">
        <ele>391.2</ele>
        <time>2013-12-22T15:06:36</time>
      </trkpt>
      <trkpt lat="43.17738" lon="0.88291">
        <ele>391.4</ele>
        <time>2013-12-22T15:06:37</time>
      </trkpt>
      <trkpt lat="43.17738" lon="0.88291">
        <ele>391.7</ele>
        <time>2013-12-22T15:06:38</time>
      </trkpt>
      <trkpt lat="43.17739" lon="0.8829">
        <ele>391.8</ele>
        <time>2013-12-22T15:06:39</time>
      </trkpt>
      <trkpt lat="43.1774" lon="0.88289">
        <ele>392.1</ele>
        <time>2013-12-22T15:06:40</time>
      </trkpt>
      <trkpt lat="43.1774" lon="0.88288">
        <ele>392.2</ele>
        <time>2013-12-22T15:06:41</time>
      </trkpt>
      <trkpt lat="43.1774" lon="0.88287">
        <ele>392.4</ele>
        <time>2013-12-22T15:06:42</time>
      </trkpt>
      <trkpt lat="43.17741" lon="0.88286">
        <ele>392.3</ele>
        <time>2013-12-22T15:06:43</time>
      </trkpt>
      <trkpt lat="43.17741" lon="0.88285">
        <ele>392.8</ele>
        <time>2013-12-22T15:06:44</time>
      </trkpt>
      <trkpt lat="43.17742" lon="0.88285">
        <ele>392.7</ele>
        <time>2013-12-22T15:06:45</time>
      </trkpt>
      <trkpt lat="43.17743" lon="0.88284">
        <ele>392.6</ele>
        <time>2013-12-22T15:06:46</time>
      </trkpt>
      <trkpt lat="43.17743" lon="0.88283">
        <ele>392.9</ele>
        <time>2013-12-22T15:06:47</time>
      </trkpt>
      <trkpt lat="43.17743" lon="0.88282">
        <ele>393</ele>
        <time>2013-12-22T15:06:48</time>
      </trkpt>
      <trkpt lat="43.17744" lon="0.88281">
        <ele>393.2</ele>
        <time>2013-12-22T15:06:49</time>
      </trkpt>
      <trkpt lat="43.17744" lon="0.8828">
        <ele>393.7</ele>
        <time>2013-12-22T15:06:50</time>
      </trkpt>
      <trkpt lat="43.17745" lon="0.8828">
        <ele>393.6</ele>
        <time>2013-12-22T15:06:51</time>
      </trkpt>
      <trkpt lat="43.17746" lon="0.88279">
        <ele>393.8</ele>
        <time>2013-12-22T15:06:52</time>
      </trkpt>
      <trkpt lat="43.17746" lon="0.88278">
        <ele>393.6</ele>
        <time>2013-12-22T15:06:53</time>
      </trkpt>
      <trkpt lat="43.17747" lon="0.88277">
        <ele>393.8</ele>
        <time>2013-12-22T15:06:54</time>
      </trkpt>
      <trkpt lat="43.17748" lon="0.88276">
        <ele>394.1</ele>
        <time>2013-12-22T15:06:55</time>
      </trkpt>
      <trkpt lat="43.17748" lon="0.88275">
        <ele>394.1</ele>
        <time>2013-12-22T15:06:56</time>
      </trkpt>
      <trkpt lat="43.17749" lon="0.88274">
        <ele>394.1</ele>
        <time>2013-12-22T15:06:57</time>
      </trkpt>
      <trkpt lat="43.17749" lon="0.88273">
        <ele>394.1</ele>
        <time>2013-12-22T15:06:58</time>
      </trkpt>
      <trkpt lat="43.1775" lon="0.88272">
        <ele>394.2</ele>
        <time>2013-12-22T15:06:59</time>
      </trkpt>
      <trkpt lat="43.1775" lon="0.88271">
        <ele>394.5</ele>
        <time>2013-12-22T15:07:00</time>
      </trkpt>
      <trkpt lat="43.17751" lon="0.8827">
        <ele>394.8</ele>
        <time>2013-12-22T15:07:01</time>
      </trkpt>
      <trkpt lat="43.17751" lon="0.88269">
        <ele>394.7</ele>
        <time>2013-12-22T15:07:02</time>
      </trkpt>
      <trkpt lat="43.17752" lon="0.88268">
        <ele>394.7</ele>
        <time>2013-12-22T15:07:03</time>
      </trkpt>
      <trkpt lat="43.17753" lon="0.88267">
        <ele>394.7</ele>
        <time>2013-12-22T15:07:04</time>
      </trkpt>
      <trkpt lat="43.17753" lon="0.88266">
        <ele>394.7</ele>
        <time>2013-12-22T15:07:05</time>
      </trkpt>
      <trkpt lat="43.17754" lon="0.88265">
        <ele>394.9</ele>
        <time>2013-12-22T15:07:06</time>
      </trkpt>
      <trkpt lat="43.17754" lon="0.88264">
        <ele>394.8</ele>
        <time>2013-12-22T15:07:07</time>
      </trkpt>
      <trkpt lat="43.17755" lon="0.88263">
        <ele>394.9</ele>
        <time>2013-12-22T15:07:08</time>
      </trkpt>
      <trkpt lat="43.17756" lon="0.88262">
        <ele>395</ele>
        <time>2013-12-22T15:07:09</time>
      </trkpt>
      <trkpt lat="43.17756" lon="0.88261">
        <ele>395.1</ele>
        <time>2013-12-22T15:07:10</time>
      </trkpt>
      <trkpt lat="43.17757" lon="0.8826">
        <ele>395.1</ele>
        <time>2013-12-22T15:07:11</time>
      </trkpt>
      <trkpt lat="43.17757" lon="0.88259">
        <ele>395</ele>
        <time>2013-12-22T15:07:12</time>
      </trkpt>
      <trkpt lat="43.17758" lon="0.88258">
        <ele>394.7</ele>
        <time>2013-12-22T15:07:13</time>
      </trkpt>
      <trkpt lat="43.17758" lon="0.88257">
        <ele>394.6</ele>
        <time>2013-12-22T15:07:14</time>
      </trkpt>
      <trkpt lat="43.17759" lon="0.88256">
        <ele>394.6</ele>
        <time>2013-12-22T15:07:15</time>
      </trkpt>
      <trkpt lat="43.1776" lon="0.88255">
        <ele>394.5</ele>
        <time>2013-12-22T15:07:16</time>
      </trkpt>
      <trkpt lat="43.1776" lon="0.88254">
        <ele>394.5</ele>
        <time>2013-12-22T15:07:17</time>
      </trkpt>
      <trkpt lat="43.17761" lon="0.88253">
        <ele>394.7</ele>
        <time>2013-12-22T15:07:18</time>
      </trkpt>
      <trkpt lat="43.17762" lon="0.88252">
        <ele>394.8</ele>
        <time>2013-12-22T15:07:19</time>
      </trkpt>
      <trkpt lat="43.17762" lon="0.88251">
        <ele>394.5</ele>
        <time>2013-12-22T15:07:20</time>
      </trkpt>
      <trkpt lat="43.17762" lon="0.8825">
        <ele>394.7</ele>
        <time>2013-12-22T15:07:21</time>
      </trkpt>
      <trkpt lat="43.17763" lon="0.88249">
        <ele>394.6</ele>
        <time>2013-12-22T15:07:22</time>
      </trkpt>
      <trkpt lat="43.17764" lon="0.88248">
        <ele>394.7</ele>
        <time>2013-12-22T15:07:23</time>
      </trkpt>
      <trkpt lat="43.17764" lon="0.88247">
        <ele>394.9</ele>
        <time>2013-12-22T15:07:24</time>
      </trkpt>
      <trkpt lat="43.17765" lon="0.88246">
        <ele>394.9</ele>
        <time>2013-12-22T15:07:25</time>
      </trkpt>
      <trkpt lat="43.17765" lon="0.88245">
        <ele>394.9</ele>
        <time>2013-12-22T15:07:26</time>
      </trkpt>
      <trkpt lat="43.17766" lon="0.88243">
        <ele>395.2</ele>
        <time>2013-12-22T15:07:27</time>
      </trkpt>
      <trkpt lat="43.17766" lon="0.88242">
        <ele>395.4</ele>
        <time>2013-12-22T15:07:28</time>
      </trkpt>
      <trkpt lat="43.17767" lon="0.88241">
        <ele>395.3</ele>
        <time>2013-12-22T15:07:29</time>
      </trkpt>
      <trkpt lat="43.17767" lon="0.8824">
        <ele>395.5</ele>
        <time>2013-12-22T15:07:30</time>
      </trkpt>
      <trkpt lat="43.17768" lon="0.88239">
        <ele>395.6</ele>
        <time>2013-12-22T15:07:31</time>
      </trkpt>
      <trkpt lat="43.17769" lon="0.88238">
        <ele>395.9</ele>
        <time>2013-12-22T15:07:32</time>
      </trkpt>
      <trkpt lat="43.17769" lon="0.88237">
        <ele>395.8</ele>
        <time>2013-12-22T15:07:33</time>
      </trkpt>
      <trkpt lat="43.1777" lon="0.88236">
        <ele>395.9</ele>
        <time>2013-12-22T15:07:34</time>
      </trkpt>
      <trkpt lat="43.1777" lon="0.88235">
        <ele>395.7</ele>
        <time>2013-12-22T15:07:35</time>
      </trkpt>
      <trkpt lat="43.1777" lon="0.88234">
        <ele>395.8</ele>
        <time>2013-12-22T15:07:36</time>
      </trkpt>
      <trkpt lat="43.17771" lon="0.88233">
        <ele>395.8</ele>
        <time>2013-12-22T15:07:37</time>
      </trkpt>
      <trkpt lat="43.17772" lon="0.88232">
        <ele>396</ele>
        <time>2013-12-22T15:07:38</time>
      </trkpt>
      <trkpt lat="43.17772" lon="0.88232">
        <ele>395.8</ele>
        <time>2013-12-22T15:08:41</time>
      </trkpt>
      <trkpt lat="43.17772" lon="0.88231">
        <ele>395.7</ele>
        <time>2013-12-22T15:08:42</time>
      </trkpt>
      <trkpt lat="43.17773" lon="0.8823">
        <ele>396.3</ele>
        <time>2013-12-22T15:08:43</time>
      </trkpt>
      <trkpt lat="43.17773" lon="0.88229">
        <ele>396.5</ele>
        <time>2013-12-22T15:08:44</time>
      </trkpt>
      <trkpt lat="43.17773" lon="0.88228">
        <ele>396.5</ele>
        <time>2013-12-22T15:08:45</time>
      </trkpt>
      <trkpt lat="43.17774" lon="0.88227">
        <ele>396.7</ele>
        <time>2013-12-22T15:08:46</time>
      </trkpt>
      <trkpt lat="43.17775" lon="0.88225">
        <ele>396.6</ele>
        <time>2013-12-22T15:08:47</time>
      </trkpt>
      <trkpt lat="43.17775" lon="0.88224">
        <ele>396.7</ele>
        <time>2013-12-22T15:08:48</time>
      </trkpt>
      <trkpt lat="43.17776" lon="0.88223">
        <ele>396.6</ele>
        <time>2013-12-22T15:08:49</time>
      </trkpt>
      <trkpt lat="43.17777" lon="0.88222">
        <ele>396.6</ele>
        <time>2013-12-22T15:08:50</time>
      </trkpt>
      <trkpt lat="43.17777" lon="0.88221">
        <ele>396.8</ele>
        <time>2013-12-22T15:08:51</time>
      </trkpt>
      <trkpt lat="43.17778" lon="0.88219">
        <ele>397.2</ele>
        <time>2013-12-22T15:08:52</time>
      </trkpt>
      <trkpt lat="43.17778" lon="0.88218">
        <ele>397</ele>
        <time>2013-12-22T15:08:53</time>
      </trkpt>
      <trkpt lat="43.17779" lon="0.88217">
        <ele>397</ele>
        <time>2013-12-22T15:08:54</time>
      </trkpt>
      <trkpt lat="43.1778" lon="0.88216">
        <ele>397.1</ele>
        <time>2013-12-22T15:08:55</time>
      </trkpt>
      <trkpt lat="43.1778" lon="0.88215">
        <ele>397.3</ele>
        <time>2013-12-22T15:08:56</time>
      </trkpt>
      <trkpt lat="43.17781" lon="0.88213">
        <ele>397.5</ele>
        <time>2013-12-22T15:08:57</time>
      </trkpt>
      <trkpt lat="43.17781" lon="0.88212">
        <ele>397.3</ele>
        <time>2013-12-22T15:08:58</time>
      </trkpt>
      <trkpt lat="43.17782" lon="0.88211">
        <ele>397.4</ele>
        <time>2013-12-22T15:08:59</time>
      </trkpt>
      <trkpt lat="43.17783" lon="0.8821">
        <ele>397.6</ele>
        <time>2013-12-22T15:09:00</time>
      </trkpt>
      <trkpt lat="43.17783" lon="0.88209">
        <ele>397.9</ele>
        <time>2013-12-22T15:09:01</time>
      </trkpt>
      <trkpt lat="43.17784" lon="0.88208">
        <ele>397.8</ele>
        <time>2013-12-22T15:09:02</time>
      </trkpt>
      <trkpt lat="43.17784" lon="0.88207">
        <ele>398.3</ele>
        <time>2013-12-22T15:09:03</time>
      </trkpt>
      <trkpt lat="43.17785" lon="0.88206">
        <ele>398.3</ele>
        <time>2013-12-22T15:09:04</time>
      </trkpt>
      <trkpt lat="43.17785" lon="0.88204">
        <ele>398.2</ele>
        <time>2013-12-22T15:09:05</time>
      </trkpt>
      <trkpt lat="43.17786" lon="0.88203">
        <ele>398.3</ele>
        <time>2013-12-22T15:09:06</time>
      </trkpt>
      <trkpt lat="43.17786" lon="0.88202">
        <ele>398.6</ele>
        <time>2013-12-22T15:09:07</time>
      </trkpt>
      <trkpt lat="43.17787" lon="0.88201">
        <ele>398.6</ele>
        <time>2013-12-22T15:09:08</time>
      </trkpt>
      <trkpt lat="43.17788" lon="0.88199">
        <ele>398.8</ele>
        <time>2013-12-22T15:09:09</time>
      </trkpt>
      <trkpt lat="43.17788" lon="0.88198">
        <ele>398.9</ele>
        <time>2013-12-22T15:09:10</time>
      </trkpt>
      <trkpt lat="43.17789" lon="0.88197">
        <ele>398.7</ele>
        <time>2013-12-22T15:09:11</time>
      </trkpt>
      <trkpt lat="43.17789" lon="0.88196">
        <ele>398.8</ele>
        <time>2013-12-22T15:09:12</time>
      </trkpt>
      <trkpt lat="43.1779" lon="0.88196">
        <ele>399</ele>
        <time>2013-12-22T15:09:13</time>
      </trkpt>
      <trkpt lat="43.17789" lon="0.88197">
        <ele>398.7</ele>
        <time>2013-12-22T15:09:19</time>
      </trkpt>
      <trkpt lat="43.1779" lon="0.88196">
        <ele>398.9</ele>
        <time>2013-12-22T15:09:20</time>
      </trkpt>
      <trkpt lat="43.1779" lon="0.88195">
        <ele>398.7</ele>
        <time>2013-12-22T15:09:21</time>
      </trkpt>
      <trkpt lat="43.17791" lon="0.88194">
        <ele>399</ele>
        <time>2013-12-22T15:09:22</time>
      </trkpt>
      <trkpt lat="43.17791" lon="0.88193">
        <ele>399</ele>
        <time>2013-12-22T15:09:23</time>
      </trkpt>
      <trkpt lat="43.17792" lon="0.88192">
        <ele>399.4</ele>
        <time>2013-12-22T15:09:24</time>
      </trkpt>
      <trkpt lat="43.17793" lon="0.88191">
        <ele>399.7</ele>
        <time>2013-12-22T15:09:25</time>
      </trkpt>
      <trkpt lat="43.17793" lon="0.8819">
        <ele>399.9</ele>
        <time>2013-12-22T15:09:26</time>
      </trkpt>
      <trkpt lat="43.17794" lon="0.88189">
        <ele>400.2</ele>
        <time>2013-12-22T15:09:27</time>
      </trkpt>
      <trkpt lat="43.17794" lon="0.88187">
        <ele>400.2</ele>
        <time>2013-12-22T15:09:28</time>
      </trkpt>
      <trkpt lat="43.17795" lon="0.88186">
        <ele>400.3</ele>
        <time>2013-12-22T15:09:29</time>
      </trkpt>
      <trkpt lat="43.17796" lon="0.88185">
        <ele>400.4</ele>
        <time>2013-12-22T15:09:30</time>
      </trkpt>
      <trkpt lat="43.17796" lon="0.88184">
        <ele>400.1</ele>
        <time>2013-12-22T15:09:31</time>
      </trkpt>
      <trkpt lat="43.17797" lon="0.88183">
        <ele>399.8</ele>
        <time>2013-12-22T15:09:32</time>
      </trkpt>
      <trkpt lat="43.17798" lon="0.88182">
        <ele>400.3</ele>
        <time>2013-12-22T15:09:33</time>
      </trkpt>
      <trkpt lat="43.17799" lon="0.88181">
        <ele>400.5</ele>
        <time>2013-12-22T15:09:34</time>
      </trkpt>
      <trkpt lat="43.17799" lon="0.8818">
        <ele>400.2</ele>
        <time>2013-12-22T15:09:35</time>
      </trkpt>
      <trkpt lat="43.178" lon="0.88179">
        <ele>400.3</ele>
        <time>2013-12-22T15:09:36</time>
      </trkpt>
      <trkpt lat="43.17801" lon="0.88178">
        <ele>400.7</ele>
        <time>2013-12-22T15:09:37</time>
      </trkpt>
      <trkpt lat="43.17801" lon="0.88178">
        <ele>400.4</ele>
        <time>2013-12-22T15:09:38</time>
      </trkpt>
      <trkpt lat="43.17802" lon="0.88177">
        <ele>400.7</ele>
        <time>2013-12-22T15:09:39</time>
      </trkpt>
      <trkpt lat="43.17803" lon="0.88176">
        <ele>400.3</ele>
        <time>2013-12-22T15:09:40</time>
      </trkpt>
      <trkpt lat="43.17803" lon="0.88175">
        <ele>400.3</ele>
        <time>2013-12-22T15:09:41</time>
      </trkpt>
      <trkpt lat="43.17804" lon="0.88174">
        <ele>399.9</ele>
        <time>2013-12-22T15:09:42</time>
      </trkpt>
      <trkpt lat="43.17804" lon="0.88173">
        <ele>400.1</ele>
        <time>2013-12-22T15:09:43</time>
      </trkpt>
      <trkpt lat="43.17805" lon="0.88172">
        <ele>400.3</ele>
        <time>2013-12-22T15:09:44</time>
      </trkpt>
      <trkpt lat="43.17806" lon="0.88171">
        <ele>400.7</ele>
        <time>2013-12-22T15:09:45</time>
      </trkpt>
      <trkpt lat="43.17806" lon="0.8817">
        <ele>401.1</ele>
        <time>2013-12-22T15:09:46</time>
      </trkpt>
      <trkpt lat="43.17807" lon="0.88169">
        <ele>400.9</ele>
        <time>2013-12-22T15:09:47</time>
      </trkpt>
      <trkpt lat="43.17807" lon="0.88169">
        <ele>400.9</ele>
        <time>2013-12-22T15:09:48</time>
      </trkpt>
      <trkpt lat="43.17808" lon="0.88168">
        <ele>401.3</ele>
        <time>2013-12-22T15:09:49</time>
      </trkpt>
      <trkpt lat="43.17809" lon="0.88168">
        <ele>401.2</ele>
        <time>2013-12-22T15:09:50</time>
      </trkpt>
      <trkpt lat="43.1781" lon="0.88167">
        <ele>401.5</ele>
        <time>2013-12-22T15:09:51</time>
      </trkpt>
      <trkpt lat="43.1781" lon="0.88166">
        <ele>401.4</ele>
        <time>2013-12-22T15:09:52</time>
      </trkpt>
      <trkpt lat="43.17811" lon="0.88165">
        <ele>401.4</ele>
        <time>2013-12-22T15:09:53</time>
      </trkpt>
      <trkpt lat="43.17812" lon="0.88164">
        <ele>401.2</ele>
        <time>2013-12-22T15:09:54</time>
      </trkpt>
      <trkpt lat="43.17813" lon="0.88164">
        <ele>401.2</ele>
        <time>2013-12-22T15:09:55</time>
      </trkpt>
      <trkpt lat="43.17814" lon="0.88163">
        <ele>401.5</ele>
        <time>2013-12-22T15:09:56</time>
      </trkpt>
      <trkpt lat="43.17814" lon="0.88162">
        <ele>401.5</ele>
        <time>2013-12-22T15:09:57</time>
      </trkpt>
      <trkpt lat="43.17815" lon="0.88161">
        <ele>401.6</ele>
        <time>2013-12-22T15:09:58</time>
      </trkpt>
      <trkpt lat="43.17816" lon="0.88161">
        <ele>401.8</ele>
        <time>2013-12-22T15:09:59</time>
      </trkpt>
      <trkpt lat="43.17817" lon="0.8816">
        <ele>402</ele>
        <time>2013-12-22T15:10:00</time>
      </trkpt>
      <trkpt lat="43.17817" lon="0.88159">
        <ele>401.9</ele>
        <time>2013-12-22T15:10:01</time>
      </trkpt>
      <trkpt lat="43.17818" lon="0.88159">
        <ele>402.3</ele>
        <time>2013-12-22T15:10:02</time>
      </trkpt>
      <trkpt lat="43.17819" lon="0.88158">
        <ele>402.2</ele>
        <time>2013-12-22T15:10:03</time>
      </trkpt>
      <trkpt lat="43.1782" lon="0.88158">
        <ele>402.3</ele>
        <time>2013-12-22T15:10:04</time>
      </trkpt>
      <trkpt lat="43.1782" lon="0.88157">
        <ele>403.1</ele>
        <time>2013-12-22T15:10:05</time>
      </trkpt>
      <trkpt lat="43.17821" lon="0.88156">
        <ele>403.4</ele>
        <time>2013-12-22T15:10:06</time>
      </trkpt>
      <trkpt lat="43.17822" lon="0.88156">
        <ele>403.4</ele>
        <time>2013-12-22T15:10:07</time>
      </trkpt>
      <trkpt lat="43.17822" lon="0.88155">
        <ele>403.5</ele>
        <time>2013-12-22T15:10:08</time>
      </trkpt>
      <trkpt lat="43.17823" lon="0.88154">
        <ele>403.7</ele>
        <time>2013-12-22T15:10:09</time>
      </trkpt>
      <trkpt lat="43.17824" lon="0.88154">
        <ele>404</ele>
        <time>2013-12-22T15:10:10</time>
      </trkpt>
      <trkpt lat="43.17825" lon="0.88153">
        <ele>404</ele>
        <time>2013-12-22T15:10:11</time>
      </trkpt>
      <trkpt lat="43.17826" lon="0.88152">
        <ele>404.2</ele>
        <time>2013-12-22T15:10:12</time>
      </trkpt>
      <trkpt lat="43.17827" lon="0.88152">
        <ele>404.2</ele>
        <time>2013-12-22T15:10:13</time>
      </trkpt>
      <trkpt lat="43.17827" lon="0.88151">
        <ele>404.1</ele>
        <time>2013-12-22T15:10:14</time>
      </trkpt>
      <trkpt lat="43.17828" lon="0.88151">
        <ele>404.2</ele>
        <time>2013-12-22T15:10:15</time>
      </trkpt>
      <trkpt lat="43.17829" lon="0.8815">
        <ele>404.2</ele>
        <time>2013-12-22T15:10:16</time>
      </trkpt>
      <trkpt lat="43.1783" lon="0.88149">
        <ele>404.2</ele>
        <time>2013-12-22T15:10:17</time>
      </trkpt>
      <trkpt lat="43.17831" lon="0.88149">
        <ele>404.4</ele>
        <time>2013-12-22T15:10:18</time>
      </trkpt>
      <trkpt lat="43.17831" lon="0.88148">
        <ele>404.3</ele>
        <time>2013-12-22T15:10:19</time>
      </trkpt>
      <trkpt lat="43.17832" lon="0.88147">
        <ele>404.6</ele>
        <time>2013-12-22T15:10:20</time>
      </trkpt>
      <trkpt lat="43.17833" lon="0.88146">
        <ele>405</ele>
        <time>2013-12-22T15:10:21</time>
      </trkpt>
      <trkpt lat="43.17833" lon="0.88146">
        <ele>405</ele>
        <time>2013-12-22T15:10:22</time>
      </trkpt>
      <trkpt lat="43.17834" lon="0.88145">
        <ele>405</ele>
        <time>2013-12-22T15:10:23</time>
      </trkpt>
      <trkpt lat="43.17835" lon="0.88144">
        <ele>405</ele>
        <time>2013-12-22T15:10:24</time>
      </trkpt>
      <trkpt lat="43.17835" lon="0.88144">
        <ele>405.3</ele>
        <time>2013-12-22T15:10:25</time>
      </trkpt>
      <trkpt lat="43.17836" lon="0.88143">
        <ele>405.2</ele>
        <time>2013-12-22T15:10:26</time>
      </trkpt>
      <trkpt lat="43.17837" lon="0.88143">
        <ele>405.2</ele>
        <time>2013-12-22T15:10:27</time>
      </trkpt>
      <trkpt lat="43.17838" lon="0.88142">
        <ele>405.2</ele>
        <time>2013-12-22T15:10:28</time>
      </trkpt>
      <trkpt lat="43.17838" lon="0.88142">
        <ele>405.3</ele>
        <time>2013-12-22T15:10:29</time>
      </trkpt>
      <trkpt lat="43.17839" lon="0.88141">
        <ele>405.3</ele>
        <time>2013-12-22T15:10:30</time>
      </trkpt>
      <trkpt lat="43.1784" lon="0.88141">
        <ele>405.2</ele>
        <time>2013-12-22T15:10:31</time>
      </trkpt>
      <trkpt lat="43.17841" lon="0.8814">
        <ele>405.8</ele>
        <time>2013-12-22T15:10:32</time>
      </trkpt>
      <trkpt lat="43.17841" lon="0.8814">
        <ele>406</ele>
        <time>2013-12-22T15:10:33</time>
      </trkpt>
      <trkpt lat="43.17842" lon="0.88139">
        <ele>406.2</ele>
        <time>2013-12-22T15:10:34</time>
      </trkpt>
      <trkpt lat="43.17842" lon="0.88139">
        <ele>404.7</ele>
        <time>2013-12-22T15:10:37</time>
      </trkpt>
      <trkpt lat="43.17843" lon="0.88139">
        <ele>405.3</ele>
        <time>2013-12-22T15:10:38</time>
      </trkpt>
      <trkpt lat="43.17843" lon="0.88138">
        <ele>405.5</ele>
        <time>2013-12-22T15:10:39</time>
      </trkpt>
      <trkpt lat="43.17844" lon="0.88137">
        <ele>406</ele>
        <time>2013-12-22T15:10:40</time>
      </trkpt>
      <trkpt lat="43.17844" lon="0.88137">
        <ele>406.2</ele>
        <time>2013-12-22T15:10:41</time>
      </trkpt>
      <trkpt lat="43.17845" lon="0.88137">
        <ele>406.3</ele>
        <time>2013-12-22T15:10:42</time>
      </trkpt>
      <trkpt lat="43.17846" lon="0.88136">
        <ele>406.6</ele>
        <time>2013-12-22T15:10:47</time>
      </trkpt>
      <trkpt lat="43.17846" lon="0.88136">
        <ele>406.4</ele>
        <time>2013-12-22T15:10:48</time>
      </trkpt>
      <trkpt lat="43.17847" lon="0.88135">
        <ele>406.5</ele>
        <time>2013-12-22T15:10:49</time>
      </trkpt>
      <trkpt lat="43.17847" lon="0.88135">
        <ele>406.8</ele>
        <time>2013-12-22T15:10:50</time>
      </trkpt>
      <trkpt lat="43.17848" lon="0.88134">
        <ele>407</ele>
        <time>2013-12-22T15:10:51</time>
      </trkpt>
      <trkpt lat="43.17849" lon="0.88133">
        <ele>406.8</ele>
        <time>2013-12-22T15:10:52</time>
      </trkpt>
      <trkpt lat="43.1785" lon="0.88133">
        <ele>407.1</ele>
        <time>2013-12-22T15:10:53</time>
      </trkpt>
      <trkpt lat="43.17851" lon="0.88132">
        <ele>407.2</ele>
        <time>2013-12-22T15:10:54</time>
      </trkpt>
      <trkpt lat="43.17851" lon="0.88132">
        <ele>407.4</ele>
        <time>2013-12-22T15:10:55</time>
      </trkpt>
      <trkpt lat="43.17852" lon="0.88131">
        <ele>407.6</ele>
        <time>2013-12-22T15:10:56</time>
      </trkpt>
      <trkpt lat="43.17853" lon="0.8813">
        <ele>407.9</ele>
        <time>2013-12-22T15:10:57</time>
      </trkpt>
      <trkpt lat="43.17853" lon="0.8813">
        <ele>408.2</ele>
        <time>2013-12-22T15:10:58</time>
      </trkpt>
      <trkpt lat="43.17854" lon="0.88129">
        <ele>408.1</ele>
        <time>2013-12-22T15:10:59</time>
      </trkpt>
      <trkpt lat="43.17855" lon="0.88128">
        <ele>408.4</ele>
        <time>2013-12-22T15:11:00</time>
      </trkpt>
      <trkpt lat="43.17856" lon="0.88127">
        <ele>407.8</ele>
        <time>2013-12-22T15:11:01</time>
      </trkpt>
      <trkpt lat="43.17856" lon="0.88127">
        <ele>408.2</ele>
        <time>2013-12-22T15:11:02</time>
      </trkpt>
      <trkpt lat="43.17857" lon="0.88126">
        <ele>408.1</ele>
        <time>2013-12-22T15:11:03</time>
      </trkpt>
      <trkpt lat="43.17858" lon="0.88125">
        <ele>408.2</ele>
        <time>2013-12-22T15:11:04</time>
      </trkpt>
      <trkpt lat="43.17859" lon="0.88125">
        <ele>408.2</ele>
        <time>2013-12-22T15:11:05</time>
      </trkpt>
      <trkpt lat="43.17859" lon="0.88124">
        <ele>408.2</ele>
        <time>2013-12-22T15:11:06</time>
      </trkpt>
      <trkpt lat="43.1786" lon="0.88124">
        <ele>408.2</ele>
        <time>2013-12-22T15:11:07</time>
      </trkpt>
      <trkpt lat="43.1786" lon="0.88123">
        <ele>408.5</ele>
        <time>2013-12-22T15:11:08</time>
      </trkpt>
      <trkpt lat="43.17861" lon="0.88122">
        <ele>408.3</ele>
        <time>2013-12-22T15:11:09</time>
      </trkpt>
      <trkpt lat="43.17862" lon="0.88122">
        <ele>408.4</ele>
        <time>2013-12-22T15:11:10</time>
      </trkpt>
      <trkpt lat="43.17863" lon="0.88121">
        <ele>408.7</ele>
        <time>2013-12-22T15:11:11</time>
      </trkpt>
      <trkpt lat="43.17864" lon="0.8812">
        <ele>408.6</ele>
        <time>2013-12-22T15:11:12</time>
      </trkpt>
      <trkpt lat="43.17864" lon="0.88119">
        <ele>408.4</ele>
        <time>2013-12-22T15:11:13</time>
      </trkpt>
      <trkpt lat="43.17865" lon="0.88119">
        <ele>408.6</ele>
        <time>2013-12-22T15:11:14</time>
      </trkpt>
      <trkpt lat="43.17865" lon="0.88118">
        <ele>408.9</ele>
        <time>2013-12-22T15:11:15</time>
      </trkpt>
      <trkpt lat="43.17866" lon="0.88117">
        <ele>408.9</ele>
        <time>2013-12-22T15:11:16</time>
      </trkpt>
      <trkpt lat="43.17867" lon="0.88116">
        <ele>408.7</ele>
        <time>2013-12-22T15:11:17</time>
      </trkpt>
      <trkpt lat="43.17868" lon="0.88116">
        <ele>409</ele>
        <time>2013-12-22T15:11:18</time>
      </trkpt>
      <trkpt lat="43.17868" lon="0.88115">
        <ele>409</ele>
        <time>2013-12-22T15:11:19</time>
      </trkpt>
      <trkpt lat="43.17869" lon="0.88114">
        <ele>409</ele>
        <time>2013-12-22T15:11:20</time>
      </trkpt>
      <trkpt lat="43.1787" lon="0.88114">
        <ele>409.2</ele>
        <time>2013-12-22T15:11:21</time>
      </trkpt>
      <trkpt lat="43.1787" lon="0.88113">
        <ele>409</ele>
        <time>2013-12-22T15:11:22</time>
      </trkpt>
      <trkpt lat="43.17871" lon="0.88113">
        <ele>408.9</ele>
        <time>2013-12-22T15:11:23</time>
      </trkpt>
      <trkpt lat="43.17872" lon="0.88112">
        <ele>409.1</ele>
        <time>2013-12-22T15:11:24</time>
      </trkpt>
      <trkpt lat="43.17873" lon="0.88112">
        <ele>409.1</ele>
        <time>2013-12-22T15:11:25</time>
      </trkpt>
      <trkpt lat="43.17873" lon="0.88111">
        <ele>409.1</ele>
        <time>2013-12-22T15:11:26</time>
      </trkpt>
      <trkpt lat="43.17874" lon="0.88111">
        <ele>409.4</ele>
        <time>2013-12-22T15:11:27</time>
      </trkpt>
      <trkpt lat="43.17874" lon="0.8811">
        <ele>409.5</ele>
        <time>2013-12-22T15:11:28</time>
      </trkpt>
      <trkpt lat="43.17875" lon="0.88109">
        <ele>409.6</ele>
        <time>2013-12-22T15:11:29</time>
      </trkpt>
      <trkpt lat="43.17875" lon="0.88109">
        <ele>409.7</ele>
        <time>2013-12-22T15:11:30</time>
      </trkpt>
      <trkpt lat="43.17876" lon="0.88109">
        <ele>409.3</ele>
        <time>2013-12-22T15:11:31</time>
      </trkpt>
      <trkpt lat="43.17877" lon="0.88108">
        <ele>409.7</ele>
        <time>2013-12-22T15:11:32</time>
      </trkpt>
      <trkpt lat="43.17878" lon="0.88108">
        <ele>409.9</ele>
        <time>2013-12-22T15:11:33</time>
      </trkpt>
      <trkpt lat="43.17878" lon="0.88107">
        <ele>409.9</ele>
        <time>2013-12-22T15:11:34</time>
      </trkpt>
      <trkpt lat="43.17879" lon="0.88107">
        <ele>409.6</ele>
        <time>2013-12-22T15:11:35</time>
      </trkpt>
      <trkpt lat="43.1788" lon="0.88106">
        <ele>409.8</ele>
        <time>2013-12-22T15:11:36</time>
      </trkpt>
      <trkpt lat="43.1788" lon="0.88106">
        <ele>410</ele>
        <time>2013-12-22T15:11:37</time>
      </trkpt>
      <trkpt lat="43.17881" lon="0.88105">
        <ele>410.1</ele>
        <time>2013-12-22T15:11:38</time>
      </trkpt>
      <trkpt lat="43.17881" lon="0.88105">
        <ele>410.3</ele>
        <time>2013-12-22T15:11:39</time>
      </trkpt>
      <trkpt lat="43.17882" lon="0.88104">
        <ele>410.3</ele>
        <time>2013-12-22T15:11:40</time>
      </trkpt>
      <trkpt lat="43.17883" lon="0.88104">
        <ele>410.1</ele>
        <time>2013-12-22T15:11:41</time>
      </trkpt>
      <trkpt lat="43.17883" lon="0.88103">
        <ele>410.1</ele>
        <time>2013-12-22T15:11:42</time>
      </trkpt>
      <trkpt lat="43.17884" lon="0.88102">
        <ele>410</ele>
        <time>2013-12-22T15:11:43</time>
      </trkpt>
      <trkpt lat="43.17884" lon="0.88102">
        <ele>410.3</ele>
        <time>2013-12-22T15:11:44</time>
      </trkpt>
      <trkpt lat="43.17885" lon="0.88101">
        <ele>410.2</ele>
        <time>2013-12-22T15:11:45</time>
      </trkpt>
      <trkpt lat="43.17886" lon="0.881">
        <ele>410.6</ele>
        <time>2013-12-22T15:11:46</time>
      </trkpt>
      <trkpt lat="43.17886" lon="0.881">
        <ele>411.1</ele>
        <time>2013-12-22T15:11:47</time>
      </trkpt>
      <trkpt lat="43.17887" lon="0.88099">
        <ele>410.8</ele>
        <time>2013-12-22T15:11:48</time>
      </trkpt>
      <trkpt lat="43.17888" lon="0.88099">
        <ele>411.1</ele>
        <time>2013-12-22T15:11:49</time>
      </trkpt>
      <trkpt lat="43.17888" lon="0.88098">
        <ele>411.1</ele>
        <time>2013-12-22T15:11:50</time>
      </trkpt>
      <trkpt lat="43.17889" lon="0.88097">
        <ele>411</ele>
        <time>2013-12-22T15:11:51</time>
      </trkpt>
      <trkpt lat="43.17889" lon="0.88097">
        <ele>411.4</ele>
        <time>2013-12-22T15:11:52</time>
      </trkpt>
      <trkpt lat="43.1789" lon="0.88096">
        <ele>411.6</ele>
        <time>2013-12-22T15:11:53</time>
      </trkpt>
      <trkpt lat="43.17891" lon="0.88096">
        <ele>411.7</ele>
        <time>2013-12-22T15:11:54</time>
      </trkpt>
      <trkpt lat="43.17891" lon="0.88095">
        <ele>411.9</ele>
        <time>2013-12-22T15:11:55</time>
      </trkpt>
      <trkpt lat="43.17892" lon="0.88095">
        <ele>412.2</ele>
        <time>2013-12-22T15:11:56</time>
      </trkpt>
      <trkpt lat="43.17893" lon="0.88094">
        <ele>412.1</ele>
        <time>2013-12-22T15:11:57</time>
      </trkpt>
      <trkpt lat="43.17893" lon="0.88094">
        <ele>412.2</ele>
        <time>2013-12-22T15:11:58</time>
      </trkpt>
      <trkpt lat="43.17894" lon="0.88093">
        <ele>412.6</ele>
        <time>2013-12-22T15:11:59</time>
      </trkpt>
      <trkpt lat="43.17894" lon="0.88092">
        <ele>412.8</ele>
        <time>2013-12-22T15:12:00</time>
      </trkpt>
      <trkpt lat="43.17895" lon="0.88092">
        <ele>412.3</ele>
        <time>2013-12-22T15:12:01</time>
      </trkpt>
      <trkpt lat="43.17896" lon="0.88092">
        <ele>412.3</ele>
        <time>2013-12-22T15:12:02</time>
      </trkpt>
      <trkpt lat="43.17896" lon="0.88091">
        <ele>412.5</ele>
        <time>2013-12-22T15:12:03</time>
      </trkpt>
      <trkpt lat="43.17897" lon="0.8809">
        <ele>412.6</ele>
        <time>2013-12-22T15:12:04</time>
      </trkpt>
      <trkpt lat="43.17897" lon="0.8809">
        <ele>412.6</ele>
        <time>2013-12-22T15:12:05</time>
      </trkpt>
      <trkpt lat="43.17898" lon="0.88089">
        <ele>412.8</ele>
        <time>2013-12-22T15:12:06</time>
      </trkpt>
      <trkpt lat="43.17898" lon="0.88088">
        <ele>412.9</ele>
        <time>2013-12-22T15:12:07</time>
      </trkpt>
      <trkpt lat="43.17899" lon="0.88088">
        <ele>412.8</ele>
        <time>2013-12-22T15:12:08</time>
      </trkpt>
      <trkpt lat="43.17899" lon="0.88087">
        <ele>412.6</ele>
        <time>2013-12-22T15:12:09</time>
      </trkpt>
      <trkpt lat="43.179" lon="0.88087">
        <ele>412.8</ele>
        <time>2013-12-22T15:12:10</time>
      </trkpt>
      <trkpt lat="43.17901" lon="0.88086">
        <ele>413.2</ele>
        <time>2013-12-22T15:12:11</time>
      </trkpt>
      <trkpt lat="43.17901" lon="0.88086">
        <ele>413.2</ele>
        <time>2013-12-22T15:12:12</time>
      </trkpt>
      <trkpt lat="43.17902" lon="0.88086">
        <ele>413.4</ele>
        <time>2013-12-22T15:12:13</time>
      </trkpt>
      <trkpt lat="43.17902" lon="0.88085">
        <ele>413.7</ele>
        <time>2013-12-22T15:12:14</time>
      </trkpt>
      <trkpt lat="43.17903" lon="0.88085">
        <ele>413.8</ele>
        <time>2013-12-22T15:12:15</time>
      </trkpt>
      <trkpt lat="43.17904" lon="0.88084">
        <ele>414</ele>
        <time>2013-12-22T15:12:16</time>
      </trkpt>
      <trkpt lat="43.17904" lon="0.88083">
        <ele>414.1</ele>
        <time>2013-12-22T15:12:17</time>
      </trkpt>
      <trkpt lat="43.17905" lon="0.88083">
        <ele>414.2</ele>
        <time>2013-12-22T15:12:18</time>
      </trkpt>
      <trkpt lat="43.17905" lon="0.88082">
        <ele>414.5</ele>
        <time>2013-12-22T15:12:19</time>
      </trkpt>
      <trkpt lat="43.17906" lon="0.88082">
        <ele>414.9</ele>
        <time>2013-12-22T15:12:20</time>
      </trkpt>
      <trkpt lat="43.17907" lon="0.88082">
        <ele>414.5</ele>
        <time>2013-12-22T15:12:21</time>
      </trkpt>
      <trkpt lat="43.17907" lon="0.88081">
        <ele>414.5</ele>
        <time>2013-12-22T15:12:22</time>
      </trkpt>
      <trkpt lat="43.17908" lon="0.88081">
        <ele>414.5</ele>
        <time>2013-12-22T15:12:23</time>
      </trkpt>
      <trkpt lat="43.17909" lon="0.8808">
        <ele>414.6</ele>
        <time>2013-12-22T15:12:24</time>
      </trkpt>
      <trkpt lat="43.1791" lon="0.8808">
        <ele>414.2</ele>
        <time>2013-12-22T15:12:25</time>
      </trkpt>
      <trkpt lat="43.1791" lon="0.8808">
        <ele>414.1</ele>
        <time>2013-12-22T15:12:26</time>
      </trkpt>
      <trkpt lat="43.17911" lon="0.88079">
        <ele>414.3</ele>
        <time>2013-12-22T15:12:27</time>
      </trkpt>
      <trkpt lat="43.17912" lon="0.88079">
        <ele>414.4</ele>
        <time>2013-12-22T15:12:28</time>
      </trkpt>
      <trkpt lat="43.17913" lon="0.88078">
        <ele>414.8</ele>
        <time>2013-12-22T15:12:29</time>
      </trkpt>
      <trkpt lat="43.17913" lon="0.88078">
        <ele>415.2</ele>
        <time>2013-12-22T15:12:30</time>
      </trkpt>
      <trkpt lat="43.17914" lon="0.88078">
        <ele>415.2</ele>
        <time>2013-12-22T15:12:31</time>
      </trkpt>
      <trkpt lat="43.17915" lon="0.88077">
        <ele>415.3</ele>
        <time>2013-12-22T15:12:32</time>
      </trkpt>
      <trkpt lat="43.17915" lon="0.88077">
        <ele>415.3</ele>
        <time>2013-12-22T15:12:33</time>
      </trkpt>
      <trkpt lat="43.17916" lon="0.88077">
        <ele>415.4</ele>
        <time>2013-12-22T15:12:34</time>
      </trkpt>
      <trkpt lat="43.17917" lon="0.88077">
        <ele>415.4</ele>
        <time>2013-12-22T15:12:35</time>
      </trkpt>
      <trkpt lat="43.17916" lon="0.88077">
        <ele>414.9</ele>
        <time>2013-12-22T15:12:44</time>
      </trkpt>
      <trkpt lat="43.17917" lon="0.88077">
        <ele>415.1</ele>
        <time>2013-12-22T15:12:45</time>
      </trkpt>
      <trkpt lat="43.17918" lon="0.88077">
        <ele>415.4</ele>
        <time>2013-12-22T15:12:46</time>
      </trkpt>
      <trkpt lat="43.17918" lon="0.88077">
        <ele>415.3</ele>
        <time>2013-12-22T15:12:47</time>
      </trkpt>
      <trkpt lat="43.17919" lon="0.88077">
        <ele>415.3</ele>
        <time>2013-12-22T15:12:48</time>
      </trkpt>
      <trkpt lat="43.1792" lon="0.88077">
        <ele>415.4</ele>
        <time>2013-12-22T15:12:49</time>
      </trkpt>
      <trkpt lat="43.17921" lon="0.88076">
        <ele>415.6</ele>
        <time>2013-12-22T15:12:50</time>
      </trkpt>
      <trkpt lat="43.17921" lon="0.88076">
        <ele>416.1</ele>
        <time>2013-12-22T15:12:51</time>
      </trkpt>
      <trkpt lat="43.17923" lon="0.88076">
        <ele>416.2</ele>
        <time>2013-12-22T15:12:52</time>
      </trkpt>
      <trkpt lat="43.17923" lon="0.88076">
        <ele>416.4</ele>
        <time>2013-12-22T15:12:53</time>
      </trkpt>
      <trkpt lat="43.17924" lon="0.88076">
        <ele>416.6</ele>
        <time>2013-12-22T15:12:54</time>
      </trkpt>
      <trkpt lat="43.17925" lon="0.88077">
        <ele>416.8</ele>
        <time>2013-12-22T15:12:55</time>
      </trkpt>
      <trkpt lat="43.17926" lon="0.88077">
        <ele>416.9</ele>
        <time>2013-12-22T15:12:56</time>
      </trkpt>
      <trkpt lat="43.17926" lon="0.88077">
        <ele>416.9</ele>
        <time>2013-12-22T15:12:57</time>
      </trkpt>
      <trkpt lat="43.17928" lon="0.88077">
        <ele>417.3</ele>
        <time>2013-12-22T15:12:58</time>
      </trkpt>
      <trkpt lat="43.17928" lon="0.88077">
        <ele>417.4</ele>
        <time>2013-12-22T15:12:59</time>
      </trkpt>
      <trkpt lat="43.17929" lon="0.88078">
        <ele>417.6</ele>
        <time>2013-12-22T15:13:00</time>
      </trkpt>
      <trkpt lat="43.1793" lon="0.88079">
        <ele>417.8</ele>
        <time>2013-12-22T15:13:01</time>
      </trkpt>
      <trkpt lat="43.1793" lon="0.88079">
        <ele>417.8</ele>
        <time>2013-12-22T15:13:02</time>
      </trkpt>
      <trkpt lat="43.17931" lon="0.8808">
        <ele>418</ele>
        <time>2013-12-22T15:13:03</time>
      </trkpt>
      <trkpt lat="43.17932" lon="0.8808">
        <ele>418.2</ele>
        <time>2013-12-22T15:13:04</time>
      </trkpt>
      <trkpt lat="43.17933" lon="0.88081">
        <ele>418.3</ele>
        <time>2013-12-22T15:13:05</time>
      </trkpt>
      <trkpt lat="43.17933" lon="0.88081">
        <ele>418.5</ele>
        <time>2013-12-22T15:13:06</time>
      </trkpt>
      <trkpt lat="43.17934" lon="0.88081">
        <ele>418.5</ele>
        <time>2013-12-22T15:13:07</time>
      </trkpt>
      <trkpt lat="43.17935" lon="0.88082">
        <ele>418.6</ele>
        <time>2013-12-22T15:13:08</time>
      </trkpt>
      <trkpt lat="43.17936" lon="0.88082">
        <ele>418.9</ele>
        <time>2013-12-22T15:13:09</time>
      </trkpt>
      <trkpt lat="43.17936" lon="0.88082">
        <ele>419</ele>
        <time>2013-12-22T15:13:11</time>
      </trkpt>
      <trkpt lat="43.17936" lon="0.88083">
        <ele>419.3</ele>
        <time>2013-12-22T15:13:12</time>
      </trkpt>
      <trkpt lat="43.17935" lon="0.88084">
        <ele>419.5</ele>
        <time>2013-12-22T15:13:13</time>
      </trkpt>
      <trkpt lat="43.17935" lon="0.88085">
        <ele>419.3</ele>
        <time>2013-12-22T15:13:14</time>
      </trkpt>
      <trkpt lat="43.17934" lon="0.88086">
        <ele>419.3</ele>
        <time>2013-12-22T15:13:15</time>
      </trkpt>
      <trkpt lat="43.17934" lon="0.88087">
        <ele>419.3</ele>
        <time>2013-12-22T15:13:16</time>
      </trkpt>
      <trkpt lat="43.17934" lon="0.88088">
        <ele>418.9</ele>
        <time>2013-12-22T15:13:17</time>
      </trkpt>
      <trkpt lat="43.17934" lon="0.88089">
        <ele>418.9</ele>
        <time>2013-12-22T15:13:18</time>
      </trkpt>
      <trkpt lat="43.17934" lon="0.8809">
        <ele>418.6</ele>
        <time>2013-12-22T15:13:19</time>
      </trkpt>
      <trkpt lat="43.17934" lon="0.8809">
        <ele>418.8</ele>
        <time>2013-12-22T15:13:57</time>
      </trkpt>
      <trkpt lat="43.17936" lon="0.88089">
        <ele>419.3</ele>
        <time>2013-12-22T15:13:58</time>
      </trkpt>
      <trkpt lat="43.17937" lon="0.88088">
        <ele>419.1</ele>
        <time>2013-12-22T15:13:59</time>
      </trkpt>
      <trkpt lat="43.17938" lon="0.88087">
        <ele>419.1</ele>
        <time>2013-12-22T15:14:00</time>
      </trkpt>
      <trkpt lat="43.17938" lon="0.88086">
        <ele>418.9</ele>
        <time>2013-12-22T15:14:01</time>
      </trkpt>
      <trkpt lat="43.17939" lon="0.88085">
        <ele>419.5</ele>
        <time>2013-12-22T15:14:02</time>
      </trkpt>
      <trkpt lat="43.1794" lon="0.88084">
        <ele>419.5</ele>
        <time>2013-12-22T15:14:03</time>
      </trkpt>
      <trkpt lat="43.17941" lon="0.88083">
        <ele>419.6</ele>
        <time>2013-12-22T15:14:04</time>
      </trkpt>
      <trkpt lat="43.17941" lon="0.88082">
        <ele>419.8</ele>
        <time>2013-12-22T15:14:05</time>
      </trkpt>
      <trkpt lat="43.17942" lon="0.88082">
        <ele>419.8</ele>
        <time>2013-12-22T15:14:06</time>
      </trkpt>
      <trkpt lat="43.17942" lon="0.88081">
        <ele>420</ele>
        <time>2013-12-22T15:14:07</time>
      </trkpt>
      <trkpt lat="43.17943" lon="0.8808">
        <ele>419.6</ele>
        <time>2013-12-22T15:14:08</time>
      </trkpt>
      <trkpt lat="43.17944" lon="0.8808">
        <ele>420</ele>
        <time>2013-12-22T15:14:09</time>
      </trkpt>
      <trkpt lat="43.17944" lon="0.88079">
        <ele>420.1</ele>
        <time>2013-12-22T15:14:10</time>
      </trkpt>
      <trkpt lat="43.17945" lon="0.88078">
        <ele>419.7</ele>
        <time>2013-12-22T15:14:11</time>
      </trkpt>
      <trkpt lat="43.17945" lon="0.88078">
        <ele>420.1</ele>
        <time>2013-12-22T15:14:12</time>
      </trkpt>
      <trkpt lat="43.17946" lon="0.88077">
        <ele>420.4</ele>
        <time>2013-12-22T15:14:13</time>
      </trkpt>
      <trkpt lat="43.17946" lon="0.88076">
        <ele>420.6</ele>
        <time>2013-12-22T15:14:14</time>
      </trkpt>
      <trkpt lat="43.17946" lon="0.88075">
        <ele>420.7</ele>
        <time>2013-12-22T15:14:15</time>
      </trkpt>
      <trkpt lat="43.17947" lon="0.88074">
        <ele>421.3</ele>
        <time>2013-12-22T15:14:16</time>
      </trkpt>
      <trkpt lat="43.17948" lon="0.88073">
        <ele>421.5</ele>
        <time>2013-12-22T15:14:17</time>
      </trkpt>
      <trkpt lat="43.17948" lon="0.88073">
        <ele>421.7</ele>
        <time>2013-12-22T15:14:18</time>
      </trkpt>
      <trkpt lat="43.17949" lon="0.88072">
        <ele>421.6</ele>
        <time>2013-12-22T15:14:19</time>
      </trkpt>
      <trkpt lat="43.1795" lon="0.88071">
        <ele>421.6</ele>
        <time>2013-12-22T15:14:20</time>
      </trkpt>
      <trkpt lat="43.1795" lon="0.8807">
        <ele>421.9</ele>
        <time>2013-12-22T15:14:21</time>
      </trkpt>
      <trkpt lat="43.17951" lon="0.88069">
        <ele>422.2</ele>
        <time>2013-12-22T15:14:22</time>
      </trkpt>
      <trkpt lat="43.17951" lon="0.88068">
        <ele>422.4</ele>
        <time>2013-12-22T15:14:23</time>
      </trkpt>
      <trkpt lat="43.17951" lon="0.88067">
        <ele>422.7</ele>
        <time>2013-12-22T15:14:24</time>
      </trkpt>
      <trkpt lat="43.17952" lon="0.88066">
        <ele>423.3</ele>
        <time>2013-12-22T15:14:25</time>
      </trkpt>
      <trkpt lat="43.17952" lon="0.88065">
        <ele>423.6</ele>
        <time>2013-12-22T15:14:26</time>
      </trkpt>
      <trkpt lat="43.17952" lon="0.88064">
        <ele>423.6</ele>
        <time>2013-12-22T15:14:27</time>
      </trkpt>
      <trkpt lat="43.17953" lon="0.88063">
        <ele>423.9</ele>
        <time>2013-12-22T15:14:28</time>
      </trkpt>
      <trkpt lat="43.17953" lon="0.88062">
        <ele>423.9</ele>
        <time>2013-12-22T15:14:29</time>
      </trkpt>
      <trkpt lat="43.17954" lon="0.88061">
        <ele>423.9</ele>
        <time>2013-12-22T15:14:30</time>
      </trkpt>
      <trkpt lat="43.17954" lon="0.8806">
        <ele>424.3</ele>
        <time>2013-12-22T15:14:31</time>
      </trkpt>
      <trkpt lat="43.17955" lon="0.88058">
        <ele>424.6</ele>
        <time>2013-12-22T15:14:32</time>
      </trkpt>
      <trkpt lat="43.17955" lon="0.88057">
        <ele>424.6</ele>
        <time>2013-12-22T15:14:33</time>
      </trkpt>
      <trkpt lat="43.17956" lon="0.88056">
        <ele>424.7</ele>
        <time>2013-12-22T15:14:34</time>
      </trkpt>
      <trkpt lat="43.17957" lon="0.88055">
        <ele>425.7</ele>
        <time>2013-12-22T15:14:35</time>
      </trkpt>
      <trkpt lat="43.17957" lon="0.88054">
        <ele>425.3</ele>
        <time>2013-12-22T15:14:36</time>
      </trkpt>
      <trkpt lat="43.17958" lon="0.88053">
        <ele>425.9</ele>
        <time>2013-12-22T15:14:37</time>
      </trkpt>
      <trkpt lat="43.17959" lon="0.88052">
        <ele>425.8</ele>
        <time>2013-12-22T15:14:38</time>
      </trkpt>
      <trkpt lat="43.17959" lon="0.88051">
        <ele>426.1</ele>
        <time>2013-12-22T15:14:39</time>
      </trkpt>
      <trkpt lat="43.17959" lon="0.8805">
        <ele>426.2</ele>
        <time>2013-12-22T15:14:40</time>
      </trkpt>
      <trkpt lat="43.1796" lon="0.88049">
        <ele>426.3</ele>
        <time>2013-12-22T15:14:41</time>
      </trkpt>
      <trkpt lat="43.1796" lon="0.88047">
        <ele>426.2</ele>
        <time>2013-12-22T15:14:42</time>
      </trkpt>
      <trkpt lat="43.1796" lon="0.88046">
        <ele>426.6</ele>
        <time>2013-12-22T15:14:43</time>
      </trkpt>
      <trkpt lat="43.17961" lon="0.88045">
        <ele>426.6</ele>
        <time>2013-12-22T15:14:44</time>
      </trkpt>
      <trkpt lat="43.17962" lon="0.88044">
        <ele>426.4</ele>
        <time>2013-12-22T15:14:45</time>
      </trkpt>
      <trkpt lat="43.17962" lon="0.88043">
        <ele>426.4</ele>
        <time>2013-12-22T15:14:46</time>
      </trkpt>
      <trkpt lat="43.17962" lon="0.88042">
        <ele>426.4</ele>
        <time>2013-12-22T15:14:47</time>
      </trkpt>
      <trkpt lat="43.17963" lon="0.8804">
        <ele>426</ele>
        <time>2013-12-22T15:14:48</time>
      </trkpt>
      <trkpt lat="43.17963" lon="0.88039">
        <ele>425.6</ele>
        <time>2013-12-22T15:14:49</time>
      </trkpt>
      <trkpt lat="43.17964" lon="0.88038">
        <ele>425.7</ele>
        <time>2013-12-22T15:14:50</time>
      </trkpt>
      <trkpt lat="43.17964" lon="0.88037">
        <ele>425.6</ele>
        <time>2013-12-22T15:14:51</time>
      </trkpt>
      <trkpt lat="43.17965" lon="0.88036">
        <ele>425.7</ele>
        <time>2013-12-22T15:14:52</time>
      </trkpt>
      <trkpt lat="43.17965" lon="0.88035">
        <ele>425</ele>
        <time>2013-12-22T15:14:53</time>
      </trkpt>
      <trkpt lat="43.17966" lon="0.88033">
        <ele>425</ele>
        <time>2013-12-22T15:14:54</time>
      </trkpt>
      <trkpt lat="43.17967" lon="0.88032">
        <ele>424.4</ele>
        <time>2013-12-22T15:14:55</time>
      </trkpt>
      <trkpt lat="43.17967" lon="0.88031">
        <ele>424.6</ele>
        <time>2013-12-22T15:14:56</time>
      </trkpt>
      <trkpt lat="43.17967" lon="0.8803">
        <ele>423.9</ele>
        <time>2013-12-22T15:14:57</time>
      </trkpt>
      <trkpt lat="43.17968" lon="0.88029">
        <ele>423.9</ele>
        <time>2013-12-22T15:14:58</time>
      </trkpt>
      <trkpt lat="43.17968" lon="0.88027">
        <ele>423.5</ele>
        <time>2013-12-22T15:14:59</time>
      </trkpt>
      <trkpt lat="43.17969" lon="0.88026">
        <ele>423.3</ele>
        <time>2013-12-22T15:15:00</time>
      </trkpt>
      <trkpt lat="43.17969" lon="0.88025">
        <ele>423.3</ele>
        <time>2013-12-22T15:15:01</time>
      </trkpt>
      <trkpt lat="43.1797" lon="0.88023">
        <ele>422.8</ele>
        <time>2013-12-22T15:15:02</time>
      </trkpt>
      <trkpt lat="43.17971" lon="0.88022">
        <ele>422.6</ele>
        <time>2013-12-22T15:15:03</time>
      </trkpt>
      <trkpt lat="43.17971" lon="0.88021">
        <ele>422.3</ele>
        <time>2013-12-22T15:15:04</time>
      </trkpt>
      <trkpt lat="43.17972" lon="0.88019">
        <ele>422.6</ele>
        <time>2013-12-22T15:15:05</time>
      </trkpt>
      <trkpt lat="43.17972" lon="0.88018">
        <ele>423.1</ele>
        <time>2013-12-22T15:15:06</time>
      </trkpt>
      <trkpt lat="43.17973" lon="0.88017">
        <ele>423.2</ele>
        <time>2013-12-22T15:15:07</time>
      </trkpt>
      <trkpt lat="43.17973" lon="0.88015">
        <ele>423</ele>
        <time>2013-12-22T15:15:08</time>
      </trkpt>
      <trkpt lat="43.17973" lon="0.88014">
        <ele>423.2</ele>
        <time>2013-12-22T15:15:09</time>
      </trkpt>
      <trkpt lat="43.17974" lon="0.88013">
        <ele>423.9</ele>
        <time>2013-12-22T15:15:10</time>
      </trkpt>
      <trkpt lat="43.17974" lon="0.88011">
        <ele>423.6</ele>
        <time>2013-12-22T15:15:11</time>
      </trkpt>
      <trkpt lat="43.17975" lon="0.8801">
        <ele>423.3</ele>
        <time>2013-12-22T15:15:12</time>
      </trkpt>
      <trkpt lat="43.17975" lon="0.88009">
        <ele>423.5</ele>
        <time>2013-12-22T15:15:13</time>
      </trkpt>
      <trkpt lat="43.17976" lon="0.88007">
        <ele>423.9</ele>
        <time>2013-12-22T15:15:14</time>
      </trkpt>
      <trkpt lat="43.17976" lon="0.88006">
        <ele>423.9</ele>
        <time>2013-12-22T15:15:15</time>
      </trkpt>
      <trkpt lat="43.17976" lon="0.88005">
        <ele>424</ele>
        <time>2013-12-22T15:15:16</time>
      </trkpt>
      <trkpt lat="43.17976" lon="0.88003">
        <ele>424.2</ele>
        <time>2013-12-22T15:15:17</time>
      </trkpt>
      <trkpt lat="43.17977" lon="0.88002">
        <ele>423.6</ele>
        <time>2013-12-22T15:15:18</time>
      </trkpt>
      <trkpt lat="43.17977" lon="0.88001">
        <ele>423.9</ele>
        <time>2013-12-22T15:15:19</time>
      </trkpt>
      <trkpt lat="43.17977" lon="0.87999">
        <ele>424</ele>
        <time>2013-12-22T15:15:20</time>
      </trkpt>
      <trkpt lat="43.17979" lon="0.87996">
        <ele>423.6</ele>
        <time>2013-12-22T15:15:34</time>
      </trkpt>
      <trkpt lat="43.17979" lon="0.87994">
        <ele>423.7</ele>
        <time>2013-12-22T15:15:35</time>
      </trkpt>
      <trkpt lat="43.17979" lon="0.87993">
        <ele>423.7</ele>
        <time>2013-12-22T15:15:36</time>
      </trkpt>
      <trkpt lat="43.17979" lon="0.87992">
        <ele>423.8</ele>
        <time>2013-12-22T15:15:37</time>
      </trkpt>
      <trkpt lat="43.17979" lon="0.8799">
        <ele>424.5</ele>
        <time>2013-12-22T15:15:38</time>
      </trkpt>
      <trkpt lat="43.1798" lon="0.87989">
        <ele>424.2</ele>
        <time>2013-12-22T15:15:39</time>
      </trkpt>
      <trkpt lat="43.1798" lon="0.87989">
        <ele>424.2</ele>
        <time>2013-12-22T15:15:40</time>
      </trkpt>
      <trkpt lat="43.17981" lon="0.87988">
        <ele>423.4</ele>
        <time>2013-12-22T15:15:47</time>
      </trkpt>
      <trkpt lat="43.17981" lon="0.87987">
        <ele>423.8</ele>
        <time>2013-12-22T15:15:48</time>
      </trkpt>
      <trkpt lat="43.17981" lon="0.87985">
        <ele>424</ele>
        <time>2013-12-22T15:15:49</time>
      </trkpt>
      <trkpt lat="43.17982" lon="0.87984">
        <ele>424.3</ele>
        <time>2013-12-22T15:15:50</time>
      </trkpt>
      <trkpt lat="43.17982" lon="0.87982">
        <ele>424.9</ele>
        <time>2013-12-22T15:16:13</time>
      </trkpt>
      <trkpt lat="43.17983" lon="0.87981">
        <ele>425.1</ele>
        <time>2013-12-22T15:16:14</time>
      </trkpt>
      <trkpt lat="43.17983" lon="0.8798">
        <ele>425.1</ele>
        <time>2013-12-22T15:16:15</time>
      </trkpt>
      <trkpt lat="43.17983" lon="0.87978">
        <ele>425.3</ele>
        <time>2013-12-22T15:16:16</time>
      </trkpt>
      <trkpt lat="43.17983" lon="0.87977">
        <ele>425</ele>
        <time>2013-12-22T15:16:17</time>
      </trkpt>
      <trkpt lat="43.17984" lon="0.87976">
        <ele>425.1</ele>
        <time>2013-12-22T15:16:18</time>
      </trkpt>
      <trkpt lat="43.17984" lon="0.87975">
        <ele>425</ele>
        <time>2013-12-22T15:16:19</time>
      </trkpt>
      <trkpt lat="43.17984" lon="0.87974">
        <ele>425.5</ele>
        <time>2013-12-22T15:16:20</time>
      </trkpt>
      <trkpt lat="43.17984" lon="0.87972">
        <ele>425.4</ele>
        <time>2013-12-22T15:16:21</time>
      </trkpt>
      <trkpt lat="43.17985" lon="0.87971">
        <ele>425.4</ele>
        <time>2013-12-22T15:16:22</time>
      </trkpt>
      <trkpt lat="43.17985" lon="0.8797">
        <ele>425.5</ele>
        <time>2013-12-22T15:16:23</time>
      </trkpt>
      <trkpt lat="43.17986" lon="0.87968">
        <ele>425.4</ele>
        <time>2013-12-22T15:16:24</time>
      </trkpt>
      <trkpt lat="43.17986" lon="0.87967">
        <ele>425.9</ele>
        <time>2013-12-22T15:16:25</time>
      </trkpt>
      <trkpt lat="43.17986" lon="0.87966">
        <ele>425.9</ele>
        <time>2013-12-22T15:16:26</time>
      </trkpt>
      <trkpt lat="43.17986" lon="0.87964">
        <ele>425.9</ele>
        <time>2013-12-22T15:16:27</time>
      </trkpt>
      <trkpt lat="43.17986" lon="0.87963">
        <ele>426.1</ele>
        <time>2013-12-22T15:16:28</time>
      </trkpt>
      <trkpt lat="43.17987" lon="0.87962">
        <ele>426.1</ele>
        <time>2013-12-22T15:16:29</time>
      </trkpt>
      <trkpt lat="43.17987" lon="0.8796">
        <ele>426</ele>
        <time>2013-12-22T15:16:30</time>
      </trkpt>
      <trkpt lat="43.17987" lon="0.87959">
        <ele>425.9</ele>
        <time>2013-12-22T15:16:31</time>
      </trkpt>
      <trkpt lat="43.17987" lon="0.87958">
        <ele>426.3</ele>
        <time>2013-12-22T15:16:32</time>
      </trkpt>
      <trkpt lat="43.17987" lon="0.87956">
        <ele>426.4</ele>
        <time>2013-12-22T15:16:33</time>
      </trkpt>
      <trkpt lat="43.17988" lon="0.87955">
        <ele>426.1</ele>
        <time>2013-12-22T15:16:34</time>
      </trkpt>
      <trkpt lat="43.17989" lon="0.87955">
        <ele>425.2</ele>
        <time>2013-12-22T15:16:42</time>
      </trkpt>
      <trkpt lat="43.17989" lon="0.87955">
        <ele>425.3</ele>
        <time>2013-12-22T15:16:43</time>
      </trkpt>
      <trkpt lat="43.17989" lon="0.87954">
        <ele>425.8</ele>
        <time>2013-12-22T15:16:44</time>
      </trkpt>
      <trkpt lat="43.1799" lon="0.87952">
        <ele>425.3</ele>
        <time>2013-12-22T15:16:45</time>
      </trkpt>
      <trkpt lat="43.1799" lon="0.87951">
        <ele>425.3</ele>
        <time>2013-12-22T15:16:46</time>
      </trkpt>
      <trkpt lat="43.17991" lon="0.87949">
        <ele>425.7</ele>
        <time>2013-12-22T15:16:47</time>
      </trkpt>
      <trkpt lat="43.17991" lon="0.87948">
        <ele>425.5</ele>
        <time>2013-12-22T15:16:48</time>
      </trkpt>
      <trkpt lat="43.17992" lon="0.87947">
        <ele>425.5</ele>
        <time>2013-12-22T15:16:49</time>
      </trkpt>
      <trkpt lat="43.17992" lon="0.87946">
        <ele>425.3</ele>
        <time>2013-12-22T15:16:50</time>
      </trkpt>
      <trkpt lat="43.17992" lon="0.87944">
        <ele>425.3</ele>
        <time>2013-12-22T15:16:51</time>
      </trkpt>
      <trkpt lat="43.17992" lon="0.87943">
        <ele>425.1</ele>
        <time>2013-12-22T15:16:52</time>
      </trkpt>
      <trkpt lat="43.17993" lon="0.87942">
        <ele>425.1</ele>
        <time>2013-12-22T15:16:53</time>
      </trkpt>
      <trkpt lat="43.17994" lon="0.87941">
        <ele>425.1</ele>
        <time>2013-12-22T15:16:54</time>
      </trkpt>
      <trkpt lat="43.17994" lon="0.8794">
        <ele>425.3</ele>
        <time>2013-12-22T15:16:55</time>
      </trkpt>
      <trkpt lat="43.17995" lon="0.87939">
        <ele>425.3</ele>
        <time>2013-12-22T15:16:56</time>
      </trkpt>
      <trkpt lat="43.17995" lon="0.87937">
        <ele>425.3</ele>
        <time>2013-12-22T15:16:57</time>
      </trkpt>
      <trkpt lat="43.17996" lon="0.87936">
        <ele>425.1</ele>
        <time>2013-12-22T15:16:58</time>
      </trkpt>
      <trkpt lat="43.17996" lon="0.87935">
        <ele>425.2</ele>
        <time>2013-12-22T15:16:59</time>
      </trkpt>
      <trkpt lat="43.17997" lon="0.87934">
        <ele>425.3</ele>
        <time>2013-12-22T15:17:00</time>
      </trkpt>
      <trkpt lat="43.17997" lon="0.87932">
        <ele>425.5</ele>
        <time>2013-12-22T15:17:01</time>
      </trkpt>
      <trkpt lat="43.17997" lon="0.87931">
        <ele>425.5</ele>
        <time>2013-12-22T15:17:02</time>
      </trkpt>
      <trkpt lat="43.17998" lon="0.8793">
        <ele>425.5</ele>
        <time>2013-12-22T15:17:03</time>
      </trkpt>
      <trkpt lat="43.17999" lon="0.87929">
        <ele>425.8</ele>
        <time>2013-12-22T15:17:04</time>
      </trkpt>
      <trkpt lat="43.17999" lon="0.87927">
        <ele>426.3</ele>
        <time>2013-12-22T15:17:05</time>
      </trkpt>
      <trkpt lat="43.17999" lon="0.87926">
        <ele>426.3</ele>
        <time>2013-12-22T15:17:06</time>
      </trkpt>
      <trkpt lat="43.17999" lon="0.87925">
        <ele>426.7</ele>
        <time>2013-12-22T15:17:07</time>
      </trkpt>
      <trkpt lat="43.17999" lon="0.87924">
        <ele>427</ele>
        <time>2013-12-22T15:17:08</time>
      </trkpt>
      <trkpt lat="43.18" lon="0.87922">
        <ele>427</ele>
        <time>2013-12-22T15:17:09</time>
      </trkpt>
      <trkpt lat="43.18" lon="0.87921">
        <ele>427</ele>
        <time>2013-12-22T15:17:10</time>
      </trkpt>
      <trkpt lat="43.18" lon="0.8792">
        <ele>427.4</ele>
        <time>2013-12-22T15:17:11</time>
      </trkpt>
      <trkpt lat="43.18" lon="0.87919">
        <ele>427.4</ele>
        <time>2013-12-22T15:17:12</time>
      </trkpt>
      <trkpt lat="43.18001" lon="0.87918">
        <ele>427.2</ele>
        <time>2013-12-22T15:17:13</time>
      </trkpt>
      <trkpt lat="43.18001" lon="0.87917">
        <ele>427</ele>
        <time>2013-12-22T15:17:14</time>
      </trkpt>
      <trkpt lat="43.18002" lon="0.87916">
        <ele>427</ele>
        <time>2013-12-22T15:17:15</time>
      </trkpt>
      <trkpt lat="43.18002" lon="0.87917">
        <ele>426.3</ele>
        <time>2013-12-22T15:18:25</time>
      </trkpt>
      <trkpt lat="43.18003" lon="0.87916">
        <ele>426.4</ele>
        <time>2013-12-22T15:18:26</time>
      </trkpt>
      <trkpt lat="43.18003" lon="0.87915">
        <ele>426.5</ele>
        <time>2013-12-22T15:18:27</time>
      </trkpt>
      <trkpt lat="43.18003" lon="0.87914">
        <ele>426.1</ele>
        <time>2013-12-22T15:18:28</time>
      </trkpt>
      <trkpt lat="43.18004" lon="0.87913">
        <ele>425.9</ele>
        <time>2013-12-22T15:18:29</time>
      </trkpt>
      <trkpt lat="43.18004" lon="0.87912">
        <ele>425.8</ele>
        <time>2013-12-22T15:18:30</time>
      </trkpt>
      <trkpt lat="43.18005" lon="0.8791">
        <ele>425.7</ele>
        <time>2013-12-22T15:18:31</time>
      </trkpt>
      <trkpt lat="43.18005" lon="0.87909">
        <ele>425.5</ele>
        <time>2013-12-22T15:18:32</time>
      </trkpt>
      <trkpt lat="43.18005" lon="0.87908">
        <ele>425.7</ele>
        <time>2013-12-22T15:18:33</time>
      </trkpt>
      <trkpt lat="43.18006" lon="0.87907">
        <ele>425.9</ele>
        <time>2013-12-22T15:18:34</time>
      </trkpt>
      <trkpt lat="43.18006" lon="0.87905">
        <ele>425.4</ele>
        <time>2013-12-22T15:18:35</time>
      </trkpt>
      <trkpt lat="43.18007" lon="0.87904">
        <ele>425.4</ele>
        <time>2013-12-22T15:18:36</time>
      </trkpt>
      <trkpt lat="43.18007" lon="0.87903">
        <ele>425.2</ele>
        <time>2013-12-22T15:18:37</time>
      </trkpt>
      <trkpt lat="43.18008" lon="0.87902">
        <ele>425</ele>
        <time>2013-12-22T15:18:38</time>
      </trkpt>
      <trkpt lat="43.18008" lon="0.87901">
        <ele>425</ele>
        <time>2013-12-22T15:18:39</time>
      </trkpt>
      <trkpt lat="43.18009" lon="0.879">
        <ele>425.1</ele>
        <time>2013-12-22T15:18:40</time>
      </trkpt>
      <trkpt lat="43.1801" lon="0.87899">
        <ele>425.2</ele>
        <time>2013-12-22T15:18:41</time>
      </trkpt>
      <trkpt lat="43.1801" lon="0.87898">
        <ele>425.2</ele>
        <time>2013-12-22T15:18:42</time>
      </trkpt>
      <trkpt lat="43.1801" lon="0.87897">
        <ele>425</ele>
        <time>2013-12-22T15:18:43</time>
      </trkpt>
      <trkpt lat="43.18011" lon="0.87896">
        <ele>424.7</ele>
        <time>2013-12-22T15:18:44</time>
      </trkpt>
      <trkpt lat="43.18011" lon="0.87896">
        <ele>424.8</ele>
        <time>2013-12-22T15:18:49</time>
      </trkpt>
      <trkpt lat="43.18012" lon="0.87895">
        <ele>424.4</ele>
        <time>2013-12-22T15:18:50</time>
      </trkpt>
      <trkpt lat="43.18012" lon="0.87895">
        <ele>424.3</ele>
        <time>2013-12-22T15:18:51</time>
      </trkpt>
      <trkpt lat="43.18012" lon="0.87894">
        <ele>424.6</ele>
        <time>2013-12-22T15:18:52</time>
      </trkpt>
      <trkpt lat="43.18013" lon="0.87893">
        <ele>425</ele>
        <time>2013-12-22T15:18:53</time>
      </trkpt>
      <trkpt lat="43.18013" lon="0.87892">
        <ele>425.2</ele>
        <time>2013-12-22T15:18:54</time>
      </trkpt>
      <trkpt lat="43.18014" lon="0.8789">
        <ele>424.9</ele>
        <time>2013-12-22T15:18:55</time>
      </trkpt>
      <trkpt lat="43.18014" lon="0.8789">
        <ele>424.8</ele>
        <time>2013-12-22T15:18:56</time>
      </trkpt>
      <trkpt lat="43.18015" lon="0.87888">
        <ele>425.5</ele>
        <time>2013-12-22T15:18:57</time>
      </trkpt>
      <trkpt lat="43.18015" lon="0.87887">
        <ele>425.6</ele>
        <time>2013-12-22T15:18:58</time>
      </trkpt>
      <trkpt lat="43.18015" lon="0.87886">
        <ele>425.7</ele>
        <time>2013-12-22T15:18:59</time>
      </trkpt>
      <trkpt lat="43.18016" lon="0.87884">
        <ele>425.9</ele>
        <time>2013-12-22T15:19:00</time>
      </trkpt>
      <trkpt lat="43.18016" lon="0.87883">
        <ele>426.1</ele>
        <time>2013-12-22T15:19:01</time>
      </trkpt>
      <trkpt lat="43.18017" lon="0.87882">
        <ele>426.4</ele>
        <time>2013-12-22T15:19:02</time>
      </trkpt>
      <trkpt lat="43.18018" lon="0.87881">
        <ele>426.6</ele>
        <time>2013-12-22T15:19:03</time>
      </trkpt>
      <trkpt lat="43.18018" lon="0.8788">
        <ele>426.9</ele>
        <time>2013-12-22T15:19:04</time>
      </trkpt>
      <trkpt lat="43.18018" lon="0.87879">
        <ele>427.1</ele>
        <time>2013-12-22T15:19:05</time>
      </trkpt>
      <trkpt lat="43.18018" lon="0.87877">
        <ele>427.3</ele>
        <time>2013-12-22T15:19:06</time>
      </trkpt>
      <trkpt lat="43.18019" lon="0.87876">
        <ele>427.2</ele>
        <time>2013-12-22T15:19:07</time>
      </trkpt>
      <trkpt lat="43.1802" lon="0.87875">
        <ele>427</ele>
        <time>2013-12-22T15:19:08</time>
      </trkpt>
      <trkpt lat="43.1802" lon="0.87874">
        <ele>426.8</ele>
        <time>2013-12-22T15:19:09</time>
      </trkpt>
      <trkpt lat="43.1802" lon="0.87873">
        <ele>426.9</ele>
        <time>2013-12-22T15:19:10</time>
      </trkpt>
      <trkpt lat="43.18021" lon="0.87872">
        <ele>427</ele>
        <time>2013-12-22T15:19:11</time>
      </trkpt>
      <trkpt lat="43.18021" lon="0.87871">
        <ele>426.8</ele>
        <time>2013-12-22T15:19:12</time>
      </trkpt>
      <trkpt lat="43.18022" lon="0.87869">
        <ele>426.9</ele>
        <time>2013-12-22T15:19:13</time>
      </trkpt>
      <trkpt lat="43.18022" lon="0.87868">
        <ele>426.7</ele>
        <time>2013-12-22T15:19:14</time>
      </trkpt>
      <trkpt lat="43.18023" lon="0.87867">
        <ele>426.7</ele>
        <time>2013-12-22T15:19:15</time>
      </trkpt>
      <trkpt lat="43.18023" lon="0.87866">
        <ele>426.8</ele>
        <time>2013-12-22T15:19:16</time>
      </trkpt>
      <trkpt lat="43.18024" lon="0.87865">
        <ele>426.8</ele>
        <time>2013-12-22T15:19:17</time>
      </trkpt>
      <trkpt lat="43.18024" lon="0.87864">
        <ele>427.1</ele>
        <time>2013-12-22T15:19:18</time>
      </trkpt>
      <trkpt lat="43.18025" lon="0.87863">
        <ele>427.1</ele>
        <time>2013-12-22T15:19:19</time>
      </trkpt>
      <trkpt lat="43.18026" lon="0.87864">
        <ele>426.9</ele>
        <time>2013-12-22T15:19:25</time>
      </trkpt>
      <trkpt lat="43.18026" lon="0.87863">
        <ele>426.9</ele>
        <time>2013-12-22T15:19:26</time>
      </trkpt>
      <trkpt lat="43.18027" lon="0.87862">
        <ele>427.3</ele>
        <time>2013-12-22T15:19:27</time>
      </trkpt>
      <trkpt lat="43.18027" lon="0.87862">
        <ele>427.5</ele>
        <time>2013-12-22T15:19:28</time>
      </trkpt>
      <trkpt lat="43.18028" lon="0.87861">
        <ele>427.3</ele>
        <time>2013-12-22T15:19:29</time>
      </trkpt>
      <trkpt lat="43.18028" lon="0.8786">
        <ele>427.3</ele>
        <time>2013-12-22T15:19:30</time>
      </trkpt>
      <trkpt lat="43.18029" lon="0.87858">
        <ele>427</ele>
        <time>2013-12-22T15:19:31</time>
      </trkpt>
      <trkpt lat="43.18029" lon="0.87857">
        <ele>426.6</ele>
        <time>2013-12-22T15:19:32</time>
      </trkpt>
      <trkpt lat="43.1803" lon="0.87856">
        <ele>426.5</ele>
        <time>2013-12-22T15:19:33</time>
      </trkpt>
      <trkpt lat="43.1803" lon="0.87856">
        <ele>426.5</ele>
        <time>2013-12-22T15:19:34</time>
      </trkpt>
      <trkpt lat="43.18031" lon="0.87855">
        <ele>426</ele>
        <time>2013-12-22T15:19:39</time>
      </trkpt>
      <trkpt lat="43.18032" lon="0.87854">
        <ele>425.9</ele>
        <time>2013-12-22T15:19:40</time>
      </trkpt>
      <trkpt lat="43.18033" lon="0.87852">
        <ele>426</ele>
        <time>2013-12-22T15:19:47</time>
      </trkpt>
      <trkpt lat="43.18034" lon="0.87849">
        <ele>425.9</ele>
        <time>2013-12-22T15:19:54</time>
      </trkpt>
      <trkpt lat="43.18034" lon="0.87848">
        <ele>425.8</ele>
        <time>2013-12-22T15:19:55</time>
      </trkpt>
      <trkpt lat="43.18035" lon="0.87847">
        <ele>425.7</ele>
        <time>2013-12-22T15:19:56</time>
      </trkpt>
      <trkpt lat="43.18035" lon="0.87846">
        <ele>425.5</ele>
        <time>2013-12-22T15:19:57</time>
      </trkpt>
      <trkpt lat="43.18035" lon="0.87844">
        <ele>425.5</ele>
        <time>2013-12-22T15:19:58</time>
      </trkpt>
      <trkpt lat="43.18036" lon="0.87843">
        <ele>425.6</ele>
        <time>2013-12-22T15:19:59</time>
      </trkpt>
      <trkpt lat="43.18036" lon="0.87842">
        <ele>425.5</ele>
        <time>2013-12-22T15:20:00</time>
      </trkpt>
      <trkpt lat="43.18037" lon="0.87842">
        <ele>425.6</ele>
        <time>2013-12-22T15:20:01</time>
      </trkpt>
      <trkpt lat="43.18037" lon="0.8784">
        <ele>425.6</ele>
        <time>2013-12-22T15:20:06</time>
      </trkpt>
      <trkpt lat="43.18037" lon="0.8784">
        <ele>425.4</ele>
        <time>2013-12-22T15:20:07</time>
      </trkpt>
      <trkpt lat="43.18037" lon="0.87839">
        <ele>425.4</ele>
        <time>2013-12-22T15:20:08</time>
      </trkpt>
      <trkpt lat="43.18038" lon="0.87838">
        <ele>425.9</ele>
        <time>2013-12-22T15:20:09</time>
      </trkpt>
      <trkpt lat="43.18038" lon="0.87836">
        <ele>426.2</ele>
        <time>2013-12-22T15:20:10</time>
      </trkpt>
      <trkpt lat="43.18039" lon="0.87835">
        <ele>426.4</ele>
        <time>2013-12-22T15:20:15</time>
      </trkpt>
      <trkpt lat="43.1804" lon="0.87831">
        <ele>426.9</ele>
        <time>2013-12-22T15:20:27</time>
      </trkpt>
      <trkpt lat="43.1804" lon="0.87829">
        <ele>427.3</ele>
        <time>2013-12-22T15:20:28</time>
      </trkpt>
      <trkpt lat="43.18041" lon="0.87828">
        <ele>426.9</ele>
        <time>2013-12-22T15:20:29</time>
      </trkpt>
      <trkpt lat="43.18041" lon="0.87826">
        <ele>427.1</ele>
        <time>2013-12-22T15:20:30</time>
      </trkpt>
      <trkpt lat="43.18042" lon="0.87826">
        <ele>427.1</ele>
        <time>2013-12-22T15:20:31</time>
      </trkpt>
      <trkpt lat="43.18042" lon="0.87824">
        <ele>427.2</ele>
        <time>2013-12-22T15:20:32</time>
      </trkpt>
      <trkpt lat="43.18043" lon="0.87824">
        <ele>427.2</ele>
        <time>2013-12-22T15:20:33</time>
      </trkpt>
      <trkpt lat="43.18044" lon="0.87823">
        <ele>427.3</ele>
        <time>2013-12-22T15:20:34</time>
      </trkpt>
      <trkpt lat="43.18044" lon="0.87822">
        <ele>426.6</ele>
        <time>2013-12-22T15:20:35</time>
      </trkpt>
      <trkpt lat="43.18045" lon="0.87821">
        <ele>427.5</ele>
        <time>2013-12-22T15:20:36</time>
      </trkpt>
      <trkpt lat="43.18045" lon="0.87819">
        <ele>427.1</ele>
        <time>2013-12-22T15:20:37</time>
      </trkpt>
      <trkpt lat="43.18045" lon="0.87818">
        <ele>426.7</ele>
        <time>2013-12-22T15:20:38</time>
      </trkpt>
      <trkpt lat="43.18045" lon="0.87817">
        <ele>426.5</ele>
        <time>2013-12-22T15:20:39</time>
      </trkpt>
      <trkpt lat="43.18046" lon="0.87816">
        <ele>426.1</ele>
        <time>2013-12-22T15:20:40</time>
      </trkpt>
      <trkpt lat="43.18047" lon="0.87814">
        <ele>426.2</ele>
        <time>2013-12-22T15:20:41</time>
      </trkpt>
      <trkpt lat="43.18047" lon="0.87813">
        <ele>426.1</ele>
        <time>2013-12-22T15:20:42</time>
      </trkpt>
      <trkpt lat="43.18048" lon="0.87812">
        <ele>425.6</ele>
        <time>2013-12-22T15:20:43</time>
      </trkpt>
      <trkpt lat="43.18049" lon="0.87811">
        <ele>425.5</ele>
        <time>2013-12-22T15:20:44</time>
      </trkpt>
      <trkpt lat="43.18049" lon="0.8781">
        <ele>424.9</ele>
        <time>2013-12-22T15:20:45</time>
      </trkpt>
      <trkpt lat="43.1805" lon="0.87808">
        <ele>424.8</ele>
        <time>2013-12-22T15:20:46</time>
      </trkpt>
      <trkpt lat="43.18051" lon="0.87807">
        <ele>424.5</ele>
        <time>2013-12-22T15:20:47</time>
      </trkpt>
      <trkpt lat="43.18052" lon="0.87806">
        <ele>424.2</ele>
        <time>2013-12-22T15:20:48</time>
      </trkpt>
      <trkpt lat="43.18052" lon="0.87805">
        <ele>423.8</ele>
        <time>2013-12-22T15:20:49</time>
      </trkpt>
      <trkpt lat="43.18053" lon="0.87804">
        <ele>423.8</ele>
        <time>2013-12-22T15:20:50</time>
      </trkpt>
      <trkpt lat="43.18053" lon="0.87803">
        <ele>423.7</ele>
        <time>2013-12-22T15:20:51</time>
      </trkpt>
      <trkpt lat="43.18054" lon="0.87802">
        <ele>423.8</ele>
        <time>2013-12-22T15:20:52</time>
      </trkpt>
      <trkpt lat="43.18055" lon="0.87801">
        <ele>424.5</ele>
        <time>2013-12-22T15:20:53</time>
      </trkpt>
      <trkpt lat="43.18055" lon="0.878">
        <ele>424.2</ele>
        <time>2013-12-22T15:20:54</time>
      </trkpt>
      <trkpt lat="43.18055" lon="0.878">
        <ele>423.8</ele>
        <time>2013-12-22T15:21:35</time>
      </trkpt>
      <trkpt lat="43.18055" lon="0.87799">
        <ele>424</ele>
        <time>2013-12-22T15:21:36</time>
      </trkpt>
      <trkpt lat="43.18055" lon="0.87798">
        <ele>423.2</ele>
        <time>2013-12-22T15:21:37</time>
      </trkpt>
      <trkpt lat="43.18056" lon="0.87796">
        <ele>422.7</ele>
        <time>2013-12-22T15:21:38</time>
      </trkpt>
      <trkpt lat="43.18056" lon="0.87795">
        <ele>422.9</ele>
        <time>2013-12-22T15:21:39</time>
      </trkpt>
      <trkpt lat="43.18057" lon="0.87793">
        <ele>423.2</ele>
        <time>2013-12-22T15:21:40</time>
      </trkpt>
      <trkpt lat="43.18057" lon="0.87792">
        <ele>423</ele>
        <time>2013-12-22T15:21:41</time>
      </trkpt>
      <trkpt lat="43.18058" lon="0.87791">
        <ele>422.8</ele>
        <time>2013-12-22T15:21:42</time>
      </trkpt>
      <trkpt lat="43.18058" lon="0.87791">
        <ele>423</ele>
        <time>2013-12-22T15:21:46</time>
      </trkpt>
      <trkpt lat="43.18058" lon="0.8779">
        <ele>422.8</ele>
        <time>2013-12-22T15:21:47</time>
      </trkpt>
      <trkpt lat="43.18059" lon="0.87789">
        <ele>422.6</ele>
        <time>2013-12-22T15:21:48</time>
      </trkpt>
      <trkpt lat="43.18059" lon="0.87788">
        <ele>422.6</ele>
        <time>2013-12-22T15:21:49</time>
      </trkpt>
      <trkpt lat="43.1806" lon="0.87787">
        <ele>422.5</ele>
        <time>2013-12-22T15:21:50</time>
      </trkpt>
      <trkpt lat="43.1806" lon="0.87785">
        <ele>422.6</ele>
        <time>2013-12-22T15:21:51</time>
      </trkpt>
      <trkpt lat="43.18061" lon="0.87784">
        <ele>422.6</ele>
        <time>2013-12-22T15:21:52</time>
      </trkpt>
      <trkpt lat="43.18061" lon="0.87782">
        <ele>422.5</ele>
        <time>2013-12-22T15:21:53</time>
      </trkpt>
      <trkpt lat="43.18062" lon="0.87781">
        <ele>422.5</ele>
        <time>2013-12-22T15:21:54</time>
      </trkpt>
      <trkpt lat="43.18062" lon="0.8778">
        <ele>422.5</ele>
        <time>2013-12-22T15:21:55</time>
      </trkpt>
      <trkpt lat="43.18063" lon="0.87778">
        <ele>422.5</ele>
        <time>2013-12-22T15:21:56</time>
      </trkpt>
      <trkpt lat="43.18063" lon="0.87777">
        <ele>422.3</ele>
        <time>2013-12-22T15:21:57</time>
      </trkpt>
      <trkpt lat="43.18064" lon="0.87776">
        <ele>422.2</ele>
        <time>2013-12-22T15:21:58</time>
      </trkpt>
      <trkpt lat="43.18064" lon="0.87775">
        <ele>421.9</ele>
        <time>2013-12-22T15:21:59</time>
      </trkpt>
      <trkpt lat="43.18065" lon="0.87774">
        <ele>422.1</ele>
        <time>2013-12-22T15:22:00</time>
      </trkpt>
      <trkpt lat="43.18065" lon="0.87773">
        <ele>422</ele>
        <time>2013-12-22T15:22:01</time>
      </trkpt>
      <trkpt lat="43.18066" lon="0.87772">
        <ele>421.8</ele>
        <time>2013-12-22T15:22:02</time>
      </trkpt>
      <trkpt lat="43.18066" lon="0.8777">
        <ele>421.5</ele>
        <time>2013-12-22T15:22:03</time>
      </trkpt>
      <trkpt lat="43.18067" lon="0.87769">
        <ele>422.2</ele>
        <time>2013-12-22T15:22:04</time>
      </trkpt>
      <trkpt lat="43.18067" lon="0.87768">
        <ele>421.2</ele>
        <time>2013-12-22T15:22:05</time>
      </trkpt>
      <trkpt lat="43.18068" lon="0.87767">
        <ele>420.7</ele>
        <time>2013-12-22T15:22:06</time>
      </trkpt>
      <trkpt lat="43.18068" lon="0.87765">
        <ele>420.6</ele>
        <time>2013-12-22T15:22:07</time>
      </trkpt>
      <trkpt lat="43.18068" lon="0.87764">
        <ele>420.5</ele>
        <time>2013-12-22T15:22:08</time>
      </trkpt>
      <trkpt lat="43.18069" lon="0.87763">
        <ele>420.3</ele>
        <time>2013-12-22T15:22:09</time>
      </trkpt>
      <trkpt lat="43.18069" lon="0.87761">
        <ele>420.2</ele>
        <time>2013-12-22T15:22:10</time>
      </trkpt>
      <trkpt lat="43.1807" lon="0.8776">
        <ele>420.2</ele>
        <time>2013-12-22T15:22:11</time>
      </trkpt>
      <trkpt lat="43.1807" lon="0.87759">
        <ele>419.8</ele>
        <time>2013-12-22T15:22:12</time>
      </trkpt>
      <trkpt lat="43.1807" lon="0.87757">
        <ele>419.2</ele>
        <time>2013-12-22T15:22:13</time>
      </trkpt>
      <trkpt lat="43.18071" lon="0.87756">
        <ele>419.5</ele>
        <time>2013-12-22T15:22:14</time>
      </trkpt>
      <trkpt lat="43.18071" lon="0.87755">
        <ele>419.3</ele>
        <time>2013-12-22T15:22:15</time>
      </trkpt>
      <trkpt lat="43.18072" lon="0.87754">
        <ele>419.5</ele>
        <time>2013-12-22T15:22:16</time>
      </trkpt>
      <trkpt lat="43.18073" lon="0.87752">
        <ele>419.3</ele>
        <time>2013-12-22T15:22:17</time>
      </trkpt>
      <trkpt lat="43.18073" lon="0.87751">
        <ele>419</ele>
        <time>2013-12-22T15:22:18</time>
      </trkpt>
      <trkpt lat="43.18074" lon="0.8775">
        <ele>419.2</ele>
        <time>2013-12-22T15:22:19</time>
      </trkpt>
      <trkpt lat="43.18074" lon="0.87749">
        <ele>419.1</ele>
        <time>2013-12-22T15:22:20</time>
      </trkpt>
      <trkpt lat="43.18075" lon="0.87748">
        <ele>419.1</ele>
        <time>2013-12-22T15:22:21</time>
      </trkpt>
      <trkpt lat="43.18075" lon="0.87746">
        <ele>418.8</ele>
        <time>2013-12-22T15:22:22</time>
      </trkpt>
      <trkpt lat="43.18076" lon="0.87744">
        <ele>418.5</ele>
        <time>2013-12-22T15:22:23</time>
      </trkpt>
      <trkpt lat="43.18076" lon="0.87743">
        <ele>418.3</ele>
        <time>2013-12-22T15:22:24</time>
      </trkpt>
      <trkpt lat="43.18077" lon="0.87742">
        <ele>417.8</ele>
        <time>2013-12-22T15:22:25</time>
      </trkpt>
      <trkpt lat="43.18077" lon="0.8774">
        <ele>417.7</ele>
        <time>2013-12-22T15:22:26</time>
      </trkpt>
      <trkpt lat="43.18078" lon="0.87739">
        <ele>417.5</ele>
        <time>2013-12-22T15:22:27</time>
      </trkpt>
      <trkpt lat="43.18078" lon="0.87738">
        <ele>417.3</ele>
        <time>2013-12-22T15:22:28</time>
      </trkpt>
      <trkpt lat="43.18079" lon="0.87737">
        <ele>417.1</ele>
        <time>2013-12-22T15:22:29</time>
      </trkpt>
      <trkpt lat="43.18079" lon="0.87735">
        <ele>416.6</ele>
        <time>2013-12-22T15:22:33</time>
      </trkpt>
      <trkpt lat="43.1808" lon="0.87734">
        <ele>416.7</ele>
        <time>2013-12-22T15:22:34</time>
      </trkpt>
      <trkpt lat="43.1808" lon="0.87733">
        <ele>416.6</ele>
        <time>2013-12-22T15:22:35</time>
      </trkpt>
      <trkpt lat="43.18081" lon="0.87732">
        <ele>416.4</ele>
        <time>2013-12-22T15:22:36</time>
      </trkpt>
      <trkpt lat="43.18081" lon="0.8773">
        <ele>416.7</ele>
        <time>2013-12-22T15:22:37</time>
      </trkpt>
      <trkpt lat="43.18081" lon="0.87729">
        <ele>416.7</ele>
        <time>2013-12-22T15:22:38</time>
      </trkpt>
      <trkpt lat="43.18082" lon="0.87727">
        <ele>416.3</ele>
        <time>2013-12-22T15:22:39</time>
      </trkpt>
      <trkpt lat="43.18083" lon="0.87726">
        <ele>416.2</ele>
        <time>2013-12-22T15:22:40</time>
      </trkpt>
      <trkpt lat="43.18083" lon="0.87725">
        <ele>416.4</ele>
        <time>2013-12-22T15:22:41</time>
      </trkpt>
      <trkpt lat="43.18084" lon="0.87723">
        <ele>416</ele>
        <time>2013-12-22T15:22:42</time>
      </trkpt>
      <trkpt lat="43.18084" lon="0.87722">
        <ele>415.7</ele>
        <time>2013-12-22T15:22:43</time>
      </trkpt>
      <trkpt lat="43.18085" lon="0.87721">
        <ele>415.6</ele>
        <time>2013-12-22T15:22:44</time>
      </trkpt>
      <trkpt lat="43.18085" lon="0.8772">
        <ele>415.3</ele>
        <time>2013-12-22T15:22:45</time>
      </trkpt>
      <trkpt lat="43.18086" lon="0.87718">
        <ele>415.4</ele>
        <time>2013-12-22T15:22:46</time>
      </trkpt>
      <trkpt lat="43.18086" lon="0.87717">
        <ele>415.3</ele>
        <time>2013-12-22T15:22:47</time>
      </trkpt>
      <trkpt lat="43.18086" lon="0.87715">
        <ele>415.4</ele>
        <time>2013-12-22T15:22:48</time>
      </trkpt>
      <trkpt lat="43.18086" lon="0.87714">
        <ele>415.2</ele>
        <time>2013-12-22T15:22:49</time>
      </trkpt>
      <trkpt lat="43.18087" lon="0.87712">
        <ele>415.1</ele>
        <time>2013-12-22T15:22:50</time>
      </trkpt>
      <trkpt lat="43.18087" lon="0.87711">
        <ele>415.2</ele>
        <time>2013-12-22T15:22:51</time>
      </trkpt>
      <trkpt lat="43.18087" lon="0.8771">
        <ele>415</ele>
        <time>2013-12-22T15:22:52</time>
      </trkpt>
      <trkpt lat="43.18087" lon="0.87709">
        <ele>414.9</ele>
        <time>2013-12-22T15:22:53</time>
      </trkpt>
      <trkpt lat="43.18087" lon="0.87708">
        <ele>414.6</ele>
        <time>2013-12-22T15:22:54</time>
      </trkpt>
      <trkpt lat="43.18087" lon="0.87707">
        <ele>415.4</ele>
        <time>2013-12-22T15:22:55</time>
      </trkpt>
      <trkpt lat="43.18086" lon="0.87705">
        <ele>415.5</ele>
        <time>2013-12-22T15:22:56</time>
      </trkpt>
      <trkpt lat="43.18086" lon="0.87705">
        <ele>415.3</ele>
        <time>2013-12-22T15:22:57</time>
      </trkpt>
      <trkpt lat="43.18083" lon="0.87704">
        <ele>414.9</ele>
        <time>2013-12-22T15:23:02</time>
      </trkpt>
      <trkpt lat="43.18082" lon="0.87705">
        <ele>414.9</ele>
        <time>2013-12-22T15:23:03</time>
      </trkpt>
      <trkpt lat="43.18081" lon="0.87705">
        <ele>414.7</ele>
        <time>2013-12-22T15:23:04</time>
      </trkpt>
      <trkpt lat="43.1808" lon="0.87705">
        <ele>414.5</ele>
        <time>2013-12-22T15:23:05</time>
      </trkpt>
      <trkpt lat="43.18079" lon="0.87704">
        <ele>414</ele>
        <time>2013-12-22T15:23:06</time>
      </trkpt>
      <trkpt lat="43.18078" lon="0.87704">
        <ele>413.8</ele>
        <time>2013-12-22T15:23:07</time>
      </trkpt>
      <trkpt lat="43.18076" lon="0.87704">
        <ele>413.6</ele>
        <time>2013-12-22T15:23:08</time>
      </trkpt>
      <trkpt lat="43.18075" lon="0.87704">
        <ele>413.5</ele>
        <time>2013-12-22T15:23:09</time>
      </trkpt>
      <trkpt lat="43.18074" lon="0.87704">
        <ele>413.8</ele>
        <time>2013-12-22T15:23:10</time>
      </trkpt>
      <trkpt lat="43.18073" lon="0.87704">
        <ele>413</ele>
        <time>2013-12-22T15:23:11</time>
      </trkpt>
      <trkpt lat="43.18072" lon="0.87704">
        <ele>413.4</ele>
        <time>2013-12-22T15:23:12</time>
      </trkpt>
      <trkpt lat="43.18071" lon="0.87704">
        <ele>413.4</ele>
        <time>2013-12-22T15:23:13</time>
      </trkpt>
      <trkpt lat="43.1807" lon="0.87703">
        <ele>413.6</ele>
        <time>2013-12-22T15:23:14</time>
      </trkpt>
      <trkpt lat="43.18069" lon="0.87703">
        <ele>413.3</ele>
        <time>2013-12-22T15:23:15</time>
      </trkpt>
      <trkpt lat="43.18068" lon="0.87703">
        <ele>413.1</ele>
        <time>2013-12-22T15:23:16</time>
      </trkpt>
      <trkpt lat="43.18066" lon="0.87703">
        <ele>412.9</ele>
        <time>2013-12-22T15:23:17</time>
      </trkpt>
      <trkpt lat="43.18066" lon="0.87704">
        <ele>413</ele>
        <time>2013-12-22T15:23:18</time>
      </trkpt>
      <trkpt lat="43.18065" lon="0.87704">
        <ele>411.7</ele>
        <time>2013-12-22T15:23:19</time>
      </trkpt>
      <trkpt lat="43.18064" lon="0.87705">
        <ele>411.3</ele>
        <time>2013-12-22T15:23:20</time>
      </trkpt>
      <trkpt lat="43.18063" lon="0.87705">
        <ele>411.1</ele>
        <time>2013-12-22T15:23:21</time>
      </trkpt>
      <trkpt lat="43.18062" lon="0.87705">
        <ele>410.9</ele>
        <time>2013-12-22T15:23:22</time>
      </trkpt>
      <trkpt lat="43.18061" lon="0.87705">
        <ele>411.1</ele>
        <time>2013-12-22T15:23:23</time>
      </trkpt>
      <trkpt lat="43.1806" lon="0.87705">
        <ele>411.1</ele>
        <time>2013-12-22T15:23:24</time>
      </trkpt>
      <trkpt lat="43.18059" lon="0.87705">
        <ele>411.1</ele>
        <time>2013-12-22T15:23:25</time>
      </trkpt>
      <trkpt lat="43.18058" lon="0.87706">
        <ele>412</ele>
        <time>2013-12-22T15:23:26</time>
      </trkpt>
      <trkpt lat="43.18057" lon="0.87706">
        <ele>411.9</ele>
        <time>2013-12-22T15:23:27</time>
      </trkpt>
      <trkpt lat="43.18055" lon="0.87706">
        <ele>411.6</ele>
        <time>2013-12-22T15:23:28</time>
      </trkpt>
      <trkpt lat="43.18054" lon="0.87705">
        <ele>411.4</ele>
        <time>2013-12-22T15:23:29</time>
      </trkpt>
      <trkpt lat="43.18053" lon="0.87705">
        <ele>411.5</ele>
        <time>2013-12-22T15:23:30</time>
      </trkpt>
      <trkpt lat="43.18052" lon="0.87706">
        <ele>411.8</ele>
        <time>2013-12-22T15:23:31</time>
      </trkpt>
      <trkpt lat="43.18051" lon="0.87706">
        <ele>411.8</ele>
        <time>2013-12-22T15:23:32</time>
      </trkpt>
      <trkpt lat="43.1805" lon="0.87706">
        <ele>411.5</ele>
        <time>2013-12-22T15:23:33</time>
      </trkpt>
      <trkpt lat="43.18049" lon="0.87706">
        <ele>411</ele>
        <time>2013-12-22T15:23:34</time>
      </trkpt>
      <trkpt lat="43.18047" lon="0.87707">
        <ele>410.9</ele>
        <time>2013-12-22T15:23:35</time>
      </trkpt>
      <trkpt lat="43.18046" lon="0.87707">
        <ele>411.5</ele>
        <time>2013-12-22T15:23:36</time>
      </trkpt>
      <trkpt lat="43.18045" lon="0.87707">
        <ele>411.6</ele>
        <time>2013-12-22T15:23:37</time>
      </trkpt>
      <trkpt lat="43.18044" lon="0.87708">
        <ele>411.9</ele>
        <time>2013-12-22T15:23:38</time>
      </trkpt>
      <trkpt lat="43.18043" lon="0.87708">
        <ele>411.9</ele>
        <time>2013-12-22T15:23:39</time>
      </trkpt>
      <trkpt lat="43.18042" lon="0.87708">
        <ele>411.8</ele>
        <time>2013-12-22T15:23:40</time>
      </trkpt>
      <trkpt lat="43.18041" lon="0.87708">
        <ele>411.3</ele>
        <time>2013-12-22T15:23:41</time>
      </trkpt>
      <trkpt lat="43.1804" lon="0.87709">
        <ele>411.8</ele>
        <time>2013-12-22T15:23:42</time>
      </trkpt>
      <trkpt lat="43.18039" lon="0.87709">
        <ele>411.9</ele>
        <time>2013-12-22T15:23:43</time>
      </trkpt>
      <trkpt lat="43.18037" lon="0.87709">
        <ele>412</ele>
        <time>2013-12-22T15:23:44</time>
      </trkpt>
      <trkpt lat="43.18036" lon="0.87709">
        <ele>412.1</ele>
        <time>2013-12-22T15:23:45</time>
      </trkpt>
      <trkpt lat="43.18035" lon="0.8771">
        <ele>412</ele>
        <time>2013-12-22T15:23:46</time>
      </trkpt>
      <trkpt lat="43.18034" lon="0.8771">
        <ele>411.6</ele>
        <time>2013-12-22T15:23:47</time>
      </trkpt>
      <trkpt lat="43.18033" lon="0.8771">
        <ele>411.5</ele>
        <time>2013-12-22T15:23:48</time>
      </trkpt>
      <trkpt lat="43.18032" lon="0.87711">
        <ele>411.3</ele>
        <time>2013-12-22T15:23:49</time>
      </trkpt>
      <trkpt lat="43.18031" lon="0.87711">
        <ele>411.6</ele>
        <time>2013-12-22T15:23:50</time>
      </trkpt>
      <trkpt lat="43.1803" lon="0.87711">
        <ele>411.7</ele>
        <time>2013-12-22T15:23:51</time>
      </trkpt>
      <trkpt lat="43.18029" lon="0.87711">
        <ele>412</ele>
        <time>2013-12-22T15:23:52</time>
      </trkpt>
      <trkpt lat="43.18028" lon="0.87711">
        <ele>411.6</ele>
        <time>2013-12-22T15:23:53</time>
      </trkpt>
      <trkpt lat="43.18027" lon="0.87711">
        <ele>411.7</ele>
        <time>2013-12-22T15:23:54</time>
      </trkpt>
      <trkpt lat="43.18026" lon="0.87712">
        <ele>411.7</ele>
        <time>2013-12-22T15:23:55</time>
      </trkpt>
      <trkpt lat="43.18024" lon="0.87712">
        <ele>411.7</ele>
        <time>2013-12-22T15:23:56</time>
      </trkpt>
      <trkpt lat="43.18023" lon="0.87712">
        <ele>411.9</ele>
        <time>2013-12-22T15:23:57</time>
      </trkpt>
      <trkpt lat="43.18022" lon="0.87712">
        <ele>411.9</ele>
        <time>2013-12-22T15:23:58</time>
      </trkpt>
      <trkpt lat="43.18021" lon="0.87712">
        <ele>412.1</ele>
        <time>2013-12-22T15:23:59</time>
      </trkpt>
      <trkpt lat="43.1802" lon="0.87713">
        <ele>412.2</ele>
        <time>2013-12-22T15:24:00</time>
      </trkpt>
      <trkpt lat="43.18019" lon="0.87713">
        <ele>412</ele>
        <time>2013-12-22T15:24:01</time>
      </trkpt>
      <trkpt lat="43.18018" lon="0.87713">
        <ele>412.2</ele>
        <time>2013-12-22T15:24:02</time>
      </trkpt>
      <trkpt lat="43.18016" lon="0.87713">
        <ele>412.1</ele>
        <time>2013-12-22T15:24:03</time>
      </trkpt>
      <trkpt lat="43.18015" lon="0.87714">
        <ele>412.3</ele>
        <time>2013-12-22T15:24:04</time>
      </trkpt>
      <trkpt lat="43.18014" lon="0.87714">
        <ele>412.3</ele>
        <time>2013-12-22T15:24:05</time>
      </trkpt>
      <trkpt lat="43.18013" lon="0.87714">
        <ele>412.4</ele>
        <time>2013-12-22T15:24:06</time>
      </trkpt>
      <trkpt lat="43.18012" lon="0.87714">
        <ele>412.4</ele>
        <time>2013-12-22T15:24:07</time>
      </trkpt>
      <trkpt lat="43.18011" lon="0.87714">
        <ele>412.4</ele>
        <time>2013-12-22T15:24:08</time>
      </trkpt>
      <trkpt lat="43.1801" lon="0.87714">
        <ele>412.8</ele>
        <time>2013-12-22T15:24:09</time>
      </trkpt>
      <trkpt lat="43.18009" lon="0.87715">
        <ele>412.6</ele>
        <time>2013-12-22T15:24:10</time>
      </trkpt>
      <trkpt lat="43.18008" lon="0.87715">
        <ele>412.6</ele>
        <time>2013-12-22T15:24:11</time>
      </trkpt>
      <trkpt lat="43.18007" lon="0.87715">
        <ele>412.7</ele>
        <time>2013-12-22T15:24:12</time>
      </trkpt>
      <trkpt lat="43.18006" lon="0.87715">
        <ele>412.8</ele>
        <time>2013-12-22T15:24:13</time>
      </trkpt>
      <trkpt lat="43.18005" lon="0.87716">
        <ele>412.7</ele>
        <time>2013-12-22T15:24:14</time>
      </trkpt>
      <trkpt lat="43.18005" lon="0.87716">
        <ele>412.1</ele>
        <time>2013-12-22T15:24:15</time>
      </trkpt>
      <trkpt lat="43.18004" lon="0.87716">
        <ele>412.4</ele>
        <time>2013-12-22T15:24:16</time>
      </trkpt>
      <trkpt lat="43.18003" lon="0.87716">
        <ele>414.2</ele>
        <time>2013-12-22T15:24:17</time>
      </trkpt>
      <trkpt lat="43.18002" lon="0.87716">
        <ele>413.5</ele>
        <time>2013-12-22T15:24:18</time>
      </trkpt>
      <trkpt lat="43.18002" lon="0.87716">
        <ele>413.4</ele>
        <time>2013-12-22T15:24:19</time>
      </trkpt>
      <trkpt lat="43.18001" lon="0.87716">
        <ele>414</ele>
        <time>2013-12-22T15:24:20</time>
      </trkpt>
      <trkpt lat="43.18" lon="0.87716">
        <ele>413.8</ele>
        <time>2013-12-22T15:24:21</time>
      </trkpt>
      <trkpt lat="43.17999" lon="0.87717">
        <ele>413.5</ele>
        <time>2013-12-22T15:24:22</time>
      </trkpt>
      <trkpt lat="43.17998" lon="0.87718">
        <ele>414.3</ele>
        <time>2013-12-22T15:24:47</time>
      </trkpt>
      <trkpt lat="43.17998" lon="0.87718">
        <ele>414.4</ele>
        <time>2013-12-22T15:24:48</time>
      </trkpt>
      <trkpt lat="43.17996" lon="0.87718">
        <ele>414.1</ele>
        <time>2013-12-22T15:24:49</time>
      </trkpt>
      <trkpt lat="43.17995" lon="0.87719">
        <ele>414.2</ele>
        <time>2013-12-22T15:24:50</time>
      </trkpt>
      <trkpt lat="43.17994" lon="0.87719">
        <ele>414.2</ele>
        <time>2013-12-22T15:24:51</time>
      </trkpt>
      <trkpt lat="43.17993" lon="0.87719">
        <ele>413.5</ele>
        <time>2013-12-22T15:24:52</time>
      </trkpt>
      <trkpt lat="43.17992" lon="0.87719">
        <ele>413.7</ele>
        <time>2013-12-22T15:24:53</time>
      </trkpt>
      <trkpt lat="43.17991" lon="0.87719">
        <ele>413.7</ele>
        <time>2013-12-22T15:24:54</time>
      </trkpt>
      <trkpt lat="43.17991" lon="0.87719">
        <ele>413.5</ele>
        <time>2013-12-22T15:24:55</time>
      </trkpt>
      <trkpt lat="43.1799" lon="0.87719">
        <ele>413.6</ele>
        <time>2013-12-22T15:24:56</time>
      </trkpt>
      <trkpt lat="43.17989" lon="0.8772">
        <ele>413.5</ele>
        <time>2013-12-22T15:24:57</time>
      </trkpt>
      <trkpt lat="43.17987" lon="0.8772">
        <ele>413.8</ele>
        <time>2013-12-22T15:24:58</time>
      </trkpt>
      <trkpt lat="43.17986" lon="0.8772">
        <ele>414.2</ele>
        <time>2013-12-22T15:24:59</time>
      </trkpt>
      <trkpt lat="43.17985" lon="0.87721">
        <ele>414.5</ele>
        <time>2013-12-22T15:25:00</time>
      </trkpt>
      <trkpt lat="43.17984" lon="0.87722">
        <ele>414.4</ele>
        <time>2013-12-22T15:25:01</time>
      </trkpt>
      <trkpt lat="43.17983" lon="0.87722">
        <ele>414.8</ele>
        <time>2013-12-22T15:25:02</time>
      </trkpt>
      <trkpt lat="43.17982" lon="0.87722">
        <ele>414.6</ele>
        <time>2013-12-22T15:25:03</time>
      </trkpt>
      <trkpt lat="43.17981" lon="0.87722">
        <ele>414.9</ele>
        <time>2013-12-22T15:25:04</time>
      </trkpt>
      <trkpt lat="43.1798" lon="0.87723">
        <ele>415</ele>
        <time>2013-12-22T15:25:05</time>
      </trkpt>
      <trkpt lat="43.17979" lon="0.87723">
        <ele>415</ele>
        <time>2013-12-22T15:25:06</time>
      </trkpt>
      <trkpt lat="43.17978" lon="0.87723">
        <ele>415</ele>
        <time>2013-12-22T15:25:07</time>
      </trkpt>
      <trkpt lat="43.17977" lon="0.87723">
        <ele>415</ele>
        <time>2013-12-22T15:25:08</time>
      </trkpt>
      <trkpt lat="43.17976" lon="0.87723">
        <ele>415.2</ele>
        <time>2013-12-22T15:25:09</time>
      </trkpt>
      <trkpt lat="43.17976" lon="0.87723">
        <ele>415</ele>
        <time>2013-12-22T15:25:10</time>
      </trkpt>
      <trkpt lat="43.17975" lon="0.87723">
        <ele>415.1</ele>
        <time>2013-12-22T15:25:11</time>
      </trkpt>
      <trkpt lat="43.17974" lon="0.87723">
        <ele>415.1</ele>
        <time>2013-12-22T15:25:12</time>
      </trkpt>
      <trkpt lat="43.17973" lon="0.87723">
        <ele>415.7</ele>
        <time>2013-12-22T15:25:13</time>
      </trkpt>
      <trkpt lat="43.17973" lon="0.87724">
        <ele>415.8</ele>
        <time>2013-12-22T15:25:14</time>
      </trkpt>
      <trkpt lat="43.17971" lon="0.87724">
        <ele>415.8</ele>
        <time>2013-12-22T15:25:15</time>
      </trkpt>
      <trkpt lat="43.17971" lon="0.87724">
        <ele>416.2</ele>
        <time>2013-12-22T15:25:16</time>
      </trkpt>
      <trkpt lat="43.1797" lon="0.87724">
        <ele>416</ele>
        <time>2013-12-22T15:25:17</time>
      </trkpt>
      <trkpt lat="43.17969" lon="0.87724">
        <ele>416.2</ele>
        <time>2013-12-22T15:25:18</time>
      </trkpt>
      <trkpt lat="43.17968" lon="0.87724">
        <ele>415.6</ele>
        <time>2013-12-22T15:25:19</time>
      </trkpt>
      <trkpt lat="43.17967" lon="0.87724">
        <ele>415.8</ele>
        <time>2013-12-22T15:25:20</time>
      </trkpt>
      <trkpt lat="43.17966" lon="0.87724">
        <ele>415.9</ele>
        <time>2013-12-22T15:25:21</time>
      </trkpt>
      <trkpt lat="43.17965" lon="0.87724">
        <ele>415.7</ele>
        <time>2013-12-22T15:25:22</time>
      </trkpt>
      <trkpt lat="43.17964" lon="0.87725">
        <ele>416</ele>
        <time>2013-12-22T15:25:23</time>
      </trkpt>
      <trkpt lat="43.17963" lon="0.87725">
        <ele>415.8</ele>
        <time>2013-12-22T15:25:24</time>
      </trkpt>
      <trkpt lat="43.17962" lon="0.87725">
        <ele>415.2</ele>
        <time>2013-12-22T15:25:25</time>
      </trkpt>
      <trkpt lat="43.17962" lon="0.87725">
        <ele>415.2</ele>
        <time>2013-12-22T15:25:26</time>
      </trkpt>
      <trkpt lat="43.1796" lon="0.87725">
        <ele>415.2</ele>
        <time>2013-12-22T15:25:27</time>
      </trkpt>
      <trkpt lat="43.1796" lon="0.87725">
        <ele>414.9</ele>
        <time>2013-12-22T15:25:28</time>
      </trkpt>
      <trkpt lat="43.17959" lon="0.87725">
        <ele>415</ele>
        <time>2013-12-22T15:25:29</time>
      </trkpt>
      <trkpt lat="43.17958" lon="0.87724">
        <ele>415.1</ele>
        <time>2013-12-22T15:25:30</time>
      </trkpt>
      <trkpt lat="43.17957" lon="0.87724">
        <ele>415.7</ele>
        <time>2013-12-22T15:25:31</time>
      </trkpt>
      <trkpt lat="43.17956" lon="0.87725">
        <ele>415.7</ele>
        <time>2013-12-22T15:25:32</time>
      </trkpt>
      <trkpt lat="43.17955" lon="0.87725">
        <ele>414.9</ele>
        <time>2013-12-22T15:25:33</time>
      </trkpt>
      <trkpt lat="43.17954" lon="0.87725">
        <ele>414.4</ele>
        <time>2013-12-22T15:25:34</time>
      </trkpt>
      <trkpt lat="43.17954" lon="0.87725">
        <ele>413.9</ele>
        <time>2013-12-22T15:25:35</time>
      </trkpt>
      <trkpt lat="43.17953" lon="0.87725">
        <ele>414.7</ele>
        <time>2013-12-22T15:25:36</time>
      </trkpt>
      <trkpt lat="43.17952" lon="0.87726">
        <ele>414.2</ele>
        <time>2013-12-22T15:25:37</time>
      </trkpt>
      <trkpt lat="43.17951" lon="0.87726">
        <ele>414.3</ele>
        <time>2013-12-22T15:25:38</time>
      </trkpt>
      <trkpt lat="43.1795" lon="0.87726">
        <ele>414.7</ele>
        <time>2013-12-22T15:25:39</time>
      </trkpt>
      <trkpt lat="43.17949" lon="0.87726">
        <ele>414.6</ele>
        <time>2013-12-22T15:25:40</time>
      </trkpt>
      <trkpt lat="43.17948" lon="0.87726">
        <ele>414.5</ele>
        <time>2013-12-22T15:25:41</time>
      </trkpt>
      <trkpt lat="43.17947" lon="0.87726">
        <ele>414.2</ele>
        <time>2013-12-22T15:25:42</time>
      </trkpt>
      <trkpt lat="43.17946" lon="0.87726">
        <ele>414.3</ele>
        <time>2013-12-22T15:25:43</time>
      </trkpt>
      <trkpt lat="43.17945" lon="0.87726">
        <ele>414</ele>
        <time>2013-12-22T15:25:45</time>
      </trkpt>
      <trkpt lat="43.17944" lon="0.87726">
        <ele>413.4</ele>
        <time>2013-12-22T15:25:46</time>
      </trkpt>
      <trkpt lat="43.17943" lon="0.87727">
        <ele>413.8</ele>
        <time>2013-12-22T15:25:48</time>
      </trkpt>
      <trkpt lat="43.17942" lon="0.87727">
        <ele>413.4</ele>
        <time>2013-12-22T15:25:49</time>
      </trkpt>
      <trkpt lat="43.17941" lon="0.87727">
        <ele>413.4</ele>
        <time>2013-12-22T15:25:50</time>
      </trkpt>
      <trkpt lat="43.1794" lon="0.87727">
        <ele>414</ele>
        <time>2013-12-22T15:25:51</time>
      </trkpt>
      <trkpt lat="43.17939" lon="0.87727">
        <ele>414</ele>
        <time>2013-12-22T15:25:52</time>
      </trkpt>
      <trkpt lat="43.17938" lon="0.87727">
        <ele>413.8</ele>
        <time>2013-12-22T15:25:53</time>
      </trkpt>
      <trkpt lat="43.17936" lon="0.87727">
        <ele>414.2</ele>
        <time>2013-12-22T15:25:54</time>
      </trkpt>
      <trkpt lat="43.17935" lon="0.87728">
        <ele>414.1</ele>
        <time>2013-12-22T15:25:55</time>
      </trkpt>
      <trkpt lat="43.17933" lon="0.87728">
        <ele>414.6</ele>
        <time>2013-12-22T15:25:56</time>
      </trkpt>
      <trkpt lat="43.17932" lon="0.87729">
        <ele>414.6</ele>
        <time>2013-12-22T15:25:57</time>
      </trkpt>
      <trkpt lat="43.17931" lon="0.87729">
        <ele>414.9</ele>
        <time>2013-12-22T15:25:58</time>
      </trkpt>
      <trkpt lat="43.1793" lon="0.87729">
        <ele>415.1</ele>
        <time>2013-12-22T15:25:59</time>
      </trkpt>
      <trkpt lat="43.17928" lon="0.8773">
        <ele>414.8</ele>
        <time>2013-12-22T15:26:00</time>
      </trkpt>
      <trkpt lat="43.17927" lon="0.8773">
        <ele>414.8</ele>
        <time>2013-12-22T15:26:01</time>
      </trkpt>
      <trkpt lat="43.17926" lon="0.8773">
        <ele>414.8</ele>
        <time>2013-12-22T15:26:02</time>
      </trkpt>
      <trkpt lat="43.17924" lon="0.8773">
        <ele>414.9</ele>
        <time>2013-12-22T15:26:03</time>
      </trkpt>
      <trkpt lat="43.17923" lon="0.8773">
        <ele>414.8</ele>
        <time>2013-12-22T15:26:04</time>
      </trkpt>
      <trkpt lat="43.17922" lon="0.8773">
        <ele>414</ele>
        <time>2013-12-22T15:26:05</time>
      </trkpt>
      <trkpt lat="43.17921" lon="0.8773">
        <ele>414.3</ele>
        <time>2013-12-22T15:26:06</time>
      </trkpt>
      <trkpt lat="43.1792" lon="0.8773">
        <ele>414.2</ele>
        <time>2013-12-22T15:26:07</time>
      </trkpt>
      <trkpt lat="43.17918" lon="0.87731">
        <ele>414</ele>
        <time>2013-12-22T15:26:08</time>
      </trkpt>
      <trkpt lat="43.17917" lon="0.87731">
        <ele>414</ele>
        <time>2013-12-22T15:26:09</time>
      </trkpt>
      <trkpt lat="43.17916" lon="0.87731">
        <ele>414</ele>
        <time>2013-12-22T15:26:10</time>
      </trkpt>
      <trkpt lat="43.17915" lon="0.87732">
        <ele>413.9</ele>
        <time>2013-12-22T15:26:11</time>
      </trkpt>
      <trkpt lat="43.17914" lon="0.87732">
        <ele>413.7</ele>
        <time>2013-12-22T15:26:12</time>
      </trkpt>
      <trkpt lat="43.17913" lon="0.87732">
        <ele>413.3</ele>
        <time>2013-12-22T15:26:13</time>
      </trkpt>
      <trkpt lat="43.17912" lon="0.87732">
        <ele>413.2</ele>
        <time>2013-12-22T15:26:14</time>
      </trkpt>
      <trkpt lat="43.17911" lon="0.87731">
        <ele>413.4</ele>
        <time>2013-12-22T15:26:15</time>
      </trkpt>
      <trkpt lat="43.1791" lon="0.87731">
        <ele>413.3</ele>
        <time>2013-12-22T15:26:16</time>
      </trkpt>
      <trkpt lat="43.17909" lon="0.87731">
        <ele>413.7</ele>
        <time>2013-12-22T15:26:17</time>
      </trkpt>
      <trkpt lat="43.17908" lon="0.8773">
        <ele>413.9</ele>
        <time>2013-12-22T15:26:18</time>
      </trkpt>
      <trkpt lat="43.17907" lon="0.8773">
        <ele>413.5</ele>
        <time>2013-12-22T15:26:19</time>
      </trkpt>
      <trkpt lat="43.17906" lon="0.8773">
        <ele>413.3</ele>
        <time>2013-12-22T15:26:20</time>
      </trkpt>
      <trkpt lat="43.17905" lon="0.87731">
        <ele>413.2</ele>
        <time>2013-12-22T15:26:21</time>
      </trkpt>
      <trkpt lat="43.17904" lon="0.87731">
        <ele>413.1</ele>
        <time>2013-12-22T15:26:22</time>
      </trkpt>
      <trkpt lat="43.17903" lon="0.87731">
        <ele>412.9</ele>
        <time>2013-12-22T15:26:23</time>
      </trkpt>
      <trkpt lat="43.17902" lon="0.8773">
        <ele>412.6</ele>
        <time>2013-12-22T15:26:24</time>
      </trkpt>
      <trkpt lat="43.17901" lon="0.8773">
        <ele>412.9</ele>
        <time>2013-12-22T15:26:25</time>
      </trkpt>
      <trkpt lat="43.179" lon="0.8773">
        <ele>413.1</ele>
        <time>2013-12-22T15:26:26</time>
      </trkpt>
      <trkpt lat="43.17899" lon="0.8773">
        <ele>413.4</ele>
        <time>2013-12-22T15:26:27</time>
      </trkpt>
      <trkpt lat="43.17899" lon="0.8773">
        <ele>413.3</ele>
        <time>2013-12-22T15:26:28</time>
      </trkpt>
      <trkpt lat="43.17898" lon="0.87729">
        <ele>413.9</ele>
        <time>2013-12-22T15:26:29</time>
      </trkpt>
      <trkpt lat="43.17897" lon="0.87729">
        <ele>413.8</ele>
        <time>2013-12-22T15:26:30</time>
      </trkpt>
      <trkpt lat="43.17896" lon="0.87729">
        <ele>413.8</ele>
        <time>2013-12-22T15:26:31</time>
      </trkpt>
      <trkpt lat="43.17895" lon="0.87729">
        <ele>414</ele>
        <time>2013-12-22T15:26:32</time>
      </trkpt>
      <trkpt lat="43.17894" lon="0.87729">
        <ele>414.3</ele>
        <time>2013-12-22T15:26:33</time>
      </trkpt>
      <trkpt lat="43.17893" lon="0.87728">
        <ele>414.3</ele>
        <time>2013-12-22T15:26:34</time>
      </trkpt>
      <trkpt lat="43.17892" lon="0.87727">
        <ele>414.7</ele>
        <time>2013-12-22T15:26:35</time>
      </trkpt>
      <trkpt lat="43.17891" lon="0.87727">
        <ele>415.1</ele>
        <time>2013-12-22T15:26:36</time>
      </trkpt>
      <trkpt lat="43.1789" lon="0.87726">
        <ele>415.2</ele>
        <time>2013-12-22T15:26:37</time>
      </trkpt>
      <trkpt lat="43.17889" lon="0.87725">
        <ele>415.6</ele>
        <time>2013-12-22T15:26:38</time>
      </trkpt>
      <trkpt lat="43.17886" lon="0.87727">
        <ele>415.1</ele>
        <time>2013-12-22T15:27:11</time>
      </trkpt>
      <trkpt lat="43.17886" lon="0.87726">
        <ele>415.3</ele>
        <time>2013-12-22T15:27:12</time>
      </trkpt>
      <trkpt lat="43.17887" lon="0.87725">
        <ele>414.8</ele>
        <time>2013-12-22T15:27:13</time>
      </trkpt>
      <trkpt lat="43.17888" lon="0.87724">
        <ele>414.2</ele>
        <time>2013-12-22T15:27:14</time>
      </trkpt>
      <trkpt lat="43.17888" lon="0.87723">
        <ele>414.1</ele>
        <time>2013-12-22T15:27:15</time>
      </trkpt>
      <trkpt lat="43.17888" lon="0.8772">
        <ele>414.2</ele>
        <time>2013-12-22T15:27:49</time>
      </trkpt>
      <trkpt lat="43.17888" lon="0.87719">
        <ele>414.2</ele>
        <time>2013-12-22T15:27:50</time>
      </trkpt>
      <trkpt lat="43.17889" lon="0.87717">
        <ele>414.9</ele>
        <time>2013-12-22T15:27:51</time>
      </trkpt>
      <trkpt lat="43.17889" lon="0.87716">
        <ele>415.3</ele>
        <time>2013-12-22T15:27:52</time>
      </trkpt>
      <trkpt lat="43.17889" lon="0.87715">
        <ele>415</ele>
        <time>2013-12-22T15:27:53</time>
      </trkpt>
      <trkpt lat="43.1789" lon="0.87713">
        <ele>415.4</ele>
        <time>2013-12-22T15:27:54</time>
      </trkpt>
      <trkpt lat="43.1789" lon="0.87712">
        <ele>415.8</ele>
        <time>2013-12-22T15:27:55</time>
      </trkpt>
      <trkpt lat="43.17891" lon="0.87711">
        <ele>416</ele>
        <time>2013-12-22T15:27:56</time>
      </trkpt>
      <trkpt lat="43.17891" lon="0.87711">
        <ele>415.6</ele>
        <time>2013-12-22T15:27:57</time>
      </trkpt>
      <trkpt lat="43.17891" lon="0.8771">
        <ele>415.3</ele>
        <time>2013-12-22T15:27:58</time>
      </trkpt>
      <trkpt lat="43.17891" lon="0.87709">
        <ele>415.1</ele>
        <time>2013-12-22T15:27:59</time>
      </trkpt>
      <trkpt lat="43.17891" lon="0.87708">
        <ele>415.3</ele>
        <time>2013-12-22T15:28:00</time>
      </trkpt>
      <trkpt lat="43.17892" lon="0.87707">
        <ele>415.2</ele>
        <time>2013-12-22T15:28:01</time>
      </trkpt>
      <trkpt lat="43.17893" lon="0.87705">
        <ele>415.1</ele>
        <time>2013-12-22T15:28:03</time>
      </trkpt>
      <trkpt lat="43.17893" lon="0.87704">
        <ele>415</ele>
        <time>2013-12-22T15:28:04</time>
      </trkpt>
      <trkpt lat="43.17893" lon="0.87702">
        <ele>415.1</ele>
        <time>2013-12-22T15:28:05</time>
      </trkpt>
      <trkpt lat="43.17893" lon="0.87701">
        <ele>414.5</ele>
        <time>2013-12-22T15:28:06</time>
      </trkpt>
      <trkpt lat="43.17894" lon="0.877">
        <ele>414.6</ele>
        <time>2013-12-22T15:28:07</time>
      </trkpt>
      <trkpt lat="43.17894" lon="0.87699">
        <ele>414.7</ele>
        <time>2013-12-22T15:28:08</time>
      </trkpt>
      <trkpt lat="43.17894" lon="0.87697">
        <ele>414.7</ele>
        <time>2013-12-22T15:28:09</time>
      </trkpt>
      <trkpt lat="43.17895" lon="0.87696">
        <ele>414.3</ele>
        <time>2013-12-22T15:28:10</time>
      </trkpt>
      <trkpt lat="43.17895" lon="0.87695">
        <ele>414.3</ele>
        <time>2013-12-22T15:28:11</time>
      </trkpt>
      <trkpt lat="43.17895" lon="0.87693">
        <ele>414.1</ele>
        <time>2013-12-22T15:28:14</time>
      </trkpt>
      <trkpt lat="43.17895" lon="0.87692">
        <ele>413.5</ele>
        <time>2013-12-22T15:28:15</time>
      </trkpt>
      <trkpt lat="43.17895" lon="0.87692">
        <ele>412.9</ele>
        <time>2013-12-22T15:28:16</time>
      </trkpt>
      <trkpt lat="43.17896" lon="0.8769">
        <ele>414.9</ele>
        <time>2013-12-22T15:28:17</time>
      </trkpt>
      <trkpt lat="43.17896" lon="0.87688">
        <ele>415.1</ele>
        <time>2013-12-22T15:28:18</time>
      </trkpt>
      <trkpt lat="43.17896" lon="0.87687">
        <ele>414.6</ele>
        <time>2013-12-22T15:28:19</time>
      </trkpt>
      <trkpt lat="43.17897" lon="0.87683">
        <ele>414.7</ele>
        <time>2013-12-22T15:28:22</time>
      </trkpt>
      <trkpt lat="43.17897" lon="0.87682">
        <ele>414.7</ele>
        <time>2013-12-22T15:28:23</time>
      </trkpt>
      <trkpt lat="43.17897" lon="0.87681">
        <ele>415.2</ele>
        <time>2013-12-22T15:28:24</time>
      </trkpt>
      <trkpt lat="43.17897" lon="0.87679">
        <ele>415.3</ele>
        <time>2013-12-22T15:28:25</time>
      </trkpt>
      <trkpt lat="43.17897" lon="0.87677">
        <ele>415.5</ele>
        <time>2013-12-22T15:28:26</time>
      </trkpt>
      <trkpt lat="43.17897" lon="0.87676">
        <ele>415.5</ele>
        <time>2013-12-22T15:28:28</time>
      </trkpt>
      <trkpt lat="43.17897" lon="0.87674">
        <ele>415.7</ele>
        <time>2013-12-22T15:28:29</time>
      </trkpt>
      <trkpt lat="43.17897" lon="0.87673">
        <ele>415.2</ele>
        <time>2013-12-22T15:28:30</time>
      </trkpt>
      <trkpt lat="43.17897" lon="0.87671">
        <ele>415.4</ele>
        <time>2013-12-22T15:28:31</time>
      </trkpt>
      <trkpt lat="43.17897" lon="0.8767">
        <ele>414.6</ele>
        <time>2013-12-22T15:28:32</time>
      </trkpt>
      <trkpt lat="43.17897" lon="0.87668">
        <ele>414.7</ele>
        <time>2013-12-22T15:28:33</time>
      </trkpt>
      <trkpt lat="43.17897" lon="0.87666">
        <ele>414.8</ele>
        <time>2013-12-22T15:28:34</time>
      </trkpt>
      <trkpt lat="43.17898" lon="0.87665">
        <ele>414.3</ele>
        <time>2013-12-22T15:28:35</time>
      </trkpt>
      <trkpt lat="43.17898" lon="0.87663">
        <ele>413.9</ele>
        <time>2013-12-22T15:28:36</time>
      </trkpt>
      <trkpt lat="43.17898" lon="0.87661">
        <ele>413.8</ele>
        <time>2013-12-22T15:28:37</time>
      </trkpt>
      <trkpt lat="43.17898" lon="0.8766">
        <ele>413.8</ele>
        <time>2013-12-22T15:28:38</time>
      </trkpt>
      <trkpt lat="43.17898" lon="0.87658">
        <ele>414</ele>
        <time>2013-12-22T15:28:39</time>
      </trkpt>
      <trkpt lat="43.17898" lon="0.87657">
        <ele>413.7</ele>
        <time>2013-12-22T15:28:40</time>
      </trkpt>
      <trkpt lat="43.17898" lon="0.87655">
        <ele>413.6</ele>
        <time>2013-12-22T15:28:41</time>
      </trkpt>
      <trkpt lat="43.17898" lon="0.87654">
        <ele>413.6</ele>
        <time>2013-12-22T15:28:42</time>
      </trkpt>
      <trkpt lat="43.17898" lon="0.87652">
        <ele>413.3</ele>
        <time>2013-12-22T15:28:43</time>
      </trkpt>
      <trkpt lat="43.17898" lon="0.87651">
        <ele>413</ele>
        <time>2013-12-22T15:28:44</time>
      </trkpt>
      <trkpt lat="43.17898" lon="0.87649">
        <ele>413.6</ele>
        <time>2013-12-22T15:28:45</time>
      </trkpt>
      <trkpt lat="43.17898" lon="0.87648">
        <ele>413.6</ele>
        <time>2013-12-22T15:28:46</time>
      </trkpt>
      <trkpt lat="43.17898" lon="0.87646">
        <ele>413.2</ele>
        <time>2013-12-22T15:28:47</time>
      </trkpt>
      <trkpt lat="43.17898" lon="0.87645">
        <ele>412.8</ele>
        <time>2013-12-22T15:28:48</time>
      </trkpt>
      <trkpt lat="43.17898" lon="0.87644">
        <ele>412.6</ele>
        <time>2013-12-22T15:28:49</time>
      </trkpt>
      <trkpt lat="43.17898" lon="0.87642">
        <ele>412.7</ele>
        <time>2013-12-22T15:28:50</time>
      </trkpt>
      <trkpt lat="43.17898" lon="0.8764">
        <ele>412.7</ele>
        <time>2013-12-22T15:28:51</time>
      </trkpt>
      <trkpt lat="43.17898" lon="0.87638">
        <ele>413</ele>
        <time>2013-12-22T15:28:52</time>
      </trkpt>
      <trkpt lat="43.17898" lon="0.87637">
        <ele>413</ele>
        <time>2013-12-22T15:28:53</time>
      </trkpt>
      <trkpt lat="43.17898" lon="0.87635">
        <ele>413</ele>
        <time>2013-12-22T15:28:54</time>
      </trkpt>
      <trkpt lat="43.17898" lon="0.87634">
        <ele>413.1</ele>
        <time>2013-12-22T15:28:55</time>
      </trkpt>
      <trkpt lat="43.17898" lon="0.87632">
        <ele>413.1</ele>
        <time>2013-12-22T15:28:56</time>
      </trkpt>
      <trkpt lat="43.17898" lon="0.87631">
        <ele>413.4</ele>
        <time>2013-12-22T15:28:57</time>
      </trkpt>
      <trkpt lat="43.17899" lon="0.87629">
        <ele>413.6</ele>
        <time>2013-12-22T15:28:58</time>
      </trkpt>
      <trkpt lat="43.17899" lon="0.87627">
        <ele>413.6</ele>
        <time>2013-12-22T15:28:59</time>
      </trkpt>
      <trkpt lat="43.17899" lon="0.87626">
        <ele>413.6</ele>
        <time>2013-12-22T15:29:00</time>
      </trkpt>
      <trkpt lat="43.17899" lon="0.87625">
        <ele>413.4</ele>
        <time>2013-12-22T15:29:01</time>
      </trkpt>
      <trkpt lat="43.17899" lon="0.87623">
        <ele>413.4</ele>
        <time>2013-12-22T15:29:04</time>
      </trkpt>
      <trkpt lat="43.17899" lon="0.87622">
        <ele>413.6</ele>
        <time>2013-12-22T15:29:05</time>
      </trkpt>
      <trkpt lat="43.17899" lon="0.87621">
        <ele>414</ele>
        <time>2013-12-22T15:29:06</time>
      </trkpt>
      <trkpt lat="43.179" lon="0.87619">
        <ele>413.4</ele>
        <time>2013-12-22T15:29:07</time>
      </trkpt>
      <trkpt lat="43.179" lon="0.87618">
        <ele>413.2</ele>
        <time>2013-12-22T15:29:08</time>
      </trkpt>
      <trkpt lat="43.179" lon="0.87617">
        <ele>413.4</ele>
        <time>2013-12-22T15:29:09</time>
      </trkpt>
      <trkpt lat="43.17901" lon="0.87615">
        <ele>413.6</ele>
        <time>2013-12-22T15:29:10</time>
      </trkpt>
      <trkpt lat="43.17901" lon="0.87614">
        <ele>413.4</ele>
        <time>2013-12-22T15:29:11</time>
      </trkpt>
      <trkpt lat="43.17901" lon="0.87612">
        <ele>413</ele>
        <time>2013-12-22T15:29:12</time>
      </trkpt>
      <trkpt lat="43.17902" lon="0.87611">
        <ele>413.2</ele>
        <time>2013-12-22T15:29:13</time>
      </trkpt>
      <trkpt lat="43.17902" lon="0.87609">
        <ele>413.4</ele>
        <time>2013-12-22T15:29:14</time>
      </trkpt>
      <trkpt lat="43.17903" lon="0.87608">
        <ele>413.6</ele>
        <time>2013-12-22T15:29:15</time>
      </trkpt>
      <trkpt lat="43.17903" lon="0.87607">
        <ele>413.9</ele>
        <time>2013-12-22T15:29:16</time>
      </trkpt>
      <trkpt lat="43.17904" lon="0.87605">
        <ele>413.8</ele>
        <time>2013-12-22T15:29:17</time>
      </trkpt>
      <trkpt lat="43.17904" lon="0.87603">
        <ele>413.8</ele>
        <time>2013-12-22T15:29:18</time>
      </trkpt>
      <trkpt lat="43.17905" lon="0.87602">
        <ele>413.6</ele>
        <time>2013-12-22T15:29:19</time>
      </trkpt>
      <trkpt lat="43.17905" lon="0.876">
        <ele>413.9</ele>
        <time>2013-12-22T15:29:20</time>
      </trkpt>
      <trkpt lat="43.17905" lon="0.87599">
        <ele>413.6</ele>
        <time>2013-12-22T15:29:21</time>
      </trkpt>
      <trkpt lat="43.17906" lon="0.87597">
        <ele>413.7</ele>
        <time>2013-12-22T15:29:22</time>
      </trkpt>
      <trkpt lat="43.17907" lon="0.87596">
        <ele>413.7</ele>
        <time>2013-12-22T15:29:23</time>
      </trkpt>
      <trkpt lat="43.17908" lon="0.87595">
        <ele>413.5</ele>
        <time>2013-12-22T15:29:24</time>
      </trkpt>
      <trkpt lat="43.17909" lon="0.87594">
        <ele>413.6</ele>
        <time>2013-12-22T15:29:25</time>
      </trkpt>
      <trkpt lat="43.17909" lon="0.87593">
        <ele>414.2</ele>
        <time>2013-12-22T15:29:26</time>
      </trkpt>
      <trkpt lat="43.1791" lon="0.87591">
        <ele>414.1</ele>
        <time>2013-12-22T15:29:27</time>
      </trkpt>
      <trkpt lat="43.1791" lon="0.8759">
        <ele>414</ele>
        <time>2013-12-22T15:29:28</time>
      </trkpt>
      <trkpt lat="43.17911" lon="0.87589">
        <ele>414.2</ele>
        <time>2013-12-22T15:29:29</time>
      </trkpt>
      <trkpt lat="43.17911" lon="0.87587">
        <ele>414.4</ele>
        <time>2013-12-22T15:29:30</time>
      </trkpt>
      <trkpt lat="43.17912" lon="0.87586">
        <ele>414.3</ele>
        <time>2013-12-22T15:29:31</time>
      </trkpt>
      <trkpt lat="43.17912" lon="0.87585">
        <ele>414.4</ele>
        <time>2013-12-22T15:29:32</time>
      </trkpt>
      <trkpt lat="43.17913" lon="0.87583">
        <ele>414.2</ele>
        <time>2013-12-22T15:29:33</time>
      </trkpt>
      <trkpt lat="43.17913" lon="0.87581">
        <ele>414.5</ele>
        <time>2013-12-22T15:29:34</time>
      </trkpt>
      <trkpt lat="43.17914" lon="0.8758">
        <ele>414.9</ele>
        <time>2013-12-22T15:29:35</time>
      </trkpt>
      <trkpt lat="43.17915" lon="0.87579">
        <ele>415</ele>
        <time>2013-12-22T15:29:36</time>
      </trkpt>
      <trkpt lat="43.17915" lon="0.87577">
        <ele>414.9</ele>
        <time>2013-12-22T15:29:37</time>
      </trkpt>
      <trkpt lat="43.17916" lon="0.87576">
        <ele>414.8</ele>
        <time>2013-12-22T15:29:38</time>
      </trkpt>
      <trkpt lat="43.17917" lon="0.87575">
        <ele>414.7</ele>
        <time>2013-12-22T15:29:39</time>
      </trkpt>
      <trkpt lat="43.17917" lon="0.87573">
        <ele>415.4</ele>
        <time>2013-12-22T15:29:40</time>
      </trkpt>
      <trkpt lat="43.17917" lon="0.87571">
        <ele>415.4</ele>
        <time>2013-12-22T15:29:41</time>
      </trkpt>
      <trkpt lat="43.17917" lon="0.8757">
        <ele>415.3</ele>
        <time>2013-12-22T15:29:42</time>
      </trkpt>
      <trkpt lat="43.17918" lon="0.87568">
        <ele>415.6</ele>
        <time>2013-12-22T15:29:43</time>
      </trkpt>
      <trkpt lat="43.17918" lon="0.87567">
        <ele>415.7</ele>
        <time>2013-12-22T15:29:44</time>
      </trkpt>
      <trkpt lat="43.17918" lon="0.87565">
        <ele>415.6</ele>
        <time>2013-12-22T15:29:45</time>
      </trkpt>
      <trkpt lat="43.17918" lon="0.87564">
        <ele>415.5</ele>
        <time>2013-12-22T15:29:46</time>
      </trkpt>
      <trkpt lat="43.17919" lon="0.87562">
        <ele>416</ele>
        <time>2013-12-22T15:29:47</time>
      </trkpt>
      <trkpt lat="43.17919" lon="0.87561">
        <ele>416.2</ele>
        <time>2013-12-22T15:29:48</time>
      </trkpt>
      <trkpt lat="43.17919" lon="0.8756">
        <ele>415.6</ele>
        <time>2013-12-22T15:29:49</time>
      </trkpt>
      <trkpt lat="43.17919" lon="0.87559">
        <ele>415.2</ele>
        <time>2013-12-22T15:29:50</time>
      </trkpt>
      <trkpt lat="43.17918" lon="0.87555">
        <ele>418.6</ele>
        <time>2013-12-22T15:29:51</time>
      </trkpt>
      <trkpt lat="43.17918" lon="0.87554">
        <ele>419.2</ele>
        <time>2013-12-22T15:29:52</time>
      </trkpt>
      <trkpt lat="43.17917" lon="0.87551">
        <ele>419.2</ele>
        <time>2013-12-22T15:29:53</time>
      </trkpt>
      <trkpt lat="43.17917" lon="0.87549">
        <ele>419.9</ele>
        <time>2013-12-22T15:29:54</time>
      </trkpt>
      <trkpt lat="43.17916" lon="0.87547">
        <ele>420.2</ele>
        <time>2013-12-22T15:29:55</time>
      </trkpt>
      <trkpt lat="43.17916" lon="0.87545">
        <ele>420.5</ele>
        <time>2013-12-22T15:29:56</time>
      </trkpt>
      <trkpt lat="43.17915" lon="0.87544">
        <ele>420.5</ele>
        <time>2013-12-22T15:29:57</time>
      </trkpt>
      <trkpt lat="43.17914" lon="0.87542">
        <ele>419.2</ele>
        <time>2013-12-22T15:29:58</time>
      </trkpt>
      <trkpt lat="43.17914" lon="0.87541">
        <ele>419</ele>
        <time>2013-12-22T15:29:59</time>
      </trkpt>
      <trkpt lat="43.17913" lon="0.87539">
        <ele>419.1</ele>
        <time>2013-12-22T15:30:00</time>
      </trkpt>
      <trkpt lat="43.17912" lon="0.87538">
        <ele>419.3</ele>
        <time>2013-12-22T15:30:01</time>
      </trkpt>
      <trkpt lat="43.17912" lon="0.87536">
        <ele>419.3</ele>
        <time>2013-12-22T15:30:02</time>
      </trkpt>
      <trkpt lat="43.17911" lon="0.87535">
        <ele>418.9</ele>
        <time>2013-12-22T15:30:03</time>
      </trkpt>
      <trkpt lat="43.1791" lon="0.87533">
        <ele>418.2</ele>
        <time>2013-12-22T15:30:04</time>
      </trkpt>
      <trkpt lat="43.1791" lon="0.87532">
        <ele>418.3</ele>
        <time>2013-12-22T15:30:05</time>
      </trkpt>
      <trkpt lat="43.17909" lon="0.87531">
        <ele>418.3</ele>
        <time>2013-12-22T15:30:06</time>
      </trkpt>
      <trkpt lat="43.17908" lon="0.8753">
        <ele>418.2</ele>
        <time>2013-12-22T15:30:07</time>
      </trkpt>
      <trkpt lat="43.17907" lon="0.87529">
        <ele>417.5</ele>
        <time>2013-12-22T15:30:08</time>
      </trkpt>
      <trkpt lat="43.17907" lon="0.87528">
        <ele>417</ele>
        <time>2013-12-22T15:30:09</time>
      </trkpt>
      <trkpt lat="43.17907" lon="0.87527">
        <ele>416.6</ele>
        <time>2013-12-22T15:30:10</time>
      </trkpt>
      <trkpt lat="43.17907" lon="0.87526">
        <ele>416.2</ele>
        <time>2013-12-22T15:30:11</time>
      </trkpt>
      <trkpt lat="43.17907" lon="0.87525">
        <ele>415.6</ele>
        <time>2013-12-22T15:30:12</time>
      </trkpt>
      <trkpt lat="43.17906" lon="0.87524">
        <ele>414.9</ele>
        <time>2013-12-22T15:30:13</time>
      </trkpt>
      <trkpt lat="43.17906" lon="0.87523">
        <ele>414.5</ele>
        <time>2013-12-22T15:30:14</time>
      </trkpt>
      <trkpt lat="43.17905" lon="0.87521">
        <ele>414.2</ele>
        <time>2013-12-22T15:30:15</time>
      </trkpt>
      <trkpt lat="43.17905" lon="0.8752">
        <ele>414</ele>
        <time>2013-12-22T15:30:16</time>
      </trkpt>
      <trkpt lat="43.17904" lon="0.87519">
        <ele>414</ele>
        <time>2013-12-22T15:30:17</time>
      </trkpt>
      <trkpt lat="43.17904" lon="0.87518">
        <ele>413.8</ele>
        <time>2013-12-22T15:30:18</time>
      </trkpt>
      <trkpt lat="43.17903" lon="0.87517">
        <ele>414.5</ele>
        <time>2013-12-22T15:30:19</time>
      </trkpt>
      <trkpt lat="43.17903" lon="0.87515">
        <ele>414.6</ele>
        <time>2013-12-22T15:30:20</time>
      </trkpt>
      <trkpt lat="43.17902" lon="0.87514">
        <ele>415.3</ele>
        <time>2013-12-22T15:30:21</time>
      </trkpt>
      <trkpt lat="43.17902" lon="0.87513">
        <ele>415.3</ele>
        <time>2013-12-22T15:30:22</time>
      </trkpt>
      <trkpt lat="43.17901" lon="0.87511">
        <ele>415.5</ele>
        <time>2013-12-22T15:30:23</time>
      </trkpt>
      <trkpt lat="43.17901" lon="0.87509">
        <ele>415.9</ele>
        <time>2013-12-22T15:30:24</time>
      </trkpt>
      <trkpt lat="43.17901" lon="0.87508">
        <ele>416</ele>
        <time>2013-12-22T15:30:25</time>
      </trkpt>
      <trkpt lat="43.179" lon="0.87506">
        <ele>415.7</ele>
        <time>2013-12-22T15:30:26</time>
      </trkpt>
      <trkpt lat="43.179" lon="0.87505">
        <ele>416.5</ele>
        <time>2013-12-22T15:30:27</time>
      </trkpt>
      <trkpt lat="43.179" lon="0.87503">
        <ele>415.9</ele>
        <time>2013-12-22T15:30:28</time>
      </trkpt>
      <trkpt lat="43.179" lon="0.87501">
        <ele>415.3</ele>
        <time>2013-12-22T15:30:29</time>
      </trkpt>
      <trkpt lat="43.17899" lon="0.87499">
        <ele>416.9</ele>
        <time>2013-12-22T15:30:30</time>
      </trkpt>
      <trkpt lat="43.17899" lon="0.87498">
        <ele>417.2</ele>
        <time>2013-12-22T15:30:31</time>
      </trkpt>
      <trkpt lat="43.17899" lon="0.87496">
        <ele>417</ele>
        <time>2013-12-22T15:30:32</time>
      </trkpt>
      <trkpt lat="43.17898" lon="0.87495">
        <ele>416.9</ele>
        <time>2013-12-22T15:30:33</time>
      </trkpt>
      <trkpt lat="43.17898" lon="0.87493">
        <ele>417.5</ele>
        <time>2013-12-22T15:30:34</time>
      </trkpt>
      <trkpt lat="43.17897" lon="0.87491">
        <ele>418.2</ele>
        <time>2013-12-22T15:30:35</time>
      </trkpt>
      <trkpt lat="43.17896" lon="0.8749">
        <ele>418.6</ele>
        <time>2013-12-22T15:30:36</time>
      </trkpt>
      <trkpt lat="43.17896" lon="0.87488">
        <ele>419.4</ele>
        <time>2013-12-22T15:30:37</time>
      </trkpt>
      <trkpt lat="43.17895" lon="0.87486">
        <ele>420.3</ele>
        <time>2013-12-22T15:30:38</time>
      </trkpt>
      <trkpt lat="43.17894" lon="0.87485">
        <ele>420.5</ele>
        <time>2013-12-22T15:30:39</time>
      </trkpt>
      <trkpt lat="43.17893" lon="0.87483">
        <ele>420.8</ele>
        <time>2013-12-22T15:30:40</time>
      </trkpt>
      <trkpt lat="43.17893" lon="0.87482">
        <ele>420.4</ele>
        <time>2013-12-22T15:30:41</time>
      </trkpt>
      <trkpt lat="43.17893" lon="0.8748">
        <ele>420.2</ele>
        <time>2013-12-22T15:30:42</time>
      </trkpt>
      <trkpt lat="43.17892" lon="0.87479">
        <ele>419.8</ele>
        <time>2013-12-22T15:30:43</time>
      </trkpt>
      <trkpt lat="43.17891" lon="0.87477">
        <ele>420</ele>
        <time>2013-12-22T15:30:44</time>
      </trkpt>
      <trkpt lat="43.17891" lon="0.87476">
        <ele>420.5</ele>
        <time>2013-12-22T15:30:45</time>
      </trkpt>
      <trkpt lat="43.1789" lon="0.87474">
        <ele>420.8</ele>
        <time>2013-12-22T15:30:46</time>
      </trkpt>
      <trkpt lat="43.17889" lon="0.87473">
        <ele>421.3</ele>
        <time>2013-12-22T15:30:47</time>
      </trkpt>
      <trkpt lat="43.17889" lon="0.87471">
        <ele>422.3</ele>
        <time>2013-12-22T15:30:48</time>
      </trkpt>
      <trkpt lat="43.17888" lon="0.8747">
        <ele>421.9</ele>
        <time>2013-12-22T15:30:49</time>
      </trkpt>
      <trkpt lat="43.17887" lon="0.87468">
        <ele>422.3</ele>
        <time>2013-12-22T15:30:50</time>
      </trkpt>
      <trkpt lat="43.17886" lon="0.87467">
        <ele>421.9</ele>
        <time>2013-12-22T15:30:51</time>
      </trkpt>
      <trkpt lat="43.17885" lon="0.87465">
        <ele>422</ele>
        <time>2013-12-22T15:30:52</time>
      </trkpt>
      <trkpt lat="43.17884" lon="0.87464">
        <ele>422.2</ele>
        <time>2013-12-22T15:30:53</time>
      </trkpt>
      <trkpt lat="43.17884" lon="0.87463">
        <ele>422.2</ele>
        <time>2013-12-22T15:30:54</time>
      </trkpt>
      <trkpt lat="43.17883" lon="0.87461">
        <ele>421.9</ele>
        <time>2013-12-22T15:30:55</time>
      </trkpt>
      <trkpt lat="43.17882" lon="0.8746">
        <ele>421.9</ele>
        <time>2013-12-22T15:30:56</time>
      </trkpt>
      <trkpt lat="43.17881" lon="0.87459">
        <ele>422</ele>
        <time>2013-12-22T15:30:57</time>
      </trkpt>
      <trkpt lat="43.1788" lon="0.87458">
        <ele>422.6</ele>
        <time>2013-12-22T15:30:58</time>
      </trkpt>
      <trkpt lat="43.17879" lon="0.87456">
        <ele>422.2</ele>
        <time>2013-12-22T15:30:59</time>
      </trkpt>
      <trkpt lat="43.17878" lon="0.87455">
        <ele>421.5</ele>
        <time>2013-12-22T15:31:00</time>
      </trkpt>
      <trkpt lat="43.17878" lon="0.87454">
        <ele>421.3</ele>
        <time>2013-12-22T15:31:01</time>
      </trkpt>
      <trkpt lat="43.17876" lon="0.87453">
        <ele>421.6</ele>
        <time>2013-12-22T15:31:02</time>
      </trkpt>
      <trkpt lat="43.17876" lon="0.87452">
        <ele>421.4</ele>
        <time>2013-12-22T15:31:03</time>
      </trkpt>
      <trkpt lat="43.17875" lon="0.87451">
        <ele>421.3</ele>
        <time>2013-12-22T15:31:04</time>
      </trkpt>
      <trkpt lat="43.17874" lon="0.8745">
        <ele>420.8</ele>
        <time>2013-12-22T15:31:05</time>
      </trkpt>
      <trkpt lat="43.17873" lon="0.87449">
        <ele>420.9</ele>
        <time>2013-12-22T15:31:06</time>
      </trkpt>
      <trkpt lat="43.17872" lon="0.87448">
        <ele>421.2</ele>
        <time>2013-12-22T15:31:07</time>
      </trkpt>
      <trkpt lat="43.17871" lon="0.87447">
        <ele>420.7</ele>
        <time>2013-12-22T15:31:08</time>
      </trkpt>
      <trkpt lat="43.1787" lon="0.87446">
        <ele>421</ele>
        <time>2013-12-22T15:31:09</time>
      </trkpt>
      <trkpt lat="43.1787" lon="0.87445">
        <ele>420.7</ele>
        <time>2013-12-22T15:31:10</time>
      </trkpt>
      <trkpt lat="43.17868" lon="0.87444">
        <ele>420.9</ele>
        <time>2013-12-22T15:31:11</time>
      </trkpt>
      <trkpt lat="43.17868" lon="0.87443">
        <ele>420.9</ele>
        <time>2013-12-22T15:31:12</time>
      </trkpt>
      <trkpt lat="43.17867" lon="0.87442">
        <ele>421.7</ele>
        <time>2013-12-22T15:31:13</time>
      </trkpt>
      <trkpt lat="43.17865" lon="0.87441">
        <ele>421.4</ele>
        <time>2013-12-22T15:31:14</time>
      </trkpt>
      <trkpt lat="43.17864" lon="0.8744">
        <ele>421</ele>
        <time>2013-12-22T15:31:15</time>
      </trkpt>
      <trkpt lat="43.17864" lon="0.87439">
        <ele>421.1</ele>
        <time>2013-12-22T15:31:16</time>
      </trkpt>
      <trkpt lat="43.17862" lon="0.87437">
        <ele>421</ele>
        <time>2013-12-22T15:31:17</time>
      </trkpt>
      <trkpt lat="43.17862" lon="0.87436">
        <ele>421</ele>
        <time>2013-12-22T15:31:18</time>
      </trkpt>
      <trkpt lat="43.1786" lon="0.87435">
        <ele>421.8</ele>
        <time>2013-12-22T15:31:19</time>
      </trkpt>
      <trkpt lat="43.17859" lon="0.87434">
        <ele>422</ele>
        <time>2013-12-22T15:31:20</time>
      </trkpt>
      <trkpt lat="43.17858" lon="0.87434">
        <ele>422.1</ele>
        <time>2013-12-22T15:31:21</time>
      </trkpt>
      <trkpt lat="43.17857" lon="0.87433">
        <ele>422</ele>
        <time>2013-12-22T15:31:22</time>
      </trkpt>
      <trkpt lat="43.17856" lon="0.87432">
        <ele>422.2</ele>
        <time>2013-12-22T15:31:23</time>
      </trkpt>
      <trkpt lat="43.17854" lon="0.87431">
        <ele>421.7</ele>
        <time>2013-12-22T15:31:24</time>
      </trkpt>
      <trkpt lat="43.17854" lon="0.8743">
        <ele>421.3</ele>
        <time>2013-12-22T15:31:25</time>
      </trkpt>
      <trkpt lat="43.17852" lon="0.87429">
        <ele>421.6</ele>
        <time>2013-12-22T15:31:26</time>
      </trkpt>
      <trkpt lat="43.17852" lon="0.87428">
        <ele>421.8</ele>
        <time>2013-12-22T15:31:27</time>
      </trkpt>
      <trkpt lat="43.17851" lon="0.87427">
        <ele>421.4</ele>
        <time>2013-12-22T15:31:28</time>
      </trkpt>
      <trkpt lat="43.1785" lon="0.87426">
        <ele>421.1</ele>
        <time>2013-12-22T15:31:29</time>
      </trkpt>
      <trkpt lat="43.17849" lon="0.87425">
        <ele>421.5</ele>
        <time>2013-12-22T15:31:30</time>
      </trkpt>
      <trkpt lat="43.17848" lon="0.87424">
        <ele>421.7</ele>
        <time>2013-12-22T15:31:31</time>
      </trkpt>
      <trkpt lat="43.17847" lon="0.87423">
        <ele>421.9</ele>
        <time>2013-12-22T15:31:32</time>
      </trkpt>
      <trkpt lat="43.17846" lon="0.87422">
        <ele>422.3</ele>
        <time>2013-12-22T15:31:33</time>
      </trkpt>
      <trkpt lat="43.17845" lon="0.87421">
        <ele>421.9</ele>
        <time>2013-12-22T15:31:34</time>
      </trkpt>
      <trkpt lat="43.17844" lon="0.8742">
        <ele>421.7</ele>
        <time>2013-12-22T15:31:35</time>
      </trkpt>
      <trkpt lat="43.17844" lon="0.87419">
        <ele>421.2</ele>
        <time>2013-12-22T15:31:36</time>
      </trkpt>
      <trkpt lat="43.17843" lon="0.87418">
        <ele>421.4</ele>
        <time>2013-12-22T15:31:37</time>
      </trkpt>
      <trkpt lat="43.17842" lon="0.87418">
        <ele>421.6</ele>
        <time>2013-12-22T15:31:38</time>
      </trkpt>
      <trkpt lat="43.17841" lon="0.87417">
        <ele>421.7</ele>
        <time>2013-12-22T15:31:39</time>
      </trkpt>
      <trkpt lat="43.1784" lon="0.87416">
        <ele>421.7</ele>
        <time>2013-12-22T15:31:40</time>
      </trkpt>
      <trkpt lat="43.17839" lon="0.87416">
        <ele>422.2</ele>
        <time>2013-12-22T15:31:41</time>
      </trkpt>
      <trkpt lat="43.17838" lon="0.87415">
        <ele>422.5</ele>
        <time>2013-12-22T15:31:42</time>
      </trkpt>
      <trkpt lat="43.17837" lon="0.87415">
        <ele>422.2</ele>
        <time>2013-12-22T15:31:43</time>
      </trkpt>
      <trkpt lat="43.17836" lon="0.87414">
        <ele>421.9</ele>
        <time>2013-12-22T15:31:44</time>
      </trkpt>
      <trkpt lat="43.17836" lon="0.87413">
        <ele>422.1</ele>
        <time>2013-12-22T15:31:45</time>
      </trkpt>
      <trkpt lat="43.17835" lon="0.87412">
        <ele>421.9</ele>
        <time>2013-12-22T15:31:46</time>
      </trkpt>
      <trkpt lat="43.17835" lon="0.87411">
        <ele>422.3</ele>
        <time>2013-12-22T15:31:47</time>
      </trkpt>
      <trkpt lat="43.17834" lon="0.87411">
        <ele>422.6</ele>
        <time>2013-12-22T15:31:48</time>
      </trkpt>
      <trkpt lat="43.17833" lon="0.8741">
        <ele>422.8</ele>
        <time>2013-12-22T15:31:49</time>
      </trkpt>
      <trkpt lat="43.17832" lon="0.87409">
        <ele>423.2</ele>
        <time>2013-12-22T15:31:50</time>
      </trkpt>
      <trkpt lat="43.17831" lon="0.87409">
        <ele>423.3</ele>
        <time>2013-12-22T15:31:51</time>
      </trkpt>
      <trkpt lat="43.17831" lon="0.87408">
        <ele>423.9</ele>
        <time>2013-12-22T15:31:52</time>
      </trkpt>
      <trkpt lat="43.1783" lon="0.87407">
        <ele>423.8</ele>
        <time>2013-12-22T15:31:53</time>
      </trkpt>
      <trkpt lat="43.1783" lon="0.87406">
        <ele>423.5</ele>
        <time>2013-12-22T15:31:54</time>
      </trkpt>
      <trkpt lat="43.17829" lon="0.87405">
        <ele>424.2</ele>
        <time>2013-12-22T15:31:55</time>
      </trkpt>
      <trkpt lat="43.17828" lon="0.87405">
        <ele>424.6</ele>
        <time>2013-12-22T15:31:56</time>
      </trkpt>
      <trkpt lat="43.17828" lon="0.87404">
        <ele>424.6</ele>
        <time>2013-12-22T15:31:57</time>
      </trkpt>
      <trkpt lat="43.17827" lon="0.87403">
        <ele>425</ele>
        <time>2013-12-22T15:31:58</time>
      </trkpt>
      <trkpt lat="43.17826" lon="0.87402">
        <ele>425</ele>
        <time>2013-12-22T15:31:59</time>
      </trkpt>
      <trkpt lat="43.17826" lon="0.87401">
        <ele>424.9</ele>
        <time>2013-12-22T15:32:00</time>
      </trkpt>
      <trkpt lat="43.17825" lon="0.874">
        <ele>424.9</ele>
        <time>2013-12-22T15:32:01</time>
      </trkpt>
      <trkpt lat="43.17825" lon="0.87399">
        <ele>425.7</ele>
        <time>2013-12-22T15:32:02</time>
      </trkpt>
      <trkpt lat="43.17824" lon="0.87398">
        <ele>425.2</ele>
        <time>2013-12-22T15:32:03</time>
      </trkpt>
      <trkpt lat="43.17823" lon="0.87397">
        <ele>424.8</ele>
        <time>2013-12-22T15:32:04</time>
      </trkpt>
      <trkpt lat="43.17823" lon="0.87396">
        <ele>424.3</ele>
        <time>2013-12-22T15:32:05</time>
      </trkpt>
      <trkpt lat="43.17822" lon="0.87395">
        <ele>424.6</ele>
        <time>2013-12-22T15:32:06</time>
      </trkpt>
      <trkpt lat="43.17822" lon="0.87394">
        <ele>424.5</ele>
        <time>2013-12-22T15:32:07</time>
      </trkpt>
      <trkpt lat="43.17821" lon="0.87394">
        <ele>425.5</ele>
        <time>2013-12-22T15:32:08</time>
      </trkpt>
      <trkpt lat="43.1782" lon="0.87393">
        <ele>425.8</ele>
        <time>2013-12-22T15:32:09</time>
      </trkpt>
      <trkpt lat="43.1782" lon="0.87392">
        <ele>425.6</ele>
        <time>2013-12-22T15:32:10</time>
      </trkpt>
      <trkpt lat="43.17819" lon="0.87391">
        <ele>425.6</ele>
        <time>2013-12-22T15:32:11</time>
      </trkpt>
      <trkpt lat="43.17819" lon="0.8739">
        <ele>426.2</ele>
        <time>2013-12-22T15:32:12</time>
      </trkpt>
      <trkpt lat="43.17819" lon="0.87389">
        <ele>426.2</ele>
        <time>2013-12-22T15:32:13</time>
      </trkpt>
      <trkpt lat="43.17818" lon="0.87388">
        <ele>426.8</ele>
        <time>2013-12-22T15:32:14</time>
      </trkpt>
      <trkpt lat="43.17817" lon="0.87387">
        <ele>427.2</ele>
        <time>2013-12-22T15:32:15</time>
      </trkpt>
      <trkpt lat="43.17817" lon="0.87386">
        <ele>426.9</ele>
        <time>2013-12-22T15:32:16</time>
      </trkpt>
      <trkpt lat="43.17816" lon="0.87385">
        <ele>426.9</ele>
        <time>2013-12-22T15:32:17</time>
      </trkpt>
      <trkpt lat="43.17816" lon="0.87384">
        <ele>427.1</ele>
        <time>2013-12-22T15:32:18</time>
      </trkpt>
      <trkpt lat="43.17815" lon="0.87383">
        <ele>427.1</ele>
        <time>2013-12-22T15:32:19</time>
      </trkpt>
      <trkpt lat="43.17815" lon="0.87382">
        <ele>427.2</ele>
        <time>2013-12-22T15:32:20</time>
      </trkpt>
      <trkpt lat="43.17814" lon="0.87381">
        <ele>427</ele>
        <time>2013-12-22T15:32:21</time>
      </trkpt>
      <trkpt lat="43.17814" lon="0.87381">
        <ele>427.1</ele>
        <time>2013-12-22T15:32:22</time>
      </trkpt>
      <trkpt lat="43.17814" lon="0.87379">
        <ele>426.6</ele>
        <time>2013-12-22T15:32:23</time>
      </trkpt>
      <trkpt lat="43.17813" lon="0.87378">
        <ele>426.7</ele>
        <time>2013-12-22T15:32:24</time>
      </trkpt>
      <trkpt lat="43.17813" lon="0.87377">
        <ele>427</ele>
        <time>2013-12-22T15:32:25</time>
      </trkpt>
      <trkpt lat="43.17812" lon="0.87376">
        <ele>427.4</ele>
        <time>2013-12-22T15:32:26</time>
      </trkpt>
      <trkpt lat="43.17812" lon="0.87375">
        <ele>427.3</ele>
        <time>2013-12-22T15:32:27</time>
      </trkpt>
      <trkpt lat="43.17812" lon="0.87374">
        <ele>427.8</ele>
        <time>2013-12-22T15:32:28</time>
      </trkpt>
      <trkpt lat="43.17812" lon="0.87373">
        <ele>428.3</ele>
        <time>2013-12-22T15:32:29</time>
      </trkpt>
      <trkpt lat="43.17812" lon="0.87371">
        <ele>428.3</ele>
        <time>2013-12-22T15:32:30</time>
      </trkpt>
      <trkpt lat="43.17811" lon="0.8737">
        <ele>428.6</ele>
        <time>2013-12-22T15:32:31</time>
      </trkpt>
      <trkpt lat="43.17811" lon="0.87369">
        <ele>428.9</ele>
        <time>2013-12-22T15:32:32</time>
      </trkpt>
      <trkpt lat="43.17811" lon="0.87368">
        <ele>429.1</ele>
        <time>2013-12-22T15:32:33</time>
      </trkpt>
      <trkpt lat="43.17811" lon="0.87366">
        <ele>429.4</ele>
        <time>2013-12-22T15:32:34</time>
      </trkpt>
      <trkpt lat="43.17812" lon="0.87365">
        <ele>429.3</ele>
        <time>2013-12-22T15:32:35</time>
      </trkpt>
      <trkpt lat="43.17812" lon="0.87364">
        <ele>429.5</ele>
        <time>2013-12-22T15:32:36</time>
      </trkpt>
      <trkpt lat="43.17813" lon="0.87363">
        <ele>429.7</ele>
        <time>2013-12-22T15:32:37</time>
      </trkpt>
      <trkpt lat="43.17814" lon="0.87362">
        <ele>429.5</ele>
        <time>2013-12-22T15:32:38</time>
      </trkpt>
      <trkpt lat="43.17814" lon="0.87361">
        <ele>429.2</ele>
        <time>2013-12-22T15:32:39</time>
      </trkpt>
      <trkpt lat="43.17815" lon="0.87361">
        <ele>429.4</ele>
        <time>2013-12-22T15:32:40</time>
      </trkpt>
      <trkpt lat="43.17815" lon="0.8736">
        <ele>429.3</ele>
        <time>2013-12-22T15:32:41</time>
      </trkpt>
      <trkpt lat="43.17816" lon="0.87359">
        <ele>429.4</ele>
        <time>2013-12-22T15:32:42</time>
      </trkpt>
      <trkpt lat="43.17817" lon="0.87358">
        <ele>429.3</ele>
        <time>2013-12-22T15:32:43</time>
      </trkpt>
      <trkpt lat="43.17817" lon="0.87357">
        <ele>429.3</ele>
        <time>2013-12-22T15:32:44</time>
      </trkpt>
      <trkpt lat="43.17818" lon="0.87357">
        <ele>428.9</ele>
        <time>2013-12-22T15:32:45</time>
      </trkpt>
      <trkpt lat="43.17819" lon="0.87356">
        <ele>428.9</ele>
        <time>2013-12-22T15:32:46</time>
      </trkpt>
      <trkpt lat="43.17819" lon="0.87355">
        <ele>428.8</ele>
        <time>2013-12-22T15:32:47</time>
      </trkpt>
      <trkpt lat="43.17819" lon="0.87355">
        <ele>428.9</ele>
        <time>2013-12-22T15:32:48</time>
      </trkpt>
      <trkpt lat="43.1782" lon="0.87354">
        <ele>428.7</ele>
        <time>2013-12-22T15:32:49</time>
      </trkpt>
      <trkpt lat="43.17821" lon="0.87353">
        <ele>427.9</ele>
        <time>2013-12-22T15:32:50</time>
      </trkpt>
      <trkpt lat="43.17821" lon="0.87353">
        <ele>428</ele>
        <time>2013-12-22T15:32:51</time>
      </trkpt>
      <trkpt lat="43.17822" lon="0.87352">
        <ele>427.7</ele>
        <time>2013-12-22T15:32:52</time>
      </trkpt>
      <trkpt lat="43.17822" lon="0.87351">
        <ele>427.6</ele>
        <time>2013-12-22T15:32:53</time>
      </trkpt>
      <trkpt lat="43.17823" lon="0.8735">
        <ele>427.1</ele>
        <time>2013-12-22T15:32:54</time>
      </trkpt>
      <trkpt lat="43.17823" lon="0.8735">
        <ele>427.4</ele>
        <time>2013-12-22T15:32:55</time>
      </trkpt>
      <trkpt lat="43.17823" lon="0.87349">
        <ele>427.5</ele>
        <time>2013-12-22T15:32:56</time>
      </trkpt>
      <trkpt lat="43.17823" lon="0.87348">
        <ele>427.9</ele>
        <time>2013-12-22T15:32:57</time>
      </trkpt>
      <trkpt lat="43.17823" lon="0.87347">
        <ele>428.4</ele>
        <time>2013-12-22T15:32:58</time>
      </trkpt>
      <trkpt lat="43.17823" lon="0.87346">
        <ele>429.2</ele>
        <time>2013-12-22T15:32:59</time>
      </trkpt>
      <trkpt lat="43.17823" lon="0.87345">
        <ele>430.1</ele>
        <time>2013-12-22T15:33:00</time>
      </trkpt>
      <trkpt lat="43.17822" lon="0.87344">
        <ele>430.7</ele>
        <time>2013-12-22T15:33:01</time>
      </trkpt>
      <trkpt lat="43.17822" lon="0.87342">
        <ele>431.4</ele>
        <time>2013-12-22T15:33:02</time>
      </trkpt>
      <trkpt lat="43.17821" lon="0.87341">
        <ele>431.8</ele>
        <time>2013-12-22T15:33:03</time>
      </trkpt>
      <trkpt lat="43.1782" lon="0.8734">
        <ele>431.7</ele>
        <time>2013-12-22T15:33:04</time>
      </trkpt>
      <trkpt lat="43.1782" lon="0.87338">
        <ele>432.4</ele>
        <time>2013-12-22T15:33:05</time>
      </trkpt>
      <trkpt lat="43.17819" lon="0.87337">
        <ele>432.7</ele>
        <time>2013-12-22T15:33:06</time>
      </trkpt>
      <trkpt lat="43.17819" lon="0.87336">
        <ele>432.8</ele>
        <time>2013-12-22T15:33:07</time>
      </trkpt>
      <trkpt lat="43.17818" lon="0.87335">
        <ele>432.8</ele>
        <time>2013-12-22T15:33:08</time>
      </trkpt>
      <trkpt lat="43.17817" lon="0.87334">
        <ele>433</ele>
        <time>2013-12-22T15:33:09</time>
      </trkpt>
      <trkpt lat="43.17816" lon="0.87333">
        <ele>433.2</ele>
        <time>2013-12-22T15:33:10</time>
      </trkpt>
      <trkpt lat="43.17815" lon="0.87331">
        <ele>432.8</ele>
        <time>2013-12-22T15:33:11</time>
      </trkpt>
      <trkpt lat="43.17814" lon="0.87331">
        <ele>433</ele>
        <time>2013-12-22T15:33:12</time>
      </trkpt>
      <trkpt lat="43.17814" lon="0.8733">
        <ele>432.9</ele>
        <time>2013-12-22T15:33:13</time>
      </trkpt>
      <trkpt lat="43.17812" lon="0.87329">
        <ele>432.8</ele>
        <time>2013-12-22T15:33:14</time>
      </trkpt>
      <trkpt lat="43.17812" lon="0.87328">
        <ele>432.8</ele>
        <time>2013-12-22T15:33:15</time>
      </trkpt>
      <trkpt lat="43.17811" lon="0.87327">
        <ele>432.8</ele>
        <time>2013-12-22T15:33:16</time>
      </trkpt>
      <trkpt lat="43.1781" lon="0.87326">
        <ele>433.4</ele>
        <time>2013-12-22T15:33:17</time>
      </trkpt>
      <trkpt lat="43.17809" lon="0.87325">
        <ele>433.4</ele>
        <time>2013-12-22T15:33:18</time>
      </trkpt>
      <trkpt lat="43.17808" lon="0.87324">
        <ele>433.5</ele>
        <time>2013-12-22T15:33:19</time>
      </trkpt>
      <trkpt lat="43.17807" lon="0.87322">
        <ele>433.6</ele>
        <time>2013-12-22T15:33:20</time>
      </trkpt>
      <trkpt lat="43.17806" lon="0.87321">
        <ele>433.7</ele>
        <time>2013-12-22T15:33:21</time>
      </trkpt>
      <trkpt lat="43.17806" lon="0.8732">
        <ele>434.3</ele>
        <time>2013-12-22T15:33:22</time>
      </trkpt>
      <trkpt lat="43.17805" lon="0.87319">
        <ele>434.4</ele>
        <time>2013-12-22T15:33:23</time>
      </trkpt>
      <trkpt lat="43.17804" lon="0.87319">
        <ele>434.5</ele>
        <time>2013-12-22T15:33:24</time>
      </trkpt>
      <trkpt lat="43.17802" lon="0.87318">
        <ele>434.6</ele>
        <time>2013-12-22T15:33:25</time>
      </trkpt>
      <trkpt lat="43.17802" lon="0.87317">
        <ele>434.9</ele>
        <time>2013-12-22T15:33:26</time>
      </trkpt>
      <trkpt lat="43.17801" lon="0.87316">
        <ele>434.4</ele>
        <time>2013-12-22T15:33:27</time>
      </trkpt>
      <trkpt lat="43.178" lon="0.87315">
        <ele>434.8</ele>
        <time>2013-12-22T15:33:28</time>
      </trkpt>
      <trkpt lat="43.17799" lon="0.87315">
        <ele>435.1</ele>
        <time>2013-12-22T15:33:29</time>
      </trkpt>
      <trkpt lat="43.17798" lon="0.87314">
        <ele>435.4</ele>
        <time>2013-12-22T15:33:30</time>
      </trkpt>
      <trkpt lat="43.17797" lon="0.87313">
        <ele>435.3</ele>
        <time>2013-12-22T15:33:31</time>
      </trkpt>
      <trkpt lat="43.17796" lon="0.87312">
        <ele>435</ele>
        <time>2013-12-22T15:33:32</time>
      </trkpt>
      <trkpt lat="43.17795" lon="0.87311">
        <ele>435.1</ele>
        <time>2013-12-22T15:33:33</time>
      </trkpt>
      <trkpt lat="43.17794" lon="0.87311">
        <ele>434.8</ele>
        <time>2013-12-22T15:33:34</time>
      </trkpt>
      <trkpt lat="43.17794" lon="0.8731">
        <ele>434.6</ele>
        <time>2013-12-22T15:33:35</time>
      </trkpt>
      <trkpt lat="43.17793" lon="0.87309">
        <ele>434.8</ele>
        <time>2013-12-22T15:33:36</time>
      </trkpt>
      <trkpt lat="43.17793" lon="0.87309">
        <ele>434.7</ele>
        <time>2013-12-22T15:33:40</time>
      </trkpt>
      <trkpt lat="43.17792" lon="0.87308">
        <ele>434.6</ele>
        <time>2013-12-22T15:33:41</time>
      </trkpt>
      <trkpt lat="43.17791" lon="0.87307">
        <ele>434.7</ele>
        <time>2013-12-22T15:33:42</time>
      </trkpt>
      <trkpt lat="43.17791" lon="0.87306">
        <ele>434.6</ele>
        <time>2013-12-22T15:33:43</time>
      </trkpt>
      <trkpt lat="43.1779" lon="0.87305">
        <ele>434.6</ele>
        <time>2013-12-22T15:33:44</time>
      </trkpt>
      <trkpt lat="43.17789" lon="0.87305">
        <ele>434.4</ele>
        <time>2013-12-22T15:33:45</time>
      </trkpt>
      <trkpt lat="43.17788" lon="0.87304">
        <ele>434.8</ele>
        <time>2013-12-22T15:33:46</time>
      </trkpt>
      <trkpt lat="43.17787" lon="0.87304">
        <ele>435.1</ele>
        <time>2013-12-22T15:33:47</time>
      </trkpt>
      <trkpt lat="43.17786" lon="0.87303">
        <ele>434.2</ele>
        <time>2013-12-22T15:33:48</time>
      </trkpt>
      <trkpt lat="43.17785" lon="0.87302">
        <ele>434.4</ele>
        <time>2013-12-22T15:33:49</time>
      </trkpt>
      <trkpt lat="43.17784" lon="0.87301">
        <ele>434.1</ele>
        <time>2013-12-22T15:33:50</time>
      </trkpt>
      <trkpt lat="43.17783" lon="0.873">
        <ele>434.2</ele>
        <time>2013-12-22T15:33:51</time>
      </trkpt>
      <trkpt lat="43.17783" lon="0.87299">
        <ele>434.1</ele>
        <time>2013-12-22T15:33:52</time>
      </trkpt>
      <trkpt lat="43.17781" lon="0.87297">
        <ele>434.2</ele>
        <time>2013-12-22T15:33:53</time>
      </trkpt>
      <trkpt lat="43.17781" lon="0.87297">
        <ele>434.3</ele>
        <time>2013-12-22T15:33:54</time>
      </trkpt>
      <trkpt lat="43.1778" lon="0.87296">
        <ele>433.5</ele>
        <time>2013-12-22T15:33:55</time>
      </trkpt>
      <trkpt lat="43.17779" lon="0.87294">
        <ele>433.6</ele>
        <time>2013-12-22T15:33:56</time>
      </trkpt>
      <trkpt lat="43.17778" lon="0.87293">
        <ele>433.6</ele>
        <time>2013-12-22T15:33:57</time>
      </trkpt>
      <trkpt lat="43.17777" lon="0.87292">
        <ele>434</ele>
        <time>2013-12-22T15:33:58</time>
      </trkpt>
      <trkpt lat="43.17776" lon="0.87291">
        <ele>434.6</ele>
        <time>2013-12-22T15:33:59</time>
      </trkpt>
      <trkpt lat="43.17775" lon="0.8729">
        <ele>434.4</ele>
        <time>2013-12-22T15:34:00</time>
      </trkpt>
      <trkpt lat="43.17774" lon="0.87289">
        <ele>434.2</ele>
        <time>2013-12-22T15:34:01</time>
      </trkpt>
      <trkpt lat="43.17773" lon="0.87289">
        <ele>434.2</ele>
        <time>2013-12-22T15:34:02</time>
      </trkpt>
      <trkpt lat="43.17772" lon="0.87288">
        <ele>435.1</ele>
        <time>2013-12-22T15:34:03</time>
      </trkpt>
      <trkpt lat="43.17771" lon="0.87287">
        <ele>435</ele>
        <time>2013-12-22T15:34:04</time>
      </trkpt>
      <trkpt lat="43.1777" lon="0.87286">
        <ele>434</ele>
        <time>2013-12-22T15:34:05</time>
      </trkpt>
      <trkpt lat="43.17769" lon="0.87285">
        <ele>434.2</ele>
        <time>2013-12-22T15:34:06</time>
      </trkpt>
      <trkpt lat="43.17769" lon="0.87284">
        <ele>434.1</ele>
        <time>2013-12-22T15:34:07</time>
      </trkpt>
      <trkpt lat="43.17767" lon="0.87283">
        <ele>435</ele>
        <time>2013-12-22T15:34:08</time>
      </trkpt>
      <trkpt lat="43.17767" lon="0.87283">
        <ele>435</ele>
        <time>2013-12-22T15:34:09</time>
      </trkpt>
      <trkpt lat="43.17765" lon="0.87282">
        <ele>434.9</ele>
        <time>2013-12-22T15:34:10</time>
      </trkpt>
      <trkpt lat="43.17765" lon="0.87281">
        <ele>435.3</ele>
        <time>2013-12-22T15:34:11</time>
      </trkpt>
      <trkpt lat="43.17764" lon="0.8728">
        <ele>434.9</ele>
        <time>2013-12-22T15:34:12</time>
      </trkpt>
      <trkpt lat="43.17763" lon="0.87279">
        <ele>434.6</ele>
        <time>2013-12-22T15:34:13</time>
      </trkpt>
      <trkpt lat="43.17762" lon="0.87278">
        <ele>434.3</ele>
        <time>2013-12-22T15:34:14</time>
      </trkpt>
      <trkpt lat="43.17761" lon="0.87277">
        <ele>434.3</ele>
        <time>2013-12-22T15:34:15</time>
      </trkpt>
      <trkpt lat="43.17761" lon="0.87276">
        <ele>433.8</ele>
        <time>2013-12-22T15:34:16</time>
      </trkpt>
      <trkpt lat="43.1776" lon="0.87275">
        <ele>432.1</ele>
        <time>2013-12-22T15:34:17</time>
      </trkpt>
      <trkpt lat="43.17759" lon="0.87274">
        <ele>431.7</ele>
        <time>2013-12-22T15:34:18</time>
      </trkpt>
      <trkpt lat="43.17759" lon="0.87273">
        <ele>431.8</ele>
        <time>2013-12-22T15:34:19</time>
      </trkpt>
      <trkpt lat="43.17758" lon="0.87272">
        <ele>432.3</ele>
        <time>2013-12-22T15:34:20</time>
      </trkpt>
      <trkpt lat="43.17757" lon="0.87271">
        <ele>432.5</ele>
        <time>2013-12-22T15:34:21</time>
      </trkpt>
      <trkpt lat="43.17756" lon="0.8727">
        <ele>432.6</ele>
        <time>2013-12-22T15:34:22</time>
      </trkpt>
      <trkpt lat="43.17756" lon="0.87269">
        <ele>432.4</ele>
        <time>2013-12-22T15:34:23</time>
      </trkpt>
      <trkpt lat="43.17755" lon="0.87268">
        <ele>432.3</ele>
        <time>2013-12-22T15:34:24</time>
      </trkpt>
      <trkpt lat="43.17754" lon="0.87267">
        <ele>432.9</ele>
        <time>2013-12-22T15:34:25</time>
      </trkpt>
      <trkpt lat="43.17753" lon="0.87266">
        <ele>432.8</ele>
        <time>2013-12-22T15:34:26</time>
      </trkpt>
      <trkpt lat="43.17753" lon="0.87266">
        <ele>432.3</ele>
        <time>2013-12-22T15:34:27</time>
      </trkpt>
      <trkpt lat="43.17751" lon="0.87265">
        <ele>431.6</ele>
        <time>2013-12-22T15:34:28</time>
      </trkpt>
      <trkpt lat="43.17751" lon="0.87264">
        <ele>431.3</ele>
        <time>2013-12-22T15:34:29</time>
      </trkpt>
      <trkpt lat="43.1775" lon="0.87263">
        <ele>431.1</ele>
        <time>2013-12-22T15:34:30</time>
      </trkpt>
      <trkpt lat="43.17749" lon="0.87262">
        <ele>431.1</ele>
        <time>2013-12-22T15:34:31</time>
      </trkpt>
      <trkpt lat="43.17749" lon="0.87261">
        <ele>431.3</ele>
        <time>2013-12-22T15:34:32</time>
      </trkpt>
      <trkpt lat="43.17748" lon="0.8726">
        <ele>431.4</ele>
        <time>2013-12-22T15:34:33</time>
      </trkpt>
      <trkpt lat="43.17747" lon="0.87259">
        <ele>430.5</ele>
        <time>2013-12-22T15:34:34</time>
      </trkpt>
      <trkpt lat="43.17747" lon="0.87257">
        <ele>430.8</ele>
        <time>2013-12-22T15:34:35</time>
      </trkpt>
      <trkpt lat="43.17746" lon="0.87256">
        <ele>431.8</ele>
        <time>2013-12-22T15:34:36</time>
      </trkpt>
      <trkpt lat="43.17746" lon="0.87255">
        <ele>431.8</ele>
        <time>2013-12-22T15:34:37</time>
      </trkpt>
      <trkpt lat="43.17745" lon="0.87254">
        <ele>431.6</ele>
        <time>2013-12-22T15:34:38</time>
      </trkpt>
      <trkpt lat="43.17744" lon="0.87252">
        <ele>431.6</ele>
        <time>2013-12-22T15:34:39</time>
      </trkpt>
      <trkpt lat="43.17743" lon="0.87251">
        <ele>432</ele>
        <time>2013-12-22T15:34:40</time>
      </trkpt>
      <trkpt lat="43.17742" lon="0.8725">
        <ele>432</ele>
        <time>2013-12-22T15:34:41</time>
      </trkpt>
      <trkpt lat="43.17741" lon="0.87249">
        <ele>431.6</ele>
        <time>2013-12-22T15:34:42</time>
      </trkpt>
      <trkpt lat="43.1774" lon="0.87248">
        <ele>431.6</ele>
        <time>2013-12-22T15:34:43</time>
      </trkpt>
      <trkpt lat="43.1774" lon="0.87247">
        <ele>431.7</ele>
        <time>2013-12-22T15:34:44</time>
      </trkpt>
      <trkpt lat="43.17738" lon="0.87246">
        <ele>431.8</ele>
        <time>2013-12-22T15:34:45</time>
      </trkpt>
      <trkpt lat="43.17738" lon="0.87244">
        <ele>431.4</ele>
        <time>2013-12-22T15:34:46</time>
      </trkpt>
      <trkpt lat="43.17737" lon="0.87243">
        <ele>431.3</ele>
        <time>2013-12-22T15:34:47</time>
      </trkpt>
      <trkpt lat="43.17736" lon="0.87242">
        <ele>431</ele>
        <time>2013-12-22T15:34:48</time>
      </trkpt>
      <trkpt lat="43.17735" lon="0.87241">
        <ele>431.6</ele>
        <time>2013-12-22T15:34:49</time>
      </trkpt>
      <trkpt lat="43.17735" lon="0.8724">
        <ele>430.9</ele>
        <time>2013-12-22T15:34:50</time>
      </trkpt>
      <trkpt lat="43.17734" lon="0.87238">
        <ele>431.7</ele>
        <time>2013-12-22T15:34:51</time>
      </trkpt>
      <trkpt lat="43.17734" lon="0.87237">
        <ele>431.6</ele>
        <time>2013-12-22T15:34:52</time>
      </trkpt>
      <trkpt lat="43.17733" lon="0.87235">
        <ele>431.7</ele>
        <time>2013-12-22T15:34:53</time>
      </trkpt>
      <trkpt lat="43.17733" lon="0.87234">
        <ele>431.5</ele>
        <time>2013-12-22T15:34:54</time>
      </trkpt>
      <trkpt lat="43.17732" lon="0.87233">
        <ele>431.2</ele>
        <time>2013-12-22T15:34:55</time>
      </trkpt>
      <trkpt lat="43.17732" lon="0.87232">
        <ele>431.4</ele>
        <time>2013-12-22T15:34:56</time>
      </trkpt>
      <trkpt lat="43.17731" lon="0.87231">
        <ele>432.2</ele>
        <time>2013-12-22T15:34:57</time>
      </trkpt>
      <trkpt lat="43.1773" lon="0.8723">
        <ele>432.1</ele>
        <time>2013-12-22T15:34:58</time>
      </trkpt>
      <trkpt lat="43.1773" lon="0.87228">
        <ele>431.9</ele>
        <time>2013-12-22T15:34:59</time>
      </trkpt>
      <trkpt lat="43.1773" lon="0.87227">
        <ele>431.7</ele>
        <time>2013-12-22T15:35:00</time>
      </trkpt>
      <trkpt lat="43.1773" lon="0.87226">
        <ele>431.8</ele>
        <time>2013-12-22T15:35:01</time>
      </trkpt>
      <trkpt lat="43.17729" lon="0.87224">
        <ele>432</ele>
        <time>2013-12-22T15:35:02</time>
      </trkpt>
      <trkpt lat="43.17729" lon="0.87223">
        <ele>432.2</ele>
        <time>2013-12-22T15:35:03</time>
      </trkpt>
      <trkpt lat="43.17729" lon="0.87221">
        <ele>432</ele>
        <time>2013-12-22T15:35:04</time>
      </trkpt>
      <trkpt lat="43.17729" lon="0.8722">
        <ele>431.9</ele>
        <time>2013-12-22T15:35:05</time>
      </trkpt>
      <trkpt lat="43.17729" lon="0.87218">
        <ele>431.9</ele>
        <time>2013-12-22T15:35:06</time>
      </trkpt>
      <trkpt lat="43.17729" lon="0.87216">
        <ele>432.1</ele>
        <time>2013-12-22T15:35:07</time>
      </trkpt>
      <trkpt lat="43.17729" lon="0.87215">
        <ele>432.3</ele>
        <time>2013-12-22T15:35:08</time>
      </trkpt>
      <trkpt lat="43.17729" lon="0.87213">
        <ele>432.7</ele>
        <time>2013-12-22T15:35:09</time>
      </trkpt>
      <trkpt lat="43.17728" lon="0.87212">
        <ele>433.1</ele>
        <time>2013-12-22T15:35:10</time>
      </trkpt>
      <trkpt lat="43.17728" lon="0.8721">
        <ele>432.8</ele>
        <time>2013-12-22T15:35:11</time>
      </trkpt>
      <trkpt lat="43.17728" lon="0.87209">
        <ele>432.4</ele>
        <time>2013-12-22T15:35:12</time>
      </trkpt>
      <trkpt lat="43.17728" lon="0.87208">
        <ele>432.4</ele>
        <time>2013-12-22T15:35:13</time>
      </trkpt>
      <trkpt lat="43.17728" lon="0.87206">
        <ele>432.4</ele>
        <time>2013-12-22T15:35:14</time>
      </trkpt>
      <trkpt lat="43.17728" lon="0.87205">
        <ele>433.8</ele>
        <time>2013-12-22T15:35:29</time>
      </trkpt>
      <trkpt lat="43.17728" lon="0.87204">
        <ele>433.5</ele>
        <time>2013-12-22T15:35:30</time>
      </trkpt>
      <trkpt lat="43.17728" lon="0.87202">
        <ele>433.6</ele>
        <time>2013-12-22T15:35:31</time>
      </trkpt>
      <trkpt lat="43.17728" lon="0.87201">
        <ele>433.8</ele>
        <time>2013-12-22T15:35:32</time>
      </trkpt>
      <trkpt lat="43.17728" lon="0.87199">
        <ele>434.1</ele>
        <time>2013-12-22T15:35:33</time>
      </trkpt>
      <trkpt lat="43.17728" lon="0.87198">
        <ele>434.3</ele>
        <time>2013-12-22T15:35:34</time>
      </trkpt>
      <trkpt lat="43.17728" lon="0.87197">
        <ele>434.6</ele>
        <time>2013-12-22T15:35:35</time>
      </trkpt>
      <trkpt lat="43.17728" lon="0.87195">
        <ele>434.8</ele>
        <time>2013-12-22T15:35:36</time>
      </trkpt>
      <trkpt lat="43.17728" lon="0.87194">
        <ele>434.8</ele>
        <time>2013-12-22T15:35:37</time>
      </trkpt>
      <trkpt lat="43.17728" lon="0.87193">
        <ele>435.2</ele>
        <time>2013-12-22T15:35:38</time>
      </trkpt>
      <trkpt lat="43.17728" lon="0.87191">
        <ele>434.6</ele>
        <time>2013-12-22T15:35:39</time>
      </trkpt>
      <trkpt lat="43.17728" lon="0.8719">
        <ele>434.3</ele>
        <time>2013-12-22T15:35:40</time>
      </trkpt>
      <trkpt lat="43.17728" lon="0.87188">
        <ele>434.3</ele>
        <time>2013-12-22T15:35:41</time>
      </trkpt>
      <trkpt lat="43.17728" lon="0.87187">
        <ele>434.6</ele>
        <time>2013-12-22T15:35:42</time>
      </trkpt>
      <trkpt lat="43.17728" lon="0.87186">
        <ele>434.9</ele>
        <time>2013-12-22T15:35:43</time>
      </trkpt>
      <trkpt lat="43.17728" lon="0.87185">
        <ele>434.8</ele>
        <time>2013-12-22T15:35:44</time>
      </trkpt>
      <trkpt lat="43.17728" lon="0.87183">
        <ele>435.4</ele>
        <time>2013-12-22T15:35:45</time>
      </trkpt>
      <trkpt lat="43.17728" lon="0.87182">
        <ele>435.7</ele>
        <time>2013-12-22T15:35:46</time>
      </trkpt>
      <trkpt lat="43.17728" lon="0.87181">
        <ele>435.6</ele>
        <time>2013-12-22T15:35:47</time>
      </trkpt>
      <trkpt lat="43.17728" lon="0.8718">
        <ele>435.4</ele>
        <time>2013-12-22T15:35:48</time>
      </trkpt>
      <trkpt lat="43.17728" lon="0.87179">
        <ele>434.9</ele>
        <time>2013-12-22T15:35:49</time>
      </trkpt>
      <trkpt lat="43.17728" lon="0.87178">
        <ele>435</ele>
        <time>2013-12-22T15:35:50</time>
      </trkpt>
      <trkpt lat="43.17729" lon="0.87177">
        <ele>434.8</ele>
        <time>2013-12-22T15:35:51</time>
      </trkpt>
      <trkpt lat="43.17729" lon="0.87175">
        <ele>434.6</ele>
        <time>2013-12-22T15:35:52</time>
      </trkpt>
      <trkpt lat="43.1773" lon="0.87174">
        <ele>434.4</ele>
        <time>2013-12-22T15:35:53</time>
      </trkpt>
      <trkpt lat="43.1773" lon="0.87173">
        <ele>434</ele>
        <time>2013-12-22T15:35:54</time>
      </trkpt>
      <trkpt lat="43.1773" lon="0.87172">
        <ele>433.8</ele>
        <time>2013-12-22T15:35:55</time>
      </trkpt>
      <trkpt lat="43.1773" lon="0.87171">
        <ele>433.5</ele>
        <time>2013-12-22T15:35:56</time>
      </trkpt>
      <trkpt lat="43.1773" lon="0.8717">
        <ele>433.4</ele>
        <time>2013-12-22T15:35:57</time>
      </trkpt>
      <trkpt lat="43.17731" lon="0.87169">
        <ele>433.5</ele>
        <time>2013-12-22T15:35:58</time>
      </trkpt>
      <trkpt lat="43.17731" lon="0.87168">
        <ele>433.5</ele>
        <time>2013-12-22T15:35:59</time>
      </trkpt>
      <trkpt lat="43.17731" lon="0.87167">
        <ele>433.3</ele>
        <time>2013-12-22T15:36:00</time>
      </trkpt>
      <trkpt lat="43.17732" lon="0.87166">
        <ele>433.1</ele>
        <time>2013-12-22T15:36:01</time>
      </trkpt>
      <trkpt lat="43.17732" lon="0.87165">
        <ele>433.4</ele>
        <time>2013-12-22T15:36:02</time>
      </trkpt>
      <trkpt lat="43.17733" lon="0.87164">
        <ele>433.2</ele>
        <time>2013-12-22T15:36:03</time>
      </trkpt>
      <trkpt lat="43.17733" lon="0.87163">
        <ele>433.3</ele>
        <time>2013-12-22T15:36:04</time>
      </trkpt>
      <trkpt lat="43.17733" lon="0.87162">
        <ele>433.2</ele>
        <time>2013-12-22T15:36:05</time>
      </trkpt>
      <trkpt lat="43.17733" lon="0.8716">
        <ele>433.6</ele>
        <time>2013-12-22T15:36:06</time>
      </trkpt>
      <trkpt lat="43.17734" lon="0.87159">
        <ele>433.4</ele>
        <time>2013-12-22T15:36:07</time>
      </trkpt>
      <trkpt lat="43.17735" lon="0.87158">
        <ele>433.5</ele>
        <time>2013-12-22T15:36:08</time>
      </trkpt>
      <trkpt lat="43.17734" lon="0.87153">
        <ele>432.7</ele>
        <time>2013-12-22T15:36:17</time>
      </trkpt>
      <trkpt lat="43.17735" lon="0.87152">
        <ele>432.6</ele>
        <time>2013-12-22T15:36:18</time>
      </trkpt>
      <trkpt lat="43.17735" lon="0.87152">
        <ele>432.3</ele>
        <time>2013-12-22T15:36:19</time>
      </trkpt>
      <trkpt lat="43.17736" lon="0.87151">
        <ele>431.8</ele>
        <time>2013-12-22T15:36:20</time>
      </trkpt>
      <trkpt lat="43.17736" lon="0.8715">
        <ele>431.4</ele>
        <time>2013-12-22T15:36:21</time>
      </trkpt>
      <trkpt lat="43.17737" lon="0.87149">
        <ele>431.7</ele>
        <time>2013-12-22T15:36:22</time>
      </trkpt>
      <trkpt lat="43.17738" lon="0.87148">
        <ele>431.3</ele>
        <time>2013-12-22T15:36:23</time>
      </trkpt>
      <trkpt lat="43.17738" lon="0.87146">
        <ele>431.3</ele>
        <time>2013-12-22T15:36:24</time>
      </trkpt>
      <trkpt lat="43.17738" lon="0.87145">
        <ele>431.3</ele>
        <time>2013-12-22T15:36:25</time>
      </trkpt>
      <trkpt lat="43.17739" lon="0.87144">
        <ele>431</ele>
        <time>2013-12-22T15:36:26</time>
      </trkpt>
      <trkpt lat="43.17739" lon="0.87143">
        <ele>431</ele>
        <time>2013-12-22T15:36:27</time>
      </trkpt>
      <trkpt lat="43.1774" lon="0.87141">
        <ele>430.9</ele>
        <time>2013-12-22T15:36:28</time>
      </trkpt>
      <trkpt lat="43.1774" lon="0.8714">
        <ele>430.8</ele>
        <time>2013-12-22T15:36:29</time>
      </trkpt>
      <trkpt lat="43.1774" lon="0.87139">
        <ele>429.1</ele>
        <time>2013-12-22T15:36:30</time>
      </trkpt>
      <trkpt lat="43.17741" lon="0.87137">
        <ele>429.8</ele>
        <time>2013-12-22T15:36:31</time>
      </trkpt>
      <trkpt lat="43.17741" lon="0.87136">
        <ele>429.9</ele>
        <time>2013-12-22T15:36:32</time>
      </trkpt>
      <trkpt lat="43.17742" lon="0.87135">
        <ele>429.3</ele>
        <time>2013-12-22T15:36:33</time>
      </trkpt>
      <trkpt lat="43.17743" lon="0.87134">
        <ele>428.3</ele>
        <time>2013-12-22T15:36:34</time>
      </trkpt>
      <trkpt lat="43.17743" lon="0.87132">
        <ele>427.7</ele>
        <time>2013-12-22T15:36:36</time>
      </trkpt>
      <trkpt lat="43.17743" lon="0.87131">
        <ele>428.2</ele>
        <time>2013-12-22T15:36:37</time>
      </trkpt>
      <trkpt lat="43.17743" lon="0.87129">
        <ele>428.1</ele>
        <time>2013-12-22T15:36:38</time>
      </trkpt>
      <trkpt lat="43.17744" lon="0.87128">
        <ele>429.6</ele>
        <time>2013-12-22T15:36:39</time>
      </trkpt>
      <trkpt lat="43.17744" lon="0.87126">
        <ele>429.8</ele>
        <time>2013-12-22T15:36:40</time>
      </trkpt>
      <trkpt lat="43.17744" lon="0.87125">
        <ele>429.9</ele>
        <time>2013-12-22T15:36:41</time>
      </trkpt>
      <trkpt lat="43.17744" lon="0.87123">
        <ele>429.8</ele>
        <time>2013-12-22T15:36:42</time>
      </trkpt>
      <trkpt lat="43.17744" lon="0.87122">
        <ele>429.3</ele>
        <time>2013-12-22T15:36:43</time>
      </trkpt>
      <trkpt lat="43.17745" lon="0.87121">
        <ele>429.3</ele>
        <time>2013-12-22T15:36:44</time>
      </trkpt>
      <trkpt lat="43.17745" lon="0.8712">
        <ele>430.2</ele>
        <time>2013-12-22T15:36:45</time>
      </trkpt>
      <trkpt lat="43.17745" lon="0.87118">
        <ele>431.2</ele>
        <time>2013-12-22T15:36:46</time>
      </trkpt>
      <trkpt lat="43.17745" lon="0.87116">
        <ele>432.4</ele>
        <time>2013-12-22T15:36:47</time>
      </trkpt>
      <trkpt lat="43.17744" lon="0.87115">
        <ele>433.2</ele>
        <time>2013-12-22T15:36:48</time>
      </trkpt>
      <trkpt lat="43.17743" lon="0.87113">
        <ele>434.4</ele>
        <time>2013-12-22T15:36:49</time>
      </trkpt>
      <trkpt lat="43.1774" lon="0.87109">
        <ele>435.7</ele>
        <time>2013-12-22T15:36:59</time>
      </trkpt>
      <trkpt lat="43.1774" lon="0.87109">
        <ele>435.4</ele>
        <time>2013-12-22T15:37:00</time>
      </trkpt>
      <trkpt lat="43.17739" lon="0.87107">
        <ele>436.1</ele>
        <time>2013-12-22T15:37:01</time>
      </trkpt>
      <trkpt lat="43.17738" lon="0.87106">
        <ele>436.1</ele>
        <time>2013-12-22T15:37:02</time>
      </trkpt>
      <trkpt lat="43.17737" lon="0.87105">
        <ele>436.1</ele>
        <time>2013-12-22T15:37:03</time>
      </trkpt>
      <trkpt lat="43.17736" lon="0.87103">
        <ele>436.4</ele>
        <time>2013-12-22T15:37:04</time>
      </trkpt>
      <trkpt lat="43.17736" lon="0.87102">
        <ele>436.3</ele>
        <time>2013-12-22T15:37:05</time>
      </trkpt>
      <trkpt lat="43.17735" lon="0.87101">
        <ele>437.1</ele>
        <time>2013-12-22T15:37:06</time>
      </trkpt>
      <trkpt lat="43.17733" lon="0.871">
        <ele>436.8</ele>
        <time>2013-12-22T15:37:07</time>
      </trkpt>
      <trkpt lat="43.17732" lon="0.87099">
        <ele>437</ele>
        <time>2013-12-22T15:37:08</time>
      </trkpt>
      <trkpt lat="43.17731" lon="0.87097">
        <ele>437.4</ele>
        <time>2013-12-22T15:37:09</time>
      </trkpt>
      <trkpt lat="43.1773" lon="0.87096">
        <ele>437.4</ele>
        <time>2013-12-22T15:37:10</time>
      </trkpt>
      <trkpt lat="43.17729" lon="0.87095">
        <ele>437.6</ele>
        <time>2013-12-22T15:37:11</time>
      </trkpt>
      <trkpt lat="43.17728" lon="0.87093">
        <ele>438.2</ele>
        <time>2013-12-22T15:37:12</time>
      </trkpt>
      <trkpt lat="43.17727" lon="0.87092">
        <ele>438.3</ele>
        <time>2013-12-22T15:37:13</time>
      </trkpt>
      <trkpt lat="43.17726" lon="0.87091">
        <ele>438.8</ele>
        <time>2013-12-22T15:37:14</time>
      </trkpt>
      <trkpt lat="43.17725" lon="0.8709">
        <ele>438</ele>
        <time>2013-12-22T15:37:15</time>
      </trkpt>
      <trkpt lat="43.17724" lon="0.87089">
        <ele>438.5</ele>
        <time>2013-12-22T15:37:16</time>
      </trkpt>
      <trkpt lat="43.17723" lon="0.87088">
        <ele>438.9</ele>
        <time>2013-12-22T15:37:17</time>
      </trkpt>
      <trkpt lat="43.17722" lon="0.87087">
        <ele>439.2</ele>
        <time>2013-12-22T15:37:18</time>
      </trkpt>
      <trkpt lat="43.17721" lon="0.87085">
        <ele>439.7</ele>
        <time>2013-12-22T15:37:19</time>
      </trkpt>
      <trkpt lat="43.1772" lon="0.87084">
        <ele>439.4</ele>
        <time>2013-12-22T15:37:20</time>
      </trkpt>
      <trkpt lat="43.17719" lon="0.87083">
        <ele>440</ele>
        <time>2013-12-22T15:37:21</time>
      </trkpt>
      <trkpt lat="43.17719" lon="0.87082">
        <ele>439.9</ele>
        <time>2013-12-22T15:37:22</time>
      </trkpt>
      <trkpt lat="43.17718" lon="0.87081">
        <ele>440.1</ele>
        <time>2013-12-22T15:37:23</time>
      </trkpt>
      <trkpt lat="43.17717" lon="0.8708">
        <ele>440.1</ele>
        <time>2013-12-22T15:37:24</time>
      </trkpt>
      <trkpt lat="43.17716" lon="0.87079">
        <ele>439.9</ele>
        <time>2013-12-22T15:37:25</time>
      </trkpt>
      <trkpt lat="43.17716" lon="0.87078">
        <ele>439.8</ele>
        <time>2013-12-22T15:37:26</time>
      </trkpt>
      <trkpt lat="43.17715" lon="0.87077">
        <ele>439.3</ele>
        <time>2013-12-22T15:37:27</time>
      </trkpt>
      <trkpt lat="43.17714" lon="0.87075">
        <ele>439.2</ele>
        <time>2013-12-22T15:37:28</time>
      </trkpt>
      <trkpt lat="43.17714" lon="0.87074">
        <ele>440.1</ele>
        <time>2013-12-22T15:37:29</time>
      </trkpt>
      <trkpt lat="43.17713" lon="0.87074">
        <ele>440.1</ele>
        <time>2013-12-22T15:37:30</time>
      </trkpt>
      <trkpt lat="43.17712" lon="0.87072">
        <ele>440.7</ele>
        <time>2013-12-22T15:37:31</time>
      </trkpt>
      <trkpt lat="43.17711" lon="0.87071">
        <ele>440.5</ele>
        <time>2013-12-22T15:37:32</time>
      </trkpt>
      <trkpt lat="43.1771" lon="0.8707">
        <ele>440.6</ele>
        <time>2013-12-22T15:37:33</time>
      </trkpt>
      <trkpt lat="43.17709" lon="0.87069">
        <ele>439.3</ele>
        <time>2013-12-22T15:37:34</time>
      </trkpt>
      <trkpt lat="43.17708" lon="0.87068">
        <ele>439.5</ele>
        <time>2013-12-22T15:37:35</time>
      </trkpt>
      <trkpt lat="43.17707" lon="0.87067">
        <ele>440.5</ele>
        <time>2013-12-22T15:37:36</time>
      </trkpt>
      <trkpt lat="43.17706" lon="0.87066">
        <ele>440</ele>
        <time>2013-12-22T15:37:37</time>
      </trkpt>
      <trkpt lat="43.17705" lon="0.87065">
        <ele>440.2</ele>
        <time>2013-12-22T15:37:38</time>
      </trkpt>
      <trkpt lat="43.17704" lon="0.87064">
        <ele>440.1</ele>
        <time>2013-12-22T15:37:39</time>
      </trkpt>
      <trkpt lat="43.17703" lon="0.87063">
        <ele>440.4</ele>
        <time>2013-12-22T15:37:40</time>
      </trkpt>
      <trkpt lat="43.17702" lon="0.87062">
        <ele>440.4</ele>
        <time>2013-12-22T15:37:41</time>
      </trkpt>
      <trkpt lat="43.17701" lon="0.87061">
        <ele>439.6</ele>
        <time>2013-12-22T15:37:42</time>
      </trkpt>
      <trkpt lat="43.177" lon="0.8706">
        <ele>439.8</ele>
        <time>2013-12-22T15:37:43</time>
      </trkpt>
      <trkpt lat="43.17699" lon="0.87059">
        <ele>439.5</ele>
        <time>2013-12-22T15:37:44</time>
      </trkpt>
      <trkpt lat="43.17698" lon="0.87058">
        <ele>439.1</ele>
        <time>2013-12-22T15:37:45</time>
      </trkpt>
      <trkpt lat="43.17698" lon="0.87057">
        <ele>438</ele>
        <time>2013-12-22T15:37:46</time>
      </trkpt>
      <trkpt lat="43.17697" lon="0.87056">
        <ele>438.1</ele>
        <time>2013-12-22T15:37:47</time>
      </trkpt>
      <trkpt lat="43.17696" lon="0.87055">
        <ele>437.7</ele>
        <time>2013-12-22T15:37:48</time>
      </trkpt>
      <trkpt lat="43.17696" lon="0.87054">
        <ele>437.2</ele>
        <time>2013-12-22T15:37:49</time>
      </trkpt>
      <trkpt lat="43.17695" lon="0.87053">
        <ele>437</ele>
        <time>2013-12-22T15:37:50</time>
      </trkpt>
      <trkpt lat="43.17695" lon="0.87052">
        <ele>436.9</ele>
        <time>2013-12-22T15:37:51</time>
      </trkpt>
      <trkpt lat="43.17694" lon="0.87051">
        <ele>436.9</ele>
        <time>2013-12-22T15:37:52</time>
      </trkpt>
      <trkpt lat="43.17693" lon="0.8705">
        <ele>437.4</ele>
        <time>2013-12-22T15:37:53</time>
      </trkpt>
      <trkpt lat="43.17692" lon="0.8705">
        <ele>437.2</ele>
        <time>2013-12-22T15:37:54</time>
      </trkpt>
      <trkpt lat="43.17691" lon="0.87049">
        <ele>437.4</ele>
        <time>2013-12-22T15:37:55</time>
      </trkpt>
      <trkpt lat="43.17691" lon="0.87048">
        <ele>437.3</ele>
        <time>2013-12-22T15:37:56</time>
      </trkpt>
      <trkpt lat="43.1769" lon="0.87047">
        <ele>437.6</ele>
        <time>2013-12-22T15:37:57</time>
      </trkpt>
      <trkpt lat="43.17689" lon="0.87046">
        <ele>437.5</ele>
        <time>2013-12-22T15:37:58</time>
      </trkpt>
      <trkpt lat="43.17688" lon="0.87045">
        <ele>436.9</ele>
        <time>2013-12-22T15:37:59</time>
      </trkpt>
      <trkpt lat="43.17688" lon="0.87044">
        <ele>436.2</ele>
        <time>2013-12-22T15:38:00</time>
      </trkpt>
      <trkpt lat="43.17687" lon="0.87043">
        <ele>435.9</ele>
        <time>2013-12-22T15:38:01</time>
      </trkpt>
      <trkpt lat="43.17687" lon="0.87042">
        <ele>435.7</ele>
        <time>2013-12-22T15:38:02</time>
      </trkpt>
      <trkpt lat="43.17687" lon="0.87041">
        <ele>435.4</ele>
        <time>2013-12-22T15:38:03</time>
      </trkpt>
      <trkpt lat="43.17686" lon="0.8704">
        <ele>435.6</ele>
        <time>2013-12-22T15:38:04</time>
      </trkpt>
      <trkpt lat="43.17685" lon="0.87039">
        <ele>436</ele>
        <time>2013-12-22T15:38:05</time>
      </trkpt>
      <trkpt lat="43.17685" lon="0.87039">
        <ele>436.2</ele>
        <time>2013-12-22T15:38:06</time>
      </trkpt>
      <trkpt lat="43.17684" lon="0.87038">
        <ele>436</ele>
        <time>2013-12-22T15:38:07</time>
      </trkpt>
      <trkpt lat="43.17683" lon="0.87037">
        <ele>436.5</ele>
        <time>2013-12-22T15:38:08</time>
      </trkpt>
      <trkpt lat="43.17683" lon="0.87036">
        <ele>436.5</ele>
        <time>2013-12-22T15:38:09</time>
      </trkpt>
      <trkpt lat="43.17682" lon="0.87036">
        <ele>436.5</ele>
        <time>2013-12-22T15:38:10</time>
      </trkpt>
      <trkpt lat="43.17681" lon="0.87035">
        <ele>436.6</ele>
        <time>2013-12-22T15:38:11</time>
      </trkpt>
      <trkpt lat="43.1768" lon="0.87034">
        <ele>435.8</ele>
        <time>2013-12-22T15:38:12</time>
      </trkpt>
      <trkpt lat="43.1768" lon="0.87033">
        <ele>435.7</ele>
        <time>2013-12-22T15:38:13</time>
      </trkpt>
      <trkpt lat="43.17679" lon="0.87032">
        <ele>435.4</ele>
        <time>2013-12-22T15:38:14</time>
      </trkpt>
      <trkpt lat="43.17679" lon="0.87031">
        <ele>435.5</ele>
        <time>2013-12-22T15:38:15</time>
      </trkpt>
      <trkpt lat="43.17678" lon="0.8703">
        <ele>435.9</ele>
        <time>2013-12-22T15:38:16</time>
      </trkpt>
      <trkpt lat="43.17677" lon="0.8703">
        <ele>436.2</ele>
        <time>2013-12-22T15:38:17</time>
      </trkpt>
      <trkpt lat="43.17676" lon="0.87029">
        <ele>436.2</ele>
        <time>2013-12-22T15:38:18</time>
      </trkpt>
      <trkpt lat="43.17675" lon="0.87029">
        <ele>436.3</ele>
        <time>2013-12-22T15:38:19</time>
      </trkpt>
      <trkpt lat="43.17674" lon="0.87028">
        <ele>436.7</ele>
        <time>2013-12-22T15:38:20</time>
      </trkpt>
      <trkpt lat="43.17674" lon="0.87026">
        <ele>436.2</ele>
        <time>2013-12-22T15:38:21</time>
      </trkpt>
      <trkpt lat="43.17673" lon="0.87025">
        <ele>436.2</ele>
        <time>2013-12-22T15:38:22</time>
      </trkpt>
      <trkpt lat="43.17672" lon="0.87024">
        <ele>436.1</ele>
        <time>2013-12-22T15:38:23</time>
      </trkpt>
      <trkpt lat="43.17671" lon="0.87023">
        <ele>436.2</ele>
        <time>2013-12-22T15:38:24</time>
      </trkpt>
      <trkpt lat="43.1767" lon="0.87023">
        <ele>436.5</ele>
        <time>2013-12-22T15:38:25</time>
      </trkpt>
      <trkpt lat="43.1767" lon="0.87022">
        <ele>436.6</ele>
        <time>2013-12-22T15:38:26</time>
      </trkpt>
      <trkpt lat="43.17669" lon="0.87021">
        <ele>436.6</ele>
        <time>2013-12-22T15:38:27</time>
      </trkpt>
      <trkpt lat="43.17669" lon="0.8702">
        <ele>435.8</ele>
        <time>2013-12-22T15:38:28</time>
      </trkpt>
      <trkpt lat="43.17668" lon="0.87019">
        <ele>435.7</ele>
        <time>2013-12-22T15:38:29</time>
      </trkpt>
      <trkpt lat="43.17667" lon="0.87018">
        <ele>435.4</ele>
        <time>2013-12-22T15:38:30</time>
      </trkpt>
      <trkpt lat="43.17667" lon="0.87017">
        <ele>434.7</ele>
        <time>2013-12-22T15:38:31</time>
      </trkpt>
      <trkpt lat="43.17667" lon="0.87016">
        <ele>434.3</ele>
        <time>2013-12-22T15:38:32</time>
      </trkpt>
      <trkpt lat="43.17666" lon="0.87015">
        <ele>434.2</ele>
        <time>2013-12-22T15:38:33</time>
      </trkpt>
      <trkpt lat="43.17666" lon="0.87014">
        <ele>434.4</ele>
        <time>2013-12-22T15:38:34</time>
      </trkpt>
      <trkpt lat="43.17665" lon="0.87014">
        <ele>433.6</ele>
        <time>2013-12-22T15:38:35</time>
      </trkpt>
      <trkpt lat="43.17664" lon="0.87013">
        <ele>433.4</ele>
        <time>2013-12-22T15:38:36</time>
      </trkpt>
      <trkpt lat="43.17663" lon="0.87012">
        <ele>433.2</ele>
        <time>2013-12-22T15:38:37</time>
      </trkpt>
      <trkpt lat="43.17662" lon="0.87011">
        <ele>432.9</ele>
        <time>2013-12-22T15:38:38</time>
      </trkpt>
      <trkpt lat="43.17662" lon="0.8701">
        <ele>432.8</ele>
        <time>2013-12-22T15:38:39</time>
      </trkpt>
      <trkpt lat="43.17661" lon="0.87009">
        <ele>433.1</ele>
        <time>2013-12-22T15:38:40</time>
      </trkpt>
      <trkpt lat="43.1766" lon="0.87008">
        <ele>433.1</ele>
        <time>2013-12-22T15:38:41</time>
      </trkpt>
      <trkpt lat="43.17659" lon="0.87007">
        <ele>432.8</ele>
        <time>2013-12-22T15:38:42</time>
      </trkpt>
      <trkpt lat="43.17658" lon="0.87006">
        <ele>432.6</ele>
        <time>2013-12-22T15:38:43</time>
      </trkpt>
      <trkpt lat="43.17657" lon="0.87005">
        <ele>432.8</ele>
        <time>2013-12-22T15:38:44</time>
      </trkpt>
      <trkpt lat="43.17656" lon="0.87005">
        <ele>432.9</ele>
        <time>2013-12-22T15:38:45</time>
      </trkpt>
      <trkpt lat="43.17656" lon="0.87005">
        <ele>433.4</ele>
        <time>2013-12-22T15:38:47</time>
      </trkpt>
      <trkpt lat="43.17656" lon="0.87005">
        <ele>433.1</ele>
        <time>2013-12-22T15:38:48</time>
      </trkpt>
      <trkpt lat="43.17655" lon="0.87004">
        <ele>432.8</ele>
        <time>2013-12-22T15:38:49</time>
      </trkpt>
      <trkpt lat="43.17654" lon="0.87003">
        <ele>432.5</ele>
        <time>2013-12-22T15:38:50</time>
      </trkpt>
      <trkpt lat="43.17653" lon="0.87002">
        <ele>432.5</ele>
        <time>2013-12-22T15:38:51</time>
      </trkpt>
      <trkpt lat="43.17652" lon="0.87002">
        <ele>432.1</ele>
        <time>2013-12-22T15:38:52</time>
      </trkpt>
      <trkpt lat="43.17651" lon="0.87001">
        <ele>432.5</ele>
        <time>2013-12-22T15:38:53</time>
      </trkpt>
      <trkpt lat="43.1765" lon="0.87001">
        <ele>432.6</ele>
        <time>2013-12-22T15:38:54</time>
      </trkpt>
      <trkpt lat="43.17649" lon="0.87001">
        <ele>432.6</ele>
        <time>2013-12-22T15:38:55</time>
      </trkpt>
      <trkpt lat="43.17648" lon="0.87001">
        <ele>432.5</ele>
        <time>2013-12-22T15:38:56</time>
      </trkpt>
      <trkpt lat="43.17647" lon="0.87001">
        <ele>432.5</ele>
        <time>2013-12-22T15:38:57</time>
      </trkpt>
      <trkpt lat="43.17646" lon="0.87001">
        <ele>432.6</ele>
        <time>2013-12-22T15:38:58</time>
      </trkpt>
      <trkpt lat="43.17645" lon="0.87001">
        <ele>432.5</ele>
        <time>2013-12-22T15:38:59</time>
      </trkpt>
      <trkpt lat="43.17644" lon="0.87002">
        <ele>432.7</ele>
        <time>2013-12-22T15:39:00</time>
      </trkpt>
      <trkpt lat="43.17643" lon="0.87002">
        <ele>432.5</ele>
        <time>2013-12-22T15:39:01</time>
      </trkpt>
      <trkpt lat="43.17642" lon="0.87002">
        <ele>432.6</ele>
        <time>2013-12-22T15:39:02</time>
      </trkpt>
      <trkpt lat="43.17641" lon="0.87002">
        <ele>432.7</ele>
        <time>2013-12-22T15:39:03</time>
      </trkpt>
      <trkpt lat="43.1764" lon="0.87002">
        <ele>432.6</ele>
        <time>2013-12-22T15:39:04</time>
      </trkpt>
      <trkpt lat="43.1764" lon="0.87002">
        <ele>432.4</ele>
        <time>2013-12-22T15:39:05</time>
      </trkpt>
      <trkpt lat="43.17639" lon="0.87002">
        <ele>432.3</ele>
        <time>2013-12-22T15:39:06</time>
      </trkpt>
      <trkpt lat="43.17638" lon="0.87002">
        <ele>433</ele>
        <time>2013-12-22T15:39:07</time>
      </trkpt>
      <trkpt lat="43.17639" lon="0.87001">
        <ele>432</ele>
        <time>2013-12-22T15:39:12</time>
      </trkpt>
      <trkpt lat="43.1764" lon="0.87">
        <ele>431.9</ele>
        <time>2013-12-22T15:39:13</time>
      </trkpt>
      <trkpt lat="43.1764" lon="0.86999">
        <ele>432</ele>
        <time>2013-12-22T15:39:14</time>
      </trkpt>
      <trkpt lat="43.1764" lon="0.86998">
        <ele>432.3</ele>
        <time>2013-12-22T15:39:15</time>
      </trkpt>
      <trkpt lat="43.17638" lon="0.86998">
        <ele>434</ele>
        <time>2013-12-22T15:40:34</time>
      </trkpt>
      <trkpt lat="43.17638" lon="0.86998">
        <ele>433.4</ele>
        <time>2013-12-22T15:40:35</time>
      </trkpt>
      <trkpt lat="43.17637" lon="0.86998">
        <ele>433.3</ele>
        <time>2013-12-22T15:40:36</time>
      </trkpt>
      <trkpt lat="43.17636" lon="0.86998">
        <ele>433.2</ele>
        <time>2013-12-22T15:40:37</time>
      </trkpt>
      <trkpt lat="43.17635" lon="0.86997">
        <ele>433.8</ele>
        <time>2013-12-22T15:40:38</time>
      </trkpt>
      <trkpt lat="43.17635" lon="0.86997">
        <ele>433.7</ele>
        <time>2013-12-22T15:40:39</time>
      </trkpt>
      <trkpt lat="43.17633" lon="0.86996">
        <ele>433.9</ele>
        <time>2013-12-22T15:40:40</time>
      </trkpt>
      <trkpt lat="43.17632" lon="0.86995">
        <ele>434.2</ele>
        <time>2013-12-22T15:40:41</time>
      </trkpt>
      <trkpt lat="43.17631" lon="0.86995">
        <ele>434</ele>
        <time>2013-12-22T15:40:42</time>
      </trkpt>
      <trkpt lat="43.1763" lon="0.86994">
        <ele>434</ele>
        <time>2013-12-22T15:40:43</time>
      </trkpt>
      <trkpt lat="43.17629" lon="0.86992">
        <ele>434.3</ele>
        <time>2013-12-22T15:40:44</time>
      </trkpt>
      <trkpt lat="43.17629" lon="0.86991">
        <ele>434</ele>
        <time>2013-12-22T15:40:45</time>
      </trkpt>
      <trkpt lat="43.17628" lon="0.8699">
        <ele>434.1</ele>
        <time>2013-12-22T15:40:46</time>
      </trkpt>
      <trkpt lat="43.17627" lon="0.86989">
        <ele>433.9</ele>
        <time>2013-12-22T15:40:47</time>
      </trkpt>
      <trkpt lat="43.17626" lon="0.86988">
        <ele>433.8</ele>
        <time>2013-12-22T15:40:48</time>
      </trkpt>
      <trkpt lat="43.17625" lon="0.86986">
        <ele>434</ele>
        <time>2013-12-22T15:40:49</time>
      </trkpt>
      <trkpt lat="43.17624" lon="0.86985">
        <ele>434.1</ele>
        <time>2013-12-22T15:40:50</time>
      </trkpt>
      <trkpt lat="43.17623" lon="0.86984">
        <ele>434.4</ele>
        <time>2013-12-22T15:40:51</time>
      </trkpt>
      <trkpt lat="43.17622" lon="0.86983">
        <ele>434.4</ele>
        <time>2013-12-22T15:40:52</time>
      </trkpt>
      <trkpt lat="43.17621" lon="0.86982">
        <ele>434.3</ele>
        <time>2013-12-22T15:40:53</time>
      </trkpt>
      <trkpt lat="43.1762" lon="0.86981">
        <ele>434.4</ele>
        <time>2013-12-22T15:40:54</time>
      </trkpt>
      <trkpt lat="43.17619" lon="0.86979">
        <ele>434.6</ele>
        <time>2013-12-22T15:40:55</time>
      </trkpt>
      <trkpt lat="43.17618" lon="0.86978">
        <ele>434.5</ele>
        <time>2013-12-22T15:40:56</time>
      </trkpt>
      <trkpt lat="43.17617" lon="0.86977">
        <ele>434.5</ele>
        <time>2013-12-22T15:40:57</time>
      </trkpt>
      <trkpt lat="43.17616" lon="0.86976">
        <ele>434.6</ele>
        <time>2013-12-22T15:40:58</time>
      </trkpt>
      <trkpt lat="43.17614" lon="0.86975">
        <ele>434.6</ele>
        <time>2013-12-22T15:40:59</time>
      </trkpt>
      <trkpt lat="43.17614" lon="0.86974">
        <ele>434.6</ele>
        <time>2013-12-22T15:41:00</time>
      </trkpt>
      <trkpt lat="43.17613" lon="0.86972">
        <ele>434.7</ele>
        <time>2013-12-22T15:41:01</time>
      </trkpt>
      <trkpt lat="43.17612" lon="0.86971">
        <ele>434.9</ele>
        <time>2013-12-22T15:41:02</time>
      </trkpt>
      <trkpt lat="43.17611" lon="0.8697">
        <ele>435.4</ele>
        <time>2013-12-22T15:41:03</time>
      </trkpt>
      <trkpt lat="43.1761" lon="0.86969">
        <ele>435.6</ele>
        <time>2013-12-22T15:41:04</time>
      </trkpt>
      <trkpt lat="43.17609" lon="0.86968">
        <ele>435.8</ele>
        <time>2013-12-22T15:41:05</time>
      </trkpt>
      <trkpt lat="43.17608" lon="0.86967">
        <ele>436.1</ele>
        <time>2013-12-22T15:41:06</time>
      </trkpt>
      <trkpt lat="43.17606" lon="0.86966">
        <ele>436.2</ele>
        <time>2013-12-22T15:41:07</time>
      </trkpt>
      <trkpt lat="43.17606" lon="0.86965">
        <ele>436.2</ele>
        <time>2013-12-22T15:41:08</time>
      </trkpt>
      <trkpt lat="43.17604" lon="0.86964">
        <ele>436.8</ele>
        <time>2013-12-22T15:41:09</time>
      </trkpt>
      <trkpt lat="43.17604" lon="0.86963">
        <ele>436.3</ele>
        <time>2013-12-22T15:41:10</time>
      </trkpt>
      <trkpt lat="43.17603" lon="0.86962">
        <ele>436.1</ele>
        <time>2013-12-22T15:41:11</time>
      </trkpt>
      <trkpt lat="43.17602" lon="0.86962">
        <ele>436</ele>
        <time>2013-12-22T15:41:12</time>
      </trkpt>
      <trkpt lat="43.17601" lon="0.86961">
        <ele>435.7</ele>
        <time>2013-12-22T15:41:13</time>
      </trkpt>
      <trkpt lat="43.176" lon="0.8696">
        <ele>435.5</ele>
        <time>2013-12-22T15:41:14</time>
      </trkpt>
      <trkpt lat="43.176" lon="0.86959">
        <ele>435.2</ele>
        <time>2013-12-22T15:41:15</time>
      </trkpt>
      <trkpt lat="43.17599" lon="0.86959">
        <ele>435.4</ele>
        <time>2013-12-22T15:41:16</time>
      </trkpt>
      <trkpt lat="43.17598" lon="0.86958">
        <ele>435.3</ele>
        <time>2013-12-22T15:41:17</time>
      </trkpt>
      <trkpt lat="43.17598" lon="0.86957">
        <ele>435.2</ele>
        <time>2013-12-22T15:41:18</time>
      </trkpt>
      <trkpt lat="43.17597" lon="0.86957">
        <ele>435.4</ele>
        <time>2013-12-22T15:41:19</time>
      </trkpt>
      <trkpt lat="43.17596" lon="0.86956">
        <ele>435.3</ele>
        <time>2013-12-22T15:41:20</time>
      </trkpt>
      <trkpt lat="43.17596" lon="0.86955">
        <ele>435.3</ele>
        <time>2013-12-22T15:41:21</time>
      </trkpt>
      <trkpt lat="43.17595" lon="0.86955">
        <ele>435.4</ele>
        <time>2013-12-22T15:41:22</time>
      </trkpt>
      <trkpt lat="43.17594" lon="0.86954">
        <ele>435.4</ele>
        <time>2013-12-22T15:41:23</time>
      </trkpt>
      <trkpt lat="43.17594" lon="0.86953">
        <ele>435.3</ele>
        <time>2013-12-22T15:41:24</time>
      </trkpt>
      <trkpt lat="43.17593" lon="0.86952">
        <ele>435.2</ele>
        <time>2013-12-22T15:41:25</time>
      </trkpt>
      <trkpt lat="43.17592" lon="0.86952">
        <ele>435.1</ele>
        <time>2013-12-22T15:41:26</time>
      </trkpt>
      <trkpt lat="43.17592" lon="0.86951">
        <ele>435.1</ele>
        <time>2013-12-22T15:41:27</time>
      </trkpt>
      <trkpt lat="43.17591" lon="0.8695">
        <ele>435</ele>
        <time>2013-12-22T15:41:28</time>
      </trkpt>
      <trkpt lat="43.17591" lon="0.86949">
        <ele>435.1</ele>
        <time>2013-12-22T15:41:29</time>
      </trkpt>
      <trkpt lat="43.1759" lon="0.86948">
        <ele>435.1</ele>
        <time>2013-12-22T15:41:30</time>
      </trkpt>
      <trkpt lat="43.1759" lon="0.86949">
        <ele>435.2</ele>
        <time>2013-12-22T15:41:34</time>
      </trkpt>
      <trkpt lat="43.1759" lon="0.86948">
        <ele>435.2</ele>
        <time>2013-12-22T15:41:35</time>
      </trkpt>
      <trkpt lat="43.17589" lon="0.86947">
        <ele>435</ele>
        <time>2013-12-22T15:41:36</time>
      </trkpt>
      <trkpt lat="43.17588" lon="0.86946">
        <ele>435</ele>
        <time>2013-12-22T15:41:37</time>
      </trkpt>
      <trkpt lat="43.17588" lon="0.86946">
        <ele>435</ele>
        <time>2013-12-22T15:41:38</time>
      </trkpt>
      <trkpt lat="43.17587" lon="0.86943">
        <ele>433.4</ele>
        <time>2013-12-22T15:42:13</time>
      </trkpt>
      <trkpt lat="43.17586" lon="0.86943">
        <ele>433.5</ele>
        <time>2013-12-22T15:42:14</time>
      </trkpt>
      <trkpt lat="43.17585" lon="0.86941">
        <ele>433.5</ele>
        <time>2013-12-22T15:42:15</time>
      </trkpt>
      <trkpt lat="43.17583" lon="0.8694">
        <ele>433.5</ele>
        <time>2013-12-22T15:42:16</time>
      </trkpt>
      <trkpt lat="43.17582" lon="0.86939">
        <ele>433.6</ele>
        <time>2013-12-22T15:42:17</time>
      </trkpt>
      <trkpt lat="43.17581" lon="0.86937">
        <ele>433.5</ele>
        <time>2013-12-22T15:42:18</time>
      </trkpt>
      <trkpt lat="43.1758" lon="0.86936">
        <ele>433.6</ele>
        <time>2013-12-22T15:42:19</time>
      </trkpt>
      <trkpt lat="43.17579" lon="0.86935">
        <ele>433.7</ele>
        <time>2013-12-22T15:42:20</time>
      </trkpt>
      <trkpt lat="43.17578" lon="0.86933">
        <ele>433.8</ele>
        <time>2013-12-22T15:42:21</time>
      </trkpt>
      <trkpt lat="43.17577" lon="0.86932">
        <ele>433.8</ele>
        <time>2013-12-22T15:42:22</time>
      </trkpt>
      <trkpt lat="43.17576" lon="0.8693">
        <ele>433.9</ele>
        <time>2013-12-22T15:42:23</time>
      </trkpt>
      <trkpt lat="43.17576" lon="0.86929">
        <ele>434</ele>
        <time>2013-12-22T15:42:24</time>
      </trkpt>
      <trkpt lat="43.17575" lon="0.86927">
        <ele>434</ele>
        <time>2013-12-22T15:42:25</time>
      </trkpt>
      <trkpt lat="43.17574" lon="0.86926">
        <ele>434.2</ele>
        <time>2013-12-22T15:42:26</time>
      </trkpt>
      <trkpt lat="43.17573" lon="0.86924">
        <ele>434.4</ele>
        <time>2013-12-22T15:42:27</time>
      </trkpt>
      <trkpt lat="43.17572" lon="0.86922">
        <ele>434.7</ele>
        <time>2013-12-22T15:42:28</time>
      </trkpt>
      <trkpt lat="43.17572" lon="0.86921">
        <ele>434.5</ele>
        <time>2013-12-22T15:42:29</time>
      </trkpt>
      <trkpt lat="43.17571" lon="0.86919">
        <ele>434.6</ele>
        <time>2013-12-22T15:42:30</time>
      </trkpt>
      <trkpt lat="43.1757" lon="0.86917">
        <ele>434.6</ele>
        <time>2013-12-22T15:42:31</time>
      </trkpt>
      <trkpt lat="43.17569" lon="0.86916">
        <ele>434.8</ele>
        <time>2013-12-22T15:42:32</time>
      </trkpt>
      <trkpt lat="43.17569" lon="0.86914">
        <ele>434.9</ele>
        <time>2013-12-22T15:42:33</time>
      </trkpt>
      <trkpt lat="43.17568" lon="0.86913">
        <ele>435.5</ele>
        <time>2013-12-22T15:42:34</time>
      </trkpt>
      <trkpt lat="43.17567" lon="0.86911">
        <ele>435.5</ele>
        <time>2013-12-22T15:42:35</time>
      </trkpt>
      <trkpt lat="43.17567" lon="0.8691">
        <ele>435.5</ele>
        <time>2013-12-22T15:42:36</time>
      </trkpt>
      <trkpt lat="43.17566" lon="0.86908">
        <ele>434.9</ele>
        <time>2013-12-22T15:42:37</time>
      </trkpt>
      <trkpt lat="43.17566" lon="0.86907">
        <ele>434.5</ele>
        <time>2013-12-22T15:42:38</time>
      </trkpt>
      <trkpt lat="43.17565" lon="0.86905">
        <ele>434.8</ele>
        <time>2013-12-22T15:42:39</time>
      </trkpt>
      <trkpt lat="43.17564" lon="0.86904">
        <ele>435.1</ele>
        <time>2013-12-22T15:42:40</time>
      </trkpt>
      <trkpt lat="43.17564" lon="0.86902">
        <ele>435.1</ele>
        <time>2013-12-22T15:42:41</time>
      </trkpt>
      <trkpt lat="43.17564" lon="0.86901">
        <ele>435.2</ele>
        <time>2013-12-22T15:42:42</time>
      </trkpt>
      <trkpt lat="43.17563" lon="0.86899">
        <ele>435.7</ele>
        <time>2013-12-22T15:42:43</time>
      </trkpt>
      <trkpt lat="43.17562" lon="0.86898">
        <ele>436</ele>
        <time>2013-12-22T15:42:44</time>
      </trkpt>
      <trkpt lat="43.17561" lon="0.86897">
        <ele>436.2</ele>
        <time>2013-12-22T15:42:45</time>
      </trkpt>
      <trkpt lat="43.17561" lon="0.86895">
        <ele>436.3</ele>
        <time>2013-12-22T15:42:46</time>
      </trkpt>
      <trkpt lat="43.1756" lon="0.86894">
        <ele>436.5</ele>
        <time>2013-12-22T15:42:47</time>
      </trkpt>
      <trkpt lat="43.17559" lon="0.86893">
        <ele>436.6</ele>
        <time>2013-12-22T15:42:48</time>
      </trkpt>
      <trkpt lat="43.17559" lon="0.86891">
        <ele>436.8</ele>
        <time>2013-12-22T15:42:49</time>
      </trkpt>
      <trkpt lat="43.17558" lon="0.8689">
        <ele>437</ele>
        <time>2013-12-22T15:42:50</time>
      </trkpt>
      <trkpt lat="43.17557" lon="0.86889">
        <ele>437.1</ele>
        <time>2013-12-22T15:42:51</time>
      </trkpt>
      <trkpt lat="43.17556" lon="0.86887">
        <ele>437.2</ele>
        <time>2013-12-22T15:42:52</time>
      </trkpt>
      <trkpt lat="43.17556" lon="0.86886">
        <ele>437.4</ele>
        <time>2013-12-22T15:42:53</time>
      </trkpt>
      <trkpt lat="43.17555" lon="0.86885">
        <ele>437.5</ele>
        <time>2013-12-22T15:42:54</time>
      </trkpt>
      <trkpt lat="43.17555" lon="0.86883">
        <ele>437.4</ele>
        <time>2013-12-22T15:42:55</time>
      </trkpt>
      <trkpt lat="43.17555" lon="0.86881">
        <ele>437.7</ele>
        <time>2013-12-22T15:42:56</time>
      </trkpt>
      <trkpt lat="43.17554" lon="0.8688">
        <ele>437.7</ele>
        <time>2013-12-22T15:42:57</time>
      </trkpt>
      <trkpt lat="43.17554" lon="0.86878">
        <ele>438</ele>
        <time>2013-12-22T15:42:58</time>
      </trkpt>
      <trkpt lat="43.17553" lon="0.86877">
        <ele>438.2</ele>
        <time>2013-12-22T15:42:59</time>
      </trkpt>
      <trkpt lat="43.17553" lon="0.86876">
        <ele>438.1</ele>
        <time>2013-12-22T15:43:00</time>
      </trkpt>
      <trkpt lat="43.17552" lon="0.86874">
        <ele>438.4</ele>
        <time>2013-12-22T15:43:01</time>
      </trkpt>
      <trkpt lat="43.17551" lon="0.86873">
        <ele>438.8</ele>
        <time>2013-12-22T15:43:02</time>
      </trkpt>
      <trkpt lat="43.17551" lon="0.86871">
        <ele>438.6</ele>
        <time>2013-12-22T15:43:03</time>
      </trkpt>
      <trkpt lat="43.1755" lon="0.8687">
        <ele>438.7</ele>
        <time>2013-12-22T15:43:04</time>
      </trkpt>
      <trkpt lat="43.1755" lon="0.86868">
        <ele>438.8</ele>
        <time>2013-12-22T15:43:05</time>
      </trkpt>
      <trkpt lat="43.1755" lon="0.86867">
        <ele>438.9</ele>
        <time>2013-12-22T15:43:06</time>
      </trkpt>
      <trkpt lat="43.17549" lon="0.86865">
        <ele>438.9</ele>
        <time>2013-12-22T15:43:07</time>
      </trkpt>
      <trkpt lat="43.17549" lon="0.86864">
        <ele>438.8</ele>
        <time>2013-12-22T15:43:08</time>
      </trkpt>
      <trkpt lat="43.17548" lon="0.86862">
        <ele>438.9</ele>
        <time>2013-12-22T15:43:09</time>
      </trkpt>
      <trkpt lat="43.17548" lon="0.86861">
        <ele>438.8</ele>
        <time>2013-12-22T15:43:10</time>
      </trkpt>
      <trkpt lat="43.17548" lon="0.86859">
        <ele>438.9</ele>
        <time>2013-12-22T15:43:11</time>
      </trkpt>
      <trkpt lat="43.17547" lon="0.86858">
        <ele>439</ele>
        <time>2013-12-22T15:43:12</time>
      </trkpt>
      <trkpt lat="43.17547" lon="0.86856">
        <ele>438.9</ele>
        <time>2013-12-22T15:43:13</time>
      </trkpt>
      <trkpt lat="43.17547" lon="0.86855">
        <ele>439.1</ele>
        <time>2013-12-22T15:43:14</time>
      </trkpt>
      <trkpt lat="43.17546" lon="0.86853">
        <ele>439.2</ele>
        <time>2013-12-22T15:43:15</time>
      </trkpt>
      <trkpt lat="43.17546" lon="0.86852">
        <ele>439.2</ele>
        <time>2013-12-22T15:43:16</time>
      </trkpt>
      <trkpt lat="43.17546" lon="0.8685">
        <ele>439.1</ele>
        <time>2013-12-22T15:43:17</time>
      </trkpt>
      <trkpt lat="43.17546" lon="0.86849">
        <ele>439</ele>
        <time>2013-12-22T15:43:18</time>
      </trkpt>
      <trkpt lat="43.17547" lon="0.86847">
        <ele>438.7</ele>
        <time>2013-12-22T15:43:19</time>
      </trkpt>
      <trkpt lat="43.17547" lon="0.86845">
        <ele>438.6</ele>
        <time>2013-12-22T15:43:20</time>
      </trkpt>
      <trkpt lat="43.17547" lon="0.86844">
        <ele>438.5</ele>
        <time>2013-12-22T15:43:21</time>
      </trkpt>
      <trkpt lat="43.17547" lon="0.86843">
        <ele>438.4</ele>
        <time>2013-12-22T15:43:22</time>
      </trkpt>
      <trkpt lat="43.17547" lon="0.86841">
        <ele>438.4</ele>
        <time>2013-12-22T15:43:23</time>
      </trkpt>
      <trkpt lat="43.17548" lon="0.8684">
        <ele>438.4</ele>
        <time>2013-12-22T15:43:24</time>
      </trkpt>
      <trkpt lat="43.17548" lon="0.86838">
        <ele>438.4</ele>
        <time>2013-12-22T15:43:25</time>
      </trkpt>
      <trkpt lat="43.17548" lon="0.86837">
        <ele>438.5</ele>
        <time>2013-12-22T15:43:26</time>
      </trkpt>
      <trkpt lat="43.17549" lon="0.86836">
        <ele>438.5</ele>
        <time>2013-12-22T15:43:27</time>
      </trkpt>
      <trkpt lat="43.17549" lon="0.86834">
        <ele>438.3</ele>
        <time>2013-12-22T15:43:28</time>
      </trkpt>
      <trkpt lat="43.1755" lon="0.86833">
        <ele>438.1</ele>
        <time>2013-12-22T15:43:29</time>
      </trkpt>
      <trkpt lat="43.1755" lon="0.86832">
        <ele>438.4</ele>
        <time>2013-12-22T15:43:30</time>
      </trkpt>
      <trkpt lat="43.1755" lon="0.86831">
        <ele>438.4</ele>
        <time>2013-12-22T15:43:31</time>
      </trkpt>
      <trkpt lat="43.1755" lon="0.86829">
        <ele>438.5</ele>
        <time>2013-12-22T15:43:32</time>
      </trkpt>
      <trkpt lat="43.1755" lon="0.86828">
        <ele>438.3</ele>
        <time>2013-12-22T15:43:33</time>
      </trkpt>
      <trkpt lat="43.1755" lon="0.86826">
        <ele>438.1</ele>
        <time>2013-12-22T15:43:34</time>
      </trkpt>
      <trkpt lat="43.1755" lon="0.86825">
        <ele>438.3</ele>
        <time>2013-12-22T15:43:35</time>
      </trkpt>
      <trkpt lat="43.1755" lon="0.86823">
        <ele>438.4</ele>
        <time>2013-12-22T15:43:36</time>
      </trkpt>
      <trkpt lat="43.17551" lon="0.86822">
        <ele>438.1</ele>
        <time>2013-12-22T15:43:37</time>
      </trkpt>
      <trkpt lat="43.17551" lon="0.8682">
        <ele>438.1</ele>
        <time>2013-12-22T15:43:38</time>
      </trkpt>
      <trkpt lat="43.17551" lon="0.86818">
        <ele>438.1</ele>
        <time>2013-12-22T15:43:39</time>
      </trkpt>
      <trkpt lat="43.17551" lon="0.86817">
        <ele>438.3</ele>
        <time>2013-12-22T15:43:40</time>
      </trkpt>
      <trkpt lat="43.17552" lon="0.86815">
        <ele>438.1</ele>
        <time>2013-12-22T15:43:41</time>
      </trkpt>
      <trkpt lat="43.17552" lon="0.86814">
        <ele>438.1</ele>
        <time>2013-12-22T15:43:42</time>
      </trkpt>
      <trkpt lat="43.17553" lon="0.86812">
        <ele>438.4</ele>
        <time>2013-12-22T15:43:43</time>
      </trkpt>
      <trkpt lat="43.17553" lon="0.86811">
        <ele>438.3</ele>
        <time>2013-12-22T15:43:44</time>
      </trkpt>
      <trkpt lat="43.17553" lon="0.86809">
        <ele>438.3</ele>
        <time>2013-12-22T15:43:45</time>
      </trkpt>
      <trkpt lat="43.17554" lon="0.86808">
        <ele>438.5</ele>
        <time>2013-12-22T15:43:46</time>
      </trkpt>
      <trkpt lat="43.17554" lon="0.86806">
        <ele>438.4</ele>
        <time>2013-12-22T15:43:47</time>
      </trkpt>
      <trkpt lat="43.17555" lon="0.86805">
        <ele>438.2</ele>
        <time>2013-12-22T15:43:48</time>
      </trkpt>
      <trkpt lat="43.17555" lon="0.86803">
        <ele>438.3</ele>
        <time>2013-12-22T15:43:49</time>
      </trkpt>
      <trkpt lat="43.17556" lon="0.86802">
        <ele>438.3</ele>
        <time>2013-12-22T15:43:50</time>
      </trkpt>
      <trkpt lat="43.17556" lon="0.868">
        <ele>438.5</ele>
        <time>2013-12-22T15:43:51</time>
      </trkpt>
      <trkpt lat="43.17556" lon="0.86799">
        <ele>438.4</ele>
        <time>2013-12-22T15:43:52</time>
      </trkpt>
      <trkpt lat="43.17557" lon="0.86797">
        <ele>438.3</ele>
        <time>2013-12-22T15:43:53</time>
      </trkpt>
      <trkpt lat="43.17558" lon="0.86796">
        <ele>438.2</ele>
        <time>2013-12-22T15:43:54</time>
      </trkpt>
      <trkpt lat="43.17558" lon="0.86794">
        <ele>438.2</ele>
        <time>2013-12-22T15:43:55</time>
      </trkpt>
      <trkpt lat="43.17558" lon="0.86793">
        <ele>438.2</ele>
        <time>2013-12-22T15:43:56</time>
      </trkpt>
      <trkpt lat="43.17559" lon="0.86791">
        <ele>438.1</ele>
        <time>2013-12-22T15:43:57</time>
      </trkpt>
      <trkpt lat="43.17559" lon="0.8679">
        <ele>438</ele>
        <time>2013-12-22T15:43:58</time>
      </trkpt>
      <trkpt lat="43.1756" lon="0.86788">
        <ele>437.9</ele>
        <time>2013-12-22T15:43:59</time>
      </trkpt>
      <trkpt lat="43.1756" lon="0.86787">
        <ele>437.8</ele>
        <time>2013-12-22T15:44:00</time>
      </trkpt>
      <trkpt lat="43.17561" lon="0.86785">
        <ele>437.8</ele>
        <time>2013-12-22T15:44:01</time>
      </trkpt>
      <trkpt lat="43.17561" lon="0.86784">
        <ele>437.7</ele>
        <time>2013-12-22T15:44:02</time>
      </trkpt>
      <trkpt lat="43.17562" lon="0.86782">
        <ele>437.6</ele>
        <time>2013-12-22T15:44:03</time>
      </trkpt>
      <trkpt lat="43.17562" lon="0.86781">
        <ele>417.4</ele>
        <time>2013-12-22T15:44:04</time>
      </trkpt>
      <trkpt lat="43.17563" lon="0.8678">
        <ele>425.3</ele>
        <time>2013-12-22T15:44:05</time>
      </trkpt>
      <trkpt lat="43.17563" lon="0.86778">
        <ele>429.4</ele>
        <time>2013-12-22T15:44:06</time>
      </trkpt>
      <trkpt lat="43.17564" lon="0.86777">
        <ele>431.9</ele>
        <time>2013-12-22T15:44:07</time>
      </trkpt>
      <trkpt lat="43.17564" lon="0.86775">
        <ele>433.3</ele>
        <time>2013-12-22T15:44:08</time>
      </trkpt>
      <trkpt lat="43.17564" lon="0.86774">
        <ele>434.3</ele>
        <time>2013-12-22T15:44:09</time>
      </trkpt>
      <trkpt lat="43.17565" lon="0.86772">
        <ele>435.1</ele>
        <time>2013-12-22T15:44:10</time>
      </trkpt>
      <trkpt lat="43.17566" lon="0.86771">
        <ele>435.5</ele>
        <time>2013-12-22T15:44:11</time>
      </trkpt>
      <trkpt lat="43.17566" lon="0.8677">
        <ele>435.8</ele>
        <time>2013-12-22T15:44:12</time>
      </trkpt>
      <trkpt lat="43.17567" lon="0.86768">
        <ele>436.2</ele>
        <time>2013-12-22T15:44:13</time>
      </trkpt>
      <trkpt lat="43.17567" lon="0.86767">
        <ele>436.4</ele>
        <time>2013-12-22T15:44:14</time>
      </trkpt>
      <trkpt lat="43.17567" lon="0.86765">
        <ele>436.5</ele>
        <time>2013-12-22T15:44:15</time>
      </trkpt>
      <trkpt lat="43.17568" lon="0.86764">
        <ele>436.7</ele>
        <time>2013-12-22T15:44:16</time>
      </trkpt>
      <trkpt lat="43.17569" lon="0.86762">
        <ele>436.8</ele>
        <time>2013-12-22T15:44:17</time>
      </trkpt>
      <trkpt lat="43.17569" lon="0.86761">
        <ele>437</ele>
        <time>2013-12-22T15:44:18</time>
      </trkpt>
      <trkpt lat="43.17569" lon="0.8676">
        <ele>436.9</ele>
        <time>2013-12-22T15:44:19</time>
      </trkpt>
      <trkpt lat="43.1757" lon="0.86759">
        <ele>436.8</ele>
        <time>2013-12-22T15:44:20</time>
      </trkpt>
      <trkpt lat="43.17571" lon="0.86757">
        <ele>436.8</ele>
        <time>2013-12-22T15:44:21</time>
      </trkpt>
      <trkpt lat="43.17571" lon="0.86756">
        <ele>436.9</ele>
        <time>2013-12-22T15:44:22</time>
      </trkpt>
      <trkpt lat="43.17571" lon="0.86754">
        <ele>436.7</ele>
        <time>2013-12-22T15:44:23</time>
      </trkpt>
      <trkpt lat="43.17572" lon="0.86753">
        <ele>436.8</ele>
        <time>2013-12-22T15:44:24</time>
      </trkpt>
      <trkpt lat="43.17572" lon="0.86752">
        <ele>436.9</ele>
        <time>2013-12-22T15:44:25</time>
      </trkpt>
      <trkpt lat="43.17573" lon="0.8675">
        <ele>436.8</ele>
        <time>2013-12-22T15:44:26</time>
      </trkpt>
      <trkpt lat="43.17574" lon="0.86749">
        <ele>436.7</ele>
        <time>2013-12-22T15:44:27</time>
      </trkpt>
      <trkpt lat="43.17574" lon="0.86748">
        <ele>436.7</ele>
        <time>2013-12-22T15:44:28</time>
      </trkpt>
      <trkpt lat="43.17575" lon="0.86746">
        <ele>436.4</ele>
        <time>2013-12-22T15:44:29</time>
      </trkpt>
      <trkpt lat="43.17576" lon="0.86745">
        <ele>436.1</ele>
        <time>2013-12-22T15:44:30</time>
      </trkpt>
      <trkpt lat="43.17576" lon="0.86744">
        <ele>436.8</ele>
        <time>2013-12-22T15:44:31</time>
      </trkpt>
      <trkpt lat="43.17577" lon="0.86742">
        <ele>436.8</ele>
        <time>2013-12-22T15:44:32</time>
      </trkpt>
      <trkpt lat="43.17577" lon="0.86741">
        <ele>429.3</ele>
        <time>2013-12-22T15:44:33</time>
      </trkpt>
      <trkpt lat="43.17577" lon="0.8674">
        <ele>432.5</ele>
        <time>2013-12-22T15:44:34</time>
      </trkpt>
      <trkpt lat="43.17578" lon="0.86738">
        <ele>434.3</ele>
        <time>2013-12-22T15:44:35</time>
      </trkpt>
      <trkpt lat="43.17578" lon="0.86737">
        <ele>435.3</ele>
        <time>2013-12-22T15:44:36</time>
      </trkpt>
      <trkpt lat="43.17578" lon="0.86735">
        <ele>436</ele>
        <time>2013-12-22T15:44:37</time>
      </trkpt>
      <trkpt lat="43.17578" lon="0.86733">
        <ele>436.3</ele>
        <time>2013-12-22T15:44:38</time>
      </trkpt>
      <trkpt lat="43.17579" lon="0.86732">
        <ele>436.4</ele>
        <time>2013-12-22T15:44:39</time>
      </trkpt>
      <trkpt lat="43.17579" lon="0.8673">
        <ele>437</ele>
        <time>2013-12-22T15:44:40</time>
      </trkpt>
      <trkpt lat="43.17579" lon="0.86729">
        <ele>437.3</ele>
        <time>2013-12-22T15:44:41</time>
      </trkpt>
      <trkpt lat="43.1758" lon="0.86727">
        <ele>437.6</ele>
        <time>2013-12-22T15:44:42</time>
      </trkpt>
      <trkpt lat="43.1758" lon="0.86726">
        <ele>437.6</ele>
        <time>2013-12-22T15:44:43</time>
      </trkpt>
      <trkpt lat="43.1758" lon="0.86724">
        <ele>438</ele>
        <time>2013-12-22T15:44:44</time>
      </trkpt>
      <trkpt lat="43.17581" lon="0.86723">
        <ele>437.8</ele>
        <time>2013-12-22T15:44:45</time>
      </trkpt>
      <trkpt lat="43.17581" lon="0.86721">
        <ele>437.6</ele>
        <time>2013-12-22T15:44:46</time>
      </trkpt>
      <trkpt lat="43.17582" lon="0.8672">
        <ele>437.6</ele>
        <time>2013-12-22T15:44:47</time>
      </trkpt>
      <trkpt lat="43.17582" lon="0.86718">
        <ele>437.7</ele>
        <time>2013-12-22T15:44:48</time>
      </trkpt>
      <trkpt lat="43.17582" lon="0.86717">
        <ele>437.7</ele>
        <time>2013-12-22T15:44:49</time>
      </trkpt>
      <trkpt lat="43.17583" lon="0.86715">
        <ele>437.9</ele>
        <time>2013-12-22T15:44:50</time>
      </trkpt>
      <trkpt lat="43.17583" lon="0.86713">
        <ele>437.8</ele>
        <time>2013-12-22T15:44:51</time>
      </trkpt>
      <trkpt lat="43.17584" lon="0.86712">
        <ele>438</ele>
        <time>2013-12-22T15:44:52</time>
      </trkpt>
      <trkpt lat="43.17584" lon="0.8671">
        <ele>438</ele>
        <time>2013-12-22T15:44:53</time>
      </trkpt>
      <trkpt lat="43.17585" lon="0.86709">
        <ele>438.2</ele>
        <time>2013-12-22T15:44:54</time>
      </trkpt>
      <trkpt lat="43.17585" lon="0.86707">
        <ele>438.2</ele>
        <time>2013-12-22T15:44:55</time>
      </trkpt>
      <trkpt lat="43.17585" lon="0.86705">
        <ele>438</ele>
        <time>2013-12-22T15:44:56</time>
      </trkpt>
      <trkpt lat="43.17585" lon="0.86704">
        <ele>438.2</ele>
        <time>2013-12-22T15:44:57</time>
      </trkpt>
      <trkpt lat="43.17586" lon="0.86702">
        <ele>438.3</ele>
        <time>2013-12-22T15:44:58</time>
      </trkpt>
      <trkpt lat="43.17586" lon="0.86701">
        <ele>438.5</ele>
        <time>2013-12-22T15:44:59</time>
      </trkpt>
      <trkpt lat="43.17587" lon="0.86699">
        <ele>438.4</ele>
        <time>2013-12-22T15:45:00</time>
      </trkpt>
      <trkpt lat="43.17587" lon="0.86698">
        <ele>438.3</ele>
        <time>2013-12-22T15:45:01</time>
      </trkpt>
      <trkpt lat="43.17587" lon="0.86696">
        <ele>438.4</ele>
        <time>2013-12-22T15:45:02</time>
      </trkpt>
      <trkpt lat="43.17588" lon="0.86695">
        <ele>438.2</ele>
        <time>2013-12-22T15:45:03</time>
      </trkpt>
      <trkpt lat="43.17588" lon="0.86693">
        <ele>438.2</ele>
        <time>2013-12-22T15:45:04</time>
      </trkpt>
      <trkpt lat="43.17589" lon="0.86692">
        <ele>438.4</ele>
        <time>2013-12-22T15:45:05</time>
      </trkpt>
      <trkpt lat="43.17589" lon="0.8669">
        <ele>438.2</ele>
        <time>2013-12-22T15:45:06</time>
      </trkpt>
      <trkpt lat="43.1759" lon="0.86689">
        <ele>438.5</ele>
        <time>2013-12-22T15:45:07</time>
      </trkpt>
      <trkpt lat="43.1759" lon="0.86687">
        <ele>438.3</ele>
        <time>2013-12-22T15:45:08</time>
      </trkpt>
      <trkpt lat="43.1759" lon="0.86686">
        <ele>438</ele>
        <time>2013-12-22T15:45:09</time>
      </trkpt>
      <trkpt lat="43.17591" lon="0.86685">
        <ele>438.4</ele>
        <time>2013-12-22T15:45:10</time>
      </trkpt>
      <trkpt lat="43.17591" lon="0.86683">
        <ele>438.3</ele>
        <time>2013-12-22T15:45:11</time>
      </trkpt>
      <trkpt lat="43.17592" lon="0.86681">
        <ele>438.5</ele>
        <time>2013-12-22T15:45:12</time>
      </trkpt>
      <trkpt lat="43.17592" lon="0.8668">
        <ele>439</ele>
        <time>2013-12-22T15:45:13</time>
      </trkpt>
      <trkpt lat="43.17592" lon="0.86678">
        <ele>438.8</ele>
        <time>2013-12-22T15:45:14</time>
      </trkpt>
      <trkpt lat="43.17593" lon="0.86677">
        <ele>438.9</ele>
        <time>2013-12-22T15:45:15</time>
      </trkpt>
      <trkpt lat="43.17593" lon="0.86675">
        <ele>438.9</ele>
        <time>2013-12-22T15:45:16</time>
      </trkpt>
      <trkpt lat="43.17593" lon="0.86674">
        <ele>438.6</ele>
        <time>2013-12-22T15:45:17</time>
      </trkpt>
      <trkpt lat="43.17594" lon="0.86672">
        <ele>438.9</ele>
        <time>2013-12-22T15:45:18</time>
      </trkpt>
      <trkpt lat="43.17594" lon="0.86671">
        <ele>439</ele>
        <time>2013-12-22T15:45:19</time>
      </trkpt>
      <trkpt lat="43.17594" lon="0.86669">
        <ele>439.4</ele>
        <time>2013-12-22T15:45:20</time>
      </trkpt>
      <trkpt lat="43.17595" lon="0.86668">
        <ele>439.6</ele>
        <time>2013-12-22T15:45:21</time>
      </trkpt>
      <trkpt lat="43.17595" lon="0.86666">
        <ele>439.6</ele>
        <time>2013-12-22T15:45:22</time>
      </trkpt>
      <trkpt lat="43.17595" lon="0.86665">
        <ele>439.6</ele>
        <time>2013-12-22T15:45:23</time>
      </trkpt>
      <trkpt lat="43.17596" lon="0.86664">
        <ele>439.6</ele>
        <time>2013-12-22T15:45:24</time>
      </trkpt>
      <trkpt lat="43.17596" lon="0.86662">
        <ele>439.6</ele>
        <time>2013-12-22T15:45:25</time>
      </trkpt>
      <trkpt lat="43.17597" lon="0.86661">
        <ele>439.7</ele>
        <time>2013-12-22T15:45:26</time>
      </trkpt>
      <trkpt lat="43.17598" lon="0.8666">
        <ele>439.8</ele>
        <time>2013-12-22T15:45:27</time>
      </trkpt>
      <trkpt lat="43.17598" lon="0.86659">
        <ele>439.3</ele>
        <time>2013-12-22T15:45:28</time>
      </trkpt>
      <trkpt lat="43.17598" lon="0.86658">
        <ele>439.3</ele>
        <time>2013-12-22T15:45:29</time>
      </trkpt>
      <trkpt lat="43.17599" lon="0.86657">
        <ele>439.2</ele>
        <time>2013-12-22T15:45:30</time>
      </trkpt>
      <trkpt lat="43.17599" lon="0.86656">
        <ele>439.2</ele>
        <time>2013-12-22T15:45:31</time>
      </trkpt>
      <trkpt lat="43.176" lon="0.86655">
        <ele>439.2</ele>
        <time>2013-12-22T15:45:32</time>
      </trkpt>
      <trkpt lat="43.176" lon="0.86654">
        <ele>438.9</ele>
        <time>2013-12-22T15:45:33</time>
      </trkpt>
      <trkpt lat="43.176" lon="0.86652">
        <ele>439.1</ele>
        <time>2013-12-22T15:45:34</time>
      </trkpt>
      <trkpt lat="43.17601" lon="0.86651">
        <ele>439.1</ele>
        <time>2013-12-22T15:45:35</time>
      </trkpt>
      <trkpt lat="43.17601" lon="0.8665">
        <ele>439.1</ele>
        <time>2013-12-22T15:45:36</time>
      </trkpt>
      <trkpt lat="43.17601" lon="0.86649">
        <ele>439.1</ele>
        <time>2013-12-22T15:45:37</time>
      </trkpt>
      <trkpt lat="43.17601" lon="0.86647">
        <ele>439.1</ele>
        <time>2013-12-22T15:45:38</time>
      </trkpt>
      <trkpt lat="43.17601" lon="0.86646">
        <ele>439.2</ele>
        <time>2013-12-22T15:45:39</time>
      </trkpt>
      <trkpt lat="43.17601" lon="0.86644">
        <ele>439.1</ele>
        <time>2013-12-22T15:45:40</time>
      </trkpt>
      <trkpt lat="43.17601" lon="0.86643">
        <ele>439.2</ele>
        <time>2013-12-22T15:45:41</time>
      </trkpt>
      <trkpt lat="43.17601" lon="0.86641">
        <ele>439.1</ele>
        <time>2013-12-22T15:45:42</time>
      </trkpt>
      <trkpt lat="43.17601" lon="0.86639">
        <ele>439.1</ele>
        <time>2013-12-22T15:45:43</time>
      </trkpt>
      <trkpt lat="43.17601" lon="0.86638">
        <ele>439</ele>
        <time>2013-12-22T15:45:44</time>
      </trkpt>
      <trkpt lat="43.17601" lon="0.86636">
        <ele>439.8</ele>
        <time>2013-12-22T15:45:45</time>
      </trkpt>
      <trkpt lat="43.17601" lon="0.86635">
        <ele>439.9</ele>
        <time>2013-12-22T15:45:46</time>
      </trkpt>
      <trkpt lat="43.17601" lon="0.86633">
        <ele>440</ele>
        <time>2013-12-22T15:45:47</time>
      </trkpt>
      <trkpt lat="43.17601" lon="0.86631">
        <ele>440.2</ele>
        <time>2013-12-22T15:45:48</time>
      </trkpt>
      <trkpt lat="43.17601" lon="0.8663">
        <ele>440.4</ele>
        <time>2013-12-22T15:45:49</time>
      </trkpt>
      <trkpt lat="43.17601" lon="0.86628">
        <ele>440.5</ele>
        <time>2013-12-22T15:45:50</time>
      </trkpt>
      <trkpt lat="43.17601" lon="0.86626">
        <ele>440.6</ele>
        <time>2013-12-22T15:45:51</time>
      </trkpt>
      <trkpt lat="43.17601" lon="0.86625">
        <ele>440.5</ele>
        <time>2013-12-22T15:45:52</time>
      </trkpt>
      <trkpt lat="43.17601" lon="0.86623">
        <ele>440.7</ele>
        <time>2013-12-22T15:45:53</time>
      </trkpt>
      <trkpt lat="43.17601" lon="0.86621">
        <ele>441</ele>
        <time>2013-12-22T15:45:54</time>
      </trkpt>
      <trkpt lat="43.17601" lon="0.8662">
        <ele>441</ele>
        <time>2013-12-22T15:45:55</time>
      </trkpt>
      <trkpt lat="43.176" lon="0.86618">
        <ele>441.1</ele>
        <time>2013-12-22T15:45:56</time>
      </trkpt>
      <trkpt lat="43.176" lon="0.86617">
        <ele>441.2</ele>
        <time>2013-12-22T15:45:57</time>
      </trkpt>
      <trkpt lat="43.176" lon="0.86615">
        <ele>441.2</ele>
        <time>2013-12-22T15:45:58</time>
      </trkpt>
      <trkpt lat="43.176" lon="0.86614">
        <ele>441.2</ele>
        <time>2013-12-22T15:45:59</time>
      </trkpt>
      <trkpt lat="43.17599" lon="0.86612">
        <ele>441.6</ele>
        <time>2013-12-22T15:46:00</time>
      </trkpt>
      <trkpt lat="43.17599" lon="0.86611">
        <ele>441.8</ele>
        <time>2013-12-22T15:46:01</time>
      </trkpt>
      <trkpt lat="43.17599" lon="0.86609">
        <ele>441.8</ele>
        <time>2013-12-22T15:46:02</time>
      </trkpt>
      <trkpt lat="43.17598" lon="0.86608">
        <ele>442.2</ele>
        <time>2013-12-22T15:46:03</time>
      </trkpt>
      <trkpt lat="43.17598" lon="0.86607">
        <ele>442.8</ele>
        <time>2013-12-22T15:46:04</time>
      </trkpt>
      <trkpt lat="43.17598" lon="0.86606">
        <ele>443.2</ele>
        <time>2013-12-22T15:46:05</time>
      </trkpt>
      <trkpt lat="43.17598" lon="0.86604">
        <ele>443</ele>
        <time>2013-12-22T15:46:06</time>
      </trkpt>
      <trkpt lat="43.17597" lon="0.86603">
        <ele>443.3</ele>
        <time>2013-12-22T15:46:07</time>
      </trkpt>
      <trkpt lat="43.17597" lon="0.86602">
        <ele>443.5</ele>
        <time>2013-12-22T15:46:08</time>
      </trkpt>
      <trkpt lat="43.17597" lon="0.86601">
        <ele>443.8</ele>
        <time>2013-12-22T15:46:09</time>
      </trkpt>
      <trkpt lat="43.17596" lon="0.86599">
        <ele>444.2</ele>
        <time>2013-12-22T15:46:10</time>
      </trkpt>
      <trkpt lat="43.17596" lon="0.86598">
        <ele>444.3</ele>
        <time>2013-12-22T15:46:11</time>
      </trkpt>
      <trkpt lat="43.17595" lon="0.86597">
        <ele>444.5</ele>
        <time>2013-12-22T15:46:12</time>
      </trkpt>
      <trkpt lat="43.17594" lon="0.86596">
        <ele>444.9</ele>
        <time>2013-12-22T15:46:13</time>
      </trkpt>
      <trkpt lat="43.17594" lon="0.86595">
        <ele>445.2</ele>
        <time>2013-12-22T15:46:14</time>
      </trkpt>
      <trkpt lat="43.17593" lon="0.86594">
        <ele>445.3</ele>
        <time>2013-12-22T15:46:15</time>
      </trkpt>
      <trkpt lat="43.17593" lon="0.86593">
        <ele>445.4</ele>
        <time>2013-12-22T15:46:16</time>
      </trkpt>
      <trkpt lat="43.17592" lon="0.86592">
        <ele>446.1</ele>
        <time>2013-12-22T15:46:17</time>
      </trkpt>
      <trkpt lat="43.17592" lon="0.86591">
        <ele>446.3</ele>
        <time>2013-12-22T15:46:18</time>
      </trkpt>
      <trkpt lat="43.17592" lon="0.8659">
        <ele>446.2</ele>
        <time>2013-12-22T15:46:19</time>
      </trkpt>
      <trkpt lat="43.17591" lon="0.86589">
        <ele>446.4</ele>
        <time>2013-12-22T15:46:20</time>
      </trkpt>
      <trkpt lat="43.17591" lon="0.86588">
        <ele>446.6</ele>
        <time>2013-12-22T15:46:21</time>
      </trkpt>
      <trkpt lat="43.1759" lon="0.86587">
        <ele>446.8</ele>
        <time>2013-12-22T15:46:22</time>
      </trkpt>
      <trkpt lat="43.1759" lon="0.86586">
        <ele>446.5</ele>
        <time>2013-12-22T15:46:23</time>
      </trkpt>
      <trkpt lat="43.17589" lon="0.86585">
        <ele>446.7</ele>
        <time>2013-12-22T15:46:24</time>
      </trkpt>
      <trkpt lat="43.17588" lon="0.86584">
        <ele>446.9</ele>
        <time>2013-12-22T15:46:25</time>
      </trkpt>
      <trkpt lat="43.17588" lon="0.86583">
        <ele>446.9</ele>
        <time>2013-12-22T15:46:26</time>
      </trkpt>
      <trkpt lat="43.17587" lon="0.86583">
        <ele>447.2</ele>
        <time>2013-12-22T15:46:27</time>
      </trkpt>
      <trkpt lat="43.17587" lon="0.86582">
        <ele>447.5</ele>
        <time>2013-12-22T15:46:28</time>
      </trkpt>
      <trkpt lat="43.17587" lon="0.86581">
        <ele>447.7</ele>
        <time>2013-12-22T15:46:29</time>
      </trkpt>
      <trkpt lat="43.17586" lon="0.8658">
        <ele>447.7</ele>
        <time>2013-12-22T15:46:30</time>
      </trkpt>
      <trkpt lat="43.17585" lon="0.86579">
        <ele>447.9</ele>
        <time>2013-12-22T15:46:31</time>
      </trkpt>
      <trkpt lat="43.17585" lon="0.86578">
        <ele>448</ele>
        <time>2013-12-22T15:46:32</time>
      </trkpt>
      <trkpt lat="43.17584" lon="0.86577">
        <ele>448.1</ele>
        <time>2013-12-22T15:46:33</time>
      </trkpt>
      <trkpt lat="43.17584" lon="0.86576">
        <ele>448.4</ele>
        <time>2013-12-22T15:46:34</time>
      </trkpt>
      <trkpt lat="43.17583" lon="0.86575">
        <ele>448.4</ele>
        <time>2013-12-22T15:46:35</time>
      </trkpt>
      <trkpt lat="43.17582" lon="0.86574">
        <ele>448.5</ele>
        <time>2013-12-22T15:46:36</time>
      </trkpt>
      <trkpt lat="43.17582" lon="0.86573">
        <ele>448.6</ele>
        <time>2013-12-22T15:46:37</time>
      </trkpt>
      <trkpt lat="43.17581" lon="0.86572">
        <ele>448.9</ele>
        <time>2013-12-22T15:46:38</time>
      </trkpt>
      <trkpt lat="43.1758" lon="0.86571">
        <ele>449</ele>
        <time>2013-12-22T15:46:39</time>
      </trkpt>
      <trkpt lat="43.1758" lon="0.8657">
        <ele>449.1</ele>
        <time>2013-12-22T15:46:40</time>
      </trkpt>
      <trkpt lat="43.17579" lon="0.86569">
        <ele>449.2</ele>
        <time>2013-12-22T15:46:41</time>
      </trkpt>
      <trkpt lat="43.17579" lon="0.86568">
        <ele>449.1</ele>
        <time>2013-12-22T15:46:42</time>
      </trkpt>
      <trkpt lat="43.17578" lon="0.86567">
        <ele>443.3</ele>
        <time>2013-12-22T15:46:43</time>
      </trkpt>
      <trkpt lat="43.17577" lon="0.86566">
        <ele>445.9</ele>
        <time>2013-12-22T15:46:44</time>
      </trkpt>
      <trkpt lat="43.17577" lon="0.86565">
        <ele>447.3</ele>
        <time>2013-12-22T15:46:45</time>
      </trkpt>
      <trkpt lat="43.17576" lon="0.86564">
        <ele>447.4</ele>
        <time>2013-12-22T15:46:46</time>
      </trkpt>
      <trkpt lat="43.17576" lon="0.86563">
        <ele>448.8</ele>
        <time>2013-12-22T15:46:47</time>
      </trkpt>
      <trkpt lat="43.17575" lon="0.86562">
        <ele>448.9</ele>
        <time>2013-12-22T15:46:48</time>
      </trkpt>
      <trkpt lat="43.17574" lon="0.86561">
        <ele>450.2</ele>
        <time>2013-12-22T15:46:49</time>
      </trkpt>
      <trkpt lat="43.17574" lon="0.86561">
        <ele>450.6</ele>
        <time>2013-12-22T15:46:50</time>
      </trkpt>
      <trkpt lat="43.17573" lon="0.8656">
        <ele>450.6</ele>
        <time>2013-12-22T15:46:51</time>
      </trkpt>
      <trkpt lat="43.17573" lon="0.86559">
        <ele>450.8</ele>
        <time>2013-12-22T15:46:52</time>
      </trkpt>
      <trkpt lat="43.17572" lon="0.86558">
        <ele>451.6</ele>
        <time>2013-12-22T15:46:53</time>
      </trkpt>
      <trkpt lat="43.17572" lon="0.86557">
        <ele>452</ele>
        <time>2013-12-22T15:46:54</time>
      </trkpt>
      <trkpt lat="43.17571" lon="0.86556">
        <ele>452.1</ele>
        <time>2013-12-22T15:46:55</time>
      </trkpt>
      <trkpt lat="43.17571" lon="0.86554">
        <ele>452.5</ele>
        <time>2013-12-22T15:46:56</time>
      </trkpt>
      <trkpt lat="43.1757" lon="0.86553">
        <ele>452.5</ele>
        <time>2013-12-22T15:46:57</time>
      </trkpt>
      <trkpt lat="43.17569" lon="0.86553">
        <ele>452.7</ele>
        <time>2013-12-22T15:46:58</time>
      </trkpt>
      <trkpt lat="43.17568" lon="0.86552">
        <ele>453.1</ele>
        <time>2013-12-22T15:46:59</time>
      </trkpt>
      <trkpt lat="43.17567" lon="0.86551">
        <ele>453.4</ele>
        <time>2013-12-22T15:47:00</time>
      </trkpt>
      <trkpt lat="43.17567" lon="0.86549">
        <ele>453.5</ele>
        <time>2013-12-22T15:47:01</time>
      </trkpt>
      <trkpt lat="43.17566" lon="0.86548">
        <ele>453.6</ele>
        <time>2013-12-22T15:47:02</time>
      </trkpt>
      <trkpt lat="43.17566" lon="0.86547">
        <ele>453.5</ele>
        <time>2013-12-22T15:47:03</time>
      </trkpt>
      <trkpt lat="43.17566" lon="0.86546">
        <ele>453.6</ele>
        <time>2013-12-22T15:47:04</time>
      </trkpt>
      <trkpt lat="43.17565" lon="0.86545">
        <ele>453.6</ele>
        <time>2013-12-22T15:47:05</time>
      </trkpt>
      <trkpt lat="43.17564" lon="0.86544">
        <ele>449.5</ele>
        <time>2013-12-22T15:47:06</time>
      </trkpt>
      <trkpt lat="43.17564" lon="0.86543">
        <ele>451.3</ele>
        <time>2013-12-22T15:47:07</time>
      </trkpt>
      <trkpt lat="43.17563" lon="0.86542">
        <ele>452.2</ele>
        <time>2013-12-22T15:47:08</time>
      </trkpt>
      <trkpt lat="43.17562" lon="0.86541">
        <ele>452.7</ele>
        <time>2013-12-22T15:47:09</time>
      </trkpt>
      <trkpt lat="43.17562" lon="0.8654">
        <ele>453.9</ele>
        <time>2013-12-22T15:47:10</time>
      </trkpt>
      <trkpt lat="43.17561" lon="0.86538">
        <ele>454.1</ele>
        <time>2013-12-22T15:47:11</time>
      </trkpt>
      <trkpt lat="43.17561" lon="0.86537">
        <ele>455.5</ele>
        <time>2013-12-22T15:47:12</time>
      </trkpt>
      <trkpt lat="43.1756" lon="0.86536">
        <ele>456.1</ele>
        <time>2013-12-22T15:47:13</time>
      </trkpt>
      <trkpt lat="43.17559" lon="0.86534">
        <ele>456.8</ele>
        <time>2013-12-22T15:47:14</time>
      </trkpt>
      <trkpt lat="43.17559" lon="0.86533">
        <ele>457.6</ele>
        <time>2013-12-22T15:47:15</time>
      </trkpt>
      <trkpt lat="43.17558" lon="0.86532">
        <ele>457.9</ele>
        <time>2013-12-22T15:47:16</time>
      </trkpt>
      <trkpt lat="43.17557" lon="0.86531">
        <ele>458.6</ele>
        <time>2013-12-22T15:47:17</time>
      </trkpt>
      <trkpt lat="43.17556" lon="0.8653">
        <ele>458.8</ele>
        <time>2013-12-22T15:47:18</time>
      </trkpt>
      <trkpt lat="43.17556" lon="0.86529">
        <ele>459.3</ele>
        <time>2013-12-22T15:47:19</time>
      </trkpt>
      <trkpt lat="43.17555" lon="0.86528">
        <ele>459.5</ele>
        <time>2013-12-22T15:47:20</time>
      </trkpt>
      <trkpt lat="43.17555" lon="0.86527">
        <ele>460.4</ele>
        <time>2013-12-22T15:47:21</time>
      </trkpt>
      <trkpt lat="43.17554" lon="0.86526">
        <ele>460.5</ele>
        <time>2013-12-22T15:47:22</time>
      </trkpt>
      <trkpt lat="43.17553" lon="0.86524">
        <ele>460.5</ele>
        <time>2013-12-22T15:47:23</time>
      </trkpt>
      <trkpt lat="43.17552" lon="0.86523">
        <ele>460.7</ele>
        <time>2013-12-22T15:47:24</time>
      </trkpt>
      <trkpt lat="43.17551" lon="0.86522">
        <ele>461.3</ele>
        <time>2013-12-22T15:47:25</time>
      </trkpt>
      <trkpt lat="43.17551" lon="0.86521">
        <ele>461.5</ele>
        <time>2013-12-22T15:47:26</time>
      </trkpt>
      <trkpt lat="43.1755" lon="0.8652">
        <ele>461.9</ele>
        <time>2013-12-22T15:47:27</time>
      </trkpt>
      <trkpt lat="43.1755" lon="0.86519">
        <ele>462.1</ele>
        <time>2013-12-22T15:47:28</time>
      </trkpt>
      <trkpt lat="43.17551" lon="0.8652">
        <ele>462.4</ele>
        <time>2013-12-22T15:47:41</time>
      </trkpt>
      <trkpt lat="43.1755" lon="0.86519">
        <ele>462.5</ele>
        <time>2013-12-22T15:47:42</time>
      </trkpt>
      <trkpt lat="43.17549" lon="0.86518">
        <ele>462.7</ele>
        <time>2013-12-22T15:47:43</time>
      </trkpt>
      <trkpt lat="43.17549" lon="0.86517">
        <ele>462.9</ele>
        <time>2013-12-22T15:47:44</time>
      </trkpt>
      <trkpt lat="43.17548" lon="0.86516">
        <ele>463.1</ele>
        <time>2013-12-22T15:47:45</time>
      </trkpt>
      <trkpt lat="43.17547" lon="0.86516">
        <ele>463.5</ele>
        <time>2013-12-22T15:47:46</time>
      </trkpt>
      <trkpt lat="43.17547" lon="0.86515">
        <ele>463.4</ele>
        <time>2013-12-22T15:47:49</time>
      </trkpt>
      <trkpt lat="43.17547" lon="0.86514">
        <ele>462.9</ele>
        <time>2013-12-22T15:47:50</time>
      </trkpt>
      <trkpt lat="43.17547" lon="0.86513">
        <ele>462.9</ele>
        <time>2013-12-22T15:47:51</time>
      </trkpt>
      <trkpt lat="43.17546" lon="0.86511">
        <ele>463.3</ele>
        <time>2013-12-22T15:47:52</time>
      </trkpt>
      <trkpt lat="43.17546" lon="0.86509">
        <ele>463.5</ele>
        <time>2013-12-22T15:47:53</time>
      </trkpt>
      <trkpt lat="43.17545" lon="0.86508">
        <ele>463.8</ele>
        <time>2013-12-22T15:47:54</time>
      </trkpt>
      <trkpt lat="43.17544" lon="0.86507">
        <ele>463.8</ele>
        <time>2013-12-22T15:47:55</time>
      </trkpt>
      <trkpt lat="43.17543" lon="0.86506">
        <ele>463.9</ele>
        <time>2013-12-22T15:47:56</time>
      </trkpt>
      <trkpt lat="43.17543" lon="0.86504">
        <ele>464.2</ele>
        <time>2013-12-22T15:47:57</time>
      </trkpt>
      <trkpt lat="43.17542" lon="0.86503">
        <ele>463.9</ele>
        <time>2013-12-22T15:47:58</time>
      </trkpt>
      <trkpt lat="43.17542" lon="0.86502">
        <ele>464.1</ele>
        <time>2013-12-22T15:47:59</time>
      </trkpt>
      <trkpt lat="43.17541" lon="0.86501">
        <ele>464.5</ele>
        <time>2013-12-22T15:48:00</time>
      </trkpt>
      <trkpt lat="43.1754" lon="0.86501">
        <ele>464.4</ele>
        <time>2013-12-22T15:48:01</time>
      </trkpt>
      <trkpt lat="43.17539" lon="0.865">
        <ele>464.7</ele>
        <time>2013-12-22T15:48:02</time>
      </trkpt>
      <trkpt lat="43.17539" lon="0.86499">
        <ele>464.9</ele>
        <time>2013-12-22T15:48:03</time>
      </trkpt>
      <trkpt lat="43.17538" lon="0.86498">
        <ele>465.4</ele>
        <time>2013-12-22T15:48:04</time>
      </trkpt>
      <trkpt lat="43.17537" lon="0.86497">
        <ele>465.8</ele>
        <time>2013-12-22T15:48:05</time>
      </trkpt>
      <trkpt lat="43.17536" lon="0.86496">
        <ele>465.9</ele>
        <time>2013-12-22T15:48:06</time>
      </trkpt>
      <trkpt lat="43.17535" lon="0.86495">
        <ele>466</ele>
        <time>2013-12-22T15:48:07</time>
      </trkpt>
      <trkpt lat="43.17534" lon="0.86494">
        <ele>466.1</ele>
        <time>2013-12-22T15:48:08</time>
      </trkpt>
      <trkpt lat="43.17534" lon="0.86493">
        <ele>466.3</ele>
        <time>2013-12-22T15:48:09</time>
      </trkpt>
      <trkpt lat="43.17533" lon="0.86492">
        <ele>466.1</ele>
        <time>2013-12-22T15:48:10</time>
      </trkpt>
      <trkpt lat="43.17533" lon="0.86491">
        <ele>466.4</ele>
        <time>2013-12-22T15:48:11</time>
      </trkpt>
      <trkpt lat="43.17532" lon="0.8649">
        <ele>466.8</ele>
        <time>2013-12-22T15:48:12</time>
      </trkpt>
      <trkpt lat="43.17531" lon="0.86489">
        <ele>467.4</ele>
        <time>2013-12-22T15:48:13</time>
      </trkpt>
      <trkpt lat="43.1753" lon="0.86488">
        <ele>467.7</ele>
        <time>2013-12-22T15:48:14</time>
      </trkpt>
      <trkpt lat="43.1753" lon="0.86487">
        <ele>467.9</ele>
        <time>2013-12-22T15:48:15</time>
      </trkpt>
      <trkpt lat="43.17529" lon="0.86486">
        <ele>467.9</ele>
        <time>2013-12-22T15:48:16</time>
      </trkpt>
      <trkpt lat="43.17529" lon="0.86485">
        <ele>468</ele>
        <time>2013-12-22T15:48:17</time>
      </trkpt>
      <trkpt lat="43.17528" lon="0.86483">
        <ele>467.8</ele>
        <time>2013-12-22T15:48:18</time>
      </trkpt>
      <trkpt lat="43.17527" lon="0.86482">
        <ele>467.9</ele>
        <time>2013-12-22T15:48:19</time>
      </trkpt>
      <trkpt lat="43.17527" lon="0.86481">
        <ele>467.9</ele>
        <time>2013-12-22T15:48:20</time>
      </trkpt>
      <trkpt lat="43.17527" lon="0.8648">
        <ele>467.8</ele>
        <time>2013-12-22T15:48:21</time>
      </trkpt>
      <trkpt lat="43.17526" lon="0.86479">
        <ele>467.9</ele>
        <time>2013-12-22T15:48:22</time>
      </trkpt>
      <trkpt lat="43.17526" lon="0.86478">
        <ele>468.3</ele>
        <time>2013-12-22T15:48:23</time>
      </trkpt>
      <trkpt lat="43.17525" lon="0.86477">
        <ele>468.5</ele>
        <time>2013-12-22T15:48:24</time>
      </trkpt>
      <trkpt lat="43.17525" lon="0.86476">
        <ele>468.4</ele>
        <time>2013-12-22T15:48:25</time>
      </trkpt>
      <trkpt lat="43.17524" lon="0.86475">
        <ele>468.6</ele>
        <time>2013-12-22T15:48:26</time>
      </trkpt>
      <trkpt lat="43.17524" lon="0.86474">
        <ele>468.4</ele>
        <time>2013-12-22T15:48:27</time>
      </trkpt>
      <trkpt lat="43.17523" lon="0.86473">
        <ele>468.5</ele>
        <time>2013-12-22T15:48:28</time>
      </trkpt>
      <trkpt lat="43.17522" lon="0.86472">
        <ele>468.8</ele>
        <time>2013-12-22T15:48:29</time>
      </trkpt>
      <trkpt lat="43.17522" lon="0.86471">
        <ele>468.6</ele>
        <time>2013-12-22T15:48:30</time>
      </trkpt>
      <trkpt lat="43.17521" lon="0.8647">
        <ele>468.7</ele>
        <time>2013-12-22T15:48:31</time>
      </trkpt>
      <trkpt lat="43.17521" lon="0.86469">
        <ele>468.7</ele>
        <time>2013-12-22T15:48:32</time>
      </trkpt>
      <trkpt lat="43.17521" lon="0.86468">
        <ele>468.8</ele>
        <time>2013-12-22T15:48:33</time>
      </trkpt>
      <trkpt lat="43.1752" lon="0.86467">
        <ele>468.8</ele>
        <time>2013-12-22T15:48:34</time>
      </trkpt>
      <trkpt lat="43.1752" lon="0.86466">
        <ele>468.7</ele>
        <time>2013-12-22T15:48:35</time>
      </trkpt>
      <trkpt lat="43.17519" lon="0.86464">
        <ele>468.8</ele>
        <time>2013-12-22T15:48:36</time>
      </trkpt>
      <trkpt lat="43.17519" lon="0.86463">
        <ele>469</ele>
        <time>2013-12-22T15:48:37</time>
      </trkpt>
      <trkpt lat="43.17519" lon="0.86462">
        <ele>469.1</ele>
        <time>2013-12-22T15:48:38</time>
      </trkpt>
      <trkpt lat="43.17518" lon="0.86461">
        <ele>469.3</ele>
        <time>2013-12-22T15:48:39</time>
      </trkpt>
      <trkpt lat="43.17518" lon="0.8646">
        <ele>469.5</ele>
        <time>2013-12-22T15:48:40</time>
      </trkpt>
      <trkpt lat="43.17517" lon="0.86459">
        <ele>469.7</ele>
        <time>2013-12-22T15:48:41</time>
      </trkpt>
      <trkpt lat="43.17517" lon="0.86458">
        <ele>469.7</ele>
        <time>2013-12-22T15:48:42</time>
      </trkpt>
      <trkpt lat="43.17516" lon="0.86456">
        <ele>469.7</ele>
        <time>2013-12-22T15:48:43</time>
      </trkpt>
      <trkpt lat="43.17516" lon="0.86455">
        <ele>469.7</ele>
        <time>2013-12-22T15:48:44</time>
      </trkpt>
      <trkpt lat="43.17515" lon="0.86454">
        <ele>469.5</ele>
        <time>2013-12-22T15:48:45</time>
      </trkpt>
      <trkpt lat="43.17514" lon="0.86453">
        <ele>469.5</ele>
        <time>2013-12-22T15:48:46</time>
      </trkpt>
      <trkpt lat="43.17514" lon="0.86452">
        <ele>469.3</ele>
        <time>2013-12-22T15:48:47</time>
      </trkpt>
      <trkpt lat="43.17514" lon="0.8645">
        <ele>469.2</ele>
        <time>2013-12-22T15:48:48</time>
      </trkpt>
      <trkpt lat="43.17513" lon="0.86449">
        <ele>469.7</ele>
        <time>2013-12-22T15:48:49</time>
      </trkpt>
      <trkpt lat="43.17513" lon="0.86448">
        <ele>469.8</ele>
        <time>2013-12-22T15:48:50</time>
      </trkpt>
      <trkpt lat="43.17512" lon="0.86446">
        <ele>469.5</ele>
        <time>2013-12-22T15:48:51</time>
      </trkpt>
      <trkpt lat="43.17512" lon="0.86445">
        <ele>469.9</ele>
        <time>2013-12-22T15:48:52</time>
      </trkpt>
      <trkpt lat="43.17511" lon="0.86443">
        <ele>470</ele>
        <time>2013-12-22T15:48:53</time>
      </trkpt>
      <trkpt lat="43.17511" lon="0.86442">
        <ele>470.2</ele>
        <time>2013-12-22T15:48:54</time>
      </trkpt>
      <trkpt lat="43.17511" lon="0.8644">
        <ele>470.4</ele>
        <time>2013-12-22T15:48:55</time>
      </trkpt>
      <trkpt lat="43.1751" lon="0.86439">
        <ele>470.5</ele>
        <time>2013-12-22T15:48:56</time>
      </trkpt>
      <trkpt lat="43.1751" lon="0.86438">
        <ele>470.8</ele>
        <time>2013-12-22T15:48:57</time>
      </trkpt>
      <trkpt lat="43.17509" lon="0.86436">
        <ele>470.6</ele>
        <time>2013-12-22T15:48:58</time>
      </trkpt>
      <trkpt lat="43.17509" lon="0.86435">
        <ele>470.4</ele>
        <time>2013-12-22T15:48:59</time>
      </trkpt>
      <trkpt lat="43.17509" lon="0.86433">
        <ele>470.3</ele>
        <time>2013-12-22T15:49:00</time>
      </trkpt>
      <trkpt lat="43.17508" lon="0.86432">
        <ele>470.6</ele>
        <time>2013-12-22T15:49:01</time>
      </trkpt>
      <trkpt lat="43.17508" lon="0.86431">
        <ele>470.7</ele>
        <time>2013-12-22T15:49:02</time>
      </trkpt>
      <trkpt lat="43.17507" lon="0.8643">
        <ele>470.7</ele>
        <time>2013-12-22T15:49:03</time>
      </trkpt>
      <trkpt lat="43.17506" lon="0.86428">
        <ele>470.5</ele>
        <time>2013-12-22T15:49:04</time>
      </trkpt>
      <trkpt lat="43.17506" lon="0.86427">
        <ele>470.6</ele>
        <time>2013-12-22T15:49:05</time>
      </trkpt>
      <trkpt lat="43.17505" lon="0.86426">
        <ele>470.8</ele>
        <time>2013-12-22T15:49:06</time>
      </trkpt>
      <trkpt lat="43.17505" lon="0.86425">
        <ele>471</ele>
        <time>2013-12-22T15:49:07</time>
      </trkpt>
      <trkpt lat="43.17504" lon="0.86424">
        <ele>471.1</ele>
        <time>2013-12-22T15:49:08</time>
      </trkpt>
      <trkpt lat="43.17504" lon="0.86422">
        <ele>471.1</ele>
        <time>2013-12-22T15:49:09</time>
      </trkpt>
      <trkpt lat="43.17503" lon="0.86421">
        <ele>471</ele>
        <time>2013-12-22T15:49:10</time>
      </trkpt>
      <trkpt lat="43.17503" lon="0.8642">
        <ele>471</ele>
        <time>2013-12-22T15:49:11</time>
      </trkpt>
      <trkpt lat="43.17503" lon="0.86418">
        <ele>470.9</ele>
        <time>2013-12-22T15:49:12</time>
      </trkpt>
      <trkpt lat="43.17503" lon="0.86417">
        <ele>470.9</ele>
        <time>2013-12-22T15:49:13</time>
      </trkpt>
      <trkpt lat="43.17502" lon="0.86416">
        <ele>470.9</ele>
        <time>2013-12-22T15:49:14</time>
      </trkpt>
      <trkpt lat="43.17502" lon="0.86414">
        <ele>471.1</ele>
        <time>2013-12-22T15:49:15</time>
      </trkpt>
      <trkpt lat="43.17501" lon="0.86413">
        <ele>470.9</ele>
        <time>2013-12-22T15:49:16</time>
      </trkpt>
      <trkpt lat="43.17501" lon="0.86412">
        <ele>470.7</ele>
        <time>2013-12-22T15:49:17</time>
      </trkpt>
      <trkpt lat="43.17501" lon="0.86411">
        <ele>469.9</ele>
        <time>2013-12-22T15:49:18</time>
      </trkpt>
      <trkpt lat="43.175" lon="0.8641">
        <ele>469.7</ele>
        <time>2013-12-22T15:49:19</time>
      </trkpt>
      <trkpt lat="43.175" lon="0.86408">
        <ele>470</ele>
        <time>2013-12-22T15:49:20</time>
      </trkpt>
      <trkpt lat="43.175" lon="0.86407">
        <ele>470.5</ele>
        <time>2013-12-22T15:49:21</time>
      </trkpt>
      <trkpt lat="43.17499" lon="0.86406">
        <ele>470.4</ele>
        <time>2013-12-22T15:49:22</time>
      </trkpt>
      <trkpt lat="43.17498" lon="0.86405">
        <ele>470.5</ele>
        <time>2013-12-22T15:49:23</time>
      </trkpt>
      <trkpt lat="43.17498" lon="0.86404">
        <ele>470.4</ele>
        <time>2013-12-22T15:49:24</time>
      </trkpt>
      <trkpt lat="43.17498" lon="0.86402">
        <ele>470.8</ele>
        <time>2013-12-22T15:49:25</time>
      </trkpt>
      <trkpt lat="43.17497" lon="0.86401">
        <ele>470.9</ele>
        <time>2013-12-22T15:49:26</time>
      </trkpt>
      <trkpt lat="43.17497" lon="0.864">
        <ele>471</ele>
        <time>2013-12-22T15:49:27</time>
      </trkpt>
      <trkpt lat="43.17497" lon="0.86398">
        <ele>471.6</ele>
        <time>2013-12-22T15:49:28</time>
      </trkpt>
      <trkpt lat="43.17496" lon="0.86397">
        <ele>471.7</ele>
        <time>2013-12-22T15:49:29</time>
      </trkpt>
      <trkpt lat="43.17496" lon="0.86396">
        <ele>472.2</ele>
        <time>2013-12-22T15:49:30</time>
      </trkpt>
      <trkpt lat="43.17495" lon="0.86394">
        <ele>472.7</ele>
        <time>2013-12-22T15:49:31</time>
      </trkpt>
      <trkpt lat="43.17495" lon="0.86393">
        <ele>472.8</ele>
        <time>2013-12-22T15:49:32</time>
      </trkpt>
      <trkpt lat="43.17494" lon="0.86392">
        <ele>472.8</ele>
        <time>2013-12-22T15:49:33</time>
      </trkpt>
      <trkpt lat="43.17494" lon="0.8639">
        <ele>472.7</ele>
        <time>2013-12-22T15:49:34</time>
      </trkpt>
      <trkpt lat="43.17493" lon="0.86389">
        <ele>472.5</ele>
        <time>2013-12-22T15:49:35</time>
      </trkpt>
      <trkpt lat="43.17493" lon="0.86388">
        <ele>472.7</ele>
        <time>2013-12-22T15:49:36</time>
      </trkpt>
      <trkpt lat="43.17492" lon="0.86387">
        <ele>473.1</ele>
        <time>2013-12-22T15:49:37</time>
      </trkpt>
      <trkpt lat="43.17492" lon="0.86386">
        <ele>473.4</ele>
        <time>2013-12-22T15:49:38</time>
      </trkpt>
      <trkpt lat="43.17491" lon="0.86384">
        <ele>473.6</ele>
        <time>2013-12-22T15:49:39</time>
      </trkpt>
      <trkpt lat="43.17491" lon="0.86383">
        <ele>473.7</ele>
        <time>2013-12-22T15:49:40</time>
      </trkpt>
      <trkpt lat="43.1749" lon="0.86381">
        <ele>473.8</ele>
        <time>2013-12-22T15:49:41</time>
      </trkpt>
      <trkpt lat="43.1749" lon="0.8638">
        <ele>474.1</ele>
        <time>2013-12-22T15:49:42</time>
      </trkpt>
      <trkpt lat="43.1749" lon="0.86379">
        <ele>474.2</ele>
        <time>2013-12-22T15:49:43</time>
      </trkpt>
      <trkpt lat="43.17489" lon="0.86378">
        <ele>474.1</ele>
        <time>2013-12-22T15:49:44</time>
      </trkpt>
      <trkpt lat="43.17489" lon="0.86376">
        <ele>474.2</ele>
        <time>2013-12-22T15:49:45</time>
      </trkpt>
      <trkpt lat="43.17488" lon="0.86375">
        <ele>474</ele>
        <time>2013-12-22T15:49:46</time>
      </trkpt>
      <trkpt lat="43.17488" lon="0.86374">
        <ele>474</ele>
        <time>2013-12-22T15:49:47</time>
      </trkpt>
      <trkpt lat="43.17487" lon="0.86372">
        <ele>473.5</ele>
        <time>2013-12-22T15:49:48</time>
      </trkpt>
      <trkpt lat="43.17487" lon="0.86371">
        <ele>473.1</ele>
        <time>2013-12-22T15:49:49</time>
      </trkpt>
      <trkpt lat="43.17487" lon="0.8637">
        <ele>472.9</ele>
        <time>2013-12-22T15:49:50</time>
      </trkpt>
      <trkpt lat="43.17486" lon="0.86369">
        <ele>472.9</ele>
        <time>2013-12-22T15:49:51</time>
      </trkpt>
      <trkpt lat="43.17486" lon="0.86368">
        <ele>472.9</ele>
        <time>2013-12-22T15:49:52</time>
      </trkpt>
      <trkpt lat="43.17486" lon="0.86367">
        <ele>472.7</ele>
        <time>2013-12-22T15:49:53</time>
      </trkpt>
      <trkpt lat="43.17485" lon="0.86365">
        <ele>472.7</ele>
        <time>2013-12-22T15:49:54</time>
      </trkpt>
      <trkpt lat="43.17485" lon="0.86364">
        <ele>472.3</ele>
        <time>2013-12-22T15:49:55</time>
      </trkpt>
      <trkpt lat="43.17485" lon="0.86363">
        <ele>472.6</ele>
        <time>2013-12-22T15:49:56</time>
      </trkpt>
      <trkpt lat="43.17484" lon="0.86362">
        <ele>472.8</ele>
        <time>2013-12-22T15:49:57</time>
      </trkpt>
      <trkpt lat="43.17484" lon="0.86361">
        <ele>472.8</ele>
        <time>2013-12-22T15:49:58</time>
      </trkpt>
      <trkpt lat="43.17483" lon="0.8636">
        <ele>472.9</ele>
        <time>2013-12-22T15:49:59</time>
      </trkpt>
      <trkpt lat="43.17482" lon="0.86359">
        <ele>472.9</ele>
        <time>2013-12-22T15:50:00</time>
      </trkpt>
      <trkpt lat="43.17482" lon="0.86358">
        <ele>473.5</ele>
        <time>2013-12-22T15:50:01</time>
      </trkpt>
      <trkpt lat="43.17481" lon="0.86357">
        <ele>473.4</ele>
        <time>2013-12-22T15:50:02</time>
      </trkpt>
      <trkpt lat="43.17481" lon="0.86356">
        <ele>473.9</ele>
        <time>2013-12-22T15:50:03</time>
      </trkpt>
      <trkpt lat="43.1748" lon="0.86355">
        <ele>473.7</ele>
        <time>2013-12-22T15:50:04</time>
      </trkpt>
      <trkpt lat="43.17479" lon="0.86354">
        <ele>473.7</ele>
        <time>2013-12-22T15:50:05</time>
      </trkpt>
      <trkpt lat="43.17479" lon="0.86353">
        <ele>474.2</ele>
        <time>2013-12-22T15:50:06</time>
      </trkpt>
      <trkpt lat="43.17478" lon="0.86352">
        <ele>474.2</ele>
        <time>2013-12-22T15:50:07</time>
      </trkpt>
      <trkpt lat="43.17477" lon="0.86351">
        <ele>474.1</ele>
        <time>2013-12-22T15:50:08</time>
      </trkpt>
      <trkpt lat="43.17477" lon="0.86351">
        <ele>474.9</ele>
        <time>2013-12-22T15:50:09</time>
      </trkpt>
      <trkpt lat="43.17476" lon="0.8635">
        <ele>475</ele>
        <time>2013-12-22T15:50:10</time>
      </trkpt>
      <trkpt lat="43.17475" lon="0.86349">
        <ele>475</ele>
        <time>2013-12-22T15:50:11</time>
      </trkpt>
      <trkpt lat="43.17474" lon="0.86348">
        <ele>475</ele>
        <time>2013-12-22T15:50:12</time>
      </trkpt>
      <trkpt lat="43.17474" lon="0.86348">
        <ele>474.9</ele>
        <time>2013-12-22T15:50:13</time>
      </trkpt>
      <trkpt lat="43.17473" lon="0.86347">
        <ele>474.5</ele>
        <time>2013-12-22T15:50:14</time>
      </trkpt>
      <trkpt lat="43.17472" lon="0.86347">
        <ele>474.6</ele>
        <time>2013-12-22T15:50:15</time>
      </trkpt>
      <trkpt lat="43.17471" lon="0.86346">
        <ele>474.5</ele>
        <time>2013-12-22T15:50:16</time>
      </trkpt>
      <trkpt lat="43.1747" lon="0.86346">
        <ele>474.4</ele>
        <time>2013-12-22T15:50:17</time>
      </trkpt>
      <trkpt lat="43.17469" lon="0.86346">
        <ele>474.3</ele>
        <time>2013-12-22T15:50:18</time>
      </trkpt>
      <trkpt lat="43.17468" lon="0.86346">
        <ele>474.5</ele>
        <time>2013-12-22T15:50:19</time>
      </trkpt>
      <trkpt lat="43.17467" lon="0.86345">
        <ele>474.6</ele>
        <time>2013-12-22T15:50:20</time>
      </trkpt>
      <trkpt lat="43.17466" lon="0.86345">
        <ele>474.5</ele>
        <time>2013-12-22T15:50:21</time>
      </trkpt>
      <trkpt lat="43.17465" lon="0.86345">
        <ele>474.6</ele>
        <time>2013-12-22T15:50:22</time>
      </trkpt>
      <trkpt lat="43.17464" lon="0.86345">
        <ele>474.6</ele>
        <time>2013-12-22T15:50:23</time>
      </trkpt>
      <trkpt lat="43.17463" lon="0.86345">
        <ele>474.7</ele>
        <time>2013-12-22T15:50:24</time>
      </trkpt>
      <trkpt lat="43.17462" lon="0.86345">
        <ele>474.5</ele>
        <time>2013-12-22T15:50:25</time>
      </trkpt>
      <trkpt lat="43.17461" lon="0.86345">
        <ele>474.8</ele>
        <time>2013-12-22T15:50:26</time>
      </trkpt>
      <trkpt lat="43.1746" lon="0.86346">
        <ele>474.8</ele>
        <time>2013-12-22T15:50:27</time>
      </trkpt>
      <trkpt lat="43.17459" lon="0.86346">
        <ele>475</ele>
        <time>2013-12-22T15:50:28</time>
      </trkpt>
      <trkpt lat="43.17458" lon="0.86346">
        <ele>474.9</ele>
        <time>2013-12-22T15:50:29</time>
      </trkpt>
      <trkpt lat="43.17457" lon="0.86346">
        <ele>475</ele>
        <time>2013-12-22T15:50:30</time>
      </trkpt>
      <trkpt lat="43.17456" lon="0.86347">
        <ele>475.4</ele>
        <time>2013-12-22T15:50:31</time>
      </trkpt>
      <trkpt lat="43.17455" lon="0.86347">
        <ele>475.4</ele>
        <time>2013-12-22T15:50:32</time>
      </trkpt>
      <trkpt lat="43.17454" lon="0.86347">
        <ele>475.8</ele>
        <time>2013-12-22T15:50:33</time>
      </trkpt>
      <trkpt lat="43.17453" lon="0.86348">
        <ele>476.1</ele>
        <time>2013-12-22T15:50:34</time>
      </trkpt>
      <trkpt lat="43.17452" lon="0.86348">
        <ele>476.1</ele>
        <time>2013-12-22T15:50:35</time>
      </trkpt>
      <trkpt lat="43.17451" lon="0.86348">
        <ele>476.3</ele>
        <time>2013-12-22T15:50:36</time>
      </trkpt>
      <trkpt lat="43.1745" lon="0.86349">
        <ele>476.2</ele>
        <time>2013-12-22T15:50:37</time>
      </trkpt>
      <trkpt lat="43.17449" lon="0.86349">
        <ele>476.3</ele>
        <time>2013-12-22T15:50:38</time>
      </trkpt>
      <trkpt lat="43.17449" lon="0.86349">
        <ele>475.4</ele>
        <time>2013-12-22T15:50:46</time>
      </trkpt>
      <trkpt lat="43.17449" lon="0.86349">
        <ele>475.1</ele>
        <time>2013-12-22T15:50:47</time>
      </trkpt>
      <trkpt lat="43.17448" lon="0.8635">
        <ele>475.1</ele>
        <time>2013-12-22T15:50:48</time>
      </trkpt>
      <trkpt lat="43.17446" lon="0.8635">
        <ele>475.3</ele>
        <time>2013-12-22T15:50:49</time>
      </trkpt>
      <trkpt lat="43.17445" lon="0.8635">
        <ele>475.3</ele>
        <time>2013-12-22T15:50:50</time>
      </trkpt>
      <trkpt lat="43.17444" lon="0.86351">
        <ele>475.3</ele>
        <time>2013-12-22T15:50:51</time>
      </trkpt>
      <trkpt lat="43.17443" lon="0.86351">
        <ele>475.3</ele>
        <time>2013-12-22T15:50:52</time>
      </trkpt>
      <trkpt lat="43.17442" lon="0.86351">
        <ele>475.3</ele>
        <time>2013-12-22T15:50:53</time>
      </trkpt>
      <trkpt lat="43.17441" lon="0.86352">
        <ele>475.3</ele>
        <time>2013-12-22T15:50:54</time>
      </trkpt>
      <trkpt lat="43.1744" lon="0.86352">
        <ele>475.3</ele>
        <time>2013-12-22T15:50:55</time>
      </trkpt>
      <trkpt lat="43.17439" lon="0.86352">
        <ele>475.3</ele>
        <time>2013-12-22T15:50:56</time>
      </trkpt>
      <trkpt lat="43.17437" lon="0.86352">
        <ele>475.8</ele>
        <time>2013-12-22T15:50:57</time>
      </trkpt>
      <trkpt lat="43.17436" lon="0.86352">
        <ele>475.8</ele>
        <time>2013-12-22T15:50:58</time>
      </trkpt>
      <trkpt lat="43.17436" lon="0.86352">
        <ele>476.2</ele>
        <time>2013-12-22T15:50:59</time>
      </trkpt>
      <trkpt lat="43.17434" lon="0.86352">
        <ele>475.9</ele>
        <time>2013-12-22T15:51:00</time>
      </trkpt>
      <trkpt lat="43.17433" lon="0.86353">
        <ele>476.1</ele>
        <time>2013-12-22T15:51:01</time>
      </trkpt>
      <trkpt lat="43.17432" lon="0.86353">
        <ele>475.7</ele>
        <time>2013-12-22T15:51:02</time>
      </trkpt>
      <trkpt lat="43.17431" lon="0.86353">
        <ele>476.1</ele>
        <time>2013-12-22T15:51:03</time>
      </trkpt>
      <trkpt lat="43.17431" lon="0.86354">
        <ele>476.4</ele>
        <time>2013-12-22T15:51:04</time>
      </trkpt>
      <trkpt lat="43.17429" lon="0.86354">
        <ele>476.2</ele>
        <time>2013-12-22T15:51:05</time>
      </trkpt>
      <trkpt lat="43.17428" lon="0.86354">
        <ele>476.2</ele>
        <time>2013-12-22T15:51:06</time>
      </trkpt>
      <trkpt lat="43.17427" lon="0.86354">
        <ele>476.2</ele>
        <time>2013-12-22T15:51:07</time>
      </trkpt>
      <trkpt lat="43.17426" lon="0.86354">
        <ele>476.8</ele>
        <time>2013-12-22T15:51:08</time>
      </trkpt>
      <trkpt lat="43.17426" lon="0.86354">
        <ele>476.3</ele>
        <time>2013-12-22T15:51:09</time>
      </trkpt>
      <trkpt lat="43.17424" lon="0.86355">
        <ele>474.9</ele>
        <time>2013-12-22T15:51:10</time>
      </trkpt>
      <trkpt lat="43.17424" lon="0.86355">
        <ele>473.8</ele>
        <time>2013-12-22T15:51:11</time>
      </trkpt>
      <trkpt lat="43.17423" lon="0.86355">
        <ele>473</ele>
        <time>2013-12-22T15:51:12</time>
      </trkpt>
      <trkpt lat="43.17422" lon="0.86355">
        <ele>472.7</ele>
        <time>2013-12-22T15:51:13</time>
      </trkpt>
      <trkpt lat="43.17421" lon="0.86355">
        <ele>472.4</ele>
        <time>2013-12-22T15:51:14</time>
      </trkpt>
      <trkpt lat="43.17421" lon="0.86355">
        <ele>471.8</ele>
        <time>2013-12-22T15:51:15</time>
      </trkpt>
      <trkpt lat="43.1742" lon="0.86356">
        <ele>473.4</ele>
        <time>2013-12-22T15:51:16</time>
      </trkpt>
      <trkpt lat="43.17419" lon="0.86356">
        <ele>472.5</ele>
        <time>2013-12-22T15:51:17</time>
      </trkpt>
      <trkpt lat="43.17418" lon="0.86356">
        <ele>472.1</ele>
        <time>2013-12-22T15:51:18</time>
      </trkpt>
      <trkpt lat="43.17418" lon="0.86356">
        <ele>471.6</ele>
        <time>2013-12-22T15:51:19</time>
      </trkpt>
      <trkpt lat="43.17417" lon="0.86356">
        <ele>471.2</ele>
        <time>2013-12-22T15:51:20</time>
      </trkpt>
      <trkpt lat="43.17416" lon="0.86356">
        <ele>471.1</ele>
        <time>2013-12-22T15:51:21</time>
      </trkpt>
      <trkpt lat="43.17415" lon="0.86357">
        <ele>470.9</ele>
        <time>2013-12-22T15:51:22</time>
      </trkpt>
      <trkpt lat="43.17414" lon="0.86357">
        <ele>470.8</ele>
        <time>2013-12-22T15:51:23</time>
      </trkpt>
      <trkpt lat="43.17413" lon="0.86358">
        <ele>470.4</ele>
        <time>2013-12-22T15:51:24</time>
      </trkpt>
      <trkpt lat="43.17413" lon="0.86359">
        <ele>470.2</ele>
        <time>2013-12-22T15:51:25</time>
      </trkpt>
      <trkpt lat="43.17412" lon="0.86359">
        <ele>469.4</ele>
        <time>2013-12-22T15:51:26</time>
      </trkpt>
      <trkpt lat="43.17411" lon="0.8636">
        <ele>469.1</ele>
        <time>2013-12-22T15:51:27</time>
      </trkpt>
      <trkpt lat="43.1741" lon="0.8636">
        <ele>468.9</ele>
        <time>2013-12-22T15:51:28</time>
      </trkpt>
      <trkpt lat="43.17409" lon="0.86361">
        <ele>468.5</ele>
        <time>2013-12-22T15:51:29</time>
      </trkpt>
      <trkpt lat="43.17408" lon="0.86361">
        <ele>468.3</ele>
        <time>2013-12-22T15:51:30</time>
      </trkpt>
      <trkpt lat="43.17407" lon="0.86362">
        <ele>468.1</ele>
        <time>2013-12-22T15:51:31</time>
      </trkpt>
      <trkpt lat="43.17406" lon="0.86362">
        <ele>467.9</ele>
        <time>2013-12-22T15:51:32</time>
      </trkpt>
      <trkpt lat="43.17405" lon="0.86363">
        <ele>467.5</ele>
        <time>2013-12-22T15:51:33</time>
      </trkpt>
      <trkpt lat="43.17404" lon="0.86363">
        <ele>467.2</ele>
        <time>2013-12-22T15:51:34</time>
      </trkpt>
      <trkpt lat="43.17403" lon="0.86363">
        <ele>466.8</ele>
        <time>2013-12-22T15:51:35</time>
      </trkpt>
      <trkpt lat="43.17402" lon="0.86363">
        <ele>469.1</ele>
        <time>2013-12-22T15:51:36</time>
      </trkpt>
      <trkpt lat="43.17401" lon="0.86363">
        <ele>467.8</ele>
        <time>2013-12-22T15:51:37</time>
      </trkpt>
      <trkpt lat="43.174" lon="0.86364">
        <ele>467.2</ele>
        <time>2013-12-22T15:51:38</time>
      </trkpt>
      <trkpt lat="43.17399" lon="0.86364">
        <ele>466.8</ele>
        <time>2013-12-22T15:51:39</time>
      </trkpt>
      <trkpt lat="43.17398" lon="0.86365">
        <ele>466.2</ele>
        <time>2013-12-22T15:51:40</time>
      </trkpt>
      <trkpt lat="43.17398" lon="0.86365">
        <ele>464.4</ele>
        <time>2013-12-22T15:51:55</time>
      </trkpt>
      <trkpt lat="43.17398" lon="0.86365">
        <ele>464.3</ele>
        <time>2013-12-22T15:51:56</time>
      </trkpt>
      <trkpt lat="43.17397" lon="0.86365">
        <ele>463.6</ele>
        <time>2013-12-22T15:51:57</time>
      </trkpt>
      <trkpt lat="43.17396" lon="0.86365">
        <ele>463.5</ele>
        <time>2013-12-22T15:51:58</time>
      </trkpt>
      <trkpt lat="43.17395" lon="0.86365">
        <ele>463.6</ele>
        <time>2013-12-22T15:51:59</time>
      </trkpt>
      <trkpt lat="43.17394" lon="0.86366">
        <ele>463.8</ele>
        <time>2013-12-22T15:52:00</time>
      </trkpt>
      <trkpt lat="43.17393" lon="0.86366">
        <ele>463.8</ele>
        <time>2013-12-22T15:52:01</time>
      </trkpt>
      <trkpt lat="43.17392" lon="0.86366">
        <ele>463.6</ele>
        <time>2013-12-22T15:52:02</time>
      </trkpt>
      <trkpt lat="43.17391" lon="0.86367">
        <ele>463.9</ele>
        <time>2013-12-22T15:52:03</time>
      </trkpt>
      <trkpt lat="43.1739" lon="0.86367">
        <ele>463.4</ele>
        <time>2013-12-22T15:52:04</time>
      </trkpt>
      <trkpt lat="43.17389" lon="0.86367">
        <ele>463.2</ele>
        <time>2013-12-22T15:52:05</time>
      </trkpt>
      <trkpt lat="43.17388" lon="0.86367">
        <ele>463.4</ele>
        <time>2013-12-22T15:52:06</time>
      </trkpt>
      <trkpt lat="43.17387" lon="0.86368">
        <ele>463.1</ele>
        <time>2013-12-22T15:52:07</time>
      </trkpt>
      <trkpt lat="43.17386" lon="0.86368">
        <ele>462.6</ele>
        <time>2013-12-22T15:52:08</time>
      </trkpt>
      <trkpt lat="43.17385" lon="0.86368">
        <ele>462.6</ele>
        <time>2013-12-22T15:52:09</time>
      </trkpt>
      <trkpt lat="43.17384" lon="0.86369">
        <ele>462.8</ele>
        <time>2013-12-22T15:52:10</time>
      </trkpt>
      <trkpt lat="43.17383" lon="0.86369">
        <ele>462.8</ele>
        <time>2013-12-22T15:52:11</time>
      </trkpt>
      <trkpt lat="43.17382" lon="0.86369">
        <ele>463</ele>
        <time>2013-12-22T15:52:12</time>
      </trkpt>
      <trkpt lat="43.17381" lon="0.8637">
        <ele>462.9</ele>
        <time>2013-12-22T15:52:13</time>
      </trkpt>
      <trkpt lat="43.17379" lon="0.8637">
        <ele>462.9</ele>
        <time>2013-12-22T15:52:14</time>
      </trkpt>
      <trkpt lat="43.17378" lon="0.8637">
        <ele>462.9</ele>
        <time>2013-12-22T15:52:15</time>
      </trkpt>
      <trkpt lat="43.17377" lon="0.86371">
        <ele>463</ele>
        <time>2013-12-22T15:52:16</time>
      </trkpt>
      <trkpt lat="43.17376" lon="0.86371">
        <ele>463</ele>
        <time>2013-12-22T15:52:17</time>
      </trkpt>
      <trkpt lat="43.17375" lon="0.86371">
        <ele>463.4</ele>
        <time>2013-12-22T15:52:18</time>
      </trkpt>
      <trkpt lat="43.17374" lon="0.86371">
        <ele>463.5</ele>
        <time>2013-12-22T15:52:19</time>
      </trkpt>
      <trkpt lat="43.17373" lon="0.86372">
        <ele>463.1</ele>
        <time>2013-12-22T15:52:20</time>
      </trkpt>
      <trkpt lat="43.17372" lon="0.86372">
        <ele>463.1</ele>
        <time>2013-12-22T15:52:21</time>
      </trkpt>
      <trkpt lat="43.17371" lon="0.86373">
        <ele>463.1</ele>
        <time>2013-12-22T15:52:22</time>
      </trkpt>
      <trkpt lat="43.1737" lon="0.86373">
        <ele>462.9</ele>
        <time>2013-12-22T15:52:23</time>
      </trkpt>
      <trkpt lat="43.17369" lon="0.86373">
        <ele>462.9</ele>
        <time>2013-12-22T15:52:24</time>
      </trkpt>
      <trkpt lat="43.17368" lon="0.86373">
        <ele>462.9</ele>
        <time>2013-12-22T15:52:25</time>
      </trkpt>
      <trkpt lat="43.17367" lon="0.86374">
        <ele>463.4</ele>
        <time>2013-12-22T15:52:26</time>
      </trkpt>
      <trkpt lat="43.17366" lon="0.86374">
        <ele>463.9</ele>
        <time>2013-12-22T15:52:27</time>
      </trkpt>
      <trkpt lat="43.17365" lon="0.86374">
        <ele>463.7</ele>
        <time>2013-12-22T15:52:28</time>
      </trkpt>
      <trkpt lat="43.17363" lon="0.86375">
        <ele>463.4</ele>
        <time>2013-12-22T15:52:29</time>
      </trkpt>
      <trkpt lat="43.17362" lon="0.86375">
        <ele>463.5</ele>
        <time>2013-12-22T15:52:30</time>
      </trkpt>
      <trkpt lat="43.17361" lon="0.86375">
        <ele>463.8</ele>
        <time>2013-12-22T15:52:31</time>
      </trkpt>
      <trkpt lat="43.1736" lon="0.86376">
        <ele>463.8</ele>
        <time>2013-12-22T15:52:32</time>
      </trkpt>
      <trkpt lat="43.17358" lon="0.86376">
        <ele>464.4</ele>
        <time>2013-12-22T15:52:33</time>
      </trkpt>
      <trkpt lat="43.17357" lon="0.86376">
        <ele>464.4</ele>
        <time>2013-12-22T15:52:34</time>
      </trkpt>
      <trkpt lat="43.17356" lon="0.86377">
        <ele>464.5</ele>
        <time>2013-12-22T15:52:35</time>
      </trkpt>
      <trkpt lat="43.17355" lon="0.86377">
        <ele>464.4</ele>
        <time>2013-12-22T15:52:36</time>
      </trkpt>
      <trkpt lat="43.17354" lon="0.86378">
        <ele>464.2</ele>
        <time>2013-12-22T15:52:37</time>
      </trkpt>
      <trkpt lat="43.17353" lon="0.86378">
        <ele>464.2</ele>
        <time>2013-12-22T15:52:38</time>
      </trkpt>
      <trkpt lat="43.17352" lon="0.86378">
        <ele>464.6</ele>
        <time>2013-12-22T15:52:39</time>
      </trkpt>
      <trkpt lat="43.1735" lon="0.86379">
        <ele>465.2</ele>
        <time>2013-12-22T15:52:40</time>
      </trkpt>
      <trkpt lat="43.17349" lon="0.86379">
        <ele>465.2</ele>
        <time>2013-12-22T15:52:41</time>
      </trkpt>
      <trkpt lat="43.17348" lon="0.86379">
        <ele>465.2</ele>
        <time>2013-12-22T15:52:42</time>
      </trkpt>
      <trkpt lat="43.17347" lon="0.86379">
        <ele>465.4</ele>
        <time>2013-12-22T15:52:43</time>
      </trkpt>
      <trkpt lat="43.17346" lon="0.86379">
        <ele>465.6</ele>
        <time>2013-12-22T15:52:44</time>
      </trkpt>
      <trkpt lat="43.17344" lon="0.8638">
        <ele>465.9</ele>
        <time>2013-12-22T15:52:45</time>
      </trkpt>
      <trkpt lat="43.17344" lon="0.8638">
        <ele>465.9</ele>
        <time>2013-12-22T15:52:46</time>
      </trkpt>
      <trkpt lat="43.17342" lon="0.8638">
        <ele>466.5</ele>
        <time>2013-12-22T15:52:47</time>
      </trkpt>
      <trkpt lat="43.17341" lon="0.86381">
        <ele>466.7</ele>
        <time>2013-12-22T15:52:48</time>
      </trkpt>
      <trkpt lat="43.1734" lon="0.86381">
        <ele>466.4</ele>
        <time>2013-12-22T15:52:49</time>
      </trkpt>
      <trkpt lat="43.17339" lon="0.86381">
        <ele>466.5</ele>
        <time>2013-12-22T15:52:50</time>
      </trkpt>
      <trkpt lat="43.17337" lon="0.86381">
        <ele>467</ele>
        <time>2013-12-22T15:52:51</time>
      </trkpt>
      <trkpt lat="43.17336" lon="0.86381">
        <ele>467.2</ele>
        <time>2013-12-22T15:52:52</time>
      </trkpt>
      <trkpt lat="43.17335" lon="0.86381">
        <ele>467.2</ele>
        <time>2013-12-22T15:52:53</time>
      </trkpt>
      <trkpt lat="43.17334" lon="0.86381">
        <ele>467.1</ele>
        <time>2013-12-22T15:52:54</time>
      </trkpt>
      <trkpt lat="43.17333" lon="0.86381">
        <ele>466.5</ele>
        <time>2013-12-22T15:52:55</time>
      </trkpt>
      <trkpt lat="43.17332" lon="0.86381">
        <ele>466.1</ele>
        <time>2013-12-22T15:52:56</time>
      </trkpt>
      <trkpt lat="43.17331" lon="0.86381">
        <ele>467</ele>
        <time>2013-12-22T15:52:57</time>
      </trkpt>
      <trkpt lat="43.1733" lon="0.86382">
        <ele>467</ele>
        <time>2013-12-22T15:52:58</time>
      </trkpt>
      <trkpt lat="43.17329" lon="0.86382">
        <ele>467</ele>
        <time>2013-12-22T15:52:59</time>
      </trkpt>
      <trkpt lat="43.17328" lon="0.86382">
        <ele>467.1</ele>
        <time>2013-12-22T15:53:00</time>
      </trkpt>
      <trkpt lat="43.17326" lon="0.86382">
        <ele>466.3</ele>
        <time>2013-12-22T15:53:01</time>
      </trkpt>
      <trkpt lat="43.17325" lon="0.86382">
        <ele>466.4</ele>
        <time>2013-12-22T15:53:02</time>
      </trkpt>
      <trkpt lat="43.17324" lon="0.86382">
        <ele>466.3</ele>
        <time>2013-12-22T15:53:03</time>
      </trkpt>
      <trkpt lat="43.17323" lon="0.86382">
        <ele>466.3</ele>
        <time>2013-12-22T15:53:04</time>
      </trkpt>
      <trkpt lat="43.17321" lon="0.86382">
        <ele>466.2</ele>
        <time>2013-12-22T15:53:05</time>
      </trkpt>
      <trkpt lat="43.1732" lon="0.86383">
        <ele>466.2</ele>
        <time>2013-12-22T15:53:06</time>
      </trkpt>
      <trkpt lat="43.17319" lon="0.86383">
        <ele>466.5</ele>
        <time>2013-12-22T15:53:07</time>
      </trkpt>
      <trkpt lat="43.17318" lon="0.86384">
        <ele>466.5</ele>
        <time>2013-12-22T15:53:08</time>
      </trkpt>
      <trkpt lat="43.17317" lon="0.86384">
        <ele>466.4</ele>
        <time>2013-12-22T15:53:09</time>
      </trkpt>
      <trkpt lat="43.17316" lon="0.86385">
        <ele>466.3</ele>
        <time>2013-12-22T15:53:10</time>
      </trkpt>
      <trkpt lat="43.17315" lon="0.86386">
        <ele>465.9</ele>
        <time>2013-12-22T15:53:11</time>
      </trkpt>
      <trkpt lat="43.17313" lon="0.86387">
        <ele>465.8</ele>
        <time>2013-12-22T15:53:12</time>
      </trkpt>
      <trkpt lat="43.17312" lon="0.86388">
        <ele>466.1</ele>
        <time>2013-12-22T15:53:13</time>
      </trkpt>
      <trkpt lat="43.17311" lon="0.86389">
        <ele>466.5</ele>
        <time>2013-12-22T15:53:14</time>
      </trkpt>
      <trkpt lat="43.1731" lon="0.8639">
        <ele>466.5</ele>
        <time>2013-12-22T15:53:15</time>
      </trkpt>
      <trkpt lat="43.17309" lon="0.8639">
        <ele>466.8</ele>
        <time>2013-12-22T15:53:16</time>
      </trkpt>
      <trkpt lat="43.17307" lon="0.8639">
        <ele>466</ele>
        <time>2013-12-22T15:53:17</time>
      </trkpt>
      <trkpt lat="43.17306" lon="0.86391">
        <ele>466</ele>
        <time>2013-12-22T15:53:18</time>
      </trkpt>
      <trkpt lat="43.17305" lon="0.86391">
        <ele>465.6</ele>
        <time>2013-12-22T15:53:19</time>
      </trkpt>
      <trkpt lat="43.17304" lon="0.86391">
        <ele>465.5</ele>
        <time>2013-12-22T15:53:20</time>
      </trkpt>
      <trkpt lat="43.17303" lon="0.86392">
        <ele>465</ele>
        <time>2013-12-22T15:53:21</time>
      </trkpt>
      <trkpt lat="43.17302" lon="0.86392">
        <ele>464.9</ele>
        <time>2013-12-22T15:53:22</time>
      </trkpt>
      <trkpt lat="43.173" lon="0.86392">
        <ele>464.6</ele>
        <time>2013-12-22T15:53:23</time>
      </trkpt>
      <trkpt lat="43.17299" lon="0.86392">
        <ele>465.1</ele>
        <time>2013-12-22T15:53:24</time>
      </trkpt>
      <trkpt lat="43.17299" lon="0.86393">
        <ele>464</ele>
        <time>2013-12-22T15:53:25</time>
      </trkpt>
      <trkpt lat="43.17297" lon="0.86393">
        <ele>463.5</ele>
        <time>2013-12-22T15:53:26</time>
      </trkpt>
      <trkpt lat="43.17297" lon="0.86394">
        <ele>463.1</ele>
        <time>2013-12-22T15:53:27</time>
      </trkpt>
      <trkpt lat="43.17295" lon="0.86394">
        <ele>463.1</ele>
        <time>2013-12-22T15:53:28</time>
      </trkpt>
      <trkpt lat="43.17294" lon="0.86395">
        <ele>462.7</ele>
        <time>2013-12-22T15:53:29</time>
      </trkpt>
      <trkpt lat="43.17293" lon="0.86395">
        <ele>462.9</ele>
        <time>2013-12-22T15:53:30</time>
      </trkpt>
      <trkpt lat="43.17292" lon="0.86396">
        <ele>462.7</ele>
        <time>2013-12-22T15:53:31</time>
      </trkpt>
      <trkpt lat="43.17291" lon="0.86396">
        <ele>462.8</ele>
        <time>2013-12-22T15:53:32</time>
      </trkpt>
      <trkpt lat="43.1729" lon="0.86396">
        <ele>461.7</ele>
        <time>2013-12-22T15:53:33</time>
      </trkpt>
      <trkpt lat="43.17289" lon="0.86397">
        <ele>461.8</ele>
        <time>2013-12-22T15:53:34</time>
      </trkpt>
      <trkpt lat="43.17288" lon="0.86397">
        <ele>463</ele>
        <time>2013-12-22T15:53:35</time>
      </trkpt>
      <trkpt lat="43.17287" lon="0.86397">
        <ele>463.1</ele>
        <time>2013-12-22T15:53:36</time>
      </trkpt>
      <trkpt lat="43.17286" lon="0.86398">
        <ele>462.4</ele>
        <time>2013-12-22T15:53:37</time>
      </trkpt>
      <trkpt lat="43.17284" lon="0.86398">
        <ele>462.6</ele>
        <time>2013-12-22T15:53:38</time>
      </trkpt>
      <trkpt lat="43.17283" lon="0.86398">
        <ele>462.7</ele>
        <time>2013-12-22T15:53:39</time>
      </trkpt>
      <trkpt lat="43.17282" lon="0.86398">
        <ele>462.9</ele>
        <time>2013-12-22T15:53:40</time>
      </trkpt>
      <trkpt lat="43.17281" lon="0.86399">
        <ele>462.1</ele>
        <time>2013-12-22T15:53:41</time>
      </trkpt>
      <trkpt lat="43.1728" lon="0.86399">
        <ele>462.1</ele>
        <time>2013-12-22T15:53:42</time>
      </trkpt>
      <trkpt lat="43.17279" lon="0.86399">
        <ele>462.8</ele>
        <time>2013-12-22T15:53:43</time>
      </trkpt>
      <trkpt lat="43.17278" lon="0.864">
        <ele>463.2</ele>
        <time>2013-12-22T15:53:44</time>
      </trkpt>
      <trkpt lat="43.17277" lon="0.864">
        <ele>463.5</ele>
        <time>2013-12-22T15:53:45</time>
      </trkpt>
      <trkpt lat="43.17276" lon="0.86401">
        <ele>463</ele>
        <time>2013-12-22T15:53:46</time>
      </trkpt>
      <trkpt lat="43.17275" lon="0.86401">
        <ele>462.4</ele>
        <time>2013-12-22T15:53:47</time>
      </trkpt>
      <trkpt lat="43.17274" lon="0.86402">
        <ele>462.7</ele>
        <time>2013-12-22T15:53:48</time>
      </trkpt>
      <trkpt lat="43.17273" lon="0.86402">
        <ele>462.6</ele>
        <time>2013-12-22T15:53:49</time>
      </trkpt>
      <trkpt lat="43.17272" lon="0.86403">
        <ele>462.7</ele>
        <time>2013-12-22T15:53:50</time>
      </trkpt>
      <trkpt lat="43.17271" lon="0.86403">
        <ele>462.8</ele>
        <time>2013-12-22T15:53:51</time>
      </trkpt>
      <trkpt lat="43.1727" lon="0.86404">
        <ele>463</ele>
        <time>2013-12-22T15:53:52</time>
      </trkpt>
      <trkpt lat="43.17268" lon="0.86404">
        <ele>463.4</ele>
        <time>2013-12-22T15:53:53</time>
      </trkpt>
      <trkpt lat="43.17267" lon="0.86405">
        <ele>463.6</ele>
        <time>2013-12-22T15:53:54</time>
      </trkpt>
      <trkpt lat="43.17266" lon="0.86405">
        <ele>462</ele>
        <time>2013-12-22T15:53:55</time>
      </trkpt>
      <trkpt lat="43.17265" lon="0.86405">
        <ele>461.9</ele>
        <time>2013-12-22T15:53:56</time>
      </trkpt>
      <trkpt lat="43.17264" lon="0.86406">
        <ele>461.8</ele>
        <time>2013-12-22T15:53:57</time>
      </trkpt>
      <trkpt lat="43.17263" lon="0.86406">
        <ele>461.8</ele>
        <time>2013-12-22T15:53:58</time>
      </trkpt>
      <trkpt lat="43.17262" lon="0.86407">
        <ele>462.1</ele>
        <time>2013-12-22T15:53:59</time>
      </trkpt>
      <trkpt lat="43.17261" lon="0.86407">
        <ele>462.2</ele>
        <time>2013-12-22T15:54:00</time>
      </trkpt>
      <trkpt lat="43.1726" lon="0.86408">
        <ele>462.6</ele>
        <time>2013-12-22T15:54:01</time>
      </trkpt>
      <trkpt lat="43.17259" lon="0.86408">
        <ele>462.3</ele>
        <time>2013-12-22T15:54:02</time>
      </trkpt>
      <trkpt lat="43.17259" lon="0.86409">
        <ele>462.1</ele>
        <time>2013-12-22T15:54:03</time>
      </trkpt>
      <trkpt lat="43.17258" lon="0.8641">
        <ele>461.5</ele>
        <time>2013-12-22T15:54:04</time>
      </trkpt>
      <trkpt lat="43.17258" lon="0.86409">
        <ele>461.5</ele>
        <time>2013-12-22T15:54:08</time>
      </trkpt>
      <trkpt lat="43.17257" lon="0.86409">
        <ele>462</ele>
        <time>2013-12-22T15:54:09</time>
      </trkpt>
      <trkpt lat="43.17256" lon="0.8641">
        <ele>461.9</ele>
        <time>2013-12-22T15:54:10</time>
      </trkpt>
      <trkpt lat="43.17255" lon="0.8641">
        <ele>461.9</ele>
        <time>2013-12-22T15:54:11</time>
      </trkpt>
      <trkpt lat="43.17254" lon="0.86411">
        <ele>462.1</ele>
        <time>2013-12-22T15:54:12</time>
      </trkpt>
      <trkpt lat="43.17253" lon="0.86411">
        <ele>462.3</ele>
        <time>2013-12-22T15:54:13</time>
      </trkpt>
      <trkpt lat="43.17252" lon="0.86412">
        <ele>462.5</ele>
        <time>2013-12-22T15:54:14</time>
      </trkpt>
      <trkpt lat="43.17251" lon="0.86412">
        <ele>462.5</ele>
        <time>2013-12-22T15:54:15</time>
      </trkpt>
      <trkpt lat="43.1725" lon="0.86412">
        <ele>462.3</ele>
        <time>2013-12-22T15:54:16</time>
      </trkpt>
      <trkpt lat="43.17249" lon="0.86413">
        <ele>461.9</ele>
        <time>2013-12-22T15:54:17</time>
      </trkpt>
      <trkpt lat="43.17247" lon="0.86413">
        <ele>461.9</ele>
        <time>2013-12-22T15:54:18</time>
      </trkpt>
      <trkpt lat="43.17247" lon="0.86413">
        <ele>462</ele>
        <time>2013-12-22T15:54:19</time>
      </trkpt>
      <trkpt lat="43.17246" lon="0.86413">
        <ele>462.4</ele>
        <time>2013-12-22T15:54:20</time>
      </trkpt>
      <trkpt lat="43.17244" lon="0.86414">
        <ele>462.6</ele>
        <time>2013-12-22T15:54:21</time>
      </trkpt>
      <trkpt lat="43.17243" lon="0.86414">
        <ele>463.1</ele>
        <time>2013-12-22T15:54:22</time>
      </trkpt>
      <trkpt lat="43.17242" lon="0.86415">
        <ele>462.9</ele>
        <time>2013-12-22T15:54:23</time>
      </trkpt>
      <trkpt lat="43.17241" lon="0.86416">
        <ele>463.4</ele>
        <time>2013-12-22T15:54:24</time>
      </trkpt>
      <trkpt lat="43.1724" lon="0.86416">
        <ele>463</ele>
        <time>2013-12-22T15:54:25</time>
      </trkpt>
      <trkpt lat="43.17239" lon="0.86417">
        <ele>462.7</ele>
        <time>2013-12-22T15:54:26</time>
      </trkpt>
      <trkpt lat="43.17238" lon="0.86418">
        <ele>463.1</ele>
        <time>2013-12-22T15:54:27</time>
      </trkpt>
      <trkpt lat="43.17236" lon="0.86418">
        <ele>462.9</ele>
        <time>2013-12-22T15:54:28</time>
      </trkpt>
      <trkpt lat="43.17235" lon="0.86418">
        <ele>462.2</ele>
        <time>2013-12-22T15:54:29</time>
      </trkpt>
      <trkpt lat="43.17234" lon="0.86419">
        <ele>462.5</ele>
        <time>2013-12-22T15:54:30</time>
      </trkpt>
      <trkpt lat="43.17233" lon="0.86419">
        <ele>462.3</ele>
        <time>2013-12-22T15:54:31</time>
      </trkpt>
      <trkpt lat="43.17231" lon="0.8642">
        <ele>462.3</ele>
        <time>2013-12-22T15:54:32</time>
      </trkpt>
      <trkpt lat="43.1723" lon="0.8642">
        <ele>462.6</ele>
        <time>2013-12-22T15:54:33</time>
      </trkpt>
      <trkpt lat="43.17229" lon="0.8642">
        <ele>463</ele>
        <time>2013-12-22T15:54:34</time>
      </trkpt>
      <trkpt lat="43.17228" lon="0.86421">
        <ele>463.8</ele>
        <time>2013-12-22T15:54:35</time>
      </trkpt>
      <trkpt lat="43.17227" lon="0.86422">
        <ele>461.4</ele>
        <time>2013-12-22T15:54:42</time>
      </trkpt>
      <trkpt lat="43.17226" lon="0.86422">
        <ele>461.2</ele>
        <time>2013-12-22T15:54:43</time>
      </trkpt>
      <trkpt lat="43.17225" lon="0.86422">
        <ele>461.4</ele>
        <time>2013-12-22T15:54:44</time>
      </trkpt>
      <trkpt lat="43.17225" lon="0.86423">
        <ele>460.6</ele>
        <time>2013-12-22T15:54:45</time>
      </trkpt>
      <trkpt lat="43.17224" lon="0.86424">
        <ele>460.5</ele>
        <time>2013-12-22T15:54:46</time>
      </trkpt>
      <trkpt lat="43.17223" lon="0.86424">
        <ele>460.8</ele>
        <time>2013-12-22T15:54:47</time>
      </trkpt>
      <trkpt lat="43.17222" lon="0.86425">
        <ele>461.1</ele>
        <time>2013-12-22T15:54:48</time>
      </trkpt>
      <trkpt lat="43.1722" lon="0.86425">
        <ele>461.1</ele>
        <time>2013-12-22T15:54:49</time>
      </trkpt>
      <trkpt lat="43.1722" lon="0.86426">
        <ele>461.9</ele>
        <time>2013-12-22T15:54:50</time>
      </trkpt>
      <trkpt lat="43.17218" lon="0.86426">
        <ele>461.3</ele>
        <time>2013-12-22T15:55:01</time>
      </trkpt>
      <trkpt lat="43.17217" lon="0.86426">
        <ele>462.8</ele>
        <time>2013-12-22T15:55:02</time>
      </trkpt>
      <trkpt lat="43.17216" lon="0.86426">
        <ele>462.7</ele>
        <time>2013-12-22T15:55:10</time>
      </trkpt>
      <trkpt lat="43.17215" lon="0.86426">
        <ele>462.6</ele>
        <time>2013-12-22T15:55:11</time>
      </trkpt>
      <trkpt lat="43.17215" lon="0.86426">
        <ele>462.7</ele>
        <time>2013-12-22T15:55:12</time>
      </trkpt>
      <trkpt lat="43.17214" lon="0.86427">
        <ele>462.9</ele>
        <time>2013-12-22T15:55:13</time>
      </trkpt>
      <trkpt lat="43.17213" lon="0.86427">
        <ele>463.3</ele>
        <time>2013-12-22T15:55:14</time>
      </trkpt>
      <trkpt lat="43.17212" lon="0.86428">
        <ele>463.2</ele>
        <time>2013-12-22T15:55:15</time>
      </trkpt>
      <trkpt lat="43.1721" lon="0.86428">
        <ele>463</ele>
        <time>2013-12-22T15:55:16</time>
      </trkpt>
      <trkpt lat="43.1721" lon="0.86429">
        <ele>462.6</ele>
        <time>2013-12-22T15:55:17</time>
      </trkpt>
      <trkpt lat="43.17209" lon="0.86429">
        <ele>462.8</ele>
        <time>2013-12-22T15:55:18</time>
      </trkpt>
      <trkpt lat="43.17208" lon="0.8643">
        <ele>462.8</ele>
        <time>2013-12-22T15:55:19</time>
      </trkpt>
      <trkpt lat="43.17207" lon="0.86431">
        <ele>462.8</ele>
        <time>2013-12-22T15:55:20</time>
      </trkpt>
      <trkpt lat="43.17206" lon="0.86431">
        <ele>462.9</ele>
        <time>2013-12-22T15:55:21</time>
      </trkpt>
      <trkpt lat="43.17205" lon="0.86432">
        <ele>463.1</ele>
        <time>2013-12-22T15:55:22</time>
      </trkpt>
      <trkpt lat="43.17204" lon="0.86433">
        <ele>463.1</ele>
        <time>2013-12-22T15:55:23</time>
      </trkpt>
      <trkpt lat="43.17203" lon="0.86433">
        <ele>462.4</ele>
        <time>2013-12-22T15:55:24</time>
      </trkpt>
      <trkpt lat="43.17202" lon="0.86434">
        <ele>462.8</ele>
        <time>2013-12-22T15:55:25</time>
      </trkpt>
      <trkpt lat="43.17201" lon="0.86435">
        <ele>462.9</ele>
        <time>2013-12-22T15:55:26</time>
      </trkpt>
      <trkpt lat="43.172" lon="0.86435">
        <ele>462.6</ele>
        <time>2013-12-22T15:55:27</time>
      </trkpt>
      <trkpt lat="43.17199" lon="0.86436">
        <ele>462.4</ele>
        <time>2013-12-22T15:55:28</time>
      </trkpt>
      <trkpt lat="43.17198" lon="0.86437">
        <ele>462.4</ele>
        <time>2013-12-22T15:55:29</time>
      </trkpt>
      <trkpt lat="43.17197" lon="0.86438">
        <ele>462.5</ele>
        <time>2013-12-22T15:55:30</time>
      </trkpt>
      <trkpt lat="43.17196" lon="0.86439">
        <ele>462.5</ele>
        <time>2013-12-22T15:55:31</time>
      </trkpt>
      <trkpt lat="43.17196" lon="0.8644">
        <ele>462.6</ele>
        <time>2013-12-22T15:55:32</time>
      </trkpt>
      <trkpt lat="43.17194" lon="0.86446">
        <ele>462.2</ele>
        <time>2013-12-22T15:55:52</time>
      </trkpt>
      <trkpt lat="43.17194" lon="0.86447">
        <ele>462</ele>
        <time>2013-12-22T15:55:53</time>
      </trkpt>
      <trkpt lat="43.17193" lon="0.86448">
        <ele>462</ele>
        <time>2013-12-22T15:55:54</time>
      </trkpt>
      <trkpt lat="43.17192" lon="0.86448">
        <ele>462.1</ele>
        <time>2013-12-22T15:55:55</time>
      </trkpt>
      <trkpt lat="43.17191" lon="0.86449">
        <ele>461.6</ele>
        <time>2013-12-22T15:55:56</time>
      </trkpt>
      <trkpt lat="43.17191" lon="0.86445">
        <ele>458.3</ele>
        <time>2013-12-22T15:56:10</time>
      </trkpt>
      <trkpt lat="43.17191" lon="0.86445">
        <ele>458.4</ele>
        <time>2013-12-22T15:56:11</time>
      </trkpt>
      <trkpt lat="43.1719" lon="0.86445">
        <ele>458.8</ele>
        <time>2013-12-22T15:56:12</time>
      </trkpt>
      <trkpt lat="43.1719" lon="0.86444">
        <ele>458.8</ele>
        <time>2013-12-22T15:56:13</time>
      </trkpt>
      <trkpt lat="43.17189" lon="0.86443">
        <ele>459.4</ele>
        <time>2013-12-22T15:56:14</time>
      </trkpt>
      <trkpt lat="43.17188" lon="0.86442">
        <ele>458.9</ele>
        <time>2013-12-22T15:56:15</time>
      </trkpt>
      <trkpt lat="43.17187" lon="0.86442">
        <ele>458.6</ele>
        <time>2013-12-22T15:56:16</time>
      </trkpt>
      <trkpt lat="43.17186" lon="0.86442">
        <ele>458.9</ele>
        <time>2013-12-22T15:56:17</time>
      </trkpt>
      <trkpt lat="43.17184" lon="0.86442">
        <ele>458.5</ele>
        <time>2013-12-22T15:56:18</time>
      </trkpt>
      <trkpt lat="43.17184" lon="0.86442">
        <ele>458</ele>
        <time>2013-12-22T15:56:19</time>
      </trkpt>
      <trkpt lat="43.17183" lon="0.86443">
        <ele>458.2</ele>
        <time>2013-12-22T15:56:20</time>
      </trkpt>
      <trkpt lat="43.17183" lon="0.86443">
        <ele>456.7</ele>
        <time>2013-12-22T15:56:27</time>
      </trkpt>
      <trkpt lat="43.17183" lon="0.86443">
        <ele>456.9</ele>
        <time>2013-12-22T15:56:28</time>
      </trkpt>
      <trkpt lat="43.17182" lon="0.86443">
        <ele>456.8</ele>
        <time>2013-12-22T15:56:29</time>
      </trkpt>
      <trkpt lat="43.17181" lon="0.86443">
        <ele>457.3</ele>
        <time>2013-12-22T15:56:34</time>
      </trkpt>
      <trkpt lat="43.1718" lon="0.86444">
        <ele>457.5</ele>
        <time>2013-12-22T15:56:35</time>
      </trkpt>
      <trkpt lat="43.17179" lon="0.86445">
        <ele>457.7</ele>
        <time>2013-12-22T15:56:36</time>
      </trkpt>
      <trkpt lat="43.17178" lon="0.86446">
        <ele>457.7</ele>
        <time>2013-12-22T15:56:37</time>
      </trkpt>
      <trkpt lat="43.17177" lon="0.86447">
        <ele>457.5</ele>
        <time>2013-12-22T15:56:38</time>
      </trkpt>
      <trkpt lat="43.17176" lon="0.86449">
        <ele>457.5</ele>
        <time>2013-12-22T15:56:39</time>
      </trkpt>
      <trkpt lat="43.17175" lon="0.8645">
        <ele>457.5</ele>
        <time>2013-12-22T15:56:40</time>
      </trkpt>
      <trkpt lat="43.17175" lon="0.86451">
        <ele>457.4</ele>
        <time>2013-12-22T15:56:41</time>
      </trkpt>
      <trkpt lat="43.17174" lon="0.86452">
        <ele>457.6</ele>
        <time>2013-12-22T15:56:42</time>
      </trkpt>
      <trkpt lat="43.17173" lon="0.86453">
        <ele>457.6</ele>
        <time>2013-12-22T15:56:43</time>
      </trkpt>
      <trkpt lat="43.17172" lon="0.86453">
        <ele>457.7</ele>
        <time>2013-12-22T15:56:44</time>
      </trkpt>
      <trkpt lat="43.17171" lon="0.86454">
        <ele>456.8</ele>
        <time>2013-12-22T15:56:45</time>
      </trkpt>
      <trkpt lat="43.1717" lon="0.86454">
        <ele>457.3</ele>
        <time>2013-12-22T15:56:46</time>
      </trkpt>
      <trkpt lat="43.17169" lon="0.86455">
        <ele>457.3</ele>
        <time>2013-12-22T15:56:47</time>
      </trkpt>
      <trkpt lat="43.17168" lon="0.86455">
        <ele>457.4</ele>
        <time>2013-12-22T15:56:48</time>
      </trkpt>
      <trkpt lat="43.17167" lon="0.86456">
        <ele>457.2</ele>
        <time>2013-12-22T15:56:49</time>
      </trkpt>
      <trkpt lat="43.17167" lon="0.86457">
        <ele>457.4</ele>
        <time>2013-12-22T15:56:50</time>
      </trkpt>
      <trkpt lat="43.17165" lon="0.86457">
        <ele>457.6</ele>
        <time>2013-12-22T15:56:51</time>
      </trkpt>
      <trkpt lat="43.17165" lon="0.86458">
        <ele>457.6</ele>
        <time>2013-12-22T15:56:52</time>
      </trkpt>
      <trkpt lat="43.17164" lon="0.86458">
        <ele>457.3</ele>
        <time>2013-12-22T15:56:53</time>
      </trkpt>
      <trkpt lat="43.17162" lon="0.86459">
        <ele>457</ele>
        <time>2013-12-22T15:56:54</time>
      </trkpt>
      <trkpt lat="43.17162" lon="0.8646">
        <ele>456.9</ele>
        <time>2013-12-22T15:56:55</time>
      </trkpt>
      <trkpt lat="43.1716" lon="0.8646">
        <ele>456.3</ele>
        <time>2013-12-22T15:56:56</time>
      </trkpt>
      <trkpt lat="43.17159" lon="0.86461">
        <ele>456</ele>
        <time>2013-12-22T15:56:57</time>
      </trkpt>
      <trkpt lat="43.17158" lon="0.86461">
        <ele>456</ele>
        <time>2013-12-22T15:56:58</time>
      </trkpt>
      <trkpt lat="43.17157" lon="0.86462">
        <ele>455.9</ele>
        <time>2013-12-22T15:56:59</time>
      </trkpt>
      <trkpt lat="43.17156" lon="0.86462">
        <ele>456.1</ele>
        <time>2013-12-22T15:57:00</time>
      </trkpt>
      <trkpt lat="43.17155" lon="0.86462">
        <ele>456.4</ele>
        <time>2013-12-22T15:57:01</time>
      </trkpt>
      <trkpt lat="43.17154" lon="0.86463">
        <ele>456.2</ele>
        <time>2013-12-22T15:57:02</time>
      </trkpt>
      <trkpt lat="43.17153" lon="0.86463">
        <ele>456.4</ele>
        <time>2013-12-22T15:57:03</time>
      </trkpt>
      <trkpt lat="43.17153" lon="0.86464">
        <ele>455.1</ele>
        <time>2013-12-22T15:57:04</time>
      </trkpt>
      <trkpt lat="43.17152" lon="0.86464">
        <ele>455.1</ele>
        <time>2013-12-22T15:57:05</time>
      </trkpt>
      <trkpt lat="43.17154" lon="0.86464">
        <ele>453.4</ele>
        <time>2013-12-22T15:57:14</time>
      </trkpt>
      <trkpt lat="43.17152" lon="0.86464">
        <ele>453.6</ele>
        <time>2013-12-22T15:57:15</time>
      </trkpt>
      <trkpt lat="43.17151" lon="0.86464">
        <ele>452.6</ele>
        <time>2013-12-22T15:57:16</time>
      </trkpt>
      <trkpt lat="43.1715" lon="0.86464">
        <ele>453.1</ele>
        <time>2013-12-22T15:57:17</time>
      </trkpt>
      <trkpt lat="43.17148" lon="0.86465">
        <ele>453.6</ele>
        <time>2013-12-22T15:57:18</time>
      </trkpt>
      <trkpt lat="43.17147" lon="0.86465">
        <ele>453.8</ele>
        <time>2013-12-22T15:57:19</time>
      </trkpt>
      <trkpt lat="43.17146" lon="0.86466">
        <ele>453.8</ele>
        <time>2013-12-22T15:57:20</time>
      </trkpt>
      <trkpt lat="43.17144" lon="0.86466">
        <ele>453.8</ele>
        <time>2013-12-22T15:57:21</time>
      </trkpt>
      <trkpt lat="43.17143" lon="0.86467">
        <ele>453.8</ele>
        <time>2013-12-22T15:57:22</time>
      </trkpt>
      <trkpt lat="43.17142" lon="0.86467">
        <ele>453.6</ele>
        <time>2013-12-22T15:57:23</time>
      </trkpt>
      <trkpt lat="43.17141" lon="0.86468">
        <ele>453.5</ele>
        <time>2013-12-22T15:57:24</time>
      </trkpt>
      <trkpt lat="43.17139" lon="0.86468">
        <ele>451.7</ele>
        <time>2013-12-22T15:57:25</time>
      </trkpt>
      <trkpt lat="43.17139" lon="0.86468">
        <ele>451.8</ele>
        <time>2013-12-22T15:57:26</time>
      </trkpt>
      <trkpt lat="43.17138" lon="0.86469">
        <ele>452</ele>
        <time>2013-12-22T15:57:27</time>
      </trkpt>
      <trkpt lat="43.17136" lon="0.86469">
        <ele>452.4</ele>
        <time>2013-12-22T15:57:28</time>
      </trkpt>
      <trkpt lat="43.17136" lon="0.86469">
        <ele>451.7</ele>
        <time>2013-12-22T15:57:29</time>
      </trkpt>
      <trkpt lat="43.17135" lon="0.8647">
        <ele>451.4</ele>
        <time>2013-12-22T15:57:30</time>
      </trkpt>
      <trkpt lat="43.17134" lon="0.8647">
        <ele>451.2</ele>
        <time>2013-12-22T15:57:31</time>
      </trkpt>
      <trkpt lat="43.17133" lon="0.86471">
        <ele>451.5</ele>
        <time>2013-12-22T15:57:32</time>
      </trkpt>
      <trkpt lat="43.17131" lon="0.86471">
        <ele>451.9</ele>
        <time>2013-12-22T15:57:33</time>
      </trkpt>
      <trkpt lat="43.1713" lon="0.86471">
        <ele>452</ele>
        <time>2013-12-22T15:57:34</time>
      </trkpt>
      <trkpt lat="43.1713" lon="0.86471">
        <ele>452.2</ele>
        <time>2013-12-22T15:57:35</time>
      </trkpt>
      <trkpt lat="43.17128" lon="0.86471">
        <ele>453.3</ele>
        <time>2013-12-22T15:57:36</time>
      </trkpt>
      <trkpt lat="43.17127" lon="0.86471">
        <ele>453.8</ele>
        <time>2013-12-22T15:57:37</time>
      </trkpt>
      <trkpt lat="43.17126" lon="0.86472">
        <ele>453.3</ele>
        <time>2013-12-22T15:57:38</time>
      </trkpt>
      <trkpt lat="43.17125" lon="0.86472">
        <ele>453.2</ele>
        <time>2013-12-22T15:57:39</time>
      </trkpt>
      <trkpt lat="43.17124" lon="0.86473">
        <ele>453.9</ele>
        <time>2013-12-22T15:57:40</time>
      </trkpt>
      <trkpt lat="43.17123" lon="0.86473">
        <ele>454</ele>
        <time>2013-12-22T15:57:41</time>
      </trkpt>
      <trkpt lat="43.17122" lon="0.86473">
        <ele>453.9</ele>
        <time>2013-12-22T15:57:42</time>
      </trkpt>
      <trkpt lat="43.17121" lon="0.86474">
        <ele>453.9</ele>
        <time>2013-12-22T15:57:43</time>
      </trkpt>
      <trkpt lat="43.17119" lon="0.86474">
        <ele>454.5</ele>
        <time>2013-12-22T15:57:44</time>
      </trkpt>
      <trkpt lat="43.17118" lon="0.86474">
        <ele>454.5</ele>
        <time>2013-12-22T15:57:45</time>
      </trkpt>
      <trkpt lat="43.17117" lon="0.86475">
        <ele>454.6</ele>
        <time>2013-12-22T15:57:46</time>
      </trkpt>
      <trkpt lat="43.17116" lon="0.86475">
        <ele>454.6</ele>
        <time>2013-12-22T15:57:47</time>
      </trkpt>
      <trkpt lat="43.17115" lon="0.86475">
        <ele>454</ele>
        <time>2013-12-22T15:57:48</time>
      </trkpt>
      <trkpt lat="43.17114" lon="0.86476">
        <ele>452.8</ele>
        <time>2013-12-22T15:57:49</time>
      </trkpt>
      <trkpt lat="43.17114" lon="0.86476">
        <ele>452.7</ele>
        <time>2013-12-22T15:57:50</time>
      </trkpt>
      <trkpt lat="43.17113" lon="0.86476">
        <ele>452.7</ele>
        <time>2013-12-22T15:57:51</time>
      </trkpt>
      <trkpt lat="43.17112" lon="0.86475">
        <ele>453.2</ele>
        <time>2013-12-22T15:57:52</time>
      </trkpt>
      <trkpt lat="43.17112" lon="0.86475">
        <ele>452.8</ele>
        <time>2013-12-22T15:57:53</time>
      </trkpt>
      <trkpt lat="43.17111" lon="0.86475">
        <ele>452.8</ele>
        <time>2013-12-22T15:57:54</time>
      </trkpt>
      <trkpt lat="43.1711" lon="0.86476">
        <ele>452.3</ele>
        <time>2013-12-22T15:57:55</time>
      </trkpt>
      <trkpt lat="43.17109" lon="0.86476">
        <ele>452.4</ele>
        <time>2013-12-22T15:57:56</time>
      </trkpt>
      <trkpt lat="43.17108" lon="0.86477">
        <ele>452.3</ele>
        <time>2013-12-22T15:57:57</time>
      </trkpt>
      <trkpt lat="43.17107" lon="0.86477">
        <ele>452.1</ele>
        <time>2013-12-22T15:57:58</time>
      </trkpt>
      <trkpt lat="43.17106" lon="0.86477">
        <ele>452</ele>
        <time>2013-12-22T15:57:59</time>
      </trkpt>
      <trkpt lat="43.17105" lon="0.86478">
        <ele>452.1</ele>
        <time>2013-12-22T15:58:00</time>
      </trkpt>
      <trkpt lat="43.17104" lon="0.86478">
        <ele>452.2</ele>
        <time>2013-12-22T15:58:01</time>
      </trkpt>
      <trkpt lat="43.17103" lon="0.86479">
        <ele>452.1</ele>
        <time>2013-12-22T15:58:02</time>
      </trkpt>
      <trkpt lat="43.17102" lon="0.86479">
        <ele>452.4</ele>
        <time>2013-12-22T15:58:03</time>
      </trkpt>
      <trkpt lat="43.17101" lon="0.86479">
        <ele>451.9</ele>
        <time>2013-12-22T15:58:04</time>
      </trkpt>
      <trkpt lat="43.171" lon="0.8648">
        <ele>451.9</ele>
        <time>2013-12-22T15:58:05</time>
      </trkpt>
      <trkpt lat="43.17099" lon="0.8648">
        <ele>451.5</ele>
        <time>2013-12-22T15:58:06</time>
      </trkpt>
      <trkpt lat="43.17098" lon="0.86481">
        <ele>451.6</ele>
        <time>2013-12-22T15:58:07</time>
      </trkpt>
      <trkpt lat="43.17098" lon="0.86481">
        <ele>451.6</ele>
        <time>2013-12-22T15:58:08</time>
      </trkpt>
      <trkpt lat="43.17097" lon="0.86482">
        <ele>451.1</ele>
        <time>2013-12-22T15:58:09</time>
      </trkpt>
      <trkpt lat="43.17096" lon="0.86482">
        <ele>451</ele>
        <time>2013-12-22T15:58:10</time>
      </trkpt>
      <trkpt lat="43.17095" lon="0.86483">
        <ele>450.6</ele>
        <time>2013-12-22T15:58:11</time>
      </trkpt>
      <trkpt lat="43.17095" lon="0.86483">
        <ele>450.5</ele>
        <time>2013-12-22T15:58:12</time>
      </trkpt>
      <trkpt lat="43.17094" lon="0.86484">
        <ele>450.9</ele>
        <time>2013-12-22T15:58:13</time>
      </trkpt>
      <trkpt lat="43.17094" lon="0.86484">
        <ele>450.4</ele>
        <time>2013-12-22T15:58:14</time>
      </trkpt>
      <trkpt lat="43.17093" lon="0.86484">
        <ele>450.2</ele>
        <time>2013-12-22T15:58:15</time>
      </trkpt>
      <trkpt lat="43.17092" lon="0.86485">
        <ele>451.1</ele>
        <time>2013-12-22T15:58:16</time>
      </trkpt>
      <trkpt lat="43.17091" lon="0.86485">
        <ele>450.2</ele>
        <time>2013-12-22T15:58:17</time>
      </trkpt>
      <trkpt lat="43.1709" lon="0.86485">
        <ele>450.6</ele>
        <time>2013-12-22T15:58:18</time>
      </trkpt>
      <trkpt lat="43.1709" lon="0.86486">
        <ele>450.6</ele>
        <time>2013-12-22T15:58:19</time>
      </trkpt>
      <trkpt lat="43.17089" lon="0.86486">
        <ele>451</ele>
        <time>2013-12-22T15:58:20</time>
      </trkpt>
      <trkpt lat="43.17088" lon="0.86487">
        <ele>451</ele>
        <time>2013-12-22T15:58:21</time>
      </trkpt>
      <trkpt lat="43.17087" lon="0.86487">
        <ele>450.5</ele>
        <time>2013-12-22T15:58:22</time>
      </trkpt>
      <trkpt lat="43.17086" lon="0.86487">
        <ele>450.3</ele>
        <time>2013-12-22T15:58:23</time>
      </trkpt>
      <trkpt lat="43.17085" lon="0.86487">
        <ele>450.7</ele>
        <time>2013-12-22T15:58:24</time>
      </trkpt>
      <trkpt lat="43.17084" lon="0.86488">
        <ele>451.4</ele>
        <time>2013-12-22T15:58:25</time>
      </trkpt>
      <trkpt lat="43.17083" lon="0.86488">
        <ele>451.4</ele>
        <time>2013-12-22T15:58:26</time>
      </trkpt>
      <trkpt lat="43.17082" lon="0.86489">
        <ele>451.3</ele>
        <time>2013-12-22T15:58:27</time>
      </trkpt>
      <trkpt lat="43.17081" lon="0.86489">
        <ele>450.7</ele>
        <time>2013-12-22T15:58:28</time>
      </trkpt>
      <trkpt lat="43.1708" lon="0.8649">
        <ele>450.5</ele>
        <time>2013-12-22T15:58:29</time>
      </trkpt>
      <trkpt lat="43.17078" lon="0.8649">
        <ele>450</ele>
        <time>2013-12-22T15:58:30</time>
      </trkpt>
      <trkpt lat="43.17078" lon="0.8649">
        <ele>449</ele>
        <time>2013-12-22T15:58:31</time>
      </trkpt>
      <trkpt lat="43.17077" lon="0.86491">
        <ele>421.6</ele>
        <time>2013-12-22T15:58:32</time>
      </trkpt>
      <trkpt lat="43.17076" lon="0.86491">
        <ele>433.3</ele>
        <time>2013-12-22T15:58:33</time>
      </trkpt>
      <trkpt lat="43.17075" lon="0.86492">
        <ele>438.2</ele>
        <time>2013-12-22T15:58:34</time>
      </trkpt>
      <trkpt lat="43.17073" lon="0.86492">
        <ele>440.7</ele>
        <time>2013-12-22T15:58:35</time>
      </trkpt>
      <trkpt lat="43.17072" lon="0.86492">
        <ele>443.3</ele>
        <time>2013-12-22T15:58:36</time>
      </trkpt>
      <trkpt lat="43.17072" lon="0.86493">
        <ele>443.3</ele>
        <time>2013-12-22T15:58:37</time>
      </trkpt>
      <trkpt lat="43.1707" lon="0.86493">
        <ele>443.9</ele>
        <time>2013-12-22T15:58:38</time>
      </trkpt>
      <trkpt lat="43.17069" lon="0.86494">
        <ele>445</ele>
        <time>2013-12-22T15:58:39</time>
      </trkpt>
      <trkpt lat="43.17068" lon="0.86494">
        <ele>446</ele>
        <time>2013-12-22T15:58:40</time>
      </trkpt>
      <trkpt lat="43.17067" lon="0.86495">
        <ele>446.2</ele>
        <time>2013-12-22T15:58:41</time>
      </trkpt>
      <trkpt lat="43.17066" lon="0.86496">
        <ele>446</ele>
        <time>2013-12-22T15:58:42</time>
      </trkpt>
      <trkpt lat="43.17065" lon="0.86496">
        <ele>445.5</ele>
        <time>2013-12-22T15:58:43</time>
      </trkpt>
      <trkpt lat="43.17064" lon="0.86497">
        <ele>445.9</ele>
        <time>2013-12-22T15:58:44</time>
      </trkpt>
      <trkpt lat="43.17063" lon="0.86497">
        <ele>445.9</ele>
        <time>2013-12-22T15:58:45</time>
      </trkpt>
      <trkpt lat="43.17062" lon="0.86498">
        <ele>445.4</ele>
        <time>2013-12-22T15:58:46</time>
      </trkpt>
      <trkpt lat="43.17061" lon="0.86498">
        <ele>445.4</ele>
        <time>2013-12-22T15:58:47</time>
      </trkpt>
      <trkpt lat="43.1706" lon="0.86497">
        <ele>444.8</ele>
        <time>2013-12-22T15:58:48</time>
      </trkpt>
      <trkpt lat="43.17059" lon="0.86497">
        <ele>444</ele>
        <time>2013-12-22T15:58:49</time>
      </trkpt>
      <trkpt lat="43.17058" lon="0.86497">
        <ele>443.2</ele>
        <time>2013-12-22T15:58:50</time>
      </trkpt>
      <trkpt lat="43.17057" lon="0.86498">
        <ele>442.5</ele>
        <time>2013-12-22T15:58:51</time>
      </trkpt>
      <trkpt lat="43.17056" lon="0.86498">
        <ele>441.6</ele>
        <time>2013-12-22T15:58:52</time>
      </trkpt>
      <trkpt lat="43.17055" lon="0.86499">
        <ele>441.5</ele>
        <time>2013-12-22T15:58:53</time>
      </trkpt>
      <trkpt lat="43.17053" lon="0.86499">
        <ele>441.9</ele>
        <time>2013-12-22T15:58:54</time>
      </trkpt>
      <trkpt lat="43.17052" lon="0.865">
        <ele>441.2</ele>
        <time>2013-12-22T15:58:55</time>
      </trkpt>
      <trkpt lat="43.17051" lon="0.865">
        <ele>440.1</ele>
        <time>2013-12-22T15:58:56</time>
      </trkpt>
      <trkpt lat="43.1705" lon="0.86501">
        <ele>440.2</ele>
        <time>2013-12-22T15:58:57</time>
      </trkpt>
      <trkpt lat="43.17049" lon="0.86501">
        <ele>440.2</ele>
        <time>2013-12-22T15:58:58</time>
      </trkpt>
      <trkpt lat="43.17048" lon="0.86502">
        <ele>440.4</ele>
        <time>2013-12-22T15:58:59</time>
      </trkpt>
      <trkpt lat="43.17047" lon="0.86502">
        <ele>440.2</ele>
        <time>2013-12-22T15:59:00</time>
      </trkpt>
      <trkpt lat="43.17046" lon="0.86502">
        <ele>440.1</ele>
        <time>2013-12-22T15:59:01</time>
      </trkpt>
      <trkpt lat="43.17045" lon="0.86503">
        <ele>439.8</ele>
        <time>2013-12-22T15:59:02</time>
      </trkpt>
      <trkpt lat="43.17044" lon="0.86503">
        <ele>438.4</ele>
        <time>2013-12-22T15:59:03</time>
      </trkpt>
      <trkpt lat="43.17043" lon="0.86504">
        <ele>437.9</ele>
        <time>2013-12-22T15:59:04</time>
      </trkpt>
      <trkpt lat="43.17042" lon="0.86504">
        <ele>437.8</ele>
        <time>2013-12-22T15:59:05</time>
      </trkpt>
      <trkpt lat="43.17041" lon="0.86505">
        <ele>438.3</ele>
        <time>2013-12-22T15:59:06</time>
      </trkpt>
      <trkpt lat="43.1704" lon="0.86505">
        <ele>438.1</ele>
        <time>2013-12-22T15:59:07</time>
      </trkpt>
      <trkpt lat="43.17039" lon="0.86505">
        <ele>438.3</ele>
        <time>2013-12-22T15:59:08</time>
      </trkpt>
      <trkpt lat="43.17038" lon="0.86506">
        <ele>437.6</ele>
        <time>2013-12-22T15:59:09</time>
      </trkpt>
      <trkpt lat="43.17036" lon="0.86506">
        <ele>438.3</ele>
        <time>2013-12-22T15:59:10</time>
      </trkpt>
      <trkpt lat="43.17035" lon="0.86506">
        <ele>437.5</ele>
        <time>2013-12-22T15:59:11</time>
      </trkpt>
      <trkpt lat="43.17034" lon="0.86507">
        <ele>436.1</ele>
        <time>2013-12-22T15:59:12</time>
      </trkpt>
      <trkpt lat="43.17033" lon="0.86507">
        <ele>437</ele>
        <time>2013-12-22T15:59:13</time>
      </trkpt>
      <trkpt lat="43.17032" lon="0.86508">
        <ele>436.8</ele>
        <time>2013-12-22T15:59:14</time>
      </trkpt>
      <trkpt lat="43.17031" lon="0.86508">
        <ele>436.9</ele>
        <time>2013-12-22T15:59:15</time>
      </trkpt>
      <trkpt lat="43.1703" lon="0.86509">
        <ele>436.9</ele>
        <time>2013-12-22T15:59:16</time>
      </trkpt>
      <trkpt lat="43.17028" lon="0.86509">
        <ele>437</ele>
        <time>2013-12-22T15:59:17</time>
      </trkpt>
      <trkpt lat="43.17027" lon="0.8651">
        <ele>437.4</ele>
        <time>2013-12-22T15:59:18</time>
      </trkpt>
      <trkpt lat="43.17026" lon="0.8651">
        <ele>437.8</ele>
        <time>2013-12-22T15:59:19</time>
      </trkpt>
      <trkpt lat="43.17025" lon="0.8651">
        <ele>436.7</ele>
        <time>2013-12-22T15:59:20</time>
      </trkpt>
      <trkpt lat="43.17024" lon="0.86511">
        <ele>436.4</ele>
        <time>2013-12-22T15:59:21</time>
      </trkpt>
      <trkpt lat="43.17023" lon="0.86512">
        <ele>436.4</ele>
        <time>2013-12-22T15:59:22</time>
      </trkpt>
      <trkpt lat="43.17022" lon="0.86512">
        <ele>436.6</ele>
        <time>2013-12-22T15:59:23</time>
      </trkpt>
      <trkpt lat="43.17021" lon="0.86513">
        <ele>436.7</ele>
        <time>2013-12-22T15:59:24</time>
      </trkpt>
      <trkpt lat="43.1702" lon="0.86514">
        <ele>436.5</ele>
        <time>2013-12-22T15:59:25</time>
      </trkpt>
      <trkpt lat="43.17019" lon="0.86514">
        <ele>436.9</ele>
        <time>2013-12-22T15:59:26</time>
      </trkpt>
      <trkpt lat="43.17017" lon="0.86515">
        <ele>436.7</ele>
        <time>2013-12-22T15:59:27</time>
      </trkpt>
      <trkpt lat="43.17016" lon="0.86515">
        <ele>436.6</ele>
        <time>2013-12-22T15:59:28</time>
      </trkpt>
      <trkpt lat="43.17015" lon="0.86516">
        <ele>436.6</ele>
        <time>2013-12-22T15:59:29</time>
      </trkpt>
      <trkpt lat="43.17014" lon="0.86517">
        <ele>437.1</ele>
        <time>2013-12-22T15:59:30</time>
      </trkpt>
      <trkpt lat="43.17012" lon="0.86517">
        <ele>437.4</ele>
        <time>2013-12-22T15:59:31</time>
      </trkpt>
      <trkpt lat="43.17011" lon="0.86518">
        <ele>437.5</ele>
        <time>2013-12-22T15:59:32</time>
      </trkpt>
      <trkpt lat="43.1701" lon="0.86519">
        <ele>437.4</ele>
        <time>2013-12-22T15:59:33</time>
      </trkpt>
      <trkpt lat="43.17009" lon="0.86519">
        <ele>437.6</ele>
        <time>2013-12-22T15:59:34</time>
      </trkpt>
      <trkpt lat="43.17008" lon="0.8652">
        <ele>437.7</ele>
        <time>2013-12-22T15:59:35</time>
      </trkpt>
      <trkpt lat="43.17007" lon="0.8652">
        <ele>437.9</ele>
        <time>2013-12-22T15:59:36</time>
      </trkpt>
      <trkpt lat="43.17006" lon="0.86521">
        <ele>437.5</ele>
        <time>2013-12-22T15:59:37</time>
      </trkpt>
      <trkpt lat="43.17004" lon="0.86521">
        <ele>437.6</ele>
        <time>2013-12-22T15:59:38</time>
      </trkpt>
      <trkpt lat="43.17004" lon="0.86521">
        <ele>437.8</ele>
        <time>2013-12-22T15:59:39</time>
      </trkpt>
      <trkpt lat="43.17003" lon="0.86521">
        <ele>437.7</ele>
        <time>2013-12-22T15:59:40</time>
      </trkpt>
      <trkpt lat="43.17001" lon="0.86521">
        <ele>437.5</ele>
        <time>2013-12-22T15:59:41</time>
      </trkpt>
      <trkpt lat="43.17" lon="0.86521">
        <ele>437.3</ele>
        <time>2013-12-22T15:59:42</time>
      </trkpt>
      <trkpt lat="43.16999" lon="0.86521">
        <ele>436.7</ele>
        <time>2013-12-22T15:59:43</time>
      </trkpt>
      <trkpt lat="43.16998" lon="0.86522">
        <ele>436.6</ele>
        <time>2013-12-22T15:59:44</time>
      </trkpt>
      <trkpt lat="43.16997" lon="0.86522">
        <ele>436.4</ele>
        <time>2013-12-22T15:59:45</time>
      </trkpt>
      <trkpt lat="43.16996" lon="0.86523">
        <ele>436.1</ele>
        <time>2013-12-22T15:59:46</time>
      </trkpt>
      <trkpt lat="43.16995" lon="0.86523">
        <ele>436.8</ele>
        <time>2013-12-22T15:59:47</time>
      </trkpt>
      <trkpt lat="43.16995" lon="0.86524">
        <ele>436.7</ele>
        <time>2013-12-22T15:59:48</time>
      </trkpt>
      <trkpt lat="43.16993" lon="0.86524">
        <ele>436.3</ele>
        <time>2013-12-22T15:59:49</time>
      </trkpt>
      <trkpt lat="43.16992" lon="0.86524">
        <ele>436.2</ele>
        <time>2013-12-22T15:59:50</time>
      </trkpt>
      <trkpt lat="43.16991" lon="0.86525">
        <ele>435.9</ele>
        <time>2013-12-22T15:59:51</time>
      </trkpt>
      <trkpt lat="43.1699" lon="0.86525">
        <ele>434.8</ele>
        <time>2013-12-22T15:59:52</time>
      </trkpt>
      <trkpt lat="43.1699" lon="0.86525">
        <ele>436.5</ele>
        <time>2013-12-22T15:59:53</time>
      </trkpt>
      <trkpt lat="43.16988" lon="0.86526">
        <ele>436.5</ele>
        <time>2013-12-22T15:59:54</time>
      </trkpt>
      <trkpt lat="43.16987" lon="0.86526">
        <ele>435.9</ele>
        <time>2013-12-22T15:59:55</time>
      </trkpt>
      <trkpt lat="43.16987" lon="0.86526">
        <ele>435.9</ele>
        <time>2013-12-22T15:59:56</time>
      </trkpt>
      <trkpt lat="43.16986" lon="0.86527">
        <ele>439.4</ele>
        <time>2013-12-22T15:59:57</time>
      </trkpt>
      <trkpt lat="43.16985" lon="0.86528">
        <ele>437.6</ele>
        <time>2013-12-22T15:59:58</time>
      </trkpt>
      <trkpt lat="43.16984" lon="0.86528">
        <ele>437.1</ele>
        <time>2013-12-22T15:59:59</time>
      </trkpt>
      <trkpt lat="43.16983" lon="0.86529">
        <ele>436</ele>
        <time>2013-12-22T16:00:00</time>
      </trkpt>
      <trkpt lat="43.16982" lon="0.8653">
        <ele>435.9</ele>
        <time>2013-12-22T16:00:01</time>
      </trkpt>
      <trkpt lat="43.16981" lon="0.8653">
        <ele>435.7</ele>
        <time>2013-12-22T16:00:02</time>
      </trkpt>
      <trkpt lat="43.1698" lon="0.86531">
        <ele>435.5</ele>
        <time>2013-12-22T16:00:03</time>
      </trkpt>
      <trkpt lat="43.1698" lon="0.86532">
        <ele>436.8</ele>
        <time>2013-12-22T16:00:04</time>
      </trkpt>
      <trkpt lat="43.16979" lon="0.86533">
        <ele>435.8</ele>
        <time>2013-12-22T16:00:05</time>
      </trkpt>
      <trkpt lat="43.16979" lon="0.86534">
        <ele>435.9</ele>
        <time>2013-12-22T16:00:06</time>
      </trkpt>
      <trkpt lat="43.16977" lon="0.86535">
        <ele>436.2</ele>
        <time>2013-12-22T16:00:07</time>
      </trkpt>
      <trkpt lat="43.16977" lon="0.86535">
        <ele>436.6</ele>
        <time>2013-12-22T16:00:08</time>
      </trkpt>
      <trkpt lat="43.16976" lon="0.86536">
        <ele>436.7</ele>
        <time>2013-12-22T16:00:09</time>
      </trkpt>
      <trkpt lat="43.16975" lon="0.86537">
        <ele>436</ele>
        <time>2013-12-22T16:00:10</time>
      </trkpt>
      <trkpt lat="43.16974" lon="0.86538">
        <ele>435.9</ele>
        <time>2013-12-22T16:00:11</time>
      </trkpt>
      <trkpt lat="43.16973" lon="0.86538">
        <ele>435.9</ele>
        <time>2013-12-22T16:00:12</time>
      </trkpt>
      <trkpt lat="43.16972" lon="0.86539">
        <ele>435.5</ele>
        <time>2013-12-22T16:00:13</time>
      </trkpt>
      <trkpt lat="43.16971" lon="0.86539">
        <ele>435.7</ele>
        <time>2013-12-22T16:00:14</time>
      </trkpt>
      <trkpt lat="43.1697" lon="0.8654">
        <ele>436</ele>
        <time>2013-12-22T16:00:15</time>
      </trkpt>
      <trkpt lat="43.16969" lon="0.8654">
        <ele>436.5</ele>
        <time>2013-12-22T16:00:16</time>
      </trkpt>
      <trkpt lat="43.16968" lon="0.86541">
        <ele>436.2</ele>
        <time>2013-12-22T16:00:17</time>
      </trkpt>
      <trkpt lat="43.16967" lon="0.86541">
        <ele>436</ele>
        <time>2013-12-22T16:00:18</time>
      </trkpt>
      <trkpt lat="43.16966" lon="0.86542">
        <ele>435.6</ele>
        <time>2013-12-22T16:00:19</time>
      </trkpt>
      <trkpt lat="43.16965" lon="0.86543">
        <ele>435.9</ele>
        <time>2013-12-22T16:00:20</time>
      </trkpt>
      <trkpt lat="43.16964" lon="0.86543">
        <ele>436.2</ele>
        <time>2013-12-22T16:00:21</time>
      </trkpt>
      <trkpt lat="43.16962" lon="0.86543">
        <ele>436.6</ele>
        <time>2013-12-22T16:00:22</time>
      </trkpt>
      <trkpt lat="43.16961" lon="0.86544">
        <ele>436.8</ele>
        <time>2013-12-22T16:00:23</time>
      </trkpt>
      <trkpt lat="43.1696" lon="0.86544">
        <ele>437</ele>
        <time>2013-12-22T16:00:24</time>
      </trkpt>
      <trkpt lat="43.16959" lon="0.86545">
        <ele>437</ele>
        <time>2013-12-22T16:00:25</time>
      </trkpt>
      <trkpt lat="43.16958" lon="0.86545">
        <ele>437</ele>
        <time>2013-12-22T16:00:26</time>
      </trkpt>
      <trkpt lat="43.16957" lon="0.86545">
        <ele>436.5</ele>
        <time>2013-12-22T16:00:27</time>
      </trkpt>
      <trkpt lat="43.16956" lon="0.86545">
        <ele>436.5</ele>
        <time>2013-12-22T16:00:28</time>
      </trkpt>
      <trkpt lat="43.16954" lon="0.86546">
        <ele>436.8</ele>
        <time>2013-12-22T16:00:29</time>
      </trkpt>
      <trkpt lat="43.16953" lon="0.86546">
        <ele>436.8</ele>
        <time>2013-12-22T16:00:30</time>
      </trkpt>
      <trkpt lat="43.16952" lon="0.86545">
        <ele>436.6</ele>
        <time>2013-12-22T16:00:31</time>
      </trkpt>
      <trkpt lat="43.16951" lon="0.86545">
        <ele>436.6</ele>
        <time>2013-12-22T16:00:32</time>
      </trkpt>
      <trkpt lat="43.1695" lon="0.86545">
        <ele>436.6</ele>
        <time>2013-12-22T16:00:33</time>
      </trkpt>
      <trkpt lat="43.16949" lon="0.86545">
        <ele>436</ele>
        <time>2013-12-22T16:00:34</time>
      </trkpt>
      <trkpt lat="43.16948" lon="0.86545">
        <ele>435.8</ele>
        <time>2013-12-22T16:00:35</time>
      </trkpt>
      <trkpt lat="43.16947" lon="0.86545">
        <ele>435.8</ele>
        <time>2013-12-22T16:00:36</time>
      </trkpt>
      <trkpt lat="43.16946" lon="0.86544">
        <ele>435.1</ele>
        <time>2013-12-22T16:00:37</time>
      </trkpt>
      <trkpt lat="43.16945" lon="0.86544">
        <ele>435</ele>
        <time>2013-12-22T16:00:38</time>
      </trkpt>
      <trkpt lat="43.16944" lon="0.86543">
        <ele>434.8</ele>
        <time>2013-12-22T16:00:39</time>
      </trkpt>
      <trkpt lat="43.16943" lon="0.86542">
        <ele>434.4</ele>
        <time>2013-12-22T16:00:40</time>
      </trkpt>
      <trkpt lat="43.16943" lon="0.86542">
        <ele>434.2</ele>
        <time>2013-12-22T16:00:41</time>
      </trkpt>
      <trkpt lat="43.16942" lon="0.86542">
        <ele>434.5</ele>
        <time>2013-12-22T16:00:42</time>
      </trkpt>
      <trkpt lat="43.16941" lon="0.86541">
        <ele>434.5</ele>
        <time>2013-12-22T16:00:43</time>
      </trkpt>
      <trkpt lat="43.1694" lon="0.8654">
        <ele>434.5</ele>
        <time>2013-12-22T16:00:44</time>
      </trkpt>
      <trkpt lat="43.16939" lon="0.8654">
        <ele>434.5</ele>
        <time>2013-12-22T16:00:45</time>
      </trkpt>
      <trkpt lat="43.16938" lon="0.86539">
        <ele>434.9</ele>
        <time>2013-12-22T16:00:46</time>
      </trkpt>
      <trkpt lat="43.16937" lon="0.86538">
        <ele>434.7</ele>
        <time>2013-12-22T16:00:47</time>
      </trkpt>
      <trkpt lat="43.16936" lon="0.86537">
        <ele>434.3</ele>
        <time>2013-12-22T16:00:48</time>
      </trkpt>
      <trkpt lat="43.16934" lon="0.86537">
        <ele>435.1</ele>
        <time>2013-12-22T16:00:49</time>
      </trkpt>
      <trkpt lat="43.16933" lon="0.86537">
        <ele>435</ele>
        <time>2013-12-22T16:00:50</time>
      </trkpt>
      <trkpt lat="43.16932" lon="0.86537">
        <ele>434.9</ele>
        <time>2013-12-22T16:00:51</time>
      </trkpt>
      <trkpt lat="43.16931" lon="0.86536">
        <ele>435.4</ele>
        <time>2013-12-22T16:00:52</time>
      </trkpt>
      <trkpt lat="43.1693" lon="0.86536">
        <ele>435.2</ele>
        <time>2013-12-22T16:00:53</time>
      </trkpt>
      <trkpt lat="43.16929" lon="0.86536">
        <ele>435</ele>
        <time>2013-12-22T16:00:54</time>
      </trkpt>
      <trkpt lat="43.16927" lon="0.86535">
        <ele>435</ele>
        <time>2013-12-22T16:00:55</time>
      </trkpt>
      <trkpt lat="43.16926" lon="0.86535">
        <ele>435</ele>
        <time>2013-12-22T16:00:56</time>
      </trkpt>
      <trkpt lat="43.16925" lon="0.86535">
        <ele>435.1</ele>
        <time>2013-12-22T16:00:57</time>
      </trkpt>
      <trkpt lat="43.16924" lon="0.86535">
        <ele>434.7</ele>
        <time>2013-12-22T16:00:58</time>
      </trkpt>
      <trkpt lat="43.16923" lon="0.86535">
        <ele>434.9</ele>
        <time>2013-12-22T16:00:59</time>
      </trkpt>
      <trkpt lat="43.16922" lon="0.86535">
        <ele>435.6</ele>
        <time>2013-12-22T16:01:00</time>
      </trkpt>
      <trkpt lat="43.16921" lon="0.86536">
        <ele>435.7</ele>
        <time>2013-12-22T16:01:01</time>
      </trkpt>
      <trkpt lat="43.16919" lon="0.86536">
        <ele>435.7</ele>
        <time>2013-12-22T16:01:02</time>
      </trkpt>
      <trkpt lat="43.16918" lon="0.86536">
        <ele>436</ele>
        <time>2013-12-22T16:01:03</time>
      </trkpt>
      <trkpt lat="43.16917" lon="0.86535">
        <ele>436.1</ele>
        <time>2013-12-22T16:01:04</time>
      </trkpt>
      <trkpt lat="43.16916" lon="0.86535">
        <ele>435.7</ele>
        <time>2013-12-22T16:01:05</time>
      </trkpt>
      <trkpt lat="43.16915" lon="0.86535">
        <ele>435.9</ele>
        <time>2013-12-22T16:01:06</time>
      </trkpt>
      <trkpt lat="43.16914" lon="0.86535">
        <ele>435.8</ele>
        <time>2013-12-22T16:01:07</time>
      </trkpt>
      <trkpt lat="43.16913" lon="0.86535">
        <ele>435.6</ele>
        <time>2013-12-22T16:01:08</time>
      </trkpt>
      <trkpt lat="43.16912" lon="0.86535">
        <ele>435.8</ele>
        <time>2013-12-22T16:01:09</time>
      </trkpt>
      <trkpt lat="43.16911" lon="0.86535">
        <ele>436</ele>
        <time>2013-12-22T16:01:10</time>
      </trkpt>
      <trkpt lat="43.16909" lon="0.86535">
        <ele>436.2</ele>
        <time>2013-12-22T16:01:11</time>
      </trkpt>
      <trkpt lat="43.16908" lon="0.86535">
        <ele>436.1</ele>
        <time>2013-12-22T16:01:12</time>
      </trkpt>
      <trkpt lat="43.16907" lon="0.86535">
        <ele>435.9</ele>
        <time>2013-12-22T16:01:13</time>
      </trkpt>
      <trkpt lat="43.16906" lon="0.86535">
        <ele>435.5</ele>
        <time>2013-12-22T16:01:14</time>
      </trkpt>
      <trkpt lat="43.16905" lon="0.86535">
        <ele>435.7</ele>
        <time>2013-12-22T16:01:15</time>
      </trkpt>
      <trkpt lat="43.16904" lon="0.86535">
        <ele>435.4</ele>
        <time>2013-12-22T16:01:16</time>
      </trkpt>
      <trkpt lat="43.16903" lon="0.86534">
        <ele>435.3</ele>
        <time>2013-12-22T16:01:17</time>
      </trkpt>
      <trkpt lat="43.16903" lon="0.86534">
        <ele>434.4</ele>
        <time>2013-12-22T16:01:18</time>
      </trkpt>
      <trkpt lat="43.16901" lon="0.86534">
        <ele>434.2</ele>
        <time>2013-12-22T16:01:19</time>
      </trkpt>
      <trkpt lat="43.16901" lon="0.86534">
        <ele>434.7</ele>
        <time>2013-12-22T16:01:20</time>
      </trkpt>
      <trkpt lat="43.169" lon="0.86534">
        <ele>435.1</ele>
        <time>2013-12-22T16:01:21</time>
      </trkpt>
      <trkpt lat="43.16899" lon="0.86534">
        <ele>435.1</ele>
        <time>2013-12-22T16:01:22</time>
      </trkpt>
      <trkpt lat="43.16898" lon="0.86535">
        <ele>435.1</ele>
        <time>2013-12-22T16:01:23</time>
      </trkpt>
      <trkpt lat="43.16897" lon="0.86535">
        <ele>434.8</ele>
        <time>2013-12-22T16:01:24</time>
      </trkpt>
      <trkpt lat="43.16896" lon="0.86535">
        <ele>434.7</ele>
        <time>2013-12-22T16:01:25</time>
      </trkpt>
      <trkpt lat="43.16895" lon="0.86535">
        <ele>433.5</ele>
        <time>2013-12-22T16:01:26</time>
      </trkpt>
      <trkpt lat="43.16894" lon="0.86535">
        <ele>433</ele>
        <time>2013-12-22T16:01:27</time>
      </trkpt>
      <trkpt lat="43.16893" lon="0.86535">
        <ele>432.5</ele>
        <time>2013-12-22T16:01:28</time>
      </trkpt>
      <trkpt lat="43.16892" lon="0.86535">
        <ele>432.5</ele>
        <time>2013-12-22T16:01:29</time>
      </trkpt>
      <trkpt lat="43.16892" lon="0.86536">
        <ele>433.4</ele>
        <time>2013-12-22T16:01:30</time>
      </trkpt>
      <trkpt lat="43.1689" lon="0.86536">
        <ele>433.5</ele>
        <time>2013-12-22T16:01:31</time>
      </trkpt>
      <trkpt lat="43.1689" lon="0.86536">
        <ele>431.9</ele>
        <time>2013-12-22T16:01:32</time>
      </trkpt>
      <trkpt lat="43.16889" lon="0.86537">
        <ele>432.2</ele>
        <time>2013-12-22T16:01:33</time>
      </trkpt>
      <trkpt lat="43.16888" lon="0.86538">
        <ele>432.1</ele>
        <time>2013-12-22T16:01:34</time>
      </trkpt>
      <trkpt lat="43.16888" lon="0.86538">
        <ele>432.2</ele>
        <time>2013-12-22T16:01:35</time>
      </trkpt>
      <trkpt lat="43.16887" lon="0.86539">
        <ele>432.1</ele>
        <time>2013-12-22T16:01:36</time>
      </trkpt>
      <trkpt lat="43.16887" lon="0.8654">
        <ele>431.1</ele>
        <time>2013-12-22T16:01:37</time>
      </trkpt>
      <trkpt lat="43.16887" lon="0.86541">
        <ele>430.4</ele>
        <time>2013-12-22T16:01:38</time>
      </trkpt>
      <trkpt lat="43.16887" lon="0.86542">
        <ele>430</ele>
        <time>2013-12-22T16:01:39</time>
      </trkpt>
      <trkpt lat="43.16886" lon="0.86543">
        <ele>429.7</ele>
        <time>2013-12-22T16:01:40</time>
      </trkpt>
      <trkpt lat="43.16886" lon="0.86544">
        <ele>429.7</ele>
        <time>2013-12-22T16:01:41</time>
      </trkpt>
      <trkpt lat="43.16885" lon="0.86545">
        <ele>429.3</ele>
        <time>2013-12-22T16:01:42</time>
      </trkpt>
      <trkpt lat="43.16885" lon="0.86546">
        <ele>428.6</ele>
        <time>2013-12-22T16:01:43</time>
      </trkpt>
      <trkpt lat="43.16885" lon="0.86547">
        <ele>428.3</ele>
        <time>2013-12-22T16:01:44</time>
      </trkpt>
      <trkpt lat="43.16884" lon="0.86548">
        <ele>428.4</ele>
        <time>2013-12-22T16:01:45</time>
      </trkpt>
      <trkpt lat="43.16884" lon="0.86549">
        <ele>427.9</ele>
        <time>2013-12-22T16:01:46</time>
      </trkpt>
      <trkpt lat="43.16884" lon="0.86551">
        <ele>427.6</ele>
        <time>2013-12-22T16:01:47</time>
      </trkpt>
      <trkpt lat="43.16883" lon="0.86552">
        <ele>427.9</ele>
        <time>2013-12-22T16:01:48</time>
      </trkpt>
      <trkpt lat="43.16882" lon="0.86553">
        <ele>427.7</ele>
        <time>2013-12-22T16:01:49</time>
      </trkpt>
      <trkpt lat="43.16882" lon="0.86554">
        <ele>427.2</ele>
        <time>2013-12-22T16:01:50</time>
      </trkpt>
      <trkpt lat="43.16881" lon="0.86556">
        <ele>428.5</ele>
        <time>2013-12-22T16:01:51</time>
      </trkpt>
      <trkpt lat="43.1688" lon="0.86557">
        <ele>428.1</ele>
        <time>2013-12-22T16:01:52</time>
      </trkpt>
      <trkpt lat="43.1688" lon="0.86559">
        <ele>427.6</ele>
        <time>2013-12-22T16:01:53</time>
      </trkpt>
      <trkpt lat="43.16879" lon="0.8656">
        <ele>427.2</ele>
        <time>2013-12-22T16:01:54</time>
      </trkpt>
      <trkpt lat="43.16879" lon="0.86561">
        <ele>426.7</ele>
        <time>2013-12-22T16:01:55</time>
      </trkpt>
      <trkpt lat="43.16878" lon="0.86563">
        <ele>427.5</ele>
        <time>2013-12-22T16:01:56</time>
      </trkpt>
      <trkpt lat="43.16877" lon="0.86564">
        <ele>427.8</ele>
        <time>2013-12-22T16:01:57</time>
      </trkpt>
      <trkpt lat="43.16877" lon="0.86565">
        <ele>408.1</ele>
        <time>2013-12-22T16:01:58</time>
      </trkpt>
      <trkpt lat="43.16876" lon="0.86567">
        <ele>415.8</ele>
        <time>2013-12-22T16:01:59</time>
      </trkpt>
      <trkpt lat="43.16875" lon="0.86568">
        <ele>420.7</ele>
        <time>2013-12-22T16:02:00</time>
      </trkpt>
      <trkpt lat="43.16874" lon="0.86569">
        <ele>422.8</ele>
        <time>2013-12-22T16:02:01</time>
      </trkpt>
      <trkpt lat="43.16874" lon="0.86571">
        <ele>424.4</ele>
        <time>2013-12-22T16:02:02</time>
      </trkpt>
      <trkpt lat="43.16873" lon="0.86572">
        <ele>425</ele>
        <time>2013-12-22T16:02:03</time>
      </trkpt>
      <trkpt lat="43.16872" lon="0.86573">
        <ele>425.2</ele>
        <time>2013-12-22T16:02:04</time>
      </trkpt>
      <trkpt lat="43.16871" lon="0.86574">
        <ele>425.5</ele>
        <time>2013-12-22T16:02:05</time>
      </trkpt>
      <trkpt lat="43.16871" lon="0.86575">
        <ele>425.2</ele>
        <time>2013-12-22T16:02:06</time>
      </trkpt>
      <trkpt lat="43.1687" lon="0.86576">
        <ele>424.6</ele>
        <time>2013-12-22T16:02:07</time>
      </trkpt>
      <trkpt lat="43.16869" lon="0.86577">
        <ele>425</ele>
        <time>2013-12-22T16:02:08</time>
      </trkpt>
      <trkpt lat="43.16869" lon="0.86577">
        <ele>424.6</ele>
        <time>2013-12-22T16:02:09</time>
      </trkpt>
      <trkpt lat="43.16868" lon="0.86578">
        <ele>424.7</ele>
        <time>2013-12-22T16:02:10</time>
      </trkpt>
      <trkpt lat="43.16867" lon="0.86579">
        <ele>424.7</ele>
        <time>2013-12-22T16:02:11</time>
      </trkpt>
      <trkpt lat="43.16866" lon="0.8658">
        <ele>424.4</ele>
        <time>2013-12-22T16:02:12</time>
      </trkpt>
      <trkpt lat="43.16866" lon="0.86581">
        <ele>424.1</ele>
        <time>2013-12-22T16:02:13</time>
      </trkpt>
      <trkpt lat="43.16865" lon="0.86582">
        <ele>424</ele>
        <time>2013-12-22T16:02:14</time>
      </trkpt>
      <trkpt lat="43.16865" lon="0.86583">
        <ele>423.6</ele>
        <time>2013-12-22T16:02:15</time>
      </trkpt>
      <trkpt lat="43.16864" lon="0.86584">
        <ele>423.4</ele>
        <time>2013-12-22T16:02:16</time>
      </trkpt>
      <trkpt lat="43.16864" lon="0.86584">
        <ele>423.1</ele>
        <time>2013-12-22T16:02:17</time>
      </trkpt>
      <trkpt lat="43.16864" lon="0.86585">
        <ele>423.1</ele>
        <time>2013-12-22T16:02:18</time>
      </trkpt>
      <trkpt lat="43.16864" lon="0.86585">
        <ele>423.1</ele>
        <time>2013-12-22T16:02:19</time>
      </trkpt>
      <trkpt lat="43.16864" lon="0.86586">
        <ele>422.9</ele>
        <time>2013-12-22T16:02:20</time>
      </trkpt>
      <trkpt lat="43.16864" lon="0.86587">
        <ele>424.3</ele>
        <time>2013-12-22T16:02:40</time>
      </trkpt>
      <trkpt lat="43.16864" lon="0.86588">
        <ele>424.1</ele>
        <time>2013-12-22T16:02:41</time>
      </trkpt>
      <trkpt lat="43.16863" lon="0.86589">
        <ele>422.8</ele>
        <time>2013-12-22T16:02:42</time>
      </trkpt>
      <trkpt lat="43.16864" lon="0.86589">
        <ele>421.4</ele>
        <time>2013-12-22T16:02:47</time>
      </trkpt>
      <trkpt lat="43.16863" lon="0.8659">
        <ele>420.7</ele>
        <time>2013-12-22T16:02:48</time>
      </trkpt>
      <trkpt lat="43.16863" lon="0.86592">
        <ele>421</ele>
        <time>2013-12-22T16:02:49</time>
      </trkpt>
      <trkpt lat="43.16863" lon="0.86593">
        <ele>421</ele>
        <time>2013-12-22T16:02:50</time>
      </trkpt>
      <trkpt lat="43.16862" lon="0.86595">
        <ele>421.3</ele>
        <time>2013-12-22T16:02:51</time>
      </trkpt>
      <trkpt lat="43.16862" lon="0.86596">
        <ele>421.5</ele>
        <time>2013-12-22T16:02:52</time>
      </trkpt>
      <trkpt lat="43.16862" lon="0.86598">
        <ele>421.6</ele>
        <time>2013-12-22T16:02:53</time>
      </trkpt>
      <trkpt lat="43.16862" lon="0.866">
        <ele>421.4</ele>
        <time>2013-12-22T16:02:54</time>
      </trkpt>
      <trkpt lat="43.16862" lon="0.86601">
        <ele>422</ele>
        <time>2013-12-22T16:02:55</time>
      </trkpt>
      <trkpt lat="43.16862" lon="0.86603">
        <ele>422.2</ele>
        <time>2013-12-22T16:02:56</time>
      </trkpt>
      <trkpt lat="43.16861" lon="0.86605">
        <ele>422.3</ele>
        <time>2013-12-22T16:02:57</time>
      </trkpt>
      <trkpt lat="43.16861" lon="0.86606">
        <ele>421.2</ele>
        <time>2013-12-22T16:02:58</time>
      </trkpt>
      <trkpt lat="43.16861" lon="0.86608">
        <ele>403.4</ele>
        <time>2013-12-22T16:02:59</time>
      </trkpt>
      <trkpt lat="43.16861" lon="0.86609">
        <ele>410.3</ele>
        <time>2013-12-22T16:03:00</time>
      </trkpt>
      <trkpt lat="43.16861" lon="0.86611">
        <ele>413.7</ele>
        <time>2013-12-22T16:03:01</time>
      </trkpt>
      <trkpt lat="43.16861" lon="0.86613">
        <ele>415.7</ele>
        <time>2013-12-22T16:03:02</time>
      </trkpt>
      <trkpt lat="43.16862" lon="0.86614">
        <ele>416.8</ele>
        <time>2013-12-22T16:03:03</time>
      </trkpt>
      <trkpt lat="43.16862" lon="0.86616">
        <ele>418.1</ele>
        <time>2013-12-22T16:03:04</time>
      </trkpt>
      <trkpt lat="43.16862" lon="0.86617">
        <ele>418.8</ele>
        <time>2013-12-22T16:03:05</time>
      </trkpt>
      <trkpt lat="43.16862" lon="0.86619">
        <ele>419.6</ele>
        <time>2013-12-22T16:03:06</time>
      </trkpt>
      <trkpt lat="43.16863" lon="0.8662">
        <ele>420.1</ele>
        <time>2013-12-22T16:03:07</time>
      </trkpt>
      <trkpt lat="43.16863" lon="0.86622">
        <ele>419.8</ele>
        <time>2013-12-22T16:03:08</time>
      </trkpt>
      <trkpt lat="43.16863" lon="0.86623">
        <ele>420.4</ele>
        <time>2013-12-22T16:03:09</time>
      </trkpt>
      <trkpt lat="43.16863" lon="0.86625">
        <ele>420.7</ele>
        <time>2013-12-22T16:03:10</time>
      </trkpt>
      <trkpt lat="43.16863" lon="0.86626">
        <ele>421</ele>
        <time>2013-12-22T16:03:11</time>
      </trkpt>
      <trkpt lat="43.16863" lon="0.86628">
        <ele>421.4</ele>
        <time>2013-12-22T16:03:12</time>
      </trkpt>
      <trkpt lat="43.16862" lon="0.86629">
        <ele>421.3</ele>
        <time>2013-12-22T16:03:13</time>
      </trkpt>
      <trkpt lat="43.16862" lon="0.8663">
        <ele>421.2</ele>
        <time>2013-12-22T16:03:14</time>
      </trkpt>
      <trkpt lat="43.16862" lon="0.86632">
        <ele>421.4</ele>
        <time>2013-12-22T16:03:15</time>
      </trkpt>
      <trkpt lat="43.16862" lon="0.86633">
        <ele>421.4</ele>
        <time>2013-12-22T16:03:16</time>
      </trkpt>
      <trkpt lat="43.16862" lon="0.86634">
        <ele>421.8</ele>
        <time>2013-12-22T16:03:17</time>
      </trkpt>
      <trkpt lat="43.16862" lon="0.86636">
        <ele>422.6</ele>
        <time>2013-12-22T16:03:18</time>
      </trkpt>
      <trkpt lat="43.16861" lon="0.86637">
        <ele>422.6</ele>
        <time>2013-12-22T16:03:19</time>
      </trkpt>
      <trkpt lat="43.16861" lon="0.86638">
        <ele>422.9</ele>
        <time>2013-12-22T16:03:20</time>
      </trkpt>
      <trkpt lat="43.16861" lon="0.8664">
        <ele>422.8</ele>
        <time>2013-12-22T16:03:21</time>
      </trkpt>
      <trkpt lat="43.16861" lon="0.86641">
        <ele>423.3</ele>
        <time>2013-12-22T16:03:22</time>
      </trkpt>
      <trkpt lat="43.16861" lon="0.86643">
        <ele>423.9</ele>
        <time>2013-12-22T16:03:23</time>
      </trkpt>
      <trkpt lat="43.1686" lon="0.86644">
        <ele>423.9</ele>
        <time>2013-12-22T16:03:24</time>
      </trkpt>
      <trkpt lat="43.1686" lon="0.86646">
        <ele>424.2</ele>
        <time>2013-12-22T16:03:25</time>
      </trkpt>
      <trkpt lat="43.1686" lon="0.86647">
        <ele>424.8</ele>
        <time>2013-12-22T16:03:26</time>
      </trkpt>
      <trkpt lat="43.1686" lon="0.86649">
        <ele>424.8</ele>
        <time>2013-12-22T16:03:27</time>
      </trkpt>
      <trkpt lat="43.16859" lon="0.8665">
        <ele>424.8</ele>
        <time>2013-12-22T16:03:28</time>
      </trkpt>
      <trkpt lat="43.16859" lon="0.86651">
        <ele>425.1</ele>
        <time>2013-12-22T16:03:29</time>
      </trkpt>
      <trkpt lat="43.16859" lon="0.86653">
        <ele>424.9</ele>
        <time>2013-12-22T16:03:30</time>
      </trkpt>
      <trkpt lat="43.16858" lon="0.86654">
        <ele>424.8</ele>
        <time>2013-12-22T16:03:31</time>
      </trkpt>
      <trkpt lat="43.16858" lon="0.86655">
        <ele>425.2</ele>
        <time>2013-12-22T16:03:32</time>
      </trkpt>
      <trkpt lat="43.16858" lon="0.86657">
        <ele>424.9</ele>
        <time>2013-12-22T16:03:33</time>
      </trkpt>
      <trkpt lat="43.16857" lon="0.86658">
        <ele>424.7</ele>
        <time>2013-12-22T16:03:34</time>
      </trkpt>
      <trkpt lat="43.16857" lon="0.86659">
        <ele>424.6</ele>
        <time>2013-12-22T16:03:35</time>
      </trkpt>
      <trkpt lat="43.16856" lon="0.8666">
        <ele>424.7</ele>
        <time>2013-12-22T16:03:36</time>
      </trkpt>
      <trkpt lat="43.16856" lon="0.86661">
        <ele>424.8</ele>
        <time>2013-12-22T16:03:37</time>
      </trkpt>
      <trkpt lat="43.16856" lon="0.86662">
        <ele>424.8</ele>
        <time>2013-12-22T16:03:38</time>
      </trkpt>
      <trkpt lat="43.16855" lon="0.86663">
        <ele>425</ele>
        <time>2013-12-22T16:03:39</time>
      </trkpt>
      <trkpt lat="43.16855" lon="0.86664">
        <ele>424.9</ele>
        <time>2013-12-22T16:03:40</time>
      </trkpt>
      <trkpt lat="43.16855" lon="0.86665">
        <ele>424.9</ele>
        <time>2013-12-22T16:03:41</time>
      </trkpt>
      <trkpt lat="43.16855" lon="0.86666">
        <ele>425.1</ele>
        <time>2013-12-22T16:03:42</time>
      </trkpt>
      <trkpt lat="43.16854" lon="0.86667">
        <ele>425.4</ele>
        <time>2013-12-22T16:03:43</time>
      </trkpt>
      <trkpt lat="43.16854" lon="0.86668">
        <ele>425.3</ele>
        <time>2013-12-22T16:03:44</time>
      </trkpt>
      <trkpt lat="43.16853" lon="0.86669">
        <ele>425.2</ele>
        <time>2013-12-22T16:03:45</time>
      </trkpt>
      <trkpt lat="43.16853" lon="0.8667">
        <ele>425.5</ele>
        <time>2013-12-22T16:03:46</time>
      </trkpt>
      <trkpt lat="43.16853" lon="0.86671">
        <ele>425.3</ele>
        <time>2013-12-22T16:03:47</time>
      </trkpt>
      <trkpt lat="43.16852" lon="0.86672">
        <ele>425.4</ele>
        <time>2013-12-22T16:03:48</time>
      </trkpt>
      <trkpt lat="43.16852" lon="0.86673">
        <ele>425.4</ele>
        <time>2013-12-22T16:03:49</time>
      </trkpt>
      <trkpt lat="43.16851" lon="0.86674">
        <ele>425.5</ele>
        <time>2013-12-22T16:03:50</time>
      </trkpt>
      <trkpt lat="43.16851" lon="0.86675">
        <ele>425.5</ele>
        <time>2013-12-22T16:03:51</time>
      </trkpt>
      <trkpt lat="43.16851" lon="0.86676">
        <ele>425.3</ele>
        <time>2013-12-22T16:03:52</time>
      </trkpt>
      <trkpt lat="43.16851" lon="0.86677">
        <ele>425.3</ele>
        <time>2013-12-22T16:03:53</time>
      </trkpt>
      <trkpt lat="43.16851" lon="0.86678">
        <ele>425.1</ele>
        <time>2013-12-22T16:03:54</time>
      </trkpt>
      <trkpt lat="43.1685" lon="0.86679">
        <ele>425.1</ele>
        <time>2013-12-22T16:03:55</time>
      </trkpt>
      <trkpt lat="43.1685" lon="0.8668">
        <ele>424.7</ele>
        <time>2013-12-22T16:03:56</time>
      </trkpt>
      <trkpt lat="43.1685" lon="0.86681">
        <ele>424.4</ele>
        <time>2013-12-22T16:03:57</time>
      </trkpt>
      <trkpt lat="43.16849" lon="0.86682">
        <ele>424.6</ele>
        <time>2013-12-22T16:03:58</time>
      </trkpt>
      <trkpt lat="43.16849" lon="0.86683">
        <ele>424.5</ele>
        <time>2013-12-22T16:03:59</time>
      </trkpt>
      <trkpt lat="43.16848" lon="0.86684">
        <ele>424.9</ele>
        <time>2013-12-22T16:04:00</time>
      </trkpt>
      <trkpt lat="43.16848" lon="0.86685">
        <ele>424.6</ele>
        <time>2013-12-22T16:04:01</time>
      </trkpt>
      <trkpt lat="43.16848" lon="0.86687">
        <ele>424.2</ele>
        <time>2013-12-22T16:04:02</time>
      </trkpt>
      <trkpt lat="43.16848" lon="0.86688">
        <ele>424.2</ele>
        <time>2013-12-22T16:04:03</time>
      </trkpt>
      <trkpt lat="43.16847" lon="0.86689">
        <ele>423.8</ele>
        <time>2013-12-22T16:04:04</time>
      </trkpt>
      <trkpt lat="43.16847" lon="0.8669">
        <ele>423.7</ele>
        <time>2013-12-22T16:04:05</time>
      </trkpt>
      <trkpt lat="43.16847" lon="0.86691">
        <ele>423.5</ele>
        <time>2013-12-22T16:04:06</time>
      </trkpt>
      <trkpt lat="43.16847" lon="0.86692">
        <ele>422.6</ele>
        <time>2013-12-22T16:04:07</time>
      </trkpt>
      <trkpt lat="43.16847" lon="0.86693">
        <ele>422.5</ele>
        <time>2013-12-22T16:04:08</time>
      </trkpt>
      <trkpt lat="43.16846" lon="0.86694">
        <ele>422.2</ele>
        <time>2013-12-22T16:04:09</time>
      </trkpt>
      <trkpt lat="43.16846" lon="0.86695">
        <ele>422.2</ele>
        <time>2013-12-22T16:04:10</time>
      </trkpt>
      <trkpt lat="43.16845" lon="0.86696">
        <ele>422.6</ele>
        <time>2013-12-22T16:04:11</time>
      </trkpt>
      <trkpt lat="43.16845" lon="0.86697">
        <ele>422.3</ele>
        <time>2013-12-22T16:04:12</time>
      </trkpt>
      <trkpt lat="43.16845" lon="0.86698">
        <ele>422.2</ele>
        <time>2013-12-22T16:04:13</time>
      </trkpt>
      <trkpt lat="43.16844" lon="0.86699">
        <ele>422.1</ele>
        <time>2013-12-22T16:04:14</time>
      </trkpt>
      <trkpt lat="43.16844" lon="0.867">
        <ele>422.1</ele>
        <time>2013-12-22T16:04:15</time>
      </trkpt>
      <trkpt lat="43.16843" lon="0.86701">
        <ele>421.5</ele>
        <time>2013-12-22T16:04:16</time>
      </trkpt>
      <trkpt lat="43.16843" lon="0.86702">
        <ele>399.6</ele>
        <time>2013-12-22T16:04:17</time>
      </trkpt>
      <trkpt lat="43.16843" lon="0.86703">
        <ele>407.8</ele>
        <time>2013-12-22T16:04:18</time>
      </trkpt>
      <trkpt lat="43.16842" lon="0.86704">
        <ele>412.4</ele>
        <time>2013-12-22T16:04:19</time>
      </trkpt>
      <trkpt lat="43.16842" lon="0.86705">
        <ele>415.2</ele>
        <time>2013-12-22T16:04:20</time>
      </trkpt>
      <trkpt lat="43.16842" lon="0.86706">
        <ele>415.9</ele>
        <time>2013-12-22T16:04:21</time>
      </trkpt>
      <trkpt lat="43.16841" lon="0.86707">
        <ele>417.4</ele>
        <time>2013-12-22T16:04:22</time>
      </trkpt>
      <trkpt lat="43.16841" lon="0.86708">
        <ele>418.8</ele>
        <time>2013-12-22T16:04:23</time>
      </trkpt>
      <trkpt lat="43.1684" lon="0.8671">
        <ele>419.9</ele>
        <time>2013-12-22T16:04:24</time>
      </trkpt>
      <trkpt lat="43.1684" lon="0.86711">
        <ele>421</ele>
        <time>2013-12-22T16:04:25</time>
      </trkpt>
      <trkpt lat="43.16839" lon="0.86712">
        <ele>420.8</ele>
        <time>2013-12-22T16:04:26</time>
      </trkpt>
      <trkpt lat="43.16839" lon="0.86713">
        <ele>421.4</ele>
        <time>2013-12-22T16:04:27</time>
      </trkpt>
      <trkpt lat="43.16839" lon="0.86714">
        <ele>421.1</ele>
        <time>2013-12-22T16:04:28</time>
      </trkpt>
      <trkpt lat="43.16839" lon="0.86715">
        <ele>421</ele>
        <time>2013-12-22T16:04:29</time>
      </trkpt>
      <trkpt lat="43.16838" lon="0.86716">
        <ele>420.9</ele>
        <time>2013-12-22T16:04:30</time>
      </trkpt>
      <trkpt lat="43.16838" lon="0.86718">
        <ele>420.7</ele>
        <time>2013-12-22T16:04:31</time>
      </trkpt>
      <trkpt lat="43.16837" lon="0.86719">
        <ele>421.4</ele>
        <time>2013-12-22T16:04:32</time>
      </trkpt>
      <trkpt lat="43.16837" lon="0.8672">
        <ele>421.7</ele>
        <time>2013-12-22T16:04:33</time>
      </trkpt>
      <trkpt lat="43.16837" lon="0.86721">
        <ele>421.6</ele>
        <time>2013-12-22T16:04:34</time>
      </trkpt>
      <trkpt lat="43.16836" lon="0.86722">
        <ele>421.6</ele>
        <time>2013-12-22T16:04:35</time>
      </trkpt>
      <trkpt lat="43.16836" lon="0.86723">
        <ele>422.7</ele>
        <time>2013-12-22T16:04:36</time>
      </trkpt>
      <trkpt lat="43.16835" lon="0.86724">
        <ele>422.4</ele>
        <time>2013-12-22T16:04:37</time>
      </trkpt>
      <trkpt lat="43.16835" lon="0.86725">
        <ele>422.5</ele>
        <time>2013-12-22T16:04:38</time>
      </trkpt>
      <trkpt lat="43.16835" lon="0.86726">
        <ele>423.2</ele>
        <time>2013-12-22T16:04:39</time>
      </trkpt>
      <trkpt lat="43.16834" lon="0.86727">
        <ele>423.6</ele>
        <time>2013-12-22T16:04:40</time>
      </trkpt>
      <trkpt lat="43.16834" lon="0.86728">
        <ele>423.9</ele>
        <time>2013-12-22T16:04:41</time>
      </trkpt>
      <trkpt lat="43.16834" lon="0.8673">
        <ele>424.4</ele>
        <time>2013-12-22T16:04:42</time>
      </trkpt>
      <trkpt lat="43.16833" lon="0.86731">
        <ele>424.8</ele>
        <time>2013-12-22T16:04:43</time>
      </trkpt>
      <trkpt lat="43.16832" lon="0.86732">
        <ele>424.5</ele>
        <time>2013-12-22T16:04:44</time>
      </trkpt>
      <trkpt lat="43.16832" lon="0.86733">
        <ele>424.5</ele>
        <time>2013-12-22T16:04:45</time>
      </trkpt>
      <trkpt lat="43.16832" lon="0.86734">
        <ele>424.6</ele>
        <time>2013-12-22T16:04:46</time>
      </trkpt>
      <trkpt lat="43.16831" lon="0.86735">
        <ele>425.1</ele>
        <time>2013-12-22T16:04:47</time>
      </trkpt>
      <trkpt lat="43.16831" lon="0.86736">
        <ele>424.9</ele>
        <time>2013-12-22T16:04:48</time>
      </trkpt>
      <trkpt lat="43.1683" lon="0.86737">
        <ele>424.4</ele>
        <time>2013-12-22T16:04:49</time>
      </trkpt>
      <trkpt lat="43.1683" lon="0.86738">
        <ele>424.7</ele>
        <time>2013-12-22T16:04:50</time>
      </trkpt>
      <trkpt lat="43.1683" lon="0.86739">
        <ele>424.2</ele>
        <time>2013-12-22T16:04:51</time>
      </trkpt>
      <trkpt lat="43.1683" lon="0.86741">
        <ele>424.4</ele>
        <time>2013-12-22T16:04:52</time>
      </trkpt>
      <trkpt lat="43.1683" lon="0.86742">
        <ele>422.2</ele>
        <time>2013-12-22T16:04:53</time>
      </trkpt>
      <trkpt lat="43.1683" lon="0.86743">
        <ele>422</ele>
        <time>2013-12-22T16:04:54</time>
      </trkpt>
      <trkpt lat="43.1683" lon="0.86744">
        <ele>422.1</ele>
        <time>2013-12-22T16:04:55</time>
      </trkpt>
      <trkpt lat="43.16829" lon="0.86745">
        <ele>421.6</ele>
        <time>2013-12-22T16:04:56</time>
      </trkpt>
      <trkpt lat="43.16829" lon="0.86746">
        <ele>421.6</ele>
        <time>2013-12-22T16:04:57</time>
      </trkpt>
      <trkpt lat="43.16829" lon="0.86747">
        <ele>421.3</ele>
        <time>2013-12-22T16:04:58</time>
      </trkpt>
      <trkpt lat="43.16828" lon="0.86748">
        <ele>421</ele>
        <time>2013-12-22T16:04:59</time>
      </trkpt>
      <trkpt lat="43.16828" lon="0.86749">
        <ele>421.2</ele>
        <time>2013-12-22T16:05:00</time>
      </trkpt>
      <trkpt lat="43.16827" lon="0.8675">
        <ele>422</ele>
        <time>2013-12-22T16:05:01</time>
      </trkpt>
      <trkpt lat="43.16827" lon="0.86751">
        <ele>423.3</ele>
        <time>2013-12-22T16:05:02</time>
      </trkpt>
      <trkpt lat="43.16826" lon="0.86752">
        <ele>423.7</ele>
        <time>2013-12-22T16:05:03</time>
      </trkpt>
      <trkpt lat="43.16826" lon="0.86752">
        <ele>423</ele>
        <time>2013-12-22T16:05:04</time>
      </trkpt>
      <trkpt lat="43.16825" lon="0.86753">
        <ele>423.2</ele>
        <time>2013-12-22T16:05:05</time>
      </trkpt>
      <trkpt lat="43.16824" lon="0.86754">
        <ele>423.3</ele>
        <time>2013-12-22T16:05:06</time>
      </trkpt>
      <trkpt lat="43.16824" lon="0.86755">
        <ele>423.6</ele>
        <time>2013-12-22T16:05:07</time>
      </trkpt>
      <trkpt lat="43.16823" lon="0.86756">
        <ele>423.8</ele>
        <time>2013-12-22T16:05:08</time>
      </trkpt>
      <trkpt lat="43.16823" lon="0.86757">
        <ele>424.6</ele>
        <time>2013-12-22T16:05:09</time>
      </trkpt>
      <trkpt lat="43.16822" lon="0.86758">
        <ele>424.5</ele>
        <time>2013-12-22T16:05:10</time>
      </trkpt>
      <trkpt lat="43.16822" lon="0.86758">
        <ele>424.5</ele>
        <time>2013-12-22T16:05:11</time>
      </trkpt>
      <trkpt lat="43.16821" lon="0.86759">
        <ele>424.9</ele>
        <time>2013-12-22T16:05:12</time>
      </trkpt>
      <trkpt lat="43.16821" lon="0.8676">
        <ele>425.3</ele>
        <time>2013-12-22T16:05:13</time>
      </trkpt>
      <trkpt lat="43.1682" lon="0.86761">
        <ele>425.9</ele>
        <time>2013-12-22T16:05:14</time>
      </trkpt>
      <trkpt lat="43.16819" lon="0.86762">
        <ele>426</ele>
        <time>2013-12-22T16:05:15</time>
      </trkpt>
      <trkpt lat="43.16819" lon="0.86763">
        <ele>426.5</ele>
        <time>2013-12-22T16:05:16</time>
      </trkpt>
      <trkpt lat="43.16818" lon="0.86764">
        <ele>426.4</ele>
        <time>2013-12-22T16:05:17</time>
      </trkpt>
      <trkpt lat="43.16818" lon="0.86765">
        <ele>427.1</ele>
        <time>2013-12-22T16:05:18</time>
      </trkpt>
      <trkpt lat="43.16816" lon="0.86766">
        <ele>427.5</ele>
        <time>2013-12-22T16:05:19</time>
      </trkpt>
      <trkpt lat="43.16816" lon="0.86767">
        <ele>427.2</ele>
        <time>2013-12-22T16:05:20</time>
      </trkpt>
      <trkpt lat="43.16815" lon="0.86768">
        <ele>427</ele>
        <time>2013-12-22T16:05:21</time>
      </trkpt>
      <trkpt lat="43.16814" lon="0.86769">
        <ele>427</ele>
        <time>2013-12-22T16:05:22</time>
      </trkpt>
      <trkpt lat="43.16814" lon="0.8677">
        <ele>427.2</ele>
        <time>2013-12-22T16:05:23</time>
      </trkpt>
      <trkpt lat="43.16813" lon="0.86771">
        <ele>427.1</ele>
        <time>2013-12-22T16:05:24</time>
      </trkpt>
      <trkpt lat="43.16813" lon="0.86772">
        <ele>427.5</ele>
        <time>2013-12-22T16:05:25</time>
      </trkpt>
      <trkpt lat="43.16812" lon="0.86773">
        <ele>427.4</ele>
        <time>2013-12-22T16:05:26</time>
      </trkpt>
      <trkpt lat="43.16811" lon="0.86774">
        <ele>427.4</ele>
        <time>2013-12-22T16:05:27</time>
      </trkpt>
      <trkpt lat="43.16811" lon="0.86775">
        <ele>427.6</ele>
        <time>2013-12-22T16:05:28</time>
      </trkpt>
      <trkpt lat="43.1681" lon="0.86776">
        <ele>428.2</ele>
        <time>2013-12-22T16:05:29</time>
      </trkpt>
      <trkpt lat="43.16809" lon="0.86777">
        <ele>428.3</ele>
        <time>2013-12-22T16:05:30</time>
      </trkpt>
      <trkpt lat="43.16808" lon="0.86778">
        <ele>428.5</ele>
        <time>2013-12-22T16:05:31</time>
      </trkpt>
      <trkpt lat="43.16808" lon="0.86779">
        <ele>428.9</ele>
        <time>2013-12-22T16:05:32</time>
      </trkpt>
      <trkpt lat="43.16807" lon="0.8678">
        <ele>429.2</ele>
        <time>2013-12-22T16:05:33</time>
      </trkpt>
      <trkpt lat="43.16806" lon="0.8678">
        <ele>429.4</ele>
        <time>2013-12-22T16:05:34</time>
      </trkpt>
      <trkpt lat="43.16806" lon="0.86781">
        <ele>429.3</ele>
        <time>2013-12-22T16:05:35</time>
      </trkpt>
      <trkpt lat="43.16805" lon="0.86781">
        <ele>429.5</ele>
        <time>2013-12-22T16:05:36</time>
      </trkpt>
      <trkpt lat="43.16805" lon="0.86782">
        <ele>429.6</ele>
        <time>2013-12-22T16:05:37</time>
      </trkpt>
      <trkpt lat="43.16804" lon="0.86783">
        <ele>429.7</ele>
        <time>2013-12-22T16:05:38</time>
      </trkpt>
      <trkpt lat="43.16803" lon="0.86784">
        <ele>429.9</ele>
        <time>2013-12-22T16:05:39</time>
      </trkpt>
      <trkpt lat="43.16803" lon="0.86785">
        <ele>430.2</ele>
        <time>2013-12-22T16:05:40</time>
      </trkpt>
      <trkpt lat="43.16802" lon="0.86786">
        <ele>430</ele>
        <time>2013-12-22T16:05:41</time>
      </trkpt>
      <trkpt lat="43.16801" lon="0.86786">
        <ele>430.3</ele>
        <time>2013-12-22T16:05:42</time>
      </trkpt>
      <trkpt lat="43.16801" lon="0.86787">
        <ele>430.2</ele>
        <time>2013-12-22T16:05:43</time>
      </trkpt>
      <trkpt lat="43.168" lon="0.86788">
        <ele>430.4</ele>
        <time>2013-12-22T16:05:44</time>
      </trkpt>
      <trkpt lat="43.168" lon="0.86789">
        <ele>430.4</ele>
        <time>2013-12-22T16:05:45</time>
      </trkpt>
      <trkpt lat="43.16799" lon="0.86789">
        <ele>430.6</ele>
        <time>2013-12-22T16:05:46</time>
      </trkpt>
      <trkpt lat="43.16798" lon="0.8679">
        <ele>430.8</ele>
        <time>2013-12-22T16:05:47</time>
      </trkpt>
      <trkpt lat="43.16798" lon="0.86791">
        <ele>430.5</ele>
        <time>2013-12-22T16:05:48</time>
      </trkpt>
      <trkpt lat="43.16797" lon="0.86792">
        <ele>431</ele>
        <time>2013-12-22T16:05:49</time>
      </trkpt>
      <trkpt lat="43.16797" lon="0.86793">
        <ele>431</ele>
        <time>2013-12-22T16:05:50</time>
      </trkpt>
      <trkpt lat="43.16797" lon="0.86794">
        <ele>431.1</ele>
        <time>2013-12-22T16:05:51</time>
      </trkpt>
      <trkpt lat="43.16796" lon="0.86795">
        <ele>430.7</ele>
        <time>2013-12-22T16:05:52</time>
      </trkpt>
      <trkpt lat="43.16795" lon="0.86796">
        <ele>430.8</ele>
        <time>2013-12-22T16:05:53</time>
      </trkpt>
      <trkpt lat="43.16795" lon="0.86796">
        <ele>431.3</ele>
        <time>2013-12-22T16:05:54</time>
      </trkpt>
      <trkpt lat="43.16794" lon="0.86797">
        <ele>431.4</ele>
        <time>2013-12-22T16:05:55</time>
      </trkpt>
      <trkpt lat="43.16794" lon="0.86798">
        <ele>431.6</ele>
        <time>2013-12-22T16:05:56</time>
      </trkpt>
      <trkpt lat="43.16793" lon="0.86799">
        <ele>431.7</ele>
        <time>2013-12-22T16:05:57</time>
      </trkpt>
      <trkpt lat="43.16793" lon="0.868">
        <ele>431.6</ele>
        <time>2013-12-22T16:05:58</time>
      </trkpt>
      <trkpt lat="43.16792" lon="0.868">
        <ele>432.3</ele>
        <time>2013-12-22T16:05:59</time>
      </trkpt>
      <trkpt lat="43.16792" lon="0.86801">
        <ele>432.1</ele>
        <time>2013-12-22T16:06:00</time>
      </trkpt>
      <trkpt lat="43.16791" lon="0.86802">
        <ele>432.6</ele>
        <time>2013-12-22T16:06:01</time>
      </trkpt>
      <trkpt lat="43.1679" lon="0.86802">
        <ele>432.4</ele>
        <time>2013-12-22T16:06:02</time>
      </trkpt>
      <trkpt lat="43.1679" lon="0.86803">
        <ele>432.4</ele>
        <time>2013-12-22T16:06:03</time>
      </trkpt>
      <trkpt lat="43.1679" lon="0.86804">
        <ele>432</ele>
        <time>2013-12-22T16:06:04</time>
      </trkpt>
      <trkpt lat="43.16789" lon="0.86805">
        <ele>432.1</ele>
        <time>2013-12-22T16:06:05</time>
      </trkpt>
      <trkpt lat="43.16789" lon="0.86805">
        <ele>432.2</ele>
        <time>2013-12-22T16:06:06</time>
      </trkpt>
      <trkpt lat="43.16788" lon="0.86806">
        <ele>432.2</ele>
        <time>2013-12-22T16:06:07</time>
      </trkpt>
      <trkpt lat="43.16787" lon="0.86807">
        <ele>432.2</ele>
        <time>2013-12-22T16:06:08</time>
      </trkpt>
      <trkpt lat="43.16787" lon="0.86807">
        <ele>432.6</ele>
        <time>2013-12-22T16:06:09</time>
      </trkpt>
      <trkpt lat="43.16786" lon="0.86808">
        <ele>432.6</ele>
        <time>2013-12-22T16:06:10</time>
      </trkpt>
      <trkpt lat="43.16786" lon="0.86809">
        <ele>432.4</ele>
        <time>2013-12-22T16:06:11</time>
      </trkpt>
      <trkpt lat="43.16785" lon="0.8681">
        <ele>432.5</ele>
        <time>2013-12-22T16:06:12</time>
      </trkpt>
      <trkpt lat="43.16785" lon="0.8681">
        <ele>431.9</ele>
        <time>2013-12-22T16:06:13</time>
      </trkpt>
      <trkpt lat="43.16784" lon="0.86811">
        <ele>431.7</ele>
        <time>2013-12-22T16:06:14</time>
      </trkpt>
      <trkpt lat="43.16784" lon="0.86812">
        <ele>431.4</ele>
        <time>2013-12-22T16:06:15</time>
      </trkpt>
      <trkpt lat="43.16783" lon="0.86813">
        <ele>431.5</ele>
        <time>2013-12-22T16:06:16</time>
      </trkpt>
      <trkpt lat="43.16783" lon="0.86813">
        <ele>431.9</ele>
        <time>2013-12-22T16:06:17</time>
      </trkpt>
      <trkpt lat="43.16782" lon="0.86814">
        <ele>432.2</ele>
        <time>2013-12-22T16:06:18</time>
      </trkpt>
      <trkpt lat="43.16782" lon="0.86815">
        <ele>431.8</ele>
        <time>2013-12-22T16:06:19</time>
      </trkpt>
      <trkpt lat="43.16782" lon="0.86816">
        <ele>431.8</ele>
        <time>2013-12-22T16:06:20</time>
      </trkpt>
      <trkpt lat="43.16781" lon="0.86817">
        <ele>431.9</ele>
        <time>2013-12-22T16:06:21</time>
      </trkpt>
      <trkpt lat="43.16781" lon="0.86817">
        <ele>431.7</ele>
        <time>2013-12-22T16:06:22</time>
      </trkpt>
      <trkpt lat="43.1678" lon="0.86818">
        <ele>431.4</ele>
        <time>2013-12-22T16:06:23</time>
      </trkpt>
      <trkpt lat="43.1678" lon="0.86819">
        <ele>431</ele>
        <time>2013-12-22T16:06:24</time>
      </trkpt>
      <trkpt lat="43.16779" lon="0.86819">
        <ele>431.1</ele>
        <time>2013-12-22T16:06:25</time>
      </trkpt>
      <trkpt lat="43.16779" lon="0.8682">
        <ele>430.8</ele>
        <time>2013-12-22T16:06:26</time>
      </trkpt>
      <trkpt lat="43.16778" lon="0.86821">
        <ele>430.6</ele>
        <time>2013-12-22T16:06:27</time>
      </trkpt>
      <trkpt lat="43.16777" lon="0.86821">
        <ele>430.6</ele>
        <time>2013-12-22T16:06:28</time>
      </trkpt>
      <trkpt lat="43.16777" lon="0.86822">
        <ele>430.7</ele>
        <time>2013-12-22T16:06:29</time>
      </trkpt>
      <trkpt lat="43.16776" lon="0.86823">
        <ele>430.4</ele>
        <time>2013-12-22T16:06:30</time>
      </trkpt>
      <trkpt lat="43.16776" lon="0.86823">
        <ele>430.3</ele>
        <time>2013-12-22T16:06:31</time>
      </trkpt>
      <trkpt lat="43.16776" lon="0.86824">
        <ele>429.9</ele>
        <time>2013-12-22T16:06:32</time>
      </trkpt>
      <trkpt lat="43.16775" lon="0.86825">
        <ele>429.6</ele>
        <time>2013-12-22T16:06:33</time>
      </trkpt>
      <trkpt lat="43.16775" lon="0.86825">
        <ele>429.9</ele>
        <time>2013-12-22T16:06:34</time>
      </trkpt>
      <trkpt lat="43.16774" lon="0.86826">
        <ele>429.5</ele>
        <time>2013-12-22T16:06:35</time>
      </trkpt>
      <trkpt lat="43.16774" lon="0.86826">
        <ele>429.7</ele>
        <time>2013-12-22T16:06:36</time>
      </trkpt>
      <trkpt lat="43.16773" lon="0.86827">
        <ele>429.7</ele>
        <time>2013-12-22T16:06:37</time>
      </trkpt>
      <trkpt lat="43.16773" lon="0.86828">
        <ele>430.3</ele>
        <time>2013-12-22T16:06:38</time>
      </trkpt>
      <trkpt lat="43.16773" lon="0.86828">
        <ele>430</ele>
        <time>2013-12-22T16:06:39</time>
      </trkpt>
      <trkpt lat="43.16772" lon="0.86829">
        <ele>430.6</ele>
        <time>2013-12-22T16:06:40</time>
      </trkpt>
      <trkpt lat="43.16772" lon="0.8683">
        <ele>431.2</ele>
        <time>2013-12-22T16:06:41</time>
      </trkpt>
      <trkpt lat="43.16771" lon="0.86831">
        <ele>431.7</ele>
        <time>2013-12-22T16:06:42</time>
      </trkpt>
      <trkpt lat="43.16771" lon="0.86832">
        <ele>432.4</ele>
        <time>2013-12-22T16:06:43</time>
      </trkpt>
      <trkpt lat="43.1677" lon="0.86833">
        <ele>433.3</ele>
        <time>2013-12-22T16:06:44</time>
      </trkpt>
      <trkpt lat="43.16769" lon="0.86833">
        <ele>433.2</ele>
        <time>2013-12-22T16:06:45</time>
      </trkpt>
      <trkpt lat="43.16769" lon="0.86834">
        <ele>433.3</ele>
        <time>2013-12-22T16:06:46</time>
      </trkpt>
      <trkpt lat="43.16769" lon="0.86835">
        <ele>433.5</ele>
        <time>2013-12-22T16:06:47</time>
      </trkpt>
      <trkpt lat="43.16768" lon="0.86836">
        <ele>434.1</ele>
        <time>2013-12-22T16:06:48</time>
      </trkpt>
      <trkpt lat="43.16768" lon="0.86837">
        <ele>434.9</ele>
        <time>2013-12-22T16:06:49</time>
      </trkpt>
      <trkpt lat="43.16767" lon="0.86838">
        <ele>435.1</ele>
        <time>2013-12-22T16:06:50</time>
      </trkpt>
      <trkpt lat="43.16766" lon="0.86838">
        <ele>435.6</ele>
        <time>2013-12-22T16:06:51</time>
      </trkpt>
      <trkpt lat="43.16766" lon="0.86839">
        <ele>435.8</ele>
        <time>2013-12-22T16:06:52</time>
      </trkpt>
      <trkpt lat="43.16765" lon="0.86839">
        <ele>436</ele>
        <time>2013-12-22T16:06:53</time>
      </trkpt>
      <trkpt lat="43.16765" lon="0.8684">
        <ele>436.3</ele>
        <time>2013-12-22T16:06:54</time>
      </trkpt>
      <trkpt lat="43.16764" lon="0.86842">
        <ele>437.5</ele>
        <time>2013-12-22T16:06:57</time>
      </trkpt>
      <trkpt lat="43.16763" lon="0.86843">
        <ele>437.8</ele>
        <time>2013-12-22T16:06:58</time>
      </trkpt>
      <trkpt lat="43.16763" lon="0.86844">
        <ele>437.5</ele>
        <time>2013-12-22T16:06:59</time>
      </trkpt>
      <trkpt lat="43.16762" lon="0.86844">
        <ele>436.8</ele>
        <time>2013-12-22T16:07:00</time>
      </trkpt>
      <trkpt lat="43.16761" lon="0.86845">
        <ele>421.8</ele>
        <time>2013-12-22T16:07:01</time>
      </trkpt>
      <trkpt lat="43.16761" lon="0.86846">
        <ele>427.6</ele>
        <time>2013-12-22T16:07:02</time>
      </trkpt>
      <trkpt lat="43.1676" lon="0.86846">
        <ele>429</ele>
        <time>2013-12-22T16:07:03</time>
      </trkpt>
      <trkpt lat="43.1676" lon="0.86847">
        <ele>428.2</ele>
        <time>2013-12-22T16:07:04</time>
      </trkpt>
      <trkpt lat="43.16759" lon="0.86847">
        <ele>445.4</ele>
        <time>2013-12-22T16:07:05</time>
      </trkpt>
      <trkpt lat="43.16758" lon="0.86847">
        <ele>441.4</ele>
        <time>2013-12-22T16:07:06</time>
      </trkpt>
      <trkpt lat="43.16758" lon="0.86848">
        <ele>439.1</ele>
        <time>2013-12-22T16:07:07</time>
      </trkpt>
      <trkpt lat="43.16758" lon="0.86849">
        <ele>438.3</ele>
        <time>2013-12-22T16:07:08</time>
      </trkpt>
      <trkpt lat="43.16757" lon="0.8685">
        <ele>438.1</ele>
        <time>2013-12-22T16:07:09</time>
      </trkpt>
      <trkpt lat="43.16756" lon="0.8685">
        <ele>437.8</ele>
        <time>2013-12-22T16:07:10</time>
      </trkpt>
      <trkpt lat="43.16755" lon="0.86853">
        <ele>437</ele>
        <time>2013-12-22T16:07:14</time>
      </trkpt>
      <trkpt lat="43.16755" lon="0.86854">
        <ele>437.5</ele>
        <time>2013-12-22T16:07:15</time>
      </trkpt>
      <trkpt lat="43.16754" lon="0.86854">
        <ele>437.5</ele>
        <time>2013-12-22T16:07:16</time>
      </trkpt>
      <trkpt lat="43.16753" lon="0.86855">
        <ele>436.4</ele>
        <time>2013-12-22T16:07:17</time>
      </trkpt>
      <trkpt lat="43.16753" lon="0.86855">
        <ele>435.2</ele>
        <time>2013-12-22T16:07:18</time>
      </trkpt>
      <trkpt lat="43.16752" lon="0.86856">
        <ele>436.2</ele>
        <time>2013-12-22T16:07:19</time>
      </trkpt>
      <trkpt lat="43.16752" lon="0.86857">
        <ele>436.2</ele>
        <time>2013-12-22T16:07:20</time>
      </trkpt>
      <trkpt lat="43.16751" lon="0.86857">
        <ele>437</ele>
        <time>2013-12-22T16:07:21</time>
      </trkpt>
      <trkpt lat="43.1675" lon="0.86858">
        <ele>438.5</ele>
        <time>2013-12-22T16:07:22</time>
      </trkpt>
      <trkpt lat="43.1675" lon="0.86859">
        <ele>437.9</ele>
        <time>2013-12-22T16:07:23</time>
      </trkpt>
      <trkpt lat="43.16749" lon="0.8686">
        <ele>438.3</ele>
        <time>2013-12-22T16:07:24</time>
      </trkpt>
      <trkpt lat="43.16749" lon="0.86861">
        <ele>437.9</ele>
        <time>2013-12-22T16:07:25</time>
      </trkpt>
      <trkpt lat="43.16748" lon="0.86862">
        <ele>438</ele>
        <time>2013-12-22T16:07:26</time>
      </trkpt>
      <trkpt lat="43.16748" lon="0.86862">
        <ele>438</ele>
        <time>2013-12-22T16:07:27</time>
      </trkpt>
      <trkpt lat="43.16747" lon="0.86862">
        <ele>437.6</ele>
        <time>2013-12-22T16:07:28</time>
      </trkpt>
      <trkpt lat="43.16747" lon="0.86863">
        <ele>437.3</ele>
        <time>2013-12-22T16:07:29</time>
      </trkpt>
      <trkpt lat="43.16747" lon="0.86863">
        <ele>436</ele>
        <time>2013-12-22T16:07:30</time>
      </trkpt>
      <trkpt lat="43.16746" lon="0.86863">
        <ele>435.5</ele>
        <time>2013-12-22T16:07:31</time>
      </trkpt>
      <trkpt lat="43.16745" lon="0.86864">
        <ele>436.3</ele>
        <time>2013-12-22T16:07:32</time>
      </trkpt>
      <trkpt lat="43.16745" lon="0.86864">
        <ele>436.1</ele>
        <time>2013-12-22T16:07:33</time>
      </trkpt>
      <trkpt lat="43.16744" lon="0.86865">
        <ele>436.8</ele>
        <time>2013-12-22T16:07:34</time>
      </trkpt>
      <trkpt lat="43.16744" lon="0.86865">
        <ele>436.4</ele>
        <time>2013-12-22T16:07:35</time>
      </trkpt>
      <trkpt lat="43.16743" lon="0.86866">
        <ele>435.2</ele>
        <time>2013-12-22T16:07:36</time>
      </trkpt>
      <trkpt lat="43.16743" lon="0.86866">
        <ele>434.3</ele>
        <time>2013-12-22T16:07:37</time>
      </trkpt>
      <trkpt lat="43.16742" lon="0.86867">
        <ele>433.6</ele>
        <time>2013-12-22T16:07:38</time>
      </trkpt>
      <trkpt lat="43.16742" lon="0.86867">
        <ele>433.1</ele>
        <time>2013-12-22T16:07:39</time>
      </trkpt>
      <trkpt lat="43.16741" lon="0.86867">
        <ele>433.5</ele>
        <time>2013-12-22T16:07:40</time>
      </trkpt>
      <trkpt lat="43.1674" lon="0.86868">
        <ele>433.7</ele>
        <time>2013-12-22T16:07:41</time>
      </trkpt>
      <trkpt lat="43.1674" lon="0.86868">
        <ele>433.7</ele>
        <time>2013-12-22T16:07:42</time>
      </trkpt>
      <trkpt lat="43.16739" lon="0.86868">
        <ele>433.5</ele>
        <time>2013-12-22T16:07:43</time>
      </trkpt>
      <trkpt lat="43.16738" lon="0.86869">
        <ele>434.5</ele>
        <time>2013-12-22T16:07:44</time>
      </trkpt>
      <trkpt lat="43.16737" lon="0.86869">
        <ele>434.5</ele>
        <time>2013-12-22T16:07:45</time>
      </trkpt>
      <trkpt lat="43.16736" lon="0.8687">
        <ele>434</ele>
        <time>2013-12-22T16:07:46</time>
      </trkpt>
      <trkpt lat="43.16736" lon="0.8687">
        <ele>433.7</ele>
        <time>2013-12-22T16:07:47</time>
      </trkpt>
      <trkpt lat="43.16735" lon="0.8687">
        <ele>433.5</ele>
        <time>2013-12-22T16:07:48</time>
      </trkpt>
      <trkpt lat="43.16734" lon="0.86871">
        <ele>433.1</ele>
        <time>2013-12-22T16:07:49</time>
      </trkpt>
      <trkpt lat="43.16734" lon="0.86871">
        <ele>431.7</ele>
        <time>2013-12-22T16:07:50</time>
      </trkpt>
      <trkpt lat="43.16733" lon="0.86871">
        <ele>431.6</ele>
        <time>2013-12-22T16:07:51</time>
      </trkpt>
      <trkpt lat="43.16732" lon="0.86871">
        <ele>431.7</ele>
        <time>2013-12-22T16:07:52</time>
      </trkpt>
      <trkpt lat="43.16731" lon="0.86871">
        <ele>431.4</ele>
        <time>2013-12-22T16:07:53</time>
      </trkpt>
      <trkpt lat="43.16731" lon="0.86872">
        <ele>431.4</ele>
        <time>2013-12-22T16:07:54</time>
      </trkpt>
      <trkpt lat="43.1673" lon="0.86872">
        <ele>432.1</ele>
        <time>2013-12-22T16:07:57</time>
      </trkpt>
      <trkpt lat="43.16729" lon="0.86873">
        <ele>432</ele>
        <time>2013-12-22T16:07:58</time>
      </trkpt>
      <trkpt lat="43.16728" lon="0.86873">
        <ele>431.8</ele>
        <time>2013-12-22T16:07:59</time>
      </trkpt>
      <trkpt lat="43.16728" lon="0.86874">
        <ele>431.8</ele>
        <time>2013-12-22T16:08:00</time>
      </trkpt>
      <trkpt lat="43.16727" lon="0.86875">
        <ele>431.8</ele>
        <time>2013-12-22T16:08:01</time>
      </trkpt>
      <trkpt lat="43.16726" lon="0.86875">
        <ele>431.7</ele>
        <time>2013-12-22T16:08:02</time>
      </trkpt>
      <trkpt lat="43.16726" lon="0.86876">
        <ele>431.6</ele>
        <time>2013-12-22T16:08:03</time>
      </trkpt>
      <trkpt lat="43.16725" lon="0.86876">
        <ele>431.6</ele>
        <time>2013-12-22T16:08:04</time>
      </trkpt>
      <trkpt lat="43.16724" lon="0.86877">
        <ele>431.2</ele>
        <time>2013-12-22T16:08:05</time>
      </trkpt>
      <trkpt lat="43.16724" lon="0.86878">
        <ele>430.2</ele>
        <time>2013-12-22T16:08:06</time>
      </trkpt>
      <trkpt lat="43.16723" lon="0.86878">
        <ele>430.1</ele>
        <time>2013-12-22T16:08:07</time>
      </trkpt>
      <trkpt lat="43.16723" lon="0.86879">
        <ele>429.6</ele>
        <time>2013-12-22T16:08:08</time>
      </trkpt>
      <trkpt lat="43.16722" lon="0.8688">
        <ele>429.5</ele>
        <time>2013-12-22T16:08:09</time>
      </trkpt>
      <trkpt lat="43.16721" lon="0.86881">
        <ele>435.4</ele>
        <time>2013-12-22T16:08:10</time>
      </trkpt>
      <trkpt lat="43.16721" lon="0.86881">
        <ele>432</ele>
        <time>2013-12-22T16:08:11</time>
      </trkpt>
      <trkpt lat="43.1672" lon="0.86881">
        <ele>430.2</ele>
        <time>2013-12-22T16:08:12</time>
      </trkpt>
      <trkpt lat="43.16719" lon="0.86881">
        <ele>428.6</ele>
        <time>2013-12-22T16:08:13</time>
      </trkpt>
      <trkpt lat="43.16718" lon="0.86882">
        <ele>428</ele>
        <time>2013-12-22T16:08:14</time>
      </trkpt>
      <trkpt lat="43.16718" lon="0.86882">
        <ele>427.4</ele>
        <time>2013-12-22T16:08:15</time>
      </trkpt>
      <trkpt lat="43.16717" lon="0.86883">
        <ele>426.4</ele>
        <time>2013-12-22T16:08:16</time>
      </trkpt>
      <trkpt lat="43.16716" lon="0.86883">
        <ele>426.3</ele>
        <time>2013-12-22T16:08:17</time>
      </trkpt>
      <trkpt lat="43.16716" lon="0.86884">
        <ele>426.2</ele>
        <time>2013-12-22T16:08:18</time>
      </trkpt>
      <trkpt lat="43.16715" lon="0.86884">
        <ele>425.3</ele>
        <time>2013-12-22T16:08:19</time>
      </trkpt>
      <trkpt lat="43.16714" lon="0.86884">
        <ele>425.1</ele>
        <time>2013-12-22T16:08:20</time>
      </trkpt>
      <trkpt lat="43.16714" lon="0.86885">
        <ele>424.8</ele>
        <time>2013-12-22T16:08:21</time>
      </trkpt>
      <trkpt lat="43.16713" lon="0.86885">
        <ele>423.8</ele>
        <time>2013-12-22T16:08:22</time>
      </trkpt>
      <trkpt lat="43.16712" lon="0.86885">
        <ele>423.3</ele>
        <time>2013-12-22T16:08:23</time>
      </trkpt>
      <trkpt lat="43.16711" lon="0.86886">
        <ele>423.7</ele>
        <time>2013-12-22T16:08:24</time>
      </trkpt>
      <trkpt lat="43.16711" lon="0.86886">
        <ele>422.7</ele>
        <time>2013-12-22T16:08:25</time>
      </trkpt>
      <trkpt lat="43.1671" lon="0.86886">
        <ele>422.6</ele>
        <time>2013-12-22T16:08:26</time>
      </trkpt>
      <trkpt lat="43.1671" lon="0.86887">
        <ele>422.2</ele>
        <time>2013-12-22T16:08:27</time>
      </trkpt>
      <trkpt lat="43.16709" lon="0.86887">
        <ele>422.5</ele>
        <time>2013-12-22T16:08:28</time>
      </trkpt>
      <trkpt lat="43.16708" lon="0.86888">
        <ele>422.2</ele>
        <time>2013-12-22T16:08:29</time>
      </trkpt>
      <trkpt lat="43.16707" lon="0.86888">
        <ele>422.6</ele>
        <time>2013-12-22T16:08:30</time>
      </trkpt>
      <trkpt lat="43.16707" lon="0.86889">
        <ele>422.3</ele>
        <time>2013-12-22T16:08:31</time>
      </trkpt>
      <trkpt lat="43.16706" lon="0.86889">
        <ele>422.5</ele>
        <time>2013-12-22T16:08:32</time>
      </trkpt>
      <trkpt lat="43.16705" lon="0.8689">
        <ele>422.4</ele>
        <time>2013-12-22T16:08:33</time>
      </trkpt>
      <trkpt lat="43.16704" lon="0.8689">
        <ele>422.5</ele>
        <time>2013-12-22T16:08:34</time>
      </trkpt>
      <trkpt lat="43.16703" lon="0.8689">
        <ele>422.6</ele>
        <time>2013-12-22T16:08:35</time>
      </trkpt>
      <trkpt lat="43.16702" lon="0.86891">
        <ele>422.5</ele>
        <time>2013-12-22T16:08:36</time>
      </trkpt>
      <trkpt lat="43.16702" lon="0.86891">
        <ele>422.5</ele>
        <time>2013-12-22T16:08:37</time>
      </trkpt>
      <trkpt lat="43.16701" lon="0.86892">
        <ele>422.1</ele>
        <time>2013-12-22T16:08:38</time>
      </trkpt>
      <trkpt lat="43.167" lon="0.86892">
        <ele>422</ele>
        <time>2013-12-22T16:08:39</time>
      </trkpt>
      <trkpt lat="43.167" lon="0.86893">
        <ele>421.8</ele>
        <time>2013-12-22T16:08:40</time>
      </trkpt>
      <trkpt lat="43.16699" lon="0.86894">
        <ele>421.5</ele>
        <time>2013-12-22T16:08:41</time>
      </trkpt>
      <trkpt lat="43.16698" lon="0.86894">
        <ele>421.3</ele>
        <time>2013-12-22T16:08:42</time>
      </trkpt>
      <trkpt lat="43.16697" lon="0.86894">
        <ele>421.5</ele>
        <time>2013-12-22T16:08:43</time>
      </trkpt>
      <trkpt lat="43.16697" lon="0.86895">
        <ele>422.1</ele>
        <time>2013-12-22T16:08:44</time>
      </trkpt>
      <trkpt lat="43.16696" lon="0.86895">
        <ele>422.1</ele>
        <time>2013-12-22T16:08:45</time>
      </trkpt>
      <trkpt lat="43.16695" lon="0.86896">
        <ele>422.2</ele>
        <time>2013-12-22T16:08:46</time>
      </trkpt>
      <trkpt lat="43.16694" lon="0.86897">
        <ele>421.7</ele>
        <time>2013-12-22T16:08:47</time>
      </trkpt>
      <trkpt lat="43.16694" lon="0.86898">
        <ele>421.4</ele>
        <time>2013-12-22T16:08:48</time>
      </trkpt>
      <trkpt lat="43.16692" lon="0.86898">
        <ele>421.4</ele>
        <time>2013-12-22T16:08:49</time>
      </trkpt>
      <trkpt lat="43.16692" lon="0.86899">
        <ele>421.4</ele>
        <time>2013-12-22T16:08:50</time>
      </trkpt>
      <trkpt lat="43.16691" lon="0.86899">
        <ele>421.6</ele>
        <time>2013-12-22T16:08:51</time>
      </trkpt>
      <trkpt lat="43.1669" lon="0.869">
        <ele>421.8</ele>
        <time>2013-12-22T16:08:52</time>
      </trkpt>
      <trkpt lat="43.16689" lon="0.869">
        <ele>422.5</ele>
        <time>2013-12-22T16:08:53</time>
      </trkpt>
      <trkpt lat="43.16689" lon="0.86901">
        <ele>423.4</ele>
        <time>2013-12-22T16:08:54</time>
      </trkpt>
      <trkpt lat="43.16687" lon="0.86902">
        <ele>423.2</ele>
        <time>2013-12-22T16:08:55</time>
      </trkpt>
      <trkpt lat="43.16687" lon="0.86902">
        <ele>422.9</ele>
        <time>2013-12-22T16:08:56</time>
      </trkpt>
      <trkpt lat="43.16686" lon="0.86903">
        <ele>423</ele>
        <time>2013-12-22T16:08:57</time>
      </trkpt>
      <trkpt lat="43.16685" lon="0.86904">
        <ele>422.1</ele>
        <time>2013-12-22T16:08:58</time>
      </trkpt>
      <trkpt lat="43.16684" lon="0.86905">
        <ele>421.2</ele>
        <time>2013-12-22T16:09:00</time>
      </trkpt>
      <trkpt lat="43.16684" lon="0.86905">
        <ele>421.5</ele>
        <time>2013-12-22T16:09:01</time>
      </trkpt>
      <trkpt lat="43.16683" lon="0.86906">
        <ele>422.6</ele>
        <time>2013-12-22T16:09:02</time>
      </trkpt>
      <trkpt lat="43.16682" lon="0.86906">
        <ele>422.5</ele>
        <time>2013-12-22T16:09:03</time>
      </trkpt>
      <trkpt lat="43.16681" lon="0.86907">
        <ele>422.2</ele>
        <time>2013-12-22T16:09:04</time>
      </trkpt>
      <trkpt lat="43.1668" lon="0.86908">
        <ele>422</ele>
        <time>2013-12-22T16:09:05</time>
      </trkpt>
      <trkpt lat="43.16679" lon="0.86909">
        <ele>421.9</ele>
        <time>2013-12-22T16:09:06</time>
      </trkpt>
      <trkpt lat="43.16679" lon="0.86909">
        <ele>422.6</ele>
        <time>2013-12-22T16:09:07</time>
      </trkpt>
      <trkpt lat="43.16678" lon="0.8691">
        <ele>422.7</ele>
        <time>2013-12-22T16:09:08</time>
      </trkpt>
      <trkpt lat="43.16677" lon="0.86911">
        <ele>422.8</ele>
        <time>2013-12-22T16:09:09</time>
      </trkpt>
      <trkpt lat="43.16677" lon="0.86912">
        <ele>422.7</ele>
        <time>2013-12-22T16:09:10</time>
      </trkpt>
      <trkpt lat="43.16676" lon="0.86912">
        <ele>421.7</ele>
        <time>2013-12-22T16:09:11</time>
      </trkpt>
      <trkpt lat="43.16675" lon="0.86913">
        <ele>422.6</ele>
        <time>2013-12-22T16:09:12</time>
      </trkpt>
      <trkpt lat="43.16674" lon="0.86914">
        <ele>422.2</ele>
        <time>2013-12-22T16:09:13</time>
      </trkpt>
      <trkpt lat="43.16673" lon="0.86914">
        <ele>424.8</ele>
        <time>2013-12-22T16:09:14</time>
      </trkpt>
      <trkpt lat="43.16672" lon="0.86916">
        <ele>426.4</ele>
        <time>2013-12-22T16:09:15</time>
      </trkpt>
      <trkpt lat="43.16671" lon="0.86917">
        <ele>426.6</ele>
        <time>2013-12-22T16:09:16</time>
      </trkpt>
      <trkpt lat="43.1667" lon="0.86918">
        <ele>426</ele>
        <time>2013-12-22T16:09:17</time>
      </trkpt>
      <trkpt lat="43.16669" lon="0.86918">
        <ele>426.1</ele>
        <time>2013-12-22T16:09:18</time>
      </trkpt>
      <trkpt lat="43.16668" lon="0.86919">
        <ele>426</ele>
        <time>2013-12-22T16:09:19</time>
      </trkpt>
      <trkpt lat="43.16668" lon="0.86919">
        <ele>426.1</ele>
        <time>2013-12-22T16:09:20</time>
      </trkpt>
      <trkpt lat="43.16667" lon="0.8692">
        <ele>426.1</ele>
        <time>2013-12-22T16:09:21</time>
      </trkpt>
      <trkpt lat="43.16666" lon="0.8692">
        <ele>426.3</ele>
        <time>2013-12-22T16:09:22</time>
      </trkpt>
      <trkpt lat="43.16665" lon="0.86921">
        <ele>426.4</ele>
        <time>2013-12-22T16:09:23</time>
      </trkpt>
      <trkpt lat="43.16665" lon="0.86922">
        <ele>428.1</ele>
        <time>2013-12-22T16:09:24</time>
      </trkpt>
      <trkpt lat="43.16664" lon="0.86922">
        <ele>428.2</ele>
        <time>2013-12-22T16:09:25</time>
      </trkpt>
      <trkpt lat="43.16663" lon="0.86923">
        <ele>428.8</ele>
        <time>2013-12-22T16:09:26</time>
      </trkpt>
      <trkpt lat="43.16662" lon="0.86924">
        <ele>429</ele>
        <time>2013-12-22T16:09:27</time>
      </trkpt>
      <trkpt lat="43.16662" lon="0.86925">
        <ele>429</ele>
        <time>2013-12-22T16:09:28</time>
      </trkpt>
      <trkpt lat="43.16661" lon="0.86926">
        <ele>429</ele>
        <time>2013-12-22T16:09:29</time>
      </trkpt>
      <trkpt lat="43.1666" lon="0.86927">
        <ele>429</ele>
        <time>2013-12-22T16:09:30</time>
      </trkpt>
      <trkpt lat="43.16659" lon="0.86928">
        <ele>429.6</ele>
        <time>2013-12-22T16:09:31</time>
      </trkpt>
      <trkpt lat="43.16658" lon="0.86928">
        <ele>429.4</ele>
        <time>2013-12-22T16:09:32</time>
      </trkpt>
      <trkpt lat="43.16658" lon="0.86929">
        <ele>429.5</ele>
        <time>2013-12-22T16:09:33</time>
      </trkpt>
      <trkpt lat="43.16657" lon="0.8693">
        <ele>429.6</ele>
        <time>2013-12-22T16:09:34</time>
      </trkpt>
      <trkpt lat="43.16656" lon="0.86931">
        <ele>430.5</ele>
        <time>2013-12-22T16:09:35</time>
      </trkpt>
      <trkpt lat="43.16655" lon="0.86931">
        <ele>430.4</ele>
        <time>2013-12-22T16:09:36</time>
      </trkpt>
      <trkpt lat="43.16655" lon="0.86932">
        <ele>430</ele>
        <time>2013-12-22T16:09:37</time>
      </trkpt>
      <trkpt lat="43.16654" lon="0.86932">
        <ele>431</ele>
        <time>2013-12-22T16:09:38</time>
      </trkpt>
      <trkpt lat="43.16653" lon="0.86933">
        <ele>431.8</ele>
        <time>2013-12-22T16:09:39</time>
      </trkpt>
      <trkpt lat="43.16652" lon="0.86934">
        <ele>431.6</ele>
        <time>2013-12-22T16:09:40</time>
      </trkpt>
      <trkpt lat="43.16652" lon="0.86935">
        <ele>431.6</ele>
        <time>2013-12-22T16:09:41</time>
      </trkpt>
      <trkpt lat="43.16651" lon="0.86936">
        <ele>432.1</ele>
        <time>2013-12-22T16:09:42</time>
      </trkpt>
      <trkpt lat="43.1665" lon="0.86937">
        <ele>432.9</ele>
        <time>2013-12-22T16:09:43</time>
      </trkpt>
      <trkpt lat="43.16649" lon="0.86937">
        <ele>431.9</ele>
        <time>2013-12-22T16:09:44</time>
      </trkpt>
      <trkpt lat="43.16648" lon="0.86938">
        <ele>432.9</ele>
        <time>2013-12-22T16:09:45</time>
      </trkpt>
      <trkpt lat="43.16647" lon="0.86939">
        <ele>432.9</ele>
        <time>2013-12-22T16:09:46</time>
      </trkpt>
      <trkpt lat="43.16647" lon="0.8694">
        <ele>433.6</ele>
        <time>2013-12-22T16:09:47</time>
      </trkpt>
      <trkpt lat="43.16646" lon="0.86941">
        <ele>434.4</ele>
        <time>2013-12-22T16:09:48</time>
      </trkpt>
      <trkpt lat="43.16645" lon="0.86942">
        <ele>435.7</ele>
        <time>2013-12-22T16:09:49</time>
      </trkpt>
      <trkpt lat="43.16644" lon="0.86943">
        <ele>435.1</ele>
        <time>2013-12-22T16:09:50</time>
      </trkpt>
      <trkpt lat="43.16643" lon="0.86944">
        <ele>436.8</ele>
        <time>2013-12-22T16:09:51</time>
      </trkpt>
      <trkpt lat="43.16642" lon="0.86945">
        <ele>436.8</ele>
        <time>2013-12-22T16:09:52</time>
      </trkpt>
      <trkpt lat="43.16641" lon="0.86946">
        <ele>436.4</ele>
        <time>2013-12-22T16:09:53</time>
      </trkpt>
      <trkpt lat="43.16641" lon="0.86947">
        <ele>436.4</ele>
        <time>2013-12-22T16:09:54</time>
      </trkpt>
      <trkpt lat="43.1664" lon="0.86948">
        <ele>435.8</ele>
        <time>2013-12-22T16:09:55</time>
      </trkpt>
      <trkpt lat="43.16639" lon="0.86949">
        <ele>436.7</ele>
        <time>2013-12-22T16:09:56</time>
      </trkpt>
      <trkpt lat="43.16638" lon="0.86949">
        <ele>435.7</ele>
        <time>2013-12-22T16:09:57</time>
      </trkpt>
      <trkpt lat="43.16637" lon="0.8695">
        <ele>435.6</ele>
        <time>2013-12-22T16:09:58</time>
      </trkpt>
      <trkpt lat="43.16636" lon="0.86951">
        <ele>435.7</ele>
        <time>2013-12-22T16:09:59</time>
      </trkpt>
      <trkpt lat="43.16636" lon="0.86951">
        <ele>436.3</ele>
        <time>2013-12-22T16:10:00</time>
      </trkpt>
      <trkpt lat="43.16635" lon="0.86952">
        <ele>436.1</ele>
        <time>2013-12-22T16:10:01</time>
      </trkpt>
      <trkpt lat="43.16634" lon="0.86953">
        <ele>435.8</ele>
        <time>2013-12-22T16:10:02</time>
      </trkpt>
      <trkpt lat="43.16634" lon="0.86954">
        <ele>435</ele>
        <time>2013-12-22T16:10:03</time>
      </trkpt>
      <trkpt lat="43.16633" lon="0.86954">
        <ele>434.8</ele>
        <time>2013-12-22T16:10:04</time>
      </trkpt>
      <trkpt lat="43.16632" lon="0.86955">
        <ele>434.3</ele>
        <time>2013-12-22T16:10:05</time>
      </trkpt>
      <trkpt lat="43.16631" lon="0.86955">
        <ele>433.3</ele>
        <time>2013-12-22T16:10:06</time>
      </trkpt>
      <trkpt lat="43.16631" lon="0.86956">
        <ele>433</ele>
        <time>2013-12-22T16:10:07</time>
      </trkpt>
      <trkpt lat="43.1663" lon="0.86957">
        <ele>432.6</ele>
        <time>2013-12-22T16:10:08</time>
      </trkpt>
      <trkpt lat="43.16629" lon="0.86957">
        <ele>432.4</ele>
        <time>2013-12-22T16:10:09</time>
      </trkpt>
      <trkpt lat="43.16629" lon="0.86958">
        <ele>432.5</ele>
        <time>2013-12-22T16:10:10</time>
      </trkpt>
      <trkpt lat="43.16628" lon="0.86959">
        <ele>432.7</ele>
        <time>2013-12-22T16:10:11</time>
      </trkpt>
      <trkpt lat="43.16627" lon="0.8696">
        <ele>432.8</ele>
        <time>2013-12-22T16:10:12</time>
      </trkpt>
      <trkpt lat="43.16626" lon="0.86961">
        <ele>434.1</ele>
        <time>2013-12-22T16:10:13</time>
      </trkpt>
      <trkpt lat="43.16626" lon="0.86962">
        <ele>434.2</ele>
        <time>2013-12-22T16:10:14</time>
      </trkpt>
      <trkpt lat="43.16625" lon="0.86963">
        <ele>434.2</ele>
        <time>2013-12-22T16:10:15</time>
      </trkpt>
      <trkpt lat="43.16625" lon="0.86964">
        <ele>433.5</ele>
        <time>2013-12-22T16:10:16</time>
      </trkpt>
      <trkpt lat="43.16624" lon="0.86964">
        <ele>434</ele>
        <time>2013-12-22T16:10:17</time>
      </trkpt>
      <trkpt lat="43.16623" lon="0.86966">
        <ele>435.3</ele>
        <time>2013-12-22T16:10:18</time>
      </trkpt>
      <trkpt lat="43.16622" lon="0.86967">
        <ele>436.1</ele>
        <time>2013-12-22T16:10:19</time>
      </trkpt>
      <trkpt lat="43.16621" lon="0.86968">
        <ele>436.6</ele>
        <time>2013-12-22T16:10:20</time>
      </trkpt>
      <trkpt lat="43.16621" lon="0.86969">
        <ele>437.1</ele>
        <time>2013-12-22T16:10:21</time>
      </trkpt>
      <trkpt lat="43.1662" lon="0.86971">
        <ele>438.4</ele>
        <time>2013-12-22T16:10:22</time>
      </trkpt>
      <trkpt lat="43.16619" lon="0.86972">
        <ele>437.9</ele>
        <time>2013-12-22T16:10:23</time>
      </trkpt>
      <trkpt lat="43.16618" lon="0.86973">
        <ele>436.4</ele>
        <time>2013-12-22T16:10:24</time>
      </trkpt>
      <trkpt lat="43.16618" lon="0.86974">
        <ele>436.7</ele>
        <time>2013-12-22T16:10:25</time>
      </trkpt>
      <trkpt lat="43.16616" lon="0.86975">
        <ele>437.4</ele>
        <time>2013-12-22T16:10:26</time>
      </trkpt>
      <trkpt lat="43.16616" lon="0.86976">
        <ele>437.8</ele>
        <time>2013-12-22T16:10:27</time>
      </trkpt>
      <trkpt lat="43.16615" lon="0.86977">
        <ele>438.6</ele>
        <time>2013-12-22T16:10:28</time>
      </trkpt>
      <trkpt lat="43.16614" lon="0.86977">
        <ele>438.2</ele>
        <time>2013-12-22T16:10:29</time>
      </trkpt>
      <trkpt lat="43.16613" lon="0.86978">
        <ele>438.3</ele>
        <time>2013-12-22T16:10:30</time>
      </trkpt>
      <trkpt lat="43.16612" lon="0.86979">
        <ele>439.7</ele>
        <time>2013-12-22T16:10:31</time>
      </trkpt>
      <trkpt lat="43.16611" lon="0.8698">
        <ele>439.9</ele>
        <time>2013-12-22T16:10:32</time>
      </trkpt>
      <trkpt lat="43.1661" lon="0.86981">
        <ele>440.1</ele>
        <time>2013-12-22T16:10:33</time>
      </trkpt>
      <trkpt lat="43.16609" lon="0.86981">
        <ele>440.3</ele>
        <time>2013-12-22T16:10:34</time>
      </trkpt>
      <trkpt lat="43.16608" lon="0.86982">
        <ele>440.3</ele>
        <time>2013-12-22T16:10:35</time>
      </trkpt>
      <trkpt lat="43.16608" lon="0.86983">
        <ele>440.6</ele>
        <time>2013-12-22T16:10:36</time>
      </trkpt>
      <trkpt lat="43.16607" lon="0.86984">
        <ele>440.8</ele>
        <time>2013-12-22T16:10:37</time>
      </trkpt>
      <trkpt lat="43.16606" lon="0.86985">
        <ele>440.8</ele>
        <time>2013-12-22T16:10:38</time>
      </trkpt>
      <trkpt lat="43.16605" lon="0.86986">
        <ele>440.3</ele>
        <time>2013-12-22T16:10:39</time>
      </trkpt>
      <trkpt lat="43.16604" lon="0.86987">
        <ele>440.8</ele>
        <time>2013-12-22T16:10:40</time>
      </trkpt>
      <trkpt lat="43.16603" lon="0.86988">
        <ele>440.6</ele>
        <time>2013-12-22T16:10:41</time>
      </trkpt>
      <trkpt lat="43.16602" lon="0.86988">
        <ele>441.1</ele>
        <time>2013-12-22T16:10:42</time>
      </trkpt>
      <trkpt lat="43.16601" lon="0.86989">
        <ele>441.3</ele>
        <time>2013-12-22T16:10:43</time>
      </trkpt>
      <trkpt lat="43.166" lon="0.8699">
        <ele>444.5</ele>
        <time>2013-12-22T16:10:44</time>
      </trkpt>
      <trkpt lat="43.16599" lon="0.86991">
        <ele>446.7</ele>
        <time>2013-12-22T16:10:45</time>
      </trkpt>
      <trkpt lat="43.16598" lon="0.86993">
        <ele>448</ele>
        <time>2013-12-22T16:10:46</time>
      </trkpt>
      <trkpt lat="43.16597" lon="0.86995">
        <ele>450</ele>
        <time>2013-12-22T16:10:47</time>
      </trkpt>
      <trkpt lat="43.16596" lon="0.86996">
        <ele>451.9</ele>
        <time>2013-12-22T16:10:48</time>
      </trkpt>
      <trkpt lat="43.16594" lon="0.86998">
        <ele>453.1</ele>
        <time>2013-12-22T16:10:49</time>
      </trkpt>
      <trkpt lat="43.16593" lon="0.87">
        <ele>454</ele>
        <time>2013-12-22T16:10:50</time>
      </trkpt>
      <trkpt lat="43.16592" lon="0.87002">
        <ele>454.1</ele>
        <time>2013-12-22T16:10:51</time>
      </trkpt>
      <trkpt lat="43.16591" lon="0.87003">
        <ele>454.2</ele>
        <time>2013-12-22T16:10:52</time>
      </trkpt>
      <trkpt lat="43.16591" lon="0.87004">
        <ele>453.8</ele>
        <time>2013-12-22T16:10:53</time>
      </trkpt>
      <trkpt lat="43.1659" lon="0.87005">
        <ele>453.6</ele>
        <time>2013-12-22T16:10:54</time>
      </trkpt>
      <trkpt lat="43.16589" lon="0.87007">
        <ele>453.4</ele>
        <time>2013-12-22T16:10:55</time>
      </trkpt>
      <trkpt lat="43.16588" lon="0.87008">
        <ele>452.9</ele>
        <time>2013-12-22T16:10:56</time>
      </trkpt>
      <trkpt lat="43.16587" lon="0.87008">
        <ele>452.8</ele>
        <time>2013-12-22T16:10:57</time>
      </trkpt>
      <trkpt lat="43.16586" lon="0.87009">
        <ele>452.9</ele>
        <time>2013-12-22T16:10:58</time>
      </trkpt>
      <trkpt lat="43.16585" lon="0.8701">
        <ele>453</ele>
        <time>2013-12-22T16:10:59</time>
      </trkpt>
      <trkpt lat="43.16584" lon="0.87011">
        <ele>452.9</ele>
        <time>2013-12-22T16:11:00</time>
      </trkpt>
      <trkpt lat="43.16584" lon="0.87012">
        <ele>453</ele>
        <time>2013-12-22T16:11:01</time>
      </trkpt>
      <trkpt lat="43.16583" lon="0.87013">
        <ele>453</ele>
        <time>2013-12-22T16:11:02</time>
      </trkpt>
      <trkpt lat="43.16582" lon="0.87014">
        <ele>453.2</ele>
        <time>2013-12-22T16:11:03</time>
      </trkpt>
      <trkpt lat="43.16581" lon="0.87014">
        <ele>451.9</ele>
        <time>2013-12-22T16:11:04</time>
      </trkpt>
      <trkpt lat="43.1658" lon="0.87015">
        <ele>451.8</ele>
        <time>2013-12-22T16:11:05</time>
      </trkpt>
      <trkpt lat="43.16579" lon="0.87015">
        <ele>452.1</ele>
        <time>2013-12-22T16:11:06</time>
      </trkpt>
      <trkpt lat="43.16578" lon="0.87016">
        <ele>452.1</ele>
        <time>2013-12-22T16:11:07</time>
      </trkpt>
      <trkpt lat="43.16577" lon="0.87016">
        <ele>452.3</ele>
        <time>2013-12-22T16:11:08</time>
      </trkpt>
      <trkpt lat="43.16576" lon="0.87017">
        <ele>452.2</ele>
        <time>2013-12-22T16:11:09</time>
      </trkpt>
      <trkpt lat="43.16575" lon="0.87018">
        <ele>452.1</ele>
        <time>2013-12-22T16:11:10</time>
      </trkpt>
      <trkpt lat="43.16575" lon="0.87019">
        <ele>452.1</ele>
        <time>2013-12-22T16:11:11</time>
      </trkpt>
      <trkpt lat="43.16574" lon="0.8702">
        <ele>452.3</ele>
        <time>2013-12-22T16:11:12</time>
      </trkpt>
      <trkpt lat="43.16573" lon="0.87021">
        <ele>451.7</ele>
        <time>2013-12-22T16:11:13</time>
      </trkpt>
      <trkpt lat="43.16572" lon="0.87022">
        <ele>451.4</ele>
        <time>2013-12-22T16:11:14</time>
      </trkpt>
      <trkpt lat="43.16571" lon="0.87022">
        <ele>451.6</ele>
        <time>2013-12-22T16:11:15</time>
      </trkpt>
      <trkpt lat="43.1657" lon="0.87024">
        <ele>453.8</ele>
        <time>2013-12-22T16:11:16</time>
      </trkpt>
      <trkpt lat="43.1657" lon="0.87025">
        <ele>453.2</ele>
        <time>2013-12-22T16:11:17</time>
      </trkpt>
      <trkpt lat="43.16569" lon="0.87027">
        <ele>454.4</ele>
        <time>2013-12-22T16:11:18</time>
      </trkpt>
      <trkpt lat="43.16569" lon="0.87028">
        <ele>455.3</ele>
        <time>2013-12-22T16:11:19</time>
      </trkpt>
      <trkpt lat="43.16568" lon="0.87029">
        <ele>456.2</ele>
        <time>2013-12-22T16:11:20</time>
      </trkpt>
      <trkpt lat="43.16567" lon="0.87031">
        <ele>458.2</ele>
        <time>2013-12-22T16:11:21</time>
      </trkpt>
      <trkpt lat="43.16565" lon="0.87032">
        <ele>459.6</ele>
        <time>2013-12-22T16:11:22</time>
      </trkpt>
      <trkpt lat="43.16564" lon="0.87034">
        <ele>460.1</ele>
        <time>2013-12-22T16:11:23</time>
      </trkpt>
      <trkpt lat="43.16563" lon="0.87035">
        <ele>460.7</ele>
        <time>2013-12-22T16:11:24</time>
      </trkpt>
      <trkpt lat="43.16562" lon="0.87036">
        <ele>460.8</ele>
        <time>2013-12-22T16:11:25</time>
      </trkpt>
      <trkpt lat="43.16561" lon="0.87038">
        <ele>461</ele>
        <time>2013-12-22T16:11:26</time>
      </trkpt>
      <trkpt lat="43.1656" lon="0.87039">
        <ele>460.9</ele>
        <time>2013-12-22T16:11:27</time>
      </trkpt>
      <trkpt lat="43.1656" lon="0.8704">
        <ele>460.9</ele>
        <time>2013-12-22T16:11:28</time>
      </trkpt>
      <trkpt lat="43.16559" lon="0.87041">
        <ele>461.2</ele>
        <time>2013-12-22T16:11:29</time>
      </trkpt>
      <trkpt lat="43.16558" lon="0.87042">
        <ele>461.1</ele>
        <time>2013-12-22T16:11:30</time>
      </trkpt>
      <trkpt lat="43.16557" lon="0.87043">
        <ele>460.8</ele>
        <time>2013-12-22T16:11:31</time>
      </trkpt>
      <trkpt lat="43.16556" lon="0.87044">
        <ele>460.7</ele>
        <time>2013-12-22T16:11:32</time>
      </trkpt>
      <trkpt lat="43.16555" lon="0.87045">
        <ele>460.9</ele>
        <time>2013-12-22T16:11:33</time>
      </trkpt>
      <trkpt lat="43.16554" lon="0.87046">
        <ele>460.7</ele>
        <time>2013-12-22T16:11:34</time>
      </trkpt>
      <trkpt lat="43.16553" lon="0.87047">
        <ele>461</ele>
        <time>2013-12-22T16:11:35</time>
      </trkpt>
      <trkpt lat="43.16552" lon="0.87048">
        <ele>461.4</ele>
        <time>2013-12-22T16:11:36</time>
      </trkpt>
      <trkpt lat="43.16551" lon="0.8705">
        <ele>461.7</ele>
        <time>2013-12-22T16:11:37</time>
      </trkpt>
      <trkpt lat="43.1655" lon="0.87051">
        <ele>461.6</ele>
        <time>2013-12-22T16:11:38</time>
      </trkpt>
      <trkpt lat="43.1655" lon="0.87052">
        <ele>461.8</ele>
        <time>2013-12-22T16:11:39</time>
      </trkpt>
      <trkpt lat="43.16549" lon="0.87053">
        <ele>462.1</ele>
        <time>2013-12-22T16:11:40</time>
      </trkpt>
      <trkpt lat="43.16548" lon="0.87054">
        <ele>463</ele>
        <time>2013-12-22T16:11:41</time>
      </trkpt>
      <trkpt lat="43.16547" lon="0.87055">
        <ele>462.7</ele>
        <time>2013-12-22T16:11:42</time>
      </trkpt>
      <trkpt lat="43.16546" lon="0.87056">
        <ele>462.1</ele>
        <time>2013-12-22T16:11:43</time>
      </trkpt>
      <trkpt lat="43.16545" lon="0.87057">
        <ele>462</ele>
        <time>2013-12-22T16:11:44</time>
      </trkpt>
      <trkpt lat="43.16544" lon="0.87058">
        <ele>462.8</ele>
        <time>2013-12-22T16:11:45</time>
      </trkpt>
      <trkpt lat="43.16543" lon="0.87059">
        <ele>463.3</ele>
        <time>2013-12-22T16:11:46</time>
      </trkpt>
      <trkpt lat="43.16542" lon="0.8706">
        <ele>463.2</ele>
        <time>2013-12-22T16:11:47</time>
      </trkpt>
      <trkpt lat="43.16541" lon="0.87061">
        <ele>463.4</ele>
        <time>2013-12-22T16:11:48</time>
      </trkpt>
      <trkpt lat="43.1654" lon="0.87062">
        <ele>463.8</ele>
        <time>2013-12-22T16:11:49</time>
      </trkpt>
      <trkpt lat="43.16539" lon="0.87063">
        <ele>463.8</ele>
        <time>2013-12-22T16:11:50</time>
      </trkpt>
      <trkpt lat="43.16539" lon="0.87064">
        <ele>463.9</ele>
        <time>2013-12-22T16:11:51</time>
      </trkpt>
      <trkpt lat="43.16538" lon="0.87065">
        <ele>463.5</ele>
        <time>2013-12-22T16:11:52</time>
      </trkpt>
      <trkpt lat="43.16536" lon="0.87065">
        <ele>463.4</ele>
        <time>2013-12-22T16:11:53</time>
      </trkpt>
      <trkpt lat="43.16536" lon="0.87065">
        <ele>463.2</ele>
        <time>2013-12-22T16:11:54</time>
      </trkpt>
      <trkpt lat="43.16534" lon="0.87065">
        <ele>463.4</ele>
        <time>2013-12-22T16:11:55</time>
      </trkpt>
      <trkpt lat="43.16534" lon="0.87065">
        <ele>463.9</ele>
        <time>2013-12-22T16:11:56</time>
      </trkpt>
      <trkpt lat="43.16533" lon="0.87066">
        <ele>463</ele>
        <time>2013-12-22T16:11:57</time>
      </trkpt>
      <trkpt lat="43.16532" lon="0.87067">
        <ele>462.7</ele>
        <time>2013-12-22T16:11:58</time>
      </trkpt>
      <trkpt lat="43.16531" lon="0.87068">
        <ele>462.5</ele>
        <time>2013-12-22T16:11:59</time>
      </trkpt>
      <trkpt lat="43.16531" lon="0.87069">
        <ele>462.6</ele>
        <time>2013-12-22T16:12:00</time>
      </trkpt>
      <trkpt lat="43.1653" lon="0.8707">
        <ele>462.5</ele>
        <time>2013-12-22T16:12:01</time>
      </trkpt>
      <trkpt lat="43.1653" lon="0.87071">
        <ele>462.4</ele>
        <time>2013-12-22T16:12:02</time>
      </trkpt>
      <trkpt lat="43.16529" lon="0.87072">
        <ele>462.7</ele>
        <time>2013-12-22T16:12:03</time>
      </trkpt>
      <trkpt lat="43.16528" lon="0.87073">
        <ele>462.7</ele>
        <time>2013-12-22T16:12:04</time>
      </trkpt>
      <trkpt lat="43.16527" lon="0.87074">
        <ele>462.6</ele>
        <time>2013-12-22T16:12:05</time>
      </trkpt>
      <trkpt lat="43.16526" lon="0.87075">
        <ele>462.7</ele>
        <time>2013-12-22T16:12:06</time>
      </trkpt>
      <trkpt lat="43.16526" lon="0.87076">
        <ele>462.8</ele>
        <time>2013-12-22T16:12:07</time>
      </trkpt>
      <trkpt lat="43.16525" lon="0.87076">
        <ele>464.3</ele>
        <time>2013-12-22T16:12:08</time>
      </trkpt>
      <trkpt lat="43.16524" lon="0.87077">
        <ele>464.4</ele>
        <time>2013-12-22T16:12:09</time>
      </trkpt>
      <trkpt lat="43.16523" lon="0.87078">
        <ele>463.5</ele>
        <time>2013-12-22T16:12:10</time>
      </trkpt>
      <trkpt lat="43.16523" lon="0.87079">
        <ele>463.7</ele>
        <time>2013-12-22T16:12:11</time>
      </trkpt>
      <trkpt lat="43.16522" lon="0.87079">
        <ele>463.4</ele>
        <time>2013-12-22T16:12:12</time>
      </trkpt>
      <trkpt lat="43.16521" lon="0.8708">
        <ele>463.7</ele>
        <time>2013-12-22T16:12:13</time>
      </trkpt>
      <trkpt lat="43.1652" lon="0.87081">
        <ele>463.8</ele>
        <time>2013-12-22T16:12:14</time>
      </trkpt>
      <trkpt lat="43.1652" lon="0.87082">
        <ele>463.7</ele>
        <time>2013-12-22T16:12:15</time>
      </trkpt>
      <trkpt lat="43.16519" lon="0.87083">
        <ele>464.6</ele>
        <time>2013-12-22T16:12:16</time>
      </trkpt>
      <trkpt lat="43.16518" lon="0.87084">
        <ele>464.9</ele>
        <time>2013-12-22T16:12:17</time>
      </trkpt>
      <trkpt lat="43.16517" lon="0.87085">
        <ele>464.4</ele>
        <time>2013-12-22T16:12:18</time>
      </trkpt>
      <trkpt lat="43.16516" lon="0.87086">
        <ele>464.5</ele>
        <time>2013-12-22T16:12:19</time>
      </trkpt>
      <trkpt lat="43.16515" lon="0.87086">
        <ele>464.3</ele>
        <time>2013-12-22T16:12:20</time>
      </trkpt>
      <trkpt lat="43.16514" lon="0.87088">
        <ele>464.1</ele>
        <time>2013-12-22T16:12:21</time>
      </trkpt>
      <trkpt lat="43.16513" lon="0.87088">
        <ele>464.1</ele>
        <time>2013-12-22T16:12:22</time>
      </trkpt>
      <trkpt lat="43.16513" lon="0.8709">
        <ele>463.8</ele>
        <time>2013-12-22T16:12:23</time>
      </trkpt>
      <trkpt lat="43.16512" lon="0.8709">
        <ele>464.1</ele>
        <time>2013-12-22T16:12:24</time>
      </trkpt>
      <trkpt lat="43.16511" lon="0.87091">
        <ele>463.9</ele>
        <time>2013-12-22T16:12:25</time>
      </trkpt>
      <trkpt lat="43.1651" lon="0.87093">
        <ele>464.1</ele>
        <time>2013-12-22T16:12:26</time>
      </trkpt>
      <trkpt lat="43.1651" lon="0.87094">
        <ele>463.8</ele>
        <time>2013-12-22T16:12:27</time>
      </trkpt>
      <trkpt lat="43.16509" lon="0.87094">
        <ele>463.9</ele>
        <time>2013-12-22T16:12:28</time>
      </trkpt>
      <trkpt lat="43.16508" lon="0.87095">
        <ele>463.6</ele>
        <time>2013-12-22T16:12:29</time>
      </trkpt>
      <trkpt lat="43.16507" lon="0.87096">
        <ele>464.2</ele>
        <time>2013-12-22T16:12:30</time>
      </trkpt>
      <trkpt lat="43.16506" lon="0.87097">
        <ele>464.2</ele>
        <time>2013-12-22T16:12:31</time>
      </trkpt>
      <trkpt lat="43.16505" lon="0.87098">
        <ele>464.6</ele>
        <time>2013-12-22T16:12:32</time>
      </trkpt>
      <trkpt lat="43.16504" lon="0.871">
        <ele>464.4</ele>
        <time>2013-12-22T16:12:33</time>
      </trkpt>
      <trkpt lat="43.16504" lon="0.87101">
        <ele>464.3</ele>
        <time>2013-12-22T16:12:34</time>
      </trkpt>
      <trkpt lat="43.16503" lon="0.87102">
        <ele>463.3</ele>
        <time>2013-12-22T16:12:35</time>
      </trkpt>
      <trkpt lat="43.16502" lon="0.87102">
        <ele>463.1</ele>
        <time>2013-12-22T16:12:36</time>
      </trkpt>
      <trkpt lat="43.16501" lon="0.87103">
        <ele>463</ele>
        <time>2013-12-22T16:12:37</time>
      </trkpt>
      <trkpt lat="43.165" lon="0.87104">
        <ele>463.7</ele>
        <time>2013-12-22T16:12:38</time>
      </trkpt>
      <trkpt lat="43.16499" lon="0.87105">
        <ele>463.3</ele>
        <time>2013-12-22T16:12:39</time>
      </trkpt>
      <trkpt lat="43.16499" lon="0.87106">
        <ele>463.6</ele>
        <time>2013-12-22T16:12:40</time>
      </trkpt>
      <trkpt lat="43.16498" lon="0.87108">
        <ele>463.7</ele>
        <time>2013-12-22T16:12:41</time>
      </trkpt>
      <trkpt lat="43.16497" lon="0.87109">
        <ele>462.8</ele>
        <time>2013-12-22T16:12:42</time>
      </trkpt>
      <trkpt lat="43.16497" lon="0.8711">
        <ele>464.3</ele>
        <time>2013-12-22T16:12:43</time>
      </trkpt>
      <trkpt lat="43.16496" lon="0.87111">
        <ele>464.3</ele>
        <time>2013-12-22T16:12:44</time>
      </trkpt>
      <trkpt lat="43.16495" lon="0.87113">
        <ele>465.3</ele>
        <time>2013-12-22T16:12:45</time>
      </trkpt>
      <trkpt lat="43.16495" lon="0.87114">
        <ele>465.8</ele>
        <time>2013-12-22T16:12:46</time>
      </trkpt>
      <trkpt lat="43.16494" lon="0.87115">
        <ele>465.6</ele>
        <time>2013-12-22T16:12:47</time>
      </trkpt>
      <trkpt lat="43.16493" lon="0.87117">
        <ele>465.8</ele>
        <time>2013-12-22T16:12:48</time>
      </trkpt>
      <trkpt lat="43.16493" lon="0.87118">
        <ele>466.2</ele>
        <time>2013-12-22T16:12:49</time>
      </trkpt>
      <trkpt lat="43.16492" lon="0.8712">
        <ele>466.3</ele>
        <time>2013-12-22T16:12:50</time>
      </trkpt>
      <trkpt lat="43.16491" lon="0.87121">
        <ele>466.5</ele>
        <time>2013-12-22T16:12:51</time>
      </trkpt>
      <trkpt lat="43.1649" lon="0.87122">
        <ele>467</ele>
        <time>2013-12-22T16:12:52</time>
      </trkpt>
      <trkpt lat="43.16489" lon="0.87124">
        <ele>467.2</ele>
        <time>2013-12-22T16:12:53</time>
      </trkpt>
      <trkpt lat="43.16489" lon="0.87125">
        <ele>467</ele>
        <time>2013-12-22T16:12:54</time>
      </trkpt>
      <trkpt lat="43.16488" lon="0.87126">
        <ele>467.8</ele>
        <time>2013-12-22T16:12:55</time>
      </trkpt>
      <trkpt lat="43.16487" lon="0.87128">
        <ele>468.4</ele>
        <time>2013-12-22T16:12:56</time>
      </trkpt>
      <trkpt lat="43.16486" lon="0.87129">
        <ele>469</ele>
        <time>2013-12-22T16:12:57</time>
      </trkpt>
      <trkpt lat="43.16486" lon="0.8713">
        <ele>468.1</ele>
        <time>2013-12-22T16:12:58</time>
      </trkpt>
      <trkpt lat="43.16485" lon="0.87132">
        <ele>468.5</ele>
        <time>2013-12-22T16:12:59</time>
      </trkpt>
      <trkpt lat="43.16484" lon="0.87133">
        <ele>468.5</ele>
        <time>2013-12-22T16:13:00</time>
      </trkpt>
      <trkpt lat="43.16483" lon="0.87134">
        <ele>468.3</ele>
        <time>2013-12-22T16:13:01</time>
      </trkpt>
      <trkpt lat="43.16482" lon="0.87134">
        <ele>467.9</ele>
        <time>2013-12-22T16:13:02</time>
      </trkpt>
      <trkpt lat="43.16481" lon="0.87135">
        <ele>467.2</ele>
        <time>2013-12-22T16:13:03</time>
      </trkpt>
      <trkpt lat="43.16481" lon="0.87136">
        <ele>467.5</ele>
        <time>2013-12-22T16:13:04</time>
      </trkpt>
      <trkpt lat="43.1648" lon="0.87138">
        <ele>467.2</ele>
        <time>2013-12-22T16:13:05</time>
      </trkpt>
      <trkpt lat="43.16479" lon="0.87139">
        <ele>466.9</ele>
        <time>2013-12-22T16:13:06</time>
      </trkpt>
      <trkpt lat="43.16479" lon="0.8714">
        <ele>466.7</ele>
        <time>2013-12-22T16:13:07</time>
      </trkpt>
      <trkpt lat="43.16478" lon="0.87141">
        <ele>466.7</ele>
        <time>2013-12-22T16:13:08</time>
      </trkpt>
      <trkpt lat="43.16478" lon="0.87143">
        <ele>466.5</ele>
        <time>2013-12-22T16:13:09</time>
      </trkpt>
      <trkpt lat="43.16477" lon="0.87144">
        <ele>466.4</ele>
        <time>2013-12-22T16:13:10</time>
      </trkpt>
      <trkpt lat="43.16476" lon="0.87145">
        <ele>466.8</ele>
        <time>2013-12-22T16:13:11</time>
      </trkpt>
      <trkpt lat="43.16476" lon="0.87147">
        <ele>467.1</ele>
        <time>2013-12-22T16:13:12</time>
      </trkpt>
      <trkpt lat="43.16475" lon="0.87148">
        <ele>467.4</ele>
        <time>2013-12-22T16:13:13</time>
      </trkpt>
      <trkpt lat="43.16474" lon="0.87149">
        <ele>467.6</ele>
        <time>2013-12-22T16:13:14</time>
      </trkpt>
      <trkpt lat="43.16473" lon="0.8715">
        <ele>468.3</ele>
        <time>2013-12-22T16:13:15</time>
      </trkpt>
      <trkpt lat="43.16473" lon="0.87151">
        <ele>467.8</ele>
        <time>2013-12-22T16:13:16</time>
      </trkpt>
      <trkpt lat="43.16472" lon="0.87153">
        <ele>468.4</ele>
        <time>2013-12-22T16:13:17</time>
      </trkpt>
      <trkpt lat="43.16472" lon="0.87154">
        <ele>468.3</ele>
        <time>2013-12-22T16:13:18</time>
      </trkpt>
      <trkpt lat="43.16471" lon="0.87155">
        <ele>468.8</ele>
        <time>2013-12-22T16:13:19</time>
      </trkpt>
      <trkpt lat="43.1647" lon="0.87157">
        <ele>467.6</ele>
        <time>2013-12-22T16:13:20</time>
      </trkpt>
      <trkpt lat="43.16469" lon="0.87158">
        <ele>467.3</ele>
        <time>2013-12-22T16:13:21</time>
      </trkpt>
      <trkpt lat="43.16469" lon="0.8716">
        <ele>467.5</ele>
        <time>2013-12-22T16:13:22</time>
      </trkpt>
      <trkpt lat="43.16468" lon="0.87161">
        <ele>467.4</ele>
        <time>2013-12-22T16:13:23</time>
      </trkpt>
      <trkpt lat="43.16468" lon="0.87162">
        <ele>466</ele>
        <time>2013-12-22T16:13:24</time>
      </trkpt>
      <trkpt lat="43.16467" lon="0.87164">
        <ele>466</ele>
        <time>2013-12-22T16:13:25</time>
      </trkpt>
      <trkpt lat="43.16467" lon="0.87165">
        <ele>465.7</ele>
        <time>2013-12-22T16:13:26</time>
      </trkpt>
      <trkpt lat="43.16466" lon="0.87166">
        <ele>465.5</ele>
        <time>2013-12-22T16:13:27</time>
      </trkpt>
      <trkpt lat="43.16465" lon="0.87167">
        <ele>465.5</ele>
        <time>2013-12-22T16:13:28</time>
      </trkpt>
      <trkpt lat="43.16465" lon="0.87169">
        <ele>465.2</ele>
        <time>2013-12-22T16:13:29</time>
      </trkpt>
      <trkpt lat="43.16464" lon="0.8717">
        <ele>465.3</ele>
        <time>2013-12-22T16:13:30</time>
      </trkpt>
      <trkpt lat="43.16464" lon="0.87171">
        <ele>464.3</ele>
        <time>2013-12-22T16:13:31</time>
      </trkpt>
      <trkpt lat="43.16463" lon="0.87172">
        <ele>464.3</ele>
        <time>2013-12-22T16:13:32</time>
      </trkpt>
      <trkpt lat="43.16462" lon="0.87173">
        <ele>464.3</ele>
        <time>2013-12-22T16:13:33</time>
      </trkpt>
      <trkpt lat="43.16462" lon="0.87174">
        <ele>464.4</ele>
        <time>2013-12-22T16:13:34</time>
      </trkpt>
      <trkpt lat="43.16461" lon="0.87175">
        <ele>463.9</ele>
        <time>2013-12-22T16:13:35</time>
      </trkpt>
      <trkpt lat="43.1646" lon="0.87176">
        <ele>463.8</ele>
        <time>2013-12-22T16:13:36</time>
      </trkpt>
      <trkpt lat="43.1646" lon="0.87177">
        <ele>463.3</ele>
        <time>2013-12-22T16:13:37</time>
      </trkpt>
      <trkpt lat="43.16459" lon="0.87178">
        <ele>463.1</ele>
        <time>2013-12-22T16:13:38</time>
      </trkpt>
      <trkpt lat="43.16459" lon="0.8718">
        <ele>464.3</ele>
        <time>2013-12-22T16:13:39</time>
      </trkpt>
      <trkpt lat="43.16458" lon="0.87181">
        <ele>464.7</ele>
        <time>2013-12-22T16:13:40</time>
      </trkpt>
      <trkpt lat="43.16457" lon="0.87182">
        <ele>463.5</ele>
        <time>2013-12-22T16:13:41</time>
      </trkpt>
      <trkpt lat="43.16457" lon="0.87184">
        <ele>464</ele>
        <time>2013-12-22T16:13:42</time>
      </trkpt>
      <trkpt lat="43.16456" lon="0.87185">
        <ele>463.9</ele>
        <time>2013-12-22T16:13:43</time>
      </trkpt>
      <trkpt lat="43.16456" lon="0.87186">
        <ele>463.9</ele>
        <time>2013-12-22T16:13:44</time>
      </trkpt>
      <trkpt lat="43.16455" lon="0.87188">
        <ele>464.1</ele>
        <time>2013-12-22T16:13:45</time>
      </trkpt>
      <trkpt lat="43.16454" lon="0.87189">
        <ele>463.7</ele>
        <time>2013-12-22T16:13:46</time>
      </trkpt>
      <trkpt lat="43.16453" lon="0.8719">
        <ele>463.7</ele>
        <time>2013-12-22T16:13:47</time>
      </trkpt>
      <trkpt lat="43.16453" lon="0.87192">
        <ele>463.6</ele>
        <time>2013-12-22T16:13:48</time>
      </trkpt>
      <trkpt lat="43.16452" lon="0.87193">
        <ele>462.9</ele>
        <time>2013-12-22T16:13:49</time>
      </trkpt>
      <trkpt lat="43.16451" lon="0.87194">
        <ele>462.8</ele>
        <time>2013-12-22T16:13:50</time>
      </trkpt>
      <trkpt lat="43.16451" lon="0.87196">
        <ele>462.6</ele>
        <time>2013-12-22T16:13:51</time>
      </trkpt>
      <trkpt lat="43.1645" lon="0.87197">
        <ele>462.7</ele>
        <time>2013-12-22T16:13:52</time>
      </trkpt>
      <trkpt lat="43.16449" lon="0.87199">
        <ele>462.6</ele>
        <time>2013-12-22T16:13:53</time>
      </trkpt>
      <trkpt lat="43.16449" lon="0.872">
        <ele>462.9</ele>
        <time>2013-12-22T16:13:54</time>
      </trkpt>
      <trkpt lat="43.16448" lon="0.87201">
        <ele>462.5</ele>
        <time>2013-12-22T16:13:55</time>
      </trkpt>
      <trkpt lat="43.16447" lon="0.87202">
        <ele>462.4</ele>
        <time>2013-12-22T16:13:56</time>
      </trkpt>
      <trkpt lat="43.16446" lon="0.87203">
        <ele>462</ele>
        <time>2013-12-22T16:13:57</time>
      </trkpt>
      <trkpt lat="43.16446" lon="0.87205">
        <ele>462</ele>
        <time>2013-12-22T16:13:58</time>
      </trkpt>
      <trkpt lat="43.16445" lon="0.87206">
        <ele>461.8</ele>
        <time>2013-12-22T16:13:59</time>
      </trkpt>
      <trkpt lat="43.16444" lon="0.87207">
        <ele>461.3</ele>
        <time>2013-12-22T16:14:00</time>
      </trkpt>
      <trkpt lat="43.16444" lon="0.87208">
        <ele>461.4</ele>
        <time>2013-12-22T16:14:01</time>
      </trkpt>
      <trkpt lat="43.16443" lon="0.8721">
        <ele>461.1</ele>
        <time>2013-12-22T16:14:02</time>
      </trkpt>
      <trkpt lat="43.16443" lon="0.87211">
        <ele>460.5</ele>
        <time>2013-12-22T16:14:03</time>
      </trkpt>
      <trkpt lat="43.16442" lon="0.87213">
        <ele>460.4</ele>
        <time>2013-12-22T16:14:04</time>
      </trkpt>
      <trkpt lat="43.16441" lon="0.87214">
        <ele>460.6</ele>
        <time>2013-12-22T16:14:05</time>
      </trkpt>
      <trkpt lat="43.1644" lon="0.87215">
        <ele>460.2</ele>
        <time>2013-12-22T16:14:06</time>
      </trkpt>
      <trkpt lat="43.1644" lon="0.87217">
        <ele>460.5</ele>
        <time>2013-12-22T16:14:07</time>
      </trkpt>
      <trkpt lat="43.16439" lon="0.87218">
        <ele>460.6</ele>
        <time>2013-12-22T16:14:08</time>
      </trkpt>
      <trkpt lat="43.16438" lon="0.87219">
        <ele>460.6</ele>
        <time>2013-12-22T16:14:09</time>
      </trkpt>
      <trkpt lat="43.16438" lon="0.87221">
        <ele>460.8</ele>
        <time>2013-12-22T16:14:10</time>
      </trkpt>
      <trkpt lat="43.16437" lon="0.87222">
        <ele>460.6</ele>
        <time>2013-12-22T16:14:11</time>
      </trkpt>
      <trkpt lat="43.16436" lon="0.87224">
        <ele>460.3</ele>
        <time>2013-12-22T16:14:12</time>
      </trkpt>
      <trkpt lat="43.16436" lon="0.87225">
        <ele>460.5</ele>
        <time>2013-12-22T16:14:13</time>
      </trkpt>
      <trkpt lat="43.16435" lon="0.87226">
        <ele>460.7</ele>
        <time>2013-12-22T16:14:14</time>
      </trkpt>
      <trkpt lat="43.16435" lon="0.87228">
        <ele>461</ele>
        <time>2013-12-22T16:14:15</time>
      </trkpt>
      <trkpt lat="43.16434" lon="0.87229">
        <ele>460.6</ele>
        <time>2013-12-22T16:14:16</time>
      </trkpt>
      <trkpt lat="43.16434" lon="0.8723">
        <ele>460.5</ele>
        <time>2013-12-22T16:14:17</time>
      </trkpt>
      <trkpt lat="43.16433" lon="0.87231">
        <ele>460.4</ele>
        <time>2013-12-22T16:14:18</time>
      </trkpt>
      <trkpt lat="43.16432" lon="0.87232">
        <ele>460.5</ele>
        <time>2013-12-22T16:14:19</time>
      </trkpt>
      <trkpt lat="43.16431" lon="0.87233">
        <ele>460.5</ele>
        <time>2013-12-22T16:14:20</time>
      </trkpt>
      <trkpt lat="43.1643" lon="0.87234">
        <ele>460.7</ele>
        <time>2013-12-22T16:14:21</time>
      </trkpt>
      <trkpt lat="43.1643" lon="0.87235">
        <ele>460.9</ele>
        <time>2013-12-22T16:14:22</time>
      </trkpt>
      <trkpt lat="43.16429" lon="0.87237">
        <ele>460.9</ele>
        <time>2013-12-22T16:14:23</time>
      </trkpt>
      <trkpt lat="43.16429" lon="0.87238">
        <ele>461.1</ele>
        <time>2013-12-22T16:14:24</time>
      </trkpt>
      <trkpt lat="43.16428" lon="0.87239">
        <ele>460.9</ele>
        <time>2013-12-22T16:14:25</time>
      </trkpt>
      <trkpt lat="43.16428" lon="0.87241">
        <ele>460.9</ele>
        <time>2013-12-22T16:14:26</time>
      </trkpt>
      <trkpt lat="43.16427" lon="0.87242">
        <ele>460.7</ele>
        <time>2013-12-22T16:14:27</time>
      </trkpt>
      <trkpt lat="43.16427" lon="0.87244">
        <ele>460.6</ele>
        <time>2013-12-22T16:14:28</time>
      </trkpt>
      <trkpt lat="43.16426" lon="0.87245">
        <ele>461</ele>
        <time>2013-12-22T16:14:29</time>
      </trkpt>
      <trkpt lat="43.16425" lon="0.87247">
        <ele>461</ele>
        <time>2013-12-22T16:14:30</time>
      </trkpt>
      <trkpt lat="43.16425" lon="0.87248">
        <ele>460.5</ele>
        <time>2013-12-22T16:14:31</time>
      </trkpt>
      <trkpt lat="43.16425" lon="0.8725">
        <ele>460.5</ele>
        <time>2013-12-22T16:14:32</time>
      </trkpt>
      <trkpt lat="43.16425" lon="0.87252">
        <ele>460.5</ele>
        <time>2013-12-22T16:14:33</time>
      </trkpt>
      <trkpt lat="43.16425" lon="0.87253">
        <ele>460.4</ele>
        <time>2013-12-22T16:14:34</time>
      </trkpt>
      <trkpt lat="43.16425" lon="0.87255">
        <ele>460.2</ele>
        <time>2013-12-22T16:14:35</time>
      </trkpt>
      <trkpt lat="43.16425" lon="0.87256">
        <ele>460</ele>
        <time>2013-12-22T16:14:36</time>
      </trkpt>
      <trkpt lat="43.16424" lon="0.87258">
        <ele>459.9</ele>
        <time>2013-12-22T16:14:37</time>
      </trkpt>
      <trkpt lat="43.16424" lon="0.87259">
        <ele>460</ele>
        <time>2013-12-22T16:14:38</time>
      </trkpt>
      <trkpt lat="43.16424" lon="0.87261">
        <ele>460</ele>
        <time>2013-12-22T16:14:39</time>
      </trkpt>
      <trkpt lat="43.16423" lon="0.87262">
        <ele>460</ele>
        <time>2013-12-22T16:14:40</time>
      </trkpt>
      <trkpt lat="43.16423" lon="0.87263">
        <ele>459.9</ele>
        <time>2013-12-22T16:14:41</time>
      </trkpt>
      <trkpt lat="43.16423" lon="0.87265">
        <ele>459.5</ele>
        <time>2013-12-22T16:14:42</time>
      </trkpt>
      <trkpt lat="43.16423" lon="0.87266">
        <ele>459.4</ele>
        <time>2013-12-22T16:14:43</time>
      </trkpt>
      <trkpt lat="43.16422" lon="0.87268">
        <ele>459.4</ele>
        <time>2013-12-22T16:14:44</time>
      </trkpt>
      <trkpt lat="43.16422" lon="0.87269">
        <ele>459.4</ele>
        <time>2013-12-22T16:14:45</time>
      </trkpt>
      <trkpt lat="43.16422" lon="0.87271">
        <ele>459.3</ele>
        <time>2013-12-22T16:14:46</time>
      </trkpt>
      <trkpt lat="43.16422" lon="0.87272">
        <ele>459</ele>
        <time>2013-12-22T16:14:47</time>
      </trkpt>
      <trkpt lat="43.16422" lon="0.87274">
        <ele>459</ele>
        <time>2013-12-22T16:14:48</time>
      </trkpt>
      <trkpt lat="43.16422" lon="0.87275">
        <ele>458.8</ele>
        <time>2013-12-22T16:14:49</time>
      </trkpt>
      <trkpt lat="43.16421" lon="0.87277">
        <ele>458.6</ele>
        <time>2013-12-22T16:14:50</time>
      </trkpt>
      <trkpt lat="43.16421" lon="0.87278">
        <ele>458.4</ele>
        <time>2013-12-22T16:14:51</time>
      </trkpt>
      <trkpt lat="43.16421" lon="0.8728">
        <ele>458.3</ele>
        <time>2013-12-22T16:14:52</time>
      </trkpt>
      <trkpt lat="43.1642" lon="0.87281">
        <ele>458.2</ele>
        <time>2013-12-22T16:14:53</time>
      </trkpt>
      <trkpt lat="43.1642" lon="0.87282">
        <ele>458.1</ele>
        <time>2013-12-22T16:14:54</time>
      </trkpt>
      <trkpt lat="43.1642" lon="0.87284">
        <ele>457.9</ele>
        <time>2013-12-22T16:14:55</time>
      </trkpt>
      <trkpt lat="43.16419" lon="0.87285">
        <ele>457.8</ele>
        <time>2013-12-22T16:14:56</time>
      </trkpt>
      <trkpt lat="43.16419" lon="0.87287">
        <ele>457.9</ele>
        <time>2013-12-22T16:14:57</time>
      </trkpt>
      <trkpt lat="43.16419" lon="0.87288">
        <ele>457.8</ele>
        <time>2013-12-22T16:14:58</time>
      </trkpt>
      <trkpt lat="43.16418" lon="0.8729">
        <ele>457.7</ele>
        <time>2013-12-22T16:14:59</time>
      </trkpt>
      <trkpt lat="43.16418" lon="0.87291">
        <ele>457.8</ele>
        <time>2013-12-22T16:15:00</time>
      </trkpt>
      <trkpt lat="43.16417" lon="0.87292">
        <ele>457.7</ele>
        <time>2013-12-22T16:15:01</time>
      </trkpt>
      <trkpt lat="43.16417" lon="0.87294">
        <ele>457.6</ele>
        <time>2013-12-22T16:15:02</time>
      </trkpt>
      <trkpt lat="43.16417" lon="0.87295">
        <ele>457.7</ele>
        <time>2013-12-22T16:15:03</time>
      </trkpt>
      <trkpt lat="43.16417" lon="0.87297">
        <ele>457.9</ele>
        <time>2013-12-22T16:15:04</time>
      </trkpt>
      <trkpt lat="43.16417" lon="0.87298">
        <ele>457.7</ele>
        <time>2013-12-22T16:15:05</time>
      </trkpt>
      <trkpt lat="43.16416" lon="0.87299">
        <ele>457.7</ele>
        <time>2013-12-22T16:15:06</time>
      </trkpt>
      <trkpt lat="43.16416" lon="0.87301">
        <ele>453.9</ele>
        <time>2013-12-22T16:15:07</time>
      </trkpt>
      <trkpt lat="43.16415" lon="0.87302">
        <ele>454.8</ele>
        <time>2013-12-22T16:15:08</time>
      </trkpt>
      <trkpt lat="43.16415" lon="0.87304">
        <ele>455.3</ele>
        <time>2013-12-22T16:15:09</time>
      </trkpt>
      <trkpt lat="43.16415" lon="0.87305">
        <ele>455.2</ele>
        <time>2013-12-22T16:15:10</time>
      </trkpt>
      <trkpt lat="43.16415" lon="0.87307">
        <ele>455.9</ele>
        <time>2013-12-22T16:15:11</time>
      </trkpt>
      <trkpt lat="43.16415" lon="0.87308">
        <ele>455.9</ele>
        <time>2013-12-22T16:15:12</time>
      </trkpt>
      <trkpt lat="43.16414" lon="0.87309">
        <ele>455.8</ele>
        <time>2013-12-22T16:15:13</time>
      </trkpt>
      <trkpt lat="43.16414" lon="0.87311">
        <ele>456.3</ele>
        <time>2013-12-22T16:15:14</time>
      </trkpt>
      <trkpt lat="43.16414" lon="0.87312">
        <ele>456.4</ele>
        <time>2013-12-22T16:15:15</time>
      </trkpt>
      <trkpt lat="43.16414" lon="0.87313">
        <ele>456.3</ele>
        <time>2013-12-22T16:15:16</time>
      </trkpt>
      <trkpt lat="43.16413" lon="0.87315">
        <ele>456.4</ele>
        <time>2013-12-22T16:15:17</time>
      </trkpt>
      <trkpt lat="43.16413" lon="0.87316">
        <ele>456.3</ele>
        <time>2013-12-22T16:15:18</time>
      </trkpt>
      <trkpt lat="43.16412" lon="0.87318">
        <ele>456.3</ele>
        <time>2013-12-22T16:15:19</time>
      </trkpt>
      <trkpt lat="43.16412" lon="0.87319">
        <ele>456.1</ele>
        <time>2013-12-22T16:15:20</time>
      </trkpt>
      <trkpt lat="43.16412" lon="0.8732">
        <ele>456.2</ele>
        <time>2013-12-22T16:15:21</time>
      </trkpt>
      <trkpt lat="43.16412" lon="0.87322">
        <ele>456.1</ele>
        <time>2013-12-22T16:15:22</time>
      </trkpt>
      <trkpt lat="43.16412" lon="0.87323">
        <ele>456.1</ele>
        <time>2013-12-22T16:15:23</time>
      </trkpt>
      <trkpt lat="43.16411" lon="0.87325">
        <ele>456</ele>
        <time>2013-12-22T16:15:24</time>
      </trkpt>
      <trkpt lat="43.16411" lon="0.87326">
        <ele>456.1</ele>
        <time>2013-12-22T16:15:25</time>
      </trkpt>
      <trkpt lat="43.16411" lon="0.87327">
        <ele>455.9</ele>
        <time>2013-12-22T16:15:26</time>
      </trkpt>
      <trkpt lat="43.1641" lon="0.87329">
        <ele>455.8</ele>
        <time>2013-12-22T16:15:27</time>
      </trkpt>
      <trkpt lat="43.1641" lon="0.8733">
        <ele>455.9</ele>
        <time>2013-12-22T16:15:28</time>
      </trkpt>
      <trkpt lat="43.1641" lon="0.87332">
        <ele>456</ele>
        <time>2013-12-22T16:15:29</time>
      </trkpt>
      <trkpt lat="43.1641" lon="0.87333">
        <ele>456</ele>
        <time>2013-12-22T16:15:30</time>
      </trkpt>
      <trkpt lat="43.1641" lon="0.87334">
        <ele>456.2</ele>
        <time>2013-12-22T16:15:31</time>
      </trkpt>
      <trkpt lat="43.16409" lon="0.87336">
        <ele>456.3</ele>
        <time>2013-12-22T16:15:32</time>
      </trkpt>
      <trkpt lat="43.16409" lon="0.87337">
        <ele>456.2</ele>
        <time>2013-12-22T16:15:33</time>
      </trkpt>
      <trkpt lat="43.16409" lon="0.87339">
        <ele>456</ele>
        <time>2013-12-22T16:15:34</time>
      </trkpt>
      <trkpt lat="43.16409" lon="0.8734">
        <ele>456</ele>
        <time>2013-12-22T16:15:35</time>
      </trkpt>
      <trkpt lat="43.16409" lon="0.87341">
        <ele>455.8</ele>
        <time>2013-12-22T16:15:36</time>
      </trkpt>
      <trkpt lat="43.16408" lon="0.87343">
        <ele>455.8</ele>
        <time>2013-12-22T16:15:37</time>
      </trkpt>
      <trkpt lat="43.16408" lon="0.87344">
        <ele>455.9</ele>
        <time>2013-12-22T16:15:38</time>
      </trkpt>
      <trkpt lat="43.16408" lon="0.87346">
        <ele>455.7</ele>
        <time>2013-12-22T16:15:39</time>
      </trkpt>
      <trkpt lat="43.16407" lon="0.87347">
        <ele>455.6</ele>
        <time>2013-12-22T16:15:40</time>
      </trkpt>
      <trkpt lat="43.16407" lon="0.87348">
        <ele>455.5</ele>
        <time>2013-12-22T16:15:41</time>
      </trkpt>
      <trkpt lat="43.16407" lon="0.8735">
        <ele>455.6</ele>
        <time>2013-12-22T16:15:42</time>
      </trkpt>
      <trkpt lat="43.16407" lon="0.87352">
        <ele>455.5</ele>
        <time>2013-12-22T16:15:43</time>
      </trkpt>
      <trkpt lat="43.16407" lon="0.87353">
        <ele>455.3</ele>
        <time>2013-12-22T16:15:44</time>
      </trkpt>
      <trkpt lat="43.16407" lon="0.87355">
        <ele>455.2</ele>
        <time>2013-12-22T16:15:45</time>
      </trkpt>
      <trkpt lat="43.16407" lon="0.87356">
        <ele>455.2</ele>
        <time>2013-12-22T16:15:46</time>
      </trkpt>
      <trkpt lat="43.16406" lon="0.87357">
        <ele>455.1</ele>
        <time>2013-12-22T16:15:47</time>
      </trkpt>
      <trkpt lat="43.16406" lon="0.87359">
        <ele>455.1</ele>
        <time>2013-12-22T16:15:48</time>
      </trkpt>
      <trkpt lat="43.16406" lon="0.8736">
        <ele>455</ele>
        <time>2013-12-22T16:15:49</time>
      </trkpt>
      <trkpt lat="43.16406" lon="0.87362">
        <ele>455</ele>
        <time>2013-12-22T16:15:50</time>
      </trkpt>
      <trkpt lat="43.16406" lon="0.87363">
        <ele>454.9</ele>
        <time>2013-12-22T16:15:51</time>
      </trkpt>
      <trkpt lat="43.16405" lon="0.87365">
        <ele>454.8</ele>
        <time>2013-12-22T16:15:52</time>
      </trkpt>
      <trkpt lat="43.16405" lon="0.87366">
        <ele>454.6</ele>
        <time>2013-12-22T16:15:53</time>
      </trkpt>
      <trkpt lat="43.16404" lon="0.87367">
        <ele>454.4</ele>
        <time>2013-12-22T16:15:54</time>
      </trkpt>
      <trkpt lat="43.16404" lon="0.87369">
        <ele>454.3</ele>
        <time>2013-12-22T16:15:55</time>
      </trkpt>
      <trkpt lat="43.16404" lon="0.8737">
        <ele>454.2</ele>
        <time>2013-12-22T16:15:56</time>
      </trkpt>
      <trkpt lat="43.16404" lon="0.87372">
        <ele>454.1</ele>
        <time>2013-12-22T16:15:57</time>
      </trkpt>
      <trkpt lat="43.16404" lon="0.87373">
        <ele>454</ele>
        <time>2013-12-22T16:15:58</time>
      </trkpt>
      <trkpt lat="43.16404" lon="0.87374">
        <ele>453.7</ele>
        <time>2013-12-22T16:15:59</time>
      </trkpt>
      <trkpt lat="43.16405" lon="0.87373">
        <ele>453.6</ele>
        <time>2013-12-22T16:16:02</time>
      </trkpt>
      <trkpt lat="43.16405" lon="0.87374">
        <ele>453.6</ele>
        <time>2013-12-22T16:16:03</time>
      </trkpt>
      <trkpt lat="43.16406" lon="0.87375">
        <ele>453.3</ele>
        <time>2013-12-22T16:16:04</time>
      </trkpt>
      <trkpt lat="43.16406" lon="0.87376">
        <ele>453.2</ele>
        <time>2013-12-22T16:16:05</time>
      </trkpt>
      <trkpt lat="43.16407" lon="0.87376">
        <ele>452.9</ele>
        <time>2013-12-22T16:16:06</time>
      </trkpt>
      <trkpt lat="43.16406" lon="0.87375">
        <ele>453.6</ele>
        <time>2013-12-22T16:17:37</time>
      </trkpt>
      <trkpt lat="43.16406" lon="0.87376">
        <ele>453.6</ele>
        <time>2013-12-22T16:17:38</time>
      </trkpt>
      <trkpt lat="43.16406" lon="0.87377">
        <ele>453.3</ele>
        <time>2013-12-22T16:17:39</time>
      </trkpt>
      <trkpt lat="43.16407" lon="0.87377">
        <ele>453.6</ele>
        <time>2013-12-22T16:17:40</time>
      </trkpt>
      <trkpt lat="43.16408" lon="0.87378">
        <ele>454.2</ele>
        <time>2013-12-22T16:17:41</time>
      </trkpt>
      <trkpt lat="43.16409" lon="0.87378">
        <ele>454.2</ele>
        <time>2013-12-22T16:17:42</time>
      </trkpt>
      <trkpt lat="43.1641" lon="0.87379">
        <ele>453.9</ele>
        <time>2013-12-22T16:17:43</time>
      </trkpt>
      <trkpt lat="43.16412" lon="0.87379">
        <ele>453.4</ele>
        <time>2013-12-22T16:17:44</time>
      </trkpt>
      <trkpt lat="43.16413" lon="0.8738">
        <ele>453</ele>
        <time>2013-12-22T16:17:45</time>
      </trkpt>
      <trkpt lat="43.16414" lon="0.8738">
        <ele>453</ele>
        <time>2013-12-22T16:17:46</time>
      </trkpt>
      <trkpt lat="43.16415" lon="0.87381">
        <ele>453.1</ele>
        <time>2013-12-22T16:17:47</time>
      </trkpt>
      <trkpt lat="43.16417" lon="0.87381">
        <ele>453</ele>
        <time>2013-12-22T16:17:48</time>
      </trkpt>
      <trkpt lat="43.16418" lon="0.87382">
        <ele>452.9</ele>
        <time>2013-12-22T16:17:49</time>
      </trkpt>
      <trkpt lat="43.16419" lon="0.87382">
        <ele>453.1</ele>
        <time>2013-12-22T16:17:50</time>
      </trkpt>
      <trkpt lat="43.1642" lon="0.87382">
        <ele>452.6</ele>
        <time>2013-12-22T16:17:51</time>
      </trkpt>
      <trkpt lat="43.16421" lon="0.87382">
        <ele>452.5</ele>
        <time>2013-12-22T16:17:52</time>
      </trkpt>
      <trkpt lat="43.16422" lon="0.87383">
        <ele>452.7</ele>
        <time>2013-12-22T16:17:53</time>
      </trkpt>
      <trkpt lat="43.16423" lon="0.87383">
        <ele>452.3</ele>
        <time>2013-12-22T16:17:54</time>
      </trkpt>
      <trkpt lat="43.16425" lon="0.87384">
        <ele>452.1</ele>
        <time>2013-12-22T16:17:55</time>
      </trkpt>
      <trkpt lat="43.16426" lon="0.87384">
        <ele>451.8</ele>
        <time>2013-12-22T16:17:56</time>
      </trkpt>
      <trkpt lat="43.16427" lon="0.87384">
        <ele>451.8</ele>
        <time>2013-12-22T16:17:57</time>
      </trkpt>
      <trkpt lat="43.16428" lon="0.87385">
        <ele>451.5</ele>
        <time>2013-12-22T16:17:58</time>
      </trkpt>
      <trkpt lat="43.16429" lon="0.87385">
        <ele>451.5</ele>
        <time>2013-12-22T16:17:59</time>
      </trkpt>
      <trkpt lat="43.1643" lon="0.87386">
        <ele>451.5</ele>
        <time>2013-12-22T16:18:00</time>
      </trkpt>
      <trkpt lat="43.16431" lon="0.87387">
        <ele>451.3</ele>
        <time>2013-12-22T16:18:01</time>
      </trkpt>
      <trkpt lat="43.16432" lon="0.87387">
        <ele>451.1</ele>
        <time>2013-12-22T16:18:02</time>
      </trkpt>
      <trkpt lat="43.16433" lon="0.87388">
        <ele>451.1</ele>
        <time>2013-12-22T16:18:03</time>
      </trkpt>
      <trkpt lat="43.16434" lon="0.87388">
        <ele>451.2</ele>
        <time>2013-12-22T16:18:04</time>
      </trkpt>
      <trkpt lat="43.16435" lon="0.87388">
        <ele>451.3</ele>
        <time>2013-12-22T16:18:05</time>
      </trkpt>
      <trkpt lat="43.16436" lon="0.87389">
        <ele>451.4</ele>
        <time>2013-12-22T16:18:06</time>
      </trkpt>
      <trkpt lat="43.16436" lon="0.87389">
        <ele>451.2</ele>
        <time>2013-12-22T16:18:07</time>
      </trkpt>
      <trkpt lat="43.16437" lon="0.87389">
        <ele>451</ele>
        <time>2013-12-22T16:18:08</time>
      </trkpt>
      <trkpt lat="43.16438" lon="0.8739">
        <ele>451.1</ele>
        <time>2013-12-22T16:18:09</time>
      </trkpt>
      <trkpt lat="43.16439" lon="0.8739">
        <ele>450.9</ele>
        <time>2013-12-22T16:18:10</time>
      </trkpt>
      <trkpt lat="43.1644" lon="0.87391">
        <ele>450.7</ele>
        <time>2013-12-22T16:18:11</time>
      </trkpt>
      <trkpt lat="43.16441" lon="0.87391">
        <ele>450.8</ele>
        <time>2013-12-22T16:18:12</time>
      </trkpt>
      <trkpt lat="43.16442" lon="0.87391">
        <ele>450.8</ele>
        <time>2013-12-22T16:18:13</time>
      </trkpt>
      <trkpt lat="43.16443" lon="0.87392">
        <ele>450.8</ele>
        <time>2013-12-22T16:18:14</time>
      </trkpt>
      <trkpt lat="43.16444" lon="0.87392">
        <ele>450.7</ele>
        <time>2013-12-22T16:18:15</time>
      </trkpt>
      <trkpt lat="43.16445" lon="0.87393">
        <ele>450.1</ele>
        <time>2013-12-22T16:18:16</time>
      </trkpt>
      <trkpt lat="43.16446" lon="0.87393">
        <ele>450.2</ele>
        <time>2013-12-22T16:18:17</time>
      </trkpt>
      <trkpt lat="43.16447" lon="0.87394">
        <ele>450</ele>
        <time>2013-12-22T16:18:18</time>
      </trkpt>
      <trkpt lat="43.16448" lon="0.87394">
        <ele>450</ele>
        <time>2013-12-22T16:18:19</time>
      </trkpt>
      <trkpt lat="43.16449" lon="0.87395">
        <ele>449.9</ele>
        <time>2013-12-22T16:18:20</time>
      </trkpt>
      <trkpt lat="43.1645" lon="0.87395">
        <ele>450.3</ele>
        <time>2013-12-22T16:18:21</time>
      </trkpt>
      <trkpt lat="43.16451" lon="0.87395">
        <ele>450.3</ele>
        <time>2013-12-22T16:18:22</time>
      </trkpt>
      <trkpt lat="43.16452" lon="0.87396">
        <ele>450.1</ele>
        <time>2013-12-22T16:18:23</time>
      </trkpt>
      <trkpt lat="43.16454" lon="0.87396">
        <ele>450.4</ele>
        <time>2013-12-22T16:18:24</time>
      </trkpt>
      <trkpt lat="43.16455" lon="0.87397">
        <ele>450.4</ele>
        <time>2013-12-22T16:18:25</time>
      </trkpt>
      <trkpt lat="43.16456" lon="0.87397">
        <ele>450.7</ele>
        <time>2013-12-22T16:18:26</time>
      </trkpt>
      <trkpt lat="43.16457" lon="0.87398">
        <ele>450.2</ele>
        <time>2013-12-22T16:18:27</time>
      </trkpt>
      <trkpt lat="43.16458" lon="0.87398">
        <ele>450.1</ele>
        <time>2013-12-22T16:18:28</time>
      </trkpt>
      <trkpt lat="43.16459" lon="0.87399">
        <ele>450.2</ele>
        <time>2013-12-22T16:18:29</time>
      </trkpt>
      <trkpt lat="43.1646" lon="0.87399">
        <ele>449.9</ele>
        <time>2013-12-22T16:18:30</time>
      </trkpt>
      <trkpt lat="43.16462" lon="0.874">
        <ele>450</ele>
        <time>2013-12-22T16:18:31</time>
      </trkpt>
      <trkpt lat="43.16463" lon="0.874">
        <ele>450.3</ele>
        <time>2013-12-22T16:18:32</time>
      </trkpt>
      <trkpt lat="43.16464" lon="0.874">
        <ele>450.5</ele>
        <time>2013-12-22T16:18:33</time>
      </trkpt>
      <trkpt lat="43.16465" lon="0.87401">
        <ele>450.5</ele>
        <time>2013-12-22T16:18:34</time>
      </trkpt>
      <trkpt lat="43.16467" lon="0.87401">
        <ele>450.6</ele>
        <time>2013-12-22T16:18:35</time>
      </trkpt>
      <trkpt lat="43.16468" lon="0.87402">
        <ele>450.7</ele>
        <time>2013-12-22T16:18:36</time>
      </trkpt>
      <trkpt lat="43.16469" lon="0.87402">
        <ele>450.8</ele>
        <time>2013-12-22T16:18:37</time>
      </trkpt>
      <trkpt lat="43.1647" lon="0.87402">
        <ele>450.6</ele>
        <time>2013-12-22T16:18:38</time>
      </trkpt>
      <trkpt lat="43.16472" lon="0.87403">
        <ele>450.6</ele>
        <time>2013-12-22T16:18:39</time>
      </trkpt>
      <trkpt lat="43.16473" lon="0.87403">
        <ele>450.5</ele>
        <time>2013-12-22T16:18:40</time>
      </trkpt>
      <trkpt lat="43.16474" lon="0.87404">
        <ele>450.4</ele>
        <time>2013-12-22T16:18:41</time>
      </trkpt>
      <trkpt lat="43.16475" lon="0.87405">
        <ele>450.2</ele>
        <time>2013-12-22T16:18:42</time>
      </trkpt>
      <trkpt lat="43.16476" lon="0.87405">
        <ele>450.6</ele>
        <time>2013-12-22T16:18:43</time>
      </trkpt>
      <trkpt lat="43.16477" lon="0.87406">
        <ele>450.6</ele>
        <time>2013-12-22T16:18:44</time>
      </trkpt>
      <trkpt lat="43.16478" lon="0.87406">
        <ele>450.6</ele>
        <time>2013-12-22T16:18:45</time>
      </trkpt>
      <trkpt lat="43.1648" lon="0.87406">
        <ele>450.6</ele>
        <time>2013-12-22T16:18:46</time>
      </trkpt>
      <trkpt lat="43.1648" lon="0.87407">
        <ele>450.5</ele>
        <time>2013-12-22T16:18:47</time>
      </trkpt>
      <trkpt lat="43.16482" lon="0.87407">
        <ele>450.3</ele>
        <time>2013-12-22T16:18:48</time>
      </trkpt>
      <trkpt lat="43.16483" lon="0.87408">
        <ele>450.3</ele>
        <time>2013-12-22T16:18:49</time>
      </trkpt>
      <trkpt lat="43.16484" lon="0.87408">
        <ele>450.3</ele>
        <time>2013-12-22T16:18:50</time>
      </trkpt>
      <trkpt lat="43.16485" lon="0.87409">
        <ele>450.6</ele>
        <time>2013-12-22T16:18:51</time>
      </trkpt>
      <trkpt lat="43.16486" lon="0.87409">
        <ele>450.6</ele>
        <time>2013-12-22T16:18:52</time>
      </trkpt>
      <trkpt lat="43.16488" lon="0.8741">
        <ele>450.8</ele>
        <time>2013-12-22T16:18:53</time>
      </trkpt>
      <trkpt lat="43.16489" lon="0.8741">
        <ele>451.1</ele>
        <time>2013-12-22T16:18:54</time>
      </trkpt>
      <trkpt lat="43.1649" lon="0.87411">
        <ele>450.9</ele>
        <time>2013-12-22T16:18:55</time>
      </trkpt>
      <trkpt lat="43.16491" lon="0.87411">
        <ele>450.6</ele>
        <time>2013-12-22T16:18:56</time>
      </trkpt>
      <trkpt lat="43.16493" lon="0.87412">
        <ele>450.6</ele>
        <time>2013-12-22T16:18:57</time>
      </trkpt>
      <trkpt lat="43.16494" lon="0.87412">
        <ele>450.7</ele>
        <time>2013-12-22T16:18:58</time>
      </trkpt>
      <trkpt lat="43.16495" lon="0.87412">
        <ele>450.6</ele>
        <time>2013-12-22T16:18:59</time>
      </trkpt>
      <trkpt lat="43.16496" lon="0.87413">
        <ele>450.6</ele>
        <time>2013-12-22T16:19:00</time>
      </trkpt>
      <trkpt lat="43.16497" lon="0.87414">
        <ele>450.9</ele>
        <time>2013-12-22T16:19:01</time>
      </trkpt>
      <trkpt lat="43.16498" lon="0.87414">
        <ele>451.1</ele>
        <time>2013-12-22T16:19:02</time>
      </trkpt>
      <trkpt lat="43.16499" lon="0.87415">
        <ele>451.1</ele>
        <time>2013-12-22T16:19:03</time>
      </trkpt>
      <trkpt lat="43.16501" lon="0.87415">
        <ele>451</ele>
        <time>2013-12-22T16:19:04</time>
      </trkpt>
      <trkpt lat="43.16502" lon="0.87416">
        <ele>451</ele>
        <time>2013-12-22T16:19:05</time>
      </trkpt>
      <trkpt lat="43.16503" lon="0.87416">
        <ele>450.8</ele>
        <time>2013-12-22T16:19:06</time>
      </trkpt>
      <trkpt lat="43.16504" lon="0.87416">
        <ele>450.9</ele>
        <time>2013-12-22T16:19:07</time>
      </trkpt>
      <trkpt lat="43.16505" lon="0.87417">
        <ele>450.8</ele>
        <time>2013-12-22T16:19:08</time>
      </trkpt>
      <trkpt lat="43.16506" lon="0.87417">
        <ele>450.5</ele>
        <time>2013-12-22T16:19:09</time>
      </trkpt>
      <trkpt lat="43.16507" lon="0.87418">
        <ele>450.6</ele>
        <time>2013-12-22T16:19:10</time>
      </trkpt>
      <trkpt lat="43.16509" lon="0.87418">
        <ele>450.7</ele>
        <time>2013-12-22T16:19:11</time>
      </trkpt>
      <trkpt lat="43.1651" lon="0.87418">
        <ele>450.4</ele>
        <time>2013-12-22T16:19:12</time>
      </trkpt>
      <trkpt lat="43.1651" lon="0.87419">
        <ele>450.3</ele>
        <time>2013-12-22T16:19:13</time>
      </trkpt>
      <trkpt lat="43.16512" lon="0.87419">
        <ele>450.2</ele>
        <time>2013-12-22T16:19:14</time>
      </trkpt>
      <trkpt lat="43.16513" lon="0.8742">
        <ele>450.4</ele>
        <time>2013-12-22T16:19:15</time>
      </trkpt>
      <trkpt lat="43.16514" lon="0.8742">
        <ele>450.5</ele>
        <time>2013-12-22T16:19:16</time>
      </trkpt>
      <trkpt lat="43.16515" lon="0.87421">
        <ele>450.7</ele>
        <time>2013-12-22T16:19:17</time>
      </trkpt>
      <trkpt lat="43.16516" lon="0.87421">
        <ele>450.6</ele>
        <time>2013-12-22T16:19:18</time>
      </trkpt>
      <trkpt lat="43.16517" lon="0.87422">
        <ele>450.3</ele>
        <time>2013-12-22T16:19:19</time>
      </trkpt>
      <trkpt lat="43.16518" lon="0.87422">
        <ele>450.5</ele>
        <time>2013-12-22T16:19:20</time>
      </trkpt>
      <trkpt lat="43.16519" lon="0.87423">
        <ele>450.2</ele>
        <time>2013-12-22T16:19:21</time>
      </trkpt>
      <trkpt lat="43.1652" lon="0.87423">
        <ele>450.5</ele>
        <time>2013-12-22T16:19:22</time>
      </trkpt>
      <trkpt lat="43.16522" lon="0.87423">
        <ele>450.5</ele>
        <time>2013-12-22T16:19:23</time>
      </trkpt>
      <trkpt lat="43.16523" lon="0.87424">
        <ele>450.5</ele>
        <time>2013-12-22T16:19:24</time>
      </trkpt>
      <trkpt lat="43.16524" lon="0.87424">
        <ele>450.6</ele>
        <time>2013-12-22T16:19:25</time>
      </trkpt>
      <trkpt lat="43.16525" lon="0.87425">
        <ele>450.5</ele>
        <time>2013-12-22T16:19:26</time>
      </trkpt>
      <trkpt lat="43.16526" lon="0.87425">
        <ele>450.7</ele>
        <time>2013-12-22T16:19:27</time>
      </trkpt>
      <trkpt lat="43.16527" lon="0.87426">
        <ele>451.3</ele>
        <time>2013-12-22T16:19:28</time>
      </trkpt>
      <trkpt lat="43.16528" lon="0.87426">
        <ele>451.3</ele>
        <time>2013-12-22T16:19:29</time>
      </trkpt>
      <trkpt lat="43.16529" lon="0.87426">
        <ele>451.2</ele>
        <time>2013-12-22T16:19:30</time>
      </trkpt>
      <trkpt lat="43.16531" lon="0.87426">
        <ele>451.4</ele>
        <time>2013-12-22T16:19:31</time>
      </trkpt>
      <trkpt lat="43.16531" lon="0.87426">
        <ele>451.5</ele>
        <time>2013-12-22T16:19:32</time>
      </trkpt>
      <trkpt lat="43.16533" lon="0.87427">
        <ele>451.6</ele>
        <time>2013-12-22T16:19:33</time>
      </trkpt>
      <trkpt lat="43.16534" lon="0.87428">
        <ele>452.2</ele>
        <time>2013-12-22T16:19:34</time>
      </trkpt>
      <trkpt lat="43.16534" lon="0.87428">
        <ele>452.2</ele>
        <time>2013-12-22T16:19:35</time>
      </trkpt>
      <trkpt lat="43.16536" lon="0.87429">
        <ele>452.2</ele>
        <time>2013-12-22T16:19:36</time>
      </trkpt>
      <trkpt lat="43.16536" lon="0.87429">
        <ele>452.2</ele>
        <time>2013-12-22T16:19:37</time>
      </trkpt>
      <trkpt lat="43.16537" lon="0.8743">
        <ele>452.1</ele>
        <time>2013-12-22T16:19:38</time>
      </trkpt>
      <trkpt lat="43.16538" lon="0.87431">
        <ele>452.5</ele>
        <time>2013-12-22T16:19:39</time>
      </trkpt>
      <trkpt lat="43.16539" lon="0.87431">
        <ele>452.4</ele>
        <time>2013-12-22T16:19:40</time>
      </trkpt>
      <trkpt lat="43.1654" lon="0.87431">
        <ele>452.6</ele>
        <time>2013-12-22T16:19:41</time>
      </trkpt>
      <trkpt lat="43.16541" lon="0.87432">
        <ele>452.5</ele>
        <time>2013-12-22T16:19:42</time>
      </trkpt>
      <trkpt lat="43.16542" lon="0.87432">
        <ele>452.7</ele>
        <time>2013-12-22T16:19:43</time>
      </trkpt>
      <trkpt lat="43.16543" lon="0.87433">
        <ele>452.9</ele>
        <time>2013-12-22T16:19:44</time>
      </trkpt>
      <trkpt lat="43.16544" lon="0.87433">
        <ele>453.2</ele>
        <time>2013-12-22T16:19:45</time>
      </trkpt>
      <trkpt lat="43.16545" lon="0.87434">
        <ele>453.3</ele>
        <time>2013-12-22T16:19:46</time>
      </trkpt>
      <trkpt lat="43.16546" lon="0.87435">
        <ele>452.9</ele>
        <time>2013-12-22T16:19:47</time>
      </trkpt>
      <trkpt lat="43.16546" lon="0.87436">
        <ele>453</ele>
        <time>2013-12-22T16:19:48</time>
      </trkpt>
      <trkpt lat="43.16547" lon="0.87436">
        <ele>453.4</ele>
        <time>2013-12-22T16:19:49</time>
      </trkpt>
      <trkpt lat="43.16548" lon="0.87437">
        <ele>453.5</ele>
        <time>2013-12-22T16:19:50</time>
      </trkpt>
      <trkpt lat="43.16549" lon="0.87437">
        <ele>453.6</ele>
        <time>2013-12-22T16:19:51</time>
      </trkpt>
      <trkpt lat="43.1655" lon="0.87438">
        <ele>453.8</ele>
        <time>2013-12-22T16:19:52</time>
      </trkpt>
      <trkpt lat="43.16551" lon="0.87438">
        <ele>453.9</ele>
        <time>2013-12-22T16:19:53</time>
      </trkpt>
      <trkpt lat="43.16552" lon="0.87439">
        <ele>453.8</ele>
        <time>2013-12-22T16:19:54</time>
      </trkpt>
      <trkpt lat="43.16553" lon="0.87439">
        <ele>453.8</ele>
        <time>2013-12-22T16:19:55</time>
      </trkpt>
      <trkpt lat="43.16554" lon="0.8744">
        <ele>453.6</ele>
        <time>2013-12-22T16:19:56</time>
      </trkpt>
      <trkpt lat="43.16555" lon="0.87441">
        <ele>453.5</ele>
        <time>2013-12-22T16:19:57</time>
      </trkpt>
      <trkpt lat="43.16555" lon="0.87441">
        <ele>453.8</ele>
        <time>2013-12-22T16:19:58</time>
      </trkpt>
      <trkpt lat="43.16557" lon="0.87442">
        <ele>453.5</ele>
        <time>2013-12-22T16:19:59</time>
      </trkpt>
      <trkpt lat="43.16557" lon="0.87442">
        <ele>453.3</ele>
        <time>2013-12-22T16:20:00</time>
      </trkpt>
      <trkpt lat="43.16559" lon="0.87443">
        <ele>453.5</ele>
        <time>2013-12-22T16:20:01</time>
      </trkpt>
      <trkpt lat="43.16559" lon="0.87443">
        <ele>453.7</ele>
        <time>2013-12-22T16:20:02</time>
      </trkpt>
      <trkpt lat="43.1656" lon="0.87444">
        <ele>453.7</ele>
        <time>2013-12-22T16:20:03</time>
      </trkpt>
      <trkpt lat="43.16561" lon="0.87445">
        <ele>453.9</ele>
        <time>2013-12-22T16:20:04</time>
      </trkpt>
      <trkpt lat="43.16562" lon="0.87446">
        <ele>454.1</ele>
        <time>2013-12-22T16:20:05</time>
      </trkpt>
      <trkpt lat="43.16563" lon="0.87447">
        <ele>454</ele>
        <time>2013-12-22T16:20:06</time>
      </trkpt>
      <trkpt lat="43.16564" lon="0.87448">
        <ele>454</ele>
        <time>2013-12-22T16:20:07</time>
      </trkpt>
      <trkpt lat="43.16565" lon="0.87448">
        <ele>454</ele>
        <time>2013-12-22T16:20:08</time>
      </trkpt>
      <trkpt lat="43.16566" lon="0.87449">
        <ele>453.9</ele>
        <time>2013-12-22T16:20:09</time>
      </trkpt>
      <trkpt lat="43.16567" lon="0.8745">
        <ele>453.9</ele>
        <time>2013-12-22T16:20:10</time>
      </trkpt>
      <trkpt lat="43.16567" lon="0.87451">
        <ele>453.6</ele>
        <time>2013-12-22T16:20:11</time>
      </trkpt>
      <trkpt lat="43.16568" lon="0.87451">
        <ele>453.8</ele>
        <time>2013-12-22T16:20:12</time>
      </trkpt>
      <trkpt lat="43.16569" lon="0.87452">
        <ele>453.9</ele>
        <time>2013-12-22T16:20:13</time>
      </trkpt>
      <trkpt lat="43.1657" lon="0.87453">
        <ele>454.1</ele>
        <time>2013-12-22T16:20:14</time>
      </trkpt>
      <trkpt lat="43.1657" lon="0.87454">
        <ele>454.4</ele>
        <time>2013-12-22T16:20:15</time>
      </trkpt>
      <trkpt lat="43.16571" lon="0.87455">
        <ele>454.3</ele>
        <time>2013-12-22T16:20:16</time>
      </trkpt>
      <trkpt lat="43.16572" lon="0.87456">
        <ele>454.7</ele>
        <time>2013-12-22T16:20:17</time>
      </trkpt>
      <trkpt lat="43.16573" lon="0.87456">
        <ele>454.7</ele>
        <time>2013-12-22T16:20:18</time>
      </trkpt>
      <trkpt lat="43.16574" lon="0.87457">
        <ele>454.8</ele>
        <time>2013-12-22T16:20:19</time>
      </trkpt>
      <trkpt lat="43.16575" lon="0.87458">
        <ele>454.9</ele>
        <time>2013-12-22T16:20:20</time>
      </trkpt>
      <trkpt lat="43.16576" lon="0.87459">
        <ele>454.9</ele>
        <time>2013-12-22T16:20:21</time>
      </trkpt>
      <trkpt lat="43.16576" lon="0.87459">
        <ele>454.9</ele>
        <time>2013-12-22T16:20:22</time>
      </trkpt>
      <trkpt lat="43.16578" lon="0.8746">
        <ele>454.8</ele>
        <time>2013-12-22T16:20:23</time>
      </trkpt>
      <trkpt lat="43.16578" lon="0.87461">
        <ele>454.8</ele>
        <time>2013-12-22T16:20:24</time>
      </trkpt>
      <trkpt lat="43.16579" lon="0.87462">
        <ele>454.7</ele>
        <time>2013-12-22T16:20:25</time>
      </trkpt>
      <trkpt lat="43.1658" lon="0.87463">
        <ele>454.8</ele>
        <time>2013-12-22T16:20:26</time>
      </trkpt>
      <trkpt lat="43.16581" lon="0.87464">
        <ele>454.6</ele>
        <time>2013-12-22T16:20:27</time>
      </trkpt>
      <trkpt lat="43.16581" lon="0.87465">
        <ele>454.2</ele>
        <time>2013-12-22T16:20:28</time>
      </trkpt>
      <trkpt lat="43.16582" lon="0.87466">
        <ele>454.3</ele>
        <time>2013-12-22T16:20:29</time>
      </trkpt>
      <trkpt lat="43.16583" lon="0.87467">
        <ele>454.4</ele>
        <time>2013-12-22T16:20:30</time>
      </trkpt>
      <trkpt lat="43.16583" lon="0.87467">
        <ele>454.3</ele>
        <time>2013-12-22T16:20:31</time>
      </trkpt>
      <trkpt lat="43.16584" lon="0.87468">
        <ele>454.4</ele>
        <time>2013-12-22T16:20:32</time>
      </trkpt>
      <trkpt lat="43.16585" lon="0.87469">
        <ele>454.3</ele>
        <time>2013-12-22T16:20:33</time>
      </trkpt>
      <trkpt lat="43.16586" lon="0.87469">
        <ele>454.1</ele>
        <time>2013-12-22T16:20:34</time>
      </trkpt>
      <trkpt lat="43.16587" lon="0.8747">
        <ele>454.6</ele>
        <time>2013-12-22T16:20:35</time>
      </trkpt>
      <trkpt lat="43.16587" lon="0.87471">
        <ele>454.2</ele>
        <time>2013-12-22T16:20:36</time>
      </trkpt>
      <trkpt lat="43.16588" lon="0.87472">
        <ele>453.8</ele>
        <time>2013-12-22T16:20:37</time>
      </trkpt>
      <trkpt lat="43.16589" lon="0.87472">
        <ele>453.6</ele>
        <time>2013-12-22T16:20:38</time>
      </trkpt>
      <trkpt lat="43.1659" lon="0.87473">
        <ele>453.9</ele>
        <time>2013-12-22T16:20:39</time>
      </trkpt>
      <trkpt lat="43.16591" lon="0.87474">
        <ele>453.8</ele>
        <time>2013-12-22T16:20:40</time>
      </trkpt>
      <trkpt lat="43.16592" lon="0.87475">
        <ele>453.8</ele>
        <time>2013-12-22T16:20:41</time>
      </trkpt>
      <trkpt lat="43.16592" lon="0.87476">
        <ele>453.9</ele>
        <time>2013-12-22T16:20:42</time>
      </trkpt>
      <trkpt lat="43.16593" lon="0.87477">
        <ele>453.4</ele>
        <time>2013-12-22T16:20:47</time>
      </trkpt>
      <trkpt lat="43.16594" lon="0.87477">
        <ele>453.3</ele>
        <time>2013-12-22T16:20:48</time>
      </trkpt>
      <trkpt lat="43.16594" lon="0.87478">
        <ele>453</ele>
        <time>2013-12-22T16:20:49</time>
      </trkpt>
      <trkpt lat="43.16595" lon="0.87479">
        <ele>452.9</ele>
        <time>2013-12-22T16:20:50</time>
      </trkpt>
      <trkpt lat="43.16596" lon="0.8748">
        <ele>452.6</ele>
        <time>2013-12-22T16:20:51</time>
      </trkpt>
      <trkpt lat="43.16596" lon="0.87481">
        <ele>453</ele>
        <time>2013-12-22T16:20:52</time>
      </trkpt>
      <trkpt lat="43.16597" lon="0.87482">
        <ele>452.7</ele>
        <time>2013-12-22T16:20:53</time>
      </trkpt>
      <trkpt lat="43.16598" lon="0.87482">
        <ele>453.1</ele>
        <time>2013-12-22T16:20:54</time>
      </trkpt>
      <trkpt lat="43.16599" lon="0.87483">
        <ele>453</ele>
        <time>2013-12-22T16:20:55</time>
      </trkpt>
      <trkpt lat="43.166" lon="0.87484">
        <ele>452.7</ele>
        <time>2013-12-22T16:20:56</time>
      </trkpt>
      <trkpt lat="43.166" lon="0.87484">
        <ele>452.5</ele>
        <time>2013-12-22T16:20:57</time>
      </trkpt>
      <trkpt lat="43.16601" lon="0.87485">
        <ele>452.3</ele>
        <time>2013-12-22T16:20:58</time>
      </trkpt>
      <trkpt lat="43.16602" lon="0.87486">
        <ele>452.5</ele>
        <time>2013-12-22T16:20:59</time>
      </trkpt>
      <trkpt lat="43.16605" lon="0.87487">
        <ele>452.8</ele>
        <time>2013-12-22T16:21:14</time>
      </trkpt>
      <trkpt lat="43.16607" lon="0.87488">
        <ele>453.1</ele>
        <time>2013-12-22T16:21:15</time>
      </trkpt>
      <trkpt lat="43.16608" lon="0.87489">
        <ele>453.2</ele>
        <time>2013-12-22T16:21:16</time>
      </trkpt>
      <trkpt lat="43.16609" lon="0.87489">
        <ele>453.4</ele>
        <time>2013-12-22T16:21:17</time>
      </trkpt>
      <trkpt lat="43.1661" lon="0.8749">
        <ele>453.5</ele>
        <time>2013-12-22T16:21:18</time>
      </trkpt>
      <trkpt lat="43.16612" lon="0.8749">
        <ele>453.6</ele>
        <time>2013-12-22T16:21:19</time>
      </trkpt>
      <trkpt lat="43.16613" lon="0.87491">
        <ele>453.9</ele>
        <time>2013-12-22T16:21:20</time>
      </trkpt>
      <trkpt lat="43.16614" lon="0.87492">
        <ele>455.1</ele>
        <time>2013-12-22T16:21:21</time>
      </trkpt>
      <trkpt lat="43.16615" lon="0.87492">
        <ele>455.5</ele>
        <time>2013-12-22T16:21:22</time>
      </trkpt>
      <trkpt lat="43.16616" lon="0.87493">
        <ele>455.3</ele>
        <time>2013-12-22T16:21:23</time>
      </trkpt>
      <trkpt lat="43.16617" lon="0.87493">
        <ele>455.5</ele>
        <time>2013-12-22T16:21:24</time>
      </trkpt>
      <trkpt lat="43.16619" lon="0.87493">
        <ele>456.1</ele>
        <time>2013-12-22T16:21:32</time>
      </trkpt>
      <trkpt lat="43.1662" lon="0.87493">
        <ele>456.6</ele>
        <time>2013-12-22T16:21:33</time>
      </trkpt>
      <trkpt lat="43.16621" lon="0.87494">
        <ele>456.6</ele>
        <time>2013-12-22T16:21:34</time>
      </trkpt>
      <trkpt lat="43.16622" lon="0.87494">
        <ele>456.4</ele>
        <time>2013-12-22T16:21:35</time>
      </trkpt>
      <trkpt lat="43.16623" lon="0.87495">
        <ele>456.7</ele>
        <time>2013-12-22T16:21:36</time>
      </trkpt>
      <trkpt lat="43.16624" lon="0.87495">
        <ele>456.5</ele>
        <time>2013-12-22T16:21:37</time>
      </trkpt>
      <trkpt lat="43.16625" lon="0.87496">
        <ele>456.2</ele>
        <time>2013-12-22T16:21:38</time>
      </trkpt>
      <trkpt lat="43.16626" lon="0.87497">
        <ele>456.3</ele>
        <time>2013-12-22T16:21:39</time>
      </trkpt>
      <trkpt lat="43.16628" lon="0.87497">
        <ele>456.5</ele>
        <time>2013-12-22T16:21:40</time>
      </trkpt>
      <trkpt lat="43.16629" lon="0.87497">
        <ele>457.1</ele>
        <time>2013-12-22T16:21:41</time>
      </trkpt>
      <trkpt lat="43.1663" lon="0.87497">
        <ele>457.2</ele>
        <time>2013-12-22T16:21:42</time>
      </trkpt>
      <trkpt lat="43.16632" lon="0.87498">
        <ele>457.5</ele>
        <time>2013-12-22T16:21:43</time>
      </trkpt>
      <trkpt lat="43.16633" lon="0.87498">
        <ele>457.3</ele>
        <time>2013-12-22T16:21:44</time>
      </trkpt>
      <trkpt lat="43.16634" lon="0.87499">
        <ele>457.6</ele>
        <time>2013-12-22T16:21:45</time>
      </trkpt>
      <trkpt lat="43.16636" lon="0.87499">
        <ele>457.4</ele>
        <time>2013-12-22T16:21:46</time>
      </trkpt>
      <trkpt lat="43.16637" lon="0.875">
        <ele>457.2</ele>
        <time>2013-12-22T16:21:47</time>
      </trkpt>
      <trkpt lat="43.16638" lon="0.875">
        <ele>457.7</ele>
        <time>2013-12-22T16:21:48</time>
      </trkpt>
      <trkpt lat="43.16639" lon="0.87501">
        <ele>457.8</ele>
        <time>2013-12-22T16:21:49</time>
      </trkpt>
      <trkpt lat="43.16641" lon="0.87501">
        <ele>457.7</ele>
        <time>2013-12-22T16:21:50</time>
      </trkpt>
      <trkpt lat="43.16642" lon="0.87502">
        <ele>457.2</ele>
        <time>2013-12-22T16:21:51</time>
      </trkpt>
      <trkpt lat="43.16643" lon="0.87502">
        <ele>456.7</ele>
        <time>2013-12-22T16:21:52</time>
      </trkpt>
      <trkpt lat="43.16644" lon="0.87502">
        <ele>457.2</ele>
        <time>2013-12-22T16:21:53</time>
      </trkpt>
      <trkpt lat="43.16646" lon="0.87503">
        <ele>457.2</ele>
        <time>2013-12-22T16:21:54</time>
      </trkpt>
      <trkpt lat="43.16647" lon="0.87504">
        <ele>457.6</ele>
        <time>2013-12-22T16:21:55</time>
      </trkpt>
      <trkpt lat="43.16649" lon="0.87504">
        <ele>458.5</ele>
        <time>2013-12-22T16:21:56</time>
      </trkpt>
      <trkpt lat="43.1665" lon="0.87505">
        <ele>458.2</ele>
        <time>2013-12-22T16:21:57</time>
      </trkpt>
      <trkpt lat="43.16652" lon="0.87506">
        <ele>458.5</ele>
        <time>2013-12-22T16:21:59</time>
      </trkpt>
      <trkpt lat="43.16653" lon="0.87506">
        <ele>458.6</ele>
        <time>2013-12-22T16:22:00</time>
      </trkpt>
      <trkpt lat="43.16654" lon="0.87507">
        <ele>458.9</ele>
        <time>2013-12-22T16:22:01</time>
      </trkpt>
      <trkpt lat="43.16655" lon="0.87507">
        <ele>459.4</ele>
        <time>2013-12-22T16:22:02</time>
      </trkpt>
      <trkpt lat="43.16657" lon="0.87507">
        <ele>459.1</ele>
        <time>2013-12-22T16:22:03</time>
      </trkpt>
      <trkpt lat="43.16658" lon="0.87507">
        <ele>458.9</ele>
        <time>2013-12-22T16:22:04</time>
      </trkpt>
      <trkpt lat="43.16659" lon="0.87507">
        <ele>458.8</ele>
        <time>2013-12-22T16:22:05</time>
      </trkpt>
      <trkpt lat="43.1666" lon="0.87507">
        <ele>459</ele>
        <time>2013-12-22T16:22:06</time>
      </trkpt>
      <trkpt lat="43.16662" lon="0.87508">
        <ele>458.9</ele>
        <time>2013-12-22T16:22:07</time>
      </trkpt>
      <trkpt lat="43.16663" lon="0.87508">
        <ele>458.6</ele>
        <time>2013-12-22T16:22:08</time>
      </trkpt>
      <trkpt lat="43.16664" lon="0.87508">
        <ele>458.4</ele>
        <time>2013-12-22T16:22:09</time>
      </trkpt>
      <trkpt lat="43.16665" lon="0.87509">
        <ele>458.5</ele>
        <time>2013-12-22T16:22:10</time>
      </trkpt>
      <trkpt lat="43.16666" lon="0.87509">
        <ele>458.7</ele>
        <time>2013-12-22T16:22:11</time>
      </trkpt>
      <trkpt lat="43.16667" lon="0.87509">
        <ele>458.7</ele>
        <time>2013-12-22T16:22:12</time>
      </trkpt>
      <trkpt lat="43.16668" lon="0.87509">
        <ele>458.7</ele>
        <time>2013-12-22T16:22:13</time>
      </trkpt>
      <trkpt lat="43.16669" lon="0.87509">
        <ele>458.5</ele>
        <time>2013-12-22T16:22:14</time>
      </trkpt>
      <trkpt lat="43.1667" lon="0.8751">
        <ele>458.2</ele>
        <time>2013-12-22T16:22:15</time>
      </trkpt>
      <trkpt lat="43.16671" lon="0.8751">
        <ele>458.1</ele>
        <time>2013-12-22T16:22:16</time>
      </trkpt>
      <trkpt lat="43.16673" lon="0.87511">
        <ele>458.1</ele>
        <time>2013-12-22T16:22:17</time>
      </trkpt>
      <trkpt lat="43.16673" lon="0.87511">
        <ele>458.2</ele>
        <time>2013-12-22T16:22:18</time>
      </trkpt>
      <trkpt lat="43.16674" lon="0.87511">
        <ele>458.3</ele>
        <time>2013-12-22T16:22:19</time>
      </trkpt>
      <trkpt lat="43.16676" lon="0.87511">
        <ele>457.9</ele>
        <time>2013-12-22T16:22:20</time>
      </trkpt>
      <trkpt lat="43.16676" lon="0.87512">
        <ele>458</ele>
        <time>2013-12-22T16:22:21</time>
      </trkpt>
      <trkpt lat="43.16678" lon="0.87512">
        <ele>458.2</ele>
        <time>2013-12-22T16:22:22</time>
      </trkpt>
      <trkpt lat="43.16678" lon="0.87512">
        <ele>457.9</ele>
        <time>2013-12-22T16:22:23</time>
      </trkpt>
      <trkpt lat="43.16679" lon="0.87513">
        <ele>457.8</ele>
        <time>2013-12-22T16:22:24</time>
      </trkpt>
      <trkpt lat="43.1668" lon="0.87513">
        <ele>457.7</ele>
        <time>2013-12-22T16:22:25</time>
      </trkpt>
      <trkpt lat="43.16681" lon="0.87513">
        <ele>457.6</ele>
        <time>2013-12-22T16:22:26</time>
      </trkpt>
      <trkpt lat="43.16682" lon="0.87513">
        <ele>457.5</ele>
        <time>2013-12-22T16:22:27</time>
      </trkpt>
      <trkpt lat="43.16683" lon="0.87514">
        <ele>457.5</ele>
        <time>2013-12-22T16:22:28</time>
      </trkpt>
      <trkpt lat="43.16684" lon="0.87514">
        <ele>457.4</ele>
        <time>2013-12-22T16:22:29</time>
      </trkpt>
      <trkpt lat="43.16686" lon="0.87514">
        <ele>457.8</ele>
        <time>2013-12-22T16:22:30</time>
      </trkpt>
      <trkpt lat="43.16687" lon="0.87515">
        <ele>457.3</ele>
        <time>2013-12-22T16:22:31</time>
      </trkpt>
      <trkpt lat="43.16687" lon="0.87515">
        <ele>457.1</ele>
        <time>2013-12-22T16:22:32</time>
      </trkpt>
      <trkpt lat="43.16689" lon="0.87516">
        <ele>456.9</ele>
        <time>2013-12-22T16:22:38</time>
      </trkpt>
      <trkpt lat="43.16689" lon="0.87516">
        <ele>456.7</ele>
        <time>2013-12-22T16:22:39</time>
      </trkpt>
      <trkpt lat="43.1669" lon="0.87517">
        <ele>456.6</ele>
        <time>2013-12-22T16:22:40</time>
      </trkpt>
      <trkpt lat="43.16691" lon="0.87517">
        <ele>456.5</ele>
        <time>2013-12-22T16:22:41</time>
      </trkpt>
      <trkpt lat="43.16692" lon="0.87517">
        <ele>456.7</ele>
        <time>2013-12-22T16:22:42</time>
      </trkpt>
      <trkpt lat="43.16694" lon="0.87517">
        <ele>456.4</ele>
        <time>2013-12-22T16:22:43</time>
      </trkpt>
      <trkpt lat="43.16695" lon="0.87517">
        <ele>456.7</ele>
        <time>2013-12-22T16:22:44</time>
      </trkpt>
      <trkpt lat="43.16696" lon="0.87517">
        <ele>456.6</ele>
        <time>2013-12-22T16:22:45</time>
      </trkpt>
      <trkpt lat="43.16697" lon="0.87517">
        <ele>456.8</ele>
        <time>2013-12-22T16:22:46</time>
      </trkpt>
      <trkpt lat="43.16699" lon="0.87517">
        <ele>456.6</ele>
        <time>2013-12-22T16:22:47</time>
      </trkpt>
      <trkpt lat="43.167" lon="0.87518">
        <ele>456.6</ele>
        <time>2013-12-22T16:22:48</time>
      </trkpt>
      <trkpt lat="43.16701" lon="0.87518">
        <ele>456.5</ele>
        <time>2013-12-22T16:22:49</time>
      </trkpt>
      <trkpt lat="43.16702" lon="0.87518">
        <ele>456.3</ele>
        <time>2013-12-22T16:22:50</time>
      </trkpt>
      <trkpt lat="43.16703" lon="0.87518">
        <ele>456.3</ele>
        <time>2013-12-22T16:22:51</time>
      </trkpt>
      <trkpt lat="43.16704" lon="0.87518">
        <ele>456.2</ele>
        <time>2013-12-22T16:22:52</time>
      </trkpt>
      <trkpt lat="43.16705" lon="0.87519">
        <ele>456.1</ele>
        <time>2013-12-22T16:22:53</time>
      </trkpt>
      <trkpt lat="43.16706" lon="0.87519">
        <ele>455.9</ele>
        <time>2013-12-22T16:22:54</time>
      </trkpt>
      <trkpt lat="43.16707" lon="0.8752">
        <ele>455.7</ele>
        <time>2013-12-22T16:22:55</time>
      </trkpt>
      <trkpt lat="43.16708" lon="0.8752">
        <ele>455.5</ele>
        <time>2013-12-22T16:22:56</time>
      </trkpt>
      <trkpt lat="43.16709" lon="0.87521">
        <ele>455.3</ele>
        <time>2013-12-22T16:22:57</time>
      </trkpt>
      <trkpt lat="43.1671" lon="0.87521">
        <ele>455.5</ele>
        <time>2013-12-22T16:22:58</time>
      </trkpt>
      <trkpt lat="43.16711" lon="0.87521">
        <ele>455.3</ele>
        <time>2013-12-22T16:22:59</time>
      </trkpt>
      <trkpt lat="43.16712" lon="0.87521">
        <ele>455.2</ele>
        <time>2013-12-22T16:23:00</time>
      </trkpt>
      <trkpt lat="43.16713" lon="0.87521">
        <ele>455</ele>
        <time>2013-12-22T16:23:01</time>
      </trkpt>
      <trkpt lat="43.16714" lon="0.87521">
        <ele>455.1</ele>
        <time>2013-12-22T16:23:02</time>
      </trkpt>
      <trkpt lat="43.16715" lon="0.87521">
        <ele>454.9</ele>
        <time>2013-12-22T16:23:03</time>
      </trkpt>
      <trkpt lat="43.16716" lon="0.87522">
        <ele>455.2</ele>
        <time>2013-12-22T16:23:04</time>
      </trkpt>
      <trkpt lat="43.16718" lon="0.87522">
        <ele>455.8</ele>
        <time>2013-12-22T16:23:05</time>
      </trkpt>
      <trkpt lat="43.16719" lon="0.87522">
        <ele>455.8</ele>
        <time>2013-12-22T16:23:06</time>
      </trkpt>
      <trkpt lat="43.1672" lon="0.87522">
        <ele>456.1</ele>
        <time>2013-12-22T16:23:07</time>
      </trkpt>
      <trkpt lat="43.16721" lon="0.87522">
        <ele>455.9</ele>
        <time>2013-12-22T16:23:08</time>
      </trkpt>
      <trkpt lat="43.16722" lon="0.87522">
        <ele>456.6</ele>
        <time>2013-12-22T16:23:09</time>
      </trkpt>
      <trkpt lat="43.16723" lon="0.87522">
        <ele>456.5</ele>
        <time>2013-12-22T16:23:10</time>
      </trkpt>
      <trkpt lat="43.16724" lon="0.87522">
        <ele>456.6</ele>
        <time>2013-12-22T16:23:11</time>
      </trkpt>
      <trkpt lat="43.16725" lon="0.87523">
        <ele>456.6</ele>
        <time>2013-12-22T16:23:12</time>
      </trkpt>
      <trkpt lat="43.16726" lon="0.87523">
        <ele>456.8</ele>
        <time>2013-12-22T16:23:13</time>
      </trkpt>
      <trkpt lat="43.16727" lon="0.87523">
        <ele>456.8</ele>
        <time>2013-12-22T16:23:14</time>
      </trkpt>
      <trkpt lat="43.16728" lon="0.87523">
        <ele>456.8</ele>
        <time>2013-12-22T16:23:15</time>
      </trkpt>
      <trkpt lat="43.16729" lon="0.87523">
        <ele>456.6</ele>
        <time>2013-12-22T16:23:16</time>
      </trkpt>
      <trkpt lat="43.1673" lon="0.87524">
        <ele>456.5</ele>
        <time>2013-12-22T16:23:17</time>
      </trkpt>
      <trkpt lat="43.16731" lon="0.87524">
        <ele>456.6</ele>
        <time>2013-12-22T16:23:18</time>
      </trkpt>
      <trkpt lat="43.16732" lon="0.87525">
        <ele>456.5</ele>
        <time>2013-12-22T16:23:19</time>
      </trkpt>
      <trkpt lat="43.16732" lon="0.87525">
        <ele>456.5</ele>
        <time>2013-12-22T16:23:20</time>
      </trkpt>
      <trkpt lat="43.16734" lon="0.87525">
        <ele>456.5</ele>
        <time>2013-12-22T16:23:21</time>
      </trkpt>
      <trkpt lat="43.16734" lon="0.87526">
        <ele>456.6</ele>
        <time>2013-12-22T16:23:22</time>
      </trkpt>
      <trkpt lat="43.16736" lon="0.87526">
        <ele>456.5</ele>
        <time>2013-12-22T16:23:23</time>
      </trkpt>
      <trkpt lat="43.16737" lon="0.87526">
        <ele>456.5</ele>
        <time>2013-12-22T16:23:24</time>
      </trkpt>
      <trkpt lat="43.16737" lon="0.87526">
        <ele>456.6</ele>
        <time>2013-12-22T16:23:25</time>
      </trkpt>
      <trkpt lat="43.16738" lon="0.87527">
        <ele>456.4</ele>
        <time>2013-12-22T16:23:26</time>
      </trkpt>
      <trkpt lat="43.16739" lon="0.87527">
        <ele>456.3</ele>
        <time>2013-12-22T16:23:27</time>
      </trkpt>
      <trkpt lat="43.1674" lon="0.87527">
        <ele>456.6</ele>
        <time>2013-12-22T16:23:28</time>
      </trkpt>
      <trkpt lat="43.16741" lon="0.87527">
        <ele>456.5</ele>
        <time>2013-12-22T16:23:29</time>
      </trkpt>
      <trkpt lat="43.16742" lon="0.87527">
        <ele>456.8</ele>
        <time>2013-12-22T16:23:30</time>
      </trkpt>
      <trkpt lat="43.16743" lon="0.87528">
        <ele>457</ele>
        <time>2013-12-22T16:23:31</time>
      </trkpt>
      <trkpt lat="43.16743" lon="0.87528">
        <ele>456.5</ele>
        <time>2013-12-22T16:23:35</time>
      </trkpt>
      <trkpt lat="43.16744" lon="0.87528">
        <ele>456.5</ele>
        <time>2013-12-22T16:23:36</time>
      </trkpt>
      <trkpt lat="43.16745" lon="0.87528">
        <ele>456.6</ele>
        <time>2013-12-22T16:23:37</time>
      </trkpt>
      <trkpt lat="43.16746" lon="0.87529">
        <ele>456.4</ele>
        <time>2013-12-22T16:23:38</time>
      </trkpt>
      <trkpt lat="43.16747" lon="0.87529">
        <ele>456.6</ele>
        <time>2013-12-22T16:23:39</time>
      </trkpt>
      <trkpt lat="43.16748" lon="0.87529">
        <ele>456.3</ele>
        <time>2013-12-22T16:23:40</time>
      </trkpt>
      <trkpt lat="43.16749" lon="0.87529">
        <ele>456.5</ele>
        <time>2013-12-22T16:23:41</time>
      </trkpt>
      <trkpt lat="43.1675" lon="0.8753">
        <ele>456.3</ele>
        <time>2013-12-22T16:23:42</time>
      </trkpt>
      <trkpt lat="43.16751" lon="0.8753">
        <ele>456.3</ele>
        <time>2013-12-22T16:23:43</time>
      </trkpt>
      <trkpt lat="43.16752" lon="0.8753">
        <ele>456.8</ele>
        <time>2013-12-22T16:23:44</time>
      </trkpt>
      <trkpt lat="43.16752" lon="0.8753">
        <ele>456.7</ele>
        <time>2013-12-22T16:23:45</time>
      </trkpt>
      <trkpt lat="43.16753" lon="0.8753">
        <ele>456.4</ele>
        <time>2013-12-22T16:23:46</time>
      </trkpt>
      <trkpt lat="43.16754" lon="0.8753">
        <ele>456</ele>
        <time>2013-12-22T16:23:47</time>
      </trkpt>
      <trkpt lat="43.16755" lon="0.8753">
        <ele>456</ele>
        <time>2013-12-22T16:23:48</time>
      </trkpt>
      <trkpt lat="43.16756" lon="0.87531">
        <ele>456</ele>
        <time>2013-12-22T16:23:49</time>
      </trkpt>
      <trkpt lat="43.16757" lon="0.87531">
        <ele>455.7</ele>
        <time>2013-12-22T16:23:50</time>
      </trkpt>
      <trkpt lat="43.16758" lon="0.87532">
        <ele>455.7</ele>
        <time>2013-12-22T16:23:51</time>
      </trkpt>
      <trkpt lat="43.16759" lon="0.87532">
        <ele>455.8</ele>
        <time>2013-12-22T16:23:52</time>
      </trkpt>
      <trkpt lat="43.1676" lon="0.87532">
        <ele>456.3</ele>
        <time>2013-12-22T16:23:53</time>
      </trkpt>
      <trkpt lat="43.16761" lon="0.87532">
        <ele>456.2</ele>
        <time>2013-12-22T16:23:54</time>
      </trkpt>
      <trkpt lat="43.16763" lon="0.87533">
        <ele>456.4</ele>
        <time>2013-12-22T16:23:55</time>
      </trkpt>
      <trkpt lat="43.16764" lon="0.87533">
        <ele>456.4</ele>
        <time>2013-12-22T16:23:56</time>
      </trkpt>
      <trkpt lat="43.16765" lon="0.87533">
        <ele>456.3</ele>
        <time>2013-12-22T16:23:57</time>
      </trkpt>
      <trkpt lat="43.16766" lon="0.87534">
        <ele>456.4</ele>
        <time>2013-12-22T16:23:58</time>
      </trkpt>
      <trkpt lat="43.16767" lon="0.87534">
        <ele>455.7</ele>
        <time>2013-12-22T16:23:59</time>
      </trkpt>
      <trkpt lat="43.16768" lon="0.87534">
        <ele>455.5</ele>
        <time>2013-12-22T16:24:00</time>
      </trkpt>
      <trkpt lat="43.16769" lon="0.87535">
        <ele>455.5</ele>
        <time>2013-12-22T16:24:01</time>
      </trkpt>
      <trkpt lat="43.1677" lon="0.87535">
        <ele>455.6</ele>
        <time>2013-12-22T16:24:02</time>
      </trkpt>
      <trkpt lat="43.16771" lon="0.87536">
        <ele>455.5</ele>
        <time>2013-12-22T16:24:03</time>
      </trkpt>
      <trkpt lat="43.16773" lon="0.87536">
        <ele>455.7</ele>
        <time>2013-12-22T16:24:04</time>
      </trkpt>
      <trkpt lat="43.16773" lon="0.87536">
        <ele>455.5</ele>
        <time>2013-12-22T16:24:05</time>
      </trkpt>
      <trkpt lat="43.16774" lon="0.87537">
        <ele>455.4</ele>
        <time>2013-12-22T16:24:06</time>
      </trkpt>
      <trkpt lat="43.16776" lon="0.87537">
        <ele>455.6</ele>
        <time>2013-12-22T16:24:07</time>
      </trkpt>
      <trkpt lat="43.16777" lon="0.87538">
        <ele>455.6</ele>
        <time>2013-12-22T16:24:08</time>
      </trkpt>
      <trkpt lat="43.16778" lon="0.87538">
        <ele>455.7</ele>
        <time>2013-12-22T16:24:09</time>
      </trkpt>
      <trkpt lat="43.16779" lon="0.87539">
        <ele>455.8</ele>
        <time>2013-12-22T16:24:10</time>
      </trkpt>
      <trkpt lat="43.1678" lon="0.87539">
        <ele>455.7</ele>
        <time>2013-12-22T16:24:11</time>
      </trkpt>
      <trkpt lat="43.16781" lon="0.8754">
        <ele>455.7</ele>
        <time>2013-12-22T16:24:12</time>
      </trkpt>
      <trkpt lat="43.16782" lon="0.8754">
        <ele>455.7</ele>
        <time>2013-12-22T16:24:13</time>
      </trkpt>
      <trkpt lat="43.16783" lon="0.8754">
        <ele>455.5</ele>
        <time>2013-12-22T16:24:14</time>
      </trkpt>
      <trkpt lat="43.16784" lon="0.87541">
        <ele>455.9</ele>
        <time>2013-12-22T16:24:15</time>
      </trkpt>
      <trkpt lat="43.16785" lon="0.87541">
        <ele>455.6</ele>
        <time>2013-12-22T16:24:16</time>
      </trkpt>
      <trkpt lat="43.16787" lon="0.87541">
        <ele>455.5</ele>
        <time>2013-12-22T16:24:17</time>
      </trkpt>
      <trkpt lat="43.16787" lon="0.87542">
        <ele>455.4</ele>
        <time>2013-12-22T16:24:18</time>
      </trkpt>
      <trkpt lat="43.16789" lon="0.87542">
        <ele>455.3</ele>
        <time>2013-12-22T16:24:19</time>
      </trkpt>
      <trkpt lat="43.16789" lon="0.87543">
        <ele>455.4</ele>
        <time>2013-12-22T16:24:20</time>
      </trkpt>
      <trkpt lat="43.1679" lon="0.87543">
        <ele>455.2</ele>
        <time>2013-12-22T16:24:21</time>
      </trkpt>
      <trkpt lat="43.16791" lon="0.87544">
        <ele>454.9</ele>
        <time>2013-12-22T16:24:22</time>
      </trkpt>
      <trkpt lat="43.16792" lon="0.87544">
        <ele>454.9</ele>
        <time>2013-12-22T16:24:23</time>
      </trkpt>
      <trkpt lat="43.16793" lon="0.87545">
        <ele>454.7</ele>
        <time>2013-12-22T16:24:24</time>
      </trkpt>
      <trkpt lat="43.16794" lon="0.87545">
        <ele>454.7</ele>
        <time>2013-12-22T16:24:25</time>
      </trkpt>
      <trkpt lat="43.16795" lon="0.87545">
        <ele>454.9</ele>
        <time>2013-12-22T16:24:26</time>
      </trkpt>
      <trkpt lat="43.16796" lon="0.87546">
        <ele>454.8</ele>
        <time>2013-12-22T16:24:27</time>
      </trkpt>
      <trkpt lat="43.16797" lon="0.87546">
        <ele>454.7</ele>
        <time>2013-12-22T16:24:28</time>
      </trkpt>
      <trkpt lat="43.16798" lon="0.87547">
        <ele>454.7</ele>
        <time>2013-12-22T16:24:29</time>
      </trkpt>
      <trkpt lat="43.16798" lon="0.87547">
        <ele>454.7</ele>
        <time>2013-12-22T16:24:30</time>
      </trkpt>
      <trkpt lat="43.16799" lon="0.87548">
        <ele>454.6</ele>
        <time>2013-12-22T16:24:31</time>
      </trkpt>
      <trkpt lat="43.168" lon="0.87548">
        <ele>454.7</ele>
        <time>2013-12-22T16:24:32</time>
      </trkpt>
      <trkpt lat="43.16801" lon="0.87548">
        <ele>454.6</ele>
        <time>2013-12-22T16:24:33</time>
      </trkpt>
      <trkpt lat="43.16802" lon="0.87549">
        <ele>454.7</ele>
        <time>2013-12-22T16:24:34</time>
      </trkpt>
      <trkpt lat="43.16803" lon="0.87549">
        <ele>454.7</ele>
        <time>2013-12-22T16:24:35</time>
      </trkpt>
      <trkpt lat="43.16804" lon="0.8755">
        <ele>454.9</ele>
        <time>2013-12-22T16:24:36</time>
      </trkpt>
      <trkpt lat="43.16805" lon="0.8755">
        <ele>455</ele>
        <time>2013-12-22T16:24:37</time>
      </trkpt>
      <trkpt lat="43.16806" lon="0.8755">
        <ele>454.9</ele>
        <time>2013-12-22T16:24:38</time>
      </trkpt>
      <trkpt lat="43.16807" lon="0.87551">
        <ele>454.7</ele>
        <time>2013-12-22T16:24:39</time>
      </trkpt>
      <trkpt lat="43.16808" lon="0.87551">
        <ele>454.8</ele>
        <time>2013-12-22T16:24:40</time>
      </trkpt>
      <trkpt lat="43.16809" lon="0.87551">
        <ele>454.7</ele>
        <time>2013-12-22T16:24:41</time>
      </trkpt>
      <trkpt lat="43.1681" lon="0.87552">
        <ele>454.6</ele>
        <time>2013-12-22T16:24:42</time>
      </trkpt>
      <trkpt lat="43.16811" lon="0.87552">
        <ele>454.4</ele>
        <time>2013-12-22T16:24:43</time>
      </trkpt>
      <trkpt lat="43.16812" lon="0.87552">
        <ele>454.4</ele>
        <time>2013-12-22T16:24:44</time>
      </trkpt>
      <trkpt lat="43.16813" lon="0.87553">
        <ele>454.1</ele>
        <time>2013-12-22T16:24:45</time>
      </trkpt>
      <trkpt lat="43.16814" lon="0.87553">
        <ele>453.9</ele>
        <time>2013-12-22T16:24:46</time>
      </trkpt>
      <trkpt lat="43.16814" lon="0.87554">
        <ele>453.9</ele>
        <time>2013-12-22T16:24:47</time>
      </trkpt>
      <trkpt lat="43.16815" lon="0.87554">
        <ele>453.8</ele>
        <time>2013-12-22T16:24:48</time>
      </trkpt>
      <trkpt lat="43.16816" lon="0.87555">
        <ele>453.9</ele>
        <time>2013-12-22T16:24:49</time>
      </trkpt>
      <trkpt lat="43.16817" lon="0.87555">
        <ele>454.2</ele>
        <time>2013-12-22T16:24:50</time>
      </trkpt>
      <trkpt lat="43.16818" lon="0.87556">
        <ele>453.8</ele>
        <time>2013-12-22T16:24:51</time>
      </trkpt>
      <trkpt lat="43.16819" lon="0.87556">
        <ele>453.9</ele>
        <time>2013-12-22T16:24:52</time>
      </trkpt>
      <trkpt lat="43.1682" lon="0.87557">
        <ele>454</ele>
        <time>2013-12-22T16:24:53</time>
      </trkpt>
      <trkpt lat="43.16821" lon="0.87557">
        <ele>454.4</ele>
        <time>2013-12-22T16:24:54</time>
      </trkpt>
      <trkpt lat="43.16822" lon="0.87557">
        <ele>454.7</ele>
        <time>2013-12-22T16:24:55</time>
      </trkpt>
      <trkpt lat="43.16823" lon="0.87557">
        <ele>454.7</ele>
        <time>2013-12-22T16:24:56</time>
      </trkpt>
      <trkpt lat="43.16824" lon="0.87557">
        <ele>454.6</ele>
        <time>2013-12-22T16:24:57</time>
      </trkpt>
      <trkpt lat="43.16825" lon="0.87558">
        <ele>454.6</ele>
        <time>2013-12-22T16:24:58</time>
      </trkpt>
      <trkpt lat="43.16826" lon="0.87558">
        <ele>454.7</ele>
        <time>2013-12-22T16:24:59</time>
      </trkpt>
      <trkpt lat="43.16827" lon="0.87559">
        <ele>454.6</ele>
        <time>2013-12-22T16:25:00</time>
      </trkpt>
      <trkpt lat="43.16828" lon="0.87559">
        <ele>454.7</ele>
        <time>2013-12-22T16:25:01</time>
      </trkpt>
      <trkpt lat="43.16829" lon="0.8756">
        <ele>454.5</ele>
        <time>2013-12-22T16:25:02</time>
      </trkpt>
      <trkpt lat="43.1683" lon="0.8756">
        <ele>454.6</ele>
        <time>2013-12-22T16:25:03</time>
      </trkpt>
      <trkpt lat="43.1683" lon="0.87561">
        <ele>454.6</ele>
        <time>2013-12-22T16:25:04</time>
      </trkpt>
      <trkpt lat="43.16832" lon="0.87561">
        <ele>454.4</ele>
        <time>2013-12-22T16:25:05</time>
      </trkpt>
      <trkpt lat="43.16832" lon="0.87562">
        <ele>454.5</ele>
        <time>2013-12-22T16:25:06</time>
      </trkpt>
      <trkpt lat="43.16834" lon="0.87563">
        <ele>454.8</ele>
        <time>2013-12-22T16:25:07</time>
      </trkpt>
      <trkpt lat="43.16834" lon="0.87564">
        <ele>454.8</ele>
        <time>2013-12-22T16:25:08</time>
      </trkpt>
      <trkpt lat="43.16835" lon="0.87564">
        <ele>454.7</ele>
        <time>2013-12-22T16:25:09</time>
      </trkpt>
      <trkpt lat="43.16836" lon="0.87566">
        <ele>454.3</ele>
        <time>2013-12-22T16:25:10</time>
      </trkpt>
      <trkpt lat="43.16837" lon="0.87566">
        <ele>454.2</ele>
        <time>2013-12-22T16:25:11</time>
      </trkpt>
      <trkpt lat="43.16838" lon="0.87567">
        <ele>454.2</ele>
        <time>2013-12-22T16:25:12</time>
      </trkpt>
      <trkpt lat="43.16839" lon="0.87568">
        <ele>454.2</ele>
        <time>2013-12-22T16:25:13</time>
      </trkpt>
      <trkpt lat="43.1684" lon="0.87569">
        <ele>454.1</ele>
        <time>2013-12-22T16:25:14</time>
      </trkpt>
      <trkpt lat="43.1684" lon="0.8757">
        <ele>454.2</ele>
        <time>2013-12-22T16:25:15</time>
      </trkpt>
      <trkpt lat="43.16842" lon="0.8757">
        <ele>454.1</ele>
        <time>2013-12-22T16:25:16</time>
      </trkpt>
      <trkpt lat="43.16842" lon="0.87571">
        <ele>454.1</ele>
        <time>2013-12-22T16:25:17</time>
      </trkpt>
      <trkpt lat="43.16843" lon="0.87572">
        <ele>454.1</ele>
        <time>2013-12-22T16:25:18</time>
      </trkpt>
      <trkpt lat="43.16844" lon="0.87573">
        <ele>454</ele>
        <time>2013-12-22T16:25:19</time>
      </trkpt>
      <trkpt lat="43.16845" lon="0.87574">
        <ele>453.9</ele>
        <time>2013-12-22T16:25:20</time>
      </trkpt>
      <trkpt lat="43.16846" lon="0.87575">
        <ele>453.7</ele>
        <time>2013-12-22T16:25:21</time>
      </trkpt>
      <trkpt lat="43.16847" lon="0.87575">
        <ele>454.1</ele>
        <time>2013-12-22T16:25:22</time>
      </trkpt>
      <trkpt lat="43.16848" lon="0.87576">
        <ele>454.6</ele>
        <time>2013-12-22T16:25:23</time>
      </trkpt>
      <trkpt lat="43.16848" lon="0.87576">
        <ele>455.4</ele>
        <time>2013-12-22T16:25:24</time>
      </trkpt>
      <trkpt lat="43.16849" lon="0.87577">
        <ele>455.3</ele>
        <time>2013-12-22T16:25:25</time>
      </trkpt>
      <trkpt lat="43.1685" lon="0.87578">
        <ele>455.2</ele>
        <time>2013-12-22T16:25:26</time>
      </trkpt>
      <trkpt lat="43.1685" lon="0.87578">
        <ele>455.6</ele>
        <time>2013-12-22T16:25:27</time>
      </trkpt>
      <trkpt lat="43.16851" lon="0.87579">
        <ele>455.9</ele>
        <time>2013-12-22T16:25:28</time>
      </trkpt>
      <trkpt lat="43.16852" lon="0.87579">
        <ele>457</ele>
        <time>2013-12-22T16:25:29</time>
      </trkpt>
      <trkpt lat="43.16853" lon="0.8758">
        <ele>457.1</ele>
        <time>2013-12-22T16:25:30</time>
      </trkpt>
      <trkpt lat="43.16854" lon="0.87581">
        <ele>457</ele>
        <time>2013-12-22T16:25:31</time>
      </trkpt>
      <trkpt lat="43.16855" lon="0.87582">
        <ele>456.8</ele>
        <time>2013-12-22T16:25:32</time>
      </trkpt>
      <trkpt lat="43.16856" lon="0.87582">
        <ele>457.4</ele>
        <time>2013-12-22T16:25:33</time>
      </trkpt>
      <trkpt lat="43.16856" lon="0.87583">
        <ele>457.6</ele>
        <time>2013-12-22T16:25:34</time>
      </trkpt>
      <trkpt lat="43.16857" lon="0.87584">
        <ele>457.6</ele>
        <time>2013-12-22T16:25:35</time>
      </trkpt>
      <trkpt lat="43.16858" lon="0.87585">
        <ele>457.2</ele>
        <time>2013-12-22T16:25:36</time>
      </trkpt>
      <trkpt lat="43.16859" lon="0.87586">
        <ele>457.1</ele>
        <time>2013-12-22T16:25:37</time>
      </trkpt>
      <trkpt lat="43.16859" lon="0.87587">
        <ele>457.3</ele>
        <time>2013-12-22T16:25:38</time>
      </trkpt>
      <trkpt lat="43.16861" lon="0.87588">
        <ele>456.9</ele>
        <time>2013-12-22T16:25:39</time>
      </trkpt>
      <trkpt lat="43.16861" lon="0.87589">
        <ele>456.8</ele>
        <time>2013-12-22T16:25:40</time>
      </trkpt>
      <trkpt lat="43.16862" lon="0.8759">
        <ele>457.2</ele>
        <time>2013-12-22T16:25:41</time>
      </trkpt>
      <trkpt lat="43.16863" lon="0.87591">
        <ele>457.4</ele>
        <time>2013-12-22T16:25:42</time>
      </trkpt>
      <trkpt lat="43.16863" lon="0.87592">
        <ele>457.6</ele>
        <time>2013-12-22T16:25:43</time>
      </trkpt>
      <trkpt lat="43.16864" lon="0.87593">
        <ele>457.5</ele>
        <time>2013-12-22T16:25:44</time>
      </trkpt>
      <trkpt lat="43.16864" lon="0.87594">
        <ele>457.3</ele>
        <time>2013-12-22T16:25:45</time>
      </trkpt>
      <trkpt lat="43.16865" lon="0.87595">
        <ele>457</ele>
        <time>2013-12-22T16:25:46</time>
      </trkpt>
      <trkpt lat="43.16866" lon="0.87596">
        <ele>457.1</ele>
        <time>2013-12-22T16:25:47</time>
      </trkpt>
      <trkpt lat="43.16866" lon="0.87597">
        <ele>457</ele>
        <time>2013-12-22T16:25:48</time>
      </trkpt>
      <trkpt lat="43.16867" lon="0.87598">
        <ele>457.4</ele>
        <time>2013-12-22T16:25:49</time>
      </trkpt>
      <trkpt lat="43.16867" lon="0.87599">
        <ele>457.5</ele>
        <time>2013-12-22T16:25:50</time>
      </trkpt>
      <trkpt lat="43.16868" lon="0.876">
        <ele>457.4</ele>
        <time>2013-12-22T16:25:51</time>
      </trkpt>
      <trkpt lat="43.16869" lon="0.87601">
        <ele>457.4</ele>
        <time>2013-12-22T16:25:52</time>
      </trkpt>
      <trkpt lat="43.16869" lon="0.87602">
        <ele>457.2</ele>
        <time>2013-12-22T16:25:53</time>
      </trkpt>
      <trkpt lat="43.1687" lon="0.87603">
        <ele>457.3</ele>
        <time>2013-12-22T16:25:54</time>
      </trkpt>
      <trkpt lat="43.16871" lon="0.87604">
        <ele>457.3</ele>
        <time>2013-12-22T16:25:55</time>
      </trkpt>
      <trkpt lat="43.16871" lon="0.87605">
        <ele>457.4</ele>
        <time>2013-12-22T16:25:56</time>
      </trkpt>
      <trkpt lat="43.16872" lon="0.87606">
        <ele>457.7</ele>
        <time>2013-12-22T16:25:57</time>
      </trkpt>
      <trkpt lat="43.16873" lon="0.87607">
        <ele>458.1</ele>
        <time>2013-12-22T16:25:58</time>
      </trkpt>
      <trkpt lat="43.16874" lon="0.87608">
        <ele>458.4</ele>
        <time>2013-12-22T16:25:59</time>
      </trkpt>
      <trkpt lat="43.16874" lon="0.87609">
        <ele>458.3</ele>
        <time>2013-12-22T16:26:00</time>
      </trkpt>
      <trkpt lat="43.16875" lon="0.8761">
        <ele>458.5</ele>
        <time>2013-12-22T16:26:01</time>
      </trkpt>
      <trkpt lat="43.16876" lon="0.87611">
        <ele>458.8</ele>
        <time>2013-12-22T16:26:02</time>
      </trkpt>
      <trkpt lat="43.16877" lon="0.87612">
        <ele>459.1</ele>
        <time>2013-12-22T16:26:05</time>
      </trkpt>
      <trkpt lat="43.16877" lon="0.87612">
        <ele>459.2</ele>
        <time>2013-12-22T16:26:06</time>
      </trkpt>
      <trkpt lat="43.16878" lon="0.87614">
        <ele>459.3</ele>
        <time>2013-12-22T16:26:07</time>
      </trkpt>
      <trkpt lat="43.16879" lon="0.87615">
        <ele>459.2</ele>
        <time>2013-12-22T16:26:08</time>
      </trkpt>
      <trkpt lat="43.1688" lon="0.87616">
        <ele>458.9</ele>
        <time>2013-12-22T16:26:09</time>
      </trkpt>
      <trkpt lat="43.1688" lon="0.87617">
        <ele>458.8</ele>
        <time>2013-12-22T16:26:10</time>
      </trkpt>
      <trkpt lat="43.16881" lon="0.87618">
        <ele>458.7</ele>
        <time>2013-12-22T16:26:11</time>
      </trkpt>
      <trkpt lat="43.16882" lon="0.87619">
        <ele>458.7</ele>
        <time>2013-12-22T16:26:12</time>
      </trkpt>
      <trkpt lat="43.16883" lon="0.8762">
        <ele>458.6</ele>
        <time>2013-12-22T16:26:13</time>
      </trkpt>
      <trkpt lat="43.16884" lon="0.87621">
        <ele>458.6</ele>
        <time>2013-12-22T16:26:14</time>
      </trkpt>
      <trkpt lat="43.16885" lon="0.87622">
        <ele>458.4</ele>
        <time>2013-12-22T16:26:15</time>
      </trkpt>
      <trkpt lat="43.16885" lon="0.87623">
        <ele>458.7</ele>
        <time>2013-12-22T16:26:21</time>
      </trkpt>
      <trkpt lat="43.16885" lon="0.87622">
        <ele>458.6</ele>
        <time>2013-12-22T16:26:22</time>
      </trkpt>
      <trkpt lat="43.16884" lon="0.87621">
        <ele>458.5</ele>
        <time>2013-12-22T16:26:23</time>
      </trkpt>
      <trkpt lat="43.16883" lon="0.8762">
        <ele>458.4</ele>
        <time>2013-12-22T16:26:24</time>
      </trkpt>
      <trkpt lat="43.16882" lon="0.87618">
        <ele>458.5</ele>
        <time>2013-12-22T16:26:25</time>
      </trkpt>
      <trkpt lat="43.16882" lon="0.87617">
        <ele>458.2</ele>
        <time>2013-12-22T16:26:26</time>
      </trkpt>
      <trkpt lat="43.16881" lon="0.87616">
        <ele>458.2</ele>
        <time>2013-12-22T16:26:27</time>
      </trkpt>
      <trkpt lat="43.1688" lon="0.87615">
        <ele>458.6</ele>
        <time>2013-12-22T16:26:28</time>
      </trkpt>
      <trkpt lat="43.16879" lon="0.87615">
        <ele>458.4</ele>
        <time>2013-12-22T16:26:29</time>
      </trkpt>
      <trkpt lat="43.16879" lon="0.87614">
        <ele>458.5</ele>
        <time>2013-12-22T16:26:30</time>
      </trkpt>
      <trkpt lat="43.16878" lon="0.87614">
        <ele>458.6</ele>
        <time>2013-12-22T16:26:31</time>
      </trkpt>
      <trkpt lat="43.16877" lon="0.87614">
        <ele>458.7</ele>
        <time>2013-12-22T16:26:35</time>
      </trkpt>
      <trkpt lat="43.16876" lon="0.87614">
        <ele>458.5</ele>
        <time>2013-12-22T16:26:36</time>
      </trkpt>
      <trkpt lat="43.16875" lon="0.87614">
        <ele>459.4</ele>
        <time>2013-12-22T16:26:37</time>
      </trkpt>
      <trkpt lat="43.16874" lon="0.87614">
        <ele>459.2</ele>
        <time>2013-12-22T16:26:38</time>
      </trkpt>
      <trkpt lat="43.16873" lon="0.87614">
        <ele>458.9</ele>
        <time>2013-12-22T16:26:39</time>
      </trkpt>
      <trkpt lat="43.16872" lon="0.87615">
        <ele>458.7</ele>
        <time>2013-12-22T16:26:40</time>
      </trkpt>
      <trkpt lat="43.16871" lon="0.87616">
        <ele>458.3</ele>
        <time>2013-12-22T16:26:41</time>
      </trkpt>
      <trkpt lat="43.16871" lon="0.87617">
        <ele>458.2</ele>
        <time>2013-12-22T16:26:42</time>
      </trkpt>
      <trkpt lat="43.16869" lon="0.87618">
        <ele>458</ele>
        <time>2013-12-22T16:26:43</time>
      </trkpt>
      <trkpt lat="43.16869" lon="0.87619">
        <ele>457.9</ele>
        <time>2013-12-22T16:26:44</time>
      </trkpt>
      <trkpt lat="43.16868" lon="0.8762">
        <ele>457.6</ele>
        <time>2013-12-22T16:26:45</time>
      </trkpt>
      <trkpt lat="43.16867" lon="0.87621">
        <ele>457.3</ele>
        <time>2013-12-22T16:26:46</time>
      </trkpt>
      <trkpt lat="43.16866" lon="0.87621">
        <ele>457.3</ele>
        <time>2013-12-22T16:26:47</time>
      </trkpt>
      <trkpt lat="43.16865" lon="0.87622">
        <ele>457.1</ele>
        <time>2013-12-22T16:26:48</time>
      </trkpt>
      <trkpt lat="43.16865" lon="0.87623">
        <ele>457</ele>
        <time>2013-12-22T16:26:49</time>
      </trkpt>
      <trkpt lat="43.16864" lon="0.87624">
        <ele>456.8</ele>
        <time>2013-12-22T16:26:50</time>
      </trkpt>
      <trkpt lat="43.16864" lon="0.87625">
        <ele>456.9</ele>
        <time>2013-12-22T16:26:51</time>
      </trkpt>
      <trkpt lat="43.16863" lon="0.87626">
        <ele>457</ele>
        <time>2013-12-22T16:26:52</time>
      </trkpt>
      <trkpt lat="43.16863" lon="0.87626">
        <ele>456.9</ele>
        <time>2013-12-22T16:26:53</time>
      </trkpt>
      <trkpt lat="43.16862" lon="0.87627">
        <ele>456.7</ele>
        <time>2013-12-22T16:26:54</time>
      </trkpt>
      <trkpt lat="43.16862" lon="0.87628">
        <ele>454.1</ele>
        <time>2013-12-22T16:26:59</time>
      </trkpt>
      <trkpt lat="43.16861" lon="0.87629">
        <ele>453.7</ele>
        <time>2013-12-22T16:27:00</time>
      </trkpt>
      <trkpt lat="43.16861" lon="0.8763">
        <ele>453.6</ele>
        <time>2013-12-22T16:27:01</time>
      </trkpt>
      <trkpt lat="43.1686" lon="0.8763">
        <ele>453.8</ele>
        <time>2013-12-22T16:27:02</time>
      </trkpt>
      <trkpt lat="43.16859" lon="0.87631">
        <ele>453.6</ele>
        <time>2013-12-22T16:27:06</time>
      </trkpt>
      <trkpt lat="43.16859" lon="0.87632">
        <ele>453.4</ele>
        <time>2013-12-22T16:27:07</time>
      </trkpt>
      <trkpt lat="43.16858" lon="0.87633">
        <ele>453.4</ele>
        <time>2013-12-22T16:27:08</time>
      </trkpt>
      <trkpt lat="43.16857" lon="0.87634">
        <ele>453.5</ele>
        <time>2013-12-22T16:27:10</time>
      </trkpt>
      <trkpt lat="43.16856" lon="0.87635">
        <ele>453.4</ele>
        <time>2013-12-22T16:27:11</time>
      </trkpt>
      <trkpt lat="43.16856" lon="0.87635">
        <ele>453.4</ele>
        <time>2013-12-22T16:27:12</time>
      </trkpt>
      <trkpt lat="43.16855" lon="0.87636">
        <ele>453.2</ele>
        <time>2013-12-22T16:27:13</time>
      </trkpt>
      <trkpt lat="43.16855" lon="0.87637">
        <ele>453.1</ele>
        <time>2013-12-22T16:27:14</time>
      </trkpt>
      <trkpt lat="43.16854" lon="0.87638">
        <ele>453</ele>
        <time>2013-12-22T16:27:15</time>
      </trkpt>
      <trkpt lat="43.16853" lon="0.87639">
        <ele>453.3</ele>
        <time>2013-12-22T16:27:16</time>
      </trkpt>
      <trkpt lat="43.16853" lon="0.8764">
        <ele>452.9</ele>
        <time>2013-12-22T16:27:17</time>
      </trkpt>
      <trkpt lat="43.16852" lon="0.8764">
        <ele>452.9</ele>
        <time>2013-12-22T16:27:18</time>
      </trkpt>
      <trkpt lat="43.16851" lon="0.87641">
        <ele>453.1</ele>
        <time>2013-12-22T16:27:19</time>
      </trkpt>
      <trkpt lat="43.1685" lon="0.87641">
        <ele>453.5</ele>
        <time>2013-12-22T16:27:20</time>
      </trkpt>
      <trkpt lat="43.16849" lon="0.87643">
        <ele>453</ele>
        <time>2013-12-22T16:27:33</time>
      </trkpt>
      <trkpt lat="43.16849" lon="0.87643">
        <ele>452.5</ele>
        <time>2013-12-22T16:27:34</time>
      </trkpt>
      <trkpt lat="43.16848" lon="0.87644">
        <ele>452.7</ele>
        <time>2013-12-22T16:27:35</time>
      </trkpt>
      <trkpt lat="43.16847" lon="0.87645">
        <ele>452.9</ele>
        <time>2013-12-22T16:27:36</time>
      </trkpt>
      <trkpt lat="43.16846" lon="0.87647">
        <ele>452.3</ele>
        <time>2013-12-22T16:27:39</time>
      </trkpt>
      <trkpt lat="43.16846" lon="0.87648">
        <ele>451.8</ele>
        <time>2013-12-22T16:27:40</time>
      </trkpt>
      <trkpt lat="43.16845" lon="0.87649">
        <ele>452</ele>
        <time>2013-12-22T16:27:41</time>
      </trkpt>
      <trkpt lat="43.16844" lon="0.8765">
        <ele>451.8</ele>
        <time>2013-12-22T16:27:42</time>
      </trkpt>
      <trkpt lat="43.16843" lon="0.87651">
        <ele>451.4</ele>
        <time>2013-12-22T16:27:43</time>
      </trkpt>
      <trkpt lat="43.16843" lon="0.87652">
        <ele>451.1</ele>
        <time>2013-12-22T16:27:44</time>
      </trkpt>
      <trkpt lat="43.16842" lon="0.87653">
        <ele>451</ele>
        <time>2013-12-22T16:27:45</time>
      </trkpt>
      <trkpt lat="43.16841" lon="0.87653">
        <ele>450.9</ele>
        <time>2013-12-22T16:27:46</time>
      </trkpt>
      <trkpt lat="43.1684" lon="0.87654">
        <ele>450.8</ele>
        <time>2013-12-22T16:27:47</time>
      </trkpt>
      <trkpt lat="43.1684" lon="0.87655">
        <ele>450.9</ele>
        <time>2013-12-22T16:27:48</time>
      </trkpt>
      <trkpt lat="43.16839" lon="0.87656">
        <ele>450.5</ele>
        <time>2013-12-22T16:27:49</time>
      </trkpt>
      <trkpt lat="43.16838" lon="0.87656">
        <ele>450.1</ele>
        <time>2013-12-22T16:27:50</time>
      </trkpt>
      <trkpt lat="43.16838" lon="0.87657">
        <ele>449.5</ele>
        <time>2013-12-22T16:27:51</time>
      </trkpt>
      <trkpt lat="43.16837" lon="0.87658">
        <ele>449.1</ele>
        <time>2013-12-22T16:27:52</time>
      </trkpt>
      <trkpt lat="43.16836" lon="0.87659">
        <ele>449.1</ele>
        <time>2013-12-22T16:27:53</time>
      </trkpt>
      <trkpt lat="43.16835" lon="0.87659">
        <ele>449.3</ele>
        <time>2013-12-22T16:27:54</time>
      </trkpt>
      <trkpt lat="43.16835" lon="0.8766">
        <ele>449.3</ele>
        <time>2013-12-22T16:27:55</time>
      </trkpt>
      <trkpt lat="43.16834" lon="0.87661">
        <ele>449</ele>
        <time>2013-12-22T16:27:56</time>
      </trkpt>
      <trkpt lat="43.16834" lon="0.87662">
        <ele>447.9</ele>
        <time>2013-12-22T16:27:57</time>
      </trkpt>
      <trkpt lat="43.16833" lon="0.87664">
        <ele>447.5</ele>
        <time>2013-12-22T16:27:58</time>
      </trkpt>
      <trkpt lat="43.16833" lon="0.87665">
        <ele>447</ele>
        <time>2013-12-22T16:27:59</time>
      </trkpt>
      <trkpt lat="43.16832" lon="0.87666">
        <ele>446.7</ele>
        <time>2013-12-22T16:28:00</time>
      </trkpt>
      <trkpt lat="43.16831" lon="0.87666">
        <ele>446.6</ele>
        <time>2013-12-22T16:28:01</time>
      </trkpt>
      <trkpt lat="43.16831" lon="0.87667">
        <ele>446.5</ele>
        <time>2013-12-22T16:28:02</time>
      </trkpt>
      <trkpt lat="43.1683" lon="0.87668">
        <ele>446.8</ele>
        <time>2013-12-22T16:28:03</time>
      </trkpt>
      <trkpt lat="43.16831" lon="0.87669">
        <ele>445.9</ele>
        <time>2013-12-22T16:28:08</time>
      </trkpt>
      <trkpt lat="43.16831" lon="0.8767">
        <ele>445.9</ele>
        <time>2013-12-22T16:28:09</time>
      </trkpt>
      <trkpt lat="43.16832" lon="0.87671">
        <ele>445.7</ele>
        <time>2013-12-22T16:28:10</time>
      </trkpt>
      <trkpt lat="43.16833" lon="0.87672">
        <ele>445.5</ele>
        <time>2013-12-22T16:28:11</time>
      </trkpt>
      <trkpt lat="43.16834" lon="0.87674">
        <ele>445.3</ele>
        <time>2013-12-22T16:28:12</time>
      </trkpt>
      <trkpt lat="43.16834" lon="0.87675">
        <ele>445.2</ele>
        <time>2013-12-22T16:28:13</time>
      </trkpt>
      <trkpt lat="43.16835" lon="0.87676">
        <ele>445.1</ele>
        <time>2013-12-22T16:28:14</time>
      </trkpt>
      <trkpt lat="43.16835" lon="0.87677">
        <ele>444.9</ele>
        <time>2013-12-22T16:28:15</time>
      </trkpt>
      <trkpt lat="43.16836" lon="0.87679">
        <ele>445.1</ele>
        <time>2013-12-22T16:28:16</time>
      </trkpt>
      <trkpt lat="43.16837" lon="0.8768">
        <ele>445</ele>
        <time>2013-12-22T16:28:17</time>
      </trkpt>
      <trkpt lat="43.16837" lon="0.87681">
        <ele>445.3</ele>
        <time>2013-12-22T16:28:18</time>
      </trkpt>
      <trkpt lat="43.16838" lon="0.87682">
        <ele>445.4</ele>
        <time>2013-12-22T16:28:19</time>
      </trkpt>
      <trkpt lat="43.16839" lon="0.87684">
        <ele>445.5</ele>
        <time>2013-12-22T16:28:20</time>
      </trkpt>
      <trkpt lat="43.16839" lon="0.87685">
        <ele>445.5</ele>
        <time>2013-12-22T16:28:21</time>
      </trkpt>
      <trkpt lat="43.1684" lon="0.87686">
        <ele>445.9</ele>
        <time>2013-12-22T16:28:22</time>
      </trkpt>
      <trkpt lat="43.1684" lon="0.87687">
        <ele>445.8</ele>
        <time>2013-12-22T16:28:23</time>
      </trkpt>
      <trkpt lat="43.1684" lon="0.87688">
        <ele>445.8</ele>
        <time>2013-12-22T16:28:24</time>
      </trkpt>
      <trkpt lat="43.16841" lon="0.87689">
        <ele>445.8</ele>
        <time>2013-12-22T16:28:25</time>
      </trkpt>
      <trkpt lat="43.16841" lon="0.87691">
        <ele>445.9</ele>
        <time>2013-12-22T16:28:26</time>
      </trkpt>
      <trkpt lat="43.16842" lon="0.87692">
        <ele>445.8</ele>
        <time>2013-12-22T16:28:27</time>
      </trkpt>
      <trkpt lat="43.16841" lon="0.87691">
        <ele>448.1</ele>
        <time>2013-12-22T16:28:52</time>
      </trkpt>
      <trkpt lat="43.16842" lon="0.87692">
        <ele>448.1</ele>
        <time>2013-12-22T16:28:53</time>
      </trkpt>
      <trkpt lat="43.16842" lon="0.87692">
        <ele>448.1</ele>
        <time>2013-12-22T16:28:54</time>
      </trkpt>
      <trkpt lat="43.16843" lon="0.87693">
        <ele>448.8</ele>
        <time>2013-12-22T16:28:55</time>
      </trkpt>
      <trkpt lat="43.16844" lon="0.87694">
        <ele>448.4</ele>
        <time>2013-12-22T16:28:56</time>
      </trkpt>
      <trkpt lat="43.16845" lon="0.87695">
        <ele>448.4</ele>
        <time>2013-12-22T16:28:57</time>
      </trkpt>
      <trkpt lat="43.16845" lon="0.87695">
        <ele>448.6</ele>
        <time>2013-12-22T16:28:58</time>
      </trkpt>
      <trkpt lat="43.16847" lon="0.87694">
        <ele>450.2</ele>
        <time>2013-12-22T16:29:15</time>
      </trkpt>
      <trkpt lat="43.16846" lon="0.87693">
        <ele>450.2</ele>
        <time>2013-12-22T16:29:16</time>
      </trkpt>
      <trkpt lat="43.16845" lon="0.87692">
        <ele>449.9</ele>
        <time>2013-12-22T16:29:17</time>
      </trkpt>
      <trkpt lat="43.16845" lon="0.87691">
        <ele>449.7</ele>
        <time>2013-12-22T16:29:18</time>
      </trkpt>
      <trkpt lat="43.16844" lon="0.8769">
        <ele>449.8</ele>
        <time>2013-12-22T16:29:19</time>
      </trkpt>
      <trkpt lat="43.16843" lon="0.87689">
        <ele>449.7</ele>
        <time>2013-12-22T16:29:20</time>
      </trkpt>
      <trkpt lat="43.16842" lon="0.87688">
        <ele>449.3</ele>
        <time>2013-12-22T16:29:21</time>
      </trkpt>
      <trkpt lat="43.16842" lon="0.87687">
        <ele>449.4</ele>
        <time>2013-12-22T16:29:22</time>
      </trkpt>
      <trkpt lat="43.16841" lon="0.87686">
        <ele>449.5</ele>
        <time>2013-12-22T16:29:23</time>
      </trkpt>
      <trkpt lat="43.1684" lon="0.87686">
        <ele>449.9</ele>
        <time>2013-12-22T16:29:24</time>
      </trkpt>
      <trkpt lat="43.1684" lon="0.87685">
        <ele>449.7</ele>
        <time>2013-12-22T16:29:25</time>
      </trkpt>
      <trkpt lat="43.16839" lon="0.87683">
        <ele>449.7</ele>
        <time>2013-12-22T16:29:26</time>
      </trkpt>
      <trkpt lat="43.16839" lon="0.87682">
        <ele>450.1</ele>
        <time>2013-12-22T16:29:27</time>
      </trkpt>
      <trkpt lat="43.16838" lon="0.87681">
        <ele>450.1</ele>
        <time>2013-12-22T16:29:28</time>
      </trkpt>
      <trkpt lat="43.16837" lon="0.87681">
        <ele>450</ele>
        <time>2013-12-22T16:29:29</time>
      </trkpt>
      <trkpt lat="43.16836" lon="0.87679">
        <ele>450.4</ele>
        <time>2013-12-22T16:29:30</time>
      </trkpt>
      <trkpt lat="43.16835" lon="0.87678">
        <ele>450.2</ele>
        <time>2013-12-22T16:29:31</time>
      </trkpt>
      <trkpt lat="43.16834" lon="0.87677">
        <ele>450.4</ele>
        <time>2013-12-22T16:29:32</time>
      </trkpt>
      <trkpt lat="43.16834" lon="0.87676">
        <ele>450.7</ele>
        <time>2013-12-22T16:29:33</time>
      </trkpt>
      <trkpt lat="43.16833" lon="0.87675">
        <ele>450.3</ele>
        <time>2013-12-22T16:29:34</time>
      </trkpt>
      <trkpt lat="43.16832" lon="0.87674">
        <ele>450.4</ele>
        <time>2013-12-22T16:29:35</time>
      </trkpt>
      <trkpt lat="43.16832" lon="0.87672">
        <ele>450.2</ele>
        <time>2013-12-22T16:29:36</time>
      </trkpt>
      <trkpt lat="43.16831" lon="0.87671">
        <ele>450.3</ele>
        <time>2013-12-22T16:29:37</time>
      </trkpt>
      <trkpt lat="43.16831" lon="0.8767">
        <ele>450.2</ele>
        <time>2013-12-22T16:29:38</time>
      </trkpt>
      <trkpt lat="43.16831" lon="0.8767">
        <ele>449.2</ele>
        <time>2013-12-22T16:29:46</time>
      </trkpt>
      <trkpt lat="43.1683" lon="0.87669">
        <ele>448.9</ele>
        <time>2013-12-22T16:29:47</time>
      </trkpt>
      <trkpt lat="43.1683" lon="0.87669">
        <ele>448.7</ele>
        <time>2013-12-22T16:29:48</time>
      </trkpt>
      <trkpt lat="43.16829" lon="0.87669">
        <ele>448.3</ele>
        <time>2013-12-22T16:29:49</time>
      </trkpt>
      <trkpt lat="43.16828" lon="0.87669">
        <ele>448.1</ele>
        <time>2013-12-22T16:29:50</time>
      </trkpt>
      <trkpt lat="43.16827" lon="0.8767">
        <ele>446.9</ele>
        <time>2013-12-22T16:29:51</time>
      </trkpt>
      <trkpt lat="43.16827" lon="0.8767">
        <ele>446.9</ele>
        <time>2013-12-22T16:29:52</time>
      </trkpt>
      <trkpt lat="43.16826" lon="0.87671">
        <ele>446.7</ele>
        <time>2013-12-22T16:29:53</time>
      </trkpt>
      <trkpt lat="43.16825" lon="0.87672">
        <ele>446.8</ele>
        <time>2013-12-22T16:29:54</time>
      </trkpt>
      <trkpt lat="43.16824" lon="0.87673">
        <ele>447</ele>
        <time>2013-12-22T16:29:55</time>
      </trkpt>
      <trkpt lat="43.16823" lon="0.87674">
        <ele>446.7</ele>
        <time>2013-12-22T16:29:56</time>
      </trkpt>
      <trkpt lat="43.16822" lon="0.87674">
        <ele>446.2</ele>
        <time>2013-12-22T16:29:57</time>
      </trkpt>
      <trkpt lat="43.16822" lon="0.87675">
        <ele>446.2</ele>
        <time>2013-12-22T16:29:58</time>
      </trkpt>
      <trkpt lat="43.16821" lon="0.87676">
        <ele>446</ele>
        <time>2013-12-22T16:29:59</time>
      </trkpt>
      <trkpt lat="43.1682" lon="0.87677">
        <ele>445.9</ele>
        <time>2013-12-22T16:30:00</time>
      </trkpt>
      <trkpt lat="43.16819" lon="0.87678">
        <ele>445.7</ele>
        <time>2013-12-22T16:30:01</time>
      </trkpt>
      <trkpt lat="43.16819" lon="0.87679">
        <ele>444.5</ele>
        <time>2013-12-22T16:30:02</time>
      </trkpt>
      <trkpt lat="43.16818" lon="0.87679">
        <ele>444.8</ele>
        <time>2013-12-22T16:30:03</time>
      </trkpt>
      <trkpt lat="43.16817" lon="0.87679">
        <ele>444.8</ele>
        <time>2013-12-22T16:30:04</time>
      </trkpt>
      <trkpt lat="43.16816" lon="0.87679">
        <ele>444.7</ele>
        <time>2013-12-22T16:30:05</time>
      </trkpt>
      <trkpt lat="43.16816" lon="0.8768">
        <ele>444.4</ele>
        <time>2013-12-22T16:30:06</time>
      </trkpt>
      <trkpt lat="43.16815" lon="0.87681">
        <ele>444.2</ele>
        <time>2013-12-22T16:30:07</time>
      </trkpt>
      <trkpt lat="43.16815" lon="0.87682">
        <ele>444.4</ele>
        <time>2013-12-22T16:30:08</time>
      </trkpt>
      <trkpt lat="43.16814" lon="0.87683">
        <ele>444.8</ele>
        <time>2013-12-22T16:30:09</time>
      </trkpt>
      <trkpt lat="43.16813" lon="0.87684">
        <ele>444.5</ele>
        <time>2013-12-22T16:30:10</time>
      </trkpt>
      <trkpt lat="43.16813" lon="0.87685">
        <ele>444</ele>
        <time>2013-12-22T16:30:11</time>
      </trkpt>
      <trkpt lat="43.16812" lon="0.87686">
        <ele>444</ele>
        <time>2013-12-22T16:30:12</time>
      </trkpt>
      <trkpt lat="43.16811" lon="0.87687">
        <ele>444</ele>
        <time>2013-12-22T16:30:13</time>
      </trkpt>
      <trkpt lat="43.16811" lon="0.87688">
        <ele>443.8</ele>
        <time>2013-12-22T16:30:14</time>
      </trkpt>
      <trkpt lat="43.1681" lon="0.87689">
        <ele>443.9</ele>
        <time>2013-12-22T16:30:15</time>
      </trkpt>
      <trkpt lat="43.16809" lon="0.8769">
        <ele>443.5</ele>
        <time>2013-12-22T16:30:16</time>
      </trkpt>
      <trkpt lat="43.16808" lon="0.87691">
        <ele>443.5</ele>
        <time>2013-12-22T16:30:17</time>
      </trkpt>
      <trkpt lat="43.16808" lon="0.87692">
        <ele>443</ele>
        <time>2013-12-22T16:30:18</time>
      </trkpt>
      <trkpt lat="43.16807" lon="0.87693">
        <ele>443</ele>
        <time>2013-12-22T16:30:19</time>
      </trkpt>
      <trkpt lat="43.16806" lon="0.87694">
        <ele>442.6</ele>
        <time>2013-12-22T16:30:20</time>
      </trkpt>
      <trkpt lat="43.16805" lon="0.87695">
        <ele>442.6</ele>
        <time>2013-12-22T16:30:21</time>
      </trkpt>
      <trkpt lat="43.16804" lon="0.87696">
        <ele>442.1</ele>
        <time>2013-12-22T16:30:22</time>
      </trkpt>
      <trkpt lat="43.16803" lon="0.87698">
        <ele>441.4</ele>
        <time>2013-12-22T16:30:23</time>
      </trkpt>
      <trkpt lat="43.16803" lon="0.87699">
        <ele>441.3</ele>
        <time>2013-12-22T16:30:24</time>
      </trkpt>
      <trkpt lat="43.16802" lon="0.877">
        <ele>441.1</ele>
        <time>2013-12-22T16:30:25</time>
      </trkpt>
      <trkpt lat="43.16801" lon="0.87701">
        <ele>440.6</ele>
        <time>2013-12-22T16:30:26</time>
      </trkpt>
      <trkpt lat="43.168" lon="0.87702">
        <ele>440.6</ele>
        <time>2013-12-22T16:30:27</time>
      </trkpt>
      <trkpt lat="43.16799" lon="0.87703">
        <ele>440.5</ele>
        <time>2013-12-22T16:30:28</time>
      </trkpt>
      <trkpt lat="43.16798" lon="0.87704">
        <ele>439.9</ele>
        <time>2013-12-22T16:30:29</time>
      </trkpt>
      <trkpt lat="43.16798" lon="0.87705">
        <ele>439.4</ele>
        <time>2013-12-22T16:30:30</time>
      </trkpt>
      <trkpt lat="43.16797" lon="0.87706">
        <ele>439.2</ele>
        <time>2013-12-22T16:30:31</time>
      </trkpt>
      <trkpt lat="43.16796" lon="0.87707">
        <ele>439.7</ele>
        <time>2013-12-22T16:30:32</time>
      </trkpt>
      <trkpt lat="43.16795" lon="0.87708">
        <ele>439.8</ele>
        <time>2013-12-22T16:30:33</time>
      </trkpt>
      <trkpt lat="43.16794" lon="0.8771">
        <ele>439.8</ele>
        <time>2013-12-22T16:30:34</time>
      </trkpt>
      <trkpt lat="43.16793" lon="0.87711">
        <ele>439.8</ele>
        <time>2013-12-22T16:30:35</time>
      </trkpt>
      <trkpt lat="43.16793" lon="0.87712">
        <ele>439.3</ele>
        <time>2013-12-22T16:30:36</time>
      </trkpt>
      <trkpt lat="43.16792" lon="0.87713">
        <ele>439.3</ele>
        <time>2013-12-22T16:30:37</time>
      </trkpt>
      <trkpt lat="43.16791" lon="0.87714">
        <ele>439</ele>
        <time>2013-12-22T16:30:38</time>
      </trkpt>
      <trkpt lat="43.1679" lon="0.87715">
        <ele>439.2</ele>
        <time>2013-12-22T16:30:39</time>
      </trkpt>
      <trkpt lat="43.16789" lon="0.87717">
        <ele>439</ele>
        <time>2013-12-22T16:30:40</time>
      </trkpt>
      <trkpt lat="43.16789" lon="0.87718">
        <ele>438.8</ele>
        <time>2013-12-22T16:30:41</time>
      </trkpt>
      <trkpt lat="43.16787" lon="0.87719">
        <ele>438.7</ele>
        <time>2013-12-22T16:30:42</time>
      </trkpt>
      <trkpt lat="43.16787" lon="0.8772">
        <ele>438.5</ele>
        <time>2013-12-22T16:30:43</time>
      </trkpt>
      <trkpt lat="43.16786" lon="0.87721">
        <ele>438.3</ele>
        <time>2013-12-22T16:30:44</time>
      </trkpt>
      <trkpt lat="43.16785" lon="0.87722">
        <ele>438</ele>
        <time>2013-12-22T16:30:45</time>
      </trkpt>
      <trkpt lat="43.16784" lon="0.87724">
        <ele>437.8</ele>
        <time>2013-12-22T16:30:46</time>
      </trkpt>
      <trkpt lat="43.16783" lon="0.87725">
        <ele>438.2</ele>
        <time>2013-12-22T16:30:47</time>
      </trkpt>
      <trkpt lat="43.16782" lon="0.87726">
        <ele>437.9</ele>
        <time>2013-12-22T16:30:48</time>
      </trkpt>
      <trkpt lat="43.16782" lon="0.87727">
        <ele>437.8</ele>
        <time>2013-12-22T16:30:49</time>
      </trkpt>
      <trkpt lat="43.16781" lon="0.87728">
        <ele>437.4</ele>
        <time>2013-12-22T16:30:56</time>
      </trkpt>
      <trkpt lat="43.16781" lon="0.87728">
        <ele>437.5</ele>
        <time>2013-12-22T16:30:57</time>
      </trkpt>
      <trkpt lat="43.1678" lon="0.87729">
        <ele>437.2</ele>
        <time>2013-12-22T16:30:58</time>
      </trkpt>
      <trkpt lat="43.16779" lon="0.87731">
        <ele>436.6</ele>
        <time>2013-12-22T16:30:59</time>
      </trkpt>
      <trkpt lat="43.16778" lon="0.87732">
        <ele>436.3</ele>
        <time>2013-12-22T16:31:00</time>
      </trkpt>
      <trkpt lat="43.16777" lon="0.87733">
        <ele>436.6</ele>
        <time>2013-12-22T16:31:01</time>
      </trkpt>
      <trkpt lat="43.16776" lon="0.87734">
        <ele>435.9</ele>
        <time>2013-12-22T16:31:02</time>
      </trkpt>
      <trkpt lat="43.16776" lon="0.87735">
        <ele>435.7</ele>
        <time>2013-12-22T16:31:03</time>
      </trkpt>
      <trkpt lat="43.16775" lon="0.87736">
        <ele>435.3</ele>
        <time>2013-12-22T16:31:04</time>
      </trkpt>
      <trkpt lat="43.16774" lon="0.87737">
        <ele>435.2</ele>
        <time>2013-12-22T16:31:05</time>
      </trkpt>
      <trkpt lat="43.16773" lon="0.87738">
        <ele>435</ele>
        <time>2013-12-22T16:31:06</time>
      </trkpt>
      <trkpt lat="43.16772" lon="0.87739">
        <ele>434.7</ele>
        <time>2013-12-22T16:31:07</time>
      </trkpt>
      <trkpt lat="43.16771" lon="0.8774">
        <ele>434.8</ele>
        <time>2013-12-22T16:31:08</time>
      </trkpt>
      <trkpt lat="43.1677" lon="0.87742">
        <ele>434.8</ele>
        <time>2013-12-22T16:31:09</time>
      </trkpt>
      <trkpt lat="43.16769" lon="0.87743">
        <ele>434.9</ele>
        <time>2013-12-22T16:31:10</time>
      </trkpt>
      <trkpt lat="43.16768" lon="0.87744">
        <ele>434.4</ele>
        <time>2013-12-22T16:31:11</time>
      </trkpt>
      <trkpt lat="43.16768" lon="0.87745">
        <ele>434.2</ele>
        <time>2013-12-22T16:31:12</time>
      </trkpt>
      <trkpt lat="43.16767" lon="0.87746">
        <ele>434.6</ele>
        <time>2013-12-22T16:31:13</time>
      </trkpt>
      <trkpt lat="43.16766" lon="0.87746">
        <ele>434.3</ele>
        <time>2013-12-22T16:31:14</time>
      </trkpt>
      <trkpt lat="43.16765" lon="0.87747">
        <ele>434.5</ele>
        <time>2013-12-22T16:31:15</time>
      </trkpt>
      <trkpt lat="43.16764" lon="0.87749">
        <ele>434.7</ele>
        <time>2013-12-22T16:31:16</time>
      </trkpt>
      <trkpt lat="43.16763" lon="0.8775">
        <ele>434.5</ele>
        <time>2013-12-22T16:31:17</time>
      </trkpt>
      <trkpt lat="43.16762" lon="0.8775">
        <ele>434.7</ele>
        <time>2013-12-22T16:31:18</time>
      </trkpt>
      <trkpt lat="43.16761" lon="0.87751">
        <ele>434</ele>
        <time>2013-12-22T16:31:19</time>
      </trkpt>
      <trkpt lat="43.16761" lon="0.87753">
        <ele>433.9</ele>
        <time>2013-12-22T16:31:20</time>
      </trkpt>
      <trkpt lat="43.1676" lon="0.87754">
        <ele>433.9</ele>
        <time>2013-12-22T16:31:21</time>
      </trkpt>
      <trkpt lat="43.16759" lon="0.87755">
        <ele>433.5</ele>
        <time>2013-12-22T16:31:22</time>
      </trkpt>
      <trkpt lat="43.16758" lon="0.87756">
        <ele>432.9</ele>
        <time>2013-12-22T16:31:23</time>
      </trkpt>
      <trkpt lat="43.16758" lon="0.87756">
        <ele>432.7</ele>
        <time>2013-12-22T16:31:24</time>
      </trkpt>
      <trkpt lat="43.16756" lon="0.87757">
        <ele>432.8</ele>
        <time>2013-12-22T16:31:25</time>
      </trkpt>
      <trkpt lat="43.16756" lon="0.87758">
        <ele>432.5</ele>
        <time>2013-12-22T16:31:26</time>
      </trkpt>
      <trkpt lat="43.16755" lon="0.87759">
        <ele>432.9</ele>
        <time>2013-12-22T16:31:27</time>
      </trkpt>
      <trkpt lat="43.16754" lon="0.8776">
        <ele>432.9</ele>
        <time>2013-12-22T16:31:28</time>
      </trkpt>
      <trkpt lat="43.16753" lon="0.87761">
        <ele>432.4</ele>
        <time>2013-12-22T16:31:29</time>
      </trkpt>
      <trkpt lat="43.16753" lon="0.87762">
        <ele>432.5</ele>
        <time>2013-12-22T16:31:30</time>
      </trkpt>
      <trkpt lat="43.16752" lon="0.87763">
        <ele>432.5</ele>
        <time>2013-12-22T16:31:31</time>
      </trkpt>
      <trkpt lat="43.16751" lon="0.87763">
        <ele>432.4</ele>
        <time>2013-12-22T16:31:32</time>
      </trkpt>
      <trkpt lat="43.1675" lon="0.87764">
        <ele>432.8</ele>
        <time>2013-12-22T16:31:33</time>
      </trkpt>
      <trkpt lat="43.16749" lon="0.87765">
        <ele>432.9</ele>
        <time>2013-12-22T16:31:34</time>
      </trkpt>
      <trkpt lat="43.16748" lon="0.87766">
        <ele>433</ele>
        <time>2013-12-22T16:31:35</time>
      </trkpt>
      <trkpt lat="43.16748" lon="0.87767">
        <ele>433.2</ele>
        <time>2013-12-22T16:31:36</time>
      </trkpt>
      <trkpt lat="43.16747" lon="0.87768">
        <ele>433.4</ele>
        <time>2013-12-22T16:31:37</time>
      </trkpt>
      <trkpt lat="43.16746" lon="0.8777">
        <ele>433.6</ele>
        <time>2013-12-22T16:31:38</time>
      </trkpt>
      <trkpt lat="43.16745" lon="0.87771">
        <ele>433.9</ele>
        <time>2013-12-22T16:31:39</time>
      </trkpt>
      <trkpt lat="43.16745" lon="0.87772">
        <ele>433.9</ele>
        <time>2013-12-22T16:31:40</time>
      </trkpt>
      <trkpt lat="43.16744" lon="0.87773">
        <ele>433.9</ele>
        <time>2013-12-22T16:31:41</time>
      </trkpt>
      <trkpt lat="43.16743" lon="0.87774">
        <ele>434.1</ele>
        <time>2013-12-22T16:31:42</time>
      </trkpt>
      <trkpt lat="43.16742" lon="0.87775">
        <ele>434.2</ele>
        <time>2013-12-22T16:31:43</time>
      </trkpt>
      <trkpt lat="43.16741" lon="0.87776">
        <ele>434</ele>
        <time>2013-12-22T16:31:44</time>
      </trkpt>
      <trkpt lat="43.1674" lon="0.87777">
        <ele>433.7</ele>
        <time>2013-12-22T16:31:45</time>
      </trkpt>
      <trkpt lat="43.16739" lon="0.87778">
        <ele>433.9</ele>
        <time>2013-12-22T16:31:46</time>
      </trkpt>
      <trkpt lat="43.16739" lon="0.8778">
        <ele>434</ele>
        <time>2013-12-22T16:31:47</time>
      </trkpt>
      <trkpt lat="43.16738" lon="0.87781">
        <ele>434.2</ele>
        <time>2013-12-22T16:31:48</time>
      </trkpt>
      <trkpt lat="43.16737" lon="0.87782">
        <ele>434</ele>
        <time>2013-12-22T16:31:49</time>
      </trkpt>
      <trkpt lat="43.16737" lon="0.87783">
        <ele>434</ele>
        <time>2013-12-22T16:31:50</time>
      </trkpt>
      <trkpt lat="43.16736" lon="0.87784">
        <ele>433.9</ele>
        <time>2013-12-22T16:31:51</time>
      </trkpt>
      <trkpt lat="43.16735" lon="0.87785">
        <ele>434.2</ele>
        <time>2013-12-22T16:31:52</time>
      </trkpt>
      <trkpt lat="43.16734" lon="0.87786">
        <ele>434.5</ele>
        <time>2013-12-22T16:31:53</time>
      </trkpt>
      <trkpt lat="43.16734" lon="0.87787">
        <ele>434.3</ele>
        <time>2013-12-22T16:31:54</time>
      </trkpt>
      <trkpt lat="43.16733" lon="0.87788">
        <ele>434.3</ele>
        <time>2013-12-22T16:31:55</time>
      </trkpt>
      <trkpt lat="43.16732" lon="0.87788">
        <ele>434.1</ele>
        <time>2013-12-22T16:31:56</time>
      </trkpt>
      <trkpt lat="43.16731" lon="0.87789">
        <ele>434.1</ele>
        <time>2013-12-22T16:31:57</time>
      </trkpt>
      <trkpt lat="43.16731" lon="0.8779">
        <ele>433.8</ele>
        <time>2013-12-22T16:31:58</time>
      </trkpt>
      <trkpt lat="43.1673" lon="0.87791">
        <ele>434</ele>
        <time>2013-12-22T16:31:59</time>
      </trkpt>
      <trkpt lat="43.16729" lon="0.87792">
        <ele>434.1</ele>
        <time>2013-12-22T16:32:00</time>
      </trkpt>
      <trkpt lat="43.16729" lon="0.87793">
        <ele>434.1</ele>
        <time>2013-12-22T16:32:01</time>
      </trkpt>
      <trkpt lat="43.16728" lon="0.87794">
        <ele>434.2</ele>
        <time>2013-12-22T16:32:02</time>
      </trkpt>
      <trkpt lat="43.16727" lon="0.87795">
        <ele>434.2</ele>
        <time>2013-12-22T16:32:03</time>
      </trkpt>
      <trkpt lat="43.16726" lon="0.87796">
        <ele>434.3</ele>
        <time>2013-12-22T16:32:04</time>
      </trkpt>
      <trkpt lat="43.16726" lon="0.87797">
        <ele>434.4</ele>
        <time>2013-12-22T16:32:05</time>
      </trkpt>
      <trkpt lat="43.16724" lon="0.87797">
        <ele>433.9</ele>
        <time>2013-12-22T16:32:06</time>
      </trkpt>
      <trkpt lat="43.16724" lon="0.87798">
        <ele>433.9</ele>
        <time>2013-12-22T16:32:07</time>
      </trkpt>
      <trkpt lat="43.16723" lon="0.87799">
        <ele>433.9</ele>
        <time>2013-12-22T16:32:08</time>
      </trkpt>
      <trkpt lat="43.16722" lon="0.878">
        <ele>433.3</ele>
        <time>2013-12-22T16:32:09</time>
      </trkpt>
      <trkpt lat="43.16721" lon="0.87801">
        <ele>433.9</ele>
        <time>2013-12-22T16:32:10</time>
      </trkpt>
      <trkpt lat="43.1672" lon="0.87802">
        <ele>434.4</ele>
        <time>2013-12-22T16:32:15</time>
      </trkpt>
      <trkpt lat="43.16719" lon="0.87803">
        <ele>434.5</ele>
        <time>2013-12-22T16:32:16</time>
      </trkpt>
      <trkpt lat="43.16719" lon="0.87804">
        <ele>434.4</ele>
        <time>2013-12-22T16:32:17</time>
      </trkpt>
      <trkpt lat="43.16718" lon="0.87805">
        <ele>434.3</ele>
        <time>2013-12-22T16:32:18</time>
      </trkpt>
      <trkpt lat="43.16717" lon="0.87806">
        <ele>434.2</ele>
        <time>2013-12-22T16:32:19</time>
      </trkpt>
      <trkpt lat="43.16716" lon="0.87807">
        <ele>433.9</ele>
        <time>2013-12-22T16:32:20</time>
      </trkpt>
      <trkpt lat="43.16715" lon="0.87808">
        <ele>433.7</ele>
        <time>2013-12-22T16:32:21</time>
      </trkpt>
      <trkpt lat="43.16715" lon="0.87809">
        <ele>433.6</ele>
        <time>2013-12-22T16:32:22</time>
      </trkpt>
      <trkpt lat="43.16714" lon="0.8781">
        <ele>433.2</ele>
        <time>2013-12-22T16:32:23</time>
      </trkpt>
      <trkpt lat="43.16713" lon="0.87811">
        <ele>432.8</ele>
        <time>2013-12-22T16:32:24</time>
      </trkpt>
      <trkpt lat="43.16712" lon="0.87812">
        <ele>432.4</ele>
        <time>2013-12-22T16:32:25</time>
      </trkpt>
      <trkpt lat="43.16711" lon="0.87812">
        <ele>432.6</ele>
        <time>2013-12-22T16:32:26</time>
      </trkpt>
      <trkpt lat="43.16711" lon="0.87813">
        <ele>432.1</ele>
        <time>2013-12-22T16:32:27</time>
      </trkpt>
      <trkpt lat="43.1671" lon="0.87814">
        <ele>432</ele>
        <time>2013-12-22T16:32:28</time>
      </trkpt>
      <trkpt lat="43.1671" lon="0.87815">
        <ele>431.6</ele>
        <time>2013-12-22T16:32:29</time>
      </trkpt>
      <trkpt lat="43.16709" lon="0.87816">
        <ele>431.6</ele>
        <time>2013-12-22T16:32:30</time>
      </trkpt>
      <trkpt lat="43.16708" lon="0.87817">
        <ele>431.3</ele>
        <time>2013-12-22T16:32:31</time>
      </trkpt>
      <trkpt lat="43.16708" lon="0.87818">
        <ele>431.4</ele>
        <time>2013-12-22T16:32:32</time>
      </trkpt>
      <trkpt lat="43.16707" lon="0.87819">
        <ele>431.3</ele>
        <time>2013-12-22T16:32:33</time>
      </trkpt>
      <trkpt lat="43.16707" lon="0.8782">
        <ele>431.2</ele>
        <time>2013-12-22T16:32:34</time>
      </trkpt>
      <trkpt lat="43.16706" lon="0.87821">
        <ele>431.3</ele>
        <time>2013-12-22T16:32:35</time>
      </trkpt>
      <trkpt lat="43.16705" lon="0.87821">
        <ele>431.2</ele>
        <time>2013-12-22T16:32:36</time>
      </trkpt>
      <trkpt lat="43.16705" lon="0.87822">
        <ele>431.2</ele>
        <time>2013-12-22T16:32:37</time>
      </trkpt>
      <trkpt lat="43.16704" lon="0.87823">
        <ele>431</ele>
        <time>2013-12-22T16:32:38</time>
      </trkpt>
      <trkpt lat="43.16703" lon="0.87824">
        <ele>430.8</ele>
        <time>2013-12-22T16:32:39</time>
      </trkpt>
      <trkpt lat="43.16703" lon="0.87824">
        <ele>430.8</ele>
        <time>2013-12-22T16:32:40</time>
      </trkpt>
      <trkpt lat="43.16702" lon="0.87825">
        <ele>430.9</ele>
        <time>2013-12-22T16:32:41</time>
      </trkpt>
      <trkpt lat="43.16701" lon="0.87826">
        <ele>430.8</ele>
        <time>2013-12-22T16:32:42</time>
      </trkpt>
      <trkpt lat="43.167" lon="0.87827">
        <ele>430.8</ele>
        <time>2013-12-22T16:32:43</time>
      </trkpt>
      <trkpt lat="43.167" lon="0.87828">
        <ele>430.7</ele>
        <time>2013-12-22T16:32:44</time>
      </trkpt>
      <trkpt lat="43.16699" lon="0.87829">
        <ele>430.5</ele>
        <time>2013-12-22T16:32:45</time>
      </trkpt>
      <trkpt lat="43.16699" lon="0.8783">
        <ele>431</ele>
        <time>2013-12-22T16:32:46</time>
      </trkpt>
      <trkpt lat="43.16698" lon="0.87831">
        <ele>430.7</ele>
        <time>2013-12-22T16:32:47</time>
      </trkpt>
      <trkpt lat="43.16697" lon="0.87832">
        <ele>430.5</ele>
        <time>2013-12-22T16:32:48</time>
      </trkpt>
      <trkpt lat="43.16697" lon="0.87833">
        <ele>430.1</ele>
        <time>2013-12-22T16:32:49</time>
      </trkpt>
      <trkpt lat="43.16696" lon="0.87834">
        <ele>429.9</ele>
        <time>2013-12-22T16:32:50</time>
      </trkpt>
      <trkpt lat="43.16695" lon="0.87835">
        <ele>429.6</ele>
        <time>2013-12-22T16:32:51</time>
      </trkpt>
      <trkpt lat="43.16694" lon="0.87836">
        <ele>430</ele>
        <time>2013-12-22T16:32:52</time>
      </trkpt>
      <trkpt lat="43.16694" lon="0.87837">
        <ele>430.3</ele>
        <time>2013-12-22T16:32:53</time>
      </trkpt>
      <trkpt lat="43.16693" lon="0.87838">
        <ele>430.2</ele>
        <time>2013-12-22T16:32:54</time>
      </trkpt>
      <trkpt lat="43.16692" lon="0.87839">
        <ele>430.4</ele>
        <time>2013-12-22T16:32:55</time>
      </trkpt>
      <trkpt lat="43.16692" lon="0.87841">
        <ele>430.4</ele>
        <time>2013-12-22T16:32:56</time>
      </trkpt>
      <trkpt lat="43.16691" lon="0.87842">
        <ele>430.7</ele>
        <time>2013-12-22T16:32:57</time>
      </trkpt>
      <trkpt lat="43.16691" lon="0.87843">
        <ele>430.8</ele>
        <time>2013-12-22T16:32:58</time>
      </trkpt>
      <trkpt lat="43.1669" lon="0.87845">
        <ele>431.3</ele>
        <time>2013-12-22T16:32:59</time>
      </trkpt>
      <trkpt lat="43.1669" lon="0.87846">
        <ele>431.6</ele>
        <time>2013-12-22T16:33:00</time>
      </trkpt>
      <trkpt lat="43.16689" lon="0.87847">
        <ele>431</ele>
        <time>2013-12-22T16:33:01</time>
      </trkpt>
      <trkpt lat="43.16689" lon="0.87849">
        <ele>431</ele>
        <time>2013-12-22T16:33:02</time>
      </trkpt>
      <trkpt lat="43.16688" lon="0.8785">
        <ele>431.2</ele>
        <time>2013-12-22T16:33:03</time>
      </trkpt>
      <trkpt lat="43.16688" lon="0.87851">
        <ele>431.2</ele>
        <time>2013-12-22T16:33:04</time>
      </trkpt>
      <trkpt lat="43.16687" lon="0.87853">
        <ele>431.1</ele>
        <time>2013-12-22T16:33:05</time>
      </trkpt>
      <trkpt lat="43.16687" lon="0.87854">
        <ele>431.7</ele>
        <time>2013-12-22T16:33:06</time>
      </trkpt>
      <trkpt lat="43.16687" lon="0.87855">
        <ele>431.9</ele>
        <time>2013-12-22T16:33:07</time>
      </trkpt>
      <trkpt lat="43.16686" lon="0.87857">
        <ele>432.1</ele>
        <time>2013-12-22T16:33:08</time>
      </trkpt>
      <trkpt lat="43.16686" lon="0.87858">
        <ele>432</ele>
        <time>2013-12-22T16:33:09</time>
      </trkpt>
      <trkpt lat="43.16685" lon="0.87859">
        <ele>431.9</ele>
        <time>2013-12-22T16:33:10</time>
      </trkpt>
      <trkpt lat="43.16685" lon="0.87861">
        <ele>431.4</ele>
        <time>2013-12-22T16:33:11</time>
      </trkpt>
      <trkpt lat="43.16684" lon="0.87862">
        <ele>431.2</ele>
        <time>2013-12-22T16:33:12</time>
      </trkpt>
      <trkpt lat="43.16684" lon="0.87863">
        <ele>431</ele>
        <time>2013-12-22T16:33:13</time>
      </trkpt>
      <trkpt lat="43.16684" lon="0.87865">
        <ele>431.2</ele>
        <time>2013-12-22T16:33:14</time>
      </trkpt>
      <trkpt lat="43.16683" lon="0.87866">
        <ele>431</ele>
        <time>2013-12-22T16:33:15</time>
      </trkpt>
      <trkpt lat="43.16682" lon="0.87867">
        <ele>431.2</ele>
        <time>2013-12-22T16:33:16</time>
      </trkpt>
      <trkpt lat="43.16682" lon="0.87869">
        <ele>431.4</ele>
        <time>2013-12-22T16:33:17</time>
      </trkpt>
      <trkpt lat="43.16682" lon="0.8787">
        <ele>431.7</ele>
        <time>2013-12-22T16:33:18</time>
      </trkpt>
      <trkpt lat="43.16681" lon="0.87872">
        <ele>431.7</ele>
        <time>2013-12-22T16:33:19</time>
      </trkpt>
      <trkpt lat="43.16681" lon="0.87873">
        <ele>431.7</ele>
        <time>2013-12-22T16:33:20</time>
      </trkpt>
      <trkpt lat="43.1668" lon="0.87874">
        <ele>432.1</ele>
        <time>2013-12-22T16:33:21</time>
      </trkpt>
      <trkpt lat="43.16679" lon="0.87876">
        <ele>432.2</ele>
        <time>2013-12-22T16:33:22</time>
      </trkpt>
      <trkpt lat="43.16679" lon="0.87877">
        <ele>432.2</ele>
        <time>2013-12-22T16:33:23</time>
      </trkpt>
      <trkpt lat="43.16678" lon="0.87878">
        <ele>432.6</ele>
        <time>2013-12-22T16:33:24</time>
      </trkpt>
      <trkpt lat="43.16678" lon="0.8788">
        <ele>432.2</ele>
        <time>2013-12-22T16:33:25</time>
      </trkpt>
      <trkpt lat="43.16677" lon="0.87881">
        <ele>432.1</ele>
        <time>2013-12-22T16:33:26</time>
      </trkpt>
      <trkpt lat="43.16677" lon="0.87882">
        <ele>432</ele>
        <time>2013-12-22T16:33:27</time>
      </trkpt>
      <trkpt lat="43.16676" lon="0.87884">
        <ele>432</ele>
        <time>2013-12-22T16:33:28</time>
      </trkpt>
      <trkpt lat="43.16676" lon="0.87885">
        <ele>432</ele>
        <time>2013-12-22T16:33:29</time>
      </trkpt>
      <trkpt lat="43.16675" lon="0.87886">
        <ele>432</ele>
        <time>2013-12-22T16:33:30</time>
      </trkpt>
      <trkpt lat="43.16674" lon="0.87887">
        <ele>432.2</ele>
        <time>2013-12-22T16:33:31</time>
      </trkpt>
      <trkpt lat="43.16674" lon="0.87888">
        <ele>432.1</ele>
        <time>2013-12-22T16:33:32</time>
      </trkpt>
      <trkpt lat="43.16673" lon="0.8789">
        <ele>432.2</ele>
        <time>2013-12-22T16:33:33</time>
      </trkpt>
      <trkpt lat="43.16673" lon="0.87891">
        <ele>431.8</ele>
        <time>2013-12-22T16:33:34</time>
      </trkpt>
      <trkpt lat="43.16672" lon="0.87892">
        <ele>432</ele>
        <time>2013-12-22T16:33:35</time>
      </trkpt>
      <trkpt lat="43.16671" lon="0.87894">
        <ele>431.7</ele>
        <time>2013-12-22T16:33:36</time>
      </trkpt>
      <trkpt lat="43.16671" lon="0.87895">
        <ele>431.6</ele>
        <time>2013-12-22T16:33:37</time>
      </trkpt>
      <trkpt lat="43.16671" lon="0.87896">
        <ele>431.1</ele>
        <time>2013-12-22T16:33:38</time>
      </trkpt>
      <trkpt lat="43.1667" lon="0.87898">
        <ele>431.2</ele>
        <time>2013-12-22T16:33:39</time>
      </trkpt>
      <trkpt lat="43.1667" lon="0.87899">
        <ele>431.8</ele>
        <time>2013-12-22T16:33:40</time>
      </trkpt>
      <trkpt lat="43.1667" lon="0.87901">
        <ele>431.6</ele>
        <time>2013-12-22T16:33:41</time>
      </trkpt>
      <trkpt lat="43.16669" lon="0.87902">
        <ele>431.6</ele>
        <time>2013-12-22T16:33:42</time>
      </trkpt>
      <trkpt lat="43.16669" lon="0.87903">
        <ele>431.4</ele>
        <time>2013-12-22T16:33:43</time>
      </trkpt>
      <trkpt lat="43.16668" lon="0.87905">
        <ele>431</ele>
        <time>2013-12-22T16:33:44</time>
      </trkpt>
      <trkpt lat="43.16668" lon="0.87906">
        <ele>430.8</ele>
        <time>2013-12-22T16:33:45</time>
      </trkpt>
      <trkpt lat="43.16668" lon="0.87908">
        <ele>431.3</ele>
        <time>2013-12-22T16:33:46</time>
      </trkpt>
      <trkpt lat="43.16668" lon="0.87909">
        <ele>431.2</ele>
        <time>2013-12-22T16:33:47</time>
      </trkpt>
      <trkpt lat="43.16668" lon="0.8791">
        <ele>430.3</ele>
        <time>2013-12-22T16:33:48</time>
      </trkpt>
      <trkpt lat="43.16669" lon="0.87912">
        <ele>431</ele>
        <time>2013-12-22T16:33:49</time>
      </trkpt>
      <trkpt lat="43.1667" lon="0.87913">
        <ele>431.1</ele>
        <time>2013-12-22T16:33:50</time>
      </trkpt>
      <trkpt lat="43.16671" lon="0.87913">
        <ele>429.8</ele>
        <time>2013-12-22T16:33:51</time>
      </trkpt>
      <trkpt lat="43.16672" lon="0.87914">
        <ele>429</ele>
        <time>2013-12-22T16:33:52</time>
      </trkpt>
      <trkpt lat="43.16673" lon="0.87914">
        <ele>429.1</ele>
        <time>2013-12-22T16:33:53</time>
      </trkpt>
      <trkpt lat="43.16673" lon="0.87913">
        <ele>427.7</ele>
        <time>2013-12-22T16:34:11</time>
      </trkpt>
      <trkpt lat="43.16674" lon="0.87914">
        <ele>427.6</ele>
        <time>2013-12-22T16:34:12</time>
      </trkpt>
      <trkpt lat="43.16674" lon="0.87915">
        <ele>427.8</ele>
        <time>2013-12-22T16:34:13</time>
      </trkpt>
      <trkpt lat="43.16676" lon="0.87916">
        <ele>427.9</ele>
        <time>2013-12-22T16:34:14</time>
      </trkpt>
      <trkpt lat="43.16676" lon="0.87916">
        <ele>427.4</ele>
        <time>2013-12-22T16:34:15</time>
      </trkpt>
      <trkpt lat="43.16677" lon="0.87917">
        <ele>427.2</ele>
        <time>2013-12-22T16:34:16</time>
      </trkpt>
      <trkpt lat="43.16678" lon="0.87918">
        <ele>427</ele>
        <time>2013-12-22T16:34:17</time>
      </trkpt>
      <trkpt lat="43.16679" lon="0.87919">
        <ele>426.9</ele>
        <time>2013-12-22T16:34:18</time>
      </trkpt>
      <trkpt lat="43.1668" lon="0.8792">
        <ele>426.7</ele>
        <time>2013-12-22T16:34:19</time>
      </trkpt>
      <trkpt lat="43.16681" lon="0.8792">
        <ele>426.7</ele>
        <time>2013-12-22T16:34:20</time>
      </trkpt>
      <trkpt lat="43.16682" lon="0.87921">
        <ele>426.6</ele>
        <time>2013-12-22T16:34:21</time>
      </trkpt>
      <trkpt lat="43.16682" lon="0.87922">
        <ele>426.7</ele>
        <time>2013-12-22T16:34:22</time>
      </trkpt>
      <trkpt lat="43.16683" lon="0.87922">
        <ele>426.8</ele>
        <time>2013-12-22T16:34:23</time>
      </trkpt>
      <trkpt lat="43.16684" lon="0.87923">
        <ele>426.9</ele>
        <time>2013-12-22T16:34:24</time>
      </trkpt>
      <trkpt lat="43.16685" lon="0.87923">
        <ele>426.8</ele>
        <time>2013-12-22T16:34:25</time>
      </trkpt>
      <trkpt lat="43.16686" lon="0.87924">
        <ele>426.7</ele>
        <time>2013-12-22T16:34:26</time>
      </trkpt>
      <trkpt lat="43.16687" lon="0.87924">
        <ele>426.7</ele>
        <time>2013-12-22T16:34:27</time>
      </trkpt>
      <trkpt lat="43.16688" lon="0.87925">
        <ele>426.7</ele>
        <time>2013-12-22T16:34:28</time>
      </trkpt>
      <trkpt lat="43.16689" lon="0.87926">
        <ele>426.8</ele>
        <time>2013-12-22T16:34:29</time>
      </trkpt>
      <trkpt lat="43.1669" lon="0.87927">
        <ele>426.6</ele>
        <time>2013-12-22T16:34:30</time>
      </trkpt>
      <trkpt lat="43.16691" lon="0.87928">
        <ele>426.6</ele>
        <time>2013-12-22T16:34:31</time>
      </trkpt>
      <trkpt lat="43.16692" lon="0.87929">
        <ele>426.6</ele>
        <time>2013-12-22T16:34:32</time>
      </trkpt>
      <trkpt lat="43.16693" lon="0.87929">
        <ele>426.3</ele>
        <time>2013-12-22T16:34:33</time>
      </trkpt>
      <trkpt lat="43.16694" lon="0.8793">
        <ele>426.4</ele>
        <time>2013-12-22T16:34:34</time>
      </trkpt>
      <trkpt lat="43.16695" lon="0.8793">
        <ele>426.6</ele>
        <time>2013-12-22T16:34:35</time>
      </trkpt>
      <trkpt lat="43.16695" lon="0.87931">
        <ele>426.6</ele>
        <time>2013-12-22T16:34:36</time>
      </trkpt>
      <trkpt lat="43.16697" lon="0.87932">
        <ele>426.3</ele>
        <time>2013-12-22T16:34:37</time>
      </trkpt>
      <trkpt lat="43.16697" lon="0.87933">
        <ele>426.4</ele>
        <time>2013-12-22T16:34:38</time>
      </trkpt>
      <trkpt lat="43.16699" lon="0.87934">
        <ele>426.5</ele>
        <time>2013-12-22T16:34:39</time>
      </trkpt>
      <trkpt lat="43.16699" lon="0.87935">
        <ele>426.2</ele>
        <time>2013-12-22T16:34:40</time>
      </trkpt>
      <trkpt lat="43.167" lon="0.87935">
        <ele>426.4</ele>
        <time>2013-12-22T16:34:41</time>
      </trkpt>
      <trkpt lat="43.16702" lon="0.87936">
        <ele>426.5</ele>
        <time>2013-12-22T16:34:42</time>
      </trkpt>
      <trkpt lat="43.16702" lon="0.87937">
        <ele>426.5</ele>
        <time>2013-12-22T16:34:43</time>
      </trkpt>
      <trkpt lat="43.16703" lon="0.87937">
        <ele>426.2</ele>
        <time>2013-12-22T16:34:44</time>
      </trkpt>
      <trkpt lat="43.16704" lon="0.87938">
        <ele>426.2</ele>
        <time>2013-12-22T16:34:45</time>
      </trkpt>
      <trkpt lat="43.16705" lon="0.87939">
        <ele>426</ele>
        <time>2013-12-22T16:34:46</time>
      </trkpt>
      <trkpt lat="43.16707" lon="0.8794">
        <ele>425.8</ele>
        <time>2013-12-22T16:34:47</time>
      </trkpt>
      <trkpt lat="43.16707" lon="0.87941">
        <ele>425.7</ele>
        <time>2013-12-22T16:34:48</time>
      </trkpt>
      <trkpt lat="43.16708" lon="0.87941">
        <ele>425.3</ele>
        <time>2013-12-22T16:34:49</time>
      </trkpt>
      <trkpt lat="43.16709" lon="0.87942">
        <ele>425</ele>
        <time>2013-12-22T16:34:50</time>
      </trkpt>
      <trkpt lat="43.1671" lon="0.87943">
        <ele>424.9</ele>
        <time>2013-12-22T16:34:51</time>
      </trkpt>
      <trkpt lat="43.1671" lon="0.87944">
        <ele>425</ele>
        <time>2013-12-22T16:34:52</time>
      </trkpt>
      <trkpt lat="43.16711" lon="0.87944">
        <ele>424.8</ele>
        <time>2013-12-22T16:34:53</time>
      </trkpt>
      <trkpt lat="43.16712" lon="0.87945">
        <ele>424.8</ele>
        <time>2013-12-22T16:34:54</time>
      </trkpt>
      <trkpt lat="43.16713" lon="0.87946">
        <ele>424.7</ele>
        <time>2013-12-22T16:34:55</time>
      </trkpt>
      <trkpt lat="43.16713" lon="0.87947">
        <ele>425</ele>
        <time>2013-12-22T16:34:56</time>
      </trkpt>
      <trkpt lat="43.16714" lon="0.87948">
        <ele>424.7</ele>
        <time>2013-12-22T16:34:57</time>
      </trkpt>
      <trkpt lat="43.16715" lon="0.87948">
        <ele>424.9</ele>
        <time>2013-12-22T16:34:58</time>
      </trkpt>
      <trkpt lat="43.16716" lon="0.87949">
        <ele>425.1</ele>
        <time>2013-12-22T16:34:59</time>
      </trkpt>
      <trkpt lat="43.16717" lon="0.87949">
        <ele>425</ele>
        <time>2013-12-22T16:35:00</time>
      </trkpt>
      <trkpt lat="43.16718" lon="0.8795">
        <ele>425.1</ele>
        <time>2013-12-22T16:35:01</time>
      </trkpt>
      <trkpt lat="43.16719" lon="0.87951">
        <ele>425.2</ele>
        <time>2013-12-22T16:35:02</time>
      </trkpt>
      <trkpt lat="43.16719" lon="0.87951">
        <ele>425.5</ele>
        <time>2013-12-22T16:35:03</time>
      </trkpt>
      <trkpt lat="43.1672" lon="0.87952">
        <ele>425.3</ele>
        <time>2013-12-22T16:35:04</time>
      </trkpt>
      <trkpt lat="43.16721" lon="0.87952">
        <ele>410.3</ele>
        <time>2013-12-22T16:35:05</time>
      </trkpt>
      <trkpt lat="43.16721" lon="0.87953">
        <ele>413.5</ele>
        <time>2013-12-22T16:35:06</time>
      </trkpt>
      <trkpt lat="43.16722" lon="0.87954">
        <ele>422.6</ele>
        <time>2013-12-22T16:35:17</time>
      </trkpt>
      <trkpt lat="43.16723" lon="0.87954">
        <ele>422.5</ele>
        <time>2013-12-22T16:35:18</time>
      </trkpt>
      <trkpt lat="43.16724" lon="0.87955">
        <ele>423</ele>
        <time>2013-12-22T16:35:19</time>
      </trkpt>
      <trkpt lat="43.16724" lon="0.87955">
        <ele>422.8</ele>
        <time>2013-12-22T16:35:20</time>
      </trkpt>
      <trkpt lat="43.16725" lon="0.87956">
        <ele>423.8</ele>
        <time>2013-12-22T16:35:21</time>
      </trkpt>
      <trkpt lat="43.16726" lon="0.87957">
        <ele>424.6</ele>
        <time>2013-12-22T16:35:22</time>
      </trkpt>
      <trkpt lat="43.16726" lon="0.87958">
        <ele>425.1</ele>
        <time>2013-12-22T16:35:23</time>
      </trkpt>
      <trkpt lat="43.16727" lon="0.87959">
        <ele>424.6</ele>
        <time>2013-12-22T16:35:24</time>
      </trkpt>
      <trkpt lat="43.16728" lon="0.87959">
        <ele>424.3</ele>
        <time>2013-12-22T16:35:25</time>
      </trkpt>
      <trkpt lat="43.16729" lon="0.8796">
        <ele>424.8</ele>
        <time>2013-12-22T16:35:26</time>
      </trkpt>
      <trkpt lat="43.1673" lon="0.87961">
        <ele>425.1</ele>
        <time>2013-12-22T16:35:27</time>
      </trkpt>
      <trkpt lat="43.16731" lon="0.87961">
        <ele>425.3</ele>
        <time>2013-12-22T16:35:28</time>
      </trkpt>
      <trkpt lat="43.16731" lon="0.87962">
        <ele>425.2</ele>
        <time>2013-12-22T16:35:29</time>
      </trkpt>
      <trkpt lat="43.16732" lon="0.87962">
        <ele>425.3</ele>
        <time>2013-12-22T16:35:30</time>
      </trkpt>
      <trkpt lat="43.16733" lon="0.87962">
        <ele>424.5</ele>
        <time>2013-12-22T16:35:31</time>
      </trkpt>
      <trkpt lat="43.16734" lon="0.87963">
        <ele>424.9</ele>
        <time>2013-12-22T16:35:32</time>
      </trkpt>
      <trkpt lat="43.16734" lon="0.87963">
        <ele>424.9</ele>
        <time>2013-12-22T16:35:33</time>
      </trkpt>
      <trkpt lat="43.16735" lon="0.87963">
        <ele>424.9</ele>
        <time>2013-12-22T16:35:34</time>
      </trkpt>
      <trkpt lat="43.16736" lon="0.87964">
        <ele>424.8</ele>
        <time>2013-12-22T16:35:35</time>
      </trkpt>
      <trkpt lat="43.16737" lon="0.87965">
        <ele>424.5</ele>
        <time>2013-12-22T16:35:36</time>
      </trkpt>
      <trkpt lat="43.16737" lon="0.87965">
        <ele>424.7</ele>
        <time>2013-12-22T16:35:37</time>
      </trkpt>
      <trkpt lat="43.16738" lon="0.87966">
        <ele>424.7</ele>
        <time>2013-12-22T16:35:38</time>
      </trkpt>
      <trkpt lat="43.16739" lon="0.87966">
        <ele>425</ele>
        <time>2013-12-22T16:35:39</time>
      </trkpt>
      <trkpt lat="43.1674" lon="0.87967">
        <ele>425</ele>
        <time>2013-12-22T16:35:40</time>
      </trkpt>
      <trkpt lat="43.16741" lon="0.87968">
        <ele>425.3</ele>
        <time>2013-12-22T16:35:41</time>
      </trkpt>
      <trkpt lat="43.16742" lon="0.87968">
        <ele>425.2</ele>
        <time>2013-12-22T16:35:42</time>
      </trkpt>
      <trkpt lat="43.16743" lon="0.87969">
        <ele>425.1</ele>
        <time>2013-12-22T16:35:43</time>
      </trkpt>
      <trkpt lat="43.16744" lon="0.8797">
        <ele>425.1</ele>
        <time>2013-12-22T16:35:44</time>
      </trkpt>
      <trkpt lat="43.16744" lon="0.8797">
        <ele>424.8</ele>
        <time>2013-12-22T16:35:45</time>
      </trkpt>
      <trkpt lat="43.16745" lon="0.87971">
        <ele>424.9</ele>
        <time>2013-12-22T16:35:46</time>
      </trkpt>
      <trkpt lat="43.16746" lon="0.87972">
        <ele>424.9</ele>
        <time>2013-12-22T16:35:47</time>
      </trkpt>
      <trkpt lat="43.16747" lon="0.87973">
        <ele>424.7</ele>
        <time>2013-12-22T16:35:48</time>
      </trkpt>
      <trkpt lat="43.16748" lon="0.87973">
        <ele>424.8</ele>
        <time>2013-12-22T16:35:49</time>
      </trkpt>
      <trkpt lat="43.16749" lon="0.87974">
        <ele>424.7</ele>
        <time>2013-12-22T16:35:50</time>
      </trkpt>
      <trkpt lat="43.1675" lon="0.87975">
        <ele>424</ele>
        <time>2013-12-22T16:35:51</time>
      </trkpt>
      <trkpt lat="43.1675" lon="0.87976">
        <ele>424</ele>
        <time>2013-12-22T16:35:52</time>
      </trkpt>
      <trkpt lat="43.16752" lon="0.87977">
        <ele>423.7</ele>
        <time>2013-12-22T16:35:53</time>
      </trkpt>
      <trkpt lat="43.16752" lon="0.87978">
        <ele>423.1</ele>
        <time>2013-12-22T16:35:54</time>
      </trkpt>
      <trkpt lat="43.16753" lon="0.87979">
        <ele>423.2</ele>
        <time>2013-12-22T16:35:55</time>
      </trkpt>
      <trkpt lat="43.16754" lon="0.8798">
        <ele>423.4</ele>
        <time>2013-12-22T16:35:56</time>
      </trkpt>
      <trkpt lat="43.16754" lon="0.8798">
        <ele>423.3</ele>
        <time>2013-12-22T16:35:58</time>
      </trkpt>
      <trkpt lat="43.16755" lon="0.8798">
        <ele>423.3</ele>
        <time>2013-12-22T16:35:59</time>
      </trkpt>
      <trkpt lat="43.16756" lon="0.87981">
        <ele>423.6</ele>
        <time>2013-12-22T16:36:00</time>
      </trkpt>
      <trkpt lat="43.16757" lon="0.87982">
        <ele>423.3</ele>
        <time>2013-12-22T16:36:03</time>
      </trkpt>
      <trkpt lat="43.16758" lon="0.87982">
        <ele>423.3</ele>
        <time>2013-12-22T16:36:04</time>
      </trkpt>
      <trkpt lat="43.16759" lon="0.87983">
        <ele>423.1</ele>
        <time>2013-12-22T16:36:05</time>
      </trkpt>
      <trkpt lat="43.1676" lon="0.87984">
        <ele>423.4</ele>
        <time>2013-12-22T16:36:06</time>
      </trkpt>
      <trkpt lat="43.1676" lon="0.87985">
        <ele>423.5</ele>
        <time>2013-12-22T16:36:07</time>
      </trkpt>
      <trkpt lat="43.16761" lon="0.87986">
        <ele>423.7</ele>
        <time>2013-12-22T16:36:08</time>
      </trkpt>
      <trkpt lat="43.16763" lon="0.87986">
        <ele>423.2</ele>
        <time>2013-12-22T16:36:09</time>
      </trkpt>
      <trkpt lat="43.16763" lon="0.87987">
        <ele>434</ele>
        <time>2013-12-22T16:36:10</time>
      </trkpt>
      <trkpt lat="43.16765" lon="0.87988">
        <ele>427.5</ele>
        <time>2013-12-22T16:36:12</time>
      </trkpt>
      <trkpt lat="43.16766" lon="0.87989">
        <ele>426.6</ele>
        <time>2013-12-22T16:36:13</time>
      </trkpt>
      <trkpt lat="43.16766" lon="0.8799">
        <ele>425.4</ele>
        <time>2013-12-22T16:36:14</time>
      </trkpt>
      <trkpt lat="43.16768" lon="0.8799">
        <ele>425</ele>
        <time>2013-12-22T16:36:15</time>
      </trkpt>
      <trkpt lat="43.16768" lon="0.87991">
        <ele>424.4</ele>
        <time>2013-12-22T16:36:16</time>
      </trkpt>
      <trkpt lat="43.16769" lon="0.87991">
        <ele>424.1</ele>
        <time>2013-12-22T16:36:17</time>
      </trkpt>
      <trkpt lat="43.16771" lon="0.87992">
        <ele>423.9</ele>
        <time>2013-12-22T16:36:18</time>
      </trkpt>
      <trkpt lat="43.16772" lon="0.87993">
        <ele>423.5</ele>
        <time>2013-12-22T16:36:19</time>
      </trkpt>
      <trkpt lat="43.16773" lon="0.87994">
        <ele>423</ele>
        <time>2013-12-22T16:36:20</time>
      </trkpt>
      <trkpt lat="43.16774" lon="0.87994">
        <ele>423</ele>
        <time>2013-12-22T16:36:21</time>
      </trkpt>
      <trkpt lat="43.16775" lon="0.87995">
        <ele>423</ele>
        <time>2013-12-22T16:36:22</time>
      </trkpt>
      <trkpt lat="43.16776" lon="0.87996">
        <ele>422.7</ele>
        <time>2013-12-22T16:36:23</time>
      </trkpt>
      <trkpt lat="43.16777" lon="0.87997">
        <ele>422.5</ele>
        <time>2013-12-22T16:36:24</time>
      </trkpt>
      <trkpt lat="43.16778" lon="0.87998">
        <ele>422.1</ele>
        <time>2013-12-22T16:36:25</time>
      </trkpt>
      <trkpt lat="43.16779" lon="0.87999">
        <ele>422</ele>
        <time>2013-12-22T16:36:26</time>
      </trkpt>
      <trkpt lat="43.1678" lon="0.88">
        <ele>427.6</ele>
        <time>2013-12-22T16:36:27</time>
      </trkpt>
      <trkpt lat="43.16781" lon="0.88001">
        <ele>424.6</ele>
        <time>2013-12-22T16:36:28</time>
      </trkpt>
      <trkpt lat="43.16782" lon="0.88001">
        <ele>422.7</ele>
        <time>2013-12-22T16:36:29</time>
      </trkpt>
      <trkpt lat="43.16782" lon="0.88002">
        <ele>421.7</ele>
        <time>2013-12-22T16:36:30</time>
      </trkpt>
      <trkpt lat="43.16783" lon="0.88003">
        <ele>421.1</ele>
        <time>2013-12-22T16:36:31</time>
      </trkpt>
      <trkpt lat="43.16784" lon="0.88004">
        <ele>420.8</ele>
        <time>2013-12-22T16:36:32</time>
      </trkpt>
      <trkpt lat="43.16785" lon="0.88004">
        <ele>420.4</ele>
        <time>2013-12-22T16:36:34</time>
      </trkpt>
      <trkpt lat="43.16786" lon="0.88004">
        <ele>420.4</ele>
        <time>2013-12-22T16:36:35</time>
      </trkpt>
      <trkpt lat="43.16787" lon="0.88005">
        <ele>420.4</ele>
        <time>2013-12-22T16:36:36</time>
      </trkpt>
      <trkpt lat="43.16787" lon="0.88005">
        <ele>420.2</ele>
        <time>2013-12-22T16:36:38</time>
      </trkpt>
      <trkpt lat="43.16788" lon="0.88005">
        <ele>420.2</ele>
        <time>2013-12-22T16:36:39</time>
      </trkpt>
      <trkpt lat="43.16789" lon="0.88006">
        <ele>420.3</ele>
        <time>2013-12-22T16:36:40</time>
      </trkpt>
      <trkpt lat="43.1679" lon="0.88006">
        <ele>420.2</ele>
        <time>2013-12-22T16:36:41</time>
      </trkpt>
      <trkpt lat="43.16792" lon="0.88006">
        <ele>420.3</ele>
        <time>2013-12-22T16:36:42</time>
      </trkpt>
      <trkpt lat="43.16792" lon="0.88007">
        <ele>420.2</ele>
        <time>2013-12-22T16:36:43</time>
      </trkpt>
      <trkpt lat="43.16793" lon="0.88007">
        <ele>420.4</ele>
        <time>2013-12-22T16:36:44</time>
      </trkpt>
      <trkpt lat="43.16793" lon="0.88008">
        <ele>420</ele>
        <time>2013-12-22T16:36:45</time>
      </trkpt>
      <trkpt lat="43.16794" lon="0.88008">
        <ele>419.7</ele>
        <time>2013-12-22T16:36:46</time>
      </trkpt>
      <trkpt lat="43.16795" lon="0.88008">
        <ele>419.8</ele>
        <time>2013-12-22T16:36:47</time>
      </trkpt>
      <trkpt lat="43.16796" lon="0.88009">
        <ele>419.7</ele>
        <time>2013-12-22T16:36:48</time>
      </trkpt>
      <trkpt lat="43.16797" lon="0.8801">
        <ele>419.8</ele>
        <time>2013-12-22T16:36:49</time>
      </trkpt>
      <trkpt lat="43.16798" lon="0.88011">
        <ele>420.1</ele>
        <time>2013-12-22T16:36:50</time>
      </trkpt>
      <trkpt lat="43.16799" lon="0.88012">
        <ele>419.8</ele>
        <time>2013-12-22T16:36:51</time>
      </trkpt>
      <trkpt lat="43.168" lon="0.88013">
        <ele>419.8</ele>
        <time>2013-12-22T16:36:52</time>
      </trkpt>
      <trkpt lat="43.16801" lon="0.88014">
        <ele>419.8</ele>
        <time>2013-12-22T16:36:53</time>
      </trkpt>
      <trkpt lat="43.16802" lon="0.88015">
        <ele>419.5</ele>
        <time>2013-12-22T16:36:56</time>
      </trkpt>
      <trkpt lat="43.16803" lon="0.88015">
        <ele>419.4</ele>
        <time>2013-12-22T16:36:57</time>
      </trkpt>
      <trkpt lat="43.16803" lon="0.88016">
        <ele>419.2</ele>
        <time>2013-12-22T16:36:58</time>
      </trkpt>
      <trkpt lat="43.16805" lon="0.88016">
        <ele>420</ele>
        <time>2013-12-22T16:37:07</time>
      </trkpt>
      <trkpt lat="43.16806" lon="0.88017">
        <ele>419.7</ele>
        <time>2013-12-22T16:37:08</time>
      </trkpt>
      <trkpt lat="43.16807" lon="0.88018">
        <ele>419.3</ele>
        <time>2013-12-22T16:37:09</time>
      </trkpt>
      <trkpt lat="43.16808" lon="0.88018">
        <ele>419.1</ele>
        <time>2013-12-22T16:37:10</time>
      </trkpt>
      <trkpt lat="43.16809" lon="0.88019">
        <ele>419.2</ele>
        <time>2013-12-22T16:37:11</time>
      </trkpt>
      <trkpt lat="43.1681" lon="0.88021">
        <ele>420.3</ele>
        <time>2013-12-22T16:37:12</time>
      </trkpt>
      <trkpt lat="43.16811" lon="0.88022">
        <ele>420</ele>
        <time>2013-12-22T16:37:13</time>
      </trkpt>
      <trkpt lat="43.16813" lon="0.88022">
        <ele>418.8</ele>
        <time>2013-12-22T16:37:14</time>
      </trkpt>
      <trkpt lat="43.16814" lon="0.88023">
        <ele>418.5</ele>
        <time>2013-12-22T16:37:15</time>
      </trkpt>
      <trkpt lat="43.16815" lon="0.88024">
        <ele>417.9</ele>
        <time>2013-12-22T16:37:16</time>
      </trkpt>
      <trkpt lat="43.16816" lon="0.88024">
        <ele>417.7</ele>
        <time>2013-12-22T16:37:17</time>
      </trkpt>
      <trkpt lat="43.16818" lon="0.88025">
        <ele>417.3</ele>
        <time>2013-12-22T16:37:18</time>
      </trkpt>
      <trkpt lat="43.16819" lon="0.88026">
        <ele>417.2</ele>
        <time>2013-12-22T16:37:19</time>
      </trkpt>
      <trkpt lat="43.1682" lon="0.88027">
        <ele>417.1</ele>
        <time>2013-12-22T16:37:20</time>
      </trkpt>
      <trkpt lat="43.16821" lon="0.88028">
        <ele>416.9</ele>
        <time>2013-12-22T16:37:23</time>
      </trkpt>
      <trkpt lat="43.16823" lon="0.88028">
        <ele>417.4</ele>
        <time>2013-12-22T16:37:26</time>
      </trkpt>
      <trkpt lat="43.16824" lon="0.88029">
        <ele>417.6</ele>
        <time>2013-12-22T16:37:27</time>
      </trkpt>
      <trkpt lat="43.16825" lon="0.88029">
        <ele>417.5</ele>
        <time>2013-12-22T16:37:28</time>
      </trkpt>
      <trkpt lat="43.16826" lon="0.8803">
        <ele>416.5</ele>
        <time>2013-12-22T16:37:29</time>
      </trkpt>
      <trkpt lat="43.16826" lon="0.88031">
        <ele>416.4</ele>
        <time>2013-12-22T16:37:30</time>
      </trkpt>
      <trkpt lat="43.16827" lon="0.88031">
        <ele>416.9</ele>
        <time>2013-12-22T16:37:31</time>
      </trkpt>
      <trkpt lat="43.16829" lon="0.88032">
        <ele>416.5</ele>
        <time>2013-12-22T16:37:32</time>
      </trkpt>
      <trkpt lat="43.1683" lon="0.88032">
        <ele>416.4</ele>
        <time>2013-12-22T16:37:33</time>
      </trkpt>
      <trkpt lat="43.16831" lon="0.88032">
        <ele>416.4</ele>
        <time>2013-12-22T16:37:34</time>
      </trkpt>
      <trkpt lat="43.16832" lon="0.88033">
        <ele>415.9</ele>
        <time>2013-12-22T16:37:35</time>
      </trkpt>
      <trkpt lat="43.16833" lon="0.88033">
        <ele>416</ele>
        <time>2013-12-22T16:37:36</time>
      </trkpt>
      <trkpt lat="43.16834" lon="0.88034">
        <ele>416.1</ele>
        <time>2013-12-22T16:37:37</time>
      </trkpt>
      <trkpt lat="43.16835" lon="0.88035">
        <ele>416.3</ele>
        <time>2013-12-22T16:37:38</time>
      </trkpt>
      <trkpt lat="43.16837" lon="0.88035">
        <ele>417.4</ele>
        <time>2013-12-22T16:37:39</time>
      </trkpt>
      <trkpt lat="43.16839" lon="0.88036">
        <ele>418</ele>
        <time>2013-12-22T16:37:40</time>
      </trkpt>
      <trkpt lat="43.16841" lon="0.88037">
        <ele>417.9</ele>
        <time>2013-12-22T16:37:41</time>
      </trkpt>
      <trkpt lat="43.16842" lon="0.88037">
        <ele>417.4</ele>
        <time>2013-12-22T16:37:42</time>
      </trkpt>
      <trkpt lat="43.16845" lon="0.88038">
        <ele>417.4</ele>
        <time>2013-12-22T16:37:44</time>
      </trkpt>
      <trkpt lat="43.16846" lon="0.88038">
        <ele>417.7</ele>
        <time>2013-12-22T16:37:45</time>
      </trkpt>
      <trkpt lat="43.16847" lon="0.88038">
        <ele>417.8</ele>
        <time>2013-12-22T16:37:46</time>
      </trkpt>
      <trkpt lat="43.16849" lon="0.88039">
        <ele>417.9</ele>
        <time>2013-12-22T16:37:47</time>
      </trkpt>
      <trkpt lat="43.16851" lon="0.8804">
        <ele>418.2</ele>
        <time>2013-12-22T16:37:49</time>
      </trkpt>
      <trkpt lat="43.16852" lon="0.8804">
        <ele>419.2</ele>
        <time>2013-12-22T16:37:50</time>
      </trkpt>
      <trkpt lat="43.16853" lon="0.88041">
        <ele>419.2</ele>
        <time>2013-12-22T16:37:51</time>
      </trkpt>
      <trkpt lat="43.16855" lon="0.88042">
        <ele>418.9</ele>
        <time>2013-12-22T16:37:54</time>
      </trkpt>
      <trkpt lat="43.16856" lon="0.88042">
        <ele>418.9</ele>
        <time>2013-12-22T16:37:57</time>
      </trkpt>
      <trkpt lat="43.16857" lon="0.88043">
        <ele>418.8</ele>
        <time>2013-12-22T16:37:58</time>
      </trkpt>
      <trkpt lat="43.16858" lon="0.88043">
        <ele>418.4</ele>
        <time>2013-12-22T16:37:59</time>
      </trkpt>
      <trkpt lat="43.1686" lon="0.88044">
        <ele>419.1</ele>
        <time>2013-12-22T16:38:03</time>
      </trkpt>
      <trkpt lat="43.16861" lon="0.88045">
        <ele>418.5</ele>
        <time>2013-12-22T16:38:04</time>
      </trkpt>
      <trkpt lat="43.16862" lon="0.88046">
        <ele>418.6</ele>
        <time>2013-12-22T16:38:05</time>
      </trkpt>
      <trkpt lat="43.16864" lon="0.88047">
        <ele>419.5</ele>
        <time>2013-12-22T16:38:06</time>
      </trkpt>
      <trkpt lat="43.16865" lon="0.88048">
        <ele>418.9</ele>
        <time>2013-12-22T16:38:07</time>
      </trkpt>
      <trkpt lat="43.16867" lon="0.88049">
        <ele>419</ele>
        <time>2013-12-22T16:38:08</time>
      </trkpt>
      <trkpt lat="43.16869" lon="0.8805">
        <ele>418.9</ele>
        <time>2013-12-22T16:38:09</time>
      </trkpt>
      <trkpt lat="43.1687" lon="0.88051">
        <ele>418.8</ele>
        <time>2013-12-22T16:38:10</time>
      </trkpt>
      <trkpt lat="43.16871" lon="0.88052">
        <ele>418.7</ele>
        <time>2013-12-22T16:38:11</time>
      </trkpt>
      <trkpt lat="43.16872" lon="0.88053">
        <ele>418.7</ele>
        <time>2013-12-22T16:38:12</time>
      </trkpt>
      <trkpt lat="43.16874" lon="0.88053">
        <ele>418.6</ele>
        <time>2013-12-22T16:38:13</time>
      </trkpt>
      <trkpt lat="43.16875" lon="0.88054">
        <ele>418.8</ele>
        <time>2013-12-22T16:38:14</time>
      </trkpt>
      <trkpt lat="43.16876" lon="0.88055">
        <ele>418.8</ele>
        <time>2013-12-22T16:38:15</time>
      </trkpt>
      <trkpt lat="43.16877" lon="0.88056">
        <ele>418.9</ele>
        <time>2013-12-22T16:38:17</time>
      </trkpt>
      <trkpt lat="43.16877" lon="0.88056">
        <ele>418.8</ele>
        <time>2013-12-22T16:38:18</time>
      </trkpt>
      <trkpt lat="43.16878" lon="0.88057">
        <ele>418.5</ele>
        <time>2013-12-22T16:38:22</time>
      </trkpt>
      <trkpt lat="43.16877" lon="0.88057">
        <ele>417.9</ele>
        <time>2013-12-22T16:38:23</time>
      </trkpt>
      <trkpt lat="43.16879" lon="0.88058">
        <ele>418.2</ele>
        <time>2013-12-22T16:38:30</time>
      </trkpt>
      <trkpt lat="43.16879" lon="0.88058">
        <ele>418</ele>
        <time>2013-12-22T16:38:31</time>
      </trkpt>
      <trkpt lat="43.1688" lon="0.88059">
        <ele>417.2</ele>
        <time>2013-12-22T16:38:32</time>
      </trkpt>
      <trkpt lat="43.16881" lon="0.8806">
        <ele>417.4</ele>
        <time>2013-12-22T16:38:35</time>
      </trkpt>
      <trkpt lat="43.16882" lon="0.88061">
        <ele>417.2</ele>
        <time>2013-12-22T16:38:38</time>
      </trkpt>
      <trkpt lat="43.16882" lon="0.88062">
        <ele>416.9</ele>
        <time>2013-12-22T16:38:39</time>
      </trkpt>
      <trkpt lat="43.16883" lon="0.88063">
        <ele>416.4</ele>
        <time>2013-12-22T16:38:40</time>
      </trkpt>
      <trkpt lat="43.16883" lon="0.88065">
        <ele>415.7</ele>
        <time>2013-12-22T16:38:41</time>
      </trkpt>
      <trkpt lat="43.16884" lon="0.88067">
        <ele>415.2</ele>
        <time>2013-12-22T16:38:42</time>
      </trkpt>
      <trkpt lat="43.16883" lon="0.88069">
        <ele>414.6</ele>
        <time>2013-12-22T16:38:43</time>
      </trkpt>
      <trkpt lat="43.16883" lon="0.88071">
        <ele>414.5</ele>
        <time>2013-12-22T16:38:44</time>
      </trkpt>
      <trkpt lat="43.16883" lon="0.88073">
        <ele>414.3</ele>
        <time>2013-12-22T16:38:45</time>
      </trkpt>
      <trkpt lat="43.16882" lon="0.88075">
        <ele>414.2</ele>
        <time>2013-12-22T16:38:46</time>
      </trkpt>
      <trkpt lat="43.16882" lon="0.88076">
        <ele>414.1</ele>
        <time>2013-12-22T16:38:47</time>
      </trkpt>
      <trkpt lat="43.16882" lon="0.88078">
        <ele>414</ele>
        <time>2013-12-22T16:38:48</time>
      </trkpt>
      <trkpt lat="43.16883" lon="0.8808">
        <ele>414.9</ele>
        <time>2013-12-22T16:38:49</time>
      </trkpt>
      <trkpt lat="43.16883" lon="0.88082">
        <ele>415.3</ele>
        <time>2013-12-22T16:38:50</time>
      </trkpt>
      <trkpt lat="43.16884" lon="0.88083">
        <ele>415.8</ele>
        <time>2013-12-22T16:38:51</time>
      </trkpt>
      <trkpt lat="43.16884" lon="0.88085">
        <ele>415.8</ele>
        <time>2013-12-22T16:38:52</time>
      </trkpt>
      <trkpt lat="43.16885" lon="0.88087">
        <ele>416.2</ele>
        <time>2013-12-22T16:38:53</time>
      </trkpt>
      <trkpt lat="43.16885" lon="0.88088">
        <ele>416.4</ele>
        <time>2013-12-22T16:38:54</time>
      </trkpt>
      <trkpt lat="43.16886" lon="0.8809">
        <ele>416.6</ele>
        <time>2013-12-22T16:38:55</time>
      </trkpt>
      <trkpt lat="43.16887" lon="0.88092">
        <ele>416.7</ele>
        <time>2013-12-22T16:38:56</time>
      </trkpt>
      <trkpt lat="43.16887" lon="0.88093">
        <ele>417.1</ele>
        <time>2013-12-22T16:38:57</time>
      </trkpt>
      <trkpt lat="43.16888" lon="0.88095">
        <ele>418.2</ele>
        <time>2013-12-22T16:38:58</time>
      </trkpt>
      <trkpt lat="43.16889" lon="0.88097">
        <ele>418.8</ele>
        <time>2013-12-22T16:38:59</time>
      </trkpt>
      <trkpt lat="43.1689" lon="0.88099">
        <ele>418.8</ele>
        <time>2013-12-22T16:39:00</time>
      </trkpt>
      <trkpt lat="43.1689" lon="0.88101">
        <ele>418.6</ele>
        <time>2013-12-22T16:39:01</time>
      </trkpt>
      <trkpt lat="43.16891" lon="0.88102">
        <ele>419</ele>
        <time>2013-12-22T16:39:02</time>
      </trkpt>
      <trkpt lat="43.16892" lon="0.88104">
        <ele>418.4</ele>
        <time>2013-12-22T16:39:03</time>
      </trkpt>
      <trkpt lat="43.16892" lon="0.88106">
        <ele>417.9</ele>
        <time>2013-12-22T16:39:04</time>
      </trkpt>
      <trkpt lat="43.16891" lon="0.88107">
        <ele>417.8</ele>
        <time>2013-12-22T16:39:05</time>
      </trkpt>
      <trkpt lat="43.16891" lon="0.88109">
        <ele>418</ele>
        <time>2013-12-22T16:39:06</time>
      </trkpt>
      <trkpt lat="43.16891" lon="0.8811">
        <ele>418.2</ele>
        <time>2013-12-22T16:39:07</time>
      </trkpt>
      <trkpt lat="43.16891" lon="0.88112">
        <ele>417.9</ele>
        <time>2013-12-22T16:39:08</time>
      </trkpt>
      <trkpt lat="43.16891" lon="0.88113">
        <ele>417.6</ele>
        <time>2013-12-22T16:39:09</time>
      </trkpt>
      <trkpt lat="43.16891" lon="0.88112">
        <ele>417.6</ele>
        <time>2013-12-22T16:39:24</time>
      </trkpt>
      <trkpt lat="43.16891" lon="0.88113">
        <ele>417.6</ele>
        <time>2013-12-22T16:39:25</time>
      </trkpt>
      <trkpt lat="43.16891" lon="0.88114">
        <ele>417.6</ele>
        <time>2013-12-22T16:39:26</time>
      </trkpt>
      <trkpt lat="43.16891" lon="0.88116">
        <ele>418.4</ele>
        <time>2013-12-22T16:39:27</time>
      </trkpt>
      <trkpt lat="43.16891" lon="0.88117">
        <ele>417.5</ele>
        <time>2013-12-22T16:39:28</time>
      </trkpt>
      <trkpt lat="43.16891" lon="0.88119">
        <ele>417.8</ele>
        <time>2013-12-22T16:39:29</time>
      </trkpt>
      <trkpt lat="43.16891" lon="0.8812">
        <ele>416.8</ele>
        <time>2013-12-22T16:39:30</time>
      </trkpt>
      <trkpt lat="43.16891" lon="0.88122">
        <ele>416.7</ele>
        <time>2013-12-22T16:39:31</time>
      </trkpt>
      <trkpt lat="43.16891" lon="0.88124">
        <ele>416.3</ele>
        <time>2013-12-22T16:39:32</time>
      </trkpt>
      <trkpt lat="43.16891" lon="0.88125">
        <ele>416.1</ele>
        <time>2013-12-22T16:39:33</time>
      </trkpt>
      <trkpt lat="43.16891" lon="0.88126">
        <ele>415.7</ele>
        <time>2013-12-22T16:39:34</time>
      </trkpt>
      <trkpt lat="43.16891" lon="0.88128">
        <ele>415.5</ele>
        <time>2013-12-22T16:39:35</time>
      </trkpt>
      <trkpt lat="43.16891" lon="0.88129">
        <ele>415.5</ele>
        <time>2013-12-22T16:39:36</time>
      </trkpt>
      <trkpt lat="43.16891" lon="0.88131">
        <ele>415.5</ele>
        <time>2013-12-22T16:39:37</time>
      </trkpt>
      <trkpt lat="43.16891" lon="0.88132">
        <ele>415.6</ele>
        <time>2013-12-22T16:39:38</time>
      </trkpt>
      <trkpt lat="43.16891" lon="0.88134">
        <ele>415.4</ele>
        <time>2013-12-22T16:39:39</time>
      </trkpt>
      <trkpt lat="43.16891" lon="0.88135">
        <ele>415.2</ele>
        <time>2013-12-22T16:39:40</time>
      </trkpt>
      <trkpt lat="43.16891" lon="0.88136">
        <ele>414.8</ele>
        <time>2013-12-22T16:39:41</time>
      </trkpt>
      <trkpt lat="43.16891" lon="0.88138">
        <ele>415.3</ele>
        <time>2013-12-22T16:39:42</time>
      </trkpt>
      <trkpt lat="43.16891" lon="0.88139">
        <ele>415.4</ele>
        <time>2013-12-22T16:39:43</time>
      </trkpt>
      <trkpt lat="43.16891" lon="0.8814">
        <ele>415.4</ele>
        <time>2013-12-22T16:39:44</time>
      </trkpt>
      <trkpt lat="43.16891" lon="0.88142">
        <ele>415.1</ele>
        <time>2013-12-22T16:39:45</time>
      </trkpt>
      <trkpt lat="43.1689" lon="0.88143">
        <ele>414.7</ele>
        <time>2013-12-22T16:39:46</time>
      </trkpt>
      <trkpt lat="43.1689" lon="0.88145">
        <ele>414.6</ele>
        <time>2013-12-22T16:39:47</time>
      </trkpt>
      <trkpt lat="43.1689" lon="0.88146">
        <ele>414.7</ele>
        <time>2013-12-22T16:39:48</time>
      </trkpt>
      <trkpt lat="43.1689" lon="0.88148">
        <ele>415</ele>
        <time>2013-12-22T16:39:49</time>
      </trkpt>
      <trkpt lat="43.1689" lon="0.88149">
        <ele>415.1</ele>
        <time>2013-12-22T16:39:50</time>
      </trkpt>
      <trkpt lat="43.1689" lon="0.88151">
        <ele>415.5</ele>
        <time>2013-12-22T16:39:51</time>
      </trkpt>
      <trkpt lat="43.1689" lon="0.88152">
        <ele>415.2</ele>
        <time>2013-12-22T16:39:52</time>
      </trkpt>
      <trkpt lat="43.1689" lon="0.88154">
        <ele>414.8</ele>
        <time>2013-12-22T16:39:53</time>
      </trkpt>
      <trkpt lat="43.1689" lon="0.88155">
        <ele>415</ele>
        <time>2013-12-22T16:39:54</time>
      </trkpt>
      <trkpt lat="43.16889" lon="0.88156">
        <ele>415.2</ele>
        <time>2013-12-22T16:39:55</time>
      </trkpt>
      <trkpt lat="43.16889" lon="0.88158">
        <ele>415.2</ele>
        <time>2013-12-22T16:39:56</time>
      </trkpt>
      <trkpt lat="43.16889" lon="0.88159">
        <ele>415.4</ele>
        <time>2013-12-22T16:39:57</time>
      </trkpt>
      <trkpt lat="43.16889" lon="0.88161">
        <ele>415</ele>
        <time>2013-12-22T16:39:58</time>
      </trkpt>
      <trkpt lat="43.16889" lon="0.88162">
        <ele>415.2</ele>
        <time>2013-12-22T16:39:59</time>
      </trkpt>
      <trkpt lat="43.16888" lon="0.88164">
        <ele>415.1</ele>
        <time>2013-12-22T16:40:00</time>
      </trkpt>
      <trkpt lat="43.16888" lon="0.88165">
        <ele>415.2</ele>
        <time>2013-12-22T16:40:01</time>
      </trkpt>
      <trkpt lat="43.16888" lon="0.88167">
        <ele>415.3</ele>
        <time>2013-12-22T16:40:02</time>
      </trkpt>
      <trkpt lat="43.16888" lon="0.88168">
        <ele>414.8</ele>
        <time>2013-12-22T16:40:03</time>
      </trkpt>
      <trkpt lat="43.16888" lon="0.88169">
        <ele>414.6</ele>
        <time>2013-12-22T16:40:04</time>
      </trkpt>
      <trkpt lat="43.16888" lon="0.88171">
        <ele>414.6</ele>
        <time>2013-12-22T16:40:05</time>
      </trkpt>
      <trkpt lat="43.16888" lon="0.88172">
        <ele>414.8</ele>
        <time>2013-12-22T16:40:06</time>
      </trkpt>
      <trkpt lat="43.16888" lon="0.88173">
        <ele>414.6</ele>
        <time>2013-12-22T16:40:07</time>
      </trkpt>
      <trkpt lat="43.16888" lon="0.88175">
        <ele>414.1</ele>
        <time>2013-12-22T16:40:08</time>
      </trkpt>
      <trkpt lat="43.16888" lon="0.88176">
        <ele>413.9</ele>
        <time>2013-12-22T16:40:09</time>
      </trkpt>
      <trkpt lat="43.16887" lon="0.88177">
        <ele>413.7</ele>
        <time>2013-12-22T16:40:10</time>
      </trkpt>
      <trkpt lat="43.16887" lon="0.88179">
        <ele>414.3</ele>
        <time>2013-12-22T16:40:11</time>
      </trkpt>
      <trkpt lat="43.16887" lon="0.8818">
        <ele>414.5</ele>
        <time>2013-12-22T16:40:12</time>
      </trkpt>
      <trkpt lat="43.16887" lon="0.88181">
        <ele>413.6</ele>
        <time>2013-12-22T16:40:13</time>
      </trkpt>
      <trkpt lat="43.16888" lon="0.88182">
        <ele>413.6</ele>
        <time>2013-12-22T16:40:14</time>
      </trkpt>
      <trkpt lat="43.16888" lon="0.88184">
        <ele>414</ele>
        <time>2013-12-22T16:40:15</time>
      </trkpt>
      <trkpt lat="43.16888" lon="0.88185">
        <ele>414.1</ele>
        <time>2013-12-22T16:40:16</time>
      </trkpt>
      <trkpt lat="43.16888" lon="0.88186">
        <ele>413.7</ele>
        <time>2013-12-22T16:40:17</time>
      </trkpt>
      <trkpt lat="43.16888" lon="0.88187">
        <ele>414</ele>
        <time>2013-12-22T16:40:18</time>
      </trkpt>
      <trkpt lat="43.16888" lon="0.88188">
        <ele>413.8</ele>
        <time>2013-12-22T16:40:19</time>
      </trkpt>
      <trkpt lat="43.16888" lon="0.8819">
        <ele>413.6</ele>
        <time>2013-12-22T16:40:20</time>
      </trkpt>
      <trkpt lat="43.16888" lon="0.88191">
        <ele>413.4</ele>
        <time>2013-12-22T16:40:21</time>
      </trkpt>
      <trkpt lat="43.16888" lon="0.88192">
        <ele>413.1</ele>
        <time>2013-12-22T16:40:22</time>
      </trkpt>
      <trkpt lat="43.16888" lon="0.88193">
        <ele>412.9</ele>
        <time>2013-12-22T16:40:23</time>
      </trkpt>
      <trkpt lat="43.16889" lon="0.88194">
        <ele>412.8</ele>
        <time>2013-12-22T16:40:24</time>
      </trkpt>
      <trkpt lat="43.16889" lon="0.88195">
        <ele>413.1</ele>
        <time>2013-12-22T16:40:25</time>
      </trkpt>
      <trkpt lat="43.16889" lon="0.88197">
        <ele>413</ele>
        <time>2013-12-22T16:40:26</time>
      </trkpt>
      <trkpt lat="43.16889" lon="0.88198">
        <ele>413</ele>
        <time>2013-12-22T16:40:27</time>
      </trkpt>
      <trkpt lat="43.16889" lon="0.88199">
        <ele>413.2</ele>
        <time>2013-12-22T16:40:28</time>
      </trkpt>
      <trkpt lat="43.1689" lon="0.882">
        <ele>412.9</ele>
        <time>2013-12-22T16:40:29</time>
      </trkpt>
      <trkpt lat="43.1689" lon="0.88201">
        <ele>412.8</ele>
        <time>2013-12-22T16:40:30</time>
      </trkpt>
      <trkpt lat="43.1689" lon="0.88202">
        <ele>412.5</ele>
        <time>2013-12-22T16:40:31</time>
      </trkpt>
      <trkpt lat="43.1689" lon="0.88204">
        <ele>412.5</ele>
        <time>2013-12-22T16:40:32</time>
      </trkpt>
      <trkpt lat="43.1689" lon="0.88205">
        <ele>412.2</ele>
        <time>2013-12-22T16:40:33</time>
      </trkpt>
      <trkpt lat="43.1689" lon="0.88206">
        <ele>411.8</ele>
        <time>2013-12-22T16:40:34</time>
      </trkpt>
      <trkpt lat="43.1689" lon="0.88207">
        <ele>411.8</ele>
        <time>2013-12-22T16:40:35</time>
      </trkpt>
      <trkpt lat="43.1689" lon="0.88208">
        <ele>412</ele>
        <time>2013-12-22T16:40:36</time>
      </trkpt>
      <trkpt lat="43.1689" lon="0.88209">
        <ele>411.8</ele>
        <time>2013-12-22T16:40:37</time>
      </trkpt>
      <trkpt lat="43.16891" lon="0.88211">
        <ele>411.7</ele>
        <time>2013-12-22T16:40:38</time>
      </trkpt>
      <trkpt lat="43.16891" lon="0.88212">
        <ele>411.8</ele>
        <time>2013-12-22T16:40:39</time>
      </trkpt>
      <trkpt lat="43.16891" lon="0.88213">
        <ele>412</ele>
        <time>2013-12-22T16:40:40</time>
      </trkpt>
      <trkpt lat="43.16891" lon="0.88215">
        <ele>411.8</ele>
        <time>2013-12-22T16:40:41</time>
      </trkpt>
      <trkpt lat="43.16891" lon="0.88216">
        <ele>411.7</ele>
        <time>2013-12-22T16:40:42</time>
      </trkpt>
      <trkpt lat="43.16891" lon="0.88217">
        <ele>411.7</ele>
        <time>2013-12-22T16:40:43</time>
      </trkpt>
      <trkpt lat="43.16891" lon="0.88219">
        <ele>411.8</ele>
        <time>2013-12-22T16:40:44</time>
      </trkpt>
      <trkpt lat="43.16891" lon="0.8822">
        <ele>411.1</ele>
        <time>2013-12-22T16:40:45</time>
      </trkpt>
      <trkpt lat="43.16891" lon="0.88221">
        <ele>410.7</ele>
        <time>2013-12-22T16:40:46</time>
      </trkpt>
      <trkpt lat="43.16891" lon="0.88223">
        <ele>410.5</ele>
        <time>2013-12-22T16:40:47</time>
      </trkpt>
      <trkpt lat="43.16891" lon="0.88224">
        <ele>410.2</ele>
        <time>2013-12-22T16:40:48</time>
      </trkpt>
      <trkpt lat="43.16891" lon="0.88225">
        <ele>409.3</ele>
        <time>2013-12-22T16:40:49</time>
      </trkpt>
      <trkpt lat="43.16892" lon="0.88227">
        <ele>409.7</ele>
        <time>2013-12-22T16:40:50</time>
      </trkpt>
      <trkpt lat="43.16892" lon="0.88228">
        <ele>410.1</ele>
        <time>2013-12-22T16:40:51</time>
      </trkpt>
      <trkpt lat="43.16892" lon="0.88229">
        <ele>410.8</ele>
        <time>2013-12-22T16:40:52</time>
      </trkpt>
      <trkpt lat="43.16893" lon="0.88231">
        <ele>410.7</ele>
        <time>2013-12-22T16:40:53</time>
      </trkpt>
      <trkpt lat="43.16893" lon="0.88232">
        <ele>410.4</ele>
        <time>2013-12-22T16:40:54</time>
      </trkpt>
      <trkpt lat="43.16894" lon="0.88233">
        <ele>411</ele>
        <time>2013-12-22T16:40:55</time>
      </trkpt>
      <trkpt lat="43.16894" lon="0.88234">
        <ele>410.8</ele>
        <time>2013-12-22T16:40:56</time>
      </trkpt>
      <trkpt lat="43.16894" lon="0.88236">
        <ele>410.8</ele>
        <time>2013-12-22T16:40:57</time>
      </trkpt>
      <trkpt lat="43.16895" lon="0.88237">
        <ele>410.3</ele>
        <time>2013-12-22T16:40:58</time>
      </trkpt>
      <trkpt lat="43.16895" lon="0.88238">
        <ele>409.5</ele>
        <time>2013-12-22T16:40:59</time>
      </trkpt>
      <trkpt lat="43.16895" lon="0.88239">
        <ele>409.2</ele>
        <time>2013-12-22T16:41:00</time>
      </trkpt>
      <trkpt lat="43.16896" lon="0.8824">
        <ele>408.3</ele>
        <time>2013-12-22T16:41:01</time>
      </trkpt>
      <trkpt lat="43.16896" lon="0.88241">
        <ele>407.8</ele>
        <time>2013-12-22T16:41:02</time>
      </trkpt>
      <trkpt lat="43.16896" lon="0.88242">
        <ele>407.7</ele>
        <time>2013-12-22T16:41:03</time>
      </trkpt>
      <trkpt lat="43.16896" lon="0.88243">
        <ele>407.2</ele>
        <time>2013-12-22T16:41:04</time>
      </trkpt>
      <trkpt lat="43.16896" lon="0.88244">
        <ele>407.2</ele>
        <time>2013-12-22T16:41:05</time>
      </trkpt>
      <trkpt lat="43.16896" lon="0.88245">
        <ele>407.2</ele>
        <time>2013-12-22T16:41:06</time>
      </trkpt>
      <trkpt lat="43.16896" lon="0.88246">
        <ele>407.2</ele>
        <time>2013-12-22T16:41:07</time>
      </trkpt>
      <trkpt lat="43.16896" lon="0.88247">
        <ele>407.4</ele>
        <time>2013-12-22T16:41:08</time>
      </trkpt>
      <trkpt lat="43.16896" lon="0.88248">
        <ele>407.1</ele>
        <time>2013-12-22T16:41:09</time>
      </trkpt>
      <trkpt lat="43.16897" lon="0.88247">
        <ele>407.5</ele>
        <time>2013-12-22T16:41:16</time>
      </trkpt>
      <trkpt lat="43.16898" lon="0.88247">
        <ele>407.5</ele>
        <time>2013-12-22T16:41:19</time>
      </trkpt>
      <trkpt lat="43.16898" lon="0.88248">
        <ele>407.2</ele>
        <time>2013-12-22T16:41:20</time>
      </trkpt>
      <trkpt lat="43.16898" lon="0.8825">
        <ele>407.1</ele>
        <time>2013-12-22T16:41:21</time>
      </trkpt>
      <trkpt lat="43.16898" lon="0.88251">
        <ele>407.2</ele>
        <time>2013-12-22T16:41:22</time>
      </trkpt>
      <trkpt lat="43.16899" lon="0.88253">
        <ele>406.7</ele>
        <time>2013-12-22T16:41:23</time>
      </trkpt>
      <trkpt lat="43.16899" lon="0.88255">
        <ele>406.2</ele>
        <time>2013-12-22T16:41:24</time>
      </trkpt>
      <trkpt lat="43.16899" lon="0.88257">
        <ele>406</ele>
        <time>2013-12-22T16:41:25</time>
      </trkpt>
      <trkpt lat="43.16899" lon="0.88259">
        <ele>405.8</ele>
        <time>2013-12-22T16:41:26</time>
      </trkpt>
      <trkpt lat="43.169" lon="0.88261">
        <ele>405.7</ele>
        <time>2013-12-22T16:41:27</time>
      </trkpt>
      <trkpt lat="43.169" lon="0.88262">
        <ele>405.7</ele>
        <time>2013-12-22T16:41:28</time>
      </trkpt>
      <trkpt lat="43.16899" lon="0.88264">
        <ele>406</ele>
        <time>2013-12-22T16:41:29</time>
      </trkpt>
      <trkpt lat="43.169" lon="0.88265">
        <ele>407.9</ele>
        <time>2013-12-22T16:41:34</time>
      </trkpt>
      <trkpt lat="43.16901" lon="0.88266">
        <ele>407.7</ele>
        <time>2013-12-22T16:41:35</time>
      </trkpt>
      <trkpt lat="43.16902" lon="0.88266">
        <ele>408</ele>
        <time>2013-12-22T16:41:36</time>
      </trkpt>
      <trkpt lat="43.16903" lon="0.88266">
        <ele>408.5</ele>
        <time>2013-12-22T16:41:37</time>
      </trkpt>
      <trkpt lat="43.16904" lon="0.88266">
        <ele>409.4</ele>
        <time>2013-12-22T16:41:38</time>
      </trkpt>
      <trkpt lat="43.16904" lon="0.88267">
        <ele>409.4</ele>
        <time>2013-12-22T16:41:39</time>
      </trkpt>
      <trkpt lat="43.16905" lon="0.88267">
        <ele>409.1</ele>
        <time>2013-12-22T16:41:40</time>
      </trkpt>
      <trkpt lat="43.16906" lon="0.88267">
        <ele>409</ele>
        <time>2013-12-22T16:41:41</time>
      </trkpt>
      <trkpt lat="43.16906" lon="0.88266">
        <ele>409.5</ele>
        <time>2013-12-22T16:42:03</time>
      </trkpt>
      <trkpt lat="43.16908" lon="0.88267">
        <ele>409.4</ele>
        <time>2013-12-22T16:42:04</time>
      </trkpt>
      <trkpt lat="43.16908" lon="0.88267">
        <ele>409.4</ele>
        <time>2013-12-22T16:42:05</time>
      </trkpt>
      <trkpt lat="43.16909" lon="0.88266">
        <ele>408.3</ele>
        <time>2013-12-22T16:42:06</time>
      </trkpt>
      <trkpt lat="43.16911" lon="0.88266">
        <ele>407.9</ele>
        <time>2013-12-22T16:42:07</time>
      </trkpt>
      <trkpt lat="43.16912" lon="0.88266">
        <ele>407.2</ele>
        <time>2013-12-22T16:42:08</time>
      </trkpt>
      <trkpt lat="43.16917" lon="0.88269">
        <ele>407.7</ele>
        <time>2013-12-22T16:42:19</time>
      </trkpt>
      <trkpt lat="43.16918" lon="0.88268">
        <ele>407.6</ele>
        <time>2013-12-22T16:42:20</time>
      </trkpt>
      <trkpt lat="43.16919" lon="0.88268">
        <ele>408.4</ele>
        <time>2013-12-22T16:42:21</time>
      </trkpt>
      <trkpt lat="43.1692" lon="0.88268">
        <ele>408.4</ele>
        <time>2013-12-22T16:42:22</time>
      </trkpt>
      <trkpt lat="43.16921" lon="0.88269">
        <ele>407.8</ele>
        <time>2013-12-22T16:42:23</time>
      </trkpt>
      <trkpt lat="43.16922" lon="0.88269">
        <ele>407.4</ele>
        <time>2013-12-22T16:42:24</time>
      </trkpt>
      <trkpt lat="43.16923" lon="0.88269">
        <ele>407.8</ele>
        <time>2013-12-22T16:42:25</time>
      </trkpt>
      <trkpt lat="43.16924" lon="0.88269">
        <ele>407.4</ele>
        <time>2013-12-22T16:42:26</time>
      </trkpt>
      <trkpt lat="43.16924" lon="0.88269">
        <ele>407.4</ele>
        <time>2013-12-22T16:42:27</time>
      </trkpt>
      <trkpt lat="43.16927" lon="0.88267">
        <ele>405.8</ele>
        <time>2013-12-22T16:42:33</time>
      </trkpt>
      <trkpt lat="43.16927" lon="0.88267">
        <ele>405.7</ele>
        <time>2013-12-22T16:42:34</time>
      </trkpt>
      <trkpt lat="43.1693" lon="0.88265">
        <ele>406.3</ele>
        <time>2013-12-22T16:42:43</time>
      </trkpt>
      <trkpt lat="43.16931" lon="0.88265">
        <ele>406.6</ele>
        <time>2013-12-22T16:42:44</time>
      </trkpt>
      <trkpt lat="43.16932" lon="0.88265">
        <ele>406.9</ele>
        <time>2013-12-22T16:42:45</time>
      </trkpt>
      <trkpt lat="43.16937" lon="0.88265">
        <ele>406.4</ele>
        <time>2013-12-22T16:42:56</time>
      </trkpt>
      <trkpt lat="43.16938" lon="0.88265">
        <ele>405.4</ele>
        <time>2013-12-22T16:42:57</time>
      </trkpt>
      <trkpt lat="43.16939" lon="0.88265">
        <ele>405</ele>
        <time>2013-12-22T16:42:58</time>
      </trkpt>
      <trkpt lat="43.1694" lon="0.88265">
        <ele>404.6</ele>
        <time>2013-12-22T16:42:59</time>
      </trkpt>
      <trkpt lat="43.16941" lon="0.88265">
        <ele>404.3</ele>
        <time>2013-12-22T16:43:00</time>
      </trkpt>
      <trkpt lat="43.16942" lon="0.88265">
        <ele>404.1</ele>
        <time>2013-12-22T16:43:01</time>
      </trkpt>
      <trkpt lat="43.16943" lon="0.88265">
        <ele>404</ele>
        <time>2013-12-22T16:43:02</time>
      </trkpt>
      <trkpt lat="43.16944" lon="0.88265">
        <ele>404.1</ele>
        <time>2013-12-22T16:43:03</time>
      </trkpt>
      <trkpt lat="43.16945" lon="0.88265">
        <ele>404</ele>
        <time>2013-12-22T16:43:04</time>
      </trkpt>
      <trkpt lat="43.16949" lon="0.88267">
        <ele>403.9</ele>
        <time>2013-12-22T16:43:13</time>
      </trkpt>
      <trkpt lat="43.1695" lon="0.88267">
        <ele>403.7</ele>
        <time>2013-12-22T16:43:14</time>
      </trkpt>
      <trkpt lat="43.16951" lon="0.88267">
        <ele>403.4</ele>
        <time>2013-12-22T16:43:15</time>
      </trkpt>
      <trkpt lat="43.16952" lon="0.88267">
        <ele>403.6</ele>
        <time>2013-12-22T16:43:16</time>
      </trkpt>
      <trkpt lat="43.16963" lon="0.88268">
        <ele>403.2</ele>
        <time>2013-12-22T16:43:35</time>
      </trkpt>
      <trkpt lat="43.16964" lon="0.88268">
        <ele>403</ele>
        <time>2013-12-22T16:43:36</time>
      </trkpt>
      <trkpt lat="43.16964" lon="0.88268">
        <ele>402.4</ele>
        <time>2013-12-22T16:43:37</time>
      </trkpt>
      <trkpt lat="43.16966" lon="0.88268">
        <ele>401.9</ele>
        <time>2013-12-22T16:43:38</time>
      </trkpt>
      <trkpt lat="43.16967" lon="0.88268">
        <ele>401.3</ele>
        <time>2013-12-22T16:43:39</time>
      </trkpt>
      <trkpt lat="43.16968" lon="0.88268">
        <ele>401.2</ele>
        <time>2013-12-22T16:43:40</time>
      </trkpt>
      <trkpt lat="43.16969" lon="0.88268">
        <ele>400.6</ele>
        <time>2013-12-22T16:43:41</time>
      </trkpt>
      <trkpt lat="43.1697" lon="0.88268">
        <ele>400.6</ele>
        <time>2013-12-22T16:43:42</time>
      </trkpt>
      <trkpt lat="43.16973" lon="0.88268">
        <ele>399.7</ele>
        <time>2013-12-22T16:43:43</time>
      </trkpt>
      <trkpt lat="43.16974" lon="0.88268">
        <ele>398.8</ele>
        <time>2013-12-22T16:43:44</time>
      </trkpt>
      <trkpt lat="43.16975" lon="0.88268">
        <ele>398.2</ele>
        <time>2013-12-22T16:43:45</time>
      </trkpt>
      <trkpt lat="43.16976" lon="0.88268">
        <ele>398.5</ele>
        <time>2013-12-22T16:43:46</time>
      </trkpt>
      <trkpt lat="43.16978" lon="0.88268">
        <ele>398.2</ele>
        <time>2013-12-22T16:43:47</time>
      </trkpt>
      <trkpt lat="43.16979" lon="0.88267">
        <ele>398</ele>
        <time>2013-12-22T16:43:48</time>
      </trkpt>
      <trkpt lat="43.16981" lon="0.88267">
        <ele>398.7</ele>
        <time>2013-12-22T16:43:49</time>
      </trkpt>
      <trkpt lat="43.16982" lon="0.88267">
        <ele>398.8</ele>
        <time>2013-12-22T16:43:50</time>
      </trkpt>
      <trkpt lat="43.16984" lon="0.88267">
        <ele>413.6</ele>
        <time>2013-12-22T16:43:51</time>
      </trkpt>
      <trkpt lat="43.16985" lon="0.88267">
        <ele>413.5</ele>
        <time>2013-12-22T16:43:52</time>
      </trkpt>
      <trkpt lat="43.16987" lon="0.88266">
        <ele>405.1</ele>
        <time>2013-12-22T16:43:53</time>
      </trkpt>
      <trkpt lat="43.16988" lon="0.88265">
        <ele>402.8</ele>
        <time>2013-12-22T16:43:54</time>
      </trkpt>
      <trkpt lat="43.16993" lon="0.88263">
        <ele>399.9</ele>
        <time>2013-12-22T16:44:00</time>
      </trkpt>
      <trkpt lat="43.16997" lon="0.88264">
        <ele>399.1</ele>
        <time>2013-12-22T16:44:06</time>
      </trkpt>
      <trkpt lat="43.16998" lon="0.88264">
        <ele>399</ele>
        <time>2013-12-22T16:44:07</time>
      </trkpt>
      <trkpt lat="43.16999" lon="0.88264">
        <ele>399.2</ele>
        <time>2013-12-22T16:44:08</time>
      </trkpt>
      <trkpt lat="43.17" lon="0.88264">
        <ele>399.1</ele>
        <time>2013-12-22T16:44:09</time>
      </trkpt>
      <trkpt lat="43.17002" lon="0.88264">
        <ele>400.3</ele>
        <time>2013-12-22T16:44:10</time>
      </trkpt>
      <trkpt lat="43.17003" lon="0.88263">
        <ele>400.8</ele>
        <time>2013-12-22T16:44:11</time>
      </trkpt>
      <trkpt lat="43.17004" lon="0.88263">
        <ele>401.4</ele>
        <time>2013-12-22T16:44:12</time>
      </trkpt>
      <trkpt lat="43.17006" lon="0.88263">
        <ele>401.2</ele>
        <time>2013-12-22T16:44:13</time>
      </trkpt>
      <trkpt lat="43.17014" lon="0.88263">
        <ele>402.2</ele>
        <time>2013-12-22T16:44:23</time>
      </trkpt>
      <trkpt lat="43.17015" lon="0.88264">
        <ele>401.7</ele>
        <time>2013-12-22T16:44:24</time>
      </trkpt>
      <trkpt lat="43.17016" lon="0.88266">
        <ele>400.6</ele>
        <time>2013-12-22T16:44:25</time>
      </trkpt>
      <trkpt lat="43.17016" lon="0.88267">
        <ele>399.8</ele>
        <time>2013-12-22T16:44:26</time>
      </trkpt>
      <trkpt lat="43.17017" lon="0.88269">
        <ele>399.3</ele>
        <time>2013-12-22T16:44:27</time>
      </trkpt>
      <trkpt lat="43.17017" lon="0.8827">
        <ele>399.2</ele>
        <time>2013-12-22T16:44:28</time>
      </trkpt>
      <trkpt lat="43.17017" lon="0.88272">
        <ele>399.2</ele>
        <time>2013-12-22T16:44:29</time>
      </trkpt>
      <trkpt lat="43.17017" lon="0.88273">
        <ele>399.1</ele>
        <time>2013-12-22T16:44:30</time>
      </trkpt>
      <trkpt lat="43.17017" lon="0.88275">
        <ele>398.1</ele>
        <time>2013-12-22T16:44:31</time>
      </trkpt>
      <trkpt lat="43.17017" lon="0.88276">
        <ele>397</ele>
        <time>2013-12-22T16:44:32</time>
      </trkpt>
      <trkpt lat="43.17017" lon="0.88277">
        <ele>397.2</ele>
        <time>2013-12-22T16:44:33</time>
      </trkpt>
      <trkpt lat="43.17017" lon="0.88279">
        <ele>397.3</ele>
        <time>2013-12-22T16:44:34</time>
      </trkpt>
      <trkpt lat="43.17018" lon="0.8828">
        <ele>397.8</ele>
        <time>2013-12-22T16:44:35</time>
      </trkpt>
      <trkpt lat="43.17019" lon="0.88282">
        <ele>398.1</ele>
        <time>2013-12-22T16:44:36</time>
      </trkpt>
      <trkpt lat="43.17022" lon="0.88285">
        <ele>398.2</ele>
        <time>2013-12-22T16:44:39</time>
      </trkpt>
      <trkpt lat="43.17023" lon="0.88286">
        <ele>398.4</ele>
        <time>2013-12-22T16:44:40</time>
      </trkpt>
      <trkpt lat="43.17023" lon="0.88288">
        <ele>399</ele>
        <time>2013-12-22T16:44:41</time>
      </trkpt>
      <trkpt lat="43.17024" lon="0.8829">
        <ele>398.9</ele>
        <time>2013-12-22T16:44:42</time>
      </trkpt>
      <trkpt lat="43.17025" lon="0.88291">
        <ele>398.7</ele>
        <time>2013-12-22T16:44:43</time>
      </trkpt>
      <trkpt lat="43.17025" lon="0.88293">
        <ele>399</ele>
        <time>2013-12-22T16:44:44</time>
      </trkpt>
      <trkpt lat="43.17026" lon="0.88294">
        <ele>398.6</ele>
        <time>2013-12-22T16:44:45</time>
      </trkpt>
      <trkpt lat="43.17026" lon="0.88296">
        <ele>397.7</ele>
        <time>2013-12-22T16:44:46</time>
      </trkpt>
      <trkpt lat="43.17026" lon="0.88297">
        <ele>397.1</ele>
        <time>2013-12-22T16:44:47</time>
      </trkpt>
      <trkpt lat="43.17027" lon="0.88299">
        <ele>397.9</ele>
        <time>2013-12-22T16:44:48</time>
      </trkpt>
      <trkpt lat="43.17027" lon="0.883">
        <ele>398.1</ele>
        <time>2013-12-22T16:44:49</time>
      </trkpt>
      <trkpt lat="43.17027" lon="0.88301">
        <ele>397.2</ele>
        <time>2013-12-22T16:44:50</time>
      </trkpt>
      <trkpt lat="43.17027" lon="0.88302">
        <ele>397.2</ele>
        <time>2013-12-22T16:44:51</time>
      </trkpt>
      <trkpt lat="43.17027" lon="0.88303">
        <ele>396.9</ele>
        <time>2013-12-22T16:44:52</time>
      </trkpt>
      <trkpt lat="43.17027" lon="0.88305">
        <ele>396.7</ele>
        <time>2013-12-22T16:44:53</time>
      </trkpt>
      <trkpt lat="43.17026" lon="0.88306">
        <ele>396.5</ele>
        <time>2013-12-22T16:44:54</time>
      </trkpt>
      <trkpt lat="43.17027" lon="0.88307">
        <ele>396.4</ele>
        <time>2013-12-22T16:44:55</time>
      </trkpt>
      <trkpt lat="43.17027" lon="0.88309">
        <ele>396.9</ele>
        <time>2013-12-22T16:44:56</time>
      </trkpt>
      <trkpt lat="43.17027" lon="0.8831">
        <ele>396.9</ele>
        <time>2013-12-22T16:44:57</time>
      </trkpt>
      <trkpt lat="43.17028" lon="0.88311">
        <ele>396.6</ele>
        <time>2013-12-22T16:44:58</time>
      </trkpt>
      <trkpt lat="43.17028" lon="0.88313">
        <ele>396.4</ele>
        <time>2013-12-22T16:44:59</time>
      </trkpt>
      <trkpt lat="43.17028" lon="0.88314">
        <ele>396.2</ele>
        <time>2013-12-22T16:45:00</time>
      </trkpt>
      <trkpt lat="43.17028" lon="0.88315">
        <ele>395.9</ele>
        <time>2013-12-22T16:45:01</time>
      </trkpt>
      <trkpt lat="43.17028" lon="0.88316">
        <ele>395.8</ele>
        <time>2013-12-22T16:45:02</time>
      </trkpt>
      <trkpt lat="43.17028" lon="0.88317">
        <ele>395.6</ele>
        <time>2013-12-22T16:45:03</time>
      </trkpt>
      <trkpt lat="43.17029" lon="0.88318">
        <ele>395.8</ele>
        <time>2013-12-22T16:45:04</time>
      </trkpt>
      <trkpt lat="43.17029" lon="0.8832">
        <ele>395.6</ele>
        <time>2013-12-22T16:45:05</time>
      </trkpt>
      <trkpt lat="43.17029" lon="0.88321">
        <ele>395.3</ele>
        <time>2013-12-22T16:45:06</time>
      </trkpt>
      <trkpt lat="43.17029" lon="0.88322">
        <ele>395</ele>
        <time>2013-12-22T16:45:07</time>
      </trkpt>
      <trkpt lat="43.17029" lon="0.88323">
        <ele>395</ele>
        <time>2013-12-22T16:45:08</time>
      </trkpt>
      <trkpt lat="43.17029" lon="0.88325">
        <ele>395.4</ele>
        <time>2013-12-22T16:45:09</time>
      </trkpt>
      <trkpt lat="43.17028" lon="0.88326">
        <ele>395.8</ele>
        <time>2013-12-22T16:45:10</time>
      </trkpt>
      <trkpt lat="43.17028" lon="0.88327">
        <ele>395.7</ele>
        <time>2013-12-22T16:45:11</time>
      </trkpt>
      <trkpt lat="43.17028" lon="0.88329">
        <ele>395.6</ele>
        <time>2013-12-22T16:45:12</time>
      </trkpt>
      <trkpt lat="43.17028" lon="0.8833">
        <ele>395.5</ele>
        <time>2013-12-22T16:45:13</time>
      </trkpt>
      <trkpt lat="43.17028" lon="0.88331">
        <ele>395.7</ele>
        <time>2013-12-22T16:45:14</time>
      </trkpt>
      <trkpt lat="43.17028" lon="0.88333">
        <ele>395.7</ele>
        <time>2013-12-22T16:45:15</time>
      </trkpt>
      <trkpt lat="43.17028" lon="0.88334">
        <ele>396.1</ele>
        <time>2013-12-22T16:45:16</time>
      </trkpt>
      <trkpt lat="43.17028" lon="0.88336">
        <ele>396.2</ele>
        <time>2013-12-22T16:45:17</time>
      </trkpt>
      <trkpt lat="43.17027" lon="0.88337">
        <ele>395.9</ele>
        <time>2013-12-22T16:45:18</time>
      </trkpt>
      <trkpt lat="43.17027" lon="0.88339">
        <ele>396.1</ele>
        <time>2013-12-22T16:45:19</time>
      </trkpt>
      <trkpt lat="43.17027" lon="0.8834">
        <ele>396.1</ele>
        <time>2013-12-22T16:45:20</time>
      </trkpt>
      <trkpt lat="43.17027" lon="0.88342">
        <ele>395.4</ele>
        <time>2013-12-22T16:45:21</time>
      </trkpt>
      <trkpt lat="43.17027" lon="0.88343">
        <ele>395.4</ele>
        <time>2013-12-22T16:45:22</time>
      </trkpt>
      <trkpt lat="43.17027" lon="0.88344">
        <ele>395.6</ele>
        <time>2013-12-22T16:45:23</time>
      </trkpt>
      <trkpt lat="43.17026" lon="0.88346">
        <ele>396.1</ele>
        <time>2013-12-22T16:45:24</time>
      </trkpt>
      <trkpt lat="43.17026" lon="0.88348">
        <ele>396</ele>
        <time>2013-12-22T16:45:25</time>
      </trkpt>
      <trkpt lat="43.17026" lon="0.88349">
        <ele>396.1</ele>
        <time>2013-12-22T16:45:26</time>
      </trkpt>
      <trkpt lat="43.17026" lon="0.8835">
        <ele>396.1</ele>
        <time>2013-12-22T16:45:27</time>
      </trkpt>
      <trkpt lat="43.17026" lon="0.88352">
        <ele>396</ele>
        <time>2013-12-22T16:45:28</time>
      </trkpt>
      <trkpt lat="43.17025" lon="0.88353">
        <ele>395.7</ele>
        <time>2013-12-22T16:45:29</time>
      </trkpt>
      <trkpt lat="43.17025" lon="0.88354">
        <ele>395.5</ele>
        <time>2013-12-22T16:45:30</time>
      </trkpt>
      <trkpt lat="43.17025" lon="0.88355">
        <ele>396</ele>
        <time>2013-12-22T16:45:31</time>
      </trkpt>
      <trkpt lat="43.17024" lon="0.88356">
        <ele>395.9</ele>
        <time>2013-12-22T16:45:32</time>
      </trkpt>
      <trkpt lat="43.17024" lon="0.88357">
        <ele>396.2</ele>
        <time>2013-12-22T16:45:33</time>
      </trkpt>
      <trkpt lat="43.17023" lon="0.88358">
        <ele>396.3</ele>
        <time>2013-12-22T16:45:34</time>
      </trkpt>
      <trkpt lat="43.17023" lon="0.8836">
        <ele>396.7</ele>
        <time>2013-12-22T16:45:35</time>
      </trkpt>
      <trkpt lat="43.17022" lon="0.88361">
        <ele>396.5</ele>
        <time>2013-12-22T16:45:36</time>
      </trkpt>
      <trkpt lat="43.17022" lon="0.88362">
        <ele>397.1</ele>
        <time>2013-12-22T16:45:37</time>
      </trkpt>
      <trkpt lat="43.17021" lon="0.88364">
        <ele>397.4</ele>
        <time>2013-12-22T16:45:38</time>
      </trkpt>
      <trkpt lat="43.1702" lon="0.88365">
        <ele>397.8</ele>
        <time>2013-12-22T16:45:39</time>
      </trkpt>
      <trkpt lat="43.1702" lon="0.88366">
        <ele>397.7</ele>
        <time>2013-12-22T16:45:40</time>
      </trkpt>
      <trkpt lat="43.17019" lon="0.88368">
        <ele>397.9</ele>
        <time>2013-12-22T16:45:41</time>
      </trkpt>
      <trkpt lat="43.17019" lon="0.8837">
        <ele>398</ele>
        <time>2013-12-22T16:45:42</time>
      </trkpt>
      <trkpt lat="43.17019" lon="0.88371">
        <ele>398.2</ele>
        <time>2013-12-22T16:45:43</time>
      </trkpt>
      <trkpt lat="43.17019" lon="0.88373">
        <ele>398.3</ele>
        <time>2013-12-22T16:45:44</time>
      </trkpt>
      <trkpt lat="43.17018" lon="0.88374">
        <ele>398.3</ele>
        <time>2013-12-22T16:45:45</time>
      </trkpt>
      <trkpt lat="43.17018" lon="0.88376">
        <ele>398.3</ele>
        <time>2013-12-22T16:45:46</time>
      </trkpt>
      <trkpt lat="43.17017" lon="0.88377">
        <ele>398.3</ele>
        <time>2013-12-22T16:45:47</time>
      </trkpt>
      <trkpt lat="43.17017" lon="0.88379">
        <ele>398.3</ele>
        <time>2013-12-22T16:45:48</time>
      </trkpt>
      <trkpt lat="43.17016" lon="0.8838">
        <ele>398.5</ele>
        <time>2013-12-22T16:45:49</time>
      </trkpt>
      <trkpt lat="43.17016" lon="0.88382">
        <ele>399</ele>
        <time>2013-12-22T16:45:50</time>
      </trkpt>
      <trkpt lat="43.17016" lon="0.88383">
        <ele>399.2</ele>
        <time>2013-12-22T16:45:51</time>
      </trkpt>
      <trkpt lat="43.17015" lon="0.88385">
        <ele>398.4</ele>
        <time>2013-12-22T16:45:52</time>
      </trkpt>
      <trkpt lat="43.17015" lon="0.88386">
        <ele>397.8</ele>
        <time>2013-12-22T16:45:53</time>
      </trkpt>
      <trkpt lat="43.17014" lon="0.88388">
        <ele>397.3</ele>
        <time>2013-12-22T16:45:54</time>
      </trkpt>
      <trkpt lat="43.17014" lon="0.88389">
        <ele>397.1</ele>
        <time>2013-12-22T16:45:55</time>
      </trkpt>
      <trkpt lat="43.17014" lon="0.8839">
        <ele>396.9</ele>
        <time>2013-12-22T16:45:56</time>
      </trkpt>
      <trkpt lat="43.17013" lon="0.88392">
        <ele>397.2</ele>
        <time>2013-12-22T16:45:57</time>
      </trkpt>
      <trkpt lat="43.17013" lon="0.88393">
        <ele>396.8</ele>
        <time>2013-12-22T16:45:58</time>
      </trkpt>
      <trkpt lat="43.17013" lon="0.88394">
        <ele>396.7</ele>
        <time>2013-12-22T16:45:59</time>
      </trkpt>
      <trkpt lat="43.17013" lon="0.88396">
        <ele>396.5</ele>
        <time>2013-12-22T16:46:00</time>
      </trkpt>
      <trkpt lat="43.17012" lon="0.88397">
        <ele>396.4</ele>
        <time>2013-12-22T16:46:01</time>
      </trkpt>
      <trkpt lat="43.17012" lon="0.88399">
        <ele>396.7</ele>
        <time>2013-12-22T16:46:02</time>
      </trkpt>
      <trkpt lat="43.17012" lon="0.884">
        <ele>396.2</ele>
        <time>2013-12-22T16:46:03</time>
      </trkpt>
      <trkpt lat="43.17012" lon="0.88402">
        <ele>396.3</ele>
        <time>2013-12-22T16:46:04</time>
      </trkpt>
      <trkpt lat="43.17011" lon="0.88403">
        <ele>395.9</ele>
        <time>2013-12-22T16:46:05</time>
      </trkpt>
      <trkpt lat="43.17011" lon="0.88404">
        <ele>395.9</ele>
        <time>2013-12-22T16:46:06</time>
      </trkpt>
      <trkpt lat="43.17011" lon="0.88406">
        <ele>395.5</ele>
        <time>2013-12-22T16:46:07</time>
      </trkpt>
      <trkpt lat="43.17011" lon="0.88407">
        <ele>395.4</ele>
        <time>2013-12-22T16:46:08</time>
      </trkpt>
      <trkpt lat="43.17011" lon="0.88408">
        <ele>394.7</ele>
        <time>2013-12-22T16:46:09</time>
      </trkpt>
      <trkpt lat="43.17011" lon="0.8841">
        <ele>395</ele>
        <time>2013-12-22T16:46:10</time>
      </trkpt>
      <trkpt lat="43.1701" lon="0.88411">
        <ele>395.4</ele>
        <time>2013-12-22T16:46:11</time>
      </trkpt>
      <trkpt lat="43.1701" lon="0.88413">
        <ele>396</ele>
        <time>2013-12-22T16:46:12</time>
      </trkpt>
      <trkpt lat="43.1701" lon="0.88415">
        <ele>396</ele>
        <time>2013-12-22T16:46:13</time>
      </trkpt>
      <trkpt lat="43.1701" lon="0.88416">
        <ele>396</ele>
        <time>2013-12-22T16:46:14</time>
      </trkpt>
      <trkpt lat="43.1701" lon="0.88418">
        <ele>395.8</ele>
        <time>2013-12-22T16:46:15</time>
      </trkpt>
      <trkpt lat="43.1701" lon="0.88419">
        <ele>396</ele>
        <time>2013-12-22T16:46:16</time>
      </trkpt>
      <trkpt lat="43.1701" lon="0.88421">
        <ele>396.1</ele>
        <time>2013-12-22T16:46:17</time>
      </trkpt>
      <trkpt lat="43.1701" lon="0.88423">
        <ele>396.3</ele>
        <time>2013-12-22T16:46:18</time>
      </trkpt>
      <trkpt lat="43.1701" lon="0.88424">
        <ele>395.9</ele>
        <time>2013-12-22T16:46:19</time>
      </trkpt>
      <trkpt lat="43.1701" lon="0.88426">
        <ele>395.9</ele>
        <time>2013-12-22T16:46:20</time>
      </trkpt>
      <trkpt lat="43.1701" lon="0.88428">
        <ele>395.9</ele>
        <time>2013-12-22T16:46:21</time>
      </trkpt>
      <trkpt lat="43.1701" lon="0.88429">
        <ele>396.1</ele>
        <time>2013-12-22T16:46:22</time>
      </trkpt>
      <trkpt lat="43.1701" lon="0.88431">
        <ele>396.2</ele>
        <time>2013-12-22T16:46:23</time>
      </trkpt>
      <trkpt lat="43.1701" lon="0.88432">
        <ele>395.7</ele>
        <time>2013-12-22T16:46:24</time>
      </trkpt>
      <trkpt lat="43.17009" lon="0.88434">
        <ele>395.1</ele>
        <time>2013-12-22T16:46:25</time>
      </trkpt>
      <trkpt lat="43.17009" lon="0.88435">
        <ele>394.7</ele>
        <time>2013-12-22T16:46:26</time>
      </trkpt>
      <trkpt lat="43.17009" lon="0.88437">
        <ele>394.7</ele>
        <time>2013-12-22T16:46:27</time>
      </trkpt>
      <trkpt lat="43.1701" lon="0.88438">
        <ele>394.9</ele>
        <time>2013-12-22T16:46:28</time>
      </trkpt>
      <trkpt lat="43.1701" lon="0.8844">
        <ele>395</ele>
        <time>2013-12-22T16:46:29</time>
      </trkpt>
      <trkpt lat="43.1701" lon="0.88441">
        <ele>394.2</ele>
        <time>2013-12-22T16:46:30</time>
      </trkpt>
      <trkpt lat="43.17009" lon="0.88443">
        <ele>393.9</ele>
        <time>2013-12-22T16:46:31</time>
      </trkpt>
      <trkpt lat="43.17009" lon="0.88444">
        <ele>393.8</ele>
        <time>2013-12-22T16:46:32</time>
      </trkpt>
      <trkpt lat="43.17009" lon="0.88445">
        <ele>393.7</ele>
        <time>2013-12-22T16:46:33</time>
      </trkpt>
      <trkpt lat="43.1701" lon="0.88446">
        <ele>393.2</ele>
        <time>2013-12-22T16:46:34</time>
      </trkpt>
      <trkpt lat="43.1701" lon="0.88448">
        <ele>393</ele>
        <time>2013-12-22T16:46:35</time>
      </trkpt>
      <trkpt lat="43.1701" lon="0.88449">
        <ele>393</ele>
        <time>2013-12-22T16:46:36</time>
      </trkpt>
      <trkpt lat="43.1701" lon="0.88451">
        <ele>393</ele>
        <time>2013-12-22T16:46:37</time>
      </trkpt>
      <trkpt lat="43.1701" lon="0.88452">
        <ele>393.1</ele>
        <time>2013-12-22T16:46:38</time>
      </trkpt>
      <trkpt lat="43.17009" lon="0.88454">
        <ele>393.1</ele>
        <time>2013-12-22T16:46:39</time>
      </trkpt>
      <trkpt lat="43.17009" lon="0.88455">
        <ele>392.6</ele>
        <time>2013-12-22T16:46:40</time>
      </trkpt>
      <trkpt lat="43.17009" lon="0.88456">
        <ele>392.7</ele>
        <time>2013-12-22T16:46:41</time>
      </trkpt>
      <trkpt lat="43.17009" lon="0.88458">
        <ele>392.3</ele>
        <time>2013-12-22T16:46:42</time>
      </trkpt>
      <trkpt lat="43.17009" lon="0.88459">
        <ele>392.7</ele>
        <time>2013-12-22T16:46:43</time>
      </trkpt>
      <trkpt lat="43.17009" lon="0.8846">
        <ele>392.8</ele>
        <time>2013-12-22T16:46:44</time>
      </trkpt>
      <trkpt lat="43.17009" lon="0.88462">
        <ele>392.8</ele>
        <time>2013-12-22T16:46:45</time>
      </trkpt>
      <trkpt lat="43.17009" lon="0.88463">
        <ele>392.8</ele>
        <time>2013-12-22T16:46:46</time>
      </trkpt>
      <trkpt lat="43.17009" lon="0.88465">
        <ele>392.9</ele>
        <time>2013-12-22T16:46:47</time>
      </trkpt>
      <trkpt lat="43.17009" lon="0.88466">
        <ele>392.9</ele>
        <time>2013-12-22T16:46:48</time>
      </trkpt>
      <trkpt lat="43.17008" lon="0.88467">
        <ele>392.7</ele>
        <time>2013-12-22T16:46:49</time>
      </trkpt>
      <trkpt lat="43.17008" lon="0.88469">
        <ele>392.7</ele>
        <time>2013-12-22T16:46:50</time>
      </trkpt>
      <trkpt lat="43.17008" lon="0.8847">
        <ele>392.1</ele>
        <time>2013-12-22T16:46:51</time>
      </trkpt>
      <trkpt lat="43.17007" lon="0.88471">
        <ele>392</ele>
        <time>2013-12-22T16:46:52</time>
      </trkpt>
      <trkpt lat="43.17007" lon="0.88472">
        <ele>391.8</ele>
        <time>2013-12-22T16:46:53</time>
      </trkpt>
      <trkpt lat="43.17007" lon="0.88473">
        <ele>391.7</ele>
        <time>2013-12-22T16:46:54</time>
      </trkpt>
      <trkpt lat="43.17007" lon="0.88474">
        <ele>391.4</ele>
        <time>2013-12-22T16:46:55</time>
      </trkpt>
      <trkpt lat="43.17007" lon="0.88475">
        <ele>391</ele>
        <time>2013-12-22T16:46:56</time>
      </trkpt>
      <trkpt lat="43.17007" lon="0.88476">
        <ele>390.6</ele>
        <time>2013-12-22T16:46:57</time>
      </trkpt>
      <trkpt lat="43.17007" lon="0.88477">
        <ele>391.2</ele>
        <time>2013-12-22T16:46:58</time>
      </trkpt>
      <trkpt lat="43.17006" lon="0.88478">
        <ele>391.6</ele>
        <time>2013-12-22T16:46:59</time>
      </trkpt>
      <trkpt lat="43.17006" lon="0.8848">
        <ele>392.4</ele>
        <time>2013-12-22T16:47:00</time>
      </trkpt>
      <trkpt lat="43.17006" lon="0.88481">
        <ele>392.6</ele>
        <time>2013-12-22T16:47:01</time>
      </trkpt>
      <trkpt lat="43.17006" lon="0.88482">
        <ele>392.7</ele>
        <time>2013-12-22T16:47:02</time>
      </trkpt>
      <trkpt lat="43.17006" lon="0.88483">
        <ele>392.7</ele>
        <time>2013-12-22T16:47:03</time>
      </trkpt>
      <trkpt lat="43.17005" lon="0.88485">
        <ele>393.2</ele>
        <time>2013-12-22T16:47:04</time>
      </trkpt>
      <trkpt lat="43.17005" lon="0.88486">
        <ele>393.4</ele>
        <time>2013-12-22T16:47:05</time>
      </trkpt>
      <trkpt lat="43.17004" lon="0.88487">
        <ele>393.3</ele>
        <time>2013-12-22T16:47:06</time>
      </trkpt>
      <trkpt lat="43.17004" lon="0.88488">
        <ele>392.5</ele>
        <time>2013-12-22T16:47:07</time>
      </trkpt>
      <trkpt lat="43.17004" lon="0.8849">
        <ele>392.5</ele>
        <time>2013-12-22T16:47:08</time>
      </trkpt>
      <trkpt lat="43.17004" lon="0.88491">
        <ele>392.8</ele>
        <time>2013-12-22T16:47:09</time>
      </trkpt>
      <trkpt lat="43.17004" lon="0.88492">
        <ele>392.7</ele>
        <time>2013-12-22T16:47:10</time>
      </trkpt>
      <trkpt lat="43.17003" lon="0.88493">
        <ele>392.6</ele>
        <time>2013-12-22T16:47:11</time>
      </trkpt>
      <trkpt lat="43.17003" lon="0.88495">
        <ele>392.1</ele>
        <time>2013-12-22T16:47:12</time>
      </trkpt>
      <trkpt lat="43.17003" lon="0.88496">
        <ele>392.4</ele>
        <time>2013-12-22T16:47:13</time>
      </trkpt>
      <trkpt lat="43.17003" lon="0.88497">
        <ele>391.5</ele>
        <time>2013-12-22T16:47:14</time>
      </trkpt>
      <trkpt lat="43.17002" lon="0.88498">
        <ele>391.3</ele>
        <time>2013-12-22T16:47:15</time>
      </trkpt>
      <trkpt lat="43.17001" lon="0.88499">
        <ele>391.1</ele>
        <time>2013-12-22T16:47:16</time>
      </trkpt>
      <trkpt lat="43.17001" lon="0.885">
        <ele>390.9</ele>
        <time>2013-12-22T16:47:17</time>
      </trkpt>
      <trkpt lat="43.17" lon="0.88501">
        <ele>391.2</ele>
        <time>2013-12-22T16:47:18</time>
      </trkpt>
      <trkpt lat="43.17" lon="0.88502">
        <ele>390.9</ele>
        <time>2013-12-22T16:47:19</time>
      </trkpt>
      <trkpt lat="43.16999" lon="0.88503">
        <ele>390.1</ele>
        <time>2013-12-22T16:47:20</time>
      </trkpt>
      <trkpt lat="43.16999" lon="0.88504">
        <ele>389.8</ele>
        <time>2013-12-22T16:47:21</time>
      </trkpt>
      <trkpt lat="43.16999" lon="0.88505">
        <ele>388.8</ele>
        <time>2013-12-22T16:47:22</time>
      </trkpt>
      <trkpt lat="43.16999" lon="0.88505">
        <ele>389.2</ele>
        <time>2013-12-22T16:47:23</time>
      </trkpt>
      <trkpt lat="43.16999" lon="0.88506">
        <ele>388.9</ele>
        <time>2013-12-22T16:47:24</time>
      </trkpt>
      <trkpt lat="43.16999" lon="0.88507">
        <ele>388.9</ele>
        <time>2013-12-22T16:47:25</time>
      </trkpt>
      <trkpt lat="43.16999" lon="0.88509">
        <ele>388.8</ele>
        <time>2013-12-22T16:47:26</time>
      </trkpt>
      <trkpt lat="43.17" lon="0.8851">
        <ele>388.5</ele>
        <time>2013-12-22T16:47:27</time>
      </trkpt>
      <trkpt lat="43.17001" lon="0.8851">
        <ele>388.3</ele>
        <time>2013-12-22T16:47:28</time>
      </trkpt>
      <trkpt lat="43.17002" lon="0.88511">
        <ele>388.2</ele>
        <time>2013-12-22T16:47:29</time>
      </trkpt>
      <trkpt lat="43.17003" lon="0.88512">
        <ele>388.2</ele>
        <time>2013-12-22T16:47:30</time>
      </trkpt>
      <trkpt lat="43.17004" lon="0.88513">
        <ele>388</ele>
        <time>2013-12-22T16:47:31</time>
      </trkpt>
      <trkpt lat="43.17005" lon="0.88513">
        <ele>387.8</ele>
        <time>2013-12-22T16:47:32</time>
      </trkpt>
      <trkpt lat="43.17006" lon="0.88514">
        <ele>387.7</ele>
        <time>2013-12-22T16:47:33</time>
      </trkpt>
      <trkpt lat="43.17006" lon="0.88515">
        <ele>387.6</ele>
        <time>2013-12-22T16:47:34</time>
      </trkpt>
      <trkpt lat="43.17007" lon="0.88517">
        <ele>387.4</ele>
        <time>2013-12-22T16:47:35</time>
      </trkpt>
      <trkpt lat="43.17007" lon="0.88518">
        <ele>387.5</ele>
        <time>2013-12-22T16:47:36</time>
      </trkpt>
      <trkpt lat="43.17008" lon="0.8852">
        <ele>387.4</ele>
        <time>2013-12-22T16:47:37</time>
      </trkpt>
      <trkpt lat="43.17008" lon="0.88521">
        <ele>387.3</ele>
        <time>2013-12-22T16:47:38</time>
      </trkpt>
      <trkpt lat="43.17008" lon="0.88522">
        <ele>387.3</ele>
        <time>2013-12-22T16:47:39</time>
      </trkpt>
      <trkpt lat="43.17009" lon="0.88524">
        <ele>387.3</ele>
        <time>2013-12-22T16:47:40</time>
      </trkpt>
      <trkpt lat="43.17009" lon="0.88525">
        <ele>387.1</ele>
        <time>2013-12-22T16:47:41</time>
      </trkpt>
      <trkpt lat="43.17009" lon="0.88527">
        <ele>386.7</ele>
        <time>2013-12-22T16:47:42</time>
      </trkpt>
      <trkpt lat="43.17009" lon="0.88528">
        <ele>386.8</ele>
        <time>2013-12-22T16:47:43</time>
      </trkpt>
      <trkpt lat="43.17009" lon="0.88529">
        <ele>386.5</ele>
        <time>2013-12-22T16:47:44</time>
      </trkpt>
      <trkpt lat="43.17009" lon="0.88531">
        <ele>386.7</ele>
        <time>2013-12-22T16:47:45</time>
      </trkpt>
      <trkpt lat="43.1701" lon="0.88532">
        <ele>386.4</ele>
        <time>2013-12-22T16:47:46</time>
      </trkpt>
      <trkpt lat="43.17011" lon="0.88533">
        <ele>386.4</ele>
        <time>2013-12-22T16:47:47</time>
      </trkpt>
      <trkpt lat="43.17011" lon="0.88534">
        <ele>386.5</ele>
        <time>2013-12-22T16:47:48</time>
      </trkpt>
      <trkpt lat="43.17012" lon="0.88534">
        <ele>386.6</ele>
        <time>2013-12-22T16:47:49</time>
      </trkpt>
      <trkpt lat="43.17013" lon="0.88535">
        <ele>386.3</ele>
        <time>2013-12-22T16:47:50</time>
      </trkpt>
      <trkpt lat="43.17014" lon="0.88535">
        <ele>386.2</ele>
        <time>2013-12-22T16:47:51</time>
      </trkpt>
      <trkpt lat="43.17015" lon="0.88536">
        <ele>385.6</ele>
        <time>2013-12-22T16:47:52</time>
      </trkpt>
      <trkpt lat="43.17016" lon="0.88537">
        <ele>385.6</ele>
        <time>2013-12-22T16:47:53</time>
      </trkpt>
      <trkpt lat="43.17016" lon="0.88537">
        <ele>386</ele>
        <time>2013-12-22T16:47:54</time>
      </trkpt>
      <trkpt lat="43.17017" lon="0.88538">
        <ele>385.7</ele>
        <time>2013-12-22T16:47:55</time>
      </trkpt>
      <trkpt lat="43.17018" lon="0.88539">
        <ele>385.7</ele>
        <time>2013-12-22T16:47:56</time>
      </trkpt>
      <trkpt lat="43.17018" lon="0.8854">
        <ele>385.7</ele>
        <time>2013-12-22T16:47:57</time>
      </trkpt>
      <trkpt lat="43.17019" lon="0.88541">
        <ele>385.4</ele>
        <time>2013-12-22T16:47:58</time>
      </trkpt>
      <trkpt lat="43.1702" lon="0.88542">
        <ele>385.2</ele>
        <time>2013-12-22T16:47:59</time>
      </trkpt>
      <trkpt lat="43.1702" lon="0.88542">
        <ele>385.2</ele>
        <time>2013-12-22T16:48:00</time>
      </trkpt>
      <trkpt lat="43.17021" lon="0.88543">
        <ele>385.1</ele>
        <time>2013-12-22T16:48:01</time>
      </trkpt>
      <trkpt lat="43.17022" lon="0.88544">
        <ele>385.3</ele>
        <time>2013-12-22T16:48:02</time>
      </trkpt>
      <trkpt lat="43.17022" lon="0.88545">
        <ele>385.4</ele>
        <time>2013-12-22T16:48:03</time>
      </trkpt>
      <trkpt lat="43.17022" lon="0.88546">
        <ele>386.4</ele>
        <time>2013-12-22T16:48:04</time>
      </trkpt>
      <trkpt lat="43.17023" lon="0.88547">
        <ele>386.5</ele>
        <time>2013-12-22T16:48:05</time>
      </trkpt>
      <trkpt lat="43.17023" lon="0.88548">
        <ele>386.3</ele>
        <time>2013-12-22T16:48:06</time>
      </trkpt>
      <trkpt lat="43.17024" lon="0.88549">
        <ele>386.3</ele>
        <time>2013-12-22T16:48:07</time>
      </trkpt>
      <trkpt lat="43.17024" lon="0.8855">
        <ele>386.3</ele>
        <time>2013-12-22T16:48:08</time>
      </trkpt>
      <trkpt lat="43.17025" lon="0.8855">
        <ele>386.2</ele>
        <time>2013-12-22T16:48:09</time>
      </trkpt>
      <trkpt lat="43.17026" lon="0.88551">
        <ele>385.9</ele>
        <time>2013-12-22T16:48:10</time>
      </trkpt>
      <trkpt lat="43.17027" lon="0.88552">
        <ele>385.7</ele>
        <time>2013-12-22T16:48:11</time>
      </trkpt>
      <trkpt lat="43.17027" lon="0.88554">
        <ele>385.5</ele>
        <time>2013-12-22T16:48:12</time>
      </trkpt>
      <trkpt lat="43.17028" lon="0.88555">
        <ele>385.1</ele>
        <time>2013-12-22T16:48:13</time>
      </trkpt>
      <trkpt lat="43.17029" lon="0.88556">
        <ele>385</ele>
        <time>2013-12-22T16:48:14</time>
      </trkpt>
      <trkpt lat="43.17029" lon="0.88558">
        <ele>385.3</ele>
        <time>2013-12-22T16:48:15</time>
      </trkpt>
      <trkpt lat="43.1703" lon="0.88559">
        <ele>385.3</ele>
        <time>2013-12-22T16:48:16</time>
      </trkpt>
      <trkpt lat="43.1703" lon="0.88561">
        <ele>385.3</ele>
        <time>2013-12-22T16:48:17</time>
      </trkpt>
      <trkpt lat="43.1703" lon="0.88562">
        <ele>385.3</ele>
        <time>2013-12-22T16:48:18</time>
      </trkpt>
      <trkpt lat="43.1703" lon="0.88564">
        <ele>385.3</ele>
        <time>2013-12-22T16:48:19</time>
      </trkpt>
      <trkpt lat="43.17031" lon="0.88565">
        <ele>385.6</ele>
        <time>2013-12-22T16:48:20</time>
      </trkpt>
      <trkpt lat="43.17031" lon="0.88567">
        <ele>385.7</ele>
        <time>2013-12-22T16:48:21</time>
      </trkpt>
      <trkpt lat="43.17032" lon="0.88568">
        <ele>385.6</ele>
        <time>2013-12-22T16:48:22</time>
      </trkpt>
      <trkpt lat="43.17033" lon="0.88569">
        <ele>385.5</ele>
        <time>2013-12-22T16:48:23</time>
      </trkpt>
      <trkpt lat="43.17033" lon="0.8857">
        <ele>385.3</ele>
        <time>2013-12-22T16:48:24</time>
      </trkpt>
      <trkpt lat="43.17034" lon="0.88571">
        <ele>385.8</ele>
        <time>2013-12-22T16:48:25</time>
      </trkpt>
      <trkpt lat="43.17035" lon="0.88572">
        <ele>385.6</ele>
        <time>2013-12-22T16:48:26</time>
      </trkpt>
      <trkpt lat="43.17036" lon="0.88573">
        <ele>385.6</ele>
        <time>2013-12-22T16:48:27</time>
      </trkpt>
      <trkpt lat="43.17036" lon="0.88575">
        <ele>385.6</ele>
        <time>2013-12-22T16:48:28</time>
      </trkpt>
      <trkpt lat="43.17037" lon="0.88576">
        <ele>385.8</ele>
        <time>2013-12-22T16:48:29</time>
      </trkpt>
      <trkpt lat="43.17038" lon="0.88577">
        <ele>385.7</ele>
        <time>2013-12-22T16:48:30</time>
      </trkpt>
      <trkpt lat="43.17039" lon="0.88578">
        <ele>385.6</ele>
        <time>2013-12-22T16:48:31</time>
      </trkpt>
      <trkpt lat="43.1704" lon="0.88579">
        <ele>385.6</ele>
        <time>2013-12-22T16:48:32</time>
      </trkpt>
      <trkpt lat="43.17041" lon="0.88579">
        <ele>385.7</ele>
        <time>2013-12-22T16:48:33</time>
      </trkpt>
      <trkpt lat="43.17042" lon="0.8858">
        <ele>385.6</ele>
        <time>2013-12-22T16:48:34</time>
      </trkpt>
      <trkpt lat="43.17043" lon="0.88581">
        <ele>385.6</ele>
        <time>2013-12-22T16:48:35</time>
      </trkpt>
      <trkpt lat="43.17043" lon="0.88582">
        <ele>385.6</ele>
        <time>2013-12-22T16:48:36</time>
      </trkpt>
      <trkpt lat="43.17044" lon="0.88583">
        <ele>385.7</ele>
        <time>2013-12-22T16:48:37</time>
      </trkpt>
      <trkpt lat="43.17044" lon="0.88584">
        <ele>385.6</ele>
        <time>2013-12-22T16:48:38</time>
      </trkpt>
      <trkpt lat="43.17045" lon="0.88586">
        <ele>385.6</ele>
        <time>2013-12-22T16:48:39</time>
      </trkpt>
      <trkpt lat="43.17046" lon="0.88587">
        <ele>405.3</ele>
        <time>2013-12-22T16:48:40</time>
      </trkpt>
      <trkpt lat="43.17046" lon="0.88588">
        <ele>397.5</ele>
        <time>2013-12-22T16:48:41</time>
      </trkpt>
      <trkpt lat="43.17047" lon="0.88589">
        <ele>393.2</ele>
        <time>2013-12-22T16:48:42</time>
      </trkpt>
      <trkpt lat="43.17047" lon="0.8859">
        <ele>391.1</ele>
        <time>2013-12-22T16:48:43</time>
      </trkpt>
      <trkpt lat="43.17048" lon="0.88591">
        <ele>389.4</ele>
        <time>2013-12-22T16:48:44</time>
      </trkpt>
      <trkpt lat="43.17048" lon="0.88593">
        <ele>388.7</ele>
        <time>2013-12-22T16:48:45</time>
      </trkpt>
      <trkpt lat="43.17049" lon="0.88594">
        <ele>387.9</ele>
        <time>2013-12-22T16:48:46</time>
      </trkpt>
      <trkpt lat="43.17049" lon="0.88595">
        <ele>387.9</ele>
        <time>2013-12-22T16:48:47</time>
      </trkpt>
      <trkpt lat="43.17049" lon="0.88596">
        <ele>387.2</ele>
        <time>2013-12-22T16:48:48</time>
      </trkpt>
      <trkpt lat="43.1705" lon="0.88597">
        <ele>387</ele>
        <time>2013-12-22T16:48:49</time>
      </trkpt>
      <trkpt lat="43.1705" lon="0.88598">
        <ele>386.8</ele>
        <time>2013-12-22T16:48:50</time>
      </trkpt>
      <trkpt lat="43.17051" lon="0.88599">
        <ele>386.7</ele>
        <time>2013-12-22T16:48:51</time>
      </trkpt>
      <trkpt lat="43.17051" lon="0.88601">
        <ele>386.5</ele>
        <time>2013-12-22T16:48:52</time>
      </trkpt>
      <trkpt lat="43.17051" lon="0.88602">
        <ele>386.2</ele>
        <time>2013-12-22T16:48:53</time>
      </trkpt>
      <trkpt lat="43.17051" lon="0.88603">
        <ele>385.8</ele>
        <time>2013-12-22T16:48:54</time>
      </trkpt>
      <trkpt lat="43.17052" lon="0.88604">
        <ele>385.7</ele>
        <time>2013-12-22T16:48:55</time>
      </trkpt>
      <trkpt lat="43.17052" lon="0.88605">
        <ele>385.3</ele>
        <time>2013-12-22T16:48:56</time>
      </trkpt>
      <trkpt lat="43.17053" lon="0.88606">
        <ele>385.1</ele>
        <time>2013-12-22T16:48:57</time>
      </trkpt>
      <trkpt lat="43.17053" lon="0.88607">
        <ele>385.4</ele>
        <time>2013-12-22T16:48:58</time>
      </trkpt>
      <trkpt lat="43.17053" lon="0.88608">
        <ele>385</ele>
        <time>2013-12-22T16:48:59</time>
      </trkpt>
      <trkpt lat="43.17054" lon="0.88609">
        <ele>385</ele>
        <time>2013-12-22T16:49:00</time>
      </trkpt>
      <trkpt lat="43.17054" lon="0.8861">
        <ele>384.7</ele>
        <time>2013-12-22T16:49:01</time>
      </trkpt>
      <trkpt lat="43.17054" lon="0.88611">
        <ele>384.6</ele>
        <time>2013-12-22T16:49:02</time>
      </trkpt>
      <trkpt lat="43.17054" lon="0.88613">
        <ele>384.5</ele>
        <time>2013-12-22T16:49:03</time>
      </trkpt>
      <trkpt lat="43.17051" lon="0.8861">
        <ele>384.5</ele>
        <time>2013-12-22T16:49:13</time>
      </trkpt>
      <trkpt lat="43.17051" lon="0.88611">
        <ele>384.2</ele>
        <time>2013-12-22T16:49:14</time>
      </trkpt>
      <trkpt lat="43.17052" lon="0.88612">
        <ele>384</ele>
        <time>2013-12-22T16:49:15</time>
      </trkpt>
      <trkpt lat="43.17052" lon="0.88612">
        <ele>383.6</ele>
        <time>2013-12-22T16:49:16</time>
      </trkpt>
      <trkpt lat="43.17053" lon="0.88613">
        <ele>383.9</ele>
        <time>2013-12-22T16:49:17</time>
      </trkpt>
      <trkpt lat="43.17053" lon="0.88614">
        <ele>383.7</ele>
        <time>2013-12-22T16:49:18</time>
      </trkpt>
      <trkpt lat="43.17053" lon="0.88618">
        <ele>384.5</ele>
        <time>2013-12-22T16:49:38</time>
      </trkpt>
      <trkpt lat="43.17053" lon="0.88618">
        <ele>384.7</ele>
        <time>2013-12-22T16:49:39</time>
      </trkpt>
      <trkpt lat="43.17054" lon="0.88619">
        <ele>385.2</ele>
        <time>2013-12-22T16:49:40</time>
      </trkpt>
      <trkpt lat="43.17054" lon="0.8862">
        <ele>384.5</ele>
        <time>2013-12-22T16:49:41</time>
      </trkpt>
      <trkpt lat="43.17055" lon="0.88621">
        <ele>384.8</ele>
        <time>2013-12-22T16:49:42</time>
      </trkpt>
      <trkpt lat="43.17055" lon="0.88621">
        <ele>385</ele>
        <time>2013-12-22T16:49:43</time>
      </trkpt>
      <trkpt lat="43.17056" lon="0.88622">
        <ele>384.9</ele>
        <time>2013-12-22T16:49:44</time>
      </trkpt>
      <trkpt lat="43.17056" lon="0.88623">
        <ele>406.8</ele>
        <time>2013-12-22T16:49:45</time>
      </trkpt>
      <trkpt lat="43.17056" lon="0.88624">
        <ele>397.9</ele>
        <time>2013-12-22T16:49:46</time>
      </trkpt>
      <trkpt lat="43.17057" lon="0.88625">
        <ele>393.1</ele>
        <time>2013-12-22T16:49:47</time>
      </trkpt>
      <trkpt lat="43.17057" lon="0.88626">
        <ele>390.5</ele>
        <time>2013-12-22T16:49:48</time>
      </trkpt>
    </trkseg>
  </trk>
</gpx>